<?xml version="1.0" encoding="UTF-8" standalone="no" ?>
<gpx xmlns="http://www.topografix.com/GPX/1/1" xmlns:xsi="http://www.w3.org/2001/XMLSchema-instance" xsi:schemaLocation="http://www.topografix.com/GPX/1/1 http://www.topografix.com/GPX/1/1/gpx.xsd" version="1.1" creator="VisuGPX - https://www.visugpx.com">
  <metadata>
    <name>carroyage</name>
  </metadata>
  <trk>
    <name><![CDATA[carroyage]]></name>
    <trkseg>
      <trkpt lat="46.75613" lon="5.81022">
        <ele>519.2</ele>
        <time>2022-05-24T11:43:09Z</time>
      </trkpt>
      <trkpt lat="46.75613" lon="5.81022">
        <ele>519.2</ele>
        <time>2022-05-24T11:43:10Z</time>
      </trkpt>
      <trkpt lat="46.75613" lon="5.81022">
        <ele>520</ele>
        <time>2022-05-24T11:43:21Z</time>
      </trkpt>
      <trkpt lat="46.75613" lon="5.81022">
        <ele>520</ele>
        <time>2022-05-24T11:43:22Z</time>
      </trkpt>
      <trkpt lat="46.75613" lon="5.81022">
        <ele>520</ele>
        <time>2022-05-24T11:43:23Z</time>
      </trkpt>
      <trkpt lat="46.75613" lon="5.81022">
        <ele>520</ele>
        <time>2022-05-24T11:43:39Z</time>
      </trkpt>
      <trkpt lat="46.75613" lon="5.81022">
        <ele>520</ele>
        <time>2022-05-24T11:43:40Z</time>
      </trkpt>
      <trkpt lat="46.75613" lon="5.81022">
        <ele>520</ele>
        <time>2022-05-24T11:43:41Z</time>
      </trkpt>
      <trkpt lat="46.75613" lon="5.81022">
        <ele>520</ele>
        <time>2022-05-24T11:43:42Z</time>
      </trkpt>
      <trkpt lat="46.75613" lon="5.81022">
        <ele>520</ele>
        <time>2022-05-24T11:43:43Z</time>
      </trkpt>
      <trkpt lat="46.75613" lon="5.81022">
        <ele>520</ele>
        <time>2022-05-24T11:43:44Z</time>
      </trkpt>
      <trkpt lat="46.75613" lon="5.81022">
        <ele>520</ele>
        <time>2022-05-24T11:43:45Z</time>
      </trkpt>
      <trkpt lat="46.75613" lon="5.81022">
        <ele>520</ele>
        <time>2022-05-24T11:43:46Z</time>
      </trkpt>
      <trkpt lat="46.75613" lon="5.81022">
        <ele>520</ele>
        <time>2022-05-24T11:43:47Z</time>
      </trkpt>
      <trkpt lat="46.75613" lon="5.81022">
        <ele>520</ele>
        <time>2022-05-24T11:43:48Z</time>
      </trkpt>
      <trkpt lat="46.75613" lon="5.81022">
        <ele>520</ele>
        <time>2022-05-24T11:43:49Z</time>
      </trkpt>
      <trkpt lat="46.75613" lon="5.81022">
        <ele>520</ele>
        <time>2022-05-24T11:43:50Z</time>
      </trkpt>
      <trkpt lat="46.75613" lon="5.81022">
        <ele>520</ele>
        <time>2022-05-24T11:43:51Z</time>
      </trkpt>
      <trkpt lat="46.75613" lon="5.81022">
        <ele>520</ele>
        <time>2022-05-24T11:43:52Z</time>
      </trkpt>
      <trkpt lat="46.75613" lon="5.81022">
        <ele>520</ele>
        <time>2022-05-24T11:43:58Z</time>
      </trkpt>
      <trkpt lat="46.75613" lon="5.81022">
        <ele>520</ele>
        <time>2022-05-24T11:43:59Z</time>
      </trkpt>
      <trkpt lat="46.75613" lon="5.81022">
        <ele>520</ele>
        <time>2022-05-24T11:44:01Z</time>
      </trkpt>
      <trkpt lat="46.75613" lon="5.81022">
        <ele>520</ele>
        <time>2022-05-24T11:44:02Z</time>
      </trkpt>
      <trkpt lat="46.75613" lon="5.81022">
        <ele>520</ele>
        <time>2022-05-24T11:44:03Z</time>
      </trkpt>
      <trkpt lat="46.75613" lon="5.81022">
        <ele>520</ele>
        <time>2022-05-24T11:44:04Z</time>
      </trkpt>
      <trkpt lat="46.75613" lon="5.81022">
        <ele>520</ele>
        <time>2022-05-24T11:44:05Z</time>
      </trkpt>
      <trkpt lat="46.75614" lon="5.81025">
        <ele>520</ele>
        <time>2022-05-24T11:44:06Z</time>
      </trkpt>
      <trkpt lat="46.75614" lon="5.81026">
        <ele>520</ele>
        <time>2022-05-24T11:44:07Z</time>
      </trkpt>
      <trkpt lat="46.75614" lon="5.81028">
        <ele>520</ele>
        <time>2022-05-24T11:44:08Z</time>
      </trkpt>
      <trkpt lat="46.75613" lon="5.81031">
        <ele>520.2</ele>
        <time>2022-05-24T11:44:09Z</time>
      </trkpt>
      <trkpt lat="46.75612" lon="5.81033">
        <ele>520.2</ele>
        <time>2022-05-24T11:44:10Z</time>
      </trkpt>
      <trkpt lat="46.75611" lon="5.81036">
        <ele>520.2</ele>
        <time>2022-05-24T11:44:11Z</time>
      </trkpt>
      <trkpt lat="46.7561" lon="5.81039">
        <ele>520.2</ele>
        <time>2022-05-24T11:44:12Z</time>
      </trkpt>
      <trkpt lat="46.7561" lon="5.81039">
        <ele>520.2</ele>
        <time>2022-05-24T11:44:13Z</time>
      </trkpt>
      <trkpt lat="46.75609" lon="5.81042">
        <ele>520.4</ele>
        <time>2022-05-24T11:44:14Z</time>
      </trkpt>
      <trkpt lat="46.75608" lon="5.81046">
        <ele>520.4</ele>
        <time>2022-05-24T11:44:15Z</time>
      </trkpt>
      <trkpt lat="46.75607" lon="5.8105">
        <ele>520.4</ele>
        <time>2022-05-24T11:44:16Z</time>
      </trkpt>
      <trkpt lat="46.75606" lon="5.81054">
        <ele>520.8</ele>
        <time>2022-05-24T11:44:17Z</time>
      </trkpt>
      <trkpt lat="46.75605" lon="5.81057">
        <ele>520.8</ele>
        <time>2022-05-24T11:44:18Z</time>
      </trkpt>
      <trkpt lat="46.75604" lon="5.81061">
        <ele>520.8</ele>
        <time>2022-05-24T11:44:19Z</time>
      </trkpt>
      <trkpt lat="46.75603" lon="5.81065">
        <ele>520.8</ele>
        <time>2022-05-24T11:44:20Z</time>
      </trkpt>
      <trkpt lat="46.75603" lon="5.81069">
        <ele>521</ele>
        <time>2022-05-24T11:44:21Z</time>
      </trkpt>
      <trkpt lat="46.75602" lon="5.81073">
        <ele>521</ele>
        <time>2022-05-24T11:44:22Z</time>
      </trkpt>
      <trkpt lat="46.756" lon="5.81076">
        <ele>521</ele>
        <time>2022-05-24T11:44:23Z</time>
      </trkpt>
      <trkpt lat="46.75599" lon="5.8108">
        <ele>521.2</ele>
        <time>2022-05-24T11:44:24Z</time>
      </trkpt>
      <trkpt lat="46.75598" lon="5.81084">
        <ele>521.2</ele>
        <time>2022-05-24T11:44:25Z</time>
      </trkpt>
      <trkpt lat="46.75597" lon="5.81088">
        <ele>521.2</ele>
        <time>2022-05-24T11:44:26Z</time>
      </trkpt>
      <trkpt lat="46.75596" lon="5.81093">
        <ele>521.2</ele>
        <time>2022-05-24T11:44:27Z</time>
      </trkpt>
      <trkpt lat="46.75595" lon="5.81098">
        <ele>521.2</ele>
        <time>2022-05-24T11:44:28Z</time>
      </trkpt>
      <trkpt lat="46.75594" lon="5.81102">
        <ele>521.6</ele>
        <time>2022-05-24T11:44:29Z</time>
      </trkpt>
      <trkpt lat="46.75592" lon="5.81108">
        <ele>521.6</ele>
        <time>2022-05-24T11:44:30Z</time>
      </trkpt>
      <trkpt lat="46.75591" lon="5.81113">
        <ele>521.8</ele>
        <time>2022-05-24T11:44:31Z</time>
      </trkpt>
      <trkpt lat="46.75589" lon="5.81118">
        <ele>521.8</ele>
        <time>2022-05-24T11:44:32Z</time>
      </trkpt>
      <trkpt lat="46.75588" lon="5.81123">
        <ele>522.2</ele>
        <time>2022-05-24T11:44:33Z</time>
      </trkpt>
      <trkpt lat="46.75587" lon="5.81128">
        <ele>522.2</ele>
        <time>2022-05-24T11:44:34Z</time>
      </trkpt>
      <trkpt lat="46.75585" lon="5.81133">
        <ele>522.2</ele>
        <time>2022-05-24T11:44:35Z</time>
      </trkpt>
      <trkpt lat="46.75584" lon="5.81138">
        <ele>522.4</ele>
        <time>2022-05-24T11:44:36Z</time>
      </trkpt>
      <trkpt lat="46.75583" lon="5.81143">
        <ele>522.4</ele>
        <time>2022-05-24T11:44:37Z</time>
      </trkpt>
      <trkpt lat="46.75581" lon="5.81147">
        <ele>522.6</ele>
        <time>2022-05-24T11:44:38Z</time>
      </trkpt>
      <trkpt lat="46.75579" lon="5.81152">
        <ele>522.6</ele>
        <time>2022-05-24T11:44:39Z</time>
      </trkpt>
      <trkpt lat="46.75578" lon="5.81157">
        <ele>522.6</ele>
        <time>2022-05-24T11:44:40Z</time>
      </trkpt>
      <trkpt lat="46.75577" lon="5.81162">
        <ele>522.6</ele>
        <time>2022-05-24T11:44:41Z</time>
      </trkpt>
      <trkpt lat="46.75576" lon="5.81167">
        <ele>523</ele>
        <time>2022-05-24T11:44:42Z</time>
      </trkpt>
      <trkpt lat="46.75574" lon="5.81171">
        <ele>523</ele>
        <time>2022-05-24T11:44:43Z</time>
      </trkpt>
      <trkpt lat="46.75573" lon="5.81176">
        <ele>523</ele>
        <time>2022-05-24T11:44:44Z</time>
      </trkpt>
      <trkpt lat="46.75572" lon="5.8118">
        <ele>523.2</ele>
        <time>2022-05-24T11:44:45Z</time>
      </trkpt>
      <trkpt lat="46.7557" lon="5.81185">
        <ele>523.2</ele>
        <time>2022-05-24T11:44:46Z</time>
      </trkpt>
      <trkpt lat="46.75569" lon="5.81189">
        <ele>523.2</ele>
        <time>2022-05-24T11:44:47Z</time>
      </trkpt>
      <trkpt lat="46.75568" lon="5.81193">
        <ele>523.2</ele>
        <time>2022-05-24T11:44:48Z</time>
      </trkpt>
      <trkpt lat="46.75567" lon="5.81197">
        <ele>523.6</ele>
        <time>2022-05-24T11:44:49Z</time>
      </trkpt>
      <trkpt lat="46.75566" lon="5.81202">
        <ele>523.6</ele>
        <time>2022-05-24T11:44:50Z</time>
      </trkpt>
      <trkpt lat="46.75564" lon="5.81206">
        <ele>523.6</ele>
        <time>2022-05-24T11:44:51Z</time>
      </trkpt>
      <trkpt lat="46.75563" lon="5.8121">
        <ele>523.8</ele>
        <time>2022-05-24T11:44:52Z</time>
      </trkpt>
      <trkpt lat="46.75562" lon="5.81214">
        <ele>523.8</ele>
        <time>2022-05-24T11:44:53Z</time>
      </trkpt>
      <trkpt lat="46.7556" lon="5.81218">
        <ele>523.8</ele>
        <time>2022-05-24T11:44:54Z</time>
      </trkpt>
      <trkpt lat="46.75559" lon="5.81222">
        <ele>523.8</ele>
        <time>2022-05-24T11:44:55Z</time>
      </trkpt>
      <trkpt lat="46.75558" lon="5.81226">
        <ele>524</ele>
        <time>2022-05-24T11:44:56Z</time>
      </trkpt>
      <trkpt lat="46.75557" lon="5.8123">
        <ele>524</ele>
        <time>2022-05-24T11:44:57Z</time>
      </trkpt>
      <trkpt lat="46.75556" lon="5.81234">
        <ele>524</ele>
        <time>2022-05-24T11:44:58Z</time>
      </trkpt>
      <trkpt lat="46.75555" lon="5.81238">
        <ele>524.2</ele>
        <time>2022-05-24T11:44:59Z</time>
      </trkpt>
      <trkpt lat="46.75554" lon="5.81242">
        <ele>524.2</ele>
        <time>2022-05-24T11:45:00Z</time>
      </trkpt>
      <trkpt lat="46.75553" lon="5.81246">
        <ele>524.4</ele>
        <time>2022-05-24T11:45:01Z</time>
      </trkpt>
      <trkpt lat="46.75552" lon="5.8125">
        <ele>524.4</ele>
        <time>2022-05-24T11:45:02Z</time>
      </trkpt>
      <trkpt lat="46.7555" lon="5.81254">
        <ele>524.4</ele>
        <time>2022-05-24T11:45:03Z</time>
      </trkpt>
      <trkpt lat="46.75549" lon="5.81258">
        <ele>524.8</ele>
        <time>2022-05-24T11:45:04Z</time>
      </trkpt>
      <trkpt lat="46.75548" lon="5.81262">
        <ele>524.8</ele>
        <time>2022-05-24T11:45:05Z</time>
      </trkpt>
      <trkpt lat="46.75546" lon="5.81266">
        <ele>524.8</ele>
        <time>2022-05-24T11:45:06Z</time>
      </trkpt>
      <trkpt lat="46.75545" lon="5.8127">
        <ele>525</ele>
        <time>2022-05-24T11:45:07Z</time>
      </trkpt>
      <trkpt lat="46.75543" lon="5.81275">
        <ele>525</ele>
        <time>2022-05-24T11:45:08Z</time>
      </trkpt>
      <trkpt lat="46.75542" lon="5.81279">
        <ele>525</ele>
        <time>2022-05-24T11:45:09Z</time>
      </trkpt>
      <trkpt lat="46.75541" lon="5.81284">
        <ele>525.2</ele>
        <time>2022-05-24T11:45:10Z</time>
      </trkpt>
      <trkpt lat="46.7554" lon="5.81289">
        <ele>525.2</ele>
        <time>2022-05-24T11:45:11Z</time>
      </trkpt>
      <trkpt lat="46.75539" lon="5.81293">
        <ele>525.4</ele>
        <time>2022-05-24T11:45:12Z</time>
      </trkpt>
      <trkpt lat="46.75537" lon="5.81298">
        <ele>525.4</ele>
        <time>2022-05-24T11:45:13Z</time>
      </trkpt>
      <trkpt lat="46.75536" lon="5.81303">
        <ele>525.4</ele>
        <time>2022-05-24T11:45:14Z</time>
      </trkpt>
      <trkpt lat="46.75535" lon="5.81308">
        <ele>525.4</ele>
        <time>2022-05-24T11:45:15Z</time>
      </trkpt>
      <trkpt lat="46.75533" lon="5.81313">
        <ele>525.6</ele>
        <time>2022-05-24T11:45:16Z</time>
      </trkpt>
      <trkpt lat="46.75532" lon="5.81318">
        <ele>525.6</ele>
        <time>2022-05-24T11:45:17Z</time>
      </trkpt>
      <trkpt lat="46.75531" lon="5.81323">
        <ele>525.6</ele>
        <time>2022-05-24T11:45:18Z</time>
      </trkpt>
      <trkpt lat="46.75529" lon="5.81328">
        <ele>526</ele>
        <time>2022-05-24T11:45:19Z</time>
      </trkpt>
      <trkpt lat="46.75527" lon="5.81333">
        <ele>526</ele>
        <time>2022-05-24T11:45:20Z</time>
      </trkpt>
      <trkpt lat="46.75526" lon="5.81338">
        <ele>526</ele>
        <time>2022-05-24T11:45:21Z</time>
      </trkpt>
      <trkpt lat="46.75524" lon="5.81343">
        <ele>526.2</ele>
        <time>2022-05-24T11:45:22Z</time>
      </trkpt>
      <trkpt lat="46.75523" lon="5.81349">
        <ele>526.2</ele>
        <time>2022-05-24T11:45:23Z</time>
      </trkpt>
      <trkpt lat="46.75521" lon="5.81354">
        <ele>526.2</ele>
        <time>2022-05-24T11:45:24Z</time>
      </trkpt>
      <trkpt lat="46.7552" lon="5.81359">
        <ele>526.2</ele>
        <time>2022-05-24T11:45:25Z</time>
      </trkpt>
      <trkpt lat="46.75518" lon="5.81365">
        <ele>526.4</ele>
        <time>2022-05-24T11:45:26Z</time>
      </trkpt>
      <trkpt lat="46.75517" lon="5.8137">
        <ele>526.4</ele>
        <time>2022-05-24T11:45:27Z</time>
      </trkpt>
      <trkpt lat="46.75516" lon="5.81375">
        <ele>526.4</ele>
        <time>2022-05-24T11:45:28Z</time>
      </trkpt>
      <trkpt lat="46.75515" lon="5.81381">
        <ele>526.6</ele>
        <time>2022-05-24T11:45:29Z</time>
      </trkpt>
      <trkpt lat="46.75514" lon="5.81386">
        <ele>526.6</ele>
        <time>2022-05-24T11:45:30Z</time>
      </trkpt>
      <trkpt lat="46.75512" lon="5.8139">
        <ele>526.6</ele>
        <time>2022-05-24T11:45:31Z</time>
      </trkpt>
      <trkpt lat="46.7551" lon="5.81394">
        <ele>526.6</ele>
        <time>2022-05-24T11:45:32Z</time>
      </trkpt>
      <trkpt lat="46.75507" lon="5.81396">
        <ele>526.6</ele>
        <time>2022-05-24T11:45:33Z</time>
      </trkpt>
      <trkpt lat="46.75504" lon="5.81397">
        <ele>526.6</ele>
        <time>2022-05-24T11:45:34Z</time>
      </trkpt>
      <trkpt lat="46.755" lon="5.81397">
        <ele>526.6</ele>
        <time>2022-05-24T11:45:35Z</time>
      </trkpt>
      <trkpt lat="46.75496" lon="5.81396">
        <ele>526.6</ele>
        <time>2022-05-24T11:45:36Z</time>
      </trkpt>
      <trkpt lat="46.75491" lon="5.81396">
        <ele>526.8</ele>
        <time>2022-05-24T11:45:37Z</time>
      </trkpt>
      <trkpt lat="46.75487" lon="5.81396">
        <ele>526.8</ele>
        <time>2022-05-24T11:45:38Z</time>
      </trkpt>
      <trkpt lat="46.75482" lon="5.81397">
        <ele>526.8</ele>
        <time>2022-05-24T11:45:39Z</time>
      </trkpt>
      <trkpt lat="46.75478" lon="5.81399">
        <ele>526.8</ele>
        <time>2022-05-24T11:45:40Z</time>
      </trkpt>
      <trkpt lat="46.75473" lon="5.81402">
        <ele>526.8</ele>
        <time>2022-05-24T11:45:41Z</time>
      </trkpt>
      <trkpt lat="46.75468" lon="5.81405">
        <ele>526.8</ele>
        <time>2022-05-24T11:45:42Z</time>
      </trkpt>
      <trkpt lat="46.75464" lon="5.81409">
        <ele>526.8</ele>
        <time>2022-05-24T11:45:43Z</time>
      </trkpt>
      <trkpt lat="46.75459" lon="5.81412">
        <ele>526.6</ele>
        <time>2022-05-24T11:45:44Z</time>
      </trkpt>
      <trkpt lat="46.75454" lon="5.81415">
        <ele>526.6</ele>
        <time>2022-05-24T11:45:45Z</time>
      </trkpt>
      <trkpt lat="46.75448" lon="5.81417">
        <ele>526.6</ele>
        <time>2022-05-24T11:45:46Z</time>
      </trkpt>
      <trkpt lat="46.75443" lon="5.81418">
        <ele>526.4</ele>
        <time>2022-05-24T11:45:47Z</time>
      </trkpt>
      <trkpt lat="46.75437" lon="5.81418">
        <ele>526.4</ele>
        <time>2022-05-24T11:45:48Z</time>
      </trkpt>
      <trkpt lat="46.75432" lon="5.81419">
        <ele>526.4</ele>
        <time>2022-05-24T11:45:49Z</time>
      </trkpt>
      <trkpt lat="46.75427" lon="5.8142">
        <ele>526.4</ele>
        <time>2022-05-24T11:45:50Z</time>
      </trkpt>
      <trkpt lat="46.75422" lon="5.81421">
        <ele>526.4</ele>
        <time>2022-05-24T11:45:51Z</time>
      </trkpt>
      <trkpt lat="46.75417" lon="5.81423">
        <ele>526.4</ele>
        <time>2022-05-24T11:45:52Z</time>
      </trkpt>
      <trkpt lat="46.75412" lon="5.81425">
        <ele>526.4</ele>
        <time>2022-05-24T11:45:53Z</time>
      </trkpt>
      <trkpt lat="46.75407" lon="5.81429">
        <ele>526.4</ele>
        <time>2022-05-24T11:45:54Z</time>
      </trkpt>
      <trkpt lat="46.75402" lon="5.81433">
        <ele>526.4</ele>
        <time>2022-05-24T11:45:55Z</time>
      </trkpt>
      <trkpt lat="46.75398" lon="5.81437">
        <ele>526.4</ele>
        <time>2022-05-24T11:45:56Z</time>
      </trkpt>
      <trkpt lat="46.75394" lon="5.81442">
        <ele>526.4</ele>
        <time>2022-05-24T11:45:57Z</time>
      </trkpt>
      <trkpt lat="46.7539" lon="5.81447">
        <ele>526.4</ele>
        <time>2022-05-24T11:45:58Z</time>
      </trkpt>
      <trkpt lat="46.75386" lon="5.81451">
        <ele>526.4</ele>
        <time>2022-05-24T11:45:59Z</time>
      </trkpt>
      <trkpt lat="46.75382" lon="5.81455">
        <ele>526.4</ele>
        <time>2022-05-24T11:46:00Z</time>
      </trkpt>
      <trkpt lat="46.75377" lon="5.81459">
        <ele>526.4</ele>
        <time>2022-05-24T11:46:01Z</time>
      </trkpt>
      <trkpt lat="46.75373" lon="5.81461">
        <ele>526.4</ele>
        <time>2022-05-24T11:46:02Z</time>
      </trkpt>
      <trkpt lat="46.75369" lon="5.81463">
        <ele>526.4</ele>
        <time>2022-05-24T11:46:03Z</time>
      </trkpt>
      <trkpt lat="46.75364" lon="5.81464">
        <ele>526.6</ele>
        <time>2022-05-24T11:46:04Z</time>
      </trkpt>
      <trkpt lat="46.7536" lon="5.81465">
        <ele>526.6</ele>
        <time>2022-05-24T11:46:05Z</time>
      </trkpt>
      <trkpt lat="46.75355" lon="5.81465">
        <ele>526.6</ele>
        <time>2022-05-24T11:46:06Z</time>
      </trkpt>
      <trkpt lat="46.7535" lon="5.81464">
        <ele>526.6</ele>
        <time>2022-05-24T11:46:07Z</time>
      </trkpt>
      <trkpt lat="46.75346" lon="5.81463">
        <ele>526.6</ele>
        <time>2022-05-24T11:46:08Z</time>
      </trkpt>
      <trkpt lat="46.75341" lon="5.81463">
        <ele>526.6</ele>
        <time>2022-05-24T11:46:09Z</time>
      </trkpt>
      <trkpt lat="46.75336" lon="5.81462">
        <ele>526.6</ele>
        <time>2022-05-24T11:46:10Z</time>
      </trkpt>
      <trkpt lat="46.75331" lon="5.81462">
        <ele>526.6</ele>
        <time>2022-05-24T11:46:11Z</time>
      </trkpt>
      <trkpt lat="46.75326" lon="5.81461">
        <ele>526.6</ele>
        <time>2022-05-24T11:46:12Z</time>
      </trkpt>
      <trkpt lat="46.75321" lon="5.8146">
        <ele>526.6</ele>
        <time>2022-05-24T11:46:13Z</time>
      </trkpt>
      <trkpt lat="46.75316" lon="5.81458">
        <ele>526.6</ele>
        <time>2022-05-24T11:46:14Z</time>
      </trkpt>
      <trkpt lat="46.75312" lon="5.81457">
        <ele>526.4</ele>
        <time>2022-05-24T11:46:15Z</time>
      </trkpt>
      <trkpt lat="46.75307" lon="5.81455">
        <ele>526.4</ele>
        <time>2022-05-24T11:46:16Z</time>
      </trkpt>
      <trkpt lat="46.75301" lon="5.81454">
        <ele>526.2</ele>
        <time>2022-05-24T11:46:17Z</time>
      </trkpt>
      <trkpt lat="46.75296" lon="5.81453">
        <ele>526</ele>
        <time>2022-05-24T11:46:18Z</time>
      </trkpt>
      <trkpt lat="46.75291" lon="5.81451">
        <ele>526</ele>
        <time>2022-05-24T11:46:19Z</time>
      </trkpt>
      <trkpt lat="46.75285" lon="5.81449">
        <ele>526</ele>
        <time>2022-05-24T11:46:20Z</time>
      </trkpt>
      <trkpt lat="46.75281" lon="5.81448">
        <ele>525.6</ele>
        <time>2022-05-24T11:46:21Z</time>
      </trkpt>
      <trkpt lat="46.75276" lon="5.81449">
        <ele>525.2</ele>
        <time>2022-05-24T11:46:22Z</time>
      </trkpt>
      <trkpt lat="46.75271" lon="5.8145">
        <ele>524.8</ele>
        <time>2022-05-24T11:46:23Z</time>
      </trkpt>
      <trkpt lat="46.75266" lon="5.81454">
        <ele>524.4</ele>
        <time>2022-05-24T11:46:24Z</time>
      </trkpt>
      <trkpt lat="46.75261" lon="5.81459">
        <ele>523.8</ele>
        <time>2022-05-24T11:46:25Z</time>
      </trkpt>
      <trkpt lat="46.75256" lon="5.81466">
        <ele>523.4</ele>
        <time>2022-05-24T11:46:26Z</time>
      </trkpt>
      <trkpt lat="46.75252" lon="5.81473">
        <ele>523</ele>
        <time>2022-05-24T11:46:27Z</time>
      </trkpt>
      <trkpt lat="46.75247" lon="5.8148">
        <ele>522.8</ele>
        <time>2022-05-24T11:46:28Z</time>
      </trkpt>
      <trkpt lat="46.75241" lon="5.81488">
        <ele>522.4</ele>
        <time>2022-05-24T11:46:29Z</time>
      </trkpt>
      <trkpt lat="46.75236" lon="5.81496">
        <ele>521.8</ele>
        <time>2022-05-24T11:46:30Z</time>
      </trkpt>
      <trkpt lat="46.7523" lon="5.81505">
        <ele>521.4</ele>
        <time>2022-05-24T11:46:31Z</time>
      </trkpt>
      <trkpt lat="46.75225" lon="5.81513">
        <ele>520.8</ele>
        <time>2022-05-24T11:46:32Z</time>
      </trkpt>
      <trkpt lat="46.7522" lon="5.81523">
        <ele>520</ele>
        <time>2022-05-24T11:46:33Z</time>
      </trkpt>
      <trkpt lat="46.75217" lon="5.81534">
        <ele>519.2</ele>
        <time>2022-05-24T11:46:34Z</time>
      </trkpt>
      <trkpt lat="46.75214" lon="5.81545">
        <ele>518.4</ele>
        <time>2022-05-24T11:46:35Z</time>
      </trkpt>
      <trkpt lat="46.75213" lon="5.81558">
        <ele>517.8</ele>
        <time>2022-05-24T11:46:36Z</time>
      </trkpt>
      <trkpt lat="46.75212" lon="5.81571">
        <ele>517</ele>
        <time>2022-05-24T11:46:37Z</time>
      </trkpt>
      <trkpt lat="46.7521" lon="5.81583">
        <ele>516.4</ele>
        <time>2022-05-24T11:46:38Z</time>
      </trkpt>
      <trkpt lat="46.75208" lon="5.81594">
        <ele>515.8</ele>
        <time>2022-05-24T11:46:39Z</time>
      </trkpt>
      <trkpt lat="46.75205" lon="5.81603">
        <ele>515.4</ele>
        <time>2022-05-24T11:46:40Z</time>
      </trkpt>
      <trkpt lat="46.75201" lon="5.8161">
        <ele>515</ele>
        <time>2022-05-24T11:46:41Z</time>
      </trkpt>
      <trkpt lat="46.75197" lon="5.81614">
        <ele>514.8</ele>
        <time>2022-05-24T11:46:42Z</time>
      </trkpt>
      <trkpt lat="46.75193" lon="5.81615">
        <ele>514.8</ele>
        <time>2022-05-24T11:46:43Z</time>
      </trkpt>
      <trkpt lat="46.7519" lon="5.81616">
        <ele>514.8</ele>
        <time>2022-05-24T11:46:44Z</time>
      </trkpt>
      <trkpt lat="46.75188" lon="5.81616">
        <ele>514.6</ele>
        <time>2022-05-24T11:46:45Z</time>
      </trkpt>
      <trkpt lat="46.75185" lon="5.81617">
        <ele>514.6</ele>
        <time>2022-05-24T11:46:46Z</time>
      </trkpt>
      <trkpt lat="46.75184" lon="5.81619">
        <ele>514.6</ele>
        <time>2022-05-24T11:46:47Z</time>
      </trkpt>
      <trkpt lat="46.75182" lon="5.8162">
        <ele>514.6</ele>
        <time>2022-05-24T11:46:48Z</time>
      </trkpt>
      <trkpt lat="46.7518" lon="5.81622">
        <ele>514.6</ele>
        <time>2022-05-24T11:46:49Z</time>
      </trkpt>
      <trkpt lat="46.75177" lon="5.81625">
        <ele>514.6</ele>
        <time>2022-05-24T11:46:50Z</time>
      </trkpt>
      <trkpt lat="46.75176" lon="5.81628">
        <ele>514.6</ele>
        <time>2022-05-24T11:46:51Z</time>
      </trkpt>
      <trkpt lat="46.75175" lon="5.81632">
        <ele>514.6</ele>
        <time>2022-05-24T11:46:52Z</time>
      </trkpt>
      <trkpt lat="46.75173" lon="5.81636">
        <ele>514.6</ele>
        <time>2022-05-24T11:46:53Z</time>
      </trkpt>
      <trkpt lat="46.75172" lon="5.81639">
        <ele>514.6</ele>
        <time>2022-05-24T11:46:54Z</time>
      </trkpt>
      <trkpt lat="46.7517" lon="5.81642">
        <ele>515</ele>
        <time>2022-05-24T11:46:55Z</time>
      </trkpt>
      <trkpt lat="46.75168" lon="5.81646">
        <ele>515.2</ele>
        <time>2022-05-24T11:46:56Z</time>
      </trkpt>
      <trkpt lat="46.75166" lon="5.81649">
        <ele>515.4</ele>
        <time>2022-05-24T11:46:57Z</time>
      </trkpt>
      <trkpt lat="46.75164" lon="5.81653">
        <ele>515.6</ele>
        <time>2022-05-24T11:46:58Z</time>
      </trkpt>
      <trkpt lat="46.75161" lon="5.81656">
        <ele>515.8</ele>
        <time>2022-05-24T11:46:59Z</time>
      </trkpt>
      <trkpt lat="46.75159" lon="5.81659">
        <ele>516.2</ele>
        <time>2022-05-24T11:47:00Z</time>
      </trkpt>
      <trkpt lat="46.75157" lon="5.81662">
        <ele>516.6</ele>
        <time>2022-05-24T11:47:01Z</time>
      </trkpt>
      <trkpt lat="46.75155" lon="5.81665">
        <ele>517</ele>
        <time>2022-05-24T11:47:02Z</time>
      </trkpt>
      <trkpt lat="46.75153" lon="5.81669">
        <ele>517.2</ele>
        <time>2022-05-24T11:47:03Z</time>
      </trkpt>
      <trkpt lat="46.75151" lon="5.81671">
        <ele>517.4</ele>
        <time>2022-05-24T11:47:04Z</time>
      </trkpt>
      <trkpt lat="46.75149" lon="5.81674">
        <ele>517.6</ele>
        <time>2022-05-24T11:47:05Z</time>
      </trkpt>
      <trkpt lat="46.75147" lon="5.81677">
        <ele>517.8</ele>
        <time>2022-05-24T11:47:06Z</time>
      </trkpt>
      <trkpt lat="46.75145" lon="5.81681">
        <ele>518.2</ele>
        <time>2022-05-24T11:47:07Z</time>
      </trkpt>
      <trkpt lat="46.75143" lon="5.81684">
        <ele>518.4</ele>
        <time>2022-05-24T11:47:08Z</time>
      </trkpt>
      <trkpt lat="46.75141" lon="5.81687">
        <ele>518.8</ele>
        <time>2022-05-24T11:47:09Z</time>
      </trkpt>
      <trkpt lat="46.75139" lon="5.8169">
        <ele>519</ele>
        <time>2022-05-24T11:47:10Z</time>
      </trkpt>
      <trkpt lat="46.75137" lon="5.81694">
        <ele>519.2</ele>
        <time>2022-05-24T11:47:11Z</time>
      </trkpt>
      <trkpt lat="46.75135" lon="5.81697">
        <ele>519.6</ele>
        <time>2022-05-24T11:47:12Z</time>
      </trkpt>
      <trkpt lat="46.75133" lon="5.81701">
        <ele>520</ele>
        <time>2022-05-24T11:47:13Z</time>
      </trkpt>
      <trkpt lat="46.75131" lon="5.81706">
        <ele>520.2</ele>
        <time>2022-05-24T11:47:14Z</time>
      </trkpt>
      <trkpt lat="46.75129" lon="5.8171">
        <ele>520.6</ele>
        <time>2022-05-24T11:47:15Z</time>
      </trkpt>
      <trkpt lat="46.75127" lon="5.81714">
        <ele>521</ele>
        <time>2022-05-24T11:47:16Z</time>
      </trkpt>
      <trkpt lat="46.75125" lon="5.81719">
        <ele>521.2</ele>
        <time>2022-05-24T11:47:17Z</time>
      </trkpt>
      <trkpt lat="46.75122" lon="5.81726">
        <ele>521.6</ele>
        <time>2022-05-24T11:47:18Z</time>
      </trkpt>
      <trkpt lat="46.7512" lon="5.8173">
        <ele>521.8</ele>
        <time>2022-05-24T11:47:19Z</time>
      </trkpt>
      <trkpt lat="46.7512" lon="5.8173">
        <ele>522</ele>
        <time>2022-05-24T11:47:20Z</time>
      </trkpt>
      <trkpt lat="46.75119" lon="5.81734">
        <ele>522.4</ele>
        <time>2022-05-24T11:47:21Z</time>
      </trkpt>
      <trkpt lat="46.75118" lon="5.81738">
        <ele>522.4</ele>
        <time>2022-05-24T11:47:22Z</time>
      </trkpt>
      <trkpt lat="46.75117" lon="5.81742">
        <ele>522.8</ele>
        <time>2022-05-24T11:47:23Z</time>
      </trkpt>
      <trkpt lat="46.75116" lon="5.81746">
        <ele>523.2</ele>
        <time>2022-05-24T11:47:24Z</time>
      </trkpt>
      <trkpt lat="46.75115" lon="5.81751">
        <ele>523.4</ele>
        <time>2022-05-24T11:47:25Z</time>
      </trkpt>
      <trkpt lat="46.75114" lon="5.81755">
        <ele>523.6</ele>
        <time>2022-05-24T11:47:26Z</time>
      </trkpt>
      <trkpt lat="46.75114" lon="5.8176">
        <ele>524</ele>
        <time>2022-05-24T11:47:27Z</time>
      </trkpt>
      <trkpt lat="46.75115" lon="5.81764">
        <ele>524.4</ele>
        <time>2022-05-24T11:47:28Z</time>
      </trkpt>
      <trkpt lat="46.75116" lon="5.81769">
        <ele>524.6</ele>
        <time>2022-05-24T11:47:29Z</time>
      </trkpt>
      <trkpt lat="46.75118" lon="5.81772">
        <ele>524.8</ele>
        <time>2022-05-24T11:47:30Z</time>
      </trkpt>
      <trkpt lat="46.7512" lon="5.81775">
        <ele>524.8</ele>
        <time>2022-05-24T11:47:31Z</time>
      </trkpt>
      <trkpt lat="46.75121" lon="5.81778">
        <ele>525.2</ele>
        <time>2022-05-24T11:47:32Z</time>
      </trkpt>
      <trkpt lat="46.75123" lon="5.81782">
        <ele>525.6</ele>
        <time>2022-05-24T11:47:33Z</time>
      </trkpt>
      <trkpt lat="46.75125" lon="5.81785">
        <ele>525.8</ele>
        <time>2022-05-24T11:47:34Z</time>
      </trkpt>
      <trkpt lat="46.75128" lon="5.81788">
        <ele>526</ele>
        <time>2022-05-24T11:47:35Z</time>
      </trkpt>
      <trkpt lat="46.7513" lon="5.81791">
        <ele>526.4</ele>
        <time>2022-05-24T11:47:36Z</time>
      </trkpt>
      <trkpt lat="46.75132" lon="5.81794">
        <ele>526.6</ele>
        <time>2022-05-24T11:47:37Z</time>
      </trkpt>
      <trkpt lat="46.75134" lon="5.81796">
        <ele>527</ele>
        <time>2022-05-24T11:47:38Z</time>
      </trkpt>
      <trkpt lat="46.75136" lon="5.81799">
        <ele>527.2</ele>
        <time>2022-05-24T11:47:39Z</time>
      </trkpt>
      <trkpt lat="46.75139" lon="5.81802">
        <ele>527.6</ele>
        <time>2022-05-24T11:47:40Z</time>
      </trkpt>
      <trkpt lat="46.75141" lon="5.81804">
        <ele>527.8</ele>
        <time>2022-05-24T11:47:41Z</time>
      </trkpt>
      <trkpt lat="46.75143" lon="5.81807">
        <ele>528.4</ele>
        <time>2022-05-24T11:47:42Z</time>
      </trkpt>
      <trkpt lat="46.75145" lon="5.8181">
        <ele>528.8</ele>
        <time>2022-05-24T11:47:43Z</time>
      </trkpt>
      <trkpt lat="46.75147" lon="5.81814">
        <ele>528.8</ele>
        <time>2022-05-24T11:47:44Z</time>
      </trkpt>
      <trkpt lat="46.75149" lon="5.81817">
        <ele>529.2</ele>
        <time>2022-05-24T11:47:45Z</time>
      </trkpt>
      <trkpt lat="46.7515" lon="5.81821">
        <ele>529.4</ele>
        <time>2022-05-24T11:47:46Z</time>
      </trkpt>
      <trkpt lat="46.75152" lon="5.81824">
        <ele>529.4</ele>
        <time>2022-05-24T11:47:47Z</time>
      </trkpt>
      <trkpt lat="46.75153" lon="5.81828">
        <ele>529.6</ele>
        <time>2022-05-24T11:47:48Z</time>
      </trkpt>
      <trkpt lat="46.75155" lon="5.81832">
        <ele>529.6</ele>
        <time>2022-05-24T11:47:49Z</time>
      </trkpt>
      <trkpt lat="46.75156" lon="5.81836">
        <ele>530</ele>
        <time>2022-05-24T11:47:50Z</time>
      </trkpt>
      <trkpt lat="46.75158" lon="5.81839">
        <ele>530.4</ele>
        <time>2022-05-24T11:47:51Z</time>
      </trkpt>
      <trkpt lat="46.75159" lon="5.81842">
        <ele>530.6</ele>
        <time>2022-05-24T11:47:52Z</time>
      </trkpt>
      <trkpt lat="46.7516" lon="5.81846">
        <ele>530.8</ele>
        <time>2022-05-24T11:47:53Z</time>
      </trkpt>
      <trkpt lat="46.75161" lon="5.81849">
        <ele>531</ele>
        <time>2022-05-24T11:47:54Z</time>
      </trkpt>
      <trkpt lat="46.75162" lon="5.81852">
        <ele>531</ele>
        <time>2022-05-24T11:47:55Z</time>
      </trkpt>
      <trkpt lat="46.75163" lon="5.81855">
        <ele>531.4</ele>
        <time>2022-05-24T11:47:56Z</time>
      </trkpt>
      <trkpt lat="46.75164" lon="5.81859">
        <ele>531.4</ele>
        <time>2022-05-24T11:47:57Z</time>
      </trkpt>
      <trkpt lat="46.75165" lon="5.81862">
        <ele>531.8</ele>
        <time>2022-05-24T11:47:58Z</time>
      </trkpt>
      <trkpt lat="46.75166" lon="5.81866">
        <ele>531.8</ele>
        <time>2022-05-24T11:47:59Z</time>
      </trkpt>
      <trkpt lat="46.75167" lon="5.81869">
        <ele>532</ele>
        <time>2022-05-24T11:48:00Z</time>
      </trkpt>
      <trkpt lat="46.75168" lon="5.81873">
        <ele>532</ele>
        <time>2022-05-24T11:48:01Z</time>
      </trkpt>
      <trkpt lat="46.75168" lon="5.81876">
        <ele>532.2</ele>
        <time>2022-05-24T11:48:02Z</time>
      </trkpt>
      <trkpt lat="46.75169" lon="5.8188">
        <ele>532.2</ele>
        <time>2022-05-24T11:48:03Z</time>
      </trkpt>
      <trkpt lat="46.75169" lon="5.81883">
        <ele>532.6</ele>
        <time>2022-05-24T11:48:04Z</time>
      </trkpt>
      <trkpt lat="46.7517" lon="5.81887">
        <ele>532.6</ele>
        <time>2022-05-24T11:48:05Z</time>
      </trkpt>
      <trkpt lat="46.75171" lon="5.81891">
        <ele>532.6</ele>
        <time>2022-05-24T11:48:06Z</time>
      </trkpt>
      <trkpt lat="46.75172" lon="5.81896">
        <ele>532.6</ele>
        <time>2022-05-24T11:48:07Z</time>
      </trkpt>
      <trkpt lat="46.75173" lon="5.819">
        <ele>532.6</ele>
        <time>2022-05-24T11:48:08Z</time>
      </trkpt>
      <trkpt lat="46.75174" lon="5.81904">
        <ele>532.8</ele>
        <time>2022-05-24T11:48:09Z</time>
      </trkpt>
      <trkpt lat="46.75175" lon="5.8191">
        <ele>532.8</ele>
        <time>2022-05-24T11:48:10Z</time>
      </trkpt>
      <trkpt lat="46.75176" lon="5.81915">
        <ele>533</ele>
        <time>2022-05-24T11:48:11Z</time>
      </trkpt>
      <trkpt lat="46.75177" lon="5.8192">
        <ele>533</ele>
        <time>2022-05-24T11:48:12Z</time>
      </trkpt>
      <trkpt lat="46.75177" lon="5.81926">
        <ele>533</ele>
        <time>2022-05-24T11:48:13Z</time>
      </trkpt>
      <trkpt lat="46.75178" lon="5.81932">
        <ele>533</ele>
        <time>2022-05-24T11:48:14Z</time>
      </trkpt>
      <trkpt lat="46.75178" lon="5.81937">
        <ele>533</ele>
        <time>2022-05-24T11:48:15Z</time>
      </trkpt>
      <trkpt lat="46.75178" lon="5.81941">
        <ele>533.2</ele>
        <time>2022-05-24T11:48:16Z</time>
      </trkpt>
      <trkpt lat="46.75178" lon="5.81945">
        <ele>533.2</ele>
        <time>2022-05-24T11:48:17Z</time>
      </trkpt>
      <trkpt lat="46.75179" lon="5.81949">
        <ele>533.2</ele>
        <time>2022-05-24T11:48:18Z</time>
      </trkpt>
      <trkpt lat="46.75179" lon="5.81953">
        <ele>533.2</ele>
        <time>2022-05-24T11:48:19Z</time>
      </trkpt>
      <trkpt lat="46.75179" lon="5.81958">
        <ele>533.2</ele>
        <time>2022-05-24T11:48:20Z</time>
      </trkpt>
      <trkpt lat="46.7518" lon="5.81963">
        <ele>533.2</ele>
        <time>2022-05-24T11:48:21Z</time>
      </trkpt>
      <trkpt lat="46.7518" lon="5.81969">
        <ele>533.2</ele>
        <time>2022-05-24T11:48:22Z</time>
      </trkpt>
      <trkpt lat="46.75179" lon="5.81975">
        <ele>533.2</ele>
        <time>2022-05-24T11:48:23Z</time>
      </trkpt>
      <trkpt lat="46.75179" lon="5.81982">
        <ele>533</ele>
        <time>2022-05-24T11:48:24Z</time>
      </trkpt>
      <trkpt lat="46.75179" lon="5.81988">
        <ele>533</ele>
        <time>2022-05-24T11:48:25Z</time>
      </trkpt>
      <trkpt lat="46.75179" lon="5.81995">
        <ele>533</ele>
        <time>2022-05-24T11:48:26Z</time>
      </trkpt>
      <trkpt lat="46.75179" lon="5.82003">
        <ele>532.6</ele>
        <time>2022-05-24T11:48:27Z</time>
      </trkpt>
      <trkpt lat="46.75178" lon="5.8201">
        <ele>532.6</ele>
        <time>2022-05-24T11:48:28Z</time>
      </trkpt>
      <trkpt lat="46.75178" lon="5.82018">
        <ele>532.6</ele>
        <time>2022-05-24T11:48:29Z</time>
      </trkpt>
      <trkpt lat="46.75179" lon="5.82026">
        <ele>532.4</ele>
        <time>2022-05-24T11:48:30Z</time>
      </trkpt>
      <trkpt lat="46.75179" lon="5.82034">
        <ele>532.4</ele>
        <time>2022-05-24T11:48:31Z</time>
      </trkpt>
      <trkpt lat="46.7518" lon="5.82042">
        <ele>532.4</ele>
        <time>2022-05-24T11:48:32Z</time>
      </trkpt>
      <trkpt lat="46.7518" lon="5.8205">
        <ele>532.4</ele>
        <time>2022-05-24T11:48:33Z</time>
      </trkpt>
      <trkpt lat="46.75181" lon="5.82057">
        <ele>532.4</ele>
        <time>2022-05-24T11:48:34Z</time>
      </trkpt>
      <trkpt lat="46.75182" lon="5.82065">
        <ele>532.4</ele>
        <time>2022-05-24T11:48:35Z</time>
      </trkpt>
      <trkpt lat="46.75183" lon="5.82072">
        <ele>532.4</ele>
        <time>2022-05-24T11:48:36Z</time>
      </trkpt>
      <trkpt lat="46.75184" lon="5.8208">
        <ele>532.4</ele>
        <time>2022-05-24T11:48:37Z</time>
      </trkpt>
      <trkpt lat="46.75186" lon="5.82087">
        <ele>532.4</ele>
        <time>2022-05-24T11:48:38Z</time>
      </trkpt>
      <trkpt lat="46.75187" lon="5.82093">
        <ele>532.4</ele>
        <time>2022-05-24T11:48:39Z</time>
      </trkpt>
      <trkpt lat="46.75188" lon="5.821">
        <ele>532.4</ele>
        <time>2022-05-24T11:48:40Z</time>
      </trkpt>
      <trkpt lat="46.75189" lon="5.82105">
        <ele>532.4</ele>
        <time>2022-05-24T11:48:41Z</time>
      </trkpt>
      <trkpt lat="46.7519" lon="5.82111">
        <ele>532.6</ele>
        <time>2022-05-24T11:48:42Z</time>
      </trkpt>
      <trkpt lat="46.7519" lon="5.82116">
        <ele>532.6</ele>
        <time>2022-05-24T11:48:43Z</time>
      </trkpt>
      <trkpt lat="46.75189" lon="5.82123">
        <ele>532.6</ele>
        <time>2022-05-24T11:48:44Z</time>
      </trkpt>
      <trkpt lat="46.75187" lon="5.82128">
        <ele>532.6</ele>
        <time>2022-05-24T11:48:45Z</time>
      </trkpt>
      <trkpt lat="46.75184" lon="5.82134">
        <ele>532.6</ele>
        <time>2022-05-24T11:48:46Z</time>
      </trkpt>
      <trkpt lat="46.75182" lon="5.8214">
        <ele>532.6</ele>
        <time>2022-05-24T11:48:47Z</time>
      </trkpt>
      <trkpt lat="46.75179" lon="5.82146">
        <ele>532.6</ele>
        <time>2022-05-24T11:48:48Z</time>
      </trkpt>
      <trkpt lat="46.75176" lon="5.82152">
        <ele>532.8</ele>
        <time>2022-05-24T11:48:49Z</time>
      </trkpt>
      <trkpt lat="46.75173" lon="5.82158">
        <ele>532.8</ele>
        <time>2022-05-24T11:48:50Z</time>
      </trkpt>
      <trkpt lat="46.75171" lon="5.82164">
        <ele>532.8</ele>
        <time>2022-05-24T11:48:51Z</time>
      </trkpt>
      <trkpt lat="46.75168" lon="5.82171">
        <ele>533.2</ele>
        <time>2022-05-24T11:48:52Z</time>
      </trkpt>
      <trkpt lat="46.75166" lon="5.82178">
        <ele>533.2</ele>
        <time>2022-05-24T11:48:53Z</time>
      </trkpt>
      <trkpt lat="46.75163" lon="5.82185">
        <ele>533.4</ele>
        <time>2022-05-24T11:48:54Z</time>
      </trkpt>
      <trkpt lat="46.75161" lon="5.82192">
        <ele>533.4</ele>
        <time>2022-05-24T11:48:55Z</time>
      </trkpt>
      <trkpt lat="46.75159" lon="5.82198">
        <ele>533.4</ele>
        <time>2022-05-24T11:48:56Z</time>
      </trkpt>
      <trkpt lat="46.75157" lon="5.82205">
        <ele>533.4</ele>
        <time>2022-05-24T11:48:57Z</time>
      </trkpt>
      <trkpt lat="46.75155" lon="5.82212">
        <ele>533.4</ele>
        <time>2022-05-24T11:48:58Z</time>
      </trkpt>
      <trkpt lat="46.75153" lon="5.82219">
        <ele>533.4</ele>
        <time>2022-05-24T11:48:59Z</time>
      </trkpt>
      <trkpt lat="46.75151" lon="5.82226">
        <ele>533.4</ele>
        <time>2022-05-24T11:49:00Z</time>
      </trkpt>
      <trkpt lat="46.75149" lon="5.82233">
        <ele>533.6</ele>
        <time>2022-05-24T11:49:01Z</time>
      </trkpt>
      <trkpt lat="46.75147" lon="5.8224">
        <ele>533.6</ele>
        <time>2022-05-24T11:49:02Z</time>
      </trkpt>
      <trkpt lat="46.75146" lon="5.82248">
        <ele>533.6</ele>
        <time>2022-05-24T11:49:03Z</time>
      </trkpt>
      <trkpt lat="46.75144" lon="5.82255">
        <ele>533.8</ele>
        <time>2022-05-24T11:49:04Z</time>
      </trkpt>
      <trkpt lat="46.75142" lon="5.82262">
        <ele>533.8</ele>
        <time>2022-05-24T11:49:05Z</time>
      </trkpt>
      <trkpt lat="46.7514" lon="5.8227">
        <ele>533.8</ele>
        <time>2022-05-24T11:49:06Z</time>
      </trkpt>
      <trkpt lat="46.75138" lon="5.82277">
        <ele>533.8</ele>
        <time>2022-05-24T11:49:07Z</time>
      </trkpt>
      <trkpt lat="46.75137" lon="5.82285">
        <ele>533.8</ele>
        <time>2022-05-24T11:49:08Z</time>
      </trkpt>
      <trkpt lat="46.75135" lon="5.82293">
        <ele>534.2</ele>
        <time>2022-05-24T11:49:09Z</time>
      </trkpt>
      <trkpt lat="46.75133" lon="5.82301">
        <ele>534.2</ele>
        <time>2022-05-24T11:49:10Z</time>
      </trkpt>
      <trkpt lat="46.75132" lon="5.82308">
        <ele>534.2</ele>
        <time>2022-05-24T11:49:11Z</time>
      </trkpt>
      <trkpt lat="46.75131" lon="5.82316">
        <ele>534.4</ele>
        <time>2022-05-24T11:49:12Z</time>
      </trkpt>
      <trkpt lat="46.75129" lon="5.82324">
        <ele>534.4</ele>
        <time>2022-05-24T11:49:13Z</time>
      </trkpt>
      <trkpt lat="46.75128" lon="5.82331">
        <ele>534.4</ele>
        <time>2022-05-24T11:49:14Z</time>
      </trkpt>
      <trkpt lat="46.75127" lon="5.82339">
        <ele>534.4</ele>
        <time>2022-05-24T11:49:15Z</time>
      </trkpt>
      <trkpt lat="46.75125" lon="5.82347">
        <ele>534.4</ele>
        <time>2022-05-24T11:49:16Z</time>
      </trkpt>
      <trkpt lat="46.75123" lon="5.82363">
        <ele>534.4</ele>
        <time>2022-05-24T11:49:17Z</time>
      </trkpt>
      <trkpt lat="46.75122" lon="5.82371">
        <ele>534.4</ele>
        <time>2022-05-24T11:49:19Z</time>
      </trkpt>
      <trkpt lat="46.75121" lon="5.82379">
        <ele>534.6</ele>
        <time>2022-05-24T11:49:20Z</time>
      </trkpt>
      <trkpt lat="46.7512" lon="5.82387">
        <ele>534.6</ele>
        <time>2022-05-24T11:49:21Z</time>
      </trkpt>
      <trkpt lat="46.7512" lon="5.82394">
        <ele>534.6</ele>
        <time>2022-05-24T11:49:22Z</time>
      </trkpt>
      <trkpt lat="46.75119" lon="5.82402">
        <ele>534.6</ele>
        <time>2022-05-24T11:49:23Z</time>
      </trkpt>
      <trkpt lat="46.75118" lon="5.8241">
        <ele>534.8</ele>
        <time>2022-05-24T11:49:24Z</time>
      </trkpt>
      <trkpt lat="46.75117" lon="5.82417">
        <ele>534.8</ele>
        <time>2022-05-24T11:49:25Z</time>
      </trkpt>
      <trkpt lat="46.75116" lon="5.82425">
        <ele>534.8</ele>
        <time>2022-05-24T11:49:26Z</time>
      </trkpt>
      <trkpt lat="46.75116" lon="5.82433">
        <ele>534.8</ele>
        <time>2022-05-24T11:49:27Z</time>
      </trkpt>
      <trkpt lat="46.75116" lon="5.8244">
        <ele>534.8</ele>
        <time>2022-05-24T11:49:28Z</time>
      </trkpt>
      <trkpt lat="46.75116" lon="5.82448">
        <ele>534.8</ele>
        <time>2022-05-24T11:49:29Z</time>
      </trkpt>
      <trkpt lat="46.75115" lon="5.82456">
        <ele>534.8</ele>
        <time>2022-05-24T11:49:30Z</time>
      </trkpt>
      <trkpt lat="46.75115" lon="5.82464">
        <ele>535</ele>
        <time>2022-05-24T11:49:31Z</time>
      </trkpt>
      <trkpt lat="46.75115" lon="5.82472">
        <ele>535</ele>
        <time>2022-05-24T11:49:32Z</time>
      </trkpt>
      <trkpt lat="46.75115" lon="5.8248">
        <ele>535</ele>
        <time>2022-05-24T11:49:33Z</time>
      </trkpt>
      <trkpt lat="46.75114" lon="5.82488">
        <ele>535</ele>
        <time>2022-05-24T11:49:34Z</time>
      </trkpt>
      <trkpt lat="46.75114" lon="5.82496">
        <ele>535</ele>
        <time>2022-05-24T11:49:35Z</time>
      </trkpt>
      <trkpt lat="46.75115" lon="5.82503">
        <ele>535</ele>
        <time>2022-05-24T11:49:36Z</time>
      </trkpt>
      <trkpt lat="46.75115" lon="5.82511">
        <ele>535</ele>
        <time>2022-05-24T11:49:37Z</time>
      </trkpt>
      <trkpt lat="46.75115" lon="5.82519">
        <ele>535</ele>
        <time>2022-05-24T11:49:38Z</time>
      </trkpt>
      <trkpt lat="46.75115" lon="5.82526">
        <ele>535</ele>
        <time>2022-05-24T11:49:39Z</time>
      </trkpt>
      <trkpt lat="46.75116" lon="5.82534">
        <ele>535.4</ele>
        <time>2022-05-24T11:49:40Z</time>
      </trkpt>
      <trkpt lat="46.75116" lon="5.82542">
        <ele>535.4</ele>
        <time>2022-05-24T11:49:41Z</time>
      </trkpt>
      <trkpt lat="46.75116" lon="5.82549">
        <ele>535.4</ele>
        <time>2022-05-24T11:49:42Z</time>
      </trkpt>
      <trkpt lat="46.75116" lon="5.82557">
        <ele>535.4</ele>
        <time>2022-05-24T11:49:43Z</time>
      </trkpt>
      <trkpt lat="46.75117" lon="5.82565">
        <ele>535.6</ele>
        <time>2022-05-24T11:49:44Z</time>
      </trkpt>
      <trkpt lat="46.75117" lon="5.82572">
        <ele>535.6</ele>
        <time>2022-05-24T11:49:45Z</time>
      </trkpt>
      <trkpt lat="46.75117" lon="5.8258">
        <ele>535.6</ele>
        <time>2022-05-24T11:49:46Z</time>
      </trkpt>
      <trkpt lat="46.75117" lon="5.82588">
        <ele>535.6</ele>
        <time>2022-05-24T11:49:47Z</time>
      </trkpt>
      <trkpt lat="46.75117" lon="5.82595">
        <ele>535.6</ele>
        <time>2022-05-24T11:49:48Z</time>
      </trkpt>
      <trkpt lat="46.75118" lon="5.82603">
        <ele>535.6</ele>
        <time>2022-05-24T11:49:49Z</time>
      </trkpt>
      <trkpt lat="46.75118" lon="5.8261">
        <ele>535.6</ele>
        <time>2022-05-24T11:49:50Z</time>
      </trkpt>
      <trkpt lat="46.75118" lon="5.82618">
        <ele>535.8</ele>
        <time>2022-05-24T11:49:51Z</time>
      </trkpt>
      <trkpt lat="46.75118" lon="5.82626">
        <ele>535.8</ele>
        <time>2022-05-24T11:49:52Z</time>
      </trkpt>
      <trkpt lat="46.75118" lon="5.82634">
        <ele>535.8</ele>
        <time>2022-05-24T11:49:53Z</time>
      </trkpt>
      <trkpt lat="46.75118" lon="5.82641">
        <ele>535.8</ele>
        <time>2022-05-24T11:49:54Z</time>
      </trkpt>
      <trkpt lat="46.75118" lon="5.82649">
        <ele>535.8</ele>
        <time>2022-05-24T11:49:55Z</time>
      </trkpt>
      <trkpt lat="46.75118" lon="5.82656">
        <ele>535.8</ele>
        <time>2022-05-24T11:49:56Z</time>
      </trkpt>
      <trkpt lat="46.75118" lon="5.82664">
        <ele>535.8</ele>
        <time>2022-05-24T11:49:57Z</time>
      </trkpt>
      <trkpt lat="46.75118" lon="5.82671">
        <ele>536</ele>
        <time>2022-05-24T11:49:58Z</time>
      </trkpt>
      <trkpt lat="46.75118" lon="5.82678">
        <ele>536</ele>
        <time>2022-05-24T11:49:59Z</time>
      </trkpt>
      <trkpt lat="46.75119" lon="5.82685">
        <ele>536.4</ele>
        <time>2022-05-24T11:50:00Z</time>
      </trkpt>
      <trkpt lat="46.75119" lon="5.82692">
        <ele>536.4</ele>
        <time>2022-05-24T11:50:01Z</time>
      </trkpt>
      <trkpt lat="46.75119" lon="5.82698">
        <ele>536.6</ele>
        <time>2022-05-24T11:50:02Z</time>
      </trkpt>
      <trkpt lat="46.75119" lon="5.82704">
        <ele>536.6</ele>
        <time>2022-05-24T11:50:03Z</time>
      </trkpt>
      <trkpt lat="46.75118" lon="5.82709">
        <ele>537</ele>
        <time>2022-05-24T11:50:04Z</time>
      </trkpt>
      <trkpt lat="46.75118" lon="5.82715">
        <ele>537.2</ele>
        <time>2022-05-24T11:50:05Z</time>
      </trkpt>
      <trkpt lat="46.75118" lon="5.82719">
        <ele>537.4</ele>
        <time>2022-05-24T11:50:06Z</time>
      </trkpt>
      <trkpt lat="46.75118" lon="5.82724">
        <ele>537.6</ele>
        <time>2022-05-24T11:50:07Z</time>
      </trkpt>
      <trkpt lat="46.75118" lon="5.82728">
        <ele>537.8</ele>
        <time>2022-05-24T11:50:08Z</time>
      </trkpt>
      <trkpt lat="46.75118" lon="5.82732">
        <ele>538</ele>
        <time>2022-05-24T11:50:09Z</time>
      </trkpt>
      <trkpt lat="46.75119" lon="5.82736">
        <ele>538.2</ele>
        <time>2022-05-24T11:50:10Z</time>
      </trkpt>
      <trkpt lat="46.75119" lon="5.82741">
        <ele>538.4</ele>
        <time>2022-05-24T11:50:11Z</time>
      </trkpt>
      <trkpt lat="46.75119" lon="5.82744">
        <ele>538.4</ele>
        <time>2022-05-24T11:50:12Z</time>
      </trkpt>
      <trkpt lat="46.75119" lon="5.82749">
        <ele>538.8</ele>
        <time>2022-05-24T11:50:13Z</time>
      </trkpt>
      <trkpt lat="46.75119" lon="5.82754">
        <ele>538.8</ele>
        <time>2022-05-24T11:50:14Z</time>
      </trkpt>
      <trkpt lat="46.7512" lon="5.8276">
        <ele>538.8</ele>
        <time>2022-05-24T11:50:15Z</time>
      </trkpt>
      <trkpt lat="46.7512" lon="5.82767">
        <ele>538.8</ele>
        <time>2022-05-24T11:50:16Z</time>
      </trkpt>
      <trkpt lat="46.75121" lon="5.82775">
        <ele>538.4</ele>
        <time>2022-05-24T11:50:17Z</time>
      </trkpt>
      <trkpt lat="46.75121" lon="5.82784">
        <ele>538</ele>
        <time>2022-05-24T11:50:18Z</time>
      </trkpt>
      <trkpt lat="46.75122" lon="5.82794">
        <ele>537.8</ele>
        <time>2022-05-24T11:50:19Z</time>
      </trkpt>
      <trkpt lat="46.75122" lon="5.82805">
        <ele>537.4</ele>
        <time>2022-05-24T11:50:20Z</time>
      </trkpt>
      <trkpt lat="46.75122" lon="5.82815">
        <ele>537.4</ele>
        <time>2022-05-24T11:50:21Z</time>
      </trkpt>
      <trkpt lat="46.75123" lon="5.82826">
        <ele>537.2</ele>
        <time>2022-05-24T11:50:22Z</time>
      </trkpt>
      <trkpt lat="46.75123" lon="5.82837">
        <ele>537.2</ele>
        <time>2022-05-24T11:50:23Z</time>
      </trkpt>
      <trkpt lat="46.75123" lon="5.82848">
        <ele>537.2</ele>
        <time>2022-05-24T11:50:24Z</time>
      </trkpt>
      <trkpt lat="46.75124" lon="5.82858">
        <ele>537.2</ele>
        <time>2022-05-24T11:50:25Z</time>
      </trkpt>
      <trkpt lat="46.75124" lon="5.82869">
        <ele>537.2</ele>
        <time>2022-05-24T11:50:26Z</time>
      </trkpt>
      <trkpt lat="46.75124" lon="5.82879">
        <ele>537.2</ele>
        <time>2022-05-24T11:50:27Z</time>
      </trkpt>
      <trkpt lat="46.75124" lon="5.82889">
        <ele>537.2</ele>
        <time>2022-05-24T11:50:28Z</time>
      </trkpt>
      <trkpt lat="46.75124" lon="5.82899">
        <ele>537.2</ele>
        <time>2022-05-24T11:50:29Z</time>
      </trkpt>
      <trkpt lat="46.75124" lon="5.82909">
        <ele>537.2</ele>
        <time>2022-05-24T11:50:30Z</time>
      </trkpt>
      <trkpt lat="46.75125" lon="5.82919">
        <ele>537.2</ele>
        <time>2022-05-24T11:50:31Z</time>
      </trkpt>
      <trkpt lat="46.75125" lon="5.82929">
        <ele>537.2</ele>
        <time>2022-05-24T11:50:32Z</time>
      </trkpt>
      <trkpt lat="46.75125" lon="5.82939">
        <ele>537.2</ele>
        <time>2022-05-24T11:50:33Z</time>
      </trkpt>
      <trkpt lat="46.75125" lon="5.82949">
        <ele>537.2</ele>
        <time>2022-05-24T11:50:34Z</time>
      </trkpt>
      <trkpt lat="46.75125" lon="5.82959">
        <ele>537.2</ele>
        <time>2022-05-24T11:50:35Z</time>
      </trkpt>
      <trkpt lat="46.75126" lon="5.82969">
        <ele>537.2</ele>
        <time>2022-05-24T11:50:36Z</time>
      </trkpt>
      <trkpt lat="46.75126" lon="5.82978">
        <ele>537.2</ele>
        <time>2022-05-24T11:50:37Z</time>
      </trkpt>
      <trkpt lat="46.75126" lon="5.82988">
        <ele>537.2</ele>
        <time>2022-05-24T11:50:38Z</time>
      </trkpt>
      <trkpt lat="46.75127" lon="5.82997">
        <ele>537.2</ele>
        <time>2022-05-24T11:50:39Z</time>
      </trkpt>
      <trkpt lat="46.75127" lon="5.83007">
        <ele>537.2</ele>
        <time>2022-05-24T11:50:40Z</time>
      </trkpt>
      <trkpt lat="46.75127" lon="5.83016">
        <ele>537.2</ele>
        <time>2022-05-24T11:50:41Z</time>
      </trkpt>
      <trkpt lat="46.75127" lon="5.83026">
        <ele>537</ele>
        <time>2022-05-24T11:50:42Z</time>
      </trkpt>
      <trkpt lat="46.75127" lon="5.83035">
        <ele>537</ele>
        <time>2022-05-24T11:50:43Z</time>
      </trkpt>
      <trkpt lat="46.75128" lon="5.83045">
        <ele>537</ele>
        <time>2022-05-24T11:50:44Z</time>
      </trkpt>
      <trkpt lat="46.75128" lon="5.83054">
        <ele>537</ele>
        <time>2022-05-24T11:50:45Z</time>
      </trkpt>
      <trkpt lat="46.75129" lon="5.83064">
        <ele>537</ele>
        <time>2022-05-24T11:50:46Z</time>
      </trkpt>
      <trkpt lat="46.75129" lon="5.83073">
        <ele>537</ele>
        <time>2022-05-24T11:50:47Z</time>
      </trkpt>
      <trkpt lat="46.75129" lon="5.83083">
        <ele>537</ele>
        <time>2022-05-24T11:50:48Z</time>
      </trkpt>
      <trkpt lat="46.75129" lon="5.83092">
        <ele>536.6</ele>
        <time>2022-05-24T11:50:49Z</time>
      </trkpt>
      <trkpt lat="46.75129" lon="5.83102">
        <ele>536.6</ele>
        <time>2022-05-24T11:50:50Z</time>
      </trkpt>
      <trkpt lat="46.75129" lon="5.83111">
        <ele>536.6</ele>
        <time>2022-05-24T11:50:51Z</time>
      </trkpt>
      <trkpt lat="46.75129" lon="5.83121">
        <ele>536.6</ele>
        <time>2022-05-24T11:50:52Z</time>
      </trkpt>
      <trkpt lat="46.7513" lon="5.83131">
        <ele>536.6</ele>
        <time>2022-05-24T11:50:53Z</time>
      </trkpt>
      <trkpt lat="46.7513" lon="5.8314">
        <ele>536.6</ele>
        <time>2022-05-24T11:50:54Z</time>
      </trkpt>
      <trkpt lat="46.7513" lon="5.8315">
        <ele>536.6</ele>
        <time>2022-05-24T11:50:55Z</time>
      </trkpt>
      <trkpt lat="46.75131" lon="5.8316">
        <ele>536.6</ele>
        <time>2022-05-24T11:50:56Z</time>
      </trkpt>
      <trkpt lat="46.75131" lon="5.83169">
        <ele>536.6</ele>
        <time>2022-05-24T11:50:57Z</time>
      </trkpt>
      <trkpt lat="46.75131" lon="5.83179">
        <ele>536.6</ele>
        <time>2022-05-24T11:50:58Z</time>
      </trkpt>
      <trkpt lat="46.75131" lon="5.83189">
        <ele>536.6</ele>
        <time>2022-05-24T11:50:59Z</time>
      </trkpt>
      <trkpt lat="46.75132" lon="5.83199">
        <ele>536.6</ele>
        <time>2022-05-24T11:51:00Z</time>
      </trkpt>
      <trkpt lat="46.75132" lon="5.83209">
        <ele>536.6</ele>
        <time>2022-05-24T11:51:01Z</time>
      </trkpt>
      <trkpt lat="46.75132" lon="5.83219">
        <ele>536.6</ele>
        <time>2022-05-24T11:51:02Z</time>
      </trkpt>
      <trkpt lat="46.75133" lon="5.83229">
        <ele>536.6</ele>
        <time>2022-05-24T11:51:03Z</time>
      </trkpt>
      <trkpt lat="46.75133" lon="5.83239">
        <ele>537</ele>
        <time>2022-05-24T11:51:04Z</time>
      </trkpt>
      <trkpt lat="46.75133" lon="5.83249">
        <ele>537</ele>
        <time>2022-05-24T11:51:05Z</time>
      </trkpt>
      <trkpt lat="46.75133" lon="5.83259">
        <ele>537</ele>
        <time>2022-05-24T11:51:06Z</time>
      </trkpt>
      <trkpt lat="46.75133" lon="5.83269">
        <ele>537</ele>
        <time>2022-05-24T11:51:07Z</time>
      </trkpt>
      <trkpt lat="46.75134" lon="5.83278">
        <ele>537</ele>
        <time>2022-05-24T11:51:08Z</time>
      </trkpt>
      <trkpt lat="46.75134" lon="5.83288">
        <ele>537.2</ele>
        <time>2022-05-24T11:51:09Z</time>
      </trkpt>
      <trkpt lat="46.75134" lon="5.83298">
        <ele>537.2</ele>
        <time>2022-05-24T11:51:10Z</time>
      </trkpt>
      <trkpt lat="46.75135" lon="5.83307">
        <ele>537.2</ele>
        <time>2022-05-24T11:51:11Z</time>
      </trkpt>
      <trkpt lat="46.75135" lon="5.83317">
        <ele>537.2</ele>
        <time>2022-05-24T11:51:12Z</time>
      </trkpt>
      <trkpt lat="46.75135" lon="5.83327">
        <ele>537.2</ele>
        <time>2022-05-24T11:51:13Z</time>
      </trkpt>
      <trkpt lat="46.75135" lon="5.83337">
        <ele>537.2</ele>
        <time>2022-05-24T11:51:14Z</time>
      </trkpt>
      <trkpt lat="46.75136" lon="5.83346">
        <ele>537.2</ele>
        <time>2022-05-24T11:51:15Z</time>
      </trkpt>
      <trkpt lat="46.75136" lon="5.83356">
        <ele>537.2</ele>
        <time>2022-05-24T11:51:16Z</time>
      </trkpt>
      <trkpt lat="46.75136" lon="5.83365">
        <ele>537.6</ele>
        <time>2022-05-24T11:51:17Z</time>
      </trkpt>
      <trkpt lat="46.75136" lon="5.83374">
        <ele>537.6</ele>
        <time>2022-05-24T11:51:18Z</time>
      </trkpt>
      <trkpt lat="46.75136" lon="5.83384">
        <ele>537.6</ele>
        <time>2022-05-24T11:51:19Z</time>
      </trkpt>
      <trkpt lat="46.75136" lon="5.83393">
        <ele>537.6</ele>
        <time>2022-05-24T11:51:20Z</time>
      </trkpt>
      <trkpt lat="46.75137" lon="5.83402">
        <ele>537.8</ele>
        <time>2022-05-24T11:51:21Z</time>
      </trkpt>
      <trkpt lat="46.75137" lon="5.83412">
        <ele>537.8</ele>
        <time>2022-05-24T11:51:22Z</time>
      </trkpt>
      <trkpt lat="46.75137" lon="5.83421">
        <ele>537.8</ele>
        <time>2022-05-24T11:51:23Z</time>
      </trkpt>
      <trkpt lat="46.75138" lon="5.8343">
        <ele>537.8</ele>
        <time>2022-05-24T11:51:24Z</time>
      </trkpt>
      <trkpt lat="46.75138" lon="5.8344">
        <ele>537.8</ele>
        <time>2022-05-24T11:51:25Z</time>
      </trkpt>
      <trkpt lat="46.75138" lon="5.83449">
        <ele>537.8</ele>
        <time>2022-05-24T11:51:26Z</time>
      </trkpt>
      <trkpt lat="46.75138" lon="5.83458">
        <ele>537.8</ele>
        <time>2022-05-24T11:51:27Z</time>
      </trkpt>
      <trkpt lat="46.75138" lon="5.83467">
        <ele>537.6</ele>
        <time>2022-05-24T11:51:28Z</time>
      </trkpt>
      <trkpt lat="46.75139" lon="5.83476">
        <ele>537.6</ele>
        <time>2022-05-24T11:51:29Z</time>
      </trkpt>
      <trkpt lat="46.75139" lon="5.83485">
        <ele>537.6</ele>
        <time>2022-05-24T11:51:30Z</time>
      </trkpt>
      <trkpt lat="46.75139" lon="5.83494">
        <ele>537.6</ele>
        <time>2022-05-24T11:51:31Z</time>
      </trkpt>
      <trkpt lat="46.75139" lon="5.83503">
        <ele>537.8</ele>
        <time>2022-05-24T11:51:32Z</time>
      </trkpt>
      <trkpt lat="46.75139" lon="5.83511">
        <ele>537.8</ele>
        <time>2022-05-24T11:51:33Z</time>
      </trkpt>
      <trkpt lat="46.75139" lon="5.8352">
        <ele>537.8</ele>
        <time>2022-05-24T11:51:34Z</time>
      </trkpt>
      <trkpt lat="46.75139" lon="5.83529">
        <ele>537.8</ele>
        <time>2022-05-24T11:51:35Z</time>
      </trkpt>
      <trkpt lat="46.75139" lon="5.83538">
        <ele>538</ele>
        <time>2022-05-24T11:51:36Z</time>
      </trkpt>
      <trkpt lat="46.75139" lon="5.83547">
        <ele>538</ele>
        <time>2022-05-24T11:51:37Z</time>
      </trkpt>
      <trkpt lat="46.75138" lon="5.83556">
        <ele>538</ele>
        <time>2022-05-24T11:51:38Z</time>
      </trkpt>
      <trkpt lat="46.75138" lon="5.83565">
        <ele>538</ele>
        <time>2022-05-24T11:51:39Z</time>
      </trkpt>
      <trkpt lat="46.75138" lon="5.83574">
        <ele>538</ele>
        <time>2022-05-24T11:51:40Z</time>
      </trkpt>
      <trkpt lat="46.75137" lon="5.83582">
        <ele>538</ele>
        <time>2022-05-24T11:51:41Z</time>
      </trkpt>
      <trkpt lat="46.75136" lon="5.83591">
        <ele>538</ele>
        <time>2022-05-24T11:51:42Z</time>
      </trkpt>
      <trkpt lat="46.75136" lon="5.83601">
        <ele>538</ele>
        <time>2022-05-24T11:51:43Z</time>
      </trkpt>
      <trkpt lat="46.75135" lon="5.8361">
        <ele>538</ele>
        <time>2022-05-24T11:51:44Z</time>
      </trkpt>
      <trkpt lat="46.75134" lon="5.83619">
        <ele>538</ele>
        <time>2022-05-24T11:51:45Z</time>
      </trkpt>
      <trkpt lat="46.75133" lon="5.83628">
        <ele>538.2</ele>
        <time>2022-05-24T11:51:46Z</time>
      </trkpt>
      <trkpt lat="46.75132" lon="5.83637">
        <ele>538.2</ele>
        <time>2022-05-24T11:51:47Z</time>
      </trkpt>
      <trkpt lat="46.75131" lon="5.83646">
        <ele>538.2</ele>
        <time>2022-05-24T11:51:48Z</time>
      </trkpt>
      <trkpt lat="46.75129" lon="5.83655">
        <ele>538.6</ele>
        <time>2022-05-24T11:51:49Z</time>
      </trkpt>
      <trkpt lat="46.75128" lon="5.83664">
        <ele>538.6</ele>
        <time>2022-05-24T11:51:50Z</time>
      </trkpt>
      <trkpt lat="46.75127" lon="5.83673">
        <ele>538.6</ele>
        <time>2022-05-24T11:51:51Z</time>
      </trkpt>
      <trkpt lat="46.75125" lon="5.83681">
        <ele>538.6</ele>
        <time>2022-05-24T11:51:52Z</time>
      </trkpt>
      <trkpt lat="46.75123" lon="5.8369">
        <ele>538.8</ele>
        <time>2022-05-24T11:51:53Z</time>
      </trkpt>
      <trkpt lat="46.75122" lon="5.83698">
        <ele>538.8</ele>
        <time>2022-05-24T11:51:54Z</time>
      </trkpt>
      <trkpt lat="46.7512" lon="5.83707">
        <ele>538.8</ele>
        <time>2022-05-24T11:51:55Z</time>
      </trkpt>
      <trkpt lat="46.75118" lon="5.83715">
        <ele>538.8</ele>
        <time>2022-05-24T11:51:56Z</time>
      </trkpt>
      <trkpt lat="46.75117" lon="5.83724">
        <ele>538.8</ele>
        <time>2022-05-24T11:51:57Z</time>
      </trkpt>
      <trkpt lat="46.75115" lon="5.83733">
        <ele>538.8</ele>
        <time>2022-05-24T11:51:58Z</time>
      </trkpt>
      <trkpt lat="46.75114" lon="5.83742">
        <ele>538.8</ele>
        <time>2022-05-24T11:51:59Z</time>
      </trkpt>
      <trkpt lat="46.75112" lon="5.8375">
        <ele>538.8</ele>
        <time>2022-05-24T11:52:00Z</time>
      </trkpt>
      <trkpt lat="46.7511" lon="5.83759">
        <ele>538.8</ele>
        <time>2022-05-24T11:52:01Z</time>
      </trkpt>
      <trkpt lat="46.75109" lon="5.83768">
        <ele>538.6</ele>
        <time>2022-05-24T11:52:02Z</time>
      </trkpt>
      <trkpt lat="46.75107" lon="5.83778">
        <ele>538.6</ele>
        <time>2022-05-24T11:52:03Z</time>
      </trkpt>
      <trkpt lat="46.75106" lon="5.83786">
        <ele>538.6</ele>
        <time>2022-05-24T11:52:04Z</time>
      </trkpt>
      <trkpt lat="46.75104" lon="5.83796">
        <ele>538.6</ele>
        <time>2022-05-24T11:52:05Z</time>
      </trkpt>
      <trkpt lat="46.75103" lon="5.83805">
        <ele>538.6</ele>
        <time>2022-05-24T11:52:06Z</time>
      </trkpt>
      <trkpt lat="46.75101" lon="5.83814">
        <ele>538.6</ele>
        <time>2022-05-24T11:52:07Z</time>
      </trkpt>
      <trkpt lat="46.75099" lon="5.83823">
        <ele>538.6</ele>
        <time>2022-05-24T11:52:08Z</time>
      </trkpt>
      <trkpt lat="46.75098" lon="5.83831">
        <ele>538.4</ele>
        <time>2022-05-24T11:52:09Z</time>
      </trkpt>
      <trkpt lat="46.75096" lon="5.8384">
        <ele>538.4</ele>
        <time>2022-05-24T11:52:10Z</time>
      </trkpt>
      <trkpt lat="46.75095" lon="5.83848">
        <ele>538.4</ele>
        <time>2022-05-24T11:52:11Z</time>
      </trkpt>
      <trkpt lat="46.75094" lon="5.83856">
        <ele>538.4</ele>
        <time>2022-05-24T11:52:12Z</time>
      </trkpt>
      <trkpt lat="46.75092" lon="5.83864">
        <ele>538.4</ele>
        <time>2022-05-24T11:52:13Z</time>
      </trkpt>
      <trkpt lat="46.75091" lon="5.83872">
        <ele>538.4</ele>
        <time>2022-05-24T11:52:14Z</time>
      </trkpt>
      <trkpt lat="46.7509" lon="5.83879">
        <ele>538</ele>
        <time>2022-05-24T11:52:15Z</time>
      </trkpt>
      <trkpt lat="46.75088" lon="5.83887">
        <ele>538</ele>
        <time>2022-05-24T11:52:16Z</time>
      </trkpt>
      <trkpt lat="46.75087" lon="5.83895">
        <ele>538</ele>
        <time>2022-05-24T11:52:17Z</time>
      </trkpt>
      <trkpt lat="46.75086" lon="5.83903">
        <ele>538</ele>
        <time>2022-05-24T11:52:18Z</time>
      </trkpt>
      <trkpt lat="46.75084" lon="5.8391">
        <ele>537.8</ele>
        <time>2022-05-24T11:52:19Z</time>
      </trkpt>
      <trkpt lat="46.75083" lon="5.83917">
        <ele>537.8</ele>
        <time>2022-05-24T11:52:20Z</time>
      </trkpt>
      <trkpt lat="46.75082" lon="5.83924">
        <ele>537.8</ele>
        <time>2022-05-24T11:52:21Z</time>
      </trkpt>
      <trkpt lat="46.75081" lon="5.83931">
        <ele>537.8</ele>
        <time>2022-05-24T11:52:22Z</time>
      </trkpt>
      <trkpt lat="46.75079" lon="5.83938">
        <ele>537.6</ele>
        <time>2022-05-24T11:52:23Z</time>
      </trkpt>
      <trkpt lat="46.75078" lon="5.83945">
        <ele>537.6</ele>
        <time>2022-05-24T11:52:24Z</time>
      </trkpt>
      <trkpt lat="46.75077" lon="5.83953">
        <ele>537.6</ele>
        <time>2022-05-24T11:52:25Z</time>
      </trkpt>
      <trkpt lat="46.75076" lon="5.8396">
        <ele>537.6</ele>
        <time>2022-05-24T11:52:26Z</time>
      </trkpt>
      <trkpt lat="46.75075" lon="5.83967">
        <ele>537.6</ele>
        <time>2022-05-24T11:52:27Z</time>
      </trkpt>
      <trkpt lat="46.75074" lon="5.83974">
        <ele>537.2</ele>
        <time>2022-05-24T11:52:28Z</time>
      </trkpt>
      <trkpt lat="46.75073" lon="5.8398">
        <ele>537.2</ele>
        <time>2022-05-24T11:52:29Z</time>
      </trkpt>
      <trkpt lat="46.75072" lon="5.83985">
        <ele>537.2</ele>
        <time>2022-05-24T11:52:30Z</time>
      </trkpt>
      <trkpt lat="46.75071" lon="5.83991">
        <ele>537.2</ele>
        <time>2022-05-24T11:52:31Z</time>
      </trkpt>
      <trkpt lat="46.7507" lon="5.83995">
        <ele>537.2</ele>
        <time>2022-05-24T11:52:32Z</time>
      </trkpt>
      <trkpt lat="46.7507" lon="5.83999">
        <ele>537</ele>
        <time>2022-05-24T11:52:33Z</time>
      </trkpt>
      <trkpt lat="46.7507" lon="5.83999">
        <ele>537</ele>
        <time>2022-05-24T11:52:34Z</time>
      </trkpt>
      <trkpt lat="46.75069" lon="5.83999">
        <ele>537</ele>
        <time>2022-05-24T11:52:35Z</time>
      </trkpt>
      <trkpt lat="46.75069" lon="5.84">
        <ele>536.8</ele>
        <time>2022-05-24T11:52:36Z</time>
      </trkpt>
      <trkpt lat="46.75069" lon="5.84">
        <ele>536.8</ele>
        <time>2022-05-24T11:52:39Z</time>
      </trkpt>
      <trkpt lat="46.75069" lon="5.84">
        <ele>536.8</ele>
        <time>2022-05-24T11:52:40Z</time>
      </trkpt>
      <trkpt lat="46.75069" lon="5.84001">
        <ele>536.8</ele>
        <time>2022-05-24T11:52:41Z</time>
      </trkpt>
      <trkpt lat="46.75069" lon="5.84001">
        <ele>536.8</ele>
        <time>2022-05-24T11:52:42Z</time>
      </trkpt>
      <trkpt lat="46.75069" lon="5.84001">
        <ele>536.6</ele>
        <time>2022-05-24T11:53:38Z</time>
      </trkpt>
      <trkpt lat="46.75069" lon="5.84002">
        <ele>536.6</ele>
        <time>2022-05-24T11:53:39Z</time>
      </trkpt>
      <trkpt lat="46.75069" lon="5.84002">
        <ele>536.6</ele>
        <time>2022-05-24T11:53:40Z</time>
      </trkpt>
      <trkpt lat="46.75069" lon="5.84003">
        <ele>536.6</ele>
        <time>2022-05-24T11:53:41Z</time>
      </trkpt>
      <trkpt lat="46.75069" lon="5.84003">
        <ele>536.6</ele>
        <time>2022-05-24T11:53:43Z</time>
      </trkpt>
      <trkpt lat="46.75069" lon="5.84003">
        <ele>536.6</ele>
        <time>2022-05-24T11:53:44Z</time>
      </trkpt>
      <trkpt lat="46.75068" lon="5.84004">
        <ele>536.6</ele>
        <time>2022-05-24T11:53:48Z</time>
      </trkpt>
      <trkpt lat="46.75068" lon="5.84004">
        <ele>536.6</ele>
        <time>2022-05-24T11:53:49Z</time>
      </trkpt>
      <trkpt lat="46.75068" lon="5.84004">
        <ele>536.6</ele>
        <time>2022-05-24T11:53:50Z</time>
      </trkpt>
      <trkpt lat="46.75068" lon="5.84005">
        <ele>536.6</ele>
        <time>2022-05-24T11:53:51Z</time>
      </trkpt>
      <trkpt lat="46.75068" lon="5.84005">
        <ele>536.6</ele>
        <time>2022-05-24T11:53:52Z</time>
      </trkpt>
      <trkpt lat="46.75068" lon="5.84005">
        <ele>536.6</ele>
        <time>2022-05-24T11:53:53Z</time>
      </trkpt>
      <trkpt lat="46.75068" lon="5.84006">
        <ele>536.6</ele>
        <time>2022-05-24T11:53:55Z</time>
      </trkpt>
      <trkpt lat="46.75068" lon="5.84006">
        <ele>536.6</ele>
        <time>2022-05-24T11:53:56Z</time>
      </trkpt>
      <trkpt lat="46.75068" lon="5.84006">
        <ele>536.6</ele>
        <time>2022-05-24T11:53:57Z</time>
      </trkpt>
      <trkpt lat="46.75068" lon="5.84007">
        <ele>536.6</ele>
        <time>2022-05-24T11:53:58Z</time>
      </trkpt>
      <trkpt lat="46.75068" lon="5.84007">
        <ele>536.6</ele>
        <time>2022-05-24T11:53:59Z</time>
      </trkpt>
      <trkpt lat="46.75067" lon="5.84007">
        <ele>536.6</ele>
        <time>2022-05-24T11:54:00Z</time>
      </trkpt>
      <trkpt lat="46.75067" lon="5.84008">
        <ele>536.6</ele>
        <time>2022-05-24T11:54:01Z</time>
      </trkpt>
      <trkpt lat="46.75067" lon="5.8401">
        <ele>536.6</ele>
        <time>2022-05-24T11:54:02Z</time>
      </trkpt>
      <trkpt lat="46.75067" lon="5.8401">
        <ele>536.6</ele>
        <time>2022-05-24T11:54:03Z</time>
      </trkpt>
      <trkpt lat="46.75066" lon="5.84013">
        <ele>536.6</ele>
        <time>2022-05-24T11:54:04Z</time>
      </trkpt>
      <trkpt lat="46.75065" lon="5.84016">
        <ele>536.6</ele>
        <time>2022-05-24T11:54:05Z</time>
      </trkpt>
      <trkpt lat="46.75064" lon="5.8402">
        <ele>536.6</ele>
        <time>2022-05-24T11:54:06Z</time>
      </trkpt>
      <trkpt lat="46.75063" lon="5.84025">
        <ele>536.6</ele>
        <time>2022-05-24T11:54:07Z</time>
      </trkpt>
      <trkpt lat="46.75062" lon="5.84029">
        <ele>536.6</ele>
        <time>2022-05-24T11:54:08Z</time>
      </trkpt>
      <trkpt lat="46.75061" lon="5.84036">
        <ele>536.6</ele>
        <time>2022-05-24T11:54:09Z</time>
      </trkpt>
      <trkpt lat="46.75061" lon="5.84042">
        <ele>536.6</ele>
        <time>2022-05-24T11:54:10Z</time>
      </trkpt>
      <trkpt lat="46.7506" lon="5.8405">
        <ele>536.6</ele>
        <time>2022-05-24T11:54:11Z</time>
      </trkpt>
      <trkpt lat="46.7506" lon="5.84058">
        <ele>536.6</ele>
        <time>2022-05-24T11:54:12Z</time>
      </trkpt>
      <trkpt lat="46.75059" lon="5.84067">
        <ele>536.6</ele>
        <time>2022-05-24T11:54:13Z</time>
      </trkpt>
      <trkpt lat="46.7506" lon="5.84075">
        <ele>536.6</ele>
        <time>2022-05-24T11:54:14Z</time>
      </trkpt>
      <trkpt lat="46.7506" lon="5.84084">
        <ele>536.6</ele>
        <time>2022-05-24T11:54:15Z</time>
      </trkpt>
      <trkpt lat="46.75062" lon="5.84093">
        <ele>536.2</ele>
        <time>2022-05-24T11:54:16Z</time>
      </trkpt>
      <trkpt lat="46.75064" lon="5.84101">
        <ele>536</ele>
        <time>2022-05-24T11:54:17Z</time>
      </trkpt>
      <trkpt lat="46.75067" lon="5.84111">
        <ele>536</ele>
        <time>2022-05-24T11:54:18Z</time>
      </trkpt>
      <trkpt lat="46.7507" lon="5.84121">
        <ele>535.4</ele>
        <time>2022-05-24T11:54:19Z</time>
      </trkpt>
      <trkpt lat="46.75073" lon="5.84132">
        <ele>535.2</ele>
        <time>2022-05-24T11:54:20Z</time>
      </trkpt>
      <trkpt lat="46.75075" lon="5.84145">
        <ele>534.8</ele>
        <time>2022-05-24T11:54:21Z</time>
      </trkpt>
      <trkpt lat="46.75075" lon="5.84157">
        <ele>534.2</ele>
        <time>2022-05-24T11:54:22Z</time>
      </trkpt>
      <trkpt lat="46.75073" lon="5.8417">
        <ele>533.8</ele>
        <time>2022-05-24T11:54:23Z</time>
      </trkpt>
      <trkpt lat="46.75068" lon="5.84181">
        <ele>533.6</ele>
        <time>2022-05-24T11:54:24Z</time>
      </trkpt>
      <trkpt lat="46.75063" lon="5.84189">
        <ele>533.6</ele>
        <time>2022-05-24T11:54:25Z</time>
      </trkpt>
      <trkpt lat="46.75057" lon="5.84196">
        <ele>533.6</ele>
        <time>2022-05-24T11:54:26Z</time>
      </trkpt>
      <trkpt lat="46.75053" lon="5.84202">
        <ele>533.6</ele>
        <time>2022-05-24T11:54:27Z</time>
      </trkpt>
      <trkpt lat="46.75048" lon="5.84207">
        <ele>533.6</ele>
        <time>2022-05-24T11:54:28Z</time>
      </trkpt>
      <trkpt lat="46.75044" lon="5.84213">
        <ele>533.8</ele>
        <time>2022-05-24T11:54:29Z</time>
      </trkpt>
      <trkpt lat="46.7504" lon="5.84218">
        <ele>534</ele>
        <time>2022-05-24T11:54:30Z</time>
      </trkpt>
      <trkpt lat="46.75037" lon="5.84223">
        <ele>534.2</ele>
        <time>2022-05-24T11:54:31Z</time>
      </trkpt>
      <trkpt lat="46.75034" lon="5.84227">
        <ele>534.2</ele>
        <time>2022-05-24T11:54:32Z</time>
      </trkpt>
      <trkpt lat="46.75032" lon="5.84232">
        <ele>534.2</ele>
        <time>2022-05-24T11:54:33Z</time>
      </trkpt>
      <trkpt lat="46.75031" lon="5.84238">
        <ele>534.6</ele>
        <time>2022-05-24T11:54:34Z</time>
      </trkpt>
      <trkpt lat="46.75029" lon="5.84243">
        <ele>534.6</ele>
        <time>2022-05-24T11:54:35Z</time>
      </trkpt>
      <trkpt lat="46.75028" lon="5.84249">
        <ele>534.8</ele>
        <time>2022-05-24T11:54:36Z</time>
      </trkpt>
      <trkpt lat="46.75026" lon="5.84256">
        <ele>534.8</ele>
        <time>2022-05-24T11:54:37Z</time>
      </trkpt>
      <trkpt lat="46.75025" lon="5.84262">
        <ele>534.8</ele>
        <time>2022-05-24T11:54:38Z</time>
      </trkpt>
      <trkpt lat="46.75023" lon="5.84269">
        <ele>535</ele>
        <time>2022-05-24T11:54:39Z</time>
      </trkpt>
      <trkpt lat="46.75021" lon="5.84277">
        <ele>535</ele>
        <time>2022-05-24T11:54:40Z</time>
      </trkpt>
      <trkpt lat="46.75019" lon="5.84284">
        <ele>535</ele>
        <time>2022-05-24T11:54:41Z</time>
      </trkpt>
      <trkpt lat="46.75017" lon="5.8429">
        <ele>535</ele>
        <time>2022-05-24T11:54:42Z</time>
      </trkpt>
      <trkpt lat="46.75015" lon="5.84296">
        <ele>535</ele>
        <time>2022-05-24T11:54:43Z</time>
      </trkpt>
      <trkpt lat="46.75014" lon="5.84303">
        <ele>535</ele>
        <time>2022-05-24T11:54:44Z</time>
      </trkpt>
      <trkpt lat="46.75012" lon="5.8431">
        <ele>535</ele>
        <time>2022-05-24T11:54:45Z</time>
      </trkpt>
      <trkpt lat="46.75011" lon="5.84318">
        <ele>535</ele>
        <time>2022-05-24T11:54:46Z</time>
      </trkpt>
      <trkpt lat="46.75009" lon="5.84326">
        <ele>535</ele>
        <time>2022-05-24T11:54:47Z</time>
      </trkpt>
      <trkpt lat="46.75007" lon="5.84334">
        <ele>535</ele>
        <time>2022-05-24T11:54:48Z</time>
      </trkpt>
      <trkpt lat="46.75006" lon="5.84343">
        <ele>535</ele>
        <time>2022-05-24T11:54:49Z</time>
      </trkpt>
      <trkpt lat="46.75004" lon="5.84352">
        <ele>535</ele>
        <time>2022-05-24T11:54:50Z</time>
      </trkpt>
      <trkpt lat="46.75002" lon="5.84361">
        <ele>535</ele>
        <time>2022-05-24T11:54:51Z</time>
      </trkpt>
      <trkpt lat="46.75" lon="5.84369">
        <ele>535</ele>
        <time>2022-05-24T11:54:52Z</time>
      </trkpt>
      <trkpt lat="46.74999" lon="5.84379">
        <ele>535</ele>
        <time>2022-05-24T11:54:53Z</time>
      </trkpt>
      <trkpt lat="46.74998" lon="5.84388">
        <ele>535</ele>
        <time>2022-05-24T11:54:54Z</time>
      </trkpt>
      <trkpt lat="46.74996" lon="5.84397">
        <ele>535</ele>
        <time>2022-05-24T11:54:55Z</time>
      </trkpt>
      <trkpt lat="46.74995" lon="5.84407">
        <ele>535</ele>
        <time>2022-05-24T11:54:56Z</time>
      </trkpt>
      <trkpt lat="46.74994" lon="5.84417">
        <ele>535</ele>
        <time>2022-05-24T11:54:57Z</time>
      </trkpt>
      <trkpt lat="46.74992" lon="5.84426">
        <ele>535</ele>
        <time>2022-05-24T11:54:58Z</time>
      </trkpt>
      <trkpt lat="46.7499" lon="5.84435">
        <ele>534.8</ele>
        <time>2022-05-24T11:54:59Z</time>
      </trkpt>
      <trkpt lat="46.74988" lon="5.84444">
        <ele>534.8</ele>
        <time>2022-05-24T11:55:00Z</time>
      </trkpt>
      <trkpt lat="46.74986" lon="5.84452">
        <ele>534.8</ele>
        <time>2022-05-24T11:55:01Z</time>
      </trkpt>
      <trkpt lat="46.74985" lon="5.84462">
        <ele>534.8</ele>
        <time>2022-05-24T11:55:02Z</time>
      </trkpt>
      <trkpt lat="46.74983" lon="5.84471">
        <ele>534.8</ele>
        <time>2022-05-24T11:55:03Z</time>
      </trkpt>
      <trkpt lat="46.74982" lon="5.84481">
        <ele>534.8</ele>
        <time>2022-05-24T11:55:04Z</time>
      </trkpt>
      <trkpt lat="46.7498" lon="5.84491">
        <ele>534.8</ele>
        <time>2022-05-24T11:55:05Z</time>
      </trkpt>
      <trkpt lat="46.74978" lon="5.845">
        <ele>534.8</ele>
        <time>2022-05-24T11:55:06Z</time>
      </trkpt>
      <trkpt lat="46.74976" lon="5.8451">
        <ele>534.8</ele>
        <time>2022-05-24T11:55:07Z</time>
      </trkpt>
      <trkpt lat="46.74976" lon="5.8452">
        <ele>534.8</ele>
        <time>2022-05-24T11:55:08Z</time>
      </trkpt>
      <trkpt lat="46.74975" lon="5.84531">
        <ele>534.8</ele>
        <time>2022-05-24T11:55:09Z</time>
      </trkpt>
      <trkpt lat="46.74975" lon="5.84541">
        <ele>534.8</ele>
        <time>2022-05-24T11:55:10Z</time>
      </trkpt>
      <trkpt lat="46.74975" lon="5.84552">
        <ele>534.8</ele>
        <time>2022-05-24T11:55:11Z</time>
      </trkpt>
      <trkpt lat="46.74976" lon="5.84563">
        <ele>534.8</ele>
        <time>2022-05-24T11:55:12Z</time>
      </trkpt>
      <trkpt lat="46.74976" lon="5.84576">
        <ele>534.8</ele>
        <time>2022-05-24T11:55:13Z</time>
      </trkpt>
      <trkpt lat="46.74977" lon="5.84588">
        <ele>534.8</ele>
        <time>2022-05-24T11:55:14Z</time>
      </trkpt>
      <trkpt lat="46.74978" lon="5.846">
        <ele>534.8</ele>
        <time>2022-05-24T11:55:15Z</time>
      </trkpt>
      <trkpt lat="46.74979" lon="5.84611">
        <ele>534.8</ele>
        <time>2022-05-24T11:55:16Z</time>
      </trkpt>
      <trkpt lat="46.7498" lon="5.84622">
        <ele>534.8</ele>
        <time>2022-05-24T11:55:17Z</time>
      </trkpt>
      <trkpt lat="46.74981" lon="5.84633">
        <ele>534.8</ele>
        <time>2022-05-24T11:55:18Z</time>
      </trkpt>
      <trkpt lat="46.74982" lon="5.84644">
        <ele>534.8</ele>
        <time>2022-05-24T11:55:19Z</time>
      </trkpt>
      <trkpt lat="46.74983" lon="5.84656">
        <ele>534.8</ele>
        <time>2022-05-24T11:55:20Z</time>
      </trkpt>
      <trkpt lat="46.74985" lon="5.84667">
        <ele>534.8</ele>
        <time>2022-05-24T11:55:21Z</time>
      </trkpt>
      <trkpt lat="46.74986" lon="5.84678">
        <ele>534.8</ele>
        <time>2022-05-24T11:55:22Z</time>
      </trkpt>
      <trkpt lat="46.74988" lon="5.84689">
        <ele>534.8</ele>
        <time>2022-05-24T11:55:23Z</time>
      </trkpt>
      <trkpt lat="46.74989" lon="5.847">
        <ele>534.6</ele>
        <time>2022-05-24T11:55:24Z</time>
      </trkpt>
      <trkpt lat="46.7499" lon="5.84711">
        <ele>534.6</ele>
        <time>2022-05-24T11:55:25Z</time>
      </trkpt>
      <trkpt lat="46.74992" lon="5.84722">
        <ele>534.6</ele>
        <time>2022-05-24T11:55:26Z</time>
      </trkpt>
      <trkpt lat="46.74993" lon="5.84733">
        <ele>534.8</ele>
        <time>2022-05-24T11:55:27Z</time>
      </trkpt>
      <trkpt lat="46.74995" lon="5.84744">
        <ele>534.8</ele>
        <time>2022-05-24T11:55:28Z</time>
      </trkpt>
      <trkpt lat="46.74996" lon="5.84754">
        <ele>534.8</ele>
        <time>2022-05-24T11:55:29Z</time>
      </trkpt>
      <trkpt lat="46.74998" lon="5.84765">
        <ele>535</ele>
        <time>2022-05-24T11:55:30Z</time>
      </trkpt>
      <trkpt lat="46.75" lon="5.84775">
        <ele>535</ele>
        <time>2022-05-24T11:55:31Z</time>
      </trkpt>
      <trkpt lat="46.75002" lon="5.84785">
        <ele>535</ele>
        <time>2022-05-24T11:55:32Z</time>
      </trkpt>
      <trkpt lat="46.75004" lon="5.84795">
        <ele>535</ele>
        <time>2022-05-24T11:55:33Z</time>
      </trkpt>
      <trkpt lat="46.75005" lon="5.84806">
        <ele>535</ele>
        <time>2022-05-24T11:55:34Z</time>
      </trkpt>
      <trkpt lat="46.75007" lon="5.84816">
        <ele>535</ele>
        <time>2022-05-24T11:55:35Z</time>
      </trkpt>
      <trkpt lat="46.75009" lon="5.84826">
        <ele>535</ele>
        <time>2022-05-24T11:55:36Z</time>
      </trkpt>
      <trkpt lat="46.75011" lon="5.84836">
        <ele>535</ele>
        <time>2022-05-24T11:55:37Z</time>
      </trkpt>
      <trkpt lat="46.75013" lon="5.84846">
        <ele>535</ele>
        <time>2022-05-24T11:55:38Z</time>
      </trkpt>
      <trkpt lat="46.75014" lon="5.84856">
        <ele>535</ele>
        <time>2022-05-24T11:55:39Z</time>
      </trkpt>
      <trkpt lat="46.75015" lon="5.84866">
        <ele>535</ele>
        <time>2022-05-24T11:55:40Z</time>
      </trkpt>
      <trkpt lat="46.75016" lon="5.84876">
        <ele>535</ele>
        <time>2022-05-24T11:55:41Z</time>
      </trkpt>
      <trkpt lat="46.75018" lon="5.84886">
        <ele>535</ele>
        <time>2022-05-24T11:55:42Z</time>
      </trkpt>
      <trkpt lat="46.75019" lon="5.84896">
        <ele>535</ele>
        <time>2022-05-24T11:55:43Z</time>
      </trkpt>
      <trkpt lat="46.75021" lon="5.84906">
        <ele>535</ele>
        <time>2022-05-24T11:55:44Z</time>
      </trkpt>
      <trkpt lat="46.75022" lon="5.84917">
        <ele>535</ele>
        <time>2022-05-24T11:55:45Z</time>
      </trkpt>
      <trkpt lat="46.75023" lon="5.84926">
        <ele>535</ele>
        <time>2022-05-24T11:55:46Z</time>
      </trkpt>
      <trkpt lat="46.75025" lon="5.84936">
        <ele>535</ele>
        <time>2022-05-24T11:55:47Z</time>
      </trkpt>
      <trkpt lat="46.75026" lon="5.84947">
        <ele>535</ele>
        <time>2022-05-24T11:55:48Z</time>
      </trkpt>
      <trkpt lat="46.75028" lon="5.84957">
        <ele>535</ele>
        <time>2022-05-24T11:55:49Z</time>
      </trkpt>
      <trkpt lat="46.75029" lon="5.84967">
        <ele>535</ele>
        <time>2022-05-24T11:55:50Z</time>
      </trkpt>
      <trkpt lat="46.75031" lon="5.84978">
        <ele>535</ele>
        <time>2022-05-24T11:55:51Z</time>
      </trkpt>
      <trkpt lat="46.75032" lon="5.84988">
        <ele>535</ele>
        <time>2022-05-24T11:55:52Z</time>
      </trkpt>
      <trkpt lat="46.75034" lon="5.84999">
        <ele>535</ele>
        <time>2022-05-24T11:55:53Z</time>
      </trkpt>
      <trkpt lat="46.75036" lon="5.8501">
        <ele>535</ele>
        <time>2022-05-24T11:55:54Z</time>
      </trkpt>
      <trkpt lat="46.75037" lon="5.8502">
        <ele>535</ele>
        <time>2022-05-24T11:55:55Z</time>
      </trkpt>
      <trkpt lat="46.75039" lon="5.8503">
        <ele>535</ele>
        <time>2022-05-24T11:55:56Z</time>
      </trkpt>
      <trkpt lat="46.75041" lon="5.85041">
        <ele>535</ele>
        <time>2022-05-24T11:55:57Z</time>
      </trkpt>
      <trkpt lat="46.75043" lon="5.85051">
        <ele>535</ele>
        <time>2022-05-24T11:55:58Z</time>
      </trkpt>
      <trkpt lat="46.75044" lon="5.85061">
        <ele>535.2</ele>
        <time>2022-05-24T11:55:59Z</time>
      </trkpt>
      <trkpt lat="46.75046" lon="5.85071">
        <ele>535.2</ele>
        <time>2022-05-24T11:56:00Z</time>
      </trkpt>
      <trkpt lat="46.75048" lon="5.85081">
        <ele>535.4</ele>
        <time>2022-05-24T11:56:01Z</time>
      </trkpt>
      <trkpt lat="46.75049" lon="5.85091">
        <ele>535.4</ele>
        <time>2022-05-24T11:56:02Z</time>
      </trkpt>
      <trkpt lat="46.75051" lon="5.85101">
        <ele>535.4</ele>
        <time>2022-05-24T11:56:03Z</time>
      </trkpt>
      <trkpt lat="46.75052" lon="5.85111">
        <ele>535.4</ele>
        <time>2022-05-24T11:56:04Z</time>
      </trkpt>
      <trkpt lat="46.75053" lon="5.8512">
        <ele>535.4</ele>
        <time>2022-05-24T11:56:05Z</time>
      </trkpt>
      <trkpt lat="46.75055" lon="5.8513">
        <ele>535.4</ele>
        <time>2022-05-24T11:56:06Z</time>
      </trkpt>
      <trkpt lat="46.75056" lon="5.8514">
        <ele>535.4</ele>
        <time>2022-05-24T11:56:07Z</time>
      </trkpt>
      <trkpt lat="46.75057" lon="5.85149">
        <ele>535.4</ele>
        <time>2022-05-24T11:56:08Z</time>
      </trkpt>
      <trkpt lat="46.75059" lon="5.85159">
        <ele>535.4</ele>
        <time>2022-05-24T11:56:09Z</time>
      </trkpt>
      <trkpt lat="46.7506" lon="5.85168">
        <ele>535.4</ele>
        <time>2022-05-24T11:56:10Z</time>
      </trkpt>
      <trkpt lat="46.75062" lon="5.85178">
        <ele>535.4</ele>
        <time>2022-05-24T11:56:11Z</time>
      </trkpt>
      <trkpt lat="46.75063" lon="5.85188">
        <ele>535.2</ele>
        <time>2022-05-24T11:56:12Z</time>
      </trkpt>
      <trkpt lat="46.75064" lon="5.85197">
        <ele>535</ele>
        <time>2022-05-24T11:56:13Z</time>
      </trkpt>
      <trkpt lat="46.75065" lon="5.85207">
        <ele>535</ele>
        <time>2022-05-24T11:56:14Z</time>
      </trkpt>
      <trkpt lat="46.75067" lon="5.85216">
        <ele>534.8</ele>
        <time>2022-05-24T11:56:15Z</time>
      </trkpt>
      <trkpt lat="46.75068" lon="5.85226">
        <ele>534.8</ele>
        <time>2022-05-24T11:56:16Z</time>
      </trkpt>
      <trkpt lat="46.7507" lon="5.85235">
        <ele>534.4</ele>
        <time>2022-05-24T11:56:17Z</time>
      </trkpt>
      <trkpt lat="46.75071" lon="5.85244">
        <ele>534.4</ele>
        <time>2022-05-24T11:56:18Z</time>
      </trkpt>
      <trkpt lat="46.75073" lon="5.85254">
        <ele>534.4</ele>
        <time>2022-05-24T11:56:19Z</time>
      </trkpt>
      <trkpt lat="46.75074" lon="5.85263">
        <ele>534.4</ele>
        <time>2022-05-24T11:56:20Z</time>
      </trkpt>
      <trkpt lat="46.75075" lon="5.85273">
        <ele>534.6</ele>
        <time>2022-05-24T11:56:21Z</time>
      </trkpt>
      <trkpt lat="46.75077" lon="5.85282">
        <ele>534.6</ele>
        <time>2022-05-24T11:56:22Z</time>
      </trkpt>
      <trkpt lat="46.75079" lon="5.85291">
        <ele>534.6</ele>
        <time>2022-05-24T11:56:23Z</time>
      </trkpt>
      <trkpt lat="46.7508" lon="5.853">
        <ele>534.6</ele>
        <time>2022-05-24T11:56:24Z</time>
      </trkpt>
      <trkpt lat="46.75082" lon="5.85309">
        <ele>534.6</ele>
        <time>2022-05-24T11:56:25Z</time>
      </trkpt>
      <trkpt lat="46.75085" lon="5.85318">
        <ele>534.6</ele>
        <time>2022-05-24T11:56:26Z</time>
      </trkpt>
      <trkpt lat="46.75087" lon="5.85326">
        <ele>534.8</ele>
        <time>2022-05-24T11:56:27Z</time>
      </trkpt>
      <trkpt lat="46.7509" lon="5.85335">
        <ele>534.8</ele>
        <time>2022-05-24T11:56:28Z</time>
      </trkpt>
      <trkpt lat="46.75092" lon="5.85343">
        <ele>535.2</ele>
        <time>2022-05-24T11:56:29Z</time>
      </trkpt>
      <trkpt lat="46.75095" lon="5.85352">
        <ele>535.2</ele>
        <time>2022-05-24T11:56:30Z</time>
      </trkpt>
      <trkpt lat="46.75097" lon="5.8536">
        <ele>535.2</ele>
        <time>2022-05-24T11:56:31Z</time>
      </trkpt>
      <trkpt lat="46.751" lon="5.85369">
        <ele>535.2</ele>
        <time>2022-05-24T11:56:32Z</time>
      </trkpt>
      <trkpt lat="46.75102" lon="5.85377">
        <ele>534.8</ele>
        <time>2022-05-24T11:56:33Z</time>
      </trkpt>
      <trkpt lat="46.75105" lon="5.85385">
        <ele>534.8</ele>
        <time>2022-05-24T11:56:34Z</time>
      </trkpt>
      <trkpt lat="46.75107" lon="5.85392">
        <ele>535.2</ele>
        <time>2022-05-24T11:56:35Z</time>
      </trkpt>
      <trkpt lat="46.75109" lon="5.854">
        <ele>535.2</ele>
        <time>2022-05-24T11:56:36Z</time>
      </trkpt>
      <trkpt lat="46.75112" lon="5.85406">
        <ele>535.4</ele>
        <time>2022-05-24T11:56:37Z</time>
      </trkpt>
      <trkpt lat="46.75115" lon="5.85414">
        <ele>535.4</ele>
        <time>2022-05-24T11:56:38Z</time>
      </trkpt>
      <trkpt lat="46.75117" lon="5.8542">
        <ele>535.4</ele>
        <time>2022-05-24T11:56:39Z</time>
      </trkpt>
      <trkpt lat="46.7512" lon="5.85428">
        <ele>535.4</ele>
        <time>2022-05-24T11:56:40Z</time>
      </trkpt>
      <trkpt lat="46.75123" lon="5.85436">
        <ele>535.4</ele>
        <time>2022-05-24T11:56:41Z</time>
      </trkpt>
      <trkpt lat="46.75125" lon="5.85443">
        <ele>535.4</ele>
        <time>2022-05-24T11:56:42Z</time>
      </trkpt>
      <trkpt lat="46.75128" lon="5.85451">
        <ele>535.6</ele>
        <time>2022-05-24T11:56:43Z</time>
      </trkpt>
      <trkpt lat="46.7513" lon="5.85458">
        <ele>535.6</ele>
        <time>2022-05-24T11:56:44Z</time>
      </trkpt>
      <trkpt lat="46.75133" lon="5.85465">
        <ele>535.6</ele>
        <time>2022-05-24T11:56:45Z</time>
      </trkpt>
      <trkpt lat="46.75136" lon="5.85472">
        <ele>535.6</ele>
        <time>2022-05-24T11:56:46Z</time>
      </trkpt>
      <trkpt lat="46.75139" lon="5.8548">
        <ele>535.6</ele>
        <time>2022-05-24T11:56:47Z</time>
      </trkpt>
      <trkpt lat="46.75141" lon="5.85487">
        <ele>535.6</ele>
        <time>2022-05-24T11:56:48Z</time>
      </trkpt>
      <trkpt lat="46.75144" lon="5.85496">
        <ele>536</ele>
        <time>2022-05-24T11:56:49Z</time>
      </trkpt>
      <trkpt lat="46.75147" lon="5.85504">
        <ele>536</ele>
        <time>2022-05-24T11:56:50Z</time>
      </trkpt>
      <trkpt lat="46.7515" lon="5.85514">
        <ele>535.6</ele>
        <time>2022-05-24T11:56:51Z</time>
      </trkpt>
      <trkpt lat="46.75153" lon="5.85523">
        <ele>535.6</ele>
        <time>2022-05-24T11:56:52Z</time>
      </trkpt>
      <trkpt lat="46.75155" lon="5.85531">
        <ele>535.6</ele>
        <time>2022-05-24T11:56:53Z</time>
      </trkpt>
      <trkpt lat="46.75157" lon="5.85539">
        <ele>535.6</ele>
        <time>2022-05-24T11:56:54Z</time>
      </trkpt>
      <trkpt lat="46.75159" lon="5.85548">
        <ele>535.6</ele>
        <time>2022-05-24T11:56:55Z</time>
      </trkpt>
      <trkpt lat="46.75161" lon="5.85557">
        <ele>535.6</ele>
        <time>2022-05-24T11:56:56Z</time>
      </trkpt>
      <trkpt lat="46.75163" lon="5.85566">
        <ele>535.6</ele>
        <time>2022-05-24T11:56:57Z</time>
      </trkpt>
      <trkpt lat="46.75164" lon="5.85575">
        <ele>535.4</ele>
        <time>2022-05-24T11:56:58Z</time>
      </trkpt>
      <trkpt lat="46.75166" lon="5.85585">
        <ele>535.4</ele>
        <time>2022-05-24T11:56:59Z</time>
      </trkpt>
      <trkpt lat="46.75168" lon="5.85595">
        <ele>535.4</ele>
        <time>2022-05-24T11:57:00Z</time>
      </trkpt>
      <trkpt lat="46.7517" lon="5.85604">
        <ele>535.4</ele>
        <time>2022-05-24T11:57:01Z</time>
      </trkpt>
      <trkpt lat="46.75171" lon="5.85615">
        <ele>535.4</ele>
        <time>2022-05-24T11:57:02Z</time>
      </trkpt>
      <trkpt lat="46.75172" lon="5.85624">
        <ele>535.4</ele>
        <time>2022-05-24T11:57:03Z</time>
      </trkpt>
      <trkpt lat="46.75173" lon="5.85633">
        <ele>535.4</ele>
        <time>2022-05-24T11:57:04Z</time>
      </trkpt>
      <trkpt lat="46.75175" lon="5.85642">
        <ele>535.4</ele>
        <time>2022-05-24T11:57:05Z</time>
      </trkpt>
      <trkpt lat="46.75176" lon="5.85651">
        <ele>535.4</ele>
        <time>2022-05-24T11:57:06Z</time>
      </trkpt>
      <trkpt lat="46.75178" lon="5.85661">
        <ele>535.2</ele>
        <time>2022-05-24T11:57:07Z</time>
      </trkpt>
      <trkpt lat="46.75179" lon="5.8567">
        <ele>535.2</ele>
        <time>2022-05-24T11:57:08Z</time>
      </trkpt>
      <trkpt lat="46.75181" lon="5.85679">
        <ele>535.2</ele>
        <time>2022-05-24T11:57:09Z</time>
      </trkpt>
      <trkpt lat="46.75182" lon="5.85688">
        <ele>535.2</ele>
        <time>2022-05-24T11:57:10Z</time>
      </trkpt>
      <trkpt lat="46.75184" lon="5.85697">
        <ele>535.2</ele>
        <time>2022-05-24T11:57:11Z</time>
      </trkpt>
      <trkpt lat="46.75185" lon="5.85706">
        <ele>535.2</ele>
        <time>2022-05-24T11:57:12Z</time>
      </trkpt>
      <trkpt lat="46.75186" lon="5.85715">
        <ele>535.4</ele>
        <time>2022-05-24T11:57:13Z</time>
      </trkpt>
      <trkpt lat="46.75188" lon="5.85724">
        <ele>535.4</ele>
        <time>2022-05-24T11:57:14Z</time>
      </trkpt>
      <trkpt lat="46.7519" lon="5.85733">
        <ele>535.4</ele>
        <time>2022-05-24T11:57:15Z</time>
      </trkpt>
      <trkpt lat="46.75191" lon="5.85741">
        <ele>535.4</ele>
        <time>2022-05-24T11:57:16Z</time>
      </trkpt>
      <trkpt lat="46.75193" lon="5.85751">
        <ele>535.4</ele>
        <time>2022-05-24T11:57:17Z</time>
      </trkpt>
      <trkpt lat="46.75194" lon="5.85761">
        <ele>535.4</ele>
        <time>2022-05-24T11:57:18Z</time>
      </trkpt>
      <trkpt lat="46.75195" lon="5.8577">
        <ele>535.4</ele>
        <time>2022-05-24T11:57:19Z</time>
      </trkpt>
      <trkpt lat="46.75197" lon="5.8578">
        <ele>535.4</ele>
        <time>2022-05-24T11:57:20Z</time>
      </trkpt>
      <trkpt lat="46.75198" lon="5.85789">
        <ele>535.4</ele>
        <time>2022-05-24T11:57:21Z</time>
      </trkpt>
      <trkpt lat="46.752" lon="5.85799">
        <ele>535.4</ele>
        <time>2022-05-24T11:57:22Z</time>
      </trkpt>
      <trkpt lat="46.75201" lon="5.85809">
        <ele>535.4</ele>
        <time>2022-05-24T11:57:23Z</time>
      </trkpt>
      <trkpt lat="46.75202" lon="5.8582">
        <ele>535.6</ele>
        <time>2022-05-24T11:57:24Z</time>
      </trkpt>
      <trkpt lat="46.75203" lon="5.85829">
        <ele>535.6</ele>
        <time>2022-05-24T11:57:25Z</time>
      </trkpt>
      <trkpt lat="46.75204" lon="5.85839">
        <ele>535.6</ele>
        <time>2022-05-24T11:57:26Z</time>
      </trkpt>
      <trkpt lat="46.75205" lon="5.85848">
        <ele>535.6</ele>
        <time>2022-05-24T11:57:27Z</time>
      </trkpt>
      <trkpt lat="46.75206" lon="5.85858">
        <ele>535.8</ele>
        <time>2022-05-24T11:57:28Z</time>
      </trkpt>
      <trkpt lat="46.75208" lon="5.85867">
        <ele>535.8</ele>
        <time>2022-05-24T11:57:29Z</time>
      </trkpt>
      <trkpt lat="46.75209" lon="5.85876">
        <ele>535.8</ele>
        <time>2022-05-24T11:57:30Z</time>
      </trkpt>
      <trkpt lat="46.75211" lon="5.85885">
        <ele>535.8</ele>
        <time>2022-05-24T11:57:31Z</time>
      </trkpt>
      <trkpt lat="46.75212" lon="5.85893">
        <ele>535.8</ele>
        <time>2022-05-24T11:57:32Z</time>
      </trkpt>
      <trkpt lat="46.75213" lon="5.85902">
        <ele>536.2</ele>
        <time>2022-05-24T11:57:33Z</time>
      </trkpt>
      <trkpt lat="46.75215" lon="5.85911">
        <ele>536.2</ele>
        <time>2022-05-24T11:57:34Z</time>
      </trkpt>
      <trkpt lat="46.75216" lon="5.8592">
        <ele>536.2</ele>
        <time>2022-05-24T11:57:35Z</time>
      </trkpt>
      <trkpt lat="46.75217" lon="5.85929">
        <ele>536.4</ele>
        <time>2022-05-24T11:57:36Z</time>
      </trkpt>
      <trkpt lat="46.75218" lon="5.85939">
        <ele>536.4</ele>
        <time>2022-05-24T11:57:37Z</time>
      </trkpt>
      <trkpt lat="46.7522" lon="5.85948">
        <ele>536.4</ele>
        <time>2022-05-24T11:57:38Z</time>
      </trkpt>
      <trkpt lat="46.75221" lon="5.85957">
        <ele>536.6</ele>
        <time>2022-05-24T11:57:39Z</time>
      </trkpt>
      <trkpt lat="46.75222" lon="5.85966">
        <ele>536.6</ele>
        <time>2022-05-24T11:57:40Z</time>
      </trkpt>
      <trkpt lat="46.75224" lon="5.85975">
        <ele>536.6</ele>
        <time>2022-05-24T11:57:41Z</time>
      </trkpt>
      <trkpt lat="46.75225" lon="5.85984">
        <ele>536.6</ele>
        <time>2022-05-24T11:57:42Z</time>
      </trkpt>
      <trkpt lat="46.75227" lon="5.85994">
        <ele>536.6</ele>
        <time>2022-05-24T11:57:43Z</time>
      </trkpt>
      <trkpt lat="46.75228" lon="5.86003">
        <ele>536.6</ele>
        <time>2022-05-24T11:57:44Z</time>
      </trkpt>
      <trkpt lat="46.7523" lon="5.86012">
        <ele>536.6</ele>
        <time>2022-05-24T11:57:45Z</time>
      </trkpt>
      <trkpt lat="46.75232" lon="5.86021">
        <ele>536.8</ele>
        <time>2022-05-24T11:57:46Z</time>
      </trkpt>
      <trkpt lat="46.75233" lon="5.8603">
        <ele>536.8</ele>
        <time>2022-05-24T11:57:47Z</time>
      </trkpt>
      <trkpt lat="46.75235" lon="5.8604">
        <ele>536.8</ele>
        <time>2022-05-24T11:57:48Z</time>
      </trkpt>
      <trkpt lat="46.75236" lon="5.8605">
        <ele>536.8</ele>
        <time>2022-05-24T11:57:49Z</time>
      </trkpt>
      <trkpt lat="46.75238" lon="5.86059">
        <ele>536.6</ele>
        <time>2022-05-24T11:57:50Z</time>
      </trkpt>
      <trkpt lat="46.75239" lon="5.86068">
        <ele>536.6</ele>
        <time>2022-05-24T11:57:51Z</time>
      </trkpt>
      <trkpt lat="46.7524" lon="5.86077">
        <ele>536.6</ele>
        <time>2022-05-24T11:57:52Z</time>
      </trkpt>
      <trkpt lat="46.75242" lon="5.86087">
        <ele>536.6</ele>
        <time>2022-05-24T11:57:53Z</time>
      </trkpt>
      <trkpt lat="46.75243" lon="5.86096">
        <ele>536.6</ele>
        <time>2022-05-24T11:57:54Z</time>
      </trkpt>
      <trkpt lat="46.75245" lon="5.86105">
        <ele>536.6</ele>
        <time>2022-05-24T11:57:55Z</time>
      </trkpt>
      <trkpt lat="46.75246" lon="5.86114">
        <ele>536.6</ele>
        <time>2022-05-24T11:57:56Z</time>
      </trkpt>
      <trkpt lat="46.75248" lon="5.86124">
        <ele>536.6</ele>
        <time>2022-05-24T11:57:57Z</time>
      </trkpt>
      <trkpt lat="46.75249" lon="5.86133">
        <ele>536.6</ele>
        <time>2022-05-24T11:57:58Z</time>
      </trkpt>
      <trkpt lat="46.7525" lon="5.86142">
        <ele>536.6</ele>
        <time>2022-05-24T11:57:59Z</time>
      </trkpt>
      <trkpt lat="46.75252" lon="5.86152">
        <ele>536.6</ele>
        <time>2022-05-24T11:58:00Z</time>
      </trkpt>
      <trkpt lat="46.75253" lon="5.86161">
        <ele>537</ele>
        <time>2022-05-24T11:58:01Z</time>
      </trkpt>
      <trkpt lat="46.75255" lon="5.8617">
        <ele>537</ele>
        <time>2022-05-24T11:58:02Z</time>
      </trkpt>
      <trkpt lat="46.75256" lon="5.8618">
        <ele>537.2</ele>
        <time>2022-05-24T11:58:03Z</time>
      </trkpt>
      <trkpt lat="46.75257" lon="5.86189">
        <ele>537.2</ele>
        <time>2022-05-24T11:58:04Z</time>
      </trkpt>
      <trkpt lat="46.75258" lon="5.86198">
        <ele>537.2</ele>
        <time>2022-05-24T11:58:05Z</time>
      </trkpt>
      <trkpt lat="46.7526" lon="5.86207">
        <ele>537.2</ele>
        <time>2022-05-24T11:58:06Z</time>
      </trkpt>
      <trkpt lat="46.75261" lon="5.86216">
        <ele>537.2</ele>
        <time>2022-05-24T11:58:07Z</time>
      </trkpt>
      <trkpt lat="46.75262" lon="5.86224">
        <ele>537.2</ele>
        <time>2022-05-24T11:58:08Z</time>
      </trkpt>
      <trkpt lat="46.75264" lon="5.86232">
        <ele>537.2</ele>
        <time>2022-05-24T11:58:09Z</time>
      </trkpt>
      <trkpt lat="46.75265" lon="5.8624">
        <ele>537.2</ele>
        <time>2022-05-24T11:58:10Z</time>
      </trkpt>
      <trkpt lat="46.75267" lon="5.86249">
        <ele>537.4</ele>
        <time>2022-05-24T11:58:11Z</time>
      </trkpt>
      <trkpt lat="46.75269" lon="5.86257">
        <ele>537.4</ele>
        <time>2022-05-24T11:58:12Z</time>
      </trkpt>
      <trkpt lat="46.75271" lon="5.86265">
        <ele>537.4</ele>
        <time>2022-05-24T11:58:13Z</time>
      </trkpt>
      <trkpt lat="46.75272" lon="5.86274">
        <ele>537.4</ele>
        <time>2022-05-24T11:58:14Z</time>
      </trkpt>
      <trkpt lat="46.75274" lon="5.86283">
        <ele>537.4</ele>
        <time>2022-05-24T11:58:15Z</time>
      </trkpt>
      <trkpt lat="46.75276" lon="5.86292">
        <ele>537.4</ele>
        <time>2022-05-24T11:58:16Z</time>
      </trkpt>
      <trkpt lat="46.75279" lon="5.86301">
        <ele>537.4</ele>
        <time>2022-05-24T11:58:17Z</time>
      </trkpt>
      <trkpt lat="46.75281" lon="5.8631">
        <ele>537.4</ele>
        <time>2022-05-24T11:58:18Z</time>
      </trkpt>
      <trkpt lat="46.75283" lon="5.8632">
        <ele>537.4</ele>
        <time>2022-05-24T11:58:19Z</time>
      </trkpt>
      <trkpt lat="46.75285" lon="5.86328">
        <ele>537.4</ele>
        <time>2022-05-24T11:58:20Z</time>
      </trkpt>
      <trkpt lat="46.75288" lon="5.86337">
        <ele>537.4</ele>
        <time>2022-05-24T11:58:21Z</time>
      </trkpt>
      <trkpt lat="46.75291" lon="5.86347">
        <ele>537.4</ele>
        <time>2022-05-24T11:58:22Z</time>
      </trkpt>
      <trkpt lat="46.75294" lon="5.86355">
        <ele>537.4</ele>
        <time>2022-05-24T11:58:23Z</time>
      </trkpt>
      <trkpt lat="46.75297" lon="5.86363">
        <ele>537.4</ele>
        <time>2022-05-24T11:58:24Z</time>
      </trkpt>
      <trkpt lat="46.753" lon="5.86371">
        <ele>537.4</ele>
        <time>2022-05-24T11:58:25Z</time>
      </trkpt>
      <trkpt lat="46.75302" lon="5.86379">
        <ele>537.4</ele>
        <time>2022-05-24T11:58:26Z</time>
      </trkpt>
      <trkpt lat="46.75305" lon="5.86387">
        <ele>537.4</ele>
        <time>2022-05-24T11:58:27Z</time>
      </trkpt>
      <trkpt lat="46.75308" lon="5.86396">
        <ele>537.4</ele>
        <time>2022-05-24T11:58:28Z</time>
      </trkpt>
      <trkpt lat="46.75311" lon="5.86403">
        <ele>537.6</ele>
        <time>2022-05-24T11:58:29Z</time>
      </trkpt>
      <trkpt lat="46.75314" lon="5.86411">
        <ele>537.6</ele>
        <time>2022-05-24T11:58:30Z</time>
      </trkpt>
      <trkpt lat="46.75317" lon="5.86418">
        <ele>537.6</ele>
        <time>2022-05-24T11:58:31Z</time>
      </trkpt>
      <trkpt lat="46.7532" lon="5.86425">
        <ele>537.6</ele>
        <time>2022-05-24T11:58:32Z</time>
      </trkpt>
      <trkpt lat="46.75324" lon="5.86431">
        <ele>537.6</ele>
        <time>2022-05-24T11:58:33Z</time>
      </trkpt>
      <trkpt lat="46.75327" lon="5.86438">
        <ele>537.6</ele>
        <time>2022-05-24T11:58:34Z</time>
      </trkpt>
      <trkpt lat="46.75331" lon="5.86445">
        <ele>537.4</ele>
        <time>2022-05-24T11:58:35Z</time>
      </trkpt>
      <trkpt lat="46.75335" lon="5.86451">
        <ele>537.4</ele>
        <time>2022-05-24T11:58:36Z</time>
      </trkpt>
      <trkpt lat="46.75339" lon="5.86458">
        <ele>537.4</ele>
        <time>2022-05-24T11:58:37Z</time>
      </trkpt>
      <trkpt lat="46.75342" lon="5.86465">
        <ele>537.4</ele>
        <time>2022-05-24T11:58:38Z</time>
      </trkpt>
      <trkpt lat="46.75347" lon="5.86474">
        <ele>537.4</ele>
        <time>2022-05-24T11:58:39Z</time>
      </trkpt>
      <trkpt lat="46.75352" lon="5.86482">
        <ele>537.4</ele>
        <time>2022-05-24T11:58:40Z</time>
      </trkpt>
      <trkpt lat="46.75356" lon="5.8649">
        <ele>537.4</ele>
        <time>2022-05-24T11:58:41Z</time>
      </trkpt>
      <trkpt lat="46.75361" lon="5.86497">
        <ele>537.4</ele>
        <time>2022-05-24T11:58:42Z</time>
      </trkpt>
      <trkpt lat="46.75366" lon="5.86504">
        <ele>537.4</ele>
        <time>2022-05-24T11:58:43Z</time>
      </trkpt>
      <trkpt lat="46.75372" lon="5.8651">
        <ele>537.4</ele>
        <time>2022-05-24T11:58:44Z</time>
      </trkpt>
      <trkpt lat="46.75377" lon="5.86516">
        <ele>537.4</ele>
        <time>2022-05-24T11:58:45Z</time>
      </trkpt>
      <trkpt lat="46.75383" lon="5.86522">
        <ele>537.4</ele>
        <time>2022-05-24T11:58:46Z</time>
      </trkpt>
      <trkpt lat="46.75388" lon="5.86528">
        <ele>537.4</ele>
        <time>2022-05-24T11:58:47Z</time>
      </trkpt>
      <trkpt lat="46.75394" lon="5.86534">
        <ele>537.4</ele>
        <time>2022-05-24T11:58:48Z</time>
      </trkpt>
      <trkpt lat="46.754" lon="5.8654">
        <ele>537.2</ele>
        <time>2022-05-24T11:58:49Z</time>
      </trkpt>
      <trkpt lat="46.75405" lon="5.86546">
        <ele>536.8</ele>
        <time>2022-05-24T11:58:50Z</time>
      </trkpt>
      <trkpt lat="46.75411" lon="5.86551">
        <ele>536.8</ele>
        <time>2022-05-24T11:58:51Z</time>
      </trkpt>
      <trkpt lat="46.75417" lon="5.86557">
        <ele>536.8</ele>
        <time>2022-05-24T11:58:52Z</time>
      </trkpt>
      <trkpt lat="46.75423" lon="5.86561">
        <ele>536.8</ele>
        <time>2022-05-24T11:58:53Z</time>
      </trkpt>
      <trkpt lat="46.75429" lon="5.86566">
        <ele>536.8</ele>
        <time>2022-05-24T11:58:54Z</time>
      </trkpt>
      <trkpt lat="46.75434" lon="5.86572">
        <ele>536.8</ele>
        <time>2022-05-24T11:58:55Z</time>
      </trkpt>
      <trkpt lat="46.7544" lon="5.86577">
        <ele>536.4</ele>
        <time>2022-05-24T11:58:56Z</time>
      </trkpt>
      <trkpt lat="46.75446" lon="5.86582">
        <ele>536.4</ele>
        <time>2022-05-24T11:58:57Z</time>
      </trkpt>
      <trkpt lat="46.75452" lon="5.86588">
        <ele>536.4</ele>
        <time>2022-05-24T11:58:58Z</time>
      </trkpt>
      <trkpt lat="46.75458" lon="5.86593">
        <ele>536.4</ele>
        <time>2022-05-24T11:58:59Z</time>
      </trkpt>
      <trkpt lat="46.75463" lon="5.86598">
        <ele>536.4</ele>
        <time>2022-05-24T11:59:00Z</time>
      </trkpt>
      <trkpt lat="46.75469" lon="5.86603">
        <ele>536.4</ele>
        <time>2022-05-24T11:59:01Z</time>
      </trkpt>
      <trkpt lat="46.75474" lon="5.86609">
        <ele>536.4</ele>
        <time>2022-05-24T11:59:02Z</time>
      </trkpt>
      <trkpt lat="46.7548" lon="5.86614">
        <ele>536.2</ele>
        <time>2022-05-24T11:59:03Z</time>
      </trkpt>
      <trkpt lat="46.75485" lon="5.86619">
        <ele>536.2</ele>
        <time>2022-05-24T11:59:04Z</time>
      </trkpt>
      <trkpt lat="46.7549" lon="5.86623">
        <ele>536.2</ele>
        <time>2022-05-24T11:59:05Z</time>
      </trkpt>
      <trkpt lat="46.75496" lon="5.86628">
        <ele>536.2</ele>
        <time>2022-05-24T11:59:06Z</time>
      </trkpt>
      <trkpt lat="46.75501" lon="5.86633">
        <ele>536.2</ele>
        <time>2022-05-24T11:59:07Z</time>
      </trkpt>
      <trkpt lat="46.75507" lon="5.86638">
        <ele>536.2</ele>
        <time>2022-05-24T11:59:08Z</time>
      </trkpt>
      <trkpt lat="46.75513" lon="5.86643">
        <ele>536.2</ele>
        <time>2022-05-24T11:59:09Z</time>
      </trkpt>
      <trkpt lat="46.75518" lon="5.86649">
        <ele>536.2</ele>
        <time>2022-05-24T11:59:10Z</time>
      </trkpt>
      <trkpt lat="46.75524" lon="5.86655">
        <ele>536.2</ele>
        <time>2022-05-24T11:59:11Z</time>
      </trkpt>
      <trkpt lat="46.75528" lon="5.8666">
        <ele>536.2</ele>
        <time>2022-05-24T11:59:12Z</time>
      </trkpt>
      <trkpt lat="46.75533" lon="5.86666">
        <ele>536.2</ele>
        <time>2022-05-24T11:59:13Z</time>
      </trkpt>
      <trkpt lat="46.75538" lon="5.86672">
        <ele>536.2</ele>
        <time>2022-05-24T11:59:14Z</time>
      </trkpt>
      <trkpt lat="46.75542" lon="5.86677">
        <ele>536.2</ele>
        <time>2022-05-24T11:59:15Z</time>
      </trkpt>
      <trkpt lat="46.75546" lon="5.86682">
        <ele>535.8</ele>
        <time>2022-05-24T11:59:16Z</time>
      </trkpt>
      <trkpt lat="46.75551" lon="5.86687">
        <ele>535.6</ele>
        <time>2022-05-24T11:59:17Z</time>
      </trkpt>
      <trkpt lat="46.75555" lon="5.86692">
        <ele>535.6</ele>
        <time>2022-05-24T11:59:18Z</time>
      </trkpt>
      <trkpt lat="46.75559" lon="5.86697">
        <ele>535.6</ele>
        <time>2022-05-24T11:59:19Z</time>
      </trkpt>
      <trkpt lat="46.75563" lon="5.86703">
        <ele>535.6</ele>
        <time>2022-05-24T11:59:20Z</time>
      </trkpt>
      <trkpt lat="46.75565" lon="5.8671">
        <ele>535.6</ele>
        <time>2022-05-24T11:59:21Z</time>
      </trkpt>
      <trkpt lat="46.75567" lon="5.86718">
        <ele>535.4</ele>
        <time>2022-05-24T11:59:22Z</time>
      </trkpt>
      <trkpt lat="46.75567" lon="5.86727">
        <ele>535.4</ele>
        <time>2022-05-24T11:59:23Z</time>
      </trkpt>
      <trkpt lat="46.75567" lon="5.86736">
        <ele>534.8</ele>
        <time>2022-05-24T11:59:24Z</time>
      </trkpt>
      <trkpt lat="46.75567" lon="5.86745">
        <ele>534.4</ele>
        <time>2022-05-24T11:59:25Z</time>
      </trkpt>
      <trkpt lat="46.75567" lon="5.86754">
        <ele>534</ele>
        <time>2022-05-24T11:59:26Z</time>
      </trkpt>
      <trkpt lat="46.75568" lon="5.86762">
        <ele>533.6</ele>
        <time>2022-05-24T11:59:27Z</time>
      </trkpt>
      <trkpt lat="46.75571" lon="5.86768">
        <ele>533</ele>
        <time>2022-05-24T11:59:28Z</time>
      </trkpt>
      <trkpt lat="46.75574" lon="5.86774">
        <ele>532.6</ele>
        <time>2022-05-24T11:59:29Z</time>
      </trkpt>
      <trkpt lat="46.75578" lon="5.86779">
        <ele>532.2</ele>
        <time>2022-05-24T11:59:30Z</time>
      </trkpt>
      <trkpt lat="46.75582" lon="5.86784">
        <ele>532.2</ele>
        <time>2022-05-24T11:59:31Z</time>
      </trkpt>
      <trkpt lat="46.75588" lon="5.86788">
        <ele>532</ele>
        <time>2022-05-24T11:59:32Z</time>
      </trkpt>
      <trkpt lat="46.75595" lon="5.86794">
        <ele>532</ele>
        <time>2022-05-24T11:59:33Z</time>
      </trkpt>
      <trkpt lat="46.756" lon="5.868">
        <ele>532</ele>
        <time>2022-05-24T11:59:34Z</time>
      </trkpt>
      <trkpt lat="46.75605" lon="5.86805">
        <ele>532</ele>
        <time>2022-05-24T11:59:35Z</time>
      </trkpt>
      <trkpt lat="46.75609" lon="5.86811">
        <ele>532</ele>
        <time>2022-05-24T11:59:36Z</time>
      </trkpt>
      <trkpt lat="46.75613" lon="5.86817">
        <ele>532.2</ele>
        <time>2022-05-24T11:59:37Z</time>
      </trkpt>
      <trkpt lat="46.75617" lon="5.86823">
        <ele>532.4</ele>
        <time>2022-05-24T11:59:38Z</time>
      </trkpt>
      <trkpt lat="46.75621" lon="5.86829">
        <ele>532.6</ele>
        <time>2022-05-24T11:59:39Z</time>
      </trkpt>
      <trkpt lat="46.75625" lon="5.86835">
        <ele>532.8</ele>
        <time>2022-05-24T11:59:40Z</time>
      </trkpt>
      <trkpt lat="46.7563" lon="5.8684">
        <ele>532.8</ele>
        <time>2022-05-24T11:59:41Z</time>
      </trkpt>
      <trkpt lat="46.75634" lon="5.86846">
        <ele>533.2</ele>
        <time>2022-05-24T11:59:42Z</time>
      </trkpt>
      <trkpt lat="46.75638" lon="5.86852">
        <ele>533.6</ele>
        <time>2022-05-24T11:59:43Z</time>
      </trkpt>
      <trkpt lat="46.75641" lon="5.86858">
        <ele>533.8</ele>
        <time>2022-05-24T11:59:44Z</time>
      </trkpt>
      <trkpt lat="46.75645" lon="5.86863">
        <ele>534.2</ele>
        <time>2022-05-24T11:59:45Z</time>
      </trkpt>
      <trkpt lat="46.75648" lon="5.86869">
        <ele>534.4</ele>
        <time>2022-05-24T11:59:46Z</time>
      </trkpt>
      <trkpt lat="46.75651" lon="5.86876">
        <ele>534.4</ele>
        <time>2022-05-24T11:59:47Z</time>
      </trkpt>
      <trkpt lat="46.75653" lon="5.86883">
        <ele>534.6</ele>
        <time>2022-05-24T11:59:48Z</time>
      </trkpt>
      <trkpt lat="46.75655" lon="5.86891">
        <ele>534.6</ele>
        <time>2022-05-24T11:59:49Z</time>
      </trkpt>
      <trkpt lat="46.75657" lon="5.86898">
        <ele>534.6</ele>
        <time>2022-05-24T11:59:50Z</time>
      </trkpt>
      <trkpt lat="46.75658" lon="5.86906">
        <ele>534.8</ele>
        <time>2022-05-24T11:59:51Z</time>
      </trkpt>
      <trkpt lat="46.7566" lon="5.86914">
        <ele>534.8</ele>
        <time>2022-05-24T11:59:52Z</time>
      </trkpt>
      <trkpt lat="46.75662" lon="5.86923">
        <ele>534.8</ele>
        <time>2022-05-24T11:59:53Z</time>
      </trkpt>
      <trkpt lat="46.75664" lon="5.86932">
        <ele>535</ele>
        <time>2022-05-24T11:59:54Z</time>
      </trkpt>
      <trkpt lat="46.75666" lon="5.8694">
        <ele>535</ele>
        <time>2022-05-24T11:59:55Z</time>
      </trkpt>
      <trkpt lat="46.75667" lon="5.86949">
        <ele>535</ele>
        <time>2022-05-24T11:59:56Z</time>
      </trkpt>
      <trkpt lat="46.75669" lon="5.86958">
        <ele>535</ele>
        <time>2022-05-24T11:59:57Z</time>
      </trkpt>
      <trkpt lat="46.75671" lon="5.86967">
        <ele>535</ele>
        <time>2022-05-24T11:59:58Z</time>
      </trkpt>
      <trkpt lat="46.75672" lon="5.86976">
        <ele>535.4</ele>
        <time>2022-05-24T11:59:59Z</time>
      </trkpt>
      <trkpt lat="46.75673" lon="5.86985">
        <ele>535.4</ele>
        <time>2022-05-24T12:00:00Z</time>
      </trkpt>
      <trkpt lat="46.75675" lon="5.86994">
        <ele>535.4</ele>
        <time>2022-05-24T12:00:01Z</time>
      </trkpt>
      <trkpt lat="46.75676" lon="5.87003">
        <ele>535.4</ele>
        <time>2022-05-24T12:00:02Z</time>
      </trkpt>
      <trkpt lat="46.75679" lon="5.87021">
        <ele>535.4</ele>
        <time>2022-05-24T12:00:03Z</time>
      </trkpt>
      <trkpt lat="46.75679" lon="5.87021">
        <ele>535.4</ele>
        <time>2022-05-24T12:00:04Z</time>
      </trkpt>
      <trkpt lat="46.7568" lon="5.8703">
        <ele>535.4</ele>
        <time>2022-05-24T12:00:05Z</time>
      </trkpt>
      <trkpt lat="46.75682" lon="5.8704">
        <ele>535.4</ele>
        <time>2022-05-24T12:00:06Z</time>
      </trkpt>
      <trkpt lat="46.75683" lon="5.87049">
        <ele>535.4</ele>
        <time>2022-05-24T12:00:07Z</time>
      </trkpt>
      <trkpt lat="46.75684" lon="5.87058">
        <ele>535.4</ele>
        <time>2022-05-24T12:00:08Z</time>
      </trkpt>
      <trkpt lat="46.75684" lon="5.87068">
        <ele>535.4</ele>
        <time>2022-05-24T12:00:09Z</time>
      </trkpt>
      <trkpt lat="46.75685" lon="5.87083">
        <ele>535</ele>
        <time>2022-05-24T12:00:10Z</time>
      </trkpt>
      <trkpt lat="46.75685" lon="5.87087">
        <ele>535</ele>
        <time>2022-05-24T12:00:11Z</time>
      </trkpt>
      <trkpt lat="46.75686" lon="5.87097">
        <ele>535</ele>
        <time>2022-05-24T12:00:12Z</time>
      </trkpt>
      <trkpt lat="46.75687" lon="5.87107">
        <ele>535</ele>
        <time>2022-05-24T12:00:13Z</time>
      </trkpt>
      <trkpt lat="46.75687" lon="5.87116">
        <ele>534.8</ele>
        <time>2022-05-24T12:00:14Z</time>
      </trkpt>
      <trkpt lat="46.75688" lon="5.87126">
        <ele>534.8</ele>
        <time>2022-05-24T12:00:15Z</time>
      </trkpt>
      <trkpt lat="46.75688" lon="5.87136">
        <ele>534.8</ele>
        <time>2022-05-24T12:00:16Z</time>
      </trkpt>
      <trkpt lat="46.75688" lon="5.87146">
        <ele>534.6</ele>
        <time>2022-05-24T12:00:17Z</time>
      </trkpt>
      <trkpt lat="46.75688" lon="5.87155">
        <ele>534.6</ele>
        <time>2022-05-24T12:00:18Z</time>
      </trkpt>
      <trkpt lat="46.75687" lon="5.87165">
        <ele>534.6</ele>
        <time>2022-05-24T12:00:19Z</time>
      </trkpt>
      <trkpt lat="46.75687" lon="5.87175">
        <ele>534.2</ele>
        <time>2022-05-24T12:00:20Z</time>
      </trkpt>
      <trkpt lat="46.75687" lon="5.87184">
        <ele>534.2</ele>
        <time>2022-05-24T12:00:21Z</time>
      </trkpt>
      <trkpt lat="46.75686" lon="5.87194">
        <ele>534</ele>
        <time>2022-05-24T12:00:22Z</time>
      </trkpt>
      <trkpt lat="46.75686" lon="5.87204">
        <ele>534</ele>
        <time>2022-05-24T12:00:23Z</time>
      </trkpt>
      <trkpt lat="46.75685" lon="5.87214">
        <ele>533.8</ele>
        <time>2022-05-24T12:00:24Z</time>
      </trkpt>
      <trkpt lat="46.75685" lon="5.87224">
        <ele>533.8</ele>
        <time>2022-05-24T12:00:25Z</time>
      </trkpt>
      <trkpt lat="46.75684" lon="5.87234">
        <ele>533.8</ele>
        <time>2022-05-24T12:00:26Z</time>
      </trkpt>
      <trkpt lat="46.75684" lon="5.87243">
        <ele>533.8</ele>
        <time>2022-05-24T12:00:27Z</time>
      </trkpt>
      <trkpt lat="46.75683" lon="5.87253">
        <ele>533.8</ele>
        <time>2022-05-24T12:00:28Z</time>
      </trkpt>
      <trkpt lat="46.75683" lon="5.87263">
        <ele>533.8</ele>
        <time>2022-05-24T12:00:29Z</time>
      </trkpt>
      <trkpt lat="46.75682" lon="5.87273">
        <ele>533.8</ele>
        <time>2022-05-24T12:00:30Z</time>
      </trkpt>
      <trkpt lat="46.75682" lon="5.87283">
        <ele>533.8</ele>
        <time>2022-05-24T12:00:31Z</time>
      </trkpt>
      <trkpt lat="46.75681" lon="5.87293">
        <ele>533.6</ele>
        <time>2022-05-24T12:00:32Z</time>
      </trkpt>
      <trkpt lat="46.7568" lon="5.87303">
        <ele>533.6</ele>
        <time>2022-05-24T12:00:33Z</time>
      </trkpt>
      <trkpt lat="46.7568" lon="5.87313">
        <ele>533.6</ele>
        <time>2022-05-24T12:00:34Z</time>
      </trkpt>
      <trkpt lat="46.75679" lon="5.87323">
        <ele>533.6</ele>
        <time>2022-05-24T12:00:35Z</time>
      </trkpt>
      <trkpt lat="46.75679" lon="5.87334">
        <ele>533.6</ele>
        <time>2022-05-24T12:00:36Z</time>
      </trkpt>
      <trkpt lat="46.75678" lon="5.87344">
        <ele>533.6</ele>
        <time>2022-05-24T12:00:37Z</time>
      </trkpt>
      <trkpt lat="46.75678" lon="5.87355">
        <ele>533.6</ele>
        <time>2022-05-24T12:00:38Z</time>
      </trkpt>
      <trkpt lat="46.75678" lon="5.87365">
        <ele>533.6</ele>
        <time>2022-05-24T12:00:39Z</time>
      </trkpt>
      <trkpt lat="46.75677" lon="5.87376">
        <ele>533.6</ele>
        <time>2022-05-24T12:00:40Z</time>
      </trkpt>
      <trkpt lat="46.75677" lon="5.87387">
        <ele>533.6</ele>
        <time>2022-05-24T12:00:41Z</time>
      </trkpt>
      <trkpt lat="46.75676" lon="5.87397">
        <ele>533.6</ele>
        <time>2022-05-24T12:00:42Z</time>
      </trkpt>
      <trkpt lat="46.75676" lon="5.87408">
        <ele>533.6</ele>
        <time>2022-05-24T12:00:43Z</time>
      </trkpt>
      <trkpt lat="46.75675" lon="5.87419">
        <ele>533.6</ele>
        <time>2022-05-24T12:00:44Z</time>
      </trkpt>
      <trkpt lat="46.75675" lon="5.87429">
        <ele>533.6</ele>
        <time>2022-05-24T12:00:45Z</time>
      </trkpt>
      <trkpt lat="46.75674" lon="5.8744">
        <ele>533.6</ele>
        <time>2022-05-24T12:00:46Z</time>
      </trkpt>
      <trkpt lat="46.75674" lon="5.87451">
        <ele>533.6</ele>
        <time>2022-05-24T12:00:47Z</time>
      </trkpt>
      <trkpt lat="46.75673" lon="5.87461">
        <ele>533.6</ele>
        <time>2022-05-24T12:00:48Z</time>
      </trkpt>
      <trkpt lat="46.75673" lon="5.87472">
        <ele>533.6</ele>
        <time>2022-05-24T12:00:49Z</time>
      </trkpt>
      <trkpt lat="46.75672" lon="5.87482">
        <ele>533.6</ele>
        <time>2022-05-24T12:00:50Z</time>
      </trkpt>
      <trkpt lat="46.75672" lon="5.87493">
        <ele>533.6</ele>
        <time>2022-05-24T12:00:51Z</time>
      </trkpt>
      <trkpt lat="46.75671" lon="5.87504">
        <ele>533.6</ele>
        <time>2022-05-24T12:00:52Z</time>
      </trkpt>
      <trkpt lat="46.75671" lon="5.87514">
        <ele>533.6</ele>
        <time>2022-05-24T12:00:53Z</time>
      </trkpt>
      <trkpt lat="46.75671" lon="5.87525">
        <ele>533.6</ele>
        <time>2022-05-24T12:00:54Z</time>
      </trkpt>
      <trkpt lat="46.7567" lon="5.87535">
        <ele>533.6</ele>
        <time>2022-05-24T12:00:55Z</time>
      </trkpt>
      <trkpt lat="46.7567" lon="5.87545">
        <ele>533.6</ele>
        <time>2022-05-24T12:00:56Z</time>
      </trkpt>
      <trkpt lat="46.75669" lon="5.87556">
        <ele>533.6</ele>
        <time>2022-05-24T12:00:57Z</time>
      </trkpt>
      <trkpt lat="46.75668" lon="5.87566">
        <ele>533.6</ele>
        <time>2022-05-24T12:00:58Z</time>
      </trkpt>
      <trkpt lat="46.75668" lon="5.87581">
        <ele>533.6</ele>
        <time>2022-05-24T12:00:59Z</time>
      </trkpt>
      <trkpt lat="46.75667" lon="5.87586">
        <ele>533.8</ele>
        <time>2022-05-24T12:01:00Z</time>
      </trkpt>
      <trkpt lat="46.75667" lon="5.87596">
        <ele>533.8</ele>
        <time>2022-05-24T12:01:01Z</time>
      </trkpt>
      <trkpt lat="46.75667" lon="5.87606">
        <ele>533.8</ele>
        <time>2022-05-24T12:01:02Z</time>
      </trkpt>
      <trkpt lat="46.75666" lon="5.87616">
        <ele>533.8</ele>
        <time>2022-05-24T12:01:03Z</time>
      </trkpt>
      <trkpt lat="46.75666" lon="5.87625">
        <ele>534</ele>
        <time>2022-05-24T12:01:04Z</time>
      </trkpt>
      <trkpt lat="46.75665" lon="5.87635">
        <ele>534</ele>
        <time>2022-05-24T12:01:05Z</time>
      </trkpt>
      <trkpt lat="46.75665" lon="5.87645">
        <ele>534</ele>
        <time>2022-05-24T12:01:06Z</time>
      </trkpt>
      <trkpt lat="46.75664" lon="5.87655">
        <ele>534</ele>
        <time>2022-05-24T12:01:07Z</time>
      </trkpt>
      <trkpt lat="46.75664" lon="5.87665">
        <ele>534.2</ele>
        <time>2022-05-24T12:01:08Z</time>
      </trkpt>
      <trkpt lat="46.75663" lon="5.87674">
        <ele>534.2</ele>
        <time>2022-05-24T12:01:09Z</time>
      </trkpt>
      <trkpt lat="46.75663" lon="5.87684">
        <ele>534.2</ele>
        <time>2022-05-24T12:01:10Z</time>
      </trkpt>
      <trkpt lat="46.75663" lon="5.87693">
        <ele>534.4</ele>
        <time>2022-05-24T12:01:11Z</time>
      </trkpt>
      <trkpt lat="46.75662" lon="5.87703">
        <ele>534.4</ele>
        <time>2022-05-24T12:01:12Z</time>
      </trkpt>
      <trkpt lat="46.75662" lon="5.87713">
        <ele>534.6</ele>
        <time>2022-05-24T12:01:13Z</time>
      </trkpt>
      <trkpt lat="46.75661" lon="5.87722">
        <ele>534.6</ele>
        <time>2022-05-24T12:01:14Z</time>
      </trkpt>
      <trkpt lat="46.75661" lon="5.87732">
        <ele>534.6</ele>
        <time>2022-05-24T12:01:15Z</time>
      </trkpt>
      <trkpt lat="46.75661" lon="5.87741">
        <ele>534.6</ele>
        <time>2022-05-24T12:01:16Z</time>
      </trkpt>
      <trkpt lat="46.7566" lon="5.8775">
        <ele>535</ele>
        <time>2022-05-24T12:01:17Z</time>
      </trkpt>
      <trkpt lat="46.7566" lon="5.8776">
        <ele>535</ele>
        <time>2022-05-24T12:01:18Z</time>
      </trkpt>
      <trkpt lat="46.7566" lon="5.87769">
        <ele>535.2</ele>
        <time>2022-05-24T12:01:19Z</time>
      </trkpt>
      <trkpt lat="46.7566" lon="5.87778">
        <ele>535.2</ele>
        <time>2022-05-24T12:01:20Z</time>
      </trkpt>
      <trkpt lat="46.75659" lon="5.87787">
        <ele>535.4</ele>
        <time>2022-05-24T12:01:21Z</time>
      </trkpt>
      <trkpt lat="46.75659" lon="5.87796">
        <ele>535.4</ele>
        <time>2022-05-24T12:01:22Z</time>
      </trkpt>
      <trkpt lat="46.75658" lon="5.87805">
        <ele>535.8</ele>
        <time>2022-05-24T12:01:23Z</time>
      </trkpt>
      <trkpt lat="46.75658" lon="5.87814">
        <ele>535.8</ele>
        <time>2022-05-24T12:01:24Z</time>
      </trkpt>
      <trkpt lat="46.75658" lon="5.87822">
        <ele>536</ele>
        <time>2022-05-24T12:01:25Z</time>
      </trkpt>
      <trkpt lat="46.75657" lon="5.87831">
        <ele>536</ele>
        <time>2022-05-24T12:01:26Z</time>
      </trkpt>
      <trkpt lat="46.75657" lon="5.8784">
        <ele>536.2</ele>
        <time>2022-05-24T12:01:27Z</time>
      </trkpt>
      <trkpt lat="46.75656" lon="5.87848">
        <ele>536.2</ele>
        <time>2022-05-24T12:01:28Z</time>
      </trkpt>
      <trkpt lat="46.75656" lon="5.87857">
        <ele>536.2</ele>
        <time>2022-05-24T12:01:29Z</time>
      </trkpt>
      <trkpt lat="46.75656" lon="5.87865">
        <ele>536.6</ele>
        <time>2022-05-24T12:01:30Z</time>
      </trkpt>
      <trkpt lat="46.75655" lon="5.87874">
        <ele>536.6</ele>
        <time>2022-05-24T12:01:31Z</time>
      </trkpt>
      <trkpt lat="46.75655" lon="5.87882">
        <ele>536.6</ele>
        <time>2022-05-24T12:01:32Z</time>
      </trkpt>
      <trkpt lat="46.75654" lon="5.8789">
        <ele>536.8</ele>
        <time>2022-05-24T12:01:33Z</time>
      </trkpt>
      <trkpt lat="46.75654" lon="5.87898">
        <ele>536.8</ele>
        <time>2022-05-24T12:01:34Z</time>
      </trkpt>
      <trkpt lat="46.75654" lon="5.87907">
        <ele>537</ele>
        <time>2022-05-24T12:01:35Z</time>
      </trkpt>
      <trkpt lat="46.75653" lon="5.87915">
        <ele>537</ele>
        <time>2022-05-24T12:01:36Z</time>
      </trkpt>
      <trkpt lat="46.75653" lon="5.87923">
        <ele>537</ele>
        <time>2022-05-24T12:01:37Z</time>
      </trkpt>
      <trkpt lat="46.75652" lon="5.87931">
        <ele>537.4</ele>
        <time>2022-05-24T12:01:38Z</time>
      </trkpt>
      <trkpt lat="46.75652" lon="5.87939">
        <ele>537.4</ele>
        <time>2022-05-24T12:01:39Z</time>
      </trkpt>
      <trkpt lat="46.75652" lon="5.8795">
        <ele>537.4</ele>
        <time>2022-05-24T12:01:40Z</time>
      </trkpt>
      <trkpt lat="46.75652" lon="5.87954">
        <ele>537.4</ele>
        <time>2022-05-24T12:01:41Z</time>
      </trkpt>
      <trkpt lat="46.75653" lon="5.87961">
        <ele>537.6</ele>
        <time>2022-05-24T12:01:42Z</time>
      </trkpt>
      <trkpt lat="46.75653" lon="5.87968">
        <ele>537.6</ele>
        <time>2022-05-24T12:01:43Z</time>
      </trkpt>
      <trkpt lat="46.75653" lon="5.87975">
        <ele>537.6</ele>
        <time>2022-05-24T12:01:44Z</time>
      </trkpt>
      <trkpt lat="46.75654" lon="5.87981">
        <ele>538</ele>
        <time>2022-05-24T12:01:45Z</time>
      </trkpt>
      <trkpt lat="46.75654" lon="5.87988">
        <ele>538</ele>
        <time>2022-05-24T12:01:46Z</time>
      </trkpt>
      <trkpt lat="46.75654" lon="5.87994">
        <ele>538</ele>
        <time>2022-05-24T12:01:47Z</time>
      </trkpt>
      <trkpt lat="46.75654" lon="5.88001">
        <ele>538.2</ele>
        <time>2022-05-24T12:01:48Z</time>
      </trkpt>
      <trkpt lat="46.75655" lon="5.88007">
        <ele>538.2</ele>
        <time>2022-05-24T12:01:49Z</time>
      </trkpt>
      <trkpt lat="46.75655" lon="5.88014">
        <ele>538.2</ele>
        <time>2022-05-24T12:01:50Z</time>
      </trkpt>
      <trkpt lat="46.75656" lon="5.8802">
        <ele>538.2</ele>
        <time>2022-05-24T12:01:51Z</time>
      </trkpt>
      <trkpt lat="46.75657" lon="5.88026">
        <ele>538.4</ele>
        <time>2022-05-24T12:01:52Z</time>
      </trkpt>
      <trkpt lat="46.75657" lon="5.88032">
        <ele>538.4</ele>
        <time>2022-05-24T12:01:53Z</time>
      </trkpt>
      <trkpt lat="46.75657" lon="5.88037">
        <ele>538.8</ele>
        <time>2022-05-24T12:01:54Z</time>
      </trkpt>
      <trkpt lat="46.75657" lon="5.88043">
        <ele>538.8</ele>
        <time>2022-05-24T12:01:55Z</time>
      </trkpt>
      <trkpt lat="46.75657" lon="5.88049">
        <ele>538.8</ele>
        <time>2022-05-24T12:01:56Z</time>
      </trkpt>
      <trkpt lat="46.75658" lon="5.88062">
        <ele>538.8</ele>
        <time>2022-05-24T12:01:57Z</time>
      </trkpt>
      <trkpt lat="46.75659" lon="5.88067">
        <ele>538.8</ele>
        <time>2022-05-24T12:01:58Z</time>
      </trkpt>
      <trkpt lat="46.7566" lon="5.88078">
        <ele>538.8</ele>
        <time>2022-05-24T12:01:59Z</time>
      </trkpt>
      <trkpt lat="46.7566" lon="5.88086">
        <ele>538.8</ele>
        <time>2022-05-24T12:02:00Z</time>
      </trkpt>
      <trkpt lat="46.75661" lon="5.88094">
        <ele>538.8</ele>
        <time>2022-05-24T12:02:01Z</time>
      </trkpt>
      <trkpt lat="46.75661" lon="5.88102">
        <ele>538.8</ele>
        <time>2022-05-24T12:02:02Z</time>
      </trkpt>
      <trkpt lat="46.75661" lon="5.88102">
        <ele>538.8</ele>
        <time>2022-05-24T12:02:03Z</time>
      </trkpt>
      <trkpt lat="46.75661" lon="5.8811">
        <ele>538.8</ele>
        <time>2022-05-24T12:02:04Z</time>
      </trkpt>
      <trkpt lat="46.75662" lon="5.88118">
        <ele>538.8</ele>
        <time>2022-05-24T12:02:05Z</time>
      </trkpt>
      <trkpt lat="46.75662" lon="5.88126">
        <ele>538.8</ele>
        <time>2022-05-24T12:02:06Z</time>
      </trkpt>
      <trkpt lat="46.75663" lon="5.88135">
        <ele>538.8</ele>
        <time>2022-05-24T12:02:07Z</time>
      </trkpt>
      <trkpt lat="46.75664" lon="5.88143">
        <ele>538.8</ele>
        <time>2022-05-24T12:02:08Z</time>
      </trkpt>
      <trkpt lat="46.75664" lon="5.88151">
        <ele>538.8</ele>
        <time>2022-05-24T12:02:09Z</time>
      </trkpt>
      <trkpt lat="46.75665" lon="5.8816">
        <ele>538.8</ele>
        <time>2022-05-24T12:02:10Z</time>
      </trkpt>
      <trkpt lat="46.75666" lon="5.88169">
        <ele>538.8</ele>
        <time>2022-05-24T12:02:11Z</time>
      </trkpt>
      <trkpt lat="46.75666" lon="5.88177">
        <ele>538.8</ele>
        <time>2022-05-24T12:02:12Z</time>
      </trkpt>
      <trkpt lat="46.75667" lon="5.88186">
        <ele>538.8</ele>
        <time>2022-05-24T12:02:13Z</time>
      </trkpt>
      <trkpt lat="46.75668" lon="5.88194">
        <ele>538.8</ele>
        <time>2022-05-24T12:02:14Z</time>
      </trkpt>
      <trkpt lat="46.75668" lon="5.88203">
        <ele>538.8</ele>
        <time>2022-05-24T12:02:15Z</time>
      </trkpt>
      <trkpt lat="46.75669" lon="5.88212">
        <ele>538.8</ele>
        <time>2022-05-24T12:02:16Z</time>
      </trkpt>
      <trkpt lat="46.7567" lon="5.88221">
        <ele>538.8</ele>
        <time>2022-05-24T12:02:17Z</time>
      </trkpt>
      <trkpt lat="46.75671" lon="5.8823">
        <ele>538.8</ele>
        <time>2022-05-24T12:02:18Z</time>
      </trkpt>
      <trkpt lat="46.75672" lon="5.88239">
        <ele>539</ele>
        <time>2022-05-24T12:02:19Z</time>
      </trkpt>
      <trkpt lat="46.75672" lon="5.88249">
        <ele>539</ele>
        <time>2022-05-24T12:02:20Z</time>
      </trkpt>
      <trkpt lat="46.75673" lon="5.88258">
        <ele>539</ele>
        <time>2022-05-24T12:02:21Z</time>
      </trkpt>
      <trkpt lat="46.75673" lon="5.88267">
        <ele>539</ele>
        <time>2022-05-24T12:02:22Z</time>
      </trkpt>
      <trkpt lat="46.75674" lon="5.88277">
        <ele>539</ele>
        <time>2022-05-24T12:02:23Z</time>
      </trkpt>
      <trkpt lat="46.75675" lon="5.88286">
        <ele>539</ele>
        <time>2022-05-24T12:02:24Z</time>
      </trkpt>
      <trkpt lat="46.75675" lon="5.88296">
        <ele>539</ele>
        <time>2022-05-24T12:02:25Z</time>
      </trkpt>
      <trkpt lat="46.75676" lon="5.88305">
        <ele>539</ele>
        <time>2022-05-24T12:02:26Z</time>
      </trkpt>
      <trkpt lat="46.75676" lon="5.88315">
        <ele>539</ele>
        <time>2022-05-24T12:02:27Z</time>
      </trkpt>
      <trkpt lat="46.75677" lon="5.88324">
        <ele>539</ele>
        <time>2022-05-24T12:02:28Z</time>
      </trkpt>
      <trkpt lat="46.75678" lon="5.88333">
        <ele>539</ele>
        <time>2022-05-24T12:02:29Z</time>
      </trkpt>
      <trkpt lat="46.75679" lon="5.88343">
        <ele>539</ele>
        <time>2022-05-24T12:02:30Z</time>
      </trkpt>
      <trkpt lat="46.75679" lon="5.88352">
        <ele>539</ele>
        <time>2022-05-24T12:02:31Z</time>
      </trkpt>
      <trkpt lat="46.7568" lon="5.88361">
        <ele>539</ele>
        <time>2022-05-24T12:02:32Z</time>
      </trkpt>
      <trkpt lat="46.75681" lon="5.88371">
        <ele>539</ele>
        <time>2022-05-24T12:02:33Z</time>
      </trkpt>
      <trkpt lat="46.75681" lon="5.8838">
        <ele>538.8</ele>
        <time>2022-05-24T12:02:34Z</time>
      </trkpt>
      <trkpt lat="46.75682" lon="5.88389">
        <ele>538.8</ele>
        <time>2022-05-24T12:02:35Z</time>
      </trkpt>
      <trkpt lat="46.75682" lon="5.88397">
        <ele>538.8</ele>
        <time>2022-05-24T12:02:36Z</time>
      </trkpt>
      <trkpt lat="46.75683" lon="5.88406">
        <ele>538.8</ele>
        <time>2022-05-24T12:02:37Z</time>
      </trkpt>
      <trkpt lat="46.75684" lon="5.88415">
        <ele>538.8</ele>
        <time>2022-05-24T12:02:38Z</time>
      </trkpt>
      <trkpt lat="46.75684" lon="5.88423">
        <ele>538.8</ele>
        <time>2022-05-24T12:02:39Z</time>
      </trkpt>
      <trkpt lat="46.75684" lon="5.88432">
        <ele>538.8</ele>
        <time>2022-05-24T12:02:40Z</time>
      </trkpt>
      <trkpt lat="46.75684" lon="5.8844">
        <ele>538.8</ele>
        <time>2022-05-24T12:02:41Z</time>
      </trkpt>
      <trkpt lat="46.75684" lon="5.88448">
        <ele>538.8</ele>
        <time>2022-05-24T12:02:42Z</time>
      </trkpt>
      <trkpt lat="46.75684" lon="5.88457">
        <ele>538.8</ele>
        <time>2022-05-24T12:02:43Z</time>
      </trkpt>
      <trkpt lat="46.75684" lon="5.88465">
        <ele>538.8</ele>
        <time>2022-05-24T12:02:44Z</time>
      </trkpt>
      <trkpt lat="46.75684" lon="5.88474">
        <ele>538.8</ele>
        <time>2022-05-24T12:02:45Z</time>
      </trkpt>
      <trkpt lat="46.75684" lon="5.88482">
        <ele>538.8</ele>
        <time>2022-05-24T12:02:46Z</time>
      </trkpt>
      <trkpt lat="46.75683" lon="5.88491">
        <ele>538.8</ele>
        <time>2022-05-24T12:02:47Z</time>
      </trkpt>
      <trkpt lat="46.75683" lon="5.885">
        <ele>538.8</ele>
        <time>2022-05-24T12:02:48Z</time>
      </trkpt>
      <trkpt lat="46.75683" lon="5.88508">
        <ele>538.8</ele>
        <time>2022-05-24T12:02:49Z</time>
      </trkpt>
      <trkpt lat="46.75682" lon="5.88517">
        <ele>538.8</ele>
        <time>2022-05-24T12:02:50Z</time>
      </trkpt>
      <trkpt lat="46.75681" lon="5.88526">
        <ele>538.8</ele>
        <time>2022-05-24T12:02:51Z</time>
      </trkpt>
      <trkpt lat="46.75681" lon="5.88534">
        <ele>538.8</ele>
        <time>2022-05-24T12:02:52Z</time>
      </trkpt>
      <trkpt lat="46.7568" lon="5.88543">
        <ele>538.8</ele>
        <time>2022-05-24T12:02:53Z</time>
      </trkpt>
      <trkpt lat="46.75679" lon="5.88552">
        <ele>538.8</ele>
        <time>2022-05-24T12:02:54Z</time>
      </trkpt>
      <trkpt lat="46.75678" lon="5.8856">
        <ele>538.8</ele>
        <time>2022-05-24T12:02:55Z</time>
      </trkpt>
      <trkpt lat="46.75677" lon="5.88569">
        <ele>538.8</ele>
        <time>2022-05-24T12:02:56Z</time>
      </trkpt>
      <trkpt lat="46.75676" lon="5.88577">
        <ele>538.8</ele>
        <time>2022-05-24T12:02:57Z</time>
      </trkpt>
      <trkpt lat="46.75675" lon="5.88584">
        <ele>538.8</ele>
        <time>2022-05-24T12:02:58Z</time>
      </trkpt>
      <trkpt lat="46.75674" lon="5.88591">
        <ele>538.8</ele>
        <time>2022-05-24T12:02:59Z</time>
      </trkpt>
      <trkpt lat="46.75674" lon="5.88596">
        <ele>538.8</ele>
        <time>2022-05-24T12:03:00Z</time>
      </trkpt>
      <trkpt lat="46.75673" lon="5.886">
        <ele>539.2</ele>
        <time>2022-05-24T12:03:01Z</time>
      </trkpt>
      <trkpt lat="46.75674" lon="5.88605">
        <ele>539.2</ele>
        <time>2022-05-24T12:03:02Z</time>
      </trkpt>
      <trkpt lat="46.75675" lon="5.8861">
        <ele>539.2</ele>
        <time>2022-05-24T12:03:03Z</time>
      </trkpt>
      <trkpt lat="46.75678" lon="5.88615">
        <ele>539.2</ele>
        <time>2022-05-24T12:03:04Z</time>
      </trkpt>
      <trkpt lat="46.7568" lon="5.8862">
        <ele>539.2</ele>
        <time>2022-05-24T12:03:05Z</time>
      </trkpt>
      <trkpt lat="46.75683" lon="5.88626">
        <ele>539.2</ele>
        <time>2022-05-24T12:03:06Z</time>
      </trkpt>
      <trkpt lat="46.75685" lon="5.88632">
        <ele>539</ele>
        <time>2022-05-24T12:03:07Z</time>
      </trkpt>
      <trkpt lat="46.75688" lon="5.88639">
        <ele>539</ele>
        <time>2022-05-24T12:03:08Z</time>
      </trkpt>
      <trkpt lat="46.75689" lon="5.88647">
        <ele>539</ele>
        <time>2022-05-24T12:03:09Z</time>
      </trkpt>
      <trkpt lat="46.7569" lon="5.88655">
        <ele>538.6</ele>
        <time>2022-05-24T12:03:10Z</time>
      </trkpt>
      <trkpt lat="46.75691" lon="5.88664">
        <ele>538.6</ele>
        <time>2022-05-24T12:03:11Z</time>
      </trkpt>
      <trkpt lat="46.75692" lon="5.88673">
        <ele>538.2</ele>
        <time>2022-05-24T12:03:12Z</time>
      </trkpt>
      <trkpt lat="46.75693" lon="5.88682">
        <ele>538.2</ele>
        <time>2022-05-24T12:03:13Z</time>
      </trkpt>
      <trkpt lat="46.75694" lon="5.88691">
        <ele>538.2</ele>
        <time>2022-05-24T12:03:14Z</time>
      </trkpt>
      <trkpt lat="46.75695" lon="5.88699">
        <ele>538.2</ele>
        <time>2022-05-24T12:03:15Z</time>
      </trkpt>
      <trkpt lat="46.75695" lon="5.88707">
        <ele>538</ele>
        <time>2022-05-24T12:03:16Z</time>
      </trkpt>
      <trkpt lat="46.75694" lon="5.88715">
        <ele>538</ele>
        <time>2022-05-24T12:03:17Z</time>
      </trkpt>
      <trkpt lat="46.75694" lon="5.88724">
        <ele>538</ele>
        <time>2022-05-24T12:03:18Z</time>
      </trkpt>
      <trkpt lat="46.75696" lon="5.88736">
        <ele>538</ele>
        <time>2022-05-24T12:03:19Z</time>
      </trkpt>
      <trkpt lat="46.75697" lon="5.8874">
        <ele>537.8</ele>
        <time>2022-05-24T12:03:20Z</time>
      </trkpt>
      <trkpt lat="46.757" lon="5.88749">
        <ele>537.6</ele>
        <time>2022-05-24T12:03:21Z</time>
      </trkpt>
      <trkpt lat="46.75702" lon="5.88757">
        <ele>537.4</ele>
        <time>2022-05-24T12:03:22Z</time>
      </trkpt>
      <trkpt lat="46.75704" lon="5.88764">
        <ele>537</ele>
        <time>2022-05-24T12:03:23Z</time>
      </trkpt>
      <trkpt lat="46.75704" lon="5.8877">
        <ele>536.6</ele>
        <time>2022-05-24T12:03:24Z</time>
      </trkpt>
      <trkpt lat="46.75702" lon="5.88775">
        <ele>536.2</ele>
        <time>2022-05-24T12:03:25Z</time>
      </trkpt>
      <trkpt lat="46.757" lon="5.8878">
        <ele>535.8</ele>
        <time>2022-05-24T12:03:26Z</time>
      </trkpt>
      <trkpt lat="46.75696" lon="5.88785">
        <ele>535.4</ele>
        <time>2022-05-24T12:03:27Z</time>
      </trkpt>
      <trkpt lat="46.75693" lon="5.88789">
        <ele>535.4</ele>
        <time>2022-05-24T12:03:28Z</time>
      </trkpt>
      <trkpt lat="46.75689" lon="5.88792">
        <ele>535.2</ele>
        <time>2022-05-24T12:03:29Z</time>
      </trkpt>
      <trkpt lat="46.75685" lon="5.88792">
        <ele>535.2</ele>
        <time>2022-05-24T12:03:30Z</time>
      </trkpt>
      <trkpt lat="46.75681" lon="5.88793">
        <ele>535.2</ele>
        <time>2022-05-24T12:03:31Z</time>
      </trkpt>
      <trkpt lat="46.75677" lon="5.88792">
        <ele>535.2</ele>
        <time>2022-05-24T12:03:32Z</time>
      </trkpt>
      <trkpt lat="46.75674" lon="5.8879">
        <ele>535.2</ele>
        <time>2022-05-24T12:03:33Z</time>
      </trkpt>
      <trkpt lat="46.7567" lon="5.88788">
        <ele>535.6</ele>
        <time>2022-05-24T12:03:34Z</time>
      </trkpt>
      <trkpt lat="46.75667" lon="5.88785">
        <ele>535.8</ele>
        <time>2022-05-24T12:03:35Z</time>
      </trkpt>
      <trkpt lat="46.75664" lon="5.88783">
        <ele>536.2</ele>
        <time>2022-05-24T12:03:36Z</time>
      </trkpt>
      <trkpt lat="46.75661" lon="5.88782">
        <ele>536.6</ele>
        <time>2022-05-24T12:03:37Z</time>
      </trkpt>
      <trkpt lat="46.75658" lon="5.8878">
        <ele>536.8</ele>
        <time>2022-05-24T12:03:38Z</time>
      </trkpt>
      <trkpt lat="46.75656" lon="5.88779">
        <ele>537.2</ele>
        <time>2022-05-24T12:03:39Z</time>
      </trkpt>
      <trkpt lat="46.75653" lon="5.88779">
        <ele>537.4</ele>
        <time>2022-05-24T12:03:40Z</time>
      </trkpt>
      <trkpt lat="46.75651" lon="5.8878">
        <ele>537.4</ele>
        <time>2022-05-24T12:03:41Z</time>
      </trkpt>
      <trkpt lat="46.7565" lon="5.88782">
        <ele>537.6</ele>
        <time>2022-05-24T12:03:42Z</time>
      </trkpt>
      <trkpt lat="46.75648" lon="5.88784">
        <ele>537.6</ele>
        <time>2022-05-24T12:03:43Z</time>
      </trkpt>
      <trkpt lat="46.75648" lon="5.88787">
        <ele>537.8</ele>
        <time>2022-05-24T12:03:44Z</time>
      </trkpt>
      <trkpt lat="46.75647" lon="5.88791">
        <ele>537.8</ele>
        <time>2022-05-24T12:03:45Z</time>
      </trkpt>
      <trkpt lat="46.75646" lon="5.88795">
        <ele>537.8</ele>
        <time>2022-05-24T12:03:46Z</time>
      </trkpt>
      <trkpt lat="46.75645" lon="5.888">
        <ele>537.8</ele>
        <time>2022-05-24T12:03:47Z</time>
      </trkpt>
      <trkpt lat="46.75644" lon="5.88806">
        <ele>537.8</ele>
        <time>2022-05-24T12:03:48Z</time>
      </trkpt>
      <trkpt lat="46.75643" lon="5.88811">
        <ele>538</ele>
        <time>2022-05-24T12:03:49Z</time>
      </trkpt>
      <trkpt lat="46.75642" lon="5.88817">
        <ele>538</ele>
        <time>2022-05-24T12:03:50Z</time>
      </trkpt>
      <trkpt lat="46.75641" lon="5.88823">
        <ele>538</ele>
        <time>2022-05-24T12:03:51Z</time>
      </trkpt>
      <trkpt lat="46.7564" lon="5.88829">
        <ele>538</ele>
        <time>2022-05-24T12:03:52Z</time>
      </trkpt>
      <trkpt lat="46.75639" lon="5.88835">
        <ele>538</ele>
        <time>2022-05-24T12:03:53Z</time>
      </trkpt>
      <trkpt lat="46.75637" lon="5.88841">
        <ele>538.2</ele>
        <time>2022-05-24T12:03:54Z</time>
      </trkpt>
      <trkpt lat="46.75636" lon="5.88848">
        <ele>538.2</ele>
        <time>2022-05-24T12:03:55Z</time>
      </trkpt>
      <trkpt lat="46.75635" lon="5.88855">
        <ele>538.2</ele>
        <time>2022-05-24T12:03:56Z</time>
      </trkpt>
      <trkpt lat="46.75634" lon="5.88862">
        <ele>538.2</ele>
        <time>2022-05-24T12:03:57Z</time>
      </trkpt>
      <trkpt lat="46.75633" lon="5.8887">
        <ele>538.2</ele>
        <time>2022-05-24T12:03:58Z</time>
      </trkpt>
      <trkpt lat="46.75632" lon="5.88878">
        <ele>538.2</ele>
        <time>2022-05-24T12:03:59Z</time>
      </trkpt>
      <trkpt lat="46.7563" lon="5.88886">
        <ele>538.2</ele>
        <time>2022-05-24T12:04:00Z</time>
      </trkpt>
      <trkpt lat="46.75629" lon="5.88894">
        <ele>538.6</ele>
        <time>2022-05-24T12:04:01Z</time>
      </trkpt>
      <trkpt lat="46.75628" lon="5.88902">
        <ele>538.6</ele>
        <time>2022-05-24T12:04:02Z</time>
      </trkpt>
      <trkpt lat="46.75626" lon="5.88909">
        <ele>538.6</ele>
        <time>2022-05-24T12:04:03Z</time>
      </trkpt>
      <trkpt lat="46.75625" lon="5.88917">
        <ele>538.6</ele>
        <time>2022-05-24T12:04:04Z</time>
      </trkpt>
      <trkpt lat="46.75624" lon="5.88925">
        <ele>538.6</ele>
        <time>2022-05-24T12:04:05Z</time>
      </trkpt>
      <trkpt lat="46.75623" lon="5.88933">
        <ele>538.6</ele>
        <time>2022-05-24T12:04:06Z</time>
      </trkpt>
      <trkpt lat="46.75621" lon="5.88941">
        <ele>538.6</ele>
        <time>2022-05-24T12:04:07Z</time>
      </trkpt>
      <trkpt lat="46.75619" lon="5.88948">
        <ele>538.6</ele>
        <time>2022-05-24T12:04:08Z</time>
      </trkpt>
      <trkpt lat="46.75618" lon="5.88956">
        <ele>538.6</ele>
        <time>2022-05-24T12:04:09Z</time>
      </trkpt>
      <trkpt lat="46.75617" lon="5.88964">
        <ele>538.8</ele>
        <time>2022-05-24T12:04:10Z</time>
      </trkpt>
      <trkpt lat="46.75616" lon="5.88972">
        <ele>538.8</ele>
        <time>2022-05-24T12:04:11Z</time>
      </trkpt>
      <trkpt lat="46.75615" lon="5.8898">
        <ele>538.8</ele>
        <time>2022-05-24T12:04:12Z</time>
      </trkpt>
      <trkpt lat="46.75614" lon="5.88988">
        <ele>538.8</ele>
        <time>2022-05-24T12:04:13Z</time>
      </trkpt>
      <trkpt lat="46.75613" lon="5.88996">
        <ele>538.8</ele>
        <time>2022-05-24T12:04:14Z</time>
      </trkpt>
      <trkpt lat="46.75611" lon="5.89004">
        <ele>538.8</ele>
        <time>2022-05-24T12:04:15Z</time>
      </trkpt>
      <trkpt lat="46.7561" lon="5.89011">
        <ele>538.8</ele>
        <time>2022-05-24T12:04:16Z</time>
      </trkpt>
      <trkpt lat="46.75608" lon="5.8902">
        <ele>538.8</ele>
        <time>2022-05-24T12:04:17Z</time>
      </trkpt>
      <trkpt lat="46.75606" lon="5.89028">
        <ele>538.8</ele>
        <time>2022-05-24T12:04:18Z</time>
      </trkpt>
      <trkpt lat="46.75605" lon="5.89036">
        <ele>538.8</ele>
        <time>2022-05-24T12:04:19Z</time>
      </trkpt>
      <trkpt lat="46.75603" lon="5.89044">
        <ele>538.8</ele>
        <time>2022-05-24T12:04:20Z</time>
      </trkpt>
      <trkpt lat="46.75602" lon="5.89053">
        <ele>539</ele>
        <time>2022-05-24T12:04:21Z</time>
      </trkpt>
      <trkpt lat="46.756" lon="5.89061">
        <ele>539</ele>
        <time>2022-05-24T12:04:22Z</time>
      </trkpt>
      <trkpt lat="46.75599" lon="5.89069">
        <ele>539</ele>
        <time>2022-05-24T12:04:23Z</time>
      </trkpt>
      <trkpt lat="46.75598" lon="5.89078">
        <ele>539</ele>
        <time>2022-05-24T12:04:24Z</time>
      </trkpt>
      <trkpt lat="46.75596" lon="5.89087">
        <ele>539.2</ele>
        <time>2022-05-24T12:04:25Z</time>
      </trkpt>
      <trkpt lat="46.75595" lon="5.89096">
        <ele>539.2</ele>
        <time>2022-05-24T12:04:26Z</time>
      </trkpt>
      <trkpt lat="46.75594" lon="5.89104">
        <ele>539.4</ele>
        <time>2022-05-24T12:04:27Z</time>
      </trkpt>
      <trkpt lat="46.75592" lon="5.89113">
        <ele>539.6</ele>
        <time>2022-05-24T12:04:28Z</time>
      </trkpt>
      <trkpt lat="46.75591" lon="5.89122">
        <ele>539.6</ele>
        <time>2022-05-24T12:04:29Z</time>
      </trkpt>
      <trkpt lat="46.75589" lon="5.89132">
        <ele>539.6</ele>
        <time>2022-05-24T12:04:30Z</time>
      </trkpt>
      <trkpt lat="46.75588" lon="5.89141">
        <ele>539.6</ele>
        <time>2022-05-24T12:04:31Z</time>
      </trkpt>
      <trkpt lat="46.75587" lon="5.8915">
        <ele>540</ele>
        <time>2022-05-24T12:04:32Z</time>
      </trkpt>
      <trkpt lat="46.75585" lon="5.89159">
        <ele>540</ele>
        <time>2022-05-24T12:04:33Z</time>
      </trkpt>
      <trkpt lat="46.75584" lon="5.89168">
        <ele>540</ele>
        <time>2022-05-24T12:04:34Z</time>
      </trkpt>
      <trkpt lat="46.75582" lon="5.89177">
        <ele>540</ele>
        <time>2022-05-24T12:04:35Z</time>
      </trkpt>
      <trkpt lat="46.75581" lon="5.89186">
        <ele>540</ele>
        <time>2022-05-24T12:04:36Z</time>
      </trkpt>
      <trkpt lat="46.75579" lon="5.89194">
        <ele>540</ele>
        <time>2022-05-24T12:04:37Z</time>
      </trkpt>
      <trkpt lat="46.75578" lon="5.89203">
        <ele>540</ele>
        <time>2022-05-24T12:04:38Z</time>
      </trkpt>
      <trkpt lat="46.75576" lon="5.89212">
        <ele>540</ele>
        <time>2022-05-24T12:04:39Z</time>
      </trkpt>
      <trkpt lat="46.75575" lon="5.89222">
        <ele>540</ele>
        <time>2022-05-24T12:04:40Z</time>
      </trkpt>
      <trkpt lat="46.75573" lon="5.89231">
        <ele>540</ele>
        <time>2022-05-24T12:04:41Z</time>
      </trkpt>
      <trkpt lat="46.75572" lon="5.8924">
        <ele>540</ele>
        <time>2022-05-24T12:04:42Z</time>
      </trkpt>
      <trkpt lat="46.75571" lon="5.89249">
        <ele>540</ele>
        <time>2022-05-24T12:04:43Z</time>
      </trkpt>
      <trkpt lat="46.75569" lon="5.89258">
        <ele>540</ele>
        <time>2022-05-24T12:04:44Z</time>
      </trkpt>
      <trkpt lat="46.75568" lon="5.89267">
        <ele>540</ele>
        <time>2022-05-24T12:04:45Z</time>
      </trkpt>
      <trkpt lat="46.75566" lon="5.89276">
        <ele>540</ele>
        <time>2022-05-24T12:04:46Z</time>
      </trkpt>
      <trkpt lat="46.75565" lon="5.89285">
        <ele>540</ele>
        <time>2022-05-24T12:04:47Z</time>
      </trkpt>
      <trkpt lat="46.75564" lon="5.89294">
        <ele>540</ele>
        <time>2022-05-24T12:04:48Z</time>
      </trkpt>
      <trkpt lat="46.75563" lon="5.89303">
        <ele>540</ele>
        <time>2022-05-24T12:04:49Z</time>
      </trkpt>
      <trkpt lat="46.75561" lon="5.89312">
        <ele>540</ele>
        <time>2022-05-24T12:04:50Z</time>
      </trkpt>
      <trkpt lat="46.7556" lon="5.89321">
        <ele>540</ele>
        <time>2022-05-24T12:04:51Z</time>
      </trkpt>
      <trkpt lat="46.75559" lon="5.8933">
        <ele>540</ele>
        <time>2022-05-24T12:04:52Z</time>
      </trkpt>
      <trkpt lat="46.75558" lon="5.89339">
        <ele>540</ele>
        <time>2022-05-24T12:04:53Z</time>
      </trkpt>
      <trkpt lat="46.75556" lon="5.89348">
        <ele>540</ele>
        <time>2022-05-24T12:04:54Z</time>
      </trkpt>
      <trkpt lat="46.75555" lon="5.89357">
        <ele>540</ele>
        <time>2022-05-24T12:04:55Z</time>
      </trkpt>
      <trkpt lat="46.75553" lon="5.89366">
        <ele>540</ele>
        <time>2022-05-24T12:04:56Z</time>
      </trkpt>
      <trkpt lat="46.75551" lon="5.89375">
        <ele>540</ele>
        <time>2022-05-24T12:04:57Z</time>
      </trkpt>
      <trkpt lat="46.7555" lon="5.89384">
        <ele>540.2</ele>
        <time>2022-05-24T12:04:58Z</time>
      </trkpt>
      <trkpt lat="46.75549" lon="5.89393">
        <ele>540.2</ele>
        <time>2022-05-24T12:04:59Z</time>
      </trkpt>
      <trkpt lat="46.75547" lon="5.89402">
        <ele>540.2</ele>
        <time>2022-05-24T12:05:00Z</time>
      </trkpt>
      <trkpt lat="46.75546" lon="5.89411">
        <ele>540.4</ele>
        <time>2022-05-24T12:05:01Z</time>
      </trkpt>
      <trkpt lat="46.75544" lon="5.8942">
        <ele>540.4</ele>
        <time>2022-05-24T12:05:02Z</time>
      </trkpt>
      <trkpt lat="46.75543" lon="5.89429">
        <ele>540.4</ele>
        <time>2022-05-24T12:05:03Z</time>
      </trkpt>
      <trkpt lat="46.75542" lon="5.89438">
        <ele>540.4</ele>
        <time>2022-05-24T12:05:04Z</time>
      </trkpt>
      <trkpt lat="46.75541" lon="5.89447">
        <ele>540.4</ele>
        <time>2022-05-24T12:05:05Z</time>
      </trkpt>
      <trkpt lat="46.75539" lon="5.89456">
        <ele>540.6</ele>
        <time>2022-05-24T12:05:06Z</time>
      </trkpt>
      <trkpt lat="46.75538" lon="5.89464">
        <ele>540.6</ele>
        <time>2022-05-24T12:05:07Z</time>
      </trkpt>
      <trkpt lat="46.75536" lon="5.89473">
        <ele>540.6</ele>
        <time>2022-05-24T12:05:08Z</time>
      </trkpt>
      <trkpt lat="46.75534" lon="5.89482">
        <ele>540.6</ele>
        <time>2022-05-24T12:05:09Z</time>
      </trkpt>
      <trkpt lat="46.75532" lon="5.8949">
        <ele>540.6</ele>
        <time>2022-05-24T12:05:10Z</time>
      </trkpt>
      <trkpt lat="46.7553" lon="5.89499">
        <ele>540.6</ele>
        <time>2022-05-24T12:05:11Z</time>
      </trkpt>
      <trkpt lat="46.75528" lon="5.89507">
        <ele>540.8</ele>
        <time>2022-05-24T12:05:12Z</time>
      </trkpt>
      <trkpt lat="46.75527" lon="5.89516">
        <ele>540.8</ele>
        <time>2022-05-24T12:05:13Z</time>
      </trkpt>
      <trkpt lat="46.75525" lon="5.89524">
        <ele>540.8</ele>
        <time>2022-05-24T12:05:14Z</time>
      </trkpt>
      <trkpt lat="46.75523" lon="5.89533">
        <ele>540.8</ele>
        <time>2022-05-24T12:05:15Z</time>
      </trkpt>
      <trkpt lat="46.75522" lon="5.89541">
        <ele>540.8</ele>
        <time>2022-05-24T12:05:16Z</time>
      </trkpt>
      <trkpt lat="46.75521" lon="5.8955">
        <ele>540.8</ele>
        <time>2022-05-24T12:05:17Z</time>
      </trkpt>
      <trkpt lat="46.7552" lon="5.89558">
        <ele>540.8</ele>
        <time>2022-05-24T12:05:18Z</time>
      </trkpt>
      <trkpt lat="46.75519" lon="5.89566">
        <ele>540.8</ele>
        <time>2022-05-24T12:05:19Z</time>
      </trkpt>
      <trkpt lat="46.75518" lon="5.89575">
        <ele>540.8</ele>
        <time>2022-05-24T12:05:20Z</time>
      </trkpt>
      <trkpt lat="46.75516" lon="5.89583">
        <ele>540.8</ele>
        <time>2022-05-24T12:05:21Z</time>
      </trkpt>
      <trkpt lat="46.75515" lon="5.89591">
        <ele>540.8</ele>
        <time>2022-05-24T12:05:22Z</time>
      </trkpt>
      <trkpt lat="46.75514" lon="5.89599">
        <ele>540.8</ele>
        <time>2022-05-24T12:05:23Z</time>
      </trkpt>
      <trkpt lat="46.75512" lon="5.89608">
        <ele>540.8</ele>
        <time>2022-05-24T12:05:24Z</time>
      </trkpt>
      <trkpt lat="46.75511" lon="5.89616">
        <ele>540.8</ele>
        <time>2022-05-24T12:05:25Z</time>
      </trkpt>
      <trkpt lat="46.75509" lon="5.89624">
        <ele>541</ele>
        <time>2022-05-24T12:05:26Z</time>
      </trkpt>
      <trkpt lat="46.75508" lon="5.89633">
        <ele>541</ele>
        <time>2022-05-24T12:05:27Z</time>
      </trkpt>
      <trkpt lat="46.75506" lon="5.89641">
        <ele>541</ele>
        <time>2022-05-24T12:05:28Z</time>
      </trkpt>
      <trkpt lat="46.75505" lon="5.8965">
        <ele>541.4</ele>
        <time>2022-05-24T12:05:29Z</time>
      </trkpt>
      <trkpt lat="46.75503" lon="5.89658">
        <ele>541.4</ele>
        <time>2022-05-24T12:05:30Z</time>
      </trkpt>
      <trkpt lat="46.75502" lon="5.89667">
        <ele>541.4</ele>
        <time>2022-05-24T12:05:31Z</time>
      </trkpt>
      <trkpt lat="46.755" lon="5.89676">
        <ele>541.4</ele>
        <time>2022-05-24T12:05:32Z</time>
      </trkpt>
      <trkpt lat="46.75499" lon="5.89684">
        <ele>541.4</ele>
        <time>2022-05-24T12:05:33Z</time>
      </trkpt>
      <trkpt lat="46.75498" lon="5.89693">
        <ele>541.4</ele>
        <time>2022-05-24T12:05:34Z</time>
      </trkpt>
      <trkpt lat="46.75497" lon="5.89701">
        <ele>541.6</ele>
        <time>2022-05-24T12:05:35Z</time>
      </trkpt>
      <trkpt lat="46.75495" lon="5.8971">
        <ele>541.6</ele>
        <time>2022-05-24T12:05:36Z</time>
      </trkpt>
      <trkpt lat="46.75494" lon="5.89718">
        <ele>542</ele>
        <time>2022-05-24T12:05:37Z</time>
      </trkpt>
      <trkpt lat="46.75493" lon="5.89726">
        <ele>542</ele>
        <time>2022-05-24T12:05:38Z</time>
      </trkpt>
      <trkpt lat="46.75492" lon="5.89734">
        <ele>542</ele>
        <time>2022-05-24T12:05:39Z</time>
      </trkpt>
      <trkpt lat="46.7549" lon="5.89742">
        <ele>542.2</ele>
        <time>2022-05-24T12:05:40Z</time>
      </trkpt>
      <trkpt lat="46.75489" lon="5.8975">
        <ele>542.2</ele>
        <time>2022-05-24T12:05:41Z</time>
      </trkpt>
      <trkpt lat="46.75488" lon="5.89758">
        <ele>542.2</ele>
        <time>2022-05-24T12:05:42Z</time>
      </trkpt>
      <trkpt lat="46.75486" lon="5.89766">
        <ele>542.2</ele>
        <time>2022-05-24T12:05:43Z</time>
      </trkpt>
      <trkpt lat="46.75485" lon="5.89774">
        <ele>542.2</ele>
        <time>2022-05-24T12:05:44Z</time>
      </trkpt>
      <trkpt lat="46.75484" lon="5.89781">
        <ele>542.2</ele>
        <time>2022-05-24T12:05:45Z</time>
      </trkpt>
      <trkpt lat="46.75483" lon="5.89789">
        <ele>542.2</ele>
        <time>2022-05-24T12:05:46Z</time>
      </trkpt>
      <trkpt lat="46.75482" lon="5.89797">
        <ele>542.2</ele>
        <time>2022-05-24T12:05:47Z</time>
      </trkpt>
      <trkpt lat="46.7548" lon="5.89804">
        <ele>542.2</ele>
        <time>2022-05-24T12:05:48Z</time>
      </trkpt>
      <trkpt lat="46.75479" lon="5.89812">
        <ele>542.2</ele>
        <time>2022-05-24T12:05:49Z</time>
      </trkpt>
      <trkpt lat="46.75478" lon="5.8982">
        <ele>542.2</ele>
        <time>2022-05-24T12:05:50Z</time>
      </trkpt>
      <trkpt lat="46.75477" lon="5.89828">
        <ele>542.4</ele>
        <time>2022-05-24T12:05:51Z</time>
      </trkpt>
      <trkpt lat="46.75475" lon="5.89836">
        <ele>542.4</ele>
        <time>2022-05-24T12:05:52Z</time>
      </trkpt>
      <trkpt lat="46.75474" lon="5.89844">
        <ele>542.4</ele>
        <time>2022-05-24T12:05:53Z</time>
      </trkpt>
      <trkpt lat="46.75473" lon="5.89852">
        <ele>542.4</ele>
        <time>2022-05-24T12:05:54Z</time>
      </trkpt>
      <trkpt lat="46.75472" lon="5.8986">
        <ele>542.6</ele>
        <time>2022-05-24T12:05:55Z</time>
      </trkpt>
      <trkpt lat="46.75471" lon="5.89868">
        <ele>542.6</ele>
        <time>2022-05-24T12:05:56Z</time>
      </trkpt>
      <trkpt lat="46.7547" lon="5.89876">
        <ele>542.6</ele>
        <time>2022-05-24T12:05:57Z</time>
      </trkpt>
      <trkpt lat="46.75468" lon="5.89883">
        <ele>542.6</ele>
        <time>2022-05-24T12:05:58Z</time>
      </trkpt>
      <trkpt lat="46.75467" lon="5.89891">
        <ele>542.6</ele>
        <time>2022-05-24T12:05:59Z</time>
      </trkpt>
      <trkpt lat="46.75466" lon="5.89899">
        <ele>542.6</ele>
        <time>2022-05-24T12:06:00Z</time>
      </trkpt>
      <trkpt lat="46.75465" lon="5.89906">
        <ele>542.6</ele>
        <time>2022-05-24T12:06:01Z</time>
      </trkpt>
      <trkpt lat="46.75464" lon="5.89914">
        <ele>542.6</ele>
        <time>2022-05-24T12:06:02Z</time>
      </trkpt>
      <trkpt lat="46.75463" lon="5.89921">
        <ele>542.6</ele>
        <time>2022-05-24T12:06:03Z</time>
      </trkpt>
      <trkpt lat="46.75462" lon="5.89929">
        <ele>542.6</ele>
        <time>2022-05-24T12:06:04Z</time>
      </trkpt>
      <trkpt lat="46.75461" lon="5.89936">
        <ele>542.6</ele>
        <time>2022-05-24T12:06:05Z</time>
      </trkpt>
      <trkpt lat="46.75459" lon="5.89944">
        <ele>542.6</ele>
        <time>2022-05-24T12:06:06Z</time>
      </trkpt>
      <trkpt lat="46.75458" lon="5.89952">
        <ele>542.6</ele>
        <time>2022-05-24T12:06:07Z</time>
      </trkpt>
      <trkpt lat="46.75458" lon="5.8996">
        <ele>542.6</ele>
        <time>2022-05-24T12:06:08Z</time>
      </trkpt>
      <trkpt lat="46.75457" lon="5.89967">
        <ele>542.6</ele>
        <time>2022-05-24T12:06:09Z</time>
      </trkpt>
      <trkpt lat="46.75456" lon="5.89975">
        <ele>542.8</ele>
        <time>2022-05-24T12:06:10Z</time>
      </trkpt>
      <trkpt lat="46.75455" lon="5.89982">
        <ele>542.8</ele>
        <time>2022-05-24T12:06:11Z</time>
      </trkpt>
      <trkpt lat="46.75454" lon="5.8999">
        <ele>543</ele>
        <time>2022-05-24T12:06:12Z</time>
      </trkpt>
      <trkpt lat="46.75452" lon="5.89997">
        <ele>543</ele>
        <time>2022-05-24T12:06:13Z</time>
      </trkpt>
      <trkpt lat="46.75451" lon="5.90005">
        <ele>543</ele>
        <time>2022-05-24T12:06:14Z</time>
      </trkpt>
      <trkpt lat="46.75449" lon="5.90013">
        <ele>543</ele>
        <time>2022-05-24T12:06:15Z</time>
      </trkpt>
      <trkpt lat="46.75448" lon="5.90021">
        <ele>543</ele>
        <time>2022-05-24T12:06:16Z</time>
      </trkpt>
      <trkpt lat="46.75447" lon="5.90029">
        <ele>543</ele>
        <time>2022-05-24T12:06:17Z</time>
      </trkpt>
      <trkpt lat="46.75446" lon="5.90037">
        <ele>543</ele>
        <time>2022-05-24T12:06:18Z</time>
      </trkpt>
      <trkpt lat="46.75445" lon="5.90045">
        <ele>543</ele>
        <time>2022-05-24T12:06:19Z</time>
      </trkpt>
      <trkpt lat="46.75443" lon="5.90053">
        <ele>543</ele>
        <time>2022-05-24T12:06:20Z</time>
      </trkpt>
      <trkpt lat="46.75442" lon="5.90061">
        <ele>543</ele>
        <time>2022-05-24T12:06:21Z</time>
      </trkpt>
      <trkpt lat="46.75441" lon="5.90069">
        <ele>543.4</ele>
        <time>2022-05-24T12:06:22Z</time>
      </trkpt>
      <trkpt lat="46.7544" lon="5.90077">
        <ele>543.4</ele>
        <time>2022-05-24T12:06:23Z</time>
      </trkpt>
      <trkpt lat="46.75439" lon="5.90085">
        <ele>543.4</ele>
        <time>2022-05-24T12:06:24Z</time>
      </trkpt>
      <trkpt lat="46.75438" lon="5.90093">
        <ele>543.4</ele>
        <time>2022-05-24T12:06:25Z</time>
      </trkpt>
      <trkpt lat="46.75436" lon="5.90101">
        <ele>543.4</ele>
        <time>2022-05-24T12:06:26Z</time>
      </trkpt>
      <trkpt lat="46.75435" lon="5.90109">
        <ele>543.4</ele>
        <time>2022-05-24T12:06:27Z</time>
      </trkpt>
      <trkpt lat="46.75434" lon="5.90117">
        <ele>543.4</ele>
        <time>2022-05-24T12:06:28Z</time>
      </trkpt>
      <trkpt lat="46.75433" lon="5.90125">
        <ele>543.4</ele>
        <time>2022-05-24T12:06:29Z</time>
      </trkpt>
      <trkpt lat="46.75432" lon="5.90133">
        <ele>543.4</ele>
        <time>2022-05-24T12:06:30Z</time>
      </trkpt>
      <trkpt lat="46.75431" lon="5.90141">
        <ele>543.6</ele>
        <time>2022-05-24T12:06:31Z</time>
      </trkpt>
      <trkpt lat="46.7543" lon="5.90148">
        <ele>543.6</ele>
        <time>2022-05-24T12:06:32Z</time>
      </trkpt>
      <trkpt lat="46.75429" lon="5.90155">
        <ele>543.6</ele>
        <time>2022-05-24T12:06:33Z</time>
      </trkpt>
      <trkpt lat="46.75427" lon="5.90163">
        <ele>543.6</ele>
        <time>2022-05-24T12:06:34Z</time>
      </trkpt>
      <trkpt lat="46.75426" lon="5.9017">
        <ele>543.8</ele>
        <time>2022-05-24T12:06:35Z</time>
      </trkpt>
      <trkpt lat="46.75425" lon="5.90177">
        <ele>543.8</ele>
        <time>2022-05-24T12:06:36Z</time>
      </trkpt>
      <trkpt lat="46.75424" lon="5.90184">
        <ele>543.8</ele>
        <time>2022-05-24T12:06:37Z</time>
      </trkpt>
      <trkpt lat="46.75422" lon="5.9019">
        <ele>543.8</ele>
        <time>2022-05-24T12:06:38Z</time>
      </trkpt>
      <trkpt lat="46.75421" lon="5.90197">
        <ele>543.8</ele>
        <time>2022-05-24T12:06:39Z</time>
      </trkpt>
      <trkpt lat="46.7542" lon="5.90203">
        <ele>543.8</ele>
        <time>2022-05-24T12:06:40Z</time>
      </trkpt>
      <trkpt lat="46.75419" lon="5.90209">
        <ele>543.8</ele>
        <time>2022-05-24T12:06:41Z</time>
      </trkpt>
      <trkpt lat="46.75418" lon="5.90215">
        <ele>543.8</ele>
        <time>2022-05-24T12:06:42Z</time>
      </trkpt>
      <trkpt lat="46.75417" lon="5.90221">
        <ele>544</ele>
        <time>2022-05-24T12:06:43Z</time>
      </trkpt>
      <trkpt lat="46.75415" lon="5.90227">
        <ele>544</ele>
        <time>2022-05-24T12:06:44Z</time>
      </trkpt>
      <trkpt lat="46.75413" lon="5.90232">
        <ele>544</ele>
        <time>2022-05-24T12:06:45Z</time>
      </trkpt>
      <trkpt lat="46.7541" lon="5.90236">
        <ele>544.4</ele>
        <time>2022-05-24T12:06:46Z</time>
      </trkpt>
      <trkpt lat="46.75406" lon="5.9024">
        <ele>544.4</ele>
        <time>2022-05-24T12:06:47Z</time>
      </trkpt>
      <trkpt lat="46.75402" lon="5.90242">
        <ele>544.4</ele>
        <time>2022-05-24T12:06:48Z</time>
      </trkpt>
      <trkpt lat="46.75397" lon="5.90245">
        <ele>544.4</ele>
        <time>2022-05-24T12:06:49Z</time>
      </trkpt>
      <trkpt lat="46.75393" lon="5.90248">
        <ele>544.4</ele>
        <time>2022-05-24T12:06:50Z</time>
      </trkpt>
      <trkpt lat="46.75384" lon="5.90254">
        <ele>544.6</ele>
        <time>2022-05-24T12:06:51Z</time>
      </trkpt>
      <trkpt lat="46.75379" lon="5.90257">
        <ele>544.6</ele>
        <time>2022-05-24T12:06:52Z</time>
      </trkpt>
      <trkpt lat="46.75374" lon="5.90259">
        <ele>544.6</ele>
        <time>2022-05-24T12:06:53Z</time>
      </trkpt>
      <trkpt lat="46.75369" lon="5.90261">
        <ele>544.8</ele>
        <time>2022-05-24T12:06:54Z</time>
      </trkpt>
      <trkpt lat="46.75364" lon="5.90262">
        <ele>544.8</ele>
        <time>2022-05-24T12:06:55Z</time>
      </trkpt>
      <trkpt lat="46.7536" lon="5.90262">
        <ele>544.8</ele>
        <time>2022-05-24T12:06:56Z</time>
      </trkpt>
      <trkpt lat="46.75355" lon="5.90262">
        <ele>544.8</ele>
        <time>2022-05-24T12:06:57Z</time>
      </trkpt>
      <trkpt lat="46.75355" lon="5.90262">
        <ele>545</ele>
        <time>2022-05-24T12:06:58Z</time>
      </trkpt>
      <trkpt lat="46.75351" lon="5.90259">
        <ele>545</ele>
        <time>2022-05-24T12:06:59Z</time>
      </trkpt>
      <trkpt lat="46.75347" lon="5.90255">
        <ele>545</ele>
        <time>2022-05-24T12:07:00Z</time>
      </trkpt>
      <trkpt lat="46.75343" lon="5.90251">
        <ele>545.4</ele>
        <time>2022-05-24T12:07:01Z</time>
      </trkpt>
      <trkpt lat="46.75339" lon="5.90246">
        <ele>545.4</ele>
        <time>2022-05-24T12:07:02Z</time>
      </trkpt>
      <trkpt lat="46.75336" lon="5.9024">
        <ele>545.8</ele>
        <time>2022-05-24T12:07:03Z</time>
      </trkpt>
      <trkpt lat="46.75333" lon="5.90235">
        <ele>546</ele>
        <time>2022-05-24T12:07:04Z</time>
      </trkpt>
      <trkpt lat="46.75331" lon="5.9023">
        <ele>546.2</ele>
        <time>2022-05-24T12:07:05Z</time>
      </trkpt>
      <trkpt lat="46.75328" lon="5.90225">
        <ele>546.4</ele>
        <time>2022-05-24T12:07:06Z</time>
      </trkpt>
      <trkpt lat="46.75324" lon="5.90221">
        <ele>546.4</ele>
        <time>2022-05-24T12:07:07Z</time>
      </trkpt>
      <trkpt lat="46.75321" lon="5.90216">
        <ele>546.8</ele>
        <time>2022-05-24T12:07:08Z</time>
      </trkpt>
      <trkpt lat="46.75318" lon="5.90212">
        <ele>546.8</ele>
        <time>2022-05-24T12:07:09Z</time>
      </trkpt>
      <trkpt lat="46.75315" lon="5.90208">
        <ele>547</ele>
        <time>2022-05-24T12:07:10Z</time>
      </trkpt>
      <trkpt lat="46.75312" lon="5.90205">
        <ele>547</ele>
        <time>2022-05-24T12:07:11Z</time>
      </trkpt>
      <trkpt lat="46.75308" lon="5.90201">
        <ele>547.4</ele>
        <time>2022-05-24T12:07:12Z</time>
      </trkpt>
      <trkpt lat="46.75305" lon="5.90198">
        <ele>547.4</ele>
        <time>2022-05-24T12:07:13Z</time>
      </trkpt>
      <trkpt lat="46.75301" lon="5.90195">
        <ele>547.6</ele>
        <time>2022-05-24T12:07:14Z</time>
      </trkpt>
      <trkpt lat="46.75298" lon="5.90191">
        <ele>547.6</ele>
        <time>2022-05-24T12:07:15Z</time>
      </trkpt>
      <trkpt lat="46.75294" lon="5.90188">
        <ele>548</ele>
        <time>2022-05-24T12:07:16Z</time>
      </trkpt>
      <trkpt lat="46.75291" lon="5.90185">
        <ele>548</ele>
        <time>2022-05-24T12:07:17Z</time>
      </trkpt>
      <trkpt lat="46.75287" lon="5.90182">
        <ele>548.2</ele>
        <time>2022-05-24T12:07:18Z</time>
      </trkpt>
      <trkpt lat="46.75283" lon="5.9018">
        <ele>548.2</ele>
        <time>2022-05-24T12:07:19Z</time>
      </trkpt>
      <trkpt lat="46.75279" lon="5.90177">
        <ele>548.4</ele>
        <time>2022-05-24T12:07:20Z</time>
      </trkpt>
      <trkpt lat="46.75275" lon="5.90172">
        <ele>548.4</ele>
        <time>2022-05-24T12:07:21Z</time>
      </trkpt>
      <trkpt lat="46.75273" lon="5.90167">
        <ele>548.4</ele>
        <time>2022-05-24T12:07:22Z</time>
      </trkpt>
      <trkpt lat="46.7527" lon="5.90161">
        <ele>548.4</ele>
        <time>2022-05-24T12:07:23Z</time>
      </trkpt>
      <trkpt lat="46.75268" lon="5.90156">
        <ele>548.4</ele>
        <time>2022-05-24T12:07:24Z</time>
      </trkpt>
      <trkpt lat="46.75265" lon="5.90152">
        <ele>548.4</ele>
        <time>2022-05-24T12:07:25Z</time>
      </trkpt>
      <trkpt lat="46.75261" lon="5.90152">
        <ele>548.4</ele>
        <time>2022-05-24T12:07:26Z</time>
      </trkpt>
      <trkpt lat="46.75258" lon="5.90156">
        <ele>548.2</ele>
        <time>2022-05-24T12:07:27Z</time>
      </trkpt>
      <trkpt lat="46.75256" lon="5.90161">
        <ele>548.2</ele>
        <time>2022-05-24T12:07:28Z</time>
      </trkpt>
      <trkpt lat="46.75255" lon="5.90167">
        <ele>548.2</ele>
        <time>2022-05-24T12:07:29Z</time>
      </trkpt>
      <trkpt lat="46.75254" lon="5.90173">
        <ele>548</ele>
        <time>2022-05-24T12:07:30Z</time>
      </trkpt>
      <trkpt lat="46.75252" lon="5.9018">
        <ele>548</ele>
        <time>2022-05-24T12:07:31Z</time>
      </trkpt>
      <trkpt lat="46.7525" lon="5.90186">
        <ele>548</ele>
        <time>2022-05-24T12:07:32Z</time>
      </trkpt>
      <trkpt lat="46.75247" lon="5.90194">
        <ele>547.8</ele>
        <time>2022-05-24T12:07:33Z</time>
      </trkpt>
      <trkpt lat="46.75245" lon="5.90201">
        <ele>547.8</ele>
        <time>2022-05-24T12:07:34Z</time>
      </trkpt>
      <trkpt lat="46.75243" lon="5.9021">
        <ele>547.8</ele>
        <time>2022-05-24T12:07:35Z</time>
      </trkpt>
      <trkpt lat="46.7524" lon="5.90218">
        <ele>547.8</ele>
        <time>2022-05-24T12:07:36Z</time>
      </trkpt>
      <trkpt lat="46.75238" lon="5.90227">
        <ele>547.8</ele>
        <time>2022-05-24T12:07:37Z</time>
      </trkpt>
      <trkpt lat="46.75236" lon="5.90236">
        <ele>547.8</ele>
        <time>2022-05-24T12:07:38Z</time>
      </trkpt>
      <trkpt lat="46.75234" lon="5.90244">
        <ele>547.8</ele>
        <time>2022-05-24T12:07:39Z</time>
      </trkpt>
      <trkpt lat="46.75232" lon="5.90253">
        <ele>547.6</ele>
        <time>2022-05-24T12:07:40Z</time>
      </trkpt>
      <trkpt lat="46.75229" lon="5.90262">
        <ele>547.6</ele>
        <time>2022-05-24T12:07:41Z</time>
      </trkpt>
      <trkpt lat="46.75227" lon="5.90271">
        <ele>547.6</ele>
        <time>2022-05-24T12:07:42Z</time>
      </trkpt>
      <trkpt lat="46.75225" lon="5.9028">
        <ele>547.6</ele>
        <time>2022-05-24T12:07:43Z</time>
      </trkpt>
      <trkpt lat="46.75223" lon="5.90289">
        <ele>547.6</ele>
        <time>2022-05-24T12:07:44Z</time>
      </trkpt>
      <trkpt lat="46.7522" lon="5.90298">
        <ele>547.2</ele>
        <time>2022-05-24T12:07:45Z</time>
      </trkpt>
      <trkpt lat="46.75218" lon="5.90306">
        <ele>547</ele>
        <time>2022-05-24T12:07:46Z</time>
      </trkpt>
      <trkpt lat="46.75215" lon="5.90315">
        <ele>546.8</ele>
        <time>2022-05-24T12:07:47Z</time>
      </trkpt>
      <trkpt lat="46.75212" lon="5.90324">
        <ele>546.8</ele>
        <time>2022-05-24T12:07:48Z</time>
      </trkpt>
      <trkpt lat="46.75209" lon="5.90333">
        <ele>546.4</ele>
        <time>2022-05-24T12:07:49Z</time>
      </trkpt>
      <trkpt lat="46.75207" lon="5.90342">
        <ele>546.4</ele>
        <time>2022-05-24T12:07:50Z</time>
      </trkpt>
      <trkpt lat="46.75204" lon="5.90351">
        <ele>546</ele>
        <time>2022-05-24T12:07:51Z</time>
      </trkpt>
      <trkpt lat="46.75202" lon="5.9036">
        <ele>545.6</ele>
        <time>2022-05-24T12:07:52Z</time>
      </trkpt>
      <trkpt lat="46.75199" lon="5.90369">
        <ele>545.6</ele>
        <time>2022-05-24T12:07:53Z</time>
      </trkpt>
      <trkpt lat="46.75196" lon="5.90379">
        <ele>545.2</ele>
        <time>2022-05-24T12:07:54Z</time>
      </trkpt>
      <trkpt lat="46.75193" lon="5.90388">
        <ele>544.8</ele>
        <time>2022-05-24T12:07:55Z</time>
      </trkpt>
      <trkpt lat="46.7519" lon="5.90398">
        <ele>544.6</ele>
        <time>2022-05-24T12:07:56Z</time>
      </trkpt>
      <trkpt lat="46.75186" lon="5.90407">
        <ele>544.2</ele>
        <time>2022-05-24T12:07:57Z</time>
      </trkpt>
      <trkpt lat="46.75181" lon="5.90416">
        <ele>544.2</ele>
        <time>2022-05-24T12:07:58Z</time>
      </trkpt>
      <trkpt lat="46.75176" lon="5.90425">
        <ele>544</ele>
        <time>2022-05-24T12:07:59Z</time>
      </trkpt>
      <trkpt lat="46.75172" lon="5.90434">
        <ele>543.8</ele>
        <time>2022-05-24T12:08:00Z</time>
      </trkpt>
      <trkpt lat="46.75167" lon="5.90442">
        <ele>543.8</ele>
        <time>2022-05-24T12:08:01Z</time>
      </trkpt>
      <trkpt lat="46.75162" lon="5.90451">
        <ele>543.8</ele>
        <time>2022-05-24T12:08:02Z</time>
      </trkpt>
      <trkpt lat="46.75157" lon="5.90459">
        <ele>543.6</ele>
        <time>2022-05-24T12:08:03Z</time>
      </trkpt>
      <trkpt lat="46.75153" lon="5.90467">
        <ele>543.6</ele>
        <time>2022-05-24T12:08:04Z</time>
      </trkpt>
      <trkpt lat="46.75149" lon="5.90475">
        <ele>543.2</ele>
        <time>2022-05-24T12:08:05Z</time>
      </trkpt>
      <trkpt lat="46.75144" lon="5.90482">
        <ele>543.2</ele>
        <time>2022-05-24T12:08:06Z</time>
      </trkpt>
      <trkpt lat="46.7514" lon="5.9049">
        <ele>543.2</ele>
        <time>2022-05-24T12:08:07Z</time>
      </trkpt>
      <trkpt lat="46.75136" lon="5.90496">
        <ele>543.2</ele>
        <time>2022-05-24T12:08:08Z</time>
      </trkpt>
      <trkpt lat="46.75133" lon="5.90503">
        <ele>543.6</ele>
        <time>2022-05-24T12:08:09Z</time>
      </trkpt>
      <trkpt lat="46.75129" lon="5.90509">
        <ele>543.6</ele>
        <time>2022-05-24T12:08:10Z</time>
      </trkpt>
      <trkpt lat="46.75125" lon="5.90515">
        <ele>543.8</ele>
        <time>2022-05-24T12:08:11Z</time>
      </trkpt>
      <trkpt lat="46.75121" lon="5.9052">
        <ele>543.8</ele>
        <time>2022-05-24T12:08:12Z</time>
      </trkpt>
      <trkpt lat="46.75117" lon="5.90526">
        <ele>543.8</ele>
        <time>2022-05-24T12:08:13Z</time>
      </trkpt>
      <trkpt lat="46.75113" lon="5.90531">
        <ele>543.8</ele>
        <time>2022-05-24T12:08:14Z</time>
      </trkpt>
      <trkpt lat="46.7511" lon="5.90536">
        <ele>543.8</ele>
        <time>2022-05-24T12:08:15Z</time>
      </trkpt>
      <trkpt lat="46.75106" lon="5.90541">
        <ele>543.8</ele>
        <time>2022-05-24T12:08:16Z</time>
      </trkpt>
      <trkpt lat="46.75102" lon="5.90547">
        <ele>543.8</ele>
        <time>2022-05-24T12:08:17Z</time>
      </trkpt>
      <trkpt lat="46.75098" lon="5.90552">
        <ele>544.2</ele>
        <time>2022-05-24T12:08:18Z</time>
      </trkpt>
      <trkpt lat="46.75094" lon="5.90557">
        <ele>544.4</ele>
        <time>2022-05-24T12:08:19Z</time>
      </trkpt>
      <trkpt lat="46.75089" lon="5.90561">
        <ele>544.4</ele>
        <time>2022-05-24T12:08:20Z</time>
      </trkpt>
      <trkpt lat="46.75085" lon="5.90565">
        <ele>544.4</ele>
        <time>2022-05-24T12:08:21Z</time>
      </trkpt>
      <trkpt lat="46.75081" lon="5.9057">
        <ele>544.4</ele>
        <time>2022-05-24T12:08:22Z</time>
      </trkpt>
      <trkpt lat="46.75077" lon="5.90575">
        <ele>544.6</ele>
        <time>2022-05-24T12:08:23Z</time>
      </trkpt>
      <trkpt lat="46.75074" lon="5.90581">
        <ele>544.6</ele>
        <time>2022-05-24T12:08:24Z</time>
      </trkpt>
      <trkpt lat="46.7507" lon="5.90587">
        <ele>544.6</ele>
        <time>2022-05-24T12:08:25Z</time>
      </trkpt>
      <trkpt lat="46.75067" lon="5.90593">
        <ele>544.6</ele>
        <time>2022-05-24T12:08:26Z</time>
      </trkpt>
      <trkpt lat="46.75062" lon="5.90599">
        <ele>544.4</ele>
        <time>2022-05-24T12:08:27Z</time>
      </trkpt>
      <trkpt lat="46.75058" lon="5.90604">
        <ele>544.4</ele>
        <time>2022-05-24T12:08:28Z</time>
      </trkpt>
      <trkpt lat="46.75053" lon="5.9061">
        <ele>544.4</ele>
        <time>2022-05-24T12:08:29Z</time>
      </trkpt>
      <trkpt lat="46.75048" lon="5.90615">
        <ele>544.4</ele>
        <time>2022-05-24T12:08:30Z</time>
      </trkpt>
      <trkpt lat="46.75044" lon="5.90621">
        <ele>544.4</ele>
        <time>2022-05-24T12:08:31Z</time>
      </trkpt>
      <trkpt lat="46.75039" lon="5.90626">
        <ele>544.4</ele>
        <time>2022-05-24T12:08:32Z</time>
      </trkpt>
      <trkpt lat="46.75033" lon="5.90631">
        <ele>544.4</ele>
        <time>2022-05-24T12:08:33Z</time>
      </trkpt>
      <trkpt lat="46.75028" lon="5.90635">
        <ele>544.4</ele>
        <time>2022-05-24T12:08:34Z</time>
      </trkpt>
      <trkpt lat="46.75023" lon="5.9064">
        <ele>544.4</ele>
        <time>2022-05-24T12:08:35Z</time>
      </trkpt>
      <trkpt lat="46.75017" lon="5.90644">
        <ele>544.4</ele>
        <time>2022-05-24T12:08:36Z</time>
      </trkpt>
      <trkpt lat="46.75012" lon="5.90648">
        <ele>544.4</ele>
        <time>2022-05-24T12:08:37Z</time>
      </trkpt>
      <trkpt lat="46.75007" lon="5.90652">
        <ele>544.4</ele>
        <time>2022-05-24T12:08:38Z</time>
      </trkpt>
      <trkpt lat="46.75001" lon="5.90657">
        <ele>544.4</ele>
        <time>2022-05-24T12:08:39Z</time>
      </trkpt>
      <trkpt lat="46.74996" lon="5.90661">
        <ele>544.6</ele>
        <time>2022-05-24T12:08:40Z</time>
      </trkpt>
      <trkpt lat="46.74991" lon="5.90665">
        <ele>544.6</ele>
        <time>2022-05-24T12:08:41Z</time>
      </trkpt>
      <trkpt lat="46.74985" lon="5.90668">
        <ele>544.6</ele>
        <time>2022-05-24T12:08:42Z</time>
      </trkpt>
      <trkpt lat="46.7498" lon="5.90672">
        <ele>544.6</ele>
        <time>2022-05-24T12:08:43Z</time>
      </trkpt>
      <trkpt lat="46.74975" lon="5.90676">
        <ele>544.4</ele>
        <time>2022-05-24T12:08:44Z</time>
      </trkpt>
      <trkpt lat="46.7497" lon="5.90679">
        <ele>544.4</ele>
        <time>2022-05-24T12:08:45Z</time>
      </trkpt>
      <trkpt lat="46.74966" lon="5.90683">
        <ele>544.4</ele>
        <time>2022-05-24T12:08:46Z</time>
      </trkpt>
      <trkpt lat="46.74961" lon="5.90687">
        <ele>544.4</ele>
        <time>2022-05-24T12:08:47Z</time>
      </trkpt>
      <trkpt lat="46.74957" lon="5.90691">
        <ele>544.4</ele>
        <time>2022-05-24T12:08:48Z</time>
      </trkpt>
      <trkpt lat="46.74953" lon="5.90695">
        <ele>544.2</ele>
        <time>2022-05-24T12:08:49Z</time>
      </trkpt>
      <trkpt lat="46.7495" lon="5.907">
        <ele>544.2</ele>
        <time>2022-05-24T12:08:50Z</time>
      </trkpt>
      <trkpt lat="46.74947" lon="5.90703">
        <ele>544.2</ele>
        <time>2022-05-24T12:08:51Z</time>
      </trkpt>
      <trkpt lat="46.74944" lon="5.90706">
        <ele>543.8</ele>
        <time>2022-05-24T12:08:52Z</time>
      </trkpt>
      <trkpt lat="46.74942" lon="5.90709">
        <ele>543.8</ele>
        <time>2022-05-24T12:08:53Z</time>
      </trkpt>
      <trkpt lat="46.7494" lon="5.9071">
        <ele>543.6</ele>
        <time>2022-05-24T12:08:54Z</time>
      </trkpt>
      <trkpt lat="46.74939" lon="5.90711">
        <ele>543.6</ele>
        <time>2022-05-24T12:08:55Z</time>
      </trkpt>
      <trkpt lat="46.74939" lon="5.90712">
        <ele>543.4</ele>
        <time>2022-05-24T12:08:56Z</time>
      </trkpt>
      <trkpt lat="46.74939" lon="5.90713">
        <ele>543.4</ele>
        <time>2022-05-24T12:08:57Z</time>
      </trkpt>
      <trkpt lat="46.74937" lon="5.90713">
        <ele>543.4</ele>
        <time>2022-05-24T12:08:58Z</time>
      </trkpt>
      <trkpt lat="46.74936" lon="5.90713">
        <ele>543.4</ele>
        <time>2022-05-24T12:08:59Z</time>
      </trkpt>
      <trkpt lat="46.74935" lon="5.90713">
        <ele>543.4</ele>
        <time>2022-05-24T12:09:00Z</time>
      </trkpt>
      <trkpt lat="46.74932" lon="5.90714">
        <ele>543.4</ele>
        <time>2022-05-24T12:09:01Z</time>
      </trkpt>
      <trkpt lat="46.74929" lon="5.90714">
        <ele>543.4</ele>
        <time>2022-05-24T12:09:02Z</time>
      </trkpt>
      <trkpt lat="46.74925" lon="5.90715">
        <ele>543.2</ele>
        <time>2022-05-24T12:09:03Z</time>
      </trkpt>
      <trkpt lat="46.74921" lon="5.90715">
        <ele>543.2</ele>
        <time>2022-05-24T12:09:04Z</time>
      </trkpt>
      <trkpt lat="46.74917" lon="5.90716">
        <ele>543.2</ele>
        <time>2022-05-24T12:09:05Z</time>
      </trkpt>
      <trkpt lat="46.74913" lon="5.90717">
        <ele>543.2</ele>
        <time>2022-05-24T12:09:06Z</time>
      </trkpt>
      <trkpt lat="46.74908" lon="5.90718">
        <ele>543</ele>
        <time>2022-05-24T12:09:07Z</time>
      </trkpt>
      <trkpt lat="46.74902" lon="5.90719">
        <ele>543</ele>
        <time>2022-05-24T12:09:08Z</time>
      </trkpt>
      <trkpt lat="46.74897" lon="5.9072">
        <ele>542.8</ele>
        <time>2022-05-24T12:09:09Z</time>
      </trkpt>
      <trkpt lat="46.74891" lon="5.90721">
        <ele>542.8</ele>
        <time>2022-05-24T12:09:10Z</time>
      </trkpt>
      <trkpt lat="46.74885" lon="5.90723">
        <ele>542.8</ele>
        <time>2022-05-24T12:09:11Z</time>
      </trkpt>
      <trkpt lat="46.74879" lon="5.90724">
        <ele>542.4</ele>
        <time>2022-05-24T12:09:12Z</time>
      </trkpt>
      <trkpt lat="46.74873" lon="5.90725">
        <ele>542</ele>
        <time>2022-05-24T12:09:13Z</time>
      </trkpt>
      <trkpt lat="46.74867" lon="5.90726">
        <ele>541.6</ele>
        <time>2022-05-24T12:09:14Z</time>
      </trkpt>
      <trkpt lat="46.74861" lon="5.90726">
        <ele>541.2</ele>
        <time>2022-05-24T12:09:15Z</time>
      </trkpt>
      <trkpt lat="46.74855" lon="5.90725">
        <ele>540.8</ele>
        <time>2022-05-24T12:09:16Z</time>
      </trkpt>
      <trkpt lat="46.74849" lon="5.90723">
        <ele>540.4</ele>
        <time>2022-05-24T12:09:17Z</time>
      </trkpt>
      <trkpt lat="46.74844" lon="5.90723">
        <ele>540.2</ele>
        <time>2022-05-24T12:09:18Z</time>
      </trkpt>
      <trkpt lat="46.74839" lon="5.90724">
        <ele>539.8</ele>
        <time>2022-05-24T12:09:19Z</time>
      </trkpt>
      <trkpt lat="46.74836" lon="5.9073">
        <ele>539.6</ele>
        <time>2022-05-24T12:09:20Z</time>
      </trkpt>
      <trkpt lat="46.74833" lon="5.90736">
        <ele>539.2</ele>
        <time>2022-05-24T12:09:21Z</time>
      </trkpt>
      <trkpt lat="46.74833" lon="5.90743">
        <ele>539</ele>
        <time>2022-05-24T12:09:22Z</time>
      </trkpt>
      <trkpt lat="46.74834" lon="5.9075">
        <ele>538.8</ele>
        <time>2022-05-24T12:09:23Z</time>
      </trkpt>
      <trkpt lat="46.74837" lon="5.90757">
        <ele>538.8</ele>
        <time>2022-05-24T12:09:24Z</time>
      </trkpt>
      <trkpt lat="46.74839" lon="5.90763">
        <ele>538.8</ele>
        <time>2022-05-24T12:09:25Z</time>
      </trkpt>
      <trkpt lat="46.7484" lon="5.90771">
        <ele>538.8</ele>
        <time>2022-05-24T12:09:26Z</time>
      </trkpt>
      <trkpt lat="46.7484" lon="5.90779">
        <ele>538.8</ele>
        <time>2022-05-24T12:09:27Z</time>
      </trkpt>
      <trkpt lat="46.7484" lon="5.90787">
        <ele>539</ele>
        <time>2022-05-24T12:09:28Z</time>
      </trkpt>
      <trkpt lat="46.74839" lon="5.90795">
        <ele>539</ele>
        <time>2022-05-24T12:09:29Z</time>
      </trkpt>
      <trkpt lat="46.74838" lon="5.90803">
        <ele>539</ele>
        <time>2022-05-24T12:09:30Z</time>
      </trkpt>
      <trkpt lat="46.74836" lon="5.90811">
        <ele>539</ele>
        <time>2022-05-24T12:09:31Z</time>
      </trkpt>
      <trkpt lat="46.74834" lon="5.90819">
        <ele>539</ele>
        <time>2022-05-24T12:09:32Z</time>
      </trkpt>
      <trkpt lat="46.7483" lon="5.90826">
        <ele>539.2</ele>
        <time>2022-05-24T12:09:33Z</time>
      </trkpt>
      <trkpt lat="46.74826" lon="5.90833">
        <ele>539.2</ele>
        <time>2022-05-24T12:09:34Z</time>
      </trkpt>
      <trkpt lat="46.74821" lon="5.90839">
        <ele>539.2</ele>
        <time>2022-05-24T12:09:35Z</time>
      </trkpt>
      <trkpt lat="46.74815" lon="5.90843">
        <ele>539.2</ele>
        <time>2022-05-24T12:09:36Z</time>
      </trkpt>
      <trkpt lat="46.74808" lon="5.90846">
        <ele>539</ele>
        <time>2022-05-24T12:09:37Z</time>
      </trkpt>
      <trkpt lat="46.74801" lon="5.90846">
        <ele>539</ele>
        <time>2022-05-24T12:09:38Z</time>
      </trkpt>
      <trkpt lat="46.74794" lon="5.90846">
        <ele>539</ele>
        <time>2022-05-24T12:09:39Z</time>
      </trkpt>
      <trkpt lat="46.74786" lon="5.90846">
        <ele>538.8</ele>
        <time>2022-05-24T12:09:40Z</time>
      </trkpt>
      <trkpt lat="46.74778" lon="5.90848">
        <ele>538.8</ele>
        <time>2022-05-24T12:09:41Z</time>
      </trkpt>
      <trkpt lat="46.7477" lon="5.9085">
        <ele>538.8</ele>
        <time>2022-05-24T12:09:42Z</time>
      </trkpt>
      <trkpt lat="46.74762" lon="5.90852">
        <ele>538.4</ele>
        <time>2022-05-24T12:09:43Z</time>
      </trkpt>
      <trkpt lat="46.74754" lon="5.90855">
        <ele>538.4</ele>
        <time>2022-05-24T12:09:44Z</time>
      </trkpt>
      <trkpt lat="46.74746" lon="5.90859">
        <ele>538</ele>
        <time>2022-05-24T12:09:45Z</time>
      </trkpt>
      <trkpt lat="46.74738" lon="5.90864">
        <ele>538</ele>
        <time>2022-05-24T12:09:46Z</time>
      </trkpt>
      <trkpt lat="46.74731" lon="5.9087">
        <ele>538</ele>
        <time>2022-05-24T12:09:47Z</time>
      </trkpt>
      <trkpt lat="46.74724" lon="5.90877">
        <ele>537.8</ele>
        <time>2022-05-24T12:09:48Z</time>
      </trkpt>
      <trkpt lat="46.74718" lon="5.90885">
        <ele>537.6</ele>
        <time>2022-05-24T12:09:49Z</time>
      </trkpt>
      <trkpt lat="46.74714" lon="5.90893">
        <ele>537.2</ele>
        <time>2022-05-24T12:09:50Z</time>
      </trkpt>
      <trkpt lat="46.74709" lon="5.90899">
        <ele>537.2</ele>
        <time>2022-05-24T12:09:51Z</time>
      </trkpt>
      <trkpt lat="46.74706" lon="5.90905">
        <ele>537.2</ele>
        <time>2022-05-24T12:09:52Z</time>
      </trkpt>
      <trkpt lat="46.74703" lon="5.90911">
        <ele>537</ele>
        <time>2022-05-24T12:09:53Z</time>
      </trkpt>
      <trkpt lat="46.747" lon="5.90917">
        <ele>537</ele>
        <time>2022-05-24T12:09:54Z</time>
      </trkpt>
      <trkpt lat="46.74697" lon="5.90923">
        <ele>537</ele>
        <time>2022-05-24T12:09:55Z</time>
      </trkpt>
      <trkpt lat="46.74694" lon="5.90928">
        <ele>537</ele>
        <time>2022-05-24T12:09:56Z</time>
      </trkpt>
      <trkpt lat="46.74692" lon="5.90933">
        <ele>537</ele>
        <time>2022-05-24T12:09:57Z</time>
      </trkpt>
      <trkpt lat="46.74689" lon="5.90938">
        <ele>537</ele>
        <time>2022-05-24T12:09:58Z</time>
      </trkpt>
      <trkpt lat="46.74686" lon="5.90943">
        <ele>537</ele>
        <time>2022-05-24T12:09:59Z</time>
      </trkpt>
      <trkpt lat="46.74683" lon="5.90948">
        <ele>537</ele>
        <time>2022-05-24T12:10:00Z</time>
      </trkpt>
      <trkpt lat="46.74682" lon="5.90954">
        <ele>537</ele>
        <time>2022-05-24T12:10:01Z</time>
      </trkpt>
      <trkpt lat="46.74681" lon="5.90961">
        <ele>537</ele>
        <time>2022-05-24T12:10:02Z</time>
      </trkpt>
      <trkpt lat="46.74682" lon="5.90967">
        <ele>537</ele>
        <time>2022-05-24T12:10:03Z</time>
      </trkpt>
      <trkpt lat="46.74686" lon="5.90971">
        <ele>537.2</ele>
        <time>2022-05-24T12:10:04Z</time>
      </trkpt>
      <trkpt lat="46.7469" lon="5.90975">
        <ele>537.2</ele>
        <time>2022-05-24T12:10:05Z</time>
      </trkpt>
      <trkpt lat="46.74695" lon="5.90978">
        <ele>537.2</ele>
        <time>2022-05-24T12:10:06Z</time>
      </trkpt>
      <trkpt lat="46.747" lon="5.90982">
        <ele>537.2</ele>
        <time>2022-05-24T12:10:07Z</time>
      </trkpt>
      <trkpt lat="46.74704" lon="5.90988">
        <ele>537.2</ele>
        <time>2022-05-24T12:10:08Z</time>
      </trkpt>
      <trkpt lat="46.74706" lon="5.90995">
        <ele>537</ele>
        <time>2022-05-24T12:10:09Z</time>
      </trkpt>
      <trkpt lat="46.74708" lon="5.91003">
        <ele>537</ele>
        <time>2022-05-24T12:10:10Z</time>
      </trkpt>
      <trkpt lat="46.74709" lon="5.91012">
        <ele>537</ele>
        <time>2022-05-24T12:10:11Z</time>
      </trkpt>
      <trkpt lat="46.74711" lon="5.9102">
        <ele>537</ele>
        <time>2022-05-24T12:10:12Z</time>
      </trkpt>
      <trkpt lat="46.74713" lon="5.91029">
        <ele>537</ele>
        <time>2022-05-24T12:10:13Z</time>
      </trkpt>
      <trkpt lat="46.74715" lon="5.91037">
        <ele>537</ele>
        <time>2022-05-24T12:10:14Z</time>
      </trkpt>
      <trkpt lat="46.74717" lon="5.91046">
        <ele>537</ele>
        <time>2022-05-24T12:10:15Z</time>
      </trkpt>
      <trkpt lat="46.74719" lon="5.91054">
        <ele>537</ele>
        <time>2022-05-24T12:10:16Z</time>
      </trkpt>
      <trkpt lat="46.74721" lon="5.91062">
        <ele>537.2</ele>
        <time>2022-05-24T12:10:17Z</time>
      </trkpt>
      <trkpt lat="46.74722" lon="5.91071">
        <ele>537.2</ele>
        <time>2022-05-24T12:10:18Z</time>
      </trkpt>
      <trkpt lat="46.74724" lon="5.91079">
        <ele>537.4</ele>
        <time>2022-05-24T12:10:19Z</time>
      </trkpt>
      <trkpt lat="46.74726" lon="5.91087">
        <ele>537.4</ele>
        <time>2022-05-24T12:10:20Z</time>
      </trkpt>
      <trkpt lat="46.74727" lon="5.91095">
        <ele>537.8</ele>
        <time>2022-05-24T12:10:21Z</time>
      </trkpt>
      <trkpt lat="46.74729" lon="5.91103">
        <ele>537.8</ele>
        <time>2022-05-24T12:10:22Z</time>
      </trkpt>
      <trkpt lat="46.74731" lon="5.91111">
        <ele>537.8</ele>
        <time>2022-05-24T12:10:23Z</time>
      </trkpt>
      <trkpt lat="46.74733" lon="5.91119">
        <ele>538</ele>
        <time>2022-05-24T12:10:24Z</time>
      </trkpt>
      <trkpt lat="46.74736" lon="5.91135">
        <ele>538</ele>
        <time>2022-05-24T12:10:25Z</time>
      </trkpt>
      <trkpt lat="46.74738" lon="5.91143">
        <ele>538.4</ele>
        <time>2022-05-24T12:10:26Z</time>
      </trkpt>
      <trkpt lat="46.7474" lon="5.9115">
        <ele>538.6</ele>
        <time>2022-05-24T12:10:27Z</time>
      </trkpt>
      <trkpt lat="46.74741" lon="5.91158">
        <ele>538.6</ele>
        <time>2022-05-24T12:10:28Z</time>
      </trkpt>
      <trkpt lat="46.74741" lon="5.91158">
        <ele>538.8</ele>
        <time>2022-05-24T12:10:29Z</time>
      </trkpt>
      <trkpt lat="46.74743" lon="5.91165">
        <ele>538.8</ele>
        <time>2022-05-24T12:10:30Z</time>
      </trkpt>
      <trkpt lat="46.74745" lon="5.91172">
        <ele>539.2</ele>
        <time>2022-05-24T12:10:31Z</time>
      </trkpt>
      <trkpt lat="46.74747" lon="5.91178">
        <ele>539.2</ele>
        <time>2022-05-24T12:10:32Z</time>
      </trkpt>
      <trkpt lat="46.74749" lon="5.91185">
        <ele>539.4</ele>
        <time>2022-05-24T12:10:33Z</time>
      </trkpt>
      <trkpt lat="46.7475" lon="5.91192">
        <ele>539.4</ele>
        <time>2022-05-24T12:10:34Z</time>
      </trkpt>
      <trkpt lat="46.74752" lon="5.91199">
        <ele>539.4</ele>
        <time>2022-05-24T12:10:35Z</time>
      </trkpt>
      <trkpt lat="46.74753" lon="5.91206">
        <ele>539.4</ele>
        <time>2022-05-24T12:10:36Z</time>
      </trkpt>
      <trkpt lat="46.74754" lon="5.91213">
        <ele>539.8</ele>
        <time>2022-05-24T12:10:37Z</time>
      </trkpt>
      <trkpt lat="46.74755" lon="5.9122">
        <ele>539.8</ele>
        <time>2022-05-24T12:10:38Z</time>
      </trkpt>
      <trkpt lat="46.74756" lon="5.91227">
        <ele>540</ele>
        <time>2022-05-24T12:10:39Z</time>
      </trkpt>
      <trkpt lat="46.74758" lon="5.91233">
        <ele>540.2</ele>
        <time>2022-05-24T12:10:40Z</time>
      </trkpt>
      <trkpt lat="46.74759" lon="5.91241">
        <ele>540.2</ele>
        <time>2022-05-24T12:10:41Z</time>
      </trkpt>
      <trkpt lat="46.7476" lon="5.91248">
        <ele>540.4</ele>
        <time>2022-05-24T12:10:42Z</time>
      </trkpt>
      <trkpt lat="46.74761" lon="5.91255">
        <ele>540.4</ele>
        <time>2022-05-24T12:10:43Z</time>
      </trkpt>
      <trkpt lat="46.74761" lon="5.91263">
        <ele>540.4</ele>
        <time>2022-05-24T12:10:44Z</time>
      </trkpt>
      <trkpt lat="46.74762" lon="5.9127">
        <ele>540.6</ele>
        <time>2022-05-24T12:10:45Z</time>
      </trkpt>
      <trkpt lat="46.74763" lon="5.91278">
        <ele>540.6</ele>
        <time>2022-05-24T12:10:46Z</time>
      </trkpt>
      <trkpt lat="46.74763" lon="5.91285">
        <ele>540.8</ele>
        <time>2022-05-24T12:10:47Z</time>
      </trkpt>
      <trkpt lat="46.74763" lon="5.91293">
        <ele>540.8</ele>
        <time>2022-05-24T12:10:48Z</time>
      </trkpt>
      <trkpt lat="46.74764" lon="5.913">
        <ele>540.8</ele>
        <time>2022-05-24T12:10:49Z</time>
      </trkpt>
      <trkpt lat="46.74764" lon="5.91308">
        <ele>541.2</ele>
        <time>2022-05-24T12:10:50Z</time>
      </trkpt>
      <trkpt lat="46.74764" lon="5.91315">
        <ele>541.2</ele>
        <time>2022-05-24T12:10:51Z</time>
      </trkpt>
      <trkpt lat="46.74764" lon="5.91322">
        <ele>541.2</ele>
        <time>2022-05-24T12:10:52Z</time>
      </trkpt>
      <trkpt lat="46.74763" lon="5.91329">
        <ele>541.4</ele>
        <time>2022-05-24T12:10:53Z</time>
      </trkpt>
      <trkpt lat="46.74762" lon="5.91336">
        <ele>541.4</ele>
        <time>2022-05-24T12:10:54Z</time>
      </trkpt>
      <trkpt lat="46.74761" lon="5.91343">
        <ele>541.4</ele>
        <time>2022-05-24T12:10:55Z</time>
      </trkpt>
      <trkpt lat="46.7476" lon="5.9135">
        <ele>541.4</ele>
        <time>2022-05-24T12:10:56Z</time>
      </trkpt>
      <trkpt lat="46.74758" lon="5.91358">
        <ele>541.4</ele>
        <time>2022-05-24T12:10:57Z</time>
      </trkpt>
      <trkpt lat="46.74757" lon="5.91365">
        <ele>541.6</ele>
        <time>2022-05-24T12:10:58Z</time>
      </trkpt>
      <trkpt lat="46.74756" lon="5.91373">
        <ele>541.6</ele>
        <time>2022-05-24T12:10:59Z</time>
      </trkpt>
      <trkpt lat="46.74754" lon="5.9138">
        <ele>541.6</ele>
        <time>2022-05-24T12:11:00Z</time>
      </trkpt>
      <trkpt lat="46.74752" lon="5.91388">
        <ele>541.6</ele>
        <time>2022-05-24T12:11:01Z</time>
      </trkpt>
      <trkpt lat="46.7475" lon="5.91396">
        <ele>541.6</ele>
        <time>2022-05-24T12:11:02Z</time>
      </trkpt>
      <trkpt lat="46.7475" lon="5.91404">
        <ele>541.6</ele>
        <time>2022-05-24T12:11:03Z</time>
      </trkpt>
      <trkpt lat="46.7475" lon="5.91412">
        <ele>541.4</ele>
        <time>2022-05-24T12:11:04Z</time>
      </trkpt>
      <trkpt lat="46.74752" lon="5.91419">
        <ele>541.4</ele>
        <time>2022-05-24T12:11:05Z</time>
      </trkpt>
      <trkpt lat="46.74754" lon="5.91426">
        <ele>541.4</ele>
        <time>2022-05-24T12:11:06Z</time>
      </trkpt>
      <trkpt lat="46.74757" lon="5.91432">
        <ele>541.4</ele>
        <time>2022-05-24T12:11:07Z</time>
      </trkpt>
      <trkpt lat="46.74761" lon="5.91438">
        <ele>541.4</ele>
        <time>2022-05-24T12:11:08Z</time>
      </trkpt>
      <trkpt lat="46.74765" lon="5.91443">
        <ele>541.4</ele>
        <time>2022-05-24T12:11:09Z</time>
      </trkpt>
      <trkpt lat="46.74769" lon="5.91447">
        <ele>541.4</ele>
        <time>2022-05-24T12:11:10Z</time>
      </trkpt>
      <trkpt lat="46.74774" lon="5.91451">
        <ele>541.4</ele>
        <time>2022-05-24T12:11:11Z</time>
      </trkpt>
      <trkpt lat="46.74778" lon="5.91456">
        <ele>541.4</ele>
        <time>2022-05-24T12:11:12Z</time>
      </trkpt>
      <trkpt lat="46.74782" lon="5.91461">
        <ele>541.6</ele>
        <time>2022-05-24T12:11:13Z</time>
      </trkpt>
      <trkpt lat="46.74785" lon="5.91468">
        <ele>541.6</ele>
        <time>2022-05-24T12:11:14Z</time>
      </trkpt>
      <trkpt lat="46.74788" lon="5.91475">
        <ele>542</ele>
        <time>2022-05-24T12:11:15Z</time>
      </trkpt>
      <trkpt lat="46.74789" lon="5.91483">
        <ele>542</ele>
        <time>2022-05-24T12:11:16Z</time>
      </trkpt>
      <trkpt lat="46.7479" lon="5.91491">
        <ele>542.2</ele>
        <time>2022-05-24T12:11:17Z</time>
      </trkpt>
      <trkpt lat="46.7479" lon="5.91499">
        <ele>542.2</ele>
        <time>2022-05-24T12:11:18Z</time>
      </trkpt>
      <trkpt lat="46.7479" lon="5.91508">
        <ele>542.2</ele>
        <time>2022-05-24T12:11:19Z</time>
      </trkpt>
      <trkpt lat="46.74789" lon="5.91517">
        <ele>542.6</ele>
        <time>2022-05-24T12:11:20Z</time>
      </trkpt>
      <trkpt lat="46.74789" lon="5.91526">
        <ele>542.6</ele>
        <time>2022-05-24T12:11:21Z</time>
      </trkpt>
      <trkpt lat="46.74789" lon="5.91534">
        <ele>542.6</ele>
        <time>2022-05-24T12:11:22Z</time>
      </trkpt>
      <trkpt lat="46.7479" lon="5.91543">
        <ele>542.6</ele>
        <time>2022-05-24T12:11:23Z</time>
      </trkpt>
      <trkpt lat="46.7479" lon="5.91552">
        <ele>542.8</ele>
        <time>2022-05-24T12:11:24Z</time>
      </trkpt>
      <trkpt lat="46.74791" lon="5.91561">
        <ele>542.8</ele>
        <time>2022-05-24T12:11:25Z</time>
      </trkpt>
      <trkpt lat="46.74792" lon="5.9157">
        <ele>542.8</ele>
        <time>2022-05-24T12:11:26Z</time>
      </trkpt>
      <trkpt lat="46.74794" lon="5.91579">
        <ele>542.8</ele>
        <time>2022-05-24T12:11:27Z</time>
      </trkpt>
      <trkpt lat="46.74796" lon="5.91588">
        <ele>542.8</ele>
        <time>2022-05-24T12:11:28Z</time>
      </trkpt>
      <trkpt lat="46.74798" lon="5.91597">
        <ele>542.8</ele>
        <time>2022-05-24T12:11:29Z</time>
      </trkpt>
      <trkpt lat="46.74801" lon="5.91606">
        <ele>542.8</ele>
        <time>2022-05-24T12:11:30Z</time>
      </trkpt>
      <trkpt lat="46.74803" lon="5.91615">
        <ele>542.8</ele>
        <time>2022-05-24T12:11:31Z</time>
      </trkpt>
      <trkpt lat="46.74806" lon="5.91624">
        <ele>542.8</ele>
        <time>2022-05-24T12:11:32Z</time>
      </trkpt>
      <trkpt lat="46.74808" lon="5.91632">
        <ele>542.8</ele>
        <time>2022-05-24T12:11:33Z</time>
      </trkpt>
      <trkpt lat="46.74811" lon="5.91641">
        <ele>543</ele>
        <time>2022-05-24T12:11:34Z</time>
      </trkpt>
      <trkpt lat="46.74813" lon="5.9165">
        <ele>543</ele>
        <time>2022-05-24T12:11:35Z</time>
      </trkpt>
      <trkpt lat="46.74814" lon="5.91659">
        <ele>543</ele>
        <time>2022-05-24T12:11:36Z</time>
      </trkpt>
      <trkpt lat="46.74815" lon="5.91668">
        <ele>543</ele>
        <time>2022-05-24T12:11:37Z</time>
      </trkpt>
      <trkpt lat="46.74816" lon="5.91677">
        <ele>543</ele>
        <time>2022-05-24T12:11:38Z</time>
      </trkpt>
      <trkpt lat="46.74816" lon="5.91687">
        <ele>543.4</ele>
        <time>2022-05-24T12:11:39Z</time>
      </trkpt>
      <trkpt lat="46.74816" lon="5.91696">
        <ele>543.4</ele>
        <time>2022-05-24T12:11:40Z</time>
      </trkpt>
      <trkpt lat="46.74815" lon="5.91705">
        <ele>543.4</ele>
        <time>2022-05-24T12:11:41Z</time>
      </trkpt>
      <trkpt lat="46.74814" lon="5.91714">
        <ele>543.6</ele>
        <time>2022-05-24T12:11:42Z</time>
      </trkpt>
      <trkpt lat="46.74813" lon="5.91723">
        <ele>543.6</ele>
        <time>2022-05-24T12:11:43Z</time>
      </trkpt>
      <trkpt lat="46.74812" lon="5.91732">
        <ele>543.6</ele>
        <time>2022-05-24T12:11:44Z</time>
      </trkpt>
      <trkpt lat="46.74811" lon="5.9174">
        <ele>543.6</ele>
        <time>2022-05-24T12:11:45Z</time>
      </trkpt>
      <trkpt lat="46.7481" lon="5.91749">
        <ele>543.6</ele>
        <time>2022-05-24T12:11:46Z</time>
      </trkpt>
      <trkpt lat="46.74809" lon="5.91757">
        <ele>543.8</ele>
        <time>2022-05-24T12:11:47Z</time>
      </trkpt>
      <trkpt lat="46.74808" lon="5.91766">
        <ele>543.8</ele>
        <time>2022-05-24T12:11:48Z</time>
      </trkpt>
      <trkpt lat="46.74807" lon="5.91774">
        <ele>544.2</ele>
        <time>2022-05-24T12:11:49Z</time>
      </trkpt>
      <trkpt lat="46.74806" lon="5.91783">
        <ele>544.2</ele>
        <time>2022-05-24T12:11:50Z</time>
      </trkpt>
      <trkpt lat="46.74805" lon="5.91792">
        <ele>544.4</ele>
        <time>2022-05-24T12:11:51Z</time>
      </trkpt>
      <trkpt lat="46.74804" lon="5.91801">
        <ele>544.4</ele>
        <time>2022-05-24T12:11:52Z</time>
      </trkpt>
      <trkpt lat="46.74804" lon="5.9181">
        <ele>544.4</ele>
        <time>2022-05-24T12:11:53Z</time>
      </trkpt>
      <trkpt lat="46.74803" lon="5.91819">
        <ele>544.4</ele>
        <time>2022-05-24T12:11:54Z</time>
      </trkpt>
      <trkpt lat="46.74802" lon="5.91827">
        <ele>544.4</ele>
        <time>2022-05-24T12:11:55Z</time>
      </trkpt>
      <trkpt lat="46.74801" lon="5.91836">
        <ele>544.4</ele>
        <time>2022-05-24T12:11:56Z</time>
      </trkpt>
      <trkpt lat="46.748" lon="5.91845">
        <ele>544.6</ele>
        <time>2022-05-24T12:11:57Z</time>
      </trkpt>
      <trkpt lat="46.74799" lon="5.91854">
        <ele>544.6</ele>
        <time>2022-05-24T12:11:58Z</time>
      </trkpt>
      <trkpt lat="46.74798" lon="5.91863">
        <ele>544.6</ele>
        <time>2022-05-24T12:11:59Z</time>
      </trkpt>
      <trkpt lat="46.74797" lon="5.91871">
        <ele>544.6</ele>
        <time>2022-05-24T12:12:00Z</time>
      </trkpt>
      <trkpt lat="46.74796" lon="5.9188">
        <ele>544.6</ele>
        <time>2022-05-24T12:12:01Z</time>
      </trkpt>
      <trkpt lat="46.74795" lon="5.91889">
        <ele>544.6</ele>
        <time>2022-05-24T12:12:02Z</time>
      </trkpt>
      <trkpt lat="46.74794" lon="5.91898">
        <ele>544.6</ele>
        <time>2022-05-24T12:12:03Z</time>
      </trkpt>
      <trkpt lat="46.74793" lon="5.91907">
        <ele>544.6</ele>
        <time>2022-05-24T12:12:04Z</time>
      </trkpt>
      <trkpt lat="46.74792" lon="5.91916">
        <ele>544.8</ele>
        <time>2022-05-24T12:12:05Z</time>
      </trkpt>
      <trkpt lat="46.74791" lon="5.91925">
        <ele>544.8</ele>
        <time>2022-05-24T12:12:06Z</time>
      </trkpt>
      <trkpt lat="46.7479" lon="5.91933">
        <ele>544.8</ele>
        <time>2022-05-24T12:12:07Z</time>
      </trkpt>
      <trkpt lat="46.74789" lon="5.91942">
        <ele>545</ele>
        <time>2022-05-24T12:12:08Z</time>
      </trkpt>
      <trkpt lat="46.74788" lon="5.91951">
        <ele>545</ele>
        <time>2022-05-24T12:12:09Z</time>
      </trkpt>
      <trkpt lat="46.74787" lon="5.91961">
        <ele>545.2</ele>
        <time>2022-05-24T12:12:10Z</time>
      </trkpt>
      <trkpt lat="46.74786" lon="5.9197">
        <ele>545.2</ele>
        <time>2022-05-24T12:12:11Z</time>
      </trkpt>
      <trkpt lat="46.74785" lon="5.9198">
        <ele>545.2</ele>
        <time>2022-05-24T12:12:12Z</time>
      </trkpt>
      <trkpt lat="46.74784" lon="5.91989">
        <ele>545.2</ele>
        <time>2022-05-24T12:12:13Z</time>
      </trkpt>
      <trkpt lat="46.74783" lon="5.91998">
        <ele>545.2</ele>
        <time>2022-05-24T12:12:14Z</time>
      </trkpt>
      <trkpt lat="46.74782" lon="5.92008">
        <ele>545.2</ele>
        <time>2022-05-24T12:12:15Z</time>
      </trkpt>
      <trkpt lat="46.74781" lon="5.92017">
        <ele>545.2</ele>
        <time>2022-05-24T12:12:16Z</time>
      </trkpt>
      <trkpt lat="46.7478" lon="5.92026">
        <ele>545.2</ele>
        <time>2022-05-24T12:12:17Z</time>
      </trkpt>
      <trkpt lat="46.74778" lon="5.92035">
        <ele>545.2</ele>
        <time>2022-05-24T12:12:18Z</time>
      </trkpt>
      <trkpt lat="46.74777" lon="5.92044">
        <ele>545.2</ele>
        <time>2022-05-24T12:12:19Z</time>
      </trkpt>
      <trkpt lat="46.74776" lon="5.92053">
        <ele>545.2</ele>
        <time>2022-05-24T12:12:20Z</time>
      </trkpt>
      <trkpt lat="46.74775" lon="5.92062">
        <ele>545.4</ele>
        <time>2022-05-24T12:12:21Z</time>
      </trkpt>
      <trkpt lat="46.74774" lon="5.92071">
        <ele>545.4</ele>
        <time>2022-05-24T12:12:22Z</time>
      </trkpt>
      <trkpt lat="46.74773" lon="5.92079">
        <ele>545.8</ele>
        <time>2022-05-24T12:12:23Z</time>
      </trkpt>
      <trkpt lat="46.74772" lon="5.92087">
        <ele>545.8</ele>
        <time>2022-05-24T12:12:24Z</time>
      </trkpt>
      <trkpt lat="46.74771" lon="5.92096">
        <ele>545.8</ele>
        <time>2022-05-24T12:12:25Z</time>
      </trkpt>
      <trkpt lat="46.7477" lon="5.92104">
        <ele>545.8</ele>
        <time>2022-05-24T12:12:26Z</time>
      </trkpt>
      <trkpt lat="46.74769" lon="5.92113">
        <ele>545.8</ele>
        <time>2022-05-24T12:12:27Z</time>
      </trkpt>
      <trkpt lat="46.74768" lon="5.92121">
        <ele>546</ele>
        <time>2022-05-24T12:12:28Z</time>
      </trkpt>
      <trkpt lat="46.74767" lon="5.9213">
        <ele>546</ele>
        <time>2022-05-24T12:12:29Z</time>
      </trkpt>
      <trkpt lat="46.74766" lon="5.92138">
        <ele>546</ele>
        <time>2022-05-24T12:12:30Z</time>
      </trkpt>
      <trkpt lat="46.74763" lon="5.92146">
        <ele>546</ele>
        <time>2022-05-24T12:12:31Z</time>
      </trkpt>
      <trkpt lat="46.7476" lon="5.92153">
        <ele>546</ele>
        <time>2022-05-24T12:12:32Z</time>
      </trkpt>
      <trkpt lat="46.74756" lon="5.92159">
        <ele>546</ele>
        <time>2022-05-24T12:12:33Z</time>
      </trkpt>
      <trkpt lat="46.74752" lon="5.92164">
        <ele>546</ele>
        <time>2022-05-24T12:12:34Z</time>
      </trkpt>
      <trkpt lat="46.74746" lon="5.92168">
        <ele>546</ele>
        <time>2022-05-24T12:12:35Z</time>
      </trkpt>
      <trkpt lat="46.74741" lon="5.92171">
        <ele>546</ele>
        <time>2022-05-24T12:12:36Z</time>
      </trkpt>
      <trkpt lat="46.74736" lon="5.92173">
        <ele>546.2</ele>
        <time>2022-05-24T12:12:37Z</time>
      </trkpt>
      <trkpt lat="46.7473" lon="5.92176">
        <ele>546.2</ele>
        <time>2022-05-24T12:12:38Z</time>
      </trkpt>
      <trkpt lat="46.74725" lon="5.92178">
        <ele>546.2</ele>
        <time>2022-05-24T12:12:39Z</time>
      </trkpt>
      <trkpt lat="46.74721" lon="5.92179">
        <ele>546.2</ele>
        <time>2022-05-24T12:12:40Z</time>
      </trkpt>
      <trkpt lat="46.74717" lon="5.92179">
        <ele>546.6</ele>
        <time>2022-05-24T12:12:41Z</time>
      </trkpt>
      <trkpt lat="46.74712" lon="5.92177">
        <ele>546.6</ele>
        <time>2022-05-24T12:12:42Z</time>
      </trkpt>
      <trkpt lat="46.74707" lon="5.92175">
        <ele>546.8</ele>
        <time>2022-05-24T12:12:43Z</time>
      </trkpt>
      <trkpt lat="46.74702" lon="5.92174">
        <ele>546.8</ele>
        <time>2022-05-24T12:12:44Z</time>
      </trkpt>
      <trkpt lat="46.74696" lon="5.92174">
        <ele>546.8</ele>
        <time>2022-05-24T12:12:45Z</time>
      </trkpt>
      <trkpt lat="46.74691" lon="5.92175">
        <ele>546.8</ele>
        <time>2022-05-24T12:12:46Z</time>
      </trkpt>
      <trkpt lat="46.74687" lon="5.92179">
        <ele>546.8</ele>
        <time>2022-05-24T12:12:47Z</time>
      </trkpt>
      <trkpt lat="46.74683" lon="5.92184">
        <ele>546.8</ele>
        <time>2022-05-24T12:12:48Z</time>
      </trkpt>
      <trkpt lat="46.7468" lon="5.9219">
        <ele>546.8</ele>
        <time>2022-05-24T12:12:49Z</time>
      </trkpt>
      <trkpt lat="46.74678" lon="5.92197">
        <ele>547</ele>
        <time>2022-05-24T12:12:50Z</time>
      </trkpt>
      <trkpt lat="46.74677" lon="5.92204">
        <ele>547</ele>
        <time>2022-05-24T12:12:51Z</time>
      </trkpt>
      <trkpt lat="46.74677" lon="5.92211">
        <ele>547</ele>
        <time>2022-05-24T12:12:52Z</time>
      </trkpt>
      <trkpt lat="46.74678" lon="5.92218">
        <ele>547</ele>
        <time>2022-05-24T12:12:53Z</time>
      </trkpt>
      <trkpt lat="46.74681" lon="5.92224">
        <ele>547</ele>
        <time>2022-05-24T12:12:54Z</time>
      </trkpt>
      <trkpt lat="46.74684" lon="5.9223">
        <ele>547</ele>
        <time>2022-05-24T12:12:55Z</time>
      </trkpt>
      <trkpt lat="46.74689" lon="5.92234">
        <ele>547</ele>
        <time>2022-05-24T12:12:56Z</time>
      </trkpt>
      <trkpt lat="46.74694" lon="5.92237">
        <ele>547</ele>
        <time>2022-05-24T12:12:57Z</time>
      </trkpt>
      <trkpt lat="46.74699" lon="5.9224">
        <ele>547</ele>
        <time>2022-05-24T12:12:58Z</time>
      </trkpt>
      <trkpt lat="46.74705" lon="5.92242">
        <ele>547</ele>
        <time>2022-05-24T12:12:59Z</time>
      </trkpt>
      <trkpt lat="46.7471" lon="5.92245">
        <ele>547.4</ele>
        <time>2022-05-24T12:13:00Z</time>
      </trkpt>
      <trkpt lat="46.74715" lon="5.9225">
        <ele>547.4</ele>
        <time>2022-05-24T12:13:01Z</time>
      </trkpt>
      <trkpt lat="46.74719" lon="5.92255">
        <ele>547.4</ele>
        <time>2022-05-24T12:13:02Z</time>
      </trkpt>
      <trkpt lat="46.74722" lon="5.92261">
        <ele>547.4</ele>
        <time>2022-05-24T12:13:03Z</time>
      </trkpt>
      <trkpt lat="46.74725" lon="5.92267">
        <ele>547.4</ele>
        <time>2022-05-24T12:13:04Z</time>
      </trkpt>
      <trkpt lat="46.74729" lon="5.92273">
        <ele>547.6</ele>
        <time>2022-05-24T12:13:05Z</time>
      </trkpt>
      <trkpt lat="46.74733" lon="5.92278">
        <ele>547.6</ele>
        <time>2022-05-24T12:13:06Z</time>
      </trkpt>
      <trkpt lat="46.74737" lon="5.92284">
        <ele>547.6</ele>
        <time>2022-05-24T12:13:07Z</time>
      </trkpt>
      <trkpt lat="46.7474" lon="5.92289">
        <ele>547.6</ele>
        <time>2022-05-24T12:13:08Z</time>
      </trkpt>
      <trkpt lat="46.74744" lon="5.92295">
        <ele>547.6</ele>
        <time>2022-05-24T12:13:09Z</time>
      </trkpt>
      <trkpt lat="46.74747" lon="5.92301">
        <ele>547.8</ele>
        <time>2022-05-24T12:13:10Z</time>
      </trkpt>
      <trkpt lat="46.7475" lon="5.92307">
        <ele>547.8</ele>
        <time>2022-05-24T12:13:11Z</time>
      </trkpt>
      <trkpt lat="46.74754" lon="5.92313">
        <ele>547.8</ele>
        <time>2022-05-24T12:13:12Z</time>
      </trkpt>
      <trkpt lat="46.74756" lon="5.92319">
        <ele>548.2</ele>
        <time>2022-05-24T12:13:13Z</time>
      </trkpt>
      <trkpt lat="46.74759" lon="5.92326">
        <ele>548.2</ele>
        <time>2022-05-24T12:13:14Z</time>
      </trkpt>
      <trkpt lat="46.74763" lon="5.92332">
        <ele>548.2</ele>
        <time>2022-05-24T12:13:15Z</time>
      </trkpt>
      <trkpt lat="46.74766" lon="5.92339">
        <ele>548.4</ele>
        <time>2022-05-24T12:13:16Z</time>
      </trkpt>
      <trkpt lat="46.74769" lon="5.92345">
        <ele>548.4</ele>
        <time>2022-05-24T12:13:17Z</time>
      </trkpt>
      <trkpt lat="46.74773" lon="5.92351">
        <ele>548.6</ele>
        <time>2022-05-24T12:13:18Z</time>
      </trkpt>
      <trkpt lat="46.74776" lon="5.92357">
        <ele>548.6</ele>
        <time>2022-05-24T12:13:19Z</time>
      </trkpt>
      <trkpt lat="46.74779" lon="5.92363">
        <ele>548.6</ele>
        <time>2022-05-24T12:13:20Z</time>
      </trkpt>
      <trkpt lat="46.74782" lon="5.92369">
        <ele>549</ele>
        <time>2022-05-24T12:13:21Z</time>
      </trkpt>
      <trkpt lat="46.74784" lon="5.92374">
        <ele>549</ele>
        <time>2022-05-24T12:13:22Z</time>
      </trkpt>
      <trkpt lat="46.74787" lon="5.9238">
        <ele>549.2</ele>
        <time>2022-05-24T12:13:23Z</time>
      </trkpt>
      <trkpt lat="46.7479" lon="5.92386">
        <ele>549.2</ele>
        <time>2022-05-24T12:13:24Z</time>
      </trkpt>
      <trkpt lat="46.74793" lon="5.92391">
        <ele>549.6</ele>
        <time>2022-05-24T12:13:25Z</time>
      </trkpt>
      <trkpt lat="46.74796" lon="5.92397">
        <ele>549.6</ele>
        <time>2022-05-24T12:13:26Z</time>
      </trkpt>
      <trkpt lat="46.74801" lon="5.92408">
        <ele>549.8</ele>
        <time>2022-05-24T12:13:28Z</time>
      </trkpt>
      <trkpt lat="46.74804" lon="5.92413">
        <ele>549.8</ele>
        <time>2022-05-24T12:13:29Z</time>
      </trkpt>
      <trkpt lat="46.74807" lon="5.92419">
        <ele>550.2</ele>
        <time>2022-05-24T12:13:30Z</time>
      </trkpt>
      <trkpt lat="46.74809" lon="5.92424">
        <ele>550.2</ele>
        <time>2022-05-24T12:13:31Z</time>
      </trkpt>
      <trkpt lat="46.74812" lon="5.92429">
        <ele>550.4</ele>
        <time>2022-05-24T12:13:32Z</time>
      </trkpt>
      <trkpt lat="46.74815" lon="5.92435">
        <ele>550.4</ele>
        <time>2022-05-24T12:13:33Z</time>
      </trkpt>
      <trkpt lat="46.74818" lon="5.9244">
        <ele>550.6</ele>
        <time>2022-05-24T12:13:34Z</time>
      </trkpt>
      <trkpt lat="46.7482" lon="5.92446">
        <ele>550.6</ele>
        <time>2022-05-24T12:13:35Z</time>
      </trkpt>
      <trkpt lat="46.74823" lon="5.92451">
        <ele>550.8</ele>
        <time>2022-05-24T12:13:36Z</time>
      </trkpt>
      <trkpt lat="46.74826" lon="5.92457">
        <ele>550.8</ele>
        <time>2022-05-24T12:13:37Z</time>
      </trkpt>
      <trkpt lat="46.74829" lon="5.92462">
        <ele>551.2</ele>
        <time>2022-05-24T12:13:38Z</time>
      </trkpt>
      <trkpt lat="46.74831" lon="5.92468">
        <ele>551.2</ele>
        <time>2022-05-24T12:13:39Z</time>
      </trkpt>
      <trkpt lat="46.74834" lon="5.92473">
        <ele>551.4</ele>
        <time>2022-05-24T12:13:40Z</time>
      </trkpt>
      <trkpt lat="46.74836" lon="5.92478">
        <ele>551.4</ele>
        <time>2022-05-24T12:13:41Z</time>
      </trkpt>
      <trkpt lat="46.74839" lon="5.92483">
        <ele>551.6</ele>
        <time>2022-05-24T12:13:42Z</time>
      </trkpt>
      <trkpt lat="46.74841" lon="5.92488">
        <ele>551.6</ele>
        <time>2022-05-24T12:13:43Z</time>
      </trkpt>
      <trkpt lat="46.74844" lon="5.92493">
        <ele>552.2</ele>
        <time>2022-05-24T12:13:44Z</time>
      </trkpt>
      <trkpt lat="46.74846" lon="5.92498">
        <ele>552.4</ele>
        <time>2022-05-24T12:13:45Z</time>
      </trkpt>
      <trkpt lat="46.74849" lon="5.92503">
        <ele>552.4</ele>
        <time>2022-05-24T12:13:46Z</time>
      </trkpt>
      <trkpt lat="46.74851" lon="5.92507">
        <ele>552.6</ele>
        <time>2022-05-24T12:13:47Z</time>
      </trkpt>
      <trkpt lat="46.74853" lon="5.92512">
        <ele>552.6</ele>
        <time>2022-05-24T12:13:48Z</time>
      </trkpt>
      <trkpt lat="46.74856" lon="5.92517">
        <ele>553</ele>
        <time>2022-05-24T12:13:49Z</time>
      </trkpt>
      <trkpt lat="46.74858" lon="5.92522">
        <ele>553</ele>
        <time>2022-05-24T12:13:50Z</time>
      </trkpt>
      <trkpt lat="46.74861" lon="5.92526">
        <ele>553.4</ele>
        <time>2022-05-24T12:13:51Z</time>
      </trkpt>
      <trkpt lat="46.74863" lon="5.92531">
        <ele>553.4</ele>
        <time>2022-05-24T12:13:52Z</time>
      </trkpt>
      <trkpt lat="46.74866" lon="5.92536">
        <ele>553.6</ele>
        <time>2022-05-24T12:13:53Z</time>
      </trkpt>
      <trkpt lat="46.74868" lon="5.92541">
        <ele>553.6</ele>
        <time>2022-05-24T12:13:54Z</time>
      </trkpt>
      <trkpt lat="46.74871" lon="5.92546">
        <ele>553.6</ele>
        <time>2022-05-24T12:13:55Z</time>
      </trkpt>
      <trkpt lat="46.74873" lon="5.92551">
        <ele>554</ele>
        <time>2022-05-24T12:13:56Z</time>
      </trkpt>
      <trkpt lat="46.74876" lon="5.92556">
        <ele>554</ele>
        <time>2022-05-24T12:13:57Z</time>
      </trkpt>
      <trkpt lat="46.74878" lon="5.92561">
        <ele>554</ele>
        <time>2022-05-24T12:13:58Z</time>
      </trkpt>
      <trkpt lat="46.74882" lon="5.92568">
        <ele>554.2</ele>
        <time>2022-05-24T12:13:59Z</time>
      </trkpt>
      <trkpt lat="46.74883" lon="5.9257">
        <ele>554.2</ele>
        <time>2022-05-24T12:14:00Z</time>
      </trkpt>
      <trkpt lat="46.74885" lon="5.92573">
        <ele>554.4</ele>
        <time>2022-05-24T12:14:01Z</time>
      </trkpt>
      <trkpt lat="46.74888" lon="5.92577">
        <ele>554.4</ele>
        <time>2022-05-24T12:14:02Z</time>
      </trkpt>
      <trkpt lat="46.7489" lon="5.9258">
        <ele>554.6</ele>
        <time>2022-05-24T12:14:03Z</time>
      </trkpt>
      <trkpt lat="46.74892" lon="5.92584">
        <ele>554.6</ele>
        <time>2022-05-24T12:14:04Z</time>
      </trkpt>
      <trkpt lat="46.74895" lon="5.92588">
        <ele>554.8</ele>
        <time>2022-05-24T12:14:05Z</time>
      </trkpt>
      <trkpt lat="46.74897" lon="5.92592">
        <ele>554.8</ele>
        <time>2022-05-24T12:14:06Z</time>
      </trkpt>
      <trkpt lat="46.74899" lon="5.92596">
        <ele>555.2</ele>
        <time>2022-05-24T12:14:07Z</time>
      </trkpt>
      <trkpt lat="46.74902" lon="5.926">
        <ele>555.2</ele>
        <time>2022-05-24T12:14:08Z</time>
      </trkpt>
      <trkpt lat="46.74906" lon="5.92603">
        <ele>555.2</ele>
        <time>2022-05-24T12:14:09Z</time>
      </trkpt>
      <trkpt lat="46.7491" lon="5.92605">
        <ele>555.4</ele>
        <time>2022-05-24T12:14:10Z</time>
      </trkpt>
      <trkpt lat="46.74914" lon="5.92608">
        <ele>555.8</ele>
        <time>2022-05-24T12:14:11Z</time>
      </trkpt>
      <trkpt lat="46.74917" lon="5.92612">
        <ele>555.8</ele>
        <time>2022-05-24T12:14:12Z</time>
      </trkpt>
      <trkpt lat="46.74919" lon="5.92615">
        <ele>555.8</ele>
        <time>2022-05-24T12:14:13Z</time>
      </trkpt>
      <trkpt lat="46.74921" lon="5.92618">
        <ele>556</ele>
        <time>2022-05-24T12:14:14Z</time>
      </trkpt>
      <trkpt lat="46.74922" lon="5.92619">
        <ele>556</ele>
        <time>2022-05-24T12:14:15Z</time>
      </trkpt>
      <trkpt lat="46.74922" lon="5.92619">
        <ele>556.2</ele>
        <time>2022-05-24T12:14:16Z</time>
      </trkpt>
      <trkpt lat="46.74922" lon="5.92619">
        <ele>556.2</ele>
        <time>2022-05-24T12:14:17Z</time>
      </trkpt>
      <trkpt lat="46.74922" lon="5.92618">
        <ele>556.2</ele>
        <time>2022-05-24T12:14:18Z</time>
      </trkpt>
      <trkpt lat="46.74919" lon="5.92614">
        <ele>556.2</ele>
        <time>2022-05-24T12:14:19Z</time>
      </trkpt>
      <trkpt lat="46.74919" lon="5.92614">
        <ele>556.2</ele>
        <time>2022-05-24T12:14:20Z</time>
      </trkpt>
      <trkpt lat="46.74917" lon="5.92614">
        <ele>556.2</ele>
        <time>2022-05-24T12:14:21Z</time>
      </trkpt>
      <trkpt lat="46.74916" lon="5.92614">
        <ele>556.2</ele>
        <time>2022-05-24T12:14:22Z</time>
      </trkpt>
      <trkpt lat="46.74915" lon="5.92615">
        <ele>556.2</ele>
        <time>2022-05-24T12:14:23Z</time>
      </trkpt>
      <trkpt lat="46.74915" lon="5.92615">
        <ele>556.2</ele>
        <time>2022-05-24T12:14:24Z</time>
      </trkpt>
      <trkpt lat="46.74915" lon="5.92616">
        <ele>556.2</ele>
        <time>2022-05-24T12:14:25Z</time>
      </trkpt>
      <trkpt lat="46.74915" lon="5.92616">
        <ele>556.2</ele>
        <time>2022-05-24T12:14:26Z</time>
      </trkpt>
      <trkpt lat="46.74915" lon="5.92616">
        <ele>556.2</ele>
        <time>2022-05-24T12:14:28Z</time>
      </trkpt>
      <trkpt lat="46.74915" lon="5.92616">
        <ele>556.2</ele>
        <time>2022-05-24T12:14:29Z</time>
      </trkpt>
      <trkpt lat="46.74915" lon="5.92616">
        <ele>556.2</ele>
        <time>2022-05-24T12:14:30Z</time>
      </trkpt>
      <trkpt lat="46.74915" lon="5.92616">
        <ele>556.2</ele>
        <time>2022-05-24T12:14:32Z</time>
      </trkpt>
      <trkpt lat="46.74914" lon="5.9262">
        <ele>556.2</ele>
        <time>2022-05-24T12:14:33Z</time>
      </trkpt>
      <trkpt lat="46.74914" lon="5.92622">
        <ele>556.2</ele>
        <time>2022-05-24T12:14:34Z</time>
      </trkpt>
      <trkpt lat="46.74914" lon="5.92626">
        <ele>556.2</ele>
        <time>2022-05-24T12:14:35Z</time>
      </trkpt>
      <trkpt lat="46.74914" lon="5.92626">
        <ele>556.2</ele>
        <time>2022-05-24T12:14:36Z</time>
      </trkpt>
      <trkpt lat="46.74915" lon="5.92629">
        <ele>556.2</ele>
        <time>2022-05-24T12:14:37Z</time>
      </trkpt>
      <trkpt lat="46.74917" lon="5.92633">
        <ele>556.4</ele>
        <time>2022-05-24T12:14:38Z</time>
      </trkpt>
      <trkpt lat="46.74919" lon="5.92636">
        <ele>556.4</ele>
        <time>2022-05-24T12:14:39Z</time>
      </trkpt>
      <trkpt lat="46.7492" lon="5.92639">
        <ele>556.4</ele>
        <time>2022-05-24T12:14:40Z</time>
      </trkpt>
      <trkpt lat="46.74921" lon="5.92642">
        <ele>556.6</ele>
        <time>2022-05-24T12:14:41Z</time>
      </trkpt>
      <trkpt lat="46.74922" lon="5.92644">
        <ele>556.6</ele>
        <time>2022-05-24T12:14:42Z</time>
      </trkpt>
      <trkpt lat="46.74923" lon="5.92646">
        <ele>556.6</ele>
        <time>2022-05-24T12:14:43Z</time>
      </trkpt>
      <trkpt lat="46.74925" lon="5.92647">
        <ele>556.6</ele>
        <time>2022-05-24T12:14:44Z</time>
      </trkpt>
      <trkpt lat="46.74926" lon="5.92648">
        <ele>557</ele>
        <time>2022-05-24T12:14:45Z</time>
      </trkpt>
      <trkpt lat="46.74928" lon="5.92647">
        <ele>557</ele>
        <time>2022-05-24T12:14:46Z</time>
      </trkpt>
      <trkpt lat="46.74929" lon="5.92646">
        <ele>557</ele>
        <time>2022-05-24T12:14:47Z</time>
      </trkpt>
      <trkpt lat="46.74931" lon="5.92645">
        <ele>557</ele>
        <time>2022-05-24T12:14:48Z</time>
      </trkpt>
      <trkpt lat="46.74933" lon="5.92647">
        <ele>557</ele>
        <time>2022-05-24T12:14:49Z</time>
      </trkpt>
      <trkpt lat="46.74934" lon="5.92649">
        <ele>557.2</ele>
        <time>2022-05-24T12:14:50Z</time>
      </trkpt>
      <trkpt lat="46.74936" lon="5.92652">
        <ele>557.2</ele>
        <time>2022-05-24T12:14:51Z</time>
      </trkpt>
      <trkpt lat="46.74938" lon="5.92655">
        <ele>557.4</ele>
        <time>2022-05-24T12:14:52Z</time>
      </trkpt>
      <trkpt lat="46.74939" lon="5.92659">
        <ele>557.4</ele>
        <time>2022-05-24T12:14:53Z</time>
      </trkpt>
      <trkpt lat="46.74941" lon="5.92662">
        <ele>557.8</ele>
        <time>2022-05-24T12:14:54Z</time>
      </trkpt>
      <trkpt lat="46.74943" lon="5.92666">
        <ele>557.8</ele>
        <time>2022-05-24T12:14:55Z</time>
      </trkpt>
      <trkpt lat="46.74944" lon="5.92669">
        <ele>557.8</ele>
        <time>2022-05-24T12:14:56Z</time>
      </trkpt>
      <trkpt lat="46.74947" lon="5.92672">
        <ele>558</ele>
        <time>2022-05-24T12:14:57Z</time>
      </trkpt>
      <trkpt lat="46.74949" lon="5.92675">
        <ele>558</ele>
        <time>2022-05-24T12:14:58Z</time>
      </trkpt>
      <trkpt lat="46.74952" lon="5.92678">
        <ele>558.2</ele>
        <time>2022-05-24T12:14:59Z</time>
      </trkpt>
      <trkpt lat="46.74955" lon="5.92681">
        <ele>558.2</ele>
        <time>2022-05-24T12:15:00Z</time>
      </trkpt>
      <trkpt lat="46.74957" lon="5.92685">
        <ele>558.4</ele>
        <time>2022-05-24T12:15:01Z</time>
      </trkpt>
      <trkpt lat="46.74959" lon="5.92689">
        <ele>558.4</ele>
        <time>2022-05-24T12:15:02Z</time>
      </trkpt>
      <trkpt lat="46.74962" lon="5.92693">
        <ele>558.4</ele>
        <time>2022-05-24T12:15:03Z</time>
      </trkpt>
      <trkpt lat="46.74964" lon="5.92697">
        <ele>558.8</ele>
        <time>2022-05-24T12:15:04Z</time>
      </trkpt>
      <trkpt lat="46.74966" lon="5.92701">
        <ele>558.8</ele>
        <time>2022-05-24T12:15:05Z</time>
      </trkpt>
      <trkpt lat="46.74968" lon="5.92705">
        <ele>559</ele>
        <time>2022-05-24T12:15:06Z</time>
      </trkpt>
      <trkpt lat="46.7497" lon="5.92709">
        <ele>559</ele>
        <time>2022-05-24T12:15:07Z</time>
      </trkpt>
      <trkpt lat="46.74972" lon="5.92713">
        <ele>559.4</ele>
        <time>2022-05-24T12:15:08Z</time>
      </trkpt>
      <trkpt lat="46.74974" lon="5.92717">
        <ele>559.6</ele>
        <time>2022-05-24T12:15:09Z</time>
      </trkpt>
      <trkpt lat="46.74976" lon="5.9272">
        <ele>559.8</ele>
        <time>2022-05-24T12:15:10Z</time>
      </trkpt>
      <trkpt lat="46.74979" lon="5.92723">
        <ele>560</ele>
        <time>2022-05-24T12:15:11Z</time>
      </trkpt>
      <trkpt lat="46.74981" lon="5.92727">
        <ele>560.4</ele>
        <time>2022-05-24T12:15:12Z</time>
      </trkpt>
      <trkpt lat="46.74983" lon="5.9273">
        <ele>560.6</ele>
        <time>2022-05-24T12:15:13Z</time>
      </trkpt>
      <trkpt lat="46.74985" lon="5.92734">
        <ele>560.8</ele>
        <time>2022-05-24T12:15:14Z</time>
      </trkpt>
      <trkpt lat="46.74987" lon="5.92738">
        <ele>561.2</ele>
        <time>2022-05-24T12:15:15Z</time>
      </trkpt>
      <trkpt lat="46.74989" lon="5.92742">
        <ele>561.2</ele>
        <time>2022-05-24T12:15:16Z</time>
      </trkpt>
      <trkpt lat="46.74991" lon="5.92746">
        <ele>561.6</ele>
        <time>2022-05-24T12:15:17Z</time>
      </trkpt>
      <trkpt lat="46.74994" lon="5.9275">
        <ele>561.8</ele>
        <time>2022-05-24T12:15:18Z</time>
      </trkpt>
      <trkpt lat="46.74996" lon="5.92753">
        <ele>562.2</ele>
        <time>2022-05-24T12:15:19Z</time>
      </trkpt>
      <trkpt lat="46.74998" lon="5.92757">
        <ele>562.4</ele>
        <time>2022-05-24T12:15:20Z</time>
      </trkpt>
      <trkpt lat="46.75" lon="5.92762">
        <ele>562.6</ele>
        <time>2022-05-24T12:15:21Z</time>
      </trkpt>
      <trkpt lat="46.75002" lon="5.92766">
        <ele>562.8</ele>
        <time>2022-05-24T12:15:22Z</time>
      </trkpt>
      <trkpt lat="46.75005" lon="5.9277">
        <ele>563</ele>
        <time>2022-05-24T12:15:23Z</time>
      </trkpt>
      <trkpt lat="46.75007" lon="5.92774">
        <ele>563.4</ele>
        <time>2022-05-24T12:15:24Z</time>
      </trkpt>
      <trkpt lat="46.75009" lon="5.92778">
        <ele>563.6</ele>
        <time>2022-05-24T12:15:25Z</time>
      </trkpt>
      <trkpt lat="46.75012" lon="5.92782">
        <ele>563.8</ele>
        <time>2022-05-24T12:15:26Z</time>
      </trkpt>
      <trkpt lat="46.75014" lon="5.92786">
        <ele>564.2</ele>
        <time>2022-05-24T12:15:27Z</time>
      </trkpt>
      <trkpt lat="46.75016" lon="5.9279">
        <ele>564.4</ele>
        <time>2022-05-24T12:15:28Z</time>
      </trkpt>
      <trkpt lat="46.75018" lon="5.92794">
        <ele>564.6</ele>
        <time>2022-05-24T12:15:29Z</time>
      </trkpt>
      <trkpt lat="46.7502" lon="5.92798">
        <ele>564.8</ele>
        <time>2022-05-24T12:15:30Z</time>
      </trkpt>
      <trkpt lat="46.75022" lon="5.92802">
        <ele>565.2</ele>
        <time>2022-05-24T12:15:31Z</time>
      </trkpt>
      <trkpt lat="46.75024" lon="5.92805">
        <ele>565.4</ele>
        <time>2022-05-24T12:15:32Z</time>
      </trkpt>
      <trkpt lat="46.75026" lon="5.92809">
        <ele>565.6</ele>
        <time>2022-05-24T12:15:33Z</time>
      </trkpt>
      <trkpt lat="46.75028" lon="5.92812">
        <ele>565.6</ele>
        <time>2022-05-24T12:15:34Z</time>
      </trkpt>
      <trkpt lat="46.7503" lon="5.92815">
        <ele>566</ele>
        <time>2022-05-24T12:15:35Z</time>
      </trkpt>
      <trkpt lat="46.75032" lon="5.92819">
        <ele>566</ele>
        <time>2022-05-24T12:15:36Z</time>
      </trkpt>
      <trkpt lat="46.75034" lon="5.92822">
        <ele>566.2</ele>
        <time>2022-05-24T12:15:37Z</time>
      </trkpt>
      <trkpt lat="46.75036" lon="5.92826">
        <ele>566.2</ele>
        <time>2022-05-24T12:15:38Z</time>
      </trkpt>
      <trkpt lat="46.75038" lon="5.9283">
        <ele>566.6</ele>
        <time>2022-05-24T12:15:39Z</time>
      </trkpt>
      <trkpt lat="46.7504" lon="5.92835">
        <ele>566.6</ele>
        <time>2022-05-24T12:15:40Z</time>
      </trkpt>
      <trkpt lat="46.75042" lon="5.92839">
        <ele>566.8</ele>
        <time>2022-05-24T12:15:41Z</time>
      </trkpt>
      <trkpt lat="46.75045" lon="5.92844">
        <ele>566.8</ele>
        <time>2022-05-24T12:15:42Z</time>
      </trkpt>
      <trkpt lat="46.75047" lon="5.92848">
        <ele>566.8</ele>
        <time>2022-05-24T12:15:43Z</time>
      </trkpt>
      <trkpt lat="46.75049" lon="5.92853">
        <ele>567</ele>
        <time>2022-05-24T12:15:44Z</time>
      </trkpt>
      <trkpt lat="46.75052" lon="5.92858">
        <ele>567</ele>
        <time>2022-05-24T12:15:45Z</time>
      </trkpt>
      <trkpt lat="46.75054" lon="5.92864">
        <ele>567</ele>
        <time>2022-05-24T12:15:46Z</time>
      </trkpt>
      <trkpt lat="46.75057" lon="5.92869">
        <ele>567</ele>
        <time>2022-05-24T12:15:47Z</time>
      </trkpt>
      <trkpt lat="46.75059" lon="5.92875">
        <ele>567</ele>
        <time>2022-05-24T12:15:48Z</time>
      </trkpt>
      <trkpt lat="46.75061" lon="5.9288">
        <ele>567</ele>
        <time>2022-05-24T12:15:49Z</time>
      </trkpt>
      <trkpt lat="46.75064" lon="5.92885">
        <ele>567</ele>
        <time>2022-05-24T12:15:50Z</time>
      </trkpt>
      <trkpt lat="46.75067" lon="5.92891">
        <ele>567</ele>
        <time>2022-05-24T12:15:51Z</time>
      </trkpt>
      <trkpt lat="46.75069" lon="5.92896">
        <ele>567.2</ele>
        <time>2022-05-24T12:15:52Z</time>
      </trkpt>
      <trkpt lat="46.75071" lon="5.92901">
        <ele>567.2</ele>
        <time>2022-05-24T12:15:53Z</time>
      </trkpt>
      <trkpt lat="46.75074" lon="5.92906">
        <ele>567.2</ele>
        <time>2022-05-24T12:15:54Z</time>
      </trkpt>
      <trkpt lat="46.75077" lon="5.92911">
        <ele>567.2</ele>
        <time>2022-05-24T12:15:55Z</time>
      </trkpt>
      <trkpt lat="46.7508" lon="5.92916">
        <ele>567.2</ele>
        <time>2022-05-24T12:15:56Z</time>
      </trkpt>
      <trkpt lat="46.75082" lon="5.92921">
        <ele>567.2</ele>
        <time>2022-05-24T12:15:57Z</time>
      </trkpt>
      <trkpt lat="46.75085" lon="5.92926">
        <ele>567.6</ele>
        <time>2022-05-24T12:15:58Z</time>
      </trkpt>
      <trkpt lat="46.75088" lon="5.92931">
        <ele>567.6</ele>
        <time>2022-05-24T12:15:59Z</time>
      </trkpt>
      <trkpt lat="46.75091" lon="5.92936">
        <ele>567.8</ele>
        <time>2022-05-24T12:16:00Z</time>
      </trkpt>
      <trkpt lat="46.75094" lon="5.9294">
        <ele>567.8</ele>
        <time>2022-05-24T12:16:01Z</time>
      </trkpt>
      <trkpt lat="46.75097" lon="5.92945">
        <ele>568</ele>
        <time>2022-05-24T12:16:02Z</time>
      </trkpt>
      <trkpt lat="46.75099" lon="5.9295">
        <ele>568</ele>
        <time>2022-05-24T12:16:03Z</time>
      </trkpt>
      <trkpt lat="46.75102" lon="5.92954">
        <ele>568</ele>
        <time>2022-05-24T12:16:04Z</time>
      </trkpt>
      <trkpt lat="46.75104" lon="5.92959">
        <ele>568.2</ele>
        <time>2022-05-24T12:16:05Z</time>
      </trkpt>
      <trkpt lat="46.75107" lon="5.92963">
        <ele>568.2</ele>
        <time>2022-05-24T12:16:06Z</time>
      </trkpt>
      <trkpt lat="46.75109" lon="5.92968">
        <ele>568.6</ele>
        <time>2022-05-24T12:16:07Z</time>
      </trkpt>
      <trkpt lat="46.75111" lon="5.92972">
        <ele>568.6</ele>
        <time>2022-05-24T12:16:08Z</time>
      </trkpt>
      <trkpt lat="46.75113" lon="5.92977">
        <ele>568.8</ele>
        <time>2022-05-24T12:16:09Z</time>
      </trkpt>
      <trkpt lat="46.75115" lon="5.92982">
        <ele>568.8</ele>
        <time>2022-05-24T12:16:10Z</time>
      </trkpt>
      <trkpt lat="46.75118" lon="5.92987">
        <ele>568.8</ele>
        <time>2022-05-24T12:16:11Z</time>
      </trkpt>
      <trkpt lat="46.7512" lon="5.92992">
        <ele>569.2</ele>
        <time>2022-05-24T12:16:12Z</time>
      </trkpt>
      <trkpt lat="46.75123" lon="5.92996">
        <ele>569.2</ele>
        <time>2022-05-24T12:16:13Z</time>
      </trkpt>
      <trkpt lat="46.75125" lon="5.93">
        <ele>569.4</ele>
        <time>2022-05-24T12:16:14Z</time>
      </trkpt>
      <trkpt lat="46.75129" lon="5.93004">
        <ele>569.4</ele>
        <time>2022-05-24T12:16:15Z</time>
      </trkpt>
      <trkpt lat="46.75132" lon="5.93008">
        <ele>569.4</ele>
        <time>2022-05-24T12:16:16Z</time>
      </trkpt>
      <trkpt lat="46.75135" lon="5.93012">
        <ele>569.8</ele>
        <time>2022-05-24T12:16:17Z</time>
      </trkpt>
      <trkpt lat="46.75139" lon="5.93014">
        <ele>570</ele>
        <time>2022-05-24T12:16:18Z</time>
      </trkpt>
      <trkpt lat="46.75142" lon="5.93017">
        <ele>570.4</ele>
        <time>2022-05-24T12:16:19Z</time>
      </trkpt>
      <trkpt lat="46.75146" lon="5.93019">
        <ele>570.6</ele>
        <time>2022-05-24T12:16:20Z</time>
      </trkpt>
      <trkpt lat="46.75149" lon="5.93021">
        <ele>571</ele>
        <time>2022-05-24T12:16:21Z</time>
      </trkpt>
      <trkpt lat="46.75152" lon="5.93023">
        <ele>571.4</ele>
        <time>2022-05-24T12:16:22Z</time>
      </trkpt>
      <trkpt lat="46.75155" lon="5.93025">
        <ele>571.6</ele>
        <time>2022-05-24T12:16:23Z</time>
      </trkpt>
      <trkpt lat="46.75158" lon="5.93028">
        <ele>571.8</ele>
        <time>2022-05-24T12:16:24Z</time>
      </trkpt>
      <trkpt lat="46.75161" lon="5.93029">
        <ele>572.2</ele>
        <time>2022-05-24T12:16:25Z</time>
      </trkpt>
      <trkpt lat="46.75164" lon="5.93032">
        <ele>572.4</ele>
        <time>2022-05-24T12:16:26Z</time>
      </trkpt>
      <trkpt lat="46.75167" lon="5.93034">
        <ele>572.4</ele>
        <time>2022-05-24T12:16:27Z</time>
      </trkpt>
      <trkpt lat="46.7517" lon="5.93037">
        <ele>572.8</ele>
        <time>2022-05-24T12:16:28Z</time>
      </trkpt>
      <trkpt lat="46.75172" lon="5.93041">
        <ele>573</ele>
        <time>2022-05-24T12:16:29Z</time>
      </trkpt>
      <trkpt lat="46.75175" lon="5.93044">
        <ele>573.4</ele>
        <time>2022-05-24T12:16:30Z</time>
      </trkpt>
      <trkpt lat="46.75177" lon="5.93048">
        <ele>573.4</ele>
        <time>2022-05-24T12:16:31Z</time>
      </trkpt>
      <trkpt lat="46.75179" lon="5.93053">
        <ele>573.8</ele>
        <time>2022-05-24T12:16:32Z</time>
      </trkpt>
      <trkpt lat="46.75181" lon="5.93057">
        <ele>573.8</ele>
        <time>2022-05-24T12:16:33Z</time>
      </trkpt>
      <trkpt lat="46.75184" lon="5.93061">
        <ele>574</ele>
        <time>2022-05-24T12:16:34Z</time>
      </trkpt>
      <trkpt lat="46.75186" lon="5.93065">
        <ele>574</ele>
        <time>2022-05-24T12:16:35Z</time>
      </trkpt>
      <trkpt lat="46.75189" lon="5.93069">
        <ele>574</ele>
        <time>2022-05-24T12:16:36Z</time>
      </trkpt>
      <trkpt lat="46.75191" lon="5.93073">
        <ele>574.4</ele>
        <time>2022-05-24T12:16:37Z</time>
      </trkpt>
      <trkpt lat="46.75193" lon="5.93077">
        <ele>574.4</ele>
        <time>2022-05-24T12:16:38Z</time>
      </trkpt>
      <trkpt lat="46.75195" lon="5.93082">
        <ele>574.6</ele>
        <time>2022-05-24T12:16:39Z</time>
      </trkpt>
      <trkpt lat="46.75198" lon="5.93086">
        <ele>574.6</ele>
        <time>2022-05-24T12:16:40Z</time>
      </trkpt>
      <trkpt lat="46.752" lon="5.9309">
        <ele>574.8</ele>
        <time>2022-05-24T12:16:41Z</time>
      </trkpt>
      <trkpt lat="46.75203" lon="5.93094">
        <ele>575</ele>
        <time>2022-05-24T12:16:42Z</time>
      </trkpt>
      <trkpt lat="46.75205" lon="5.93097">
        <ele>575</ele>
        <time>2022-05-24T12:16:43Z</time>
      </trkpt>
      <trkpt lat="46.75208" lon="5.931">
        <ele>575.4</ele>
        <time>2022-05-24T12:16:44Z</time>
      </trkpt>
      <trkpt lat="46.75211" lon="5.93103">
        <ele>575.4</ele>
        <time>2022-05-24T12:16:45Z</time>
      </trkpt>
      <trkpt lat="46.75214" lon="5.93105">
        <ele>575.8</ele>
        <time>2022-05-24T12:16:46Z</time>
      </trkpt>
      <trkpt lat="46.75217" lon="5.93107">
        <ele>575.8</ele>
        <time>2022-05-24T12:16:47Z</time>
      </trkpt>
      <trkpt lat="46.75221" lon="5.93109">
        <ele>576</ele>
        <time>2022-05-24T12:16:48Z</time>
      </trkpt>
      <trkpt lat="46.75224" lon="5.93111">
        <ele>576</ele>
        <time>2022-05-24T12:16:49Z</time>
      </trkpt>
      <trkpt lat="46.75227" lon="5.93114">
        <ele>576</ele>
        <time>2022-05-24T12:16:50Z</time>
      </trkpt>
      <trkpt lat="46.75231" lon="5.93116">
        <ele>576.2</ele>
        <time>2022-05-24T12:16:51Z</time>
      </trkpt>
      <trkpt lat="46.75234" lon="5.93118">
        <ele>576.2</ele>
        <time>2022-05-24T12:16:52Z</time>
      </trkpt>
      <trkpt lat="46.75237" lon="5.93121">
        <ele>576.2</ele>
        <time>2022-05-24T12:16:53Z</time>
      </trkpt>
      <trkpt lat="46.75239" lon="5.93124">
        <ele>576.2</ele>
        <time>2022-05-24T12:16:54Z</time>
      </trkpt>
      <trkpt lat="46.75241" lon="5.93127">
        <ele>576.2</ele>
        <time>2022-05-24T12:16:55Z</time>
      </trkpt>
      <trkpt lat="46.75243" lon="5.9313">
        <ele>576.4</ele>
        <time>2022-05-24T12:16:56Z</time>
      </trkpt>
      <trkpt lat="46.75244" lon="5.93134">
        <ele>576.4</ele>
        <time>2022-05-24T12:16:57Z</time>
      </trkpt>
      <trkpt lat="46.75245" lon="5.93138">
        <ele>576.8</ele>
        <time>2022-05-24T12:16:58Z</time>
      </trkpt>
      <trkpt lat="46.75246" lon="5.93141">
        <ele>576.8</ele>
        <time>2022-05-24T12:16:59Z</time>
      </trkpt>
      <trkpt lat="46.75246" lon="5.93145">
        <ele>576.8</ele>
        <time>2022-05-24T12:17:00Z</time>
      </trkpt>
      <trkpt lat="46.75247" lon="5.93148">
        <ele>577</ele>
        <time>2022-05-24T12:17:01Z</time>
      </trkpt>
      <trkpt lat="46.75248" lon="5.93152">
        <ele>577</ele>
        <time>2022-05-24T12:17:02Z</time>
      </trkpt>
      <trkpt lat="46.7525" lon="5.93155">
        <ele>577.4</ele>
        <time>2022-05-24T12:17:03Z</time>
      </trkpt>
      <trkpt lat="46.75252" lon="5.93157">
        <ele>577.4</ele>
        <time>2022-05-24T12:17:04Z</time>
      </trkpt>
      <trkpt lat="46.75254" lon="5.93159">
        <ele>577.6</ele>
        <time>2022-05-24T12:17:05Z</time>
      </trkpt>
      <trkpt lat="46.75257" lon="5.9316">
        <ele>577.6</ele>
        <time>2022-05-24T12:17:06Z</time>
      </trkpt>
      <trkpt lat="46.7526" lon="5.93161">
        <ele>578</ele>
        <time>2022-05-24T12:17:07Z</time>
      </trkpt>
      <trkpt lat="46.75262" lon="5.93162">
        <ele>578.4</ele>
        <time>2022-05-24T12:17:08Z</time>
      </trkpt>
      <trkpt lat="46.75265" lon="5.93162">
        <ele>578.4</ele>
        <time>2022-05-24T12:17:09Z</time>
      </trkpt>
      <trkpt lat="46.75268" lon="5.93163">
        <ele>578.8</ele>
        <time>2022-05-24T12:17:10Z</time>
      </trkpt>
      <trkpt lat="46.7527" lon="5.93163">
        <ele>578.8</ele>
        <time>2022-05-24T12:17:11Z</time>
      </trkpt>
      <trkpt lat="46.75273" lon="5.93163">
        <ele>579</ele>
        <time>2022-05-24T12:17:12Z</time>
      </trkpt>
      <trkpt lat="46.75275" lon="5.93164">
        <ele>579.2</ele>
        <time>2022-05-24T12:17:13Z</time>
      </trkpt>
      <trkpt lat="46.75278" lon="5.93165">
        <ele>579.4</ele>
        <time>2022-05-24T12:17:14Z</time>
      </trkpt>
      <trkpt lat="46.75281" lon="5.93165">
        <ele>579.6</ele>
        <time>2022-05-24T12:17:15Z</time>
      </trkpt>
      <trkpt lat="46.75283" lon="5.93165">
        <ele>579.6</ele>
        <time>2022-05-24T12:17:16Z</time>
      </trkpt>
      <trkpt lat="46.75286" lon="5.93166">
        <ele>580</ele>
        <time>2022-05-24T12:17:17Z</time>
      </trkpt>
      <trkpt lat="46.75288" lon="5.93166">
        <ele>580.4</ele>
        <time>2022-05-24T12:17:18Z</time>
      </trkpt>
      <trkpt lat="46.75291" lon="5.93167">
        <ele>580.6</ele>
        <time>2022-05-24T12:17:19Z</time>
      </trkpt>
      <trkpt lat="46.75293" lon="5.93167">
        <ele>580.6</ele>
        <time>2022-05-24T12:17:20Z</time>
      </trkpt>
      <trkpt lat="46.75295" lon="5.93168">
        <ele>581</ele>
        <time>2022-05-24T12:17:21Z</time>
      </trkpt>
      <trkpt lat="46.75297" lon="5.93169">
        <ele>581.2</ele>
        <time>2022-05-24T12:17:22Z</time>
      </trkpt>
      <trkpt lat="46.753" lon="5.93169">
        <ele>581.4</ele>
        <time>2022-05-24T12:17:23Z</time>
      </trkpt>
      <trkpt lat="46.75302" lon="5.9317">
        <ele>581.4</ele>
        <time>2022-05-24T12:17:24Z</time>
      </trkpt>
      <trkpt lat="46.75304" lon="5.9317">
        <ele>581.8</ele>
        <time>2022-05-24T12:17:25Z</time>
      </trkpt>
      <trkpt lat="46.75307" lon="5.93171">
        <ele>582</ele>
        <time>2022-05-24T12:17:26Z</time>
      </trkpt>
      <trkpt lat="46.75309" lon="5.93172">
        <ele>582.2</ele>
        <time>2022-05-24T12:17:27Z</time>
      </trkpt>
      <trkpt lat="46.75312" lon="5.93172">
        <ele>582.4</ele>
        <time>2022-05-24T12:17:28Z</time>
      </trkpt>
      <trkpt lat="46.75314" lon="5.93173">
        <ele>582.8</ele>
        <time>2022-05-24T12:17:29Z</time>
      </trkpt>
      <trkpt lat="46.75317" lon="5.93173">
        <ele>583</ele>
        <time>2022-05-24T12:17:30Z</time>
      </trkpt>
      <trkpt lat="46.7532" lon="5.93174">
        <ele>583.2</ele>
        <time>2022-05-24T12:17:31Z</time>
      </trkpt>
      <trkpt lat="46.75322" lon="5.93174">
        <ele>583.6</ele>
        <time>2022-05-24T12:17:32Z</time>
      </trkpt>
      <trkpt lat="46.75325" lon="5.93175">
        <ele>583.8</ele>
        <time>2022-05-24T12:17:33Z</time>
      </trkpt>
      <trkpt lat="46.75327" lon="5.93175">
        <ele>583.8</ele>
        <time>2022-05-24T12:17:34Z</time>
      </trkpt>
      <trkpt lat="46.75329" lon="5.93176">
        <ele>584.2</ele>
        <time>2022-05-24T12:17:35Z</time>
      </trkpt>
      <trkpt lat="46.75332" lon="5.93177">
        <ele>584.4</ele>
        <time>2022-05-24T12:17:36Z</time>
      </trkpt>
      <trkpt lat="46.75334" lon="5.93177">
        <ele>584.6</ele>
        <time>2022-05-24T12:17:37Z</time>
      </trkpt>
      <trkpt lat="46.75337" lon="5.93178">
        <ele>584.6</ele>
        <time>2022-05-24T12:17:38Z</time>
      </trkpt>
      <trkpt lat="46.75339" lon="5.93179">
        <ele>585</ele>
        <time>2022-05-24T12:17:39Z</time>
      </trkpt>
      <trkpt lat="46.75342" lon="5.9318">
        <ele>585.4</ele>
        <time>2022-05-24T12:17:40Z</time>
      </trkpt>
      <trkpt lat="46.75344" lon="5.93181">
        <ele>585.6</ele>
        <time>2022-05-24T12:17:41Z</time>
      </trkpt>
      <trkpt lat="46.75346" lon="5.93183">
        <ele>585.8</ele>
        <time>2022-05-24T12:17:42Z</time>
      </trkpt>
      <trkpt lat="46.75348" lon="5.93185">
        <ele>586.2</ele>
        <time>2022-05-24T12:17:43Z</time>
      </trkpt>
      <trkpt lat="46.75351" lon="5.93186">
        <ele>586.4</ele>
        <time>2022-05-24T12:17:44Z</time>
      </trkpt>
      <trkpt lat="46.75353" lon="5.93188">
        <ele>586.6</ele>
        <time>2022-05-24T12:17:45Z</time>
      </trkpt>
      <trkpt lat="46.75355" lon="5.9319">
        <ele>587</ele>
        <time>2022-05-24T12:17:46Z</time>
      </trkpt>
      <trkpt lat="46.75357" lon="5.93192">
        <ele>587.2</ele>
        <time>2022-05-24T12:17:47Z</time>
      </trkpt>
      <trkpt lat="46.7536" lon="5.93193">
        <ele>587.2</ele>
        <time>2022-05-24T12:17:48Z</time>
      </trkpt>
      <trkpt lat="46.75362" lon="5.93195">
        <ele>587.6</ele>
        <time>2022-05-24T12:17:49Z</time>
      </trkpt>
      <trkpt lat="46.75365" lon="5.93197">
        <ele>587.8</ele>
        <time>2022-05-24T12:17:50Z</time>
      </trkpt>
      <trkpt lat="46.75367" lon="5.93199">
        <ele>588</ele>
        <time>2022-05-24T12:17:51Z</time>
      </trkpt>
      <trkpt lat="46.7537" lon="5.93201">
        <ele>588.4</ele>
        <time>2022-05-24T12:17:52Z</time>
      </trkpt>
      <trkpt lat="46.75373" lon="5.93203">
        <ele>588.6</ele>
        <time>2022-05-24T12:17:53Z</time>
      </trkpt>
      <trkpt lat="46.75375" lon="5.93204">
        <ele>588.6</ele>
        <time>2022-05-24T12:17:54Z</time>
      </trkpt>
      <trkpt lat="46.75378" lon="5.93206">
        <ele>589</ele>
        <time>2022-05-24T12:17:55Z</time>
      </trkpt>
      <trkpt lat="46.7538" lon="5.93208">
        <ele>589.2</ele>
        <time>2022-05-24T12:17:56Z</time>
      </trkpt>
      <trkpt lat="46.75383" lon="5.9321">
        <ele>589.2</ele>
        <time>2022-05-24T12:17:57Z</time>
      </trkpt>
      <trkpt lat="46.75385" lon="5.93213">
        <ele>589.6</ele>
        <time>2022-05-24T12:17:58Z</time>
      </trkpt>
      <trkpt lat="46.75387" lon="5.93215">
        <ele>589.8</ele>
        <time>2022-05-24T12:17:59Z</time>
      </trkpt>
      <trkpt lat="46.7539" lon="5.93217">
        <ele>589.8</ele>
        <time>2022-05-24T12:18:00Z</time>
      </trkpt>
      <trkpt lat="46.75392" lon="5.93219">
        <ele>590.2</ele>
        <time>2022-05-24T12:18:01Z</time>
      </trkpt>
      <trkpt lat="46.75395" lon="5.93222">
        <ele>590.6</ele>
        <time>2022-05-24T12:18:02Z</time>
      </trkpt>
      <trkpt lat="46.75397" lon="5.93224">
        <ele>590.8</ele>
        <time>2022-05-24T12:18:03Z</time>
      </trkpt>
      <trkpt lat="46.75399" lon="5.93226">
        <ele>591</ele>
        <time>2022-05-24T12:18:04Z</time>
      </trkpt>
      <trkpt lat="46.75401" lon="5.93228">
        <ele>591</ele>
        <time>2022-05-24T12:18:05Z</time>
      </trkpt>
      <trkpt lat="46.75403" lon="5.9323">
        <ele>591.4</ele>
        <time>2022-05-24T12:18:06Z</time>
      </trkpt>
      <trkpt lat="46.75406" lon="5.93232">
        <ele>591.4</ele>
        <time>2022-05-24T12:18:07Z</time>
      </trkpt>
      <trkpt lat="46.7541" lon="5.93236">
        <ele>591.8</ele>
        <time>2022-05-24T12:18:08Z</time>
      </trkpt>
      <trkpt lat="46.75413" lon="5.93237">
        <ele>591.8</ele>
        <time>2022-05-24T12:18:09Z</time>
      </trkpt>
      <trkpt lat="46.75415" lon="5.93239">
        <ele>592.2</ele>
        <time>2022-05-24T12:18:10Z</time>
      </trkpt>
      <trkpt lat="46.75418" lon="5.93241">
        <ele>592.4</ele>
        <time>2022-05-24T12:18:11Z</time>
      </trkpt>
      <trkpt lat="46.7542" lon="5.93243">
        <ele>592.4</ele>
        <time>2022-05-24T12:18:12Z</time>
      </trkpt>
      <trkpt lat="46.7542" lon="5.93243">
        <ele>592.8</ele>
        <time>2022-05-24T12:18:13Z</time>
      </trkpt>
      <trkpt lat="46.75423" lon="5.93246">
        <ele>592.8</ele>
        <time>2022-05-24T12:18:14Z</time>
      </trkpt>
      <trkpt lat="46.75425" lon="5.93248">
        <ele>593.2</ele>
        <time>2022-05-24T12:18:15Z</time>
      </trkpt>
      <trkpt lat="46.75428" lon="5.93251">
        <ele>593.2</ele>
        <time>2022-05-24T12:18:16Z</time>
      </trkpt>
      <trkpt lat="46.7543" lon="5.93254">
        <ele>593.4</ele>
        <time>2022-05-24T12:18:17Z</time>
      </trkpt>
      <trkpt lat="46.75432" lon="5.93256">
        <ele>593.4</ele>
        <time>2022-05-24T12:18:18Z</time>
      </trkpt>
      <trkpt lat="46.75434" lon="5.93258">
        <ele>593.6</ele>
        <time>2022-05-24T12:18:19Z</time>
      </trkpt>
      <trkpt lat="46.75436" lon="5.9326">
        <ele>593.6</ele>
        <time>2022-05-24T12:18:20Z</time>
      </trkpt>
      <trkpt lat="46.75438" lon="5.93262">
        <ele>594</ele>
        <time>2022-05-24T12:18:21Z</time>
      </trkpt>
      <trkpt lat="46.75441" lon="5.93264">
        <ele>594</ele>
        <time>2022-05-24T12:18:22Z</time>
      </trkpt>
      <trkpt lat="46.75443" lon="5.93266">
        <ele>594.2</ele>
        <time>2022-05-24T12:18:23Z</time>
      </trkpt>
      <trkpt lat="46.75446" lon="5.93268">
        <ele>594.2</ele>
        <time>2022-05-24T12:18:24Z</time>
      </trkpt>
      <trkpt lat="46.75448" lon="5.93271">
        <ele>594.6</ele>
        <time>2022-05-24T12:18:25Z</time>
      </trkpt>
      <trkpt lat="46.75451" lon="5.93273">
        <ele>594.6</ele>
        <time>2022-05-24T12:18:26Z</time>
      </trkpt>
      <trkpt lat="46.75453" lon="5.93275">
        <ele>594.8</ele>
        <time>2022-05-24T12:18:27Z</time>
      </trkpt>
      <trkpt lat="46.75456" lon="5.93277">
        <ele>594.8</ele>
        <time>2022-05-24T12:18:28Z</time>
      </trkpt>
      <trkpt lat="46.75458" lon="5.93279">
        <ele>595.2</ele>
        <time>2022-05-24T12:18:29Z</time>
      </trkpt>
      <trkpt lat="46.75461" lon="5.93281">
        <ele>595.2</ele>
        <time>2022-05-24T12:18:30Z</time>
      </trkpt>
      <trkpt lat="46.75463" lon="5.93283">
        <ele>595.6</ele>
        <time>2022-05-24T12:18:31Z</time>
      </trkpt>
      <trkpt lat="46.75466" lon="5.93285">
        <ele>595.8</ele>
        <time>2022-05-24T12:18:32Z</time>
      </trkpt>
      <trkpt lat="46.75468" lon="5.93287">
        <ele>595.8</ele>
        <time>2022-05-24T12:18:33Z</time>
      </trkpt>
      <trkpt lat="46.75471" lon="5.9329">
        <ele>596</ele>
        <time>2022-05-24T12:18:34Z</time>
      </trkpt>
      <trkpt lat="46.75474" lon="5.93291">
        <ele>596</ele>
        <time>2022-05-24T12:18:35Z</time>
      </trkpt>
      <trkpt lat="46.75476" lon="5.93293">
        <ele>596.4</ele>
        <time>2022-05-24T12:18:36Z</time>
      </trkpt>
      <trkpt lat="46.75479" lon="5.93295">
        <ele>596.4</ele>
        <time>2022-05-24T12:18:37Z</time>
      </trkpt>
      <trkpt lat="46.75482" lon="5.93297">
        <ele>596.6</ele>
        <time>2022-05-24T12:18:38Z</time>
      </trkpt>
      <trkpt lat="46.75484" lon="5.93299">
        <ele>596.6</ele>
        <time>2022-05-24T12:18:39Z</time>
      </trkpt>
      <trkpt lat="46.75487" lon="5.93301">
        <ele>596.8</ele>
        <time>2022-05-24T12:18:40Z</time>
      </trkpt>
      <trkpt lat="46.7549" lon="5.93303">
        <ele>596.8</ele>
        <time>2022-05-24T12:18:41Z</time>
      </trkpt>
      <trkpt lat="46.75492" lon="5.93305">
        <ele>597.2</ele>
        <time>2022-05-24T12:18:42Z</time>
      </trkpt>
      <trkpt lat="46.75495" lon="5.93307">
        <ele>597.4</ele>
        <time>2022-05-24T12:18:43Z</time>
      </trkpt>
      <trkpt lat="46.75497" lon="5.9331">
        <ele>597.8</ele>
        <time>2022-05-24T12:18:44Z</time>
      </trkpt>
      <trkpt lat="46.75499" lon="5.93312">
        <ele>598</ele>
        <time>2022-05-24T12:18:45Z</time>
      </trkpt>
      <trkpt lat="46.75502" lon="5.93314">
        <ele>598</ele>
        <time>2022-05-24T12:18:46Z</time>
      </trkpt>
      <trkpt lat="46.75505" lon="5.93316">
        <ele>598.2</ele>
        <time>2022-05-24T12:18:47Z</time>
      </trkpt>
      <trkpt lat="46.75507" lon="5.93318">
        <ele>598.2</ele>
        <time>2022-05-24T12:18:48Z</time>
      </trkpt>
      <trkpt lat="46.7551" lon="5.93321">
        <ele>598.6</ele>
        <time>2022-05-24T12:18:49Z</time>
      </trkpt>
      <trkpt lat="46.75513" lon="5.93323">
        <ele>598.6</ele>
        <time>2022-05-24T12:18:50Z</time>
      </trkpt>
      <trkpt lat="46.75516" lon="5.93325">
        <ele>599</ele>
        <time>2022-05-24T12:18:51Z</time>
      </trkpt>
      <trkpt lat="46.75519" lon="5.93327">
        <ele>599</ele>
        <time>2022-05-24T12:18:52Z</time>
      </trkpt>
      <trkpt lat="46.75522" lon="5.93328">
        <ele>599.4</ele>
        <time>2022-05-24T12:18:53Z</time>
      </trkpt>
      <trkpt lat="46.75524" lon="5.9333">
        <ele>599.4</ele>
        <time>2022-05-24T12:18:54Z</time>
      </trkpt>
      <trkpt lat="46.75527" lon="5.93332">
        <ele>599.8</ele>
        <time>2022-05-24T12:18:55Z</time>
      </trkpt>
      <trkpt lat="46.75529" lon="5.93334">
        <ele>600</ele>
        <time>2022-05-24T12:18:56Z</time>
      </trkpt>
      <trkpt lat="46.75532" lon="5.93335">
        <ele>600.4</ele>
        <time>2022-05-24T12:18:57Z</time>
      </trkpt>
      <trkpt lat="46.75534" lon="5.93335">
        <ele>600.6</ele>
        <time>2022-05-24T12:18:58Z</time>
      </trkpt>
      <trkpt lat="46.75537" lon="5.93336">
        <ele>600.8</ele>
        <time>2022-05-24T12:18:59Z</time>
      </trkpt>
      <trkpt lat="46.7554" lon="5.93337">
        <ele>600.8</ele>
        <time>2022-05-24T12:19:00Z</time>
      </trkpt>
      <trkpt lat="46.75543" lon="5.93339">
        <ele>601.2</ele>
        <time>2022-05-24T12:19:01Z</time>
      </trkpt>
      <trkpt lat="46.75546" lon="5.93341">
        <ele>601.6</ele>
        <time>2022-05-24T12:19:02Z</time>
      </trkpt>
      <trkpt lat="46.75548" lon="5.93342">
        <ele>601.8</ele>
        <time>2022-05-24T12:19:03Z</time>
      </trkpt>
      <trkpt lat="46.75551" lon="5.93344">
        <ele>602.2</ele>
        <time>2022-05-24T12:19:04Z</time>
      </trkpt>
      <trkpt lat="46.75553" lon="5.93346">
        <ele>602.4</ele>
        <time>2022-05-24T12:19:05Z</time>
      </trkpt>
      <trkpt lat="46.75556" lon="5.93347">
        <ele>602.6</ele>
        <time>2022-05-24T12:19:06Z</time>
      </trkpt>
      <trkpt lat="46.75558" lon="5.93349">
        <ele>602.8</ele>
        <time>2022-05-24T12:19:07Z</time>
      </trkpt>
      <trkpt lat="46.75561" lon="5.93349">
        <ele>603</ele>
        <time>2022-05-24T12:19:08Z</time>
      </trkpt>
      <trkpt lat="46.75563" lon="5.9335">
        <ele>603.4</ele>
        <time>2022-05-24T12:19:09Z</time>
      </trkpt>
      <trkpt lat="46.75566" lon="5.9335">
        <ele>603.6</ele>
        <time>2022-05-24T12:19:10Z</time>
      </trkpt>
      <trkpt lat="46.75569" lon="5.93351">
        <ele>603.8</ele>
        <time>2022-05-24T12:19:11Z</time>
      </trkpt>
      <trkpt lat="46.75571" lon="5.93352">
        <ele>604</ele>
        <time>2022-05-24T12:19:12Z</time>
      </trkpt>
      <trkpt lat="46.75574" lon="5.93353">
        <ele>604.4</ele>
        <time>2022-05-24T12:19:13Z</time>
      </trkpt>
      <trkpt lat="46.75576" lon="5.93355">
        <ele>604.6</ele>
        <time>2022-05-24T12:19:14Z</time>
      </trkpt>
      <trkpt lat="46.75579" lon="5.93356">
        <ele>604.8</ele>
        <time>2022-05-24T12:19:15Z</time>
      </trkpt>
      <trkpt lat="46.75581" lon="5.93357">
        <ele>605.2</ele>
        <time>2022-05-24T12:19:16Z</time>
      </trkpt>
      <trkpt lat="46.75584" lon="5.93359">
        <ele>605.4</ele>
        <time>2022-05-24T12:19:17Z</time>
      </trkpt>
      <trkpt lat="46.75587" lon="5.9336">
        <ele>605.6</ele>
        <time>2022-05-24T12:19:18Z</time>
      </trkpt>
      <trkpt lat="46.75589" lon="5.93361">
        <ele>605.6</ele>
        <time>2022-05-24T12:19:19Z</time>
      </trkpt>
      <trkpt lat="46.75592" lon="5.93362">
        <ele>606</ele>
        <time>2022-05-24T12:19:20Z</time>
      </trkpt>
      <trkpt lat="46.75595" lon="5.93362">
        <ele>606.4</ele>
        <time>2022-05-24T12:19:21Z</time>
      </trkpt>
      <trkpt lat="46.75597" lon="5.93363">
        <ele>606.6</ele>
        <time>2022-05-24T12:19:22Z</time>
      </trkpt>
      <trkpt lat="46.756" lon="5.93364">
        <ele>606.8</ele>
        <time>2022-05-24T12:19:23Z</time>
      </trkpt>
      <trkpt lat="46.75603" lon="5.93366">
        <ele>606.8</ele>
        <time>2022-05-24T12:19:24Z</time>
      </trkpt>
      <trkpt lat="46.75605" lon="5.93367">
        <ele>607.2</ele>
        <time>2022-05-24T12:19:25Z</time>
      </trkpt>
      <trkpt lat="46.75608" lon="5.93369">
        <ele>607.4</ele>
        <time>2022-05-24T12:19:26Z</time>
      </trkpt>
      <trkpt lat="46.75611" lon="5.9337">
        <ele>607.4</ele>
        <time>2022-05-24T12:19:27Z</time>
      </trkpt>
      <trkpt lat="46.75614" lon="5.93371">
        <ele>607.8</ele>
        <time>2022-05-24T12:19:28Z</time>
      </trkpt>
      <trkpt lat="46.75617" lon="5.93373">
        <ele>608</ele>
        <time>2022-05-24T12:19:29Z</time>
      </trkpt>
      <trkpt lat="46.7562" lon="5.93374">
        <ele>608</ele>
        <time>2022-05-24T12:19:30Z</time>
      </trkpt>
      <trkpt lat="46.75623" lon="5.93375">
        <ele>608.4</ele>
        <time>2022-05-24T12:19:31Z</time>
      </trkpt>
      <trkpt lat="46.75626" lon="5.93376">
        <ele>608.4</ele>
        <time>2022-05-24T12:19:32Z</time>
      </trkpt>
      <trkpt lat="46.75628" lon="5.93378">
        <ele>608.8</ele>
        <time>2022-05-24T12:19:33Z</time>
      </trkpt>
      <trkpt lat="46.75631" lon="5.93379">
        <ele>608.8</ele>
        <time>2022-05-24T12:19:34Z</time>
      </trkpt>
      <trkpt lat="46.75634" lon="5.93381">
        <ele>609.2</ele>
        <time>2022-05-24T12:19:35Z</time>
      </trkpt>
      <trkpt lat="46.75637" lon="5.93382">
        <ele>609.2</ele>
        <time>2022-05-24T12:19:36Z</time>
      </trkpt>
      <trkpt lat="46.75641" lon="5.93383">
        <ele>609.6</ele>
        <time>2022-05-24T12:19:37Z</time>
      </trkpt>
      <trkpt lat="46.75644" lon="5.93385">
        <ele>609.6</ele>
        <time>2022-05-24T12:19:38Z</time>
      </trkpt>
      <trkpt lat="46.75647" lon="5.93387">
        <ele>609.8</ele>
        <time>2022-05-24T12:19:39Z</time>
      </trkpt>
      <trkpt lat="46.7565" lon="5.93388">
        <ele>609.8</ele>
        <time>2022-05-24T12:19:40Z</time>
      </trkpt>
      <trkpt lat="46.75653" lon="5.9339">
        <ele>610</ele>
        <time>2022-05-24T12:19:41Z</time>
      </trkpt>
      <trkpt lat="46.75656" lon="5.93393">
        <ele>610</ele>
        <time>2022-05-24T12:19:42Z</time>
      </trkpt>
      <trkpt lat="46.75659" lon="5.93395">
        <ele>610</ele>
        <time>2022-05-24T12:19:43Z</time>
      </trkpt>
      <trkpt lat="46.75662" lon="5.93398">
        <ele>610.2</ele>
        <time>2022-05-24T12:19:44Z</time>
      </trkpt>
      <trkpt lat="46.75666" lon="5.934">
        <ele>610.2</ele>
        <time>2022-05-24T12:19:45Z</time>
      </trkpt>
      <trkpt lat="46.75669" lon="5.93403">
        <ele>610.2</ele>
        <time>2022-05-24T12:19:46Z</time>
      </trkpt>
      <trkpt lat="46.75673" lon="5.93406">
        <ele>610.6</ele>
        <time>2022-05-24T12:19:47Z</time>
      </trkpt>
      <trkpt lat="46.75676" lon="5.9341">
        <ele>610.6</ele>
        <time>2022-05-24T12:19:48Z</time>
      </trkpt>
      <trkpt lat="46.75679" lon="5.93414">
        <ele>610.6</ele>
        <time>2022-05-24T12:19:49Z</time>
      </trkpt>
      <trkpt lat="46.75683" lon="5.93418">
        <ele>610.8</ele>
        <time>2022-05-24T12:19:50Z</time>
      </trkpt>
      <trkpt lat="46.75686" lon="5.93422">
        <ele>610.8</ele>
        <time>2022-05-24T12:19:51Z</time>
      </trkpt>
      <trkpt lat="46.75689" lon="5.93426">
        <ele>610.8</ele>
        <time>2022-05-24T12:19:52Z</time>
      </trkpt>
      <trkpt lat="46.75692" lon="5.93431">
        <ele>610.8</ele>
        <time>2022-05-24T12:19:53Z</time>
      </trkpt>
      <trkpt lat="46.75696" lon="5.93435">
        <ele>610.8</ele>
        <time>2022-05-24T12:19:54Z</time>
      </trkpt>
      <trkpt lat="46.75699" lon="5.9344">
        <ele>611</ele>
        <time>2022-05-24T12:19:55Z</time>
      </trkpt>
      <trkpt lat="46.75702" lon="5.93445">
        <ele>611</ele>
        <time>2022-05-24T12:19:56Z</time>
      </trkpt>
      <trkpt lat="46.75705" lon="5.93451">
        <ele>611.2</ele>
        <time>2022-05-24T12:19:57Z</time>
      </trkpt>
      <trkpt lat="46.75708" lon="5.93456">
        <ele>611.2</ele>
        <time>2022-05-24T12:19:58Z</time>
      </trkpt>
      <trkpt lat="46.75712" lon="5.93461">
        <ele>611.2</ele>
        <time>2022-05-24T12:19:59Z</time>
      </trkpt>
      <trkpt lat="46.75714" lon="5.93467">
        <ele>611.2</ele>
        <time>2022-05-24T12:20:00Z</time>
      </trkpt>
      <trkpt lat="46.75717" lon="5.93472">
        <ele>611.4</ele>
        <time>2022-05-24T12:20:01Z</time>
      </trkpt>
      <trkpt lat="46.7572" lon="5.93478">
        <ele>611.4</ele>
        <time>2022-05-24T12:20:02Z</time>
      </trkpt>
      <trkpt lat="46.75723" lon="5.93484">
        <ele>611.6</ele>
        <time>2022-05-24T12:20:03Z</time>
      </trkpt>
      <trkpt lat="46.75726" lon="5.93489">
        <ele>611.6</ele>
        <time>2022-05-24T12:20:04Z</time>
      </trkpt>
      <trkpt lat="46.75728" lon="5.93495">
        <ele>612</ele>
        <time>2022-05-24T12:20:05Z</time>
      </trkpt>
      <trkpt lat="46.75731" lon="5.93501">
        <ele>612</ele>
        <time>2022-05-24T12:20:06Z</time>
      </trkpt>
      <trkpt lat="46.75733" lon="5.93507">
        <ele>612</ele>
        <time>2022-05-24T12:20:07Z</time>
      </trkpt>
      <trkpt lat="46.75735" lon="5.93512">
        <ele>612.2</ele>
        <time>2022-05-24T12:20:08Z</time>
      </trkpt>
      <trkpt lat="46.75737" lon="5.93518">
        <ele>612.4</ele>
        <time>2022-05-24T12:20:09Z</time>
      </trkpt>
      <trkpt lat="46.7574" lon="5.93523">
        <ele>612.4</ele>
        <time>2022-05-24T12:20:10Z</time>
      </trkpt>
      <trkpt lat="46.75742" lon="5.93528">
        <ele>612.8</ele>
        <time>2022-05-24T12:20:11Z</time>
      </trkpt>
      <trkpt lat="46.75745" lon="5.93533">
        <ele>612.8</ele>
        <time>2022-05-24T12:20:12Z</time>
      </trkpt>
      <trkpt lat="46.75747" lon="5.93538">
        <ele>613.2</ele>
        <time>2022-05-24T12:20:13Z</time>
      </trkpt>
      <trkpt lat="46.75749" lon="5.93543">
        <ele>613.4</ele>
        <time>2022-05-24T12:20:14Z</time>
      </trkpt>
      <trkpt lat="46.75751" lon="5.93548">
        <ele>613.4</ele>
        <time>2022-05-24T12:20:15Z</time>
      </trkpt>
      <trkpt lat="46.75753" lon="5.93553">
        <ele>613.8</ele>
        <time>2022-05-24T12:20:16Z</time>
      </trkpt>
      <trkpt lat="46.75755" lon="5.93558">
        <ele>613.8</ele>
        <time>2022-05-24T12:20:17Z</time>
      </trkpt>
      <trkpt lat="46.75757" lon="5.93563">
        <ele>614</ele>
        <time>2022-05-24T12:20:18Z</time>
      </trkpt>
      <trkpt lat="46.7576" lon="5.93568">
        <ele>614</ele>
        <time>2022-05-24T12:20:19Z</time>
      </trkpt>
      <trkpt lat="46.75762" lon="5.93573">
        <ele>614.2</ele>
        <time>2022-05-24T12:20:20Z</time>
      </trkpt>
      <trkpt lat="46.75765" lon="5.93579">
        <ele>614.2</ele>
        <time>2022-05-24T12:20:21Z</time>
      </trkpt>
      <trkpt lat="46.75767" lon="5.93584">
        <ele>614.2</ele>
        <time>2022-05-24T12:20:22Z</time>
      </trkpt>
      <trkpt lat="46.75769" lon="5.93589">
        <ele>614.6</ele>
        <time>2022-05-24T12:20:23Z</time>
      </trkpt>
      <trkpt lat="46.75772" lon="5.93595">
        <ele>614.6</ele>
        <time>2022-05-24T12:20:24Z</time>
      </trkpt>
      <trkpt lat="46.75774" lon="5.936">
        <ele>614.8</ele>
        <time>2022-05-24T12:20:25Z</time>
      </trkpt>
      <trkpt lat="46.75776" lon="5.93606">
        <ele>614.8</ele>
        <time>2022-05-24T12:20:26Z</time>
      </trkpt>
      <trkpt lat="46.75779" lon="5.93611">
        <ele>615</ele>
        <time>2022-05-24T12:20:27Z</time>
      </trkpt>
      <trkpt lat="46.75781" lon="5.93617">
        <ele>615</ele>
        <time>2022-05-24T12:20:28Z</time>
      </trkpt>
      <trkpt lat="46.75783" lon="5.93623">
        <ele>615</ele>
        <time>2022-05-24T12:20:29Z</time>
      </trkpt>
      <trkpt lat="46.75786" lon="5.93628">
        <ele>615.4</ele>
        <time>2022-05-24T12:20:30Z</time>
      </trkpt>
      <trkpt lat="46.75788" lon="5.93634">
        <ele>615.4</ele>
        <time>2022-05-24T12:20:31Z</time>
      </trkpt>
      <trkpt lat="46.75791" lon="5.93639">
        <ele>615.6</ele>
        <time>2022-05-24T12:20:32Z</time>
      </trkpt>
      <trkpt lat="46.75793" lon="5.93644">
        <ele>615.6</ele>
        <time>2022-05-24T12:20:33Z</time>
      </trkpt>
      <trkpt lat="46.75796" lon="5.9365">
        <ele>616</ele>
        <time>2022-05-24T12:20:34Z</time>
      </trkpt>
      <trkpt lat="46.75798" lon="5.93655">
        <ele>616.2</ele>
        <time>2022-05-24T12:20:35Z</time>
      </trkpt>
      <trkpt lat="46.75801" lon="5.93661">
        <ele>616.2</ele>
        <time>2022-05-24T12:20:36Z</time>
      </trkpt>
      <trkpt lat="46.75803" lon="5.93667">
        <ele>616.2</ele>
        <time>2022-05-24T12:20:37Z</time>
      </trkpt>
      <trkpt lat="46.75805" lon="5.93672">
        <ele>616.2</ele>
        <time>2022-05-24T12:20:38Z</time>
      </trkpt>
      <trkpt lat="46.75808" lon="5.93678">
        <ele>616.2</ele>
        <time>2022-05-24T12:20:39Z</time>
      </trkpt>
      <trkpt lat="46.7581" lon="5.93684">
        <ele>616.2</ele>
        <time>2022-05-24T12:20:40Z</time>
      </trkpt>
      <trkpt lat="46.75813" lon="5.9369">
        <ele>616.4</ele>
        <time>2022-05-24T12:20:41Z</time>
      </trkpt>
      <trkpt lat="46.75816" lon="5.93697">
        <ele>616.4</ele>
        <time>2022-05-24T12:20:42Z</time>
      </trkpt>
      <trkpt lat="46.75818" lon="5.93704">
        <ele>616.4</ele>
        <time>2022-05-24T12:20:43Z</time>
      </trkpt>
      <trkpt lat="46.75821" lon="5.93711">
        <ele>616.8</ele>
        <time>2022-05-24T12:20:44Z</time>
      </trkpt>
      <trkpt lat="46.75823" lon="5.93718">
        <ele>616.8</ele>
        <time>2022-05-24T12:20:45Z</time>
      </trkpt>
      <trkpt lat="46.75826" lon="5.93725">
        <ele>617</ele>
        <time>2022-05-24T12:20:46Z</time>
      </trkpt>
      <trkpt lat="46.75828" lon="5.93732">
        <ele>617</ele>
        <time>2022-05-24T12:20:47Z</time>
      </trkpt>
      <trkpt lat="46.75831" lon="5.93739">
        <ele>617</ele>
        <time>2022-05-24T12:20:48Z</time>
      </trkpt>
      <trkpt lat="46.75833" lon="5.93746">
        <ele>617</ele>
        <time>2022-05-24T12:20:49Z</time>
      </trkpt>
      <trkpt lat="46.75836" lon="5.93753">
        <ele>617</ele>
        <time>2022-05-24T12:20:50Z</time>
      </trkpt>
      <trkpt lat="46.75837" lon="5.93761">
        <ele>617</ele>
        <time>2022-05-24T12:20:51Z</time>
      </trkpt>
      <trkpt lat="46.75839" lon="5.93769">
        <ele>617</ele>
        <time>2022-05-24T12:20:52Z</time>
      </trkpt>
      <trkpt lat="46.7584" lon="5.93777">
        <ele>617</ele>
        <time>2022-05-24T12:20:53Z</time>
      </trkpt>
      <trkpt lat="46.75841" lon="5.93785">
        <ele>617</ele>
        <time>2022-05-24T12:20:54Z</time>
      </trkpt>
      <trkpt lat="46.75843" lon="5.93792">
        <ele>617</ele>
        <time>2022-05-24T12:20:55Z</time>
      </trkpt>
      <trkpt lat="46.75844" lon="5.938">
        <ele>617</ele>
        <time>2022-05-24T12:20:56Z</time>
      </trkpt>
      <trkpt lat="46.75846" lon="5.93807">
        <ele>617</ele>
        <time>2022-05-24T12:20:57Z</time>
      </trkpt>
      <trkpt lat="46.75847" lon="5.93813">
        <ele>617.2</ele>
        <time>2022-05-24T12:20:58Z</time>
      </trkpt>
      <trkpt lat="46.75848" lon="5.9382">
        <ele>617.2</ele>
        <time>2022-05-24T12:20:59Z</time>
      </trkpt>
      <trkpt lat="46.75849" lon="5.93826">
        <ele>617.4</ele>
        <time>2022-05-24T12:21:00Z</time>
      </trkpt>
      <trkpt lat="46.7585" lon="5.93832">
        <ele>617.4</ele>
        <time>2022-05-24T12:21:01Z</time>
      </trkpt>
      <trkpt lat="46.75852" lon="5.93838">
        <ele>617.8</ele>
        <time>2022-05-24T12:21:02Z</time>
      </trkpt>
      <trkpt lat="46.75853" lon="5.93844">
        <ele>617.8</ele>
        <time>2022-05-24T12:21:03Z</time>
      </trkpt>
      <trkpt lat="46.75854" lon="5.93849">
        <ele>618.2</ele>
        <time>2022-05-24T12:21:04Z</time>
      </trkpt>
      <trkpt lat="46.75855" lon="5.93855">
        <ele>618.2</ele>
        <time>2022-05-24T12:21:05Z</time>
      </trkpt>
      <trkpt lat="46.75856" lon="5.93861">
        <ele>618.4</ele>
        <time>2022-05-24T12:21:06Z</time>
      </trkpt>
      <trkpt lat="46.75858" lon="5.93867">
        <ele>618.4</ele>
        <time>2022-05-24T12:21:07Z</time>
      </trkpt>
      <trkpt lat="46.75859" lon="5.93873">
        <ele>618.4</ele>
        <time>2022-05-24T12:21:08Z</time>
      </trkpt>
      <trkpt lat="46.7586" lon="5.93879">
        <ele>618.6</ele>
        <time>2022-05-24T12:21:09Z</time>
      </trkpt>
      <trkpt lat="46.75862" lon="5.93884">
        <ele>618.6</ele>
        <time>2022-05-24T12:21:10Z</time>
      </trkpt>
      <trkpt lat="46.75863" lon="5.9389">
        <ele>618.6</ele>
        <time>2022-05-24T12:21:11Z</time>
      </trkpt>
      <trkpt lat="46.75864" lon="5.93896">
        <ele>618.6</ele>
        <time>2022-05-24T12:21:12Z</time>
      </trkpt>
      <trkpt lat="46.75865" lon="5.93902">
        <ele>618.6</ele>
        <time>2022-05-24T12:21:13Z</time>
      </trkpt>
      <trkpt lat="46.75866" lon="5.93908">
        <ele>618.6</ele>
        <time>2022-05-24T12:21:14Z</time>
      </trkpt>
      <trkpt lat="46.75867" lon="5.93914">
        <ele>618.6</ele>
        <time>2022-05-24T12:21:15Z</time>
      </trkpt>
      <trkpt lat="46.75868" lon="5.9392">
        <ele>618.6</ele>
        <time>2022-05-24T12:21:16Z</time>
      </trkpt>
      <trkpt lat="46.75869" lon="5.93925">
        <ele>618.6</ele>
        <time>2022-05-24T12:21:17Z</time>
      </trkpt>
      <trkpt lat="46.7587" lon="5.93931">
        <ele>618.6</ele>
        <time>2022-05-24T12:21:18Z</time>
      </trkpt>
      <trkpt lat="46.7587" lon="5.93935">
        <ele>618.6</ele>
        <time>2022-05-24T12:21:19Z</time>
      </trkpt>
      <trkpt lat="46.75871" lon="5.93939">
        <ele>618.6</ele>
        <time>2022-05-24T12:21:20Z</time>
      </trkpt>
      <trkpt lat="46.75871" lon="5.93942">
        <ele>618.6</ele>
        <time>2022-05-24T12:21:21Z</time>
      </trkpt>
      <trkpt lat="46.75872" lon="5.93945">
        <ele>618.6</ele>
        <time>2022-05-24T12:21:22Z</time>
      </trkpt>
      <trkpt lat="46.75873" lon="5.93948">
        <ele>618.6</ele>
        <time>2022-05-24T12:21:23Z</time>
      </trkpt>
      <trkpt lat="46.75875" lon="5.9395">
        <ele>618.6</ele>
        <time>2022-05-24T12:21:24Z</time>
      </trkpt>
      <trkpt lat="46.75876" lon="5.93953">
        <ele>618.6</ele>
        <time>2022-05-24T12:21:25Z</time>
      </trkpt>
      <trkpt lat="46.75877" lon="5.93955">
        <ele>618.6</ele>
        <time>2022-05-24T12:21:26Z</time>
      </trkpt>
      <trkpt lat="46.75877" lon="5.93956">
        <ele>618.6</ele>
        <time>2022-05-24T12:21:27Z</time>
      </trkpt>
      <trkpt lat="46.75878" lon="5.93958">
        <ele>618.6</ele>
        <time>2022-05-24T12:21:28Z</time>
      </trkpt>
      <trkpt lat="46.75878" lon="5.93959">
        <ele>618.6</ele>
        <time>2022-05-24T12:21:29Z</time>
      </trkpt>
      <trkpt lat="46.75877" lon="5.93959">
        <ele>618.6</ele>
        <time>2022-05-24T12:21:30Z</time>
      </trkpt>
      <trkpt lat="46.75877" lon="5.93964">
        <ele>618.6</ele>
        <time>2022-05-24T12:21:32Z</time>
      </trkpt>
      <trkpt lat="46.75877" lon="5.93967">
        <ele>618.4</ele>
        <time>2022-05-24T12:21:33Z</time>
      </trkpt>
      <trkpt lat="46.75878" lon="5.93969">
        <ele>618.4</ele>
        <time>2022-05-24T12:21:34Z</time>
      </trkpt>
      <trkpt lat="46.75879" lon="5.93972">
        <ele>618.4</ele>
        <time>2022-05-24T12:21:35Z</time>
      </trkpt>
      <trkpt lat="46.75879" lon="5.93972">
        <ele>618.4</ele>
        <time>2022-05-24T12:21:36Z</time>
      </trkpt>
      <trkpt lat="46.7588" lon="5.93974">
        <ele>618.4</ele>
        <time>2022-05-24T12:21:37Z</time>
      </trkpt>
      <trkpt lat="46.7588" lon="5.93976">
        <ele>618.4</ele>
        <time>2022-05-24T12:21:38Z</time>
      </trkpt>
      <trkpt lat="46.75881" lon="5.93978">
        <ele>618.4</ele>
        <time>2022-05-24T12:21:39Z</time>
      </trkpt>
      <trkpt lat="46.75882" lon="5.93981">
        <ele>618.6</ele>
        <time>2022-05-24T12:21:40Z</time>
      </trkpt>
      <trkpt lat="46.75883" lon="5.93984">
        <ele>618.6</ele>
        <time>2022-05-24T12:21:41Z</time>
      </trkpt>
      <trkpt lat="46.75884" lon="5.93987">
        <ele>618.8</ele>
        <time>2022-05-24T12:21:42Z</time>
      </trkpt>
      <trkpt lat="46.75884" lon="5.9399">
        <ele>618.8</ele>
        <time>2022-05-24T12:21:43Z</time>
      </trkpt>
      <trkpt lat="46.75885" lon="5.93994">
        <ele>619.2</ele>
        <time>2022-05-24T12:21:44Z</time>
      </trkpt>
      <trkpt lat="46.75885" lon="5.93998">
        <ele>619.2</ele>
        <time>2022-05-24T12:21:45Z</time>
      </trkpt>
      <trkpt lat="46.75885" lon="5.94002">
        <ele>619.2</ele>
        <time>2022-05-24T12:21:46Z</time>
      </trkpt>
      <trkpt lat="46.75885" lon="5.94006">
        <ele>619.4</ele>
        <time>2022-05-24T12:21:47Z</time>
      </trkpt>
      <trkpt lat="46.75884" lon="5.94011">
        <ele>619.4</ele>
        <time>2022-05-24T12:21:48Z</time>
      </trkpt>
      <trkpt lat="46.75884" lon="5.94015">
        <ele>619.4</ele>
        <time>2022-05-24T12:21:49Z</time>
      </trkpt>
      <trkpt lat="46.75883" lon="5.9402">
        <ele>619.4</ele>
        <time>2022-05-24T12:21:50Z</time>
      </trkpt>
      <trkpt lat="46.75882" lon="5.94024">
        <ele>619.6</ele>
        <time>2022-05-24T12:21:51Z</time>
      </trkpt>
      <trkpt lat="46.7588" lon="5.94028">
        <ele>619.6</ele>
        <time>2022-05-24T12:21:52Z</time>
      </trkpt>
      <trkpt lat="46.75878" lon="5.94032">
        <ele>619.6</ele>
        <time>2022-05-24T12:21:53Z</time>
      </trkpt>
      <trkpt lat="46.75876" lon="5.94035">
        <ele>619.6</ele>
        <time>2022-05-24T12:21:54Z</time>
      </trkpt>
      <trkpt lat="46.75873" lon="5.94037">
        <ele>619.6</ele>
        <time>2022-05-24T12:21:55Z</time>
      </trkpt>
      <trkpt lat="46.7587" lon="5.94039">
        <ele>619.6</ele>
        <time>2022-05-24T12:21:56Z</time>
      </trkpt>
      <trkpt lat="46.75866" lon="5.94041">
        <ele>619.6</ele>
        <time>2022-05-24T12:21:57Z</time>
      </trkpt>
      <trkpt lat="46.75863" lon="5.94044">
        <ele>619.6</ele>
        <time>2022-05-24T12:21:58Z</time>
      </trkpt>
      <trkpt lat="46.7586" lon="5.94049">
        <ele>619.6</ele>
        <time>2022-05-24T12:21:59Z</time>
      </trkpt>
      <trkpt lat="46.75858" lon="5.94054">
        <ele>619.6</ele>
        <time>2022-05-24T12:22:00Z</time>
      </trkpt>
      <trkpt lat="46.75856" lon="5.94061">
        <ele>619.6</ele>
        <time>2022-05-24T12:22:01Z</time>
      </trkpt>
      <trkpt lat="46.75855" lon="5.94068">
        <ele>619.4</ele>
        <time>2022-05-24T12:22:02Z</time>
      </trkpt>
      <trkpt lat="46.75855" lon="5.94075">
        <ele>619.4</ele>
        <time>2022-05-24T12:22:03Z</time>
      </trkpt>
      <trkpt lat="46.75855" lon="5.94082">
        <ele>619.4</ele>
        <time>2022-05-24T12:22:04Z</time>
      </trkpt>
      <trkpt lat="46.75855" lon="5.94089">
        <ele>619.4</ele>
        <time>2022-05-24T12:22:05Z</time>
      </trkpt>
      <trkpt lat="46.75855" lon="5.94096">
        <ele>619.4</ele>
        <time>2022-05-24T12:22:06Z</time>
      </trkpt>
      <trkpt lat="46.75854" lon="5.94104">
        <ele>619.4</ele>
        <time>2022-05-24T12:22:07Z</time>
      </trkpt>
      <trkpt lat="46.75853" lon="5.94111">
        <ele>619.4</ele>
        <time>2022-05-24T12:22:08Z</time>
      </trkpt>
      <trkpt lat="46.75852" lon="5.94118">
        <ele>619.4</ele>
        <time>2022-05-24T12:22:09Z</time>
      </trkpt>
      <trkpt lat="46.75851" lon="5.94125">
        <ele>619.6</ele>
        <time>2022-05-24T12:22:10Z</time>
      </trkpt>
      <trkpt lat="46.75849" lon="5.94132">
        <ele>619.6</ele>
        <time>2022-05-24T12:22:11Z</time>
      </trkpt>
      <trkpt lat="46.75848" lon="5.94139">
        <ele>619.6</ele>
        <time>2022-05-24T12:22:12Z</time>
      </trkpt>
      <trkpt lat="46.75846" lon="5.94146">
        <ele>620</ele>
        <time>2022-05-24T12:22:13Z</time>
      </trkpt>
      <trkpt lat="46.75844" lon="5.94154">
        <ele>620</ele>
        <time>2022-05-24T12:22:14Z</time>
      </trkpt>
      <trkpt lat="46.75842" lon="5.94161">
        <ele>620</ele>
        <time>2022-05-24T12:22:15Z</time>
      </trkpt>
      <trkpt lat="46.7584" lon="5.94168">
        <ele>620</ele>
        <time>2022-05-24T12:22:16Z</time>
      </trkpt>
      <trkpt lat="46.75838" lon="5.94175">
        <ele>620.2</ele>
        <time>2022-05-24T12:22:17Z</time>
      </trkpt>
      <trkpt lat="46.75836" lon="5.94182">
        <ele>620.2</ele>
        <time>2022-05-24T12:22:18Z</time>
      </trkpt>
      <trkpt lat="46.75834" lon="5.94189">
        <ele>620.2</ele>
        <time>2022-05-24T12:22:19Z</time>
      </trkpt>
      <trkpt lat="46.75832" lon="5.94196">
        <ele>620.2</ele>
        <time>2022-05-24T12:22:20Z</time>
      </trkpt>
      <trkpt lat="46.7583" lon="5.94203">
        <ele>620.2</ele>
        <time>2022-05-24T12:22:21Z</time>
      </trkpt>
      <trkpt lat="46.75828" lon="5.9421">
        <ele>620.2</ele>
        <time>2022-05-24T12:22:22Z</time>
      </trkpt>
      <trkpt lat="46.75826" lon="5.94217">
        <ele>620.2</ele>
        <time>2022-05-24T12:22:23Z</time>
      </trkpt>
      <trkpt lat="46.75824" lon="5.94223">
        <ele>620.2</ele>
        <time>2022-05-24T12:22:24Z</time>
      </trkpt>
      <trkpt lat="46.75821" lon="5.9423">
        <ele>620.4</ele>
        <time>2022-05-24T12:22:25Z</time>
      </trkpt>
      <trkpt lat="46.75819" lon="5.94237">
        <ele>620.4</ele>
        <time>2022-05-24T12:22:26Z</time>
      </trkpt>
      <trkpt lat="46.75817" lon="5.94244">
        <ele>620.4</ele>
        <time>2022-05-24T12:22:27Z</time>
      </trkpt>
      <trkpt lat="46.75815" lon="5.94251">
        <ele>620.4</ele>
        <time>2022-05-24T12:22:28Z</time>
      </trkpt>
      <trkpt lat="46.75813" lon="5.94258">
        <ele>620.4</ele>
        <time>2022-05-24T12:22:29Z</time>
      </trkpt>
      <trkpt lat="46.75811" lon="5.94265">
        <ele>620.4</ele>
        <time>2022-05-24T12:22:30Z</time>
      </trkpt>
      <trkpt lat="46.75808" lon="5.94272">
        <ele>620.6</ele>
        <time>2022-05-24T12:22:31Z</time>
      </trkpt>
      <trkpt lat="46.75806" lon="5.94279">
        <ele>620.6</ele>
        <time>2022-05-24T12:22:32Z</time>
      </trkpt>
      <trkpt lat="46.75804" lon="5.94286">
        <ele>620.6</ele>
        <time>2022-05-24T12:22:33Z</time>
      </trkpt>
      <trkpt lat="46.75802" lon="5.94293">
        <ele>620.6</ele>
        <time>2022-05-24T12:22:34Z</time>
      </trkpt>
      <trkpt lat="46.758" lon="5.943">
        <ele>620.6</ele>
        <time>2022-05-24T12:22:35Z</time>
      </trkpt>
      <trkpt lat="46.75798" lon="5.94307">
        <ele>620.6</ele>
        <time>2022-05-24T12:22:36Z</time>
      </trkpt>
      <trkpt lat="46.75796" lon="5.94314">
        <ele>620.6</ele>
        <time>2022-05-24T12:22:37Z</time>
      </trkpt>
      <trkpt lat="46.75794" lon="5.94321">
        <ele>620.6</ele>
        <time>2022-05-24T12:22:38Z</time>
      </trkpt>
      <trkpt lat="46.75791" lon="5.94328">
        <ele>620.6</ele>
        <time>2022-05-24T12:22:39Z</time>
      </trkpt>
      <trkpt lat="46.75789" lon="5.94335">
        <ele>620.6</ele>
        <time>2022-05-24T12:22:40Z</time>
      </trkpt>
      <trkpt lat="46.75787" lon="5.94342">
        <ele>620.8</ele>
        <time>2022-05-24T12:22:41Z</time>
      </trkpt>
      <trkpt lat="46.75785" lon="5.94349">
        <ele>620.8</ele>
        <time>2022-05-24T12:22:42Z</time>
      </trkpt>
      <trkpt lat="46.75782" lon="5.94357">
        <ele>620.8</ele>
        <time>2022-05-24T12:22:43Z</time>
      </trkpt>
      <trkpt lat="46.7578" lon="5.94364">
        <ele>620.8</ele>
        <time>2022-05-24T12:22:44Z</time>
      </trkpt>
      <trkpt lat="46.75778" lon="5.94372">
        <ele>620.8</ele>
        <time>2022-05-24T12:22:45Z</time>
      </trkpt>
      <trkpt lat="46.75775" lon="5.94379">
        <ele>621</ele>
        <time>2022-05-24T12:22:46Z</time>
      </trkpt>
      <trkpt lat="46.75773" lon="5.94387">
        <ele>621</ele>
        <time>2022-05-24T12:22:47Z</time>
      </trkpt>
      <trkpt lat="46.7577" lon="5.94394">
        <ele>621</ele>
        <time>2022-05-24T12:22:48Z</time>
      </trkpt>
      <trkpt lat="46.75768" lon="5.94402">
        <ele>621.4</ele>
        <time>2022-05-24T12:22:49Z</time>
      </trkpt>
      <trkpt lat="46.75765" lon="5.9441">
        <ele>621.4</ele>
        <time>2022-05-24T12:22:50Z</time>
      </trkpt>
      <trkpt lat="46.75762" lon="5.94418">
        <ele>621.4</ele>
        <time>2022-05-24T12:22:51Z</time>
      </trkpt>
      <trkpt lat="46.7576" lon="5.94426">
        <ele>621.4</ele>
        <time>2022-05-24T12:22:52Z</time>
      </trkpt>
      <trkpt lat="46.75757" lon="5.94434">
        <ele>621.4</ele>
        <time>2022-05-24T12:22:53Z</time>
      </trkpt>
      <trkpt lat="46.75755" lon="5.94442">
        <ele>621.4</ele>
        <time>2022-05-24T12:22:54Z</time>
      </trkpt>
      <trkpt lat="46.75752" lon="5.9445">
        <ele>621.6</ele>
        <time>2022-05-24T12:22:55Z</time>
      </trkpt>
      <trkpt lat="46.75749" lon="5.94458">
        <ele>621.6</ele>
        <time>2022-05-24T12:22:56Z</time>
      </trkpt>
      <trkpt lat="46.75747" lon="5.94466">
        <ele>621.4</ele>
        <time>2022-05-24T12:22:57Z</time>
      </trkpt>
      <trkpt lat="46.75744" lon="5.94474">
        <ele>621.4</ele>
        <time>2022-05-24T12:22:58Z</time>
      </trkpt>
      <trkpt lat="46.75742" lon="5.94482">
        <ele>621.4</ele>
        <time>2022-05-24T12:22:59Z</time>
      </trkpt>
      <trkpt lat="46.75739" lon="5.94491">
        <ele>621.4</ele>
        <time>2022-05-24T12:23:00Z</time>
      </trkpt>
      <trkpt lat="46.75737" lon="5.94499">
        <ele>621.4</ele>
        <time>2022-05-24T12:23:01Z</time>
      </trkpt>
      <trkpt lat="46.75734" lon="5.94507">
        <ele>621.4</ele>
        <time>2022-05-24T12:23:02Z</time>
      </trkpt>
      <trkpt lat="46.75731" lon="5.94515">
        <ele>621.4</ele>
        <time>2022-05-24T12:23:03Z</time>
      </trkpt>
      <trkpt lat="46.75729" lon="5.94523">
        <ele>621.4</ele>
        <time>2022-05-24T12:23:04Z</time>
      </trkpt>
      <trkpt lat="46.75726" lon="5.94531">
        <ele>621.4</ele>
        <time>2022-05-24T12:23:05Z</time>
      </trkpt>
      <trkpt lat="46.75723" lon="5.9454">
        <ele>621.4</ele>
        <time>2022-05-24T12:23:06Z</time>
      </trkpt>
      <trkpt lat="46.75721" lon="5.94548">
        <ele>621.4</ele>
        <time>2022-05-24T12:23:07Z</time>
      </trkpt>
      <trkpt lat="46.75718" lon="5.94556">
        <ele>621.4</ele>
        <time>2022-05-24T12:23:08Z</time>
      </trkpt>
      <trkpt lat="46.75715" lon="5.94564">
        <ele>621.4</ele>
        <time>2022-05-24T12:23:09Z</time>
      </trkpt>
      <trkpt lat="46.75713" lon="5.94572">
        <ele>621.4</ele>
        <time>2022-05-24T12:23:10Z</time>
      </trkpt>
      <trkpt lat="46.7571" lon="5.9458">
        <ele>621.6</ele>
        <time>2022-05-24T12:23:11Z</time>
      </trkpt>
      <trkpt lat="46.75707" lon="5.94588">
        <ele>621.6</ele>
        <time>2022-05-24T12:23:12Z</time>
      </trkpt>
      <trkpt lat="46.75704" lon="5.94596">
        <ele>621.6</ele>
        <time>2022-05-24T12:23:13Z</time>
      </trkpt>
      <trkpt lat="46.75701" lon="5.94604">
        <ele>621.6</ele>
        <time>2022-05-24T12:23:14Z</time>
      </trkpt>
      <trkpt lat="46.75698" lon="5.94613">
        <ele>621.6</ele>
        <time>2022-05-24T12:23:15Z</time>
      </trkpt>
      <trkpt lat="46.75695" lon="5.94621">
        <ele>621.6</ele>
        <time>2022-05-24T12:23:16Z</time>
      </trkpt>
      <trkpt lat="46.75692" lon="5.94629">
        <ele>621.6</ele>
        <time>2022-05-24T12:23:17Z</time>
      </trkpt>
      <trkpt lat="46.75689" lon="5.94637">
        <ele>621.6</ele>
        <time>2022-05-24T12:23:18Z</time>
      </trkpt>
      <trkpt lat="46.75686" lon="5.94645">
        <ele>621.6</ele>
        <time>2022-05-24T12:23:19Z</time>
      </trkpt>
      <trkpt lat="46.75683" lon="5.94653">
        <ele>622</ele>
        <time>2022-05-24T12:23:20Z</time>
      </trkpt>
      <trkpt lat="46.7568" lon="5.94661">
        <ele>622</ele>
        <time>2022-05-24T12:23:21Z</time>
      </trkpt>
      <trkpt lat="46.75678" lon="5.94669">
        <ele>622</ele>
        <time>2022-05-24T12:23:22Z</time>
      </trkpt>
      <trkpt lat="46.75676" lon="5.94678">
        <ele>622</ele>
        <time>2022-05-24T12:23:23Z</time>
      </trkpt>
      <trkpt lat="46.75674" lon="5.94686">
        <ele>622.2</ele>
        <time>2022-05-24T12:23:24Z</time>
      </trkpt>
      <trkpt lat="46.75672" lon="5.94695">
        <ele>622.2</ele>
        <time>2022-05-24T12:23:25Z</time>
      </trkpt>
      <trkpt lat="46.7567" lon="5.94704">
        <ele>622</ele>
        <time>2022-05-24T12:23:26Z</time>
      </trkpt>
      <trkpt lat="46.75669" lon="5.94712">
        <ele>622</ele>
        <time>2022-05-24T12:23:27Z</time>
      </trkpt>
      <trkpt lat="46.75667" lon="5.94721">
        <ele>622</ele>
        <time>2022-05-24T12:23:28Z</time>
      </trkpt>
      <trkpt lat="46.75666" lon="5.9473">
        <ele>622.2</ele>
        <time>2022-05-24T12:23:29Z</time>
      </trkpt>
      <trkpt lat="46.75665" lon="5.94739">
        <ele>622.2</ele>
        <time>2022-05-24T12:23:30Z</time>
      </trkpt>
      <trkpt lat="46.75664" lon="5.94748">
        <ele>622.6</ele>
        <time>2022-05-24T12:23:31Z</time>
      </trkpt>
      <trkpt lat="46.75663" lon="5.94757">
        <ele>622.6</ele>
        <time>2022-05-24T12:23:32Z</time>
      </trkpt>
      <trkpt lat="46.75663" lon="5.94766">
        <ele>622.6</ele>
        <time>2022-05-24T12:23:33Z</time>
      </trkpt>
      <trkpt lat="46.75662" lon="5.94775">
        <ele>622.6</ele>
        <time>2022-05-24T12:23:34Z</time>
      </trkpt>
      <trkpt lat="46.75662" lon="5.94784">
        <ele>622.6</ele>
        <time>2022-05-24T12:23:35Z</time>
      </trkpt>
      <trkpt lat="46.75661" lon="5.94792">
        <ele>622.6</ele>
        <time>2022-05-24T12:23:36Z</time>
      </trkpt>
      <trkpt lat="46.75661" lon="5.94801">
        <ele>622.6</ele>
        <time>2022-05-24T12:23:37Z</time>
      </trkpt>
      <trkpt lat="46.75662" lon="5.9481">
        <ele>622.8</ele>
        <time>2022-05-24T12:23:38Z</time>
      </trkpt>
      <trkpt lat="46.75663" lon="5.94819">
        <ele>622.8</ele>
        <time>2022-05-24T12:23:39Z</time>
      </trkpt>
      <trkpt lat="46.75664" lon="5.94827">
        <ele>622.8</ele>
        <time>2022-05-24T12:23:40Z</time>
      </trkpt>
      <trkpt lat="46.75665" lon="5.94835">
        <ele>622.8</ele>
        <time>2022-05-24T12:23:41Z</time>
      </trkpt>
      <trkpt lat="46.75666" lon="5.94844">
        <ele>623.2</ele>
        <time>2022-05-24T12:23:42Z</time>
      </trkpt>
      <trkpt lat="46.75668" lon="5.94852">
        <ele>623.2</ele>
        <time>2022-05-24T12:23:43Z</time>
      </trkpt>
      <trkpt lat="46.7567" lon="5.9486">
        <ele>623.2</ele>
        <time>2022-05-24T12:23:44Z</time>
      </trkpt>
      <trkpt lat="46.75672" lon="5.94868">
        <ele>623.4</ele>
        <time>2022-05-24T12:23:45Z</time>
      </trkpt>
      <trkpt lat="46.75673" lon="5.94876">
        <ele>623.4</ele>
        <time>2022-05-24T12:23:46Z</time>
      </trkpt>
      <trkpt lat="46.75675" lon="5.94884">
        <ele>623.4</ele>
        <time>2022-05-24T12:23:47Z</time>
      </trkpt>
      <trkpt lat="46.75677" lon="5.94892">
        <ele>623.6</ele>
        <time>2022-05-24T12:23:48Z</time>
      </trkpt>
      <trkpt lat="46.75678" lon="5.949">
        <ele>623.6</ele>
        <time>2022-05-24T12:23:49Z</time>
      </trkpt>
      <trkpt lat="46.7568" lon="5.94909">
        <ele>623.6</ele>
        <time>2022-05-24T12:23:50Z</time>
      </trkpt>
      <trkpt lat="46.75682" lon="5.94917">
        <ele>623.6</ele>
        <time>2022-05-24T12:23:51Z</time>
      </trkpt>
      <trkpt lat="46.75684" lon="5.94925">
        <ele>623.6</ele>
        <time>2022-05-24T12:23:52Z</time>
      </trkpt>
      <trkpt lat="46.75685" lon="5.94934">
        <ele>624</ele>
        <time>2022-05-24T12:23:53Z</time>
      </trkpt>
      <trkpt lat="46.75687" lon="5.94942">
        <ele>624</ele>
        <time>2022-05-24T12:23:54Z</time>
      </trkpt>
      <trkpt lat="46.75689" lon="5.9495">
        <ele>624</ele>
        <time>2022-05-24T12:23:55Z</time>
      </trkpt>
      <trkpt lat="46.75691" lon="5.94959">
        <ele>624</ele>
        <time>2022-05-24T12:23:56Z</time>
      </trkpt>
      <trkpt lat="46.75692" lon="5.94967">
        <ele>624.2</ele>
        <time>2022-05-24T12:23:57Z</time>
      </trkpt>
      <trkpt lat="46.75694" lon="5.94975">
        <ele>624.2</ele>
        <time>2022-05-24T12:23:58Z</time>
      </trkpt>
      <trkpt lat="46.75695" lon="5.94984">
        <ele>624.4</ele>
        <time>2022-05-24T12:23:59Z</time>
      </trkpt>
      <trkpt lat="46.75696" lon="5.94992">
        <ele>624.4</ele>
        <time>2022-05-24T12:24:00Z</time>
      </trkpt>
      <trkpt lat="46.75696" lon="5.95">
        <ele>624.4</ele>
        <time>2022-05-24T12:24:01Z</time>
      </trkpt>
      <trkpt lat="46.75697" lon="5.95008">
        <ele>624.4</ele>
        <time>2022-05-24T12:24:02Z</time>
      </trkpt>
      <trkpt lat="46.75697" lon="5.95016">
        <ele>624.4</ele>
        <time>2022-05-24T12:24:03Z</time>
      </trkpt>
      <trkpt lat="46.75697" lon="5.95024">
        <ele>624.8</ele>
        <time>2022-05-24T12:24:04Z</time>
      </trkpt>
      <trkpt lat="46.75697" lon="5.95032">
        <ele>624.8</ele>
        <time>2022-05-24T12:24:05Z</time>
      </trkpt>
      <trkpt lat="46.75697" lon="5.9504">
        <ele>624.8</ele>
        <time>2022-05-24T12:24:06Z</time>
      </trkpt>
      <trkpt lat="46.75696" lon="5.95049">
        <ele>625.2</ele>
        <time>2022-05-24T12:24:07Z</time>
      </trkpt>
      <trkpt lat="46.75695" lon="5.95056">
        <ele>625.2</ele>
        <time>2022-05-24T12:24:08Z</time>
      </trkpt>
      <trkpt lat="46.75695" lon="5.95064">
        <ele>625.4</ele>
        <time>2022-05-24T12:24:09Z</time>
      </trkpt>
      <trkpt lat="46.75693" lon="5.95072">
        <ele>625.4</ele>
        <time>2022-05-24T12:24:10Z</time>
      </trkpt>
      <trkpt lat="46.75691" lon="5.9508">
        <ele>625.4</ele>
        <time>2022-05-24T12:24:11Z</time>
      </trkpt>
      <trkpt lat="46.7569" lon="5.95088">
        <ele>625.4</ele>
        <time>2022-05-24T12:24:12Z</time>
      </trkpt>
      <trkpt lat="46.75688" lon="5.95096">
        <ele>625.6</ele>
        <time>2022-05-24T12:24:13Z</time>
      </trkpt>
      <trkpt lat="46.75686" lon="5.95103">
        <ele>625.6</ele>
        <time>2022-05-24T12:24:14Z</time>
      </trkpt>
      <trkpt lat="46.75684" lon="5.95111">
        <ele>626</ele>
        <time>2022-05-24T12:24:15Z</time>
      </trkpt>
      <trkpt lat="46.75681" lon="5.95119">
        <ele>626</ele>
        <time>2022-05-24T12:24:16Z</time>
      </trkpt>
      <trkpt lat="46.75678" lon="5.95126">
        <ele>626</ele>
        <time>2022-05-24T12:24:17Z</time>
      </trkpt>
      <trkpt lat="46.75676" lon="5.95134">
        <ele>626.2</ele>
        <time>2022-05-24T12:24:18Z</time>
      </trkpt>
      <trkpt lat="46.75673" lon="5.95141">
        <ele>626.2</ele>
        <time>2022-05-24T12:24:19Z</time>
      </trkpt>
      <trkpt lat="46.75669" lon="5.95148">
        <ele>626.2</ele>
        <time>2022-05-24T12:24:20Z</time>
      </trkpt>
      <trkpt lat="46.75665" lon="5.95155">
        <ele>626.6</ele>
        <time>2022-05-24T12:24:21Z</time>
      </trkpt>
      <trkpt lat="46.75662" lon="5.95162">
        <ele>626.6</ele>
        <time>2022-05-24T12:24:22Z</time>
      </trkpt>
      <trkpt lat="46.75658" lon="5.95169">
        <ele>626.6</ele>
        <time>2022-05-24T12:24:23Z</time>
      </trkpt>
      <trkpt lat="46.75654" lon="5.95176">
        <ele>626.6</ele>
        <time>2022-05-24T12:24:24Z</time>
      </trkpt>
      <trkpt lat="46.7565" lon="5.95183">
        <ele>626.6</ele>
        <time>2022-05-24T12:24:25Z</time>
      </trkpt>
      <trkpt lat="46.75647" lon="5.9519">
        <ele>626.6</ele>
        <time>2022-05-24T12:24:26Z</time>
      </trkpt>
      <trkpt lat="46.75643" lon="5.95197">
        <ele>627</ele>
        <time>2022-05-24T12:24:27Z</time>
      </trkpt>
      <trkpt lat="46.75639" lon="5.95204">
        <ele>626.8</ele>
        <time>2022-05-24T12:24:28Z</time>
      </trkpt>
      <trkpt lat="46.75635" lon="5.95211">
        <ele>626.8</ele>
        <time>2022-05-24T12:24:29Z</time>
      </trkpt>
      <trkpt lat="46.75631" lon="5.95218">
        <ele>626.8</ele>
        <time>2022-05-24T12:24:30Z</time>
      </trkpt>
      <trkpt lat="46.75628" lon="5.95225">
        <ele>626.6</ele>
        <time>2022-05-24T12:24:31Z</time>
      </trkpt>
      <trkpt lat="46.75624" lon="5.95231">
        <ele>626.6</ele>
        <time>2022-05-24T12:24:32Z</time>
      </trkpt>
      <trkpt lat="46.7562" lon="5.95238">
        <ele>626.4</ele>
        <time>2022-05-24T12:24:33Z</time>
      </trkpt>
      <trkpt lat="46.75616" lon="5.95245">
        <ele>626.4</ele>
        <time>2022-05-24T12:24:34Z</time>
      </trkpt>
      <trkpt lat="46.75613" lon="5.95251">
        <ele>626.4</ele>
        <time>2022-05-24T12:24:35Z</time>
      </trkpt>
      <trkpt lat="46.7561" lon="5.95258">
        <ele>626.4</ele>
        <time>2022-05-24T12:24:36Z</time>
      </trkpt>
      <trkpt lat="46.75606" lon="5.95265">
        <ele>626.4</ele>
        <time>2022-05-24T12:24:37Z</time>
      </trkpt>
      <trkpt lat="46.75602" lon="5.95272">
        <ele>626.4</ele>
        <time>2022-05-24T12:24:38Z</time>
      </trkpt>
      <trkpt lat="46.75597" lon="5.95279">
        <ele>626.4</ele>
        <time>2022-05-24T12:24:39Z</time>
      </trkpt>
      <trkpt lat="46.75593" lon="5.95286">
        <ele>626.4</ele>
        <time>2022-05-24T12:24:40Z</time>
      </trkpt>
      <trkpt lat="46.75588" lon="5.95293">
        <ele>626.4</ele>
        <time>2022-05-24T12:24:41Z</time>
      </trkpt>
      <trkpt lat="46.75584" lon="5.95301">
        <ele>626.4</ele>
        <time>2022-05-24T12:24:42Z</time>
      </trkpt>
      <trkpt lat="46.7558" lon="5.95309">
        <ele>626.4</ele>
        <time>2022-05-24T12:24:43Z</time>
      </trkpt>
      <trkpt lat="46.75575" lon="5.95317">
        <ele>626.4</ele>
        <time>2022-05-24T12:24:44Z</time>
      </trkpt>
      <trkpt lat="46.75571" lon="5.95325">
        <ele>626.4</ele>
        <time>2022-05-24T12:24:45Z</time>
      </trkpt>
      <trkpt lat="46.75567" lon="5.95333">
        <ele>626.4</ele>
        <time>2022-05-24T12:24:46Z</time>
      </trkpt>
      <trkpt lat="46.75563" lon="5.95342">
        <ele>626.4</ele>
        <time>2022-05-24T12:24:47Z</time>
      </trkpt>
      <trkpt lat="46.75559" lon="5.9535">
        <ele>626.4</ele>
        <time>2022-05-24T12:24:48Z</time>
      </trkpt>
      <trkpt lat="46.75555" lon="5.95359">
        <ele>626.4</ele>
        <time>2022-05-24T12:24:49Z</time>
      </trkpt>
      <trkpt lat="46.75551" lon="5.95368">
        <ele>626.4</ele>
        <time>2022-05-24T12:24:50Z</time>
      </trkpt>
      <trkpt lat="46.75548" lon="5.95377">
        <ele>626.4</ele>
        <time>2022-05-24T12:24:51Z</time>
      </trkpt>
      <trkpt lat="46.75545" lon="5.95387">
        <ele>626.4</ele>
        <time>2022-05-24T12:24:52Z</time>
      </trkpt>
      <trkpt lat="46.75542" lon="5.95395">
        <ele>626.4</ele>
        <time>2022-05-24T12:24:53Z</time>
      </trkpt>
      <trkpt lat="46.75539" lon="5.95404">
        <ele>626</ele>
        <time>2022-05-24T12:24:54Z</time>
      </trkpt>
      <trkpt lat="46.75536" lon="5.95412">
        <ele>626</ele>
        <time>2022-05-24T12:24:55Z</time>
      </trkpt>
      <trkpt lat="46.75534" lon="5.9542">
        <ele>626</ele>
        <time>2022-05-24T12:24:56Z</time>
      </trkpt>
      <trkpt lat="46.75531" lon="5.95428">
        <ele>626</ele>
        <time>2022-05-24T12:24:57Z</time>
      </trkpt>
      <trkpt lat="46.75529" lon="5.95437">
        <ele>626.4</ele>
        <time>2022-05-24T12:24:58Z</time>
      </trkpt>
      <trkpt lat="46.75528" lon="5.95446">
        <ele>626.4</ele>
        <time>2022-05-24T12:24:59Z</time>
      </trkpt>
      <trkpt lat="46.75526" lon="5.95454">
        <ele>626.4</ele>
        <time>2022-05-24T12:25:00Z</time>
      </trkpt>
      <trkpt lat="46.75525" lon="5.95463">
        <ele>626.4</ele>
        <time>2022-05-24T12:25:01Z</time>
      </trkpt>
      <trkpt lat="46.75523" lon="5.95473">
        <ele>626.4</ele>
        <time>2022-05-24T12:25:02Z</time>
      </trkpt>
      <trkpt lat="46.75523" lon="5.95482">
        <ele>626.4</ele>
        <time>2022-05-24T12:25:03Z</time>
      </trkpt>
      <trkpt lat="46.75522" lon="5.95491">
        <ele>626.6</ele>
        <time>2022-05-24T12:25:04Z</time>
      </trkpt>
      <trkpt lat="46.75521" lon="5.955">
        <ele>626.6</ele>
        <time>2022-05-24T12:25:05Z</time>
      </trkpt>
      <trkpt lat="46.75521" lon="5.95509">
        <ele>626.6</ele>
        <time>2022-05-24T12:25:06Z</time>
      </trkpt>
      <trkpt lat="46.7552" lon="5.95526">
        <ele>626.6</ele>
        <time>2022-05-24T12:25:07Z</time>
      </trkpt>
      <trkpt lat="46.7552" lon="5.95526">
        <ele>626.6</ele>
        <time>2022-05-24T12:25:08Z</time>
      </trkpt>
      <trkpt lat="46.7552" lon="5.95535">
        <ele>626.6</ele>
        <time>2022-05-24T12:25:09Z</time>
      </trkpt>
      <trkpt lat="46.7552" lon="5.95544">
        <ele>626.6</ele>
        <time>2022-05-24T12:25:10Z</time>
      </trkpt>
      <trkpt lat="46.7552" lon="5.95553">
        <ele>626.6</ele>
        <time>2022-05-24T12:25:11Z</time>
      </trkpt>
      <trkpt lat="46.7552" lon="5.95562">
        <ele>626.6</ele>
        <time>2022-05-24T12:25:12Z</time>
      </trkpt>
      <trkpt lat="46.75521" lon="5.95571">
        <ele>626.6</ele>
        <time>2022-05-24T12:25:13Z</time>
      </trkpt>
      <trkpt lat="46.75521" lon="5.95579">
        <ele>626.6</ele>
        <time>2022-05-24T12:25:14Z</time>
      </trkpt>
      <trkpt lat="46.75521" lon="5.95587">
        <ele>626.8</ele>
        <time>2022-05-24T12:25:15Z</time>
      </trkpt>
      <trkpt lat="46.75522" lon="5.95595">
        <ele>626.8</ele>
        <time>2022-05-24T12:25:16Z</time>
      </trkpt>
      <trkpt lat="46.75522" lon="5.95603">
        <ele>627</ele>
        <time>2022-05-24T12:25:17Z</time>
      </trkpt>
      <trkpt lat="46.75523" lon="5.95611">
        <ele>627</ele>
        <time>2022-05-24T12:25:18Z</time>
      </trkpt>
      <trkpt lat="46.75524" lon="5.9562">
        <ele>627</ele>
        <time>2022-05-24T12:25:19Z</time>
      </trkpt>
      <trkpt lat="46.75525" lon="5.95628">
        <ele>627</ele>
        <time>2022-05-24T12:25:20Z</time>
      </trkpt>
      <trkpt lat="46.75526" lon="5.95636">
        <ele>627</ele>
        <time>2022-05-24T12:25:21Z</time>
      </trkpt>
      <trkpt lat="46.75527" lon="5.95645">
        <ele>627</ele>
        <time>2022-05-24T12:25:22Z</time>
      </trkpt>
      <trkpt lat="46.75529" lon="5.95653">
        <ele>627</ele>
        <time>2022-05-24T12:25:23Z</time>
      </trkpt>
      <trkpt lat="46.75531" lon="5.95662">
        <ele>627</ele>
        <time>2022-05-24T12:25:24Z</time>
      </trkpt>
      <trkpt lat="46.75534" lon="5.9567">
        <ele>627.2</ele>
        <time>2022-05-24T12:25:25Z</time>
      </trkpt>
      <trkpt lat="46.75536" lon="5.95679">
        <ele>627.2</ele>
        <time>2022-05-24T12:25:26Z</time>
      </trkpt>
      <trkpt lat="46.75539" lon="5.95688">
        <ele>627.2</ele>
        <time>2022-05-24T12:25:27Z</time>
      </trkpt>
      <trkpt lat="46.75541" lon="5.95697">
        <ele>627.2</ele>
        <time>2022-05-24T12:25:28Z</time>
      </trkpt>
      <trkpt lat="46.75544" lon="5.95706">
        <ele>627.2</ele>
        <time>2022-05-24T12:25:29Z</time>
      </trkpt>
      <trkpt lat="46.75546" lon="5.95715">
        <ele>627</ele>
        <time>2022-05-24T12:25:30Z</time>
      </trkpt>
      <trkpt lat="46.75549" lon="5.95725">
        <ele>627</ele>
        <time>2022-05-24T12:25:31Z</time>
      </trkpt>
      <trkpt lat="46.75551" lon="5.95735">
        <ele>627</ele>
        <time>2022-05-24T12:25:32Z</time>
      </trkpt>
      <trkpt lat="46.75554" lon="5.95744">
        <ele>626.6</ele>
        <time>2022-05-24T12:25:33Z</time>
      </trkpt>
      <trkpt lat="46.75556" lon="5.95754">
        <ele>626.6</ele>
        <time>2022-05-24T12:25:34Z</time>
      </trkpt>
      <trkpt lat="46.75559" lon="5.95764">
        <ele>626.4</ele>
        <time>2022-05-24T12:25:35Z</time>
      </trkpt>
      <trkpt lat="46.75561" lon="5.95774">
        <ele>626.4</ele>
        <time>2022-05-24T12:25:36Z</time>
      </trkpt>
      <trkpt lat="46.75564" lon="5.95783">
        <ele>626.4</ele>
        <time>2022-05-24T12:25:37Z</time>
      </trkpt>
      <trkpt lat="46.75566" lon="5.95793">
        <ele>626.4</ele>
        <time>2022-05-24T12:25:38Z</time>
      </trkpt>
      <trkpt lat="46.75568" lon="5.95803">
        <ele>626.4</ele>
        <time>2022-05-24T12:25:39Z</time>
      </trkpt>
      <trkpt lat="46.75571" lon="5.95813">
        <ele>626.4</ele>
        <time>2022-05-24T12:25:40Z</time>
      </trkpt>
      <trkpt lat="46.75573" lon="5.95823">
        <ele>626.4</ele>
        <time>2022-05-24T12:25:41Z</time>
      </trkpt>
      <trkpt lat="46.75575" lon="5.95832">
        <ele>626.4</ele>
        <time>2022-05-24T12:25:42Z</time>
      </trkpt>
      <trkpt lat="46.75577" lon="5.95842">
        <ele>626.4</ele>
        <time>2022-05-24T12:25:43Z</time>
      </trkpt>
      <trkpt lat="46.75579" lon="5.95851">
        <ele>626.4</ele>
        <time>2022-05-24T12:25:44Z</time>
      </trkpt>
      <trkpt lat="46.75581" lon="5.9586">
        <ele>626.4</ele>
        <time>2022-05-24T12:25:45Z</time>
      </trkpt>
      <trkpt lat="46.75583" lon="5.95869">
        <ele>626.4</ele>
        <time>2022-05-24T12:25:46Z</time>
      </trkpt>
      <trkpt lat="46.75585" lon="5.95879">
        <ele>626.4</ele>
        <time>2022-05-24T12:25:47Z</time>
      </trkpt>
      <trkpt lat="46.75587" lon="5.95888">
        <ele>626.4</ele>
        <time>2022-05-24T12:25:48Z</time>
      </trkpt>
      <trkpt lat="46.75588" lon="5.95897">
        <ele>626.4</ele>
        <time>2022-05-24T12:25:49Z</time>
      </trkpt>
      <trkpt lat="46.7559" lon="5.95906">
        <ele>626.4</ele>
        <time>2022-05-24T12:25:50Z</time>
      </trkpt>
      <trkpt lat="46.75592" lon="5.95915">
        <ele>626.4</ele>
        <time>2022-05-24T12:25:51Z</time>
      </trkpt>
      <trkpt lat="46.75594" lon="5.95925">
        <ele>626.6</ele>
        <time>2022-05-24T12:25:52Z</time>
      </trkpt>
      <trkpt lat="46.75596" lon="5.95934">
        <ele>626.6</ele>
        <time>2022-05-24T12:25:53Z</time>
      </trkpt>
      <trkpt lat="46.75599" lon="5.95944">
        <ele>626.6</ele>
        <time>2022-05-24T12:25:54Z</time>
      </trkpt>
      <trkpt lat="46.75601" lon="5.95954">
        <ele>626.6</ele>
        <time>2022-05-24T12:25:55Z</time>
      </trkpt>
      <trkpt lat="46.75603" lon="5.95963">
        <ele>626.6</ele>
        <time>2022-05-24T12:25:56Z</time>
      </trkpt>
      <trkpt lat="46.75605" lon="5.95973">
        <ele>626.6</ele>
        <time>2022-05-24T12:25:57Z</time>
      </trkpt>
      <trkpt lat="46.75607" lon="5.95982">
        <ele>626.6</ele>
        <time>2022-05-24T12:25:58Z</time>
      </trkpt>
      <trkpt lat="46.75608" lon="5.95992">
        <ele>627</ele>
        <time>2022-05-24T12:25:59Z</time>
      </trkpt>
      <trkpt lat="46.7561" lon="5.96001">
        <ele>627</ele>
        <time>2022-05-24T12:26:00Z</time>
      </trkpt>
      <trkpt lat="46.75613" lon="5.9601">
        <ele>627</ele>
        <time>2022-05-24T12:26:01Z</time>
      </trkpt>
      <trkpt lat="46.75614" lon="5.96019">
        <ele>627</ele>
        <time>2022-05-24T12:26:02Z</time>
      </trkpt>
      <trkpt lat="46.75616" lon="5.96027">
        <ele>627.2</ele>
        <time>2022-05-24T12:26:03Z</time>
      </trkpt>
      <trkpt lat="46.75618" lon="5.96036">
        <ele>627.2</ele>
        <time>2022-05-24T12:26:04Z</time>
      </trkpt>
      <trkpt lat="46.7562" lon="5.96044">
        <ele>627.2</ele>
        <time>2022-05-24T12:26:05Z</time>
      </trkpt>
      <trkpt lat="46.75621" lon="5.96053">
        <ele>627.4</ele>
        <time>2022-05-24T12:26:06Z</time>
      </trkpt>
      <trkpt lat="46.75623" lon="5.9606">
        <ele>627.4</ele>
        <time>2022-05-24T12:26:07Z</time>
      </trkpt>
      <trkpt lat="46.75625" lon="5.96068">
        <ele>627.6</ele>
        <time>2022-05-24T12:26:08Z</time>
      </trkpt>
      <trkpt lat="46.75627" lon="5.96076">
        <ele>627.6</ele>
        <time>2022-05-24T12:26:09Z</time>
      </trkpt>
      <trkpt lat="46.75628" lon="5.96084">
        <ele>627.6</ele>
        <time>2022-05-24T12:26:10Z</time>
      </trkpt>
      <trkpt lat="46.7563" lon="5.96091">
        <ele>628</ele>
        <time>2022-05-24T12:26:11Z</time>
      </trkpt>
      <trkpt lat="46.75632" lon="5.96098">
        <ele>628</ele>
        <time>2022-05-24T12:26:12Z</time>
      </trkpt>
      <trkpt lat="46.75633" lon="5.96106">
        <ele>628</ele>
        <time>2022-05-24T12:26:13Z</time>
      </trkpt>
      <trkpt lat="46.75635" lon="5.96113">
        <ele>628.4</ele>
        <time>2022-05-24T12:26:14Z</time>
      </trkpt>
      <trkpt lat="46.75636" lon="5.9612">
        <ele>628.6</ele>
        <time>2022-05-24T12:26:15Z</time>
      </trkpt>
      <trkpt lat="46.75638" lon="5.96127">
        <ele>628.6</ele>
        <time>2022-05-24T12:26:16Z</time>
      </trkpt>
      <trkpt lat="46.75639" lon="5.96134">
        <ele>628.8</ele>
        <time>2022-05-24T12:26:17Z</time>
      </trkpt>
      <trkpt lat="46.75641" lon="5.96141">
        <ele>629</ele>
        <time>2022-05-24T12:26:18Z</time>
      </trkpt>
      <trkpt lat="46.75642" lon="5.96147">
        <ele>629</ele>
        <time>2022-05-24T12:26:19Z</time>
      </trkpt>
      <trkpt lat="46.75644" lon="5.96154">
        <ele>629.2</ele>
        <time>2022-05-24T12:26:20Z</time>
      </trkpt>
      <trkpt lat="46.75645" lon="5.96161">
        <ele>629.6</ele>
        <time>2022-05-24T12:26:21Z</time>
      </trkpt>
      <trkpt lat="46.75647" lon="5.96171">
        <ele>629.8</ele>
        <time>2022-05-24T12:26:22Z</time>
      </trkpt>
      <trkpt lat="46.75648" lon="5.96175">
        <ele>629.8</ele>
        <time>2022-05-24T12:26:23Z</time>
      </trkpt>
      <trkpt lat="46.75649" lon="5.96181">
        <ele>630.2</ele>
        <time>2022-05-24T12:26:24Z</time>
      </trkpt>
      <trkpt lat="46.75651" lon="5.96188">
        <ele>630.4</ele>
        <time>2022-05-24T12:26:25Z</time>
      </trkpt>
      <trkpt lat="46.75652" lon="5.96196">
        <ele>630.8</ele>
        <time>2022-05-24T12:26:26Z</time>
      </trkpt>
      <trkpt lat="46.75654" lon="5.96203">
        <ele>630.8</ele>
        <time>2022-05-24T12:26:27Z</time>
      </trkpt>
      <trkpt lat="46.75655" lon="5.9621">
        <ele>631</ele>
        <time>2022-05-24T12:26:28Z</time>
      </trkpt>
      <trkpt lat="46.75657" lon="5.96217">
        <ele>631</ele>
        <time>2022-05-24T12:26:29Z</time>
      </trkpt>
      <trkpt lat="46.75658" lon="5.96223">
        <ele>631.2</ele>
        <time>2022-05-24T12:26:30Z</time>
      </trkpt>
      <trkpt lat="46.7566" lon="5.9623">
        <ele>631.4</ele>
        <time>2022-05-24T12:26:31Z</time>
      </trkpt>
      <trkpt lat="46.75661" lon="5.96236">
        <ele>631.4</ele>
        <time>2022-05-24T12:26:32Z</time>
      </trkpt>
      <trkpt lat="46.75662" lon="5.96243">
        <ele>631.8</ele>
        <time>2022-05-24T12:26:33Z</time>
      </trkpt>
      <trkpt lat="46.75664" lon="5.96249">
        <ele>631.8</ele>
        <time>2022-05-24T12:26:34Z</time>
      </trkpt>
      <trkpt lat="46.75665" lon="5.96256">
        <ele>632.2</ele>
        <time>2022-05-24T12:26:35Z</time>
      </trkpt>
      <trkpt lat="46.75666" lon="5.96262">
        <ele>632.2</ele>
        <time>2022-05-24T12:26:36Z</time>
      </trkpt>
      <trkpt lat="46.75668" lon="5.96267">
        <ele>632.4</ele>
        <time>2022-05-24T12:26:37Z</time>
      </trkpt>
      <trkpt lat="46.75669" lon="5.96273">
        <ele>632.4</ele>
        <time>2022-05-24T12:26:38Z</time>
      </trkpt>
      <trkpt lat="46.7567" lon="5.96279">
        <ele>632.6</ele>
        <time>2022-05-24T12:26:39Z</time>
      </trkpt>
      <trkpt lat="46.75671" lon="5.96284">
        <ele>632.6</ele>
        <time>2022-05-24T12:26:40Z</time>
      </trkpt>
      <trkpt lat="46.75672" lon="5.96292">
        <ele>633</ele>
        <time>2022-05-24T12:26:41Z</time>
      </trkpt>
      <trkpt lat="46.75673" lon="5.96294">
        <ele>633</ele>
        <time>2022-05-24T12:26:42Z</time>
      </trkpt>
      <trkpt lat="46.75673" lon="5.96299">
        <ele>633.2</ele>
        <time>2022-05-24T12:26:43Z</time>
      </trkpt>
      <trkpt lat="46.75674" lon="5.96303">
        <ele>633.2</ele>
        <time>2022-05-24T12:26:44Z</time>
      </trkpt>
      <trkpt lat="46.75675" lon="5.96308">
        <ele>633.6</ele>
        <time>2022-05-24T12:26:45Z</time>
      </trkpt>
      <trkpt lat="46.75676" lon="5.96312">
        <ele>633.6</ele>
        <time>2022-05-24T12:26:46Z</time>
      </trkpt>
      <trkpt lat="46.75677" lon="5.96316">
        <ele>634</ele>
        <time>2022-05-24T12:26:47Z</time>
      </trkpt>
      <trkpt lat="46.75679" lon="5.96321">
        <ele>634</ele>
        <time>2022-05-24T12:26:48Z</time>
      </trkpt>
      <trkpt lat="46.7568" lon="5.96325">
        <ele>634.2</ele>
        <time>2022-05-24T12:26:49Z</time>
      </trkpt>
      <trkpt lat="46.75681" lon="5.9633">
        <ele>634.2</ele>
        <time>2022-05-24T12:26:50Z</time>
      </trkpt>
      <trkpt lat="46.75682" lon="5.96334">
        <ele>634.4</ele>
        <time>2022-05-24T12:26:51Z</time>
      </trkpt>
      <trkpt lat="46.75684" lon="5.96339">
        <ele>634.4</ele>
        <time>2022-05-24T12:26:52Z</time>
      </trkpt>
      <trkpt lat="46.75686" lon="5.96343">
        <ele>634.8</ele>
        <time>2022-05-24T12:26:53Z</time>
      </trkpt>
      <trkpt lat="46.75687" lon="5.96347">
        <ele>634.8</ele>
        <time>2022-05-24T12:26:54Z</time>
      </trkpt>
      <trkpt lat="46.75689" lon="5.96351">
        <ele>634.8</ele>
        <time>2022-05-24T12:26:55Z</time>
      </trkpt>
      <trkpt lat="46.75691" lon="5.96356">
        <ele>635</ele>
        <time>2022-05-24T12:26:56Z</time>
      </trkpt>
      <trkpt lat="46.75693" lon="5.9636">
        <ele>635.2</ele>
        <time>2022-05-24T12:26:57Z</time>
      </trkpt>
      <trkpt lat="46.75695" lon="5.96364">
        <ele>635.2</ele>
        <time>2022-05-24T12:26:58Z</time>
      </trkpt>
      <trkpt lat="46.75697" lon="5.96368">
        <ele>635.4</ele>
        <time>2022-05-24T12:26:59Z</time>
      </trkpt>
      <trkpt lat="46.757" lon="5.96372">
        <ele>635.4</ele>
        <time>2022-05-24T12:27:00Z</time>
      </trkpt>
      <trkpt lat="46.75702" lon="5.96377">
        <ele>635.8</ele>
        <time>2022-05-24T12:27:01Z</time>
      </trkpt>
      <trkpt lat="46.75704" lon="5.96381">
        <ele>635.8</ele>
        <time>2022-05-24T12:27:02Z</time>
      </trkpt>
      <trkpt lat="46.75706" lon="5.96384">
        <ele>636</ele>
        <time>2022-05-24T12:27:03Z</time>
      </trkpt>
      <trkpt lat="46.75708" lon="5.96388">
        <ele>636</ele>
        <time>2022-05-24T12:27:04Z</time>
      </trkpt>
      <trkpt lat="46.75711" lon="5.96392">
        <ele>636.4</ele>
        <time>2022-05-24T12:27:05Z</time>
      </trkpt>
      <trkpt lat="46.75713" lon="5.96396">
        <ele>636.4</ele>
        <time>2022-05-24T12:27:06Z</time>
      </trkpt>
      <trkpt lat="46.75716" lon="5.964">
        <ele>636.6</ele>
        <time>2022-05-24T12:27:07Z</time>
      </trkpt>
      <trkpt lat="46.75718" lon="5.96404">
        <ele>636.6</ele>
        <time>2022-05-24T12:27:08Z</time>
      </trkpt>
      <trkpt lat="46.75721" lon="5.96407">
        <ele>636.8</ele>
        <time>2022-05-24T12:27:09Z</time>
      </trkpt>
      <trkpt lat="46.75723" lon="5.96411">
        <ele>636.8</ele>
        <time>2022-05-24T12:27:10Z</time>
      </trkpt>
      <trkpt lat="46.75726" lon="5.96414">
        <ele>637.2</ele>
        <time>2022-05-24T12:27:11Z</time>
      </trkpt>
      <trkpt lat="46.75729" lon="5.96419">
        <ele>637.2</ele>
        <time>2022-05-24T12:27:12Z</time>
      </trkpt>
      <trkpt lat="46.75731" lon="5.96422">
        <ele>637.4</ele>
        <time>2022-05-24T12:27:13Z</time>
      </trkpt>
      <trkpt lat="46.75734" lon="5.96426">
        <ele>637.4</ele>
        <time>2022-05-24T12:27:14Z</time>
      </trkpt>
      <trkpt lat="46.75737" lon="5.9643">
        <ele>637.4</ele>
        <time>2022-05-24T12:27:15Z</time>
      </trkpt>
      <trkpt lat="46.7574" lon="5.96434">
        <ele>637.6</ele>
        <time>2022-05-24T12:27:16Z</time>
      </trkpt>
      <trkpt lat="46.75742" lon="5.96438">
        <ele>637.6</ele>
        <time>2022-05-24T12:27:17Z</time>
      </trkpt>
      <trkpt lat="46.75745" lon="5.96442">
        <ele>638</ele>
        <time>2022-05-24T12:27:18Z</time>
      </trkpt>
      <trkpt lat="46.75748" lon="5.96446">
        <ele>638</ele>
        <time>2022-05-24T12:27:19Z</time>
      </trkpt>
      <trkpt lat="46.75751" lon="5.9645">
        <ele>638.4</ele>
        <time>2022-05-24T12:27:20Z</time>
      </trkpt>
      <trkpt lat="46.75754" lon="5.96454">
        <ele>638.4</ele>
        <time>2022-05-24T12:27:21Z</time>
      </trkpt>
      <trkpt lat="46.75756" lon="5.96457">
        <ele>638.8</ele>
        <time>2022-05-24T12:27:22Z</time>
      </trkpt>
      <trkpt lat="46.75758" lon="5.96461">
        <ele>638.8</ele>
        <time>2022-05-24T12:27:23Z</time>
      </trkpt>
      <trkpt lat="46.75759" lon="5.96465">
        <ele>639</ele>
        <time>2022-05-24T12:27:24Z</time>
      </trkpt>
      <trkpt lat="46.75761" lon="5.96468">
        <ele>639</ele>
        <time>2022-05-24T12:27:25Z</time>
      </trkpt>
      <trkpt lat="46.75763" lon="5.96472">
        <ele>639.2</ele>
        <time>2022-05-24T12:27:26Z</time>
      </trkpt>
      <trkpt lat="46.75765" lon="5.96476">
        <ele>639.4</ele>
        <time>2022-05-24T12:27:27Z</time>
      </trkpt>
      <trkpt lat="46.75767" lon="5.9648">
        <ele>639.6</ele>
        <time>2022-05-24T12:27:28Z</time>
      </trkpt>
      <trkpt lat="46.75769" lon="5.96484">
        <ele>639.8</ele>
        <time>2022-05-24T12:27:29Z</time>
      </trkpt>
      <trkpt lat="46.75771" lon="5.96488">
        <ele>639.8</ele>
        <time>2022-05-24T12:27:30Z</time>
      </trkpt>
      <trkpt lat="46.75773" lon="5.96492">
        <ele>640.2</ele>
        <time>2022-05-24T12:27:31Z</time>
      </trkpt>
      <trkpt lat="46.75775" lon="5.96495">
        <ele>640.6</ele>
        <time>2022-05-24T12:27:32Z</time>
      </trkpt>
      <trkpt lat="46.75776" lon="5.965">
        <ele>640.6</ele>
        <time>2022-05-24T12:27:33Z</time>
      </trkpt>
      <trkpt lat="46.75777" lon="5.96504">
        <ele>640.8</ele>
        <time>2022-05-24T12:27:34Z</time>
      </trkpt>
      <trkpt lat="46.75778" lon="5.96509">
        <ele>640.8</ele>
        <time>2022-05-24T12:27:35Z</time>
      </trkpt>
      <trkpt lat="46.75779" lon="5.96513">
        <ele>641</ele>
        <time>2022-05-24T12:27:36Z</time>
      </trkpt>
      <trkpt lat="46.7578" lon="5.96517">
        <ele>641</ele>
        <time>2022-05-24T12:27:37Z</time>
      </trkpt>
      <trkpt lat="46.75781" lon="5.96522">
        <ele>641.4</ele>
        <time>2022-05-24T12:27:38Z</time>
      </trkpt>
      <trkpt lat="46.75781" lon="5.96526">
        <ele>641.4</ele>
        <time>2022-05-24T12:27:39Z</time>
      </trkpt>
      <trkpt lat="46.75782" lon="5.9653">
        <ele>641.8</ele>
        <time>2022-05-24T12:27:40Z</time>
      </trkpt>
      <trkpt lat="46.75782" lon="5.96534">
        <ele>641.8</ele>
        <time>2022-05-24T12:27:41Z</time>
      </trkpt>
      <trkpt lat="46.75783" lon="5.96539">
        <ele>642.2</ele>
        <time>2022-05-24T12:27:42Z</time>
      </trkpt>
      <trkpt lat="46.75783" lon="5.96543">
        <ele>642.4</ele>
        <time>2022-05-24T12:27:43Z</time>
      </trkpt>
      <trkpt lat="46.75783" lon="5.96548">
        <ele>642.6</ele>
        <time>2022-05-24T12:27:44Z</time>
      </trkpt>
      <trkpt lat="46.75783" lon="5.96553">
        <ele>642.6</ele>
        <time>2022-05-24T12:27:45Z</time>
      </trkpt>
      <trkpt lat="46.75783" lon="5.96557">
        <ele>643</ele>
        <time>2022-05-24T12:27:46Z</time>
      </trkpt>
      <trkpt lat="46.75784" lon="5.96562">
        <ele>643</ele>
        <time>2022-05-24T12:27:47Z</time>
      </trkpt>
      <trkpt lat="46.75784" lon="5.96567">
        <ele>643.2</ele>
        <time>2022-05-24T12:27:48Z</time>
      </trkpt>
      <trkpt lat="46.75784" lon="5.96571">
        <ele>643.2</ele>
        <time>2022-05-24T12:27:49Z</time>
      </trkpt>
      <trkpt lat="46.75783" lon="5.96576">
        <ele>643.6</ele>
        <time>2022-05-24T12:27:50Z</time>
      </trkpt>
      <trkpt lat="46.75783" lon="5.96581">
        <ele>643.6</ele>
        <time>2022-05-24T12:27:51Z</time>
      </trkpt>
      <trkpt lat="46.75783" lon="5.96586">
        <ele>644</ele>
        <time>2022-05-24T12:27:52Z</time>
      </trkpt>
      <trkpt lat="46.75782" lon="5.96591">
        <ele>644</ele>
        <time>2022-05-24T12:27:53Z</time>
      </trkpt>
      <trkpt lat="46.75781" lon="5.96597">
        <ele>644.2</ele>
        <time>2022-05-24T12:27:54Z</time>
      </trkpt>
      <trkpt lat="46.75781" lon="5.96602">
        <ele>644.2</ele>
        <time>2022-05-24T12:27:55Z</time>
      </trkpt>
      <trkpt lat="46.7578" lon="5.96607">
        <ele>644.6</ele>
        <time>2022-05-24T12:27:56Z</time>
      </trkpt>
      <trkpt lat="46.7578" lon="5.96612">
        <ele>644.6</ele>
        <time>2022-05-24T12:27:57Z</time>
      </trkpt>
      <trkpt lat="46.75779" lon="5.96617">
        <ele>645</ele>
        <time>2022-05-24T12:27:58Z</time>
      </trkpt>
      <trkpt lat="46.75778" lon="5.96621">
        <ele>645</ele>
        <time>2022-05-24T12:27:59Z</time>
      </trkpt>
      <trkpt lat="46.75777" lon="5.96626">
        <ele>645.2</ele>
        <time>2022-05-24T12:28:00Z</time>
      </trkpt>
      <trkpt lat="46.75775" lon="5.9663">
        <ele>645.4</ele>
        <time>2022-05-24T12:28:01Z</time>
      </trkpt>
      <trkpt lat="46.75774" lon="5.96635">
        <ele>645.4</ele>
        <time>2022-05-24T12:28:02Z</time>
      </trkpt>
      <trkpt lat="46.75772" lon="5.9664">
        <ele>645.4</ele>
        <time>2022-05-24T12:28:03Z</time>
      </trkpt>
      <trkpt lat="46.75771" lon="5.96644">
        <ele>645.6</ele>
        <time>2022-05-24T12:28:04Z</time>
      </trkpt>
      <trkpt lat="46.75769" lon="5.96649">
        <ele>645.6</ele>
        <time>2022-05-24T12:28:05Z</time>
      </trkpt>
      <trkpt lat="46.75767" lon="5.96653">
        <ele>646</ele>
        <time>2022-05-24T12:28:06Z</time>
      </trkpt>
      <trkpt lat="46.75765" lon="5.96657">
        <ele>646.2</ele>
        <time>2022-05-24T12:28:07Z</time>
      </trkpt>
      <trkpt lat="46.75763" lon="5.96661">
        <ele>646.4</ele>
        <time>2022-05-24T12:28:08Z</time>
      </trkpt>
      <trkpt lat="46.7576" lon="5.96665">
        <ele>646.4</ele>
        <time>2022-05-24T12:28:09Z</time>
      </trkpt>
      <trkpt lat="46.75758" lon="5.96669">
        <ele>646.8</ele>
        <time>2022-05-24T12:28:10Z</time>
      </trkpt>
      <trkpt lat="46.75756" lon="5.96673">
        <ele>646.8</ele>
        <time>2022-05-24T12:28:11Z</time>
      </trkpt>
      <trkpt lat="46.75753" lon="5.96677">
        <ele>647</ele>
        <time>2022-05-24T12:28:12Z</time>
      </trkpt>
      <trkpt lat="46.75751" lon="5.96681">
        <ele>647.4</ele>
        <time>2022-05-24T12:28:13Z</time>
      </trkpt>
      <trkpt lat="46.75749" lon="5.96685">
        <ele>647.6</ele>
        <time>2022-05-24T12:28:14Z</time>
      </trkpt>
      <trkpt lat="46.75746" lon="5.96688">
        <ele>647.6</ele>
        <time>2022-05-24T12:28:15Z</time>
      </trkpt>
      <trkpt lat="46.75744" lon="5.96691">
        <ele>648</ele>
        <time>2022-05-24T12:28:16Z</time>
      </trkpt>
      <trkpt lat="46.75742" lon="5.96694">
        <ele>648</ele>
        <time>2022-05-24T12:28:17Z</time>
      </trkpt>
      <trkpt lat="46.75739" lon="5.96697">
        <ele>648.4</ele>
        <time>2022-05-24T12:28:18Z</time>
      </trkpt>
      <trkpt lat="46.75737" lon="5.967">
        <ele>648.6</ele>
        <time>2022-05-24T12:28:19Z</time>
      </trkpt>
      <trkpt lat="46.75731" lon="5.96705">
        <ele>648.6</ele>
        <time>2022-05-24T12:28:20Z</time>
      </trkpt>
      <trkpt lat="46.75728" lon="5.96707">
        <ele>649</ele>
        <time>2022-05-24T12:28:21Z</time>
      </trkpt>
      <trkpt lat="46.75725" lon="5.96709">
        <ele>649</ele>
        <time>2022-05-24T12:28:22Z</time>
      </trkpt>
      <trkpt lat="46.75722" lon="5.96712">
        <ele>649.2</ele>
        <time>2022-05-24T12:28:23Z</time>
      </trkpt>
      <trkpt lat="46.75722" lon="5.96712">
        <ele>649.2</ele>
        <time>2022-05-24T12:28:24Z</time>
      </trkpt>
      <trkpt lat="46.75719" lon="5.96713">
        <ele>649.6</ele>
        <time>2022-05-24T12:28:25Z</time>
      </trkpt>
      <trkpt lat="46.75716" lon="5.96715">
        <ele>649.6</ele>
        <time>2022-05-24T12:28:26Z</time>
      </trkpt>
      <trkpt lat="46.75713" lon="5.96716">
        <ele>649.8</ele>
        <time>2022-05-24T12:28:27Z</time>
      </trkpt>
      <trkpt lat="46.75709" lon="5.96717">
        <ele>649.8</ele>
        <time>2022-05-24T12:28:28Z</time>
      </trkpt>
      <trkpt lat="46.75706" lon="5.96718">
        <ele>650.2</ele>
        <time>2022-05-24T12:28:29Z</time>
      </trkpt>
      <trkpt lat="46.75703" lon="5.96719">
        <ele>650.6</ele>
        <time>2022-05-24T12:28:30Z</time>
      </trkpt>
      <trkpt lat="46.757" lon="5.9672">
        <ele>651</ele>
        <time>2022-05-24T12:28:31Z</time>
      </trkpt>
      <trkpt lat="46.75697" lon="5.96721">
        <ele>651.2</ele>
        <time>2022-05-24T12:28:32Z</time>
      </trkpt>
      <trkpt lat="46.75694" lon="5.96722">
        <ele>651.2</ele>
        <time>2022-05-24T12:28:33Z</time>
      </trkpt>
      <trkpt lat="46.75691" lon="5.96722">
        <ele>651.6</ele>
        <time>2022-05-24T12:28:34Z</time>
      </trkpt>
      <trkpt lat="46.75687" lon="5.96723">
        <ele>651.8</ele>
        <time>2022-05-24T12:28:35Z</time>
      </trkpt>
      <trkpt lat="46.75684" lon="5.96724">
        <ele>651.8</ele>
        <time>2022-05-24T12:28:36Z</time>
      </trkpt>
      <trkpt lat="46.75681" lon="5.96725">
        <ele>652.2</ele>
        <time>2022-05-24T12:28:37Z</time>
      </trkpt>
      <trkpt lat="46.75678" lon="5.96726">
        <ele>652.2</ele>
        <time>2022-05-24T12:28:38Z</time>
      </trkpt>
      <trkpt lat="46.75675" lon="5.96726">
        <ele>652.6</ele>
        <time>2022-05-24T12:28:39Z</time>
      </trkpt>
      <trkpt lat="46.75671" lon="5.96727">
        <ele>652.8</ele>
        <time>2022-05-24T12:28:40Z</time>
      </trkpt>
      <trkpt lat="46.75668" lon="5.96727">
        <ele>653.2</ele>
        <time>2022-05-24T12:28:41Z</time>
      </trkpt>
      <trkpt lat="46.75666" lon="5.96728">
        <ele>653.4</ele>
        <time>2022-05-24T12:28:42Z</time>
      </trkpt>
      <trkpt lat="46.75663" lon="5.96729">
        <ele>653.6</ele>
        <time>2022-05-24T12:28:43Z</time>
      </trkpt>
      <trkpt lat="46.75661" lon="5.96729">
        <ele>653.8</ele>
        <time>2022-05-24T12:28:44Z</time>
      </trkpt>
      <trkpt lat="46.75658" lon="5.96729">
        <ele>654</ele>
        <time>2022-05-24T12:28:45Z</time>
      </trkpt>
      <trkpt lat="46.75655" lon="5.9673">
        <ele>654</ele>
        <time>2022-05-24T12:28:46Z</time>
      </trkpt>
      <trkpt lat="46.75652" lon="5.9673">
        <ele>654.2</ele>
        <time>2022-05-24T12:28:47Z</time>
      </trkpt>
      <trkpt lat="46.75648" lon="5.9673">
        <ele>654.2</ele>
        <time>2022-05-24T12:28:48Z</time>
      </trkpt>
      <trkpt lat="46.75645" lon="5.96729">
        <ele>654.6</ele>
        <time>2022-05-24T12:28:49Z</time>
      </trkpt>
      <trkpt lat="46.75642" lon="5.96729">
        <ele>654.6</ele>
        <time>2022-05-24T12:28:50Z</time>
      </trkpt>
      <trkpt lat="46.75638" lon="5.96727">
        <ele>655</ele>
        <time>2022-05-24T12:28:51Z</time>
      </trkpt>
      <trkpt lat="46.75635" lon="5.96727">
        <ele>655.4</ele>
        <time>2022-05-24T12:28:52Z</time>
      </trkpt>
      <trkpt lat="46.75631" lon="5.96725">
        <ele>655.6</ele>
        <time>2022-05-24T12:28:53Z</time>
      </trkpt>
      <trkpt lat="46.75627" lon="5.96723">
        <ele>655.8</ele>
        <time>2022-05-24T12:28:54Z</time>
      </trkpt>
      <trkpt lat="46.75623" lon="5.96723">
        <ele>655.8</ele>
        <time>2022-05-24T12:28:55Z</time>
      </trkpt>
      <trkpt lat="46.7562" lon="5.96722">
        <ele>656.2</ele>
        <time>2022-05-24T12:28:56Z</time>
      </trkpt>
      <trkpt lat="46.75617" lon="5.96723">
        <ele>656.2</ele>
        <time>2022-05-24T12:28:57Z</time>
      </trkpt>
      <trkpt lat="46.75614" lon="5.96723">
        <ele>656.4</ele>
        <time>2022-05-24T12:28:58Z</time>
      </trkpt>
      <trkpt lat="46.7561" lon="5.96723">
        <ele>656.8</ele>
        <time>2022-05-24T12:28:59Z</time>
      </trkpt>
      <trkpt lat="46.75607" lon="5.96724">
        <ele>656.8</ele>
        <time>2022-05-24T12:29:00Z</time>
      </trkpt>
      <trkpt lat="46.75604" lon="5.96724">
        <ele>657</ele>
        <time>2022-05-24T12:29:01Z</time>
      </trkpt>
      <trkpt lat="46.75601" lon="5.96725">
        <ele>657.2</ele>
        <time>2022-05-24T12:29:02Z</time>
      </trkpt>
      <trkpt lat="46.75598" lon="5.96725">
        <ele>657.6</ele>
        <time>2022-05-24T12:29:03Z</time>
      </trkpt>
      <trkpt lat="46.75594" lon="5.96726">
        <ele>657.8</ele>
        <time>2022-05-24T12:29:04Z</time>
      </trkpt>
      <trkpt lat="46.75591" lon="5.96727">
        <ele>658</ele>
        <time>2022-05-24T12:29:05Z</time>
      </trkpt>
      <trkpt lat="46.75588" lon="5.96728">
        <ele>658</ele>
        <time>2022-05-24T12:29:06Z</time>
      </trkpt>
      <trkpt lat="46.75585" lon="5.96728">
        <ele>658.2</ele>
        <time>2022-05-24T12:29:07Z</time>
      </trkpt>
      <trkpt lat="46.75582" lon="5.96729">
        <ele>658.2</ele>
        <time>2022-05-24T12:29:08Z</time>
      </trkpt>
      <trkpt lat="46.75579" lon="5.96729">
        <ele>658.6</ele>
        <time>2022-05-24T12:29:09Z</time>
      </trkpt>
      <trkpt lat="46.75576" lon="5.96729">
        <ele>658.8</ele>
        <time>2022-05-24T12:29:10Z</time>
      </trkpt>
      <trkpt lat="46.75572" lon="5.96729">
        <ele>658.8</ele>
        <time>2022-05-24T12:29:11Z</time>
      </trkpt>
      <trkpt lat="46.75569" lon="5.96729">
        <ele>659.2</ele>
        <time>2022-05-24T12:29:12Z</time>
      </trkpt>
      <trkpt lat="46.75566" lon="5.96728">
        <ele>659.2</ele>
        <time>2022-05-24T12:29:13Z</time>
      </trkpt>
      <trkpt lat="46.75563" lon="5.9673">
        <ele>659.6</ele>
        <time>2022-05-24T12:29:14Z</time>
      </trkpt>
      <trkpt lat="46.7556" lon="5.96731">
        <ele>659.6</ele>
        <time>2022-05-24T12:29:15Z</time>
      </trkpt>
      <trkpt lat="46.75557" lon="5.96731">
        <ele>660</ele>
        <time>2022-05-24T12:29:16Z</time>
      </trkpt>
      <trkpt lat="46.75554" lon="5.96732">
        <ele>660.2</ele>
        <time>2022-05-24T12:29:17Z</time>
      </trkpt>
      <trkpt lat="46.75552" lon="5.96733">
        <ele>660.2</ele>
        <time>2022-05-24T12:29:18Z</time>
      </trkpt>
      <trkpt lat="46.75549" lon="5.96734">
        <ele>660.4</ele>
        <time>2022-05-24T12:29:19Z</time>
      </trkpt>
      <trkpt lat="46.75546" lon="5.96736">
        <ele>660.4</ele>
        <time>2022-05-24T12:29:20Z</time>
      </trkpt>
      <trkpt lat="46.75544" lon="5.96737">
        <ele>660.8</ele>
        <time>2022-05-24T12:29:21Z</time>
      </trkpt>
      <trkpt lat="46.75541" lon="5.96738">
        <ele>660.8</ele>
        <time>2022-05-24T12:29:22Z</time>
      </trkpt>
      <trkpt lat="46.75538" lon="5.9674">
        <ele>661.2</ele>
        <time>2022-05-24T12:29:23Z</time>
      </trkpt>
      <trkpt lat="46.75536" lon="5.96741">
        <ele>661.2</ele>
        <time>2022-05-24T12:29:24Z</time>
      </trkpt>
      <trkpt lat="46.75533" lon="5.96743">
        <ele>661.6</ele>
        <time>2022-05-24T12:29:25Z</time>
      </trkpt>
      <trkpt lat="46.7553" lon="5.96744">
        <ele>661.8</ele>
        <time>2022-05-24T12:29:26Z</time>
      </trkpt>
      <trkpt lat="46.75527" lon="5.96745">
        <ele>661.8</ele>
        <time>2022-05-24T12:29:27Z</time>
      </trkpt>
      <trkpt lat="46.75524" lon="5.96746">
        <ele>662</ele>
        <time>2022-05-24T12:29:28Z</time>
      </trkpt>
      <trkpt lat="46.75521" lon="5.96747">
        <ele>662.4</ele>
        <time>2022-05-24T12:29:29Z</time>
      </trkpt>
      <trkpt lat="46.75518" lon="5.96748">
        <ele>662.4</ele>
        <time>2022-05-24T12:29:30Z</time>
      </trkpt>
      <trkpt lat="46.75515" lon="5.96749">
        <ele>662.6</ele>
        <time>2022-05-24T12:29:31Z</time>
      </trkpt>
      <trkpt lat="46.75512" lon="5.9675">
        <ele>662.6</ele>
        <time>2022-05-24T12:29:32Z</time>
      </trkpt>
      <trkpt lat="46.75509" lon="5.9675">
        <ele>663</ele>
        <time>2022-05-24T12:29:33Z</time>
      </trkpt>
      <trkpt lat="46.75506" lon="5.96751">
        <ele>663.4</ele>
        <time>2022-05-24T12:29:34Z</time>
      </trkpt>
      <trkpt lat="46.75502" lon="5.96753">
        <ele>663.4</ele>
        <time>2022-05-24T12:29:35Z</time>
      </trkpt>
      <trkpt lat="46.75498" lon="5.96753">
        <ele>663.6</ele>
        <time>2022-05-24T12:29:36Z</time>
      </trkpt>
      <trkpt lat="46.75495" lon="5.96753">
        <ele>663.6</ele>
        <time>2022-05-24T12:29:37Z</time>
      </trkpt>
      <trkpt lat="46.7549" lon="5.96753">
        <ele>664</ele>
        <time>2022-05-24T12:29:38Z</time>
      </trkpt>
      <trkpt lat="46.75486" lon="5.96752">
        <ele>664</ele>
        <time>2022-05-24T12:29:39Z</time>
      </trkpt>
      <trkpt lat="46.75482" lon="5.96753">
        <ele>664.2</ele>
        <time>2022-05-24T12:29:40Z</time>
      </trkpt>
      <trkpt lat="46.75479" lon="5.96753">
        <ele>664.2</ele>
        <time>2022-05-24T12:29:41Z</time>
      </trkpt>
      <trkpt lat="46.75475" lon="5.96754">
        <ele>664.6</ele>
        <time>2022-05-24T12:29:42Z</time>
      </trkpt>
      <trkpt lat="46.75472" lon="5.96755">
        <ele>664.8</ele>
        <time>2022-05-24T12:29:43Z</time>
      </trkpt>
      <trkpt lat="46.75469" lon="5.96757">
        <ele>665</ele>
        <time>2022-05-24T12:29:44Z</time>
      </trkpt>
      <trkpt lat="46.75465" lon="5.96758">
        <ele>665.2</ele>
        <time>2022-05-24T12:29:45Z</time>
      </trkpt>
      <trkpt lat="46.75462" lon="5.9676">
        <ele>665.2</ele>
        <time>2022-05-24T12:29:46Z</time>
      </trkpt>
      <trkpt lat="46.75459" lon="5.96762">
        <ele>665.6</ele>
        <time>2022-05-24T12:29:47Z</time>
      </trkpt>
      <trkpt lat="46.75457" lon="5.96767">
        <ele>665.8</ele>
        <time>2022-05-24T12:29:48Z</time>
      </trkpt>
      <trkpt lat="46.75455" lon="5.96771">
        <ele>665.8</ele>
        <time>2022-05-24T12:29:49Z</time>
      </trkpt>
      <trkpt lat="46.75453" lon="5.96774">
        <ele>666.4</ele>
        <time>2022-05-24T12:29:50Z</time>
      </trkpt>
      <trkpt lat="46.75452" lon="5.96778">
        <ele>666.6</ele>
        <time>2022-05-24T12:29:51Z</time>
      </trkpt>
      <trkpt lat="46.75449" lon="5.96781">
        <ele>666.6</ele>
        <time>2022-05-24T12:29:52Z</time>
      </trkpt>
      <trkpt lat="46.75446" lon="5.96785">
        <ele>667</ele>
        <time>2022-05-24T12:29:53Z</time>
      </trkpt>
      <trkpt lat="46.75444" lon="5.9679">
        <ele>667.2</ele>
        <time>2022-05-24T12:29:54Z</time>
      </trkpt>
      <trkpt lat="46.75443" lon="5.96796">
        <ele>667.4</ele>
        <time>2022-05-24T12:29:55Z</time>
      </trkpt>
      <trkpt lat="46.75441" lon="5.96799">
        <ele>667.4</ele>
        <time>2022-05-24T12:29:56Z</time>
      </trkpt>
      <trkpt lat="46.75439" lon="5.96803">
        <ele>667.8</ele>
        <time>2022-05-24T12:29:57Z</time>
      </trkpt>
      <trkpt lat="46.75438" lon="5.96808">
        <ele>667.8</ele>
        <time>2022-05-24T12:29:58Z</time>
      </trkpt>
      <trkpt lat="46.75436" lon="5.96812">
        <ele>668.2</ele>
        <time>2022-05-24T12:29:59Z</time>
      </trkpt>
      <trkpt lat="46.75433" lon="5.96816">
        <ele>668.4</ele>
        <time>2022-05-24T12:30:00Z</time>
      </trkpt>
      <trkpt lat="46.7543" lon="5.96819">
        <ele>668.4</ele>
        <time>2022-05-24T12:30:01Z</time>
      </trkpt>
      <trkpt lat="46.75427" lon="5.96822">
        <ele>668.8</ele>
        <time>2022-05-24T12:30:02Z</time>
      </trkpt>
      <trkpt lat="46.75424" lon="5.96824">
        <ele>668.8</ele>
        <time>2022-05-24T12:30:03Z</time>
      </trkpt>
      <trkpt lat="46.75421" lon="5.96827">
        <ele>669</ele>
        <time>2022-05-24T12:30:04Z</time>
      </trkpt>
      <trkpt lat="46.75417" lon="5.96829">
        <ele>669</ele>
        <time>2022-05-24T12:30:05Z</time>
      </trkpt>
      <trkpt lat="46.75414" lon="5.96831">
        <ele>669.6</ele>
        <time>2022-05-24T12:30:06Z</time>
      </trkpt>
      <trkpt lat="46.7541" lon="5.96833">
        <ele>670</ele>
        <time>2022-05-24T12:30:07Z</time>
      </trkpt>
      <trkpt lat="46.75407" lon="5.96836">
        <ele>670</ele>
        <time>2022-05-24T12:30:08Z</time>
      </trkpt>
      <trkpt lat="46.75405" lon="5.96839">
        <ele>670</ele>
        <time>2022-05-24T12:30:09Z</time>
      </trkpt>
      <trkpt lat="46.75402" lon="5.96842">
        <ele>670.4</ele>
        <time>2022-05-24T12:30:10Z</time>
      </trkpt>
      <trkpt lat="46.75399" lon="5.96845">
        <ele>670.4</ele>
        <time>2022-05-24T12:30:11Z</time>
      </trkpt>
      <trkpt lat="46.75396" lon="5.96847">
        <ele>670.6</ele>
        <time>2022-05-24T12:30:12Z</time>
      </trkpt>
      <trkpt lat="46.75393" lon="5.96849">
        <ele>670.6</ele>
        <time>2022-05-24T12:30:13Z</time>
      </trkpt>
      <trkpt lat="46.7539" lon="5.96851">
        <ele>670.8</ele>
        <time>2022-05-24T12:30:14Z</time>
      </trkpt>
      <trkpt lat="46.75387" lon="5.96854">
        <ele>671</ele>
        <time>2022-05-24T12:30:15Z</time>
      </trkpt>
      <trkpt lat="46.75385" lon="5.96858">
        <ele>671</ele>
        <time>2022-05-24T12:30:16Z</time>
      </trkpt>
      <trkpt lat="46.75382" lon="5.96861">
        <ele>671.4</ele>
        <time>2022-05-24T12:30:17Z</time>
      </trkpt>
      <trkpt lat="46.75379" lon="5.96864">
        <ele>671.4</ele>
        <time>2022-05-24T12:30:18Z</time>
      </trkpt>
      <trkpt lat="46.75376" lon="5.96866">
        <ele>671.6</ele>
        <time>2022-05-24T12:30:19Z</time>
      </trkpt>
      <trkpt lat="46.75373" lon="5.96868">
        <ele>671.6</ele>
        <time>2022-05-24T12:30:20Z</time>
      </trkpt>
      <trkpt lat="46.7537" lon="5.9687">
        <ele>672</ele>
        <time>2022-05-24T12:30:21Z</time>
      </trkpt>
      <trkpt lat="46.75367" lon="5.96872">
        <ele>672.2</ele>
        <time>2022-05-24T12:30:22Z</time>
      </trkpt>
      <trkpt lat="46.75364" lon="5.96875">
        <ele>672.2</ele>
        <time>2022-05-24T12:30:23Z</time>
      </trkpt>
      <trkpt lat="46.75361" lon="5.96877">
        <ele>672.6</ele>
        <time>2022-05-24T12:30:24Z</time>
      </trkpt>
      <trkpt lat="46.75357" lon="5.96879">
        <ele>672.6</ele>
        <time>2022-05-24T12:30:25Z</time>
      </trkpt>
      <trkpt lat="46.75354" lon="5.9688">
        <ele>672.8</ele>
        <time>2022-05-24T12:30:26Z</time>
      </trkpt>
      <trkpt lat="46.7535" lon="5.96882">
        <ele>672.8</ele>
        <time>2022-05-24T12:30:27Z</time>
      </trkpt>
      <trkpt lat="46.75347" lon="5.96885">
        <ele>673.2</ele>
        <time>2022-05-24T12:30:28Z</time>
      </trkpt>
      <trkpt lat="46.75343" lon="5.96886">
        <ele>673.2</ele>
        <time>2022-05-24T12:30:29Z</time>
      </trkpt>
      <trkpt lat="46.7534" lon="5.96889">
        <ele>673.4</ele>
        <time>2022-05-24T12:30:30Z</time>
      </trkpt>
      <trkpt lat="46.75337" lon="5.96891">
        <ele>673.4</ele>
        <time>2022-05-24T12:30:31Z</time>
      </trkpt>
      <trkpt lat="46.75333" lon="5.96894">
        <ele>673.6</ele>
        <time>2022-05-24T12:30:32Z</time>
      </trkpt>
      <trkpt lat="46.7533" lon="5.96896">
        <ele>673.6</ele>
        <time>2022-05-24T12:30:33Z</time>
      </trkpt>
      <trkpt lat="46.75326" lon="5.96898">
        <ele>673.8</ele>
        <time>2022-05-24T12:30:34Z</time>
      </trkpt>
      <trkpt lat="46.75323" lon="5.969">
        <ele>673.8</ele>
        <time>2022-05-24T12:30:35Z</time>
      </trkpt>
      <trkpt lat="46.7532" lon="5.96902">
        <ele>674.2</ele>
        <time>2022-05-24T12:30:36Z</time>
      </trkpt>
      <trkpt lat="46.75316" lon="5.96904">
        <ele>674.2</ele>
        <time>2022-05-24T12:30:37Z</time>
      </trkpt>
      <trkpt lat="46.75313" lon="5.96906">
        <ele>674.4</ele>
        <time>2022-05-24T12:30:38Z</time>
      </trkpt>
      <trkpt lat="46.7531" lon="5.96908">
        <ele>674.4</ele>
        <time>2022-05-24T12:30:39Z</time>
      </trkpt>
      <trkpt lat="46.75306" lon="5.9691">
        <ele>674.6</ele>
        <time>2022-05-24T12:30:40Z</time>
      </trkpt>
      <trkpt lat="46.75303" lon="5.96912">
        <ele>674.6</ele>
        <time>2022-05-24T12:30:41Z</time>
      </trkpt>
      <trkpt lat="46.753" lon="5.96914">
        <ele>674.6</ele>
        <time>2022-05-24T12:30:42Z</time>
      </trkpt>
      <trkpt lat="46.75297" lon="5.96917">
        <ele>675</ele>
        <time>2022-05-24T12:30:43Z</time>
      </trkpt>
      <trkpt lat="46.75294" lon="5.96919">
        <ele>675</ele>
        <time>2022-05-24T12:30:44Z</time>
      </trkpt>
      <trkpt lat="46.75291" lon="5.96921">
        <ele>675.2</ele>
        <time>2022-05-24T12:30:45Z</time>
      </trkpt>
      <trkpt lat="46.75288" lon="5.96924">
        <ele>675.2</ele>
        <time>2022-05-24T12:30:46Z</time>
      </trkpt>
      <trkpt lat="46.75285" lon="5.96928">
        <ele>675.6</ele>
        <time>2022-05-24T12:30:47Z</time>
      </trkpt>
      <trkpt lat="46.75282" lon="5.96931">
        <ele>675.6</ele>
        <time>2022-05-24T12:30:48Z</time>
      </trkpt>
      <trkpt lat="46.7528" lon="5.96935">
        <ele>675.6</ele>
        <time>2022-05-24T12:30:49Z</time>
      </trkpt>
      <trkpt lat="46.75277" lon="5.96939">
        <ele>675.8</ele>
        <time>2022-05-24T12:30:50Z</time>
      </trkpt>
      <trkpt lat="46.75274" lon="5.96943">
        <ele>675.8</ele>
        <time>2022-05-24T12:30:51Z</time>
      </trkpt>
      <trkpt lat="46.75271" lon="5.96947">
        <ele>675.8</ele>
        <time>2022-05-24T12:30:52Z</time>
      </trkpt>
      <trkpt lat="46.75268" lon="5.96951">
        <ele>676.2</ele>
        <time>2022-05-24T12:30:53Z</time>
      </trkpt>
      <trkpt lat="46.75264" lon="5.96954">
        <ele>676.2</ele>
        <time>2022-05-24T12:30:54Z</time>
      </trkpt>
      <trkpt lat="46.75259" lon="5.96955">
        <ele>676.2</ele>
        <time>2022-05-24T12:30:55Z</time>
      </trkpt>
      <trkpt lat="46.75255" lon="5.96957">
        <ele>676.2</ele>
        <time>2022-05-24T12:30:56Z</time>
      </trkpt>
      <trkpt lat="46.75251" lon="5.96959">
        <ele>676.4</ele>
        <time>2022-05-24T12:30:57Z</time>
      </trkpt>
      <trkpt lat="46.7525" lon="5.96964">
        <ele>676.4</ele>
        <time>2022-05-24T12:30:58Z</time>
      </trkpt>
      <trkpt lat="46.75247" lon="5.96968">
        <ele>676.8</ele>
        <time>2022-05-24T12:30:59Z</time>
      </trkpt>
      <trkpt lat="46.75245" lon="5.96972">
        <ele>676.8</ele>
        <time>2022-05-24T12:31:00Z</time>
      </trkpt>
      <trkpt lat="46.75243" lon="5.96975">
        <ele>677</ele>
        <time>2022-05-24T12:31:01Z</time>
      </trkpt>
      <trkpt lat="46.75241" lon="5.96978">
        <ele>677</ele>
        <time>2022-05-24T12:31:02Z</time>
      </trkpt>
      <trkpt lat="46.75239" lon="5.96981">
        <ele>677.4</ele>
        <time>2022-05-24T12:31:03Z</time>
      </trkpt>
      <trkpt lat="46.75237" lon="5.96984">
        <ele>677.4</ele>
        <time>2022-05-24T12:31:04Z</time>
      </trkpt>
      <trkpt lat="46.75235" lon="5.96986">
        <ele>677.6</ele>
        <time>2022-05-24T12:31:05Z</time>
      </trkpt>
      <trkpt lat="46.75234" lon="5.96989">
        <ele>677.6</ele>
        <time>2022-05-24T12:31:06Z</time>
      </trkpt>
      <trkpt lat="46.75232" lon="5.96992">
        <ele>678</ele>
        <time>2022-05-24T12:31:07Z</time>
      </trkpt>
      <trkpt lat="46.75231" lon="5.96995">
        <ele>678</ele>
        <time>2022-05-24T12:31:08Z</time>
      </trkpt>
      <trkpt lat="46.75229" lon="5.96998">
        <ele>678.2</ele>
        <time>2022-05-24T12:31:09Z</time>
      </trkpt>
      <trkpt lat="46.75228" lon="5.97">
        <ele>678.2</ele>
        <time>2022-05-24T12:31:10Z</time>
      </trkpt>
      <trkpt lat="46.75227" lon="5.97003">
        <ele>678.4</ele>
        <time>2022-05-24T12:31:11Z</time>
      </trkpt>
      <trkpt lat="46.75227" lon="5.97003">
        <ele>678.4</ele>
        <time>2022-05-24T12:31:12Z</time>
      </trkpt>
      <trkpt lat="46.75227" lon="5.97003">
        <ele>678.6</ele>
        <time>2022-05-24T12:31:13Z</time>
      </trkpt>
      <trkpt lat="46.75227" lon="5.97004">
        <ele>678.6</ele>
        <time>2022-05-24T12:31:14Z</time>
      </trkpt>
      <trkpt lat="46.75226" lon="5.97004">
        <ele>678.6</ele>
        <time>2022-05-24T12:31:15Z</time>
      </trkpt>
      <trkpt lat="46.75226" lon="5.97004">
        <ele>678.6</ele>
        <time>2022-05-24T12:31:16Z</time>
      </trkpt>
      <trkpt lat="46.75226" lon="5.97004">
        <ele>678.6</ele>
        <time>2022-05-24T12:31:17Z</time>
      </trkpt>
      <trkpt lat="46.75226" lon="5.97004">
        <ele>678.6</ele>
        <time>2022-05-24T12:31:18Z</time>
      </trkpt>
      <trkpt lat="46.75226" lon="5.97004">
        <ele>678.8</ele>
        <time>2022-05-24T12:31:20Z</time>
      </trkpt>
      <trkpt lat="46.75226" lon="5.97004">
        <ele>678.8</ele>
        <time>2022-05-24T12:31:21Z</time>
      </trkpt>
      <trkpt lat="46.75226" lon="5.97004">
        <ele>678.8</ele>
        <time>2022-05-24T12:31:22Z</time>
      </trkpt>
      <trkpt lat="46.75226" lon="5.97005">
        <ele>678.8</ele>
        <time>2022-05-24T12:31:23Z</time>
      </trkpt>
      <trkpt lat="46.75226" lon="5.97005">
        <ele>678.8</ele>
        <time>2022-05-24T12:31:24Z</time>
      </trkpt>
      <trkpt lat="46.75226" lon="5.97005">
        <ele>678.8</ele>
        <time>2022-05-24T12:31:25Z</time>
      </trkpt>
      <trkpt lat="46.75226" lon="5.97005">
        <ele>678.8</ele>
        <time>2022-05-24T12:31:26Z</time>
      </trkpt>
      <trkpt lat="46.75226" lon="5.97005">
        <ele>678.8</ele>
        <time>2022-05-24T12:31:39Z</time>
      </trkpt>
      <trkpt lat="46.75226" lon="5.97005">
        <ele>678.8</ele>
        <time>2022-05-24T12:31:40Z</time>
      </trkpt>
      <trkpt lat="46.75226" lon="5.97005">
        <ele>678.8</ele>
        <time>2022-05-24T12:31:41Z</time>
      </trkpt>
      <trkpt lat="46.75226" lon="5.97005">
        <ele>678.8</ele>
        <time>2022-05-24T12:31:43Z</time>
      </trkpt>
      <trkpt lat="46.75226" lon="5.97006">
        <ele>678.8</ele>
        <time>2022-05-24T12:31:44Z</time>
      </trkpt>
      <trkpt lat="46.75226" lon="5.97006">
        <ele>678.8</ele>
        <time>2022-05-24T12:31:45Z</time>
      </trkpt>
      <trkpt lat="46.75226" lon="5.97006">
        <ele>678.8</ele>
        <time>2022-05-24T12:31:46Z</time>
      </trkpt>
      <trkpt lat="46.75226" lon="5.97006">
        <ele>678.8</ele>
        <time>2022-05-24T12:31:47Z</time>
      </trkpt>
      <trkpt lat="46.75226" lon="5.97006">
        <ele>678.8</ele>
        <time>2022-05-24T12:31:48Z</time>
      </trkpt>
      <trkpt lat="46.75226" lon="5.97006">
        <ele>678.8</ele>
        <time>2022-05-24T12:31:49Z</time>
      </trkpt>
      <trkpt lat="46.75226" lon="5.97006">
        <ele>678.8</ele>
        <time>2022-05-24T12:31:50Z</time>
      </trkpt>
      <trkpt lat="46.75226" lon="5.97006">
        <ele>678.8</ele>
        <time>2022-05-24T12:31:51Z</time>
      </trkpt>
      <trkpt lat="46.75225" lon="5.97007">
        <ele>678.8</ele>
        <time>2022-05-24T12:31:52Z</time>
      </trkpt>
      <trkpt lat="46.75225" lon="5.97007">
        <ele>678.8</ele>
        <time>2022-05-24T12:31:53Z</time>
      </trkpt>
      <trkpt lat="46.75225" lon="5.97007">
        <ele>678.8</ele>
        <time>2022-05-24T12:31:55Z</time>
      </trkpt>
      <trkpt lat="46.75225" lon="5.97007">
        <ele>678.8</ele>
        <time>2022-05-24T12:31:56Z</time>
      </trkpt>
      <trkpt lat="46.75225" lon="5.97007">
        <ele>678.8</ele>
        <time>2022-05-24T12:31:59Z</time>
      </trkpt>
      <trkpt lat="46.75225" lon="5.97007">
        <ele>678.8</ele>
        <time>2022-05-24T12:32:00Z</time>
      </trkpt>
      <trkpt lat="46.75225" lon="5.97007">
        <ele>678.8</ele>
        <time>2022-05-24T12:32:01Z</time>
      </trkpt>
      <trkpt lat="46.75225" lon="5.97007">
        <ele>679</ele>
        <time>2022-05-24T12:32:07Z</time>
      </trkpt>
      <trkpt lat="46.75225" lon="5.97008">
        <ele>679</ele>
        <time>2022-05-24T12:32:08Z</time>
      </trkpt>
      <trkpt lat="46.75225" lon="5.97008">
        <ele>679</ele>
        <time>2022-05-24T12:32:09Z</time>
      </trkpt>
      <trkpt lat="46.75225" lon="5.97008">
        <ele>679</ele>
        <time>2022-05-24T12:32:10Z</time>
      </trkpt>
      <trkpt lat="46.75225" lon="5.97008">
        <ele>679</ele>
        <time>2022-05-24T12:32:11Z</time>
      </trkpt>
      <trkpt lat="46.75225" lon="5.97008">
        <ele>679</ele>
        <time>2022-05-24T12:32:12Z</time>
      </trkpt>
      <trkpt lat="46.75225" lon="5.97008">
        <ele>679</ele>
        <time>2022-05-24T12:32:13Z</time>
      </trkpt>
      <trkpt lat="46.75225" lon="5.97008">
        <ele>679</ele>
        <time>2022-05-24T12:32:17Z</time>
      </trkpt>
      <trkpt lat="46.75225" lon="5.97008">
        <ele>679</ele>
        <time>2022-05-24T12:32:18Z</time>
      </trkpt>
      <trkpt lat="46.75225" lon="5.97009">
        <ele>679</ele>
        <time>2022-05-24T12:32:19Z</time>
      </trkpt>
      <trkpt lat="46.75225" lon="5.97009">
        <ele>679</ele>
        <time>2022-05-24T12:32:20Z</time>
      </trkpt>
      <trkpt lat="46.75225" lon="5.97009">
        <ele>679</ele>
        <time>2022-05-24T12:32:21Z</time>
      </trkpt>
      <trkpt lat="46.75225" lon="5.97009">
        <ele>679.2</ele>
        <time>2022-05-24T12:32:22Z</time>
      </trkpt>
      <trkpt lat="46.75225" lon="5.97009">
        <ele>679.2</ele>
        <time>2022-05-24T12:32:23Z</time>
      </trkpt>
      <trkpt lat="46.75225" lon="5.97009">
        <ele>679.2</ele>
        <time>2022-05-24T12:33:39Z</time>
      </trkpt>
      <trkpt lat="46.75225" lon="5.97009">
        <ele>679.2</ele>
        <time>2022-05-24T12:33:40Z</time>
      </trkpt>
      <trkpt lat="46.75224" lon="5.97009">
        <ele>679.2</ele>
        <time>2022-05-24T12:33:41Z</time>
      </trkpt>
      <trkpt lat="46.75224" lon="5.9701">
        <ele>679.2</ele>
        <time>2022-05-24T12:33:42Z</time>
      </trkpt>
      <trkpt lat="46.75224" lon="5.9701">
        <ele>679.2</ele>
        <time>2022-05-24T12:33:43Z</time>
      </trkpt>
      <trkpt lat="46.75224" lon="5.9701">
        <ele>679.2</ele>
        <time>2022-05-24T12:33:44Z</time>
      </trkpt>
      <trkpt lat="46.75224" lon="5.9701">
        <ele>679.2</ele>
        <time>2022-05-24T12:33:45Z</time>
      </trkpt>
      <trkpt lat="46.75224" lon="5.9701">
        <ele>679.2</ele>
        <time>2022-05-24T12:33:47Z</time>
      </trkpt>
      <trkpt lat="46.75224" lon="5.9701">
        <ele>679.2</ele>
        <time>2022-05-24T12:33:48Z</time>
      </trkpt>
      <trkpt lat="46.75224" lon="5.9701">
        <ele>679.2</ele>
        <time>2022-05-24T12:33:58Z</time>
      </trkpt>
      <trkpt lat="46.75224" lon="5.9701">
        <ele>679.2</ele>
        <time>2022-05-24T12:33:59Z</time>
      </trkpt>
      <trkpt lat="46.75224" lon="5.97011">
        <ele>679.2</ele>
        <time>2022-05-24T12:34:01Z</time>
      </trkpt>
      <trkpt lat="46.75224" lon="5.97011">
        <ele>679.2</ele>
        <time>2022-05-24T12:34:02Z</time>
      </trkpt>
      <trkpt lat="46.75224" lon="5.97011">
        <ele>679.2</ele>
        <time>2022-05-24T12:34:04Z</time>
      </trkpt>
      <trkpt lat="46.75224" lon="5.97011">
        <ele>679.2</ele>
        <time>2022-05-24T12:34:05Z</time>
      </trkpt>
      <trkpt lat="46.75224" lon="5.97011">
        <ele>679.2</ele>
        <time>2022-05-24T12:34:13Z</time>
      </trkpt>
      <trkpt lat="46.75224" lon="5.97011">
        <ele>679.2</ele>
        <time>2022-05-24T12:34:14Z</time>
      </trkpt>
      <trkpt lat="46.75224" lon="5.97011">
        <ele>679</ele>
        <time>2022-05-24T12:34:15Z</time>
      </trkpt>
      <trkpt lat="46.75224" lon="5.97011">
        <ele>679</ele>
        <time>2022-05-24T12:34:16Z</time>
      </trkpt>
      <trkpt lat="46.75224" lon="5.97012">
        <ele>679</ele>
        <time>2022-05-24T12:34:29Z</time>
      </trkpt>
      <trkpt lat="46.75224" lon="5.97012">
        <ele>679</ele>
        <time>2022-05-24T12:34:30Z</time>
      </trkpt>
      <trkpt lat="46.75224" lon="5.97012">
        <ele>679</ele>
        <time>2022-05-24T12:34:31Z</time>
      </trkpt>
      <trkpt lat="46.75224" lon="5.97012">
        <ele>679</ele>
        <time>2022-05-24T12:34:32Z</time>
      </trkpt>
      <trkpt lat="46.75224" lon="5.97012">
        <ele>679</ele>
        <time>2022-05-24T12:34:33Z</time>
      </trkpt>
      <trkpt lat="46.75224" lon="5.97012">
        <ele>679</ele>
        <time>2022-05-24T12:34:34Z</time>
      </trkpt>
      <trkpt lat="46.75223" lon="5.97012">
        <ele>679</ele>
        <time>2022-05-24T12:34:35Z</time>
      </trkpt>
      <trkpt lat="46.75223" lon="5.97012">
        <ele>679</ele>
        <time>2022-05-24T12:34:36Z</time>
      </trkpt>
      <trkpt lat="46.75223" lon="5.97013">
        <ele>679</ele>
        <time>2022-05-24T12:34:37Z</time>
      </trkpt>
      <trkpt lat="46.75223" lon="5.97013">
        <ele>679</ele>
        <time>2022-05-24T12:34:39Z</time>
      </trkpt>
      <trkpt lat="46.75223" lon="5.97013">
        <ele>678.8</ele>
        <time>2022-05-24T12:34:40Z</time>
      </trkpt>
      <trkpt lat="46.75223" lon="5.97013">
        <ele>679.2</ele>
        <time>2022-05-24T12:35:17Z</time>
      </trkpt>
      <trkpt lat="46.75223" lon="5.97013">
        <ele>679.2</ele>
        <time>2022-05-24T12:35:18Z</time>
      </trkpt>
      <trkpt lat="46.75223" lon="5.97013">
        <ele>679.2</ele>
        <time>2022-05-24T12:35:19Z</time>
      </trkpt>
      <trkpt lat="46.75223" lon="5.97013">
        <ele>679.2</ele>
        <time>2022-05-24T12:35:20Z</time>
      </trkpt>
      <trkpt lat="46.75223" lon="5.97013">
        <ele>679.2</ele>
        <time>2022-05-24T12:35:21Z</time>
      </trkpt>
      <trkpt lat="46.75223" lon="5.97014">
        <ele>679.2</ele>
        <time>2022-05-24T12:35:22Z</time>
      </trkpt>
      <trkpt lat="46.75223" lon="5.97014">
        <ele>679.2</ele>
        <time>2022-05-24T12:35:23Z</time>
      </trkpt>
      <trkpt lat="46.75223" lon="5.97014">
        <ele>679.2</ele>
        <time>2022-05-24T12:35:24Z</time>
      </trkpt>
      <trkpt lat="46.75223" lon="5.97014">
        <ele>679.2</ele>
        <time>2022-05-24T12:35:25Z</time>
      </trkpt>
      <trkpt lat="46.75223" lon="5.97014">
        <ele>679.2</ele>
        <time>2022-05-24T12:35:26Z</time>
      </trkpt>
      <trkpt lat="46.75223" lon="5.97014">
        <ele>679.2</ele>
        <time>2022-05-24T12:35:27Z</time>
      </trkpt>
      <trkpt lat="46.75223" lon="5.97014">
        <ele>679.2</ele>
        <time>2022-05-24T12:35:28Z</time>
      </trkpt>
      <trkpt lat="46.75223" lon="5.97014">
        <ele>679.2</ele>
        <time>2022-05-24T12:35:29Z</time>
      </trkpt>
      <trkpt lat="46.75223" lon="5.97015">
        <ele>679.2</ele>
        <time>2022-05-24T12:35:30Z</time>
      </trkpt>
      <trkpt lat="46.75222" lon="5.97017">
        <ele>679.2</ele>
        <time>2022-05-24T12:35:31Z</time>
      </trkpt>
      <trkpt lat="46.75222" lon="5.9702">
        <ele>679.2</ele>
        <time>2022-05-24T12:35:32Z</time>
      </trkpt>
      <trkpt lat="46.75221" lon="5.97023">
        <ele>679.4</ele>
        <time>2022-05-24T12:35:33Z</time>
      </trkpt>
      <trkpt lat="46.75219" lon="5.97026">
        <ele>679.4</ele>
        <time>2022-05-24T12:35:34Z</time>
      </trkpt>
      <trkpt lat="46.75218" lon="5.97028">
        <ele>679.8</ele>
        <time>2022-05-24T12:35:35Z</time>
      </trkpt>
      <trkpt lat="46.75216" lon="5.97031">
        <ele>679.8</ele>
        <time>2022-05-24T12:35:36Z</time>
      </trkpt>
      <trkpt lat="46.75214" lon="5.97034">
        <ele>680</ele>
        <time>2022-05-24T12:35:37Z</time>
      </trkpt>
      <trkpt lat="46.75212" lon="5.97036">
        <ele>680</ele>
        <time>2022-05-24T12:35:38Z</time>
      </trkpt>
      <trkpt lat="46.75211" lon="5.97039">
        <ele>680.2</ele>
        <time>2022-05-24T12:35:39Z</time>
      </trkpt>
      <trkpt lat="46.75209" lon="5.97041">
        <ele>680.2</ele>
        <time>2022-05-24T12:35:40Z</time>
      </trkpt>
      <trkpt lat="46.75207" lon="5.97043">
        <ele>680.4</ele>
        <time>2022-05-24T12:35:41Z</time>
      </trkpt>
      <trkpt lat="46.75206" lon="5.97046">
        <ele>680.4</ele>
        <time>2022-05-24T12:35:42Z</time>
      </trkpt>
      <trkpt lat="46.75204" lon="5.97049">
        <ele>680.6</ele>
        <time>2022-05-24T12:35:43Z</time>
      </trkpt>
      <trkpt lat="46.75203" lon="5.97053">
        <ele>680.6</ele>
        <time>2022-05-24T12:35:44Z</time>
      </trkpt>
      <trkpt lat="46.75201" lon="5.97057">
        <ele>681</ele>
        <time>2022-05-24T12:35:45Z</time>
      </trkpt>
      <trkpt lat="46.75199" lon="5.97061">
        <ele>681</ele>
        <time>2022-05-24T12:35:46Z</time>
      </trkpt>
      <trkpt lat="46.75197" lon="5.97064">
        <ele>681.2</ele>
        <time>2022-05-24T12:35:47Z</time>
      </trkpt>
      <trkpt lat="46.75195" lon="5.97069">
        <ele>681.2</ele>
        <time>2022-05-24T12:35:48Z</time>
      </trkpt>
      <trkpt lat="46.75193" lon="5.97072">
        <ele>681.6</ele>
        <time>2022-05-24T12:35:49Z</time>
      </trkpt>
      <trkpt lat="46.7519" lon="5.97076">
        <ele>681.6</ele>
        <time>2022-05-24T12:35:50Z</time>
      </trkpt>
      <trkpt lat="46.75188" lon="5.9708">
        <ele>682</ele>
        <time>2022-05-24T12:35:51Z</time>
      </trkpt>
      <trkpt lat="46.75186" lon="5.97083">
        <ele>682</ele>
        <time>2022-05-24T12:35:52Z</time>
      </trkpt>
      <trkpt lat="46.75184" lon="5.97088">
        <ele>682.2</ele>
        <time>2022-05-24T12:35:53Z</time>
      </trkpt>
      <trkpt lat="46.75182" lon="5.97092">
        <ele>682.2</ele>
        <time>2022-05-24T12:35:54Z</time>
      </trkpt>
      <trkpt lat="46.7518" lon="5.97096">
        <ele>682.6</ele>
        <time>2022-05-24T12:35:55Z</time>
      </trkpt>
      <trkpt lat="46.75178" lon="5.97101">
        <ele>682.8</ele>
        <time>2022-05-24T12:35:56Z</time>
      </trkpt>
      <trkpt lat="46.75176" lon="5.97106">
        <ele>683</ele>
        <time>2022-05-24T12:35:57Z</time>
      </trkpt>
      <trkpt lat="46.75174" lon="5.97111">
        <ele>683</ele>
        <time>2022-05-24T12:35:58Z</time>
      </trkpt>
      <trkpt lat="46.75173" lon="5.97116">
        <ele>683.4</ele>
        <time>2022-05-24T12:35:59Z</time>
      </trkpt>
      <trkpt lat="46.75171" lon="5.97121">
        <ele>683.4</ele>
        <time>2022-05-24T12:36:00Z</time>
      </trkpt>
      <trkpt lat="46.7517" lon="5.97126">
        <ele>683.6</ele>
        <time>2022-05-24T12:36:01Z</time>
      </trkpt>
      <trkpt lat="46.75168" lon="5.97131">
        <ele>683.6</ele>
        <time>2022-05-24T12:36:02Z</time>
      </trkpt>
      <trkpt lat="46.75166" lon="5.97135">
        <ele>683.6</ele>
        <time>2022-05-24T12:36:03Z</time>
      </trkpt>
      <trkpt lat="46.75165" lon="5.9714">
        <ele>684.2</ele>
        <time>2022-05-24T12:36:04Z</time>
      </trkpt>
      <trkpt lat="46.75163" lon="5.97145">
        <ele>684.2</ele>
        <time>2022-05-24T12:36:05Z</time>
      </trkpt>
      <trkpt lat="46.75161" lon="5.97149">
        <ele>684.4</ele>
        <time>2022-05-24T12:36:06Z</time>
      </trkpt>
      <trkpt lat="46.7516" lon="5.97154">
        <ele>684.4</ele>
        <time>2022-05-24T12:36:07Z</time>
      </trkpt>
      <trkpt lat="46.75158" lon="5.97159">
        <ele>684.8</ele>
        <time>2022-05-24T12:36:08Z</time>
      </trkpt>
      <trkpt lat="46.75157" lon="5.97163">
        <ele>685</ele>
        <time>2022-05-24T12:36:09Z</time>
      </trkpt>
      <trkpt lat="46.75155" lon="5.97168">
        <ele>685</ele>
        <time>2022-05-24T12:36:10Z</time>
      </trkpt>
      <trkpt lat="46.75154" lon="5.97173">
        <ele>685.2</ele>
        <time>2022-05-24T12:36:11Z</time>
      </trkpt>
      <trkpt lat="46.75152" lon="5.97177">
        <ele>685.2</ele>
        <time>2022-05-24T12:36:12Z</time>
      </trkpt>
      <trkpt lat="46.75151" lon="5.97183">
        <ele>685.6</ele>
        <time>2022-05-24T12:36:13Z</time>
      </trkpt>
      <trkpt lat="46.75149" lon="5.97188">
        <ele>685.6</ele>
        <time>2022-05-24T12:36:14Z</time>
      </trkpt>
      <trkpt lat="46.75147" lon="5.97192">
        <ele>686</ele>
        <time>2022-05-24T12:36:15Z</time>
      </trkpt>
      <trkpt lat="46.75145" lon="5.97196">
        <ele>686</ele>
        <time>2022-05-24T12:36:16Z</time>
      </trkpt>
      <trkpt lat="46.75143" lon="5.972">
        <ele>686.2</ele>
        <time>2022-05-24T12:36:17Z</time>
      </trkpt>
      <trkpt lat="46.75141" lon="5.97204">
        <ele>686.2</ele>
        <time>2022-05-24T12:36:18Z</time>
      </trkpt>
      <trkpt lat="46.75139" lon="5.97208">
        <ele>686.6</ele>
        <time>2022-05-24T12:36:19Z</time>
      </trkpt>
      <trkpt lat="46.75138" lon="5.97212">
        <ele>686.6</ele>
        <time>2022-05-24T12:36:20Z</time>
      </trkpt>
      <trkpt lat="46.75137" lon="5.97217">
        <ele>686.8</ele>
        <time>2022-05-24T12:36:21Z</time>
      </trkpt>
      <trkpt lat="46.75135" lon="5.97221">
        <ele>687.2</ele>
        <time>2022-05-24T12:36:22Z</time>
      </trkpt>
      <trkpt lat="46.75134" lon="5.97225">
        <ele>687.2</ele>
        <time>2022-05-24T12:36:23Z</time>
      </trkpt>
      <trkpt lat="46.75132" lon="5.97229">
        <ele>687.4</ele>
        <time>2022-05-24T12:36:24Z</time>
      </trkpt>
      <trkpt lat="46.75131" lon="5.97233">
        <ele>687.4</ele>
        <time>2022-05-24T12:36:25Z</time>
      </trkpt>
      <trkpt lat="46.75129" lon="5.97237">
        <ele>687.6</ele>
        <time>2022-05-24T12:36:26Z</time>
      </trkpt>
      <trkpt lat="46.75128" lon="5.97241">
        <ele>687.6</ele>
        <time>2022-05-24T12:36:27Z</time>
      </trkpt>
      <trkpt lat="46.75126" lon="5.97245">
        <ele>688</ele>
        <time>2022-05-24T12:36:28Z</time>
      </trkpt>
      <trkpt lat="46.75123" lon="5.97251">
        <ele>688.2</ele>
        <time>2022-05-24T12:36:29Z</time>
      </trkpt>
      <trkpt lat="46.75122" lon="5.97256">
        <ele>688.2</ele>
        <time>2022-05-24T12:36:30Z</time>
      </trkpt>
      <trkpt lat="46.7512" lon="5.97261">
        <ele>688.4</ele>
        <time>2022-05-24T12:36:31Z</time>
      </trkpt>
      <trkpt lat="46.75118" lon="5.97265">
        <ele>688.6</ele>
        <time>2022-05-24T12:36:32Z</time>
      </trkpt>
      <trkpt lat="46.75117" lon="5.9727">
        <ele>688.6</ele>
        <time>2022-05-24T12:36:33Z</time>
      </trkpt>
      <trkpt lat="46.75117" lon="5.97275">
        <ele>689</ele>
        <time>2022-05-24T12:36:34Z</time>
      </trkpt>
      <trkpt lat="46.75116" lon="5.9728">
        <ele>689</ele>
        <time>2022-05-24T12:36:35Z</time>
      </trkpt>
      <trkpt lat="46.75115" lon="5.97285">
        <ele>689.4</ele>
        <time>2022-05-24T12:36:36Z</time>
      </trkpt>
      <trkpt lat="46.75115" lon="5.97289">
        <ele>689.4</ele>
        <time>2022-05-24T12:36:37Z</time>
      </trkpt>
      <trkpt lat="46.75114" lon="5.97294">
        <ele>689.6</ele>
        <time>2022-05-24T12:36:38Z</time>
      </trkpt>
      <trkpt lat="46.75113" lon="5.97298">
        <ele>689.8</ele>
        <time>2022-05-24T12:36:39Z</time>
      </trkpt>
      <trkpt lat="46.75112" lon="5.97302">
        <ele>690.2</ele>
        <time>2022-05-24T12:36:40Z</time>
      </trkpt>
      <trkpt lat="46.75112" lon="5.97306">
        <ele>690.2</ele>
        <time>2022-05-24T12:36:41Z</time>
      </trkpt>
      <trkpt lat="46.75111" lon="5.97311">
        <ele>690.4</ele>
        <time>2022-05-24T12:36:42Z</time>
      </trkpt>
      <trkpt lat="46.7511" lon="5.97316">
        <ele>690.4</ele>
        <time>2022-05-24T12:36:43Z</time>
      </trkpt>
      <trkpt lat="46.75109" lon="5.9732">
        <ele>690.8</ele>
        <time>2022-05-24T12:36:44Z</time>
      </trkpt>
      <trkpt lat="46.75108" lon="5.97325">
        <ele>691.2</ele>
        <time>2022-05-24T12:36:45Z</time>
      </trkpt>
      <trkpt lat="46.75108" lon="5.97329">
        <ele>691.2</ele>
        <time>2022-05-24T12:36:46Z</time>
      </trkpt>
      <trkpt lat="46.75108" lon="5.97333">
        <ele>691.4</ele>
        <time>2022-05-24T12:36:47Z</time>
      </trkpt>
      <trkpt lat="46.75107" lon="5.97338">
        <ele>691.8</ele>
        <time>2022-05-24T12:36:48Z</time>
      </trkpt>
      <trkpt lat="46.75106" lon="5.97343">
        <ele>691.8</ele>
        <time>2022-05-24T12:36:49Z</time>
      </trkpt>
      <trkpt lat="46.75106" lon="5.97347">
        <ele>692</ele>
        <time>2022-05-24T12:36:50Z</time>
      </trkpt>
      <trkpt lat="46.75105" lon="5.97351">
        <ele>692</ele>
        <time>2022-05-24T12:36:51Z</time>
      </trkpt>
      <trkpt lat="46.75105" lon="5.97356">
        <ele>692.4</ele>
        <time>2022-05-24T12:36:52Z</time>
      </trkpt>
      <trkpt lat="46.75105" lon="5.97361">
        <ele>692.6</ele>
        <time>2022-05-24T12:36:53Z</time>
      </trkpt>
      <trkpt lat="46.75105" lon="5.97365">
        <ele>692.8</ele>
        <time>2022-05-24T12:36:54Z</time>
      </trkpt>
      <trkpt lat="46.75104" lon="5.9737">
        <ele>693</ele>
        <time>2022-05-24T12:36:55Z</time>
      </trkpt>
      <trkpt lat="46.75104" lon="5.97375">
        <ele>693.4</ele>
        <time>2022-05-24T12:36:56Z</time>
      </trkpt>
      <trkpt lat="46.75104" lon="5.97379">
        <ele>693.6</ele>
        <time>2022-05-24T12:36:57Z</time>
      </trkpt>
      <trkpt lat="46.75104" lon="5.97384">
        <ele>693.8</ele>
        <time>2022-05-24T12:36:58Z</time>
      </trkpt>
      <trkpt lat="46.75104" lon="5.97388">
        <ele>693.8</ele>
        <time>2022-05-24T12:36:59Z</time>
      </trkpt>
      <trkpt lat="46.75104" lon="5.97392">
        <ele>694.2</ele>
        <time>2022-05-24T12:37:00Z</time>
      </trkpt>
      <trkpt lat="46.75104" lon="5.97397">
        <ele>694.4</ele>
        <time>2022-05-24T12:37:01Z</time>
      </trkpt>
      <trkpt lat="46.75104" lon="5.97401">
        <ele>694.6</ele>
        <time>2022-05-24T12:37:02Z</time>
      </trkpt>
      <trkpt lat="46.75105" lon="5.97407">
        <ele>694.8</ele>
        <time>2022-05-24T12:37:03Z</time>
      </trkpt>
      <trkpt lat="46.75105" lon="5.97411">
        <ele>694.8</ele>
        <time>2022-05-24T12:37:04Z</time>
      </trkpt>
      <trkpt lat="46.75106" lon="5.97416">
        <ele>695.2</ele>
        <time>2022-05-24T12:37:05Z</time>
      </trkpt>
      <trkpt lat="46.75108" lon="5.9742">
        <ele>695.4</ele>
        <time>2022-05-24T12:37:06Z</time>
      </trkpt>
      <trkpt lat="46.75109" lon="5.97425">
        <ele>695.4</ele>
        <time>2022-05-24T12:37:07Z</time>
      </trkpt>
      <trkpt lat="46.7511" lon="5.9743">
        <ele>695.8</ele>
        <time>2022-05-24T12:37:08Z</time>
      </trkpt>
      <trkpt lat="46.75112" lon="5.97434">
        <ele>696.2</ele>
        <time>2022-05-24T12:37:09Z</time>
      </trkpt>
      <trkpt lat="46.75113" lon="5.97438">
        <ele>696.2</ele>
        <time>2022-05-24T12:37:10Z</time>
      </trkpt>
      <trkpt lat="46.75114" lon="5.97442">
        <ele>696.4</ele>
        <time>2022-05-24T12:37:11Z</time>
      </trkpt>
      <trkpt lat="46.75116" lon="5.97446">
        <ele>696.4</ele>
        <time>2022-05-24T12:37:12Z</time>
      </trkpt>
      <trkpt lat="46.75117" lon="5.9745">
        <ele>696.8</ele>
        <time>2022-05-24T12:37:13Z</time>
      </trkpt>
      <trkpt lat="46.75118" lon="5.97453">
        <ele>697.2</ele>
        <time>2022-05-24T12:37:14Z</time>
      </trkpt>
      <trkpt lat="46.75119" lon="5.97457">
        <ele>697.2</ele>
        <time>2022-05-24T12:37:15Z</time>
      </trkpt>
      <trkpt lat="46.7512" lon="5.97461">
        <ele>697.4</ele>
        <time>2022-05-24T12:37:16Z</time>
      </trkpt>
      <trkpt lat="46.75121" lon="5.97465">
        <ele>697.6</ele>
        <time>2022-05-24T12:37:17Z</time>
      </trkpt>
      <trkpt lat="46.75123" lon="5.97469">
        <ele>697.6</ele>
        <time>2022-05-24T12:37:18Z</time>
      </trkpt>
      <trkpt lat="46.75124" lon="5.97472">
        <ele>698</ele>
        <time>2022-05-24T12:37:19Z</time>
      </trkpt>
      <trkpt lat="46.75126" lon="5.97475">
        <ele>698</ele>
        <time>2022-05-24T12:37:20Z</time>
      </trkpt>
      <trkpt lat="46.75128" lon="5.97479">
        <ele>698.4</ele>
        <time>2022-05-24T12:37:21Z</time>
      </trkpt>
      <trkpt lat="46.7513" lon="5.97482">
        <ele>698.4</ele>
        <time>2022-05-24T12:37:22Z</time>
      </trkpt>
      <trkpt lat="46.75132" lon="5.97486">
        <ele>698.6</ele>
        <time>2022-05-24T12:37:23Z</time>
      </trkpt>
      <trkpt lat="46.75134" lon="5.97489">
        <ele>698.6</ele>
        <time>2022-05-24T12:37:24Z</time>
      </trkpt>
      <trkpt lat="46.75136" lon="5.97492">
        <ele>699</ele>
        <time>2022-05-24T12:37:25Z</time>
      </trkpt>
      <trkpt lat="46.75137" lon="5.97496">
        <ele>699</ele>
        <time>2022-05-24T12:37:26Z</time>
      </trkpt>
      <trkpt lat="46.75139" lon="5.97499">
        <ele>699.2</ele>
        <time>2022-05-24T12:37:27Z</time>
      </trkpt>
      <trkpt lat="46.75141" lon="5.97503">
        <ele>699.2</ele>
        <time>2022-05-24T12:37:28Z</time>
      </trkpt>
      <trkpt lat="46.75142" lon="5.97506">
        <ele>699.4</ele>
        <time>2022-05-24T12:37:29Z</time>
      </trkpt>
      <trkpt lat="46.75144" lon="5.97509">
        <ele>699.8</ele>
        <time>2022-05-24T12:37:30Z</time>
      </trkpt>
      <trkpt lat="46.75146" lon="5.97513">
        <ele>699.8</ele>
        <time>2022-05-24T12:37:31Z</time>
      </trkpt>
      <trkpt lat="46.75148" lon="5.97517">
        <ele>700</ele>
        <time>2022-05-24T12:37:32Z</time>
      </trkpt>
      <trkpt lat="46.7515" lon="5.9752">
        <ele>700</ele>
        <time>2022-05-24T12:37:33Z</time>
      </trkpt>
      <trkpt lat="46.75152" lon="5.97524">
        <ele>700.4</ele>
        <time>2022-05-24T12:37:34Z</time>
      </trkpt>
      <trkpt lat="46.75154" lon="5.97528">
        <ele>700.4</ele>
        <time>2022-05-24T12:37:35Z</time>
      </trkpt>
      <trkpt lat="46.75155" lon="5.97532">
        <ele>700.4</ele>
        <time>2022-05-24T12:37:36Z</time>
      </trkpt>
      <trkpt lat="46.75157" lon="5.97536">
        <ele>700.6</ele>
        <time>2022-05-24T12:37:37Z</time>
      </trkpt>
      <trkpt lat="46.75159" lon="5.9754">
        <ele>700.6</ele>
        <time>2022-05-24T12:37:38Z</time>
      </trkpt>
      <trkpt lat="46.7516" lon="5.97543">
        <ele>700.8</ele>
        <time>2022-05-24T12:37:39Z</time>
      </trkpt>
      <trkpt lat="46.75162" lon="5.97547">
        <ele>700.8</ele>
        <time>2022-05-24T12:37:40Z</time>
      </trkpt>
      <trkpt lat="46.75164" lon="5.97551">
        <ele>701.2</ele>
        <time>2022-05-24T12:37:41Z</time>
      </trkpt>
      <trkpt lat="46.75166" lon="5.97555">
        <ele>701.2</ele>
        <time>2022-05-24T12:37:42Z</time>
      </trkpt>
      <trkpt lat="46.75167" lon="5.97559">
        <ele>701.4</ele>
        <time>2022-05-24T12:37:43Z</time>
      </trkpt>
      <trkpt lat="46.75169" lon="5.97563">
        <ele>701.4</ele>
        <time>2022-05-24T12:37:44Z</time>
      </trkpt>
      <trkpt lat="46.75171" lon="5.97567">
        <ele>701.6</ele>
        <time>2022-05-24T12:37:45Z</time>
      </trkpt>
      <trkpt lat="46.75173" lon="5.97571">
        <ele>702</ele>
        <time>2022-05-24T12:37:46Z</time>
      </trkpt>
      <trkpt lat="46.75175" lon="5.97575">
        <ele>702</ele>
        <time>2022-05-24T12:37:47Z</time>
      </trkpt>
      <trkpt lat="46.75177" lon="5.97578">
        <ele>702.2</ele>
        <time>2022-05-24T12:37:48Z</time>
      </trkpt>
      <trkpt lat="46.75178" lon="5.97581">
        <ele>702.2</ele>
        <time>2022-05-24T12:37:49Z</time>
      </trkpt>
      <trkpt lat="46.75179" lon="5.97584">
        <ele>702.6</ele>
        <time>2022-05-24T12:37:50Z</time>
      </trkpt>
      <trkpt lat="46.7518" lon="5.97587">
        <ele>702.8</ele>
        <time>2022-05-24T12:37:51Z</time>
      </trkpt>
      <trkpt lat="46.75182" lon="5.9759">
        <ele>702.8</ele>
        <time>2022-05-24T12:37:52Z</time>
      </trkpt>
      <trkpt lat="46.75183" lon="5.97594">
        <ele>703</ele>
        <time>2022-05-24T12:37:53Z</time>
      </trkpt>
      <trkpt lat="46.75185" lon="5.97598">
        <ele>703</ele>
        <time>2022-05-24T12:37:54Z</time>
      </trkpt>
      <trkpt lat="46.75186" lon="5.97602">
        <ele>703.4</ele>
        <time>2022-05-24T12:37:55Z</time>
      </trkpt>
      <trkpt lat="46.75188" lon="5.97606">
        <ele>703.4</ele>
        <time>2022-05-24T12:37:56Z</time>
      </trkpt>
      <trkpt lat="46.75189" lon="5.97609">
        <ele>703.8</ele>
        <time>2022-05-24T12:37:57Z</time>
      </trkpt>
      <trkpt lat="46.7519" lon="5.97613">
        <ele>703.8</ele>
        <time>2022-05-24T12:37:58Z</time>
      </trkpt>
      <trkpt lat="46.75192" lon="5.97616">
        <ele>704</ele>
        <time>2022-05-24T12:37:59Z</time>
      </trkpt>
      <trkpt lat="46.75192" lon="5.97616">
        <ele>704</ele>
        <time>2022-05-24T12:38:00Z</time>
      </trkpt>
      <trkpt lat="46.75194" lon="5.9762">
        <ele>704.2</ele>
        <time>2022-05-24T12:38:01Z</time>
      </trkpt>
      <trkpt lat="46.75195" lon="5.97623">
        <ele>704.2</ele>
        <time>2022-05-24T12:38:02Z</time>
      </trkpt>
      <trkpt lat="46.75197" lon="5.97627">
        <ele>704.6</ele>
        <time>2022-05-24T12:38:03Z</time>
      </trkpt>
      <trkpt lat="46.75199" lon="5.9763">
        <ele>704.6</ele>
        <time>2022-05-24T12:38:04Z</time>
      </trkpt>
      <trkpt lat="46.75201" lon="5.97634">
        <ele>704.8</ele>
        <time>2022-05-24T12:38:05Z</time>
      </trkpt>
      <trkpt lat="46.75202" lon="5.97638">
        <ele>704.8</ele>
        <time>2022-05-24T12:38:06Z</time>
      </trkpt>
      <trkpt lat="46.75204" lon="5.97642">
        <ele>705.2</ele>
        <time>2022-05-24T12:38:07Z</time>
      </trkpt>
      <trkpt lat="46.75206" lon="5.97646">
        <ele>705.2</ele>
        <time>2022-05-24T12:38:08Z</time>
      </trkpt>
      <trkpt lat="46.75207" lon="5.97651">
        <ele>705.6</ele>
        <time>2022-05-24T12:38:09Z</time>
      </trkpt>
      <trkpt lat="46.75209" lon="5.97655">
        <ele>705.6</ele>
        <time>2022-05-24T12:38:10Z</time>
      </trkpt>
      <trkpt lat="46.75209" lon="5.9766">
        <ele>706</ele>
        <time>2022-05-24T12:38:11Z</time>
      </trkpt>
      <trkpt lat="46.75211" lon="5.97664">
        <ele>706.2</ele>
        <time>2022-05-24T12:38:12Z</time>
      </trkpt>
      <trkpt lat="46.75213" lon="5.97669">
        <ele>706.4</ele>
        <time>2022-05-24T12:38:13Z</time>
      </trkpt>
      <trkpt lat="46.75214" lon="5.97673">
        <ele>706.6</ele>
        <time>2022-05-24T12:38:14Z</time>
      </trkpt>
      <trkpt lat="46.75213" lon="5.97681">
        <ele>706.6</ele>
        <time>2022-05-24T12:38:15Z</time>
      </trkpt>
      <trkpt lat="46.75212" lon="5.97685">
        <ele>707</ele>
        <time>2022-05-24T12:38:16Z</time>
      </trkpt>
      <trkpt lat="46.7521" lon="5.97689">
        <ele>707.2</ele>
        <time>2022-05-24T12:38:17Z</time>
      </trkpt>
      <trkpt lat="46.75209" lon="5.97693">
        <ele>707.4</ele>
        <time>2022-05-24T12:38:18Z</time>
      </trkpt>
      <trkpt lat="46.75207" lon="5.97697">
        <ele>707.6</ele>
        <time>2022-05-24T12:38:19Z</time>
      </trkpt>
      <trkpt lat="46.75205" lon="5.977">
        <ele>707.6</ele>
        <time>2022-05-24T12:38:20Z</time>
      </trkpt>
      <trkpt lat="46.75203" lon="5.97704">
        <ele>708</ele>
        <time>2022-05-24T12:38:21Z</time>
      </trkpt>
      <trkpt lat="46.75202" lon="5.97708">
        <ele>708.2</ele>
        <time>2022-05-24T12:38:22Z</time>
      </trkpt>
      <trkpt lat="46.752" lon="5.97711">
        <ele>708.6</ele>
        <time>2022-05-24T12:38:23Z</time>
      </trkpt>
      <trkpt lat="46.75198" lon="5.97715">
        <ele>708.6</ele>
        <time>2022-05-24T12:38:24Z</time>
      </trkpt>
      <trkpt lat="46.75195" lon="5.97719">
        <ele>708.8</ele>
        <time>2022-05-24T12:38:25Z</time>
      </trkpt>
      <trkpt lat="46.75193" lon="5.97723">
        <ele>708.8</ele>
        <time>2022-05-24T12:38:26Z</time>
      </trkpt>
      <trkpt lat="46.75191" lon="5.97727">
        <ele>709</ele>
        <time>2022-05-24T12:38:27Z</time>
      </trkpt>
      <trkpt lat="46.75189" lon="5.97731">
        <ele>709</ele>
        <time>2022-05-24T12:38:28Z</time>
      </trkpt>
      <trkpt lat="46.75187" lon="5.97735">
        <ele>709.4</ele>
        <time>2022-05-24T12:38:29Z</time>
      </trkpt>
      <trkpt lat="46.75185" lon="5.97739">
        <ele>709.6</ele>
        <time>2022-05-24T12:38:30Z</time>
      </trkpt>
      <trkpt lat="46.75183" lon="5.97743">
        <ele>709.6</ele>
        <time>2022-05-24T12:38:31Z</time>
      </trkpt>
      <trkpt lat="46.75181" lon="5.97746">
        <ele>710</ele>
        <time>2022-05-24T12:38:32Z</time>
      </trkpt>
      <trkpt lat="46.75179" lon="5.97749">
        <ele>710</ele>
        <time>2022-05-24T12:38:33Z</time>
      </trkpt>
      <trkpt lat="46.75177" lon="5.97752">
        <ele>710.4</ele>
        <time>2022-05-24T12:38:34Z</time>
      </trkpt>
      <trkpt lat="46.75174" lon="5.97756">
        <ele>710.4</ele>
        <time>2022-05-24T12:38:35Z</time>
      </trkpt>
      <trkpt lat="46.75171" lon="5.97759">
        <ele>710.6</ele>
        <time>2022-05-24T12:38:36Z</time>
      </trkpt>
      <trkpt lat="46.75168" lon="5.97761">
        <ele>710.6</ele>
        <time>2022-05-24T12:38:37Z</time>
      </trkpt>
      <trkpt lat="46.75166" lon="5.97764">
        <ele>710.6</ele>
        <time>2022-05-24T12:38:38Z</time>
      </trkpt>
      <trkpt lat="46.75162" lon="5.97767">
        <ele>710.8</ele>
        <time>2022-05-24T12:38:39Z</time>
      </trkpt>
      <trkpt lat="46.7516" lon="5.97769">
        <ele>710.8</ele>
        <time>2022-05-24T12:38:40Z</time>
      </trkpt>
      <trkpt lat="46.75156" lon="5.97772">
        <ele>711.2</ele>
        <time>2022-05-24T12:38:41Z</time>
      </trkpt>
      <trkpt lat="46.75153" lon="5.97774">
        <ele>711.2</ele>
        <time>2022-05-24T12:38:42Z</time>
      </trkpt>
      <trkpt lat="46.7515" lon="5.97776">
        <ele>711.2</ele>
        <time>2022-05-24T12:38:43Z</time>
      </trkpt>
      <trkpt lat="46.75146" lon="5.97777">
        <ele>711.4</ele>
        <time>2022-05-24T12:38:44Z</time>
      </trkpt>
      <trkpt lat="46.75143" lon="5.97778">
        <ele>711.4</ele>
        <time>2022-05-24T12:38:45Z</time>
      </trkpt>
      <trkpt lat="46.75139" lon="5.97778">
        <ele>711.4</ele>
        <time>2022-05-24T12:38:46Z</time>
      </trkpt>
      <trkpt lat="46.75135" lon="5.97779">
        <ele>711.4</ele>
        <time>2022-05-24T12:38:47Z</time>
      </trkpt>
      <trkpt lat="46.75131" lon="5.97779">
        <ele>711.6</ele>
        <time>2022-05-24T12:38:48Z</time>
      </trkpt>
      <trkpt lat="46.75126" lon="5.9778">
        <ele>711.6</ele>
        <time>2022-05-24T12:38:49Z</time>
      </trkpt>
      <trkpt lat="46.75121" lon="5.97782">
        <ele>711.6</ele>
        <time>2022-05-24T12:38:50Z</time>
      </trkpt>
      <trkpt lat="46.75116" lon="5.97783">
        <ele>711.6</ele>
        <time>2022-05-24T12:38:51Z</time>
      </trkpt>
      <trkpt lat="46.75111" lon="5.97783">
        <ele>711.6</ele>
        <time>2022-05-24T12:38:52Z</time>
      </trkpt>
      <trkpt lat="46.75106" lon="5.97783">
        <ele>711.8</ele>
        <time>2022-05-24T12:38:53Z</time>
      </trkpt>
      <trkpt lat="46.75102" lon="5.97783">
        <ele>711.8</ele>
        <time>2022-05-24T12:38:54Z</time>
      </trkpt>
      <trkpt lat="46.75097" lon="5.97784">
        <ele>711.8</ele>
        <time>2022-05-24T12:38:55Z</time>
      </trkpt>
      <trkpt lat="46.75092" lon="5.97785">
        <ele>712</ele>
        <time>2022-05-24T12:38:56Z</time>
      </trkpt>
      <trkpt lat="46.75087" lon="5.97785">
        <ele>712</ele>
        <time>2022-05-24T12:38:57Z</time>
      </trkpt>
      <trkpt lat="46.75082" lon="5.97786">
        <ele>712</ele>
        <time>2022-05-24T12:38:58Z</time>
      </trkpt>
      <trkpt lat="46.75076" lon="5.97787">
        <ele>712.4</ele>
        <time>2022-05-24T12:38:59Z</time>
      </trkpt>
      <trkpt lat="46.75071" lon="5.97788">
        <ele>712.4</ele>
        <time>2022-05-24T12:39:00Z</time>
      </trkpt>
      <trkpt lat="46.75065" lon="5.97789">
        <ele>712.4</ele>
        <time>2022-05-24T12:39:01Z</time>
      </trkpt>
      <trkpt lat="46.7506" lon="5.9779">
        <ele>712.6</ele>
        <time>2022-05-24T12:39:02Z</time>
      </trkpt>
      <trkpt lat="46.75055" lon="5.97793">
        <ele>712.6</ele>
        <time>2022-05-24T12:39:03Z</time>
      </trkpt>
      <trkpt lat="46.75049" lon="5.97795">
        <ele>712.6</ele>
        <time>2022-05-24T12:39:04Z</time>
      </trkpt>
      <trkpt lat="46.75044" lon="5.97799">
        <ele>712.6</ele>
        <time>2022-05-24T12:39:05Z</time>
      </trkpt>
      <trkpt lat="46.75039" lon="5.97803">
        <ele>712.6</ele>
        <time>2022-05-24T12:39:06Z</time>
      </trkpt>
      <trkpt lat="46.75034" lon="5.97807">
        <ele>712.6</ele>
        <time>2022-05-24T12:39:07Z</time>
      </trkpt>
      <trkpt lat="46.7503" lon="5.97811">
        <ele>712.8</ele>
        <time>2022-05-24T12:39:08Z</time>
      </trkpt>
      <trkpt lat="46.75026" lon="5.97815">
        <ele>712.8</ele>
        <time>2022-05-24T12:39:09Z</time>
      </trkpt>
      <trkpt lat="46.75022" lon="5.97819">
        <ele>713</ele>
        <time>2022-05-24T12:39:10Z</time>
      </trkpt>
      <trkpt lat="46.75019" lon="5.97824">
        <ele>713</ele>
        <time>2022-05-24T12:39:11Z</time>
      </trkpt>
      <trkpt lat="46.75015" lon="5.97829">
        <ele>713.2</ele>
        <time>2022-05-24T12:39:12Z</time>
      </trkpt>
      <trkpt lat="46.75011" lon="5.97833">
        <ele>713.2</ele>
        <time>2022-05-24T12:39:13Z</time>
      </trkpt>
      <trkpt lat="46.75008" lon="5.97837">
        <ele>713.6</ele>
        <time>2022-05-24T12:39:14Z</time>
      </trkpt>
      <trkpt lat="46.75005" lon="5.97842">
        <ele>713.6</ele>
        <time>2022-05-24T12:39:15Z</time>
      </trkpt>
      <trkpt lat="46.75001" lon="5.97846">
        <ele>714</ele>
        <time>2022-05-24T12:39:16Z</time>
      </trkpt>
      <trkpt lat="46.74997" lon="5.9785">
        <ele>714.2</ele>
        <time>2022-05-24T12:39:17Z</time>
      </trkpt>
      <trkpt lat="46.74994" lon="5.97856">
        <ele>714.2</ele>
        <time>2022-05-24T12:39:18Z</time>
      </trkpt>
      <trkpt lat="46.7499" lon="5.97861">
        <ele>714.4</ele>
        <time>2022-05-24T12:39:19Z</time>
      </trkpt>
      <trkpt lat="46.74985" lon="5.97867">
        <ele>714.4</ele>
        <time>2022-05-24T12:39:20Z</time>
      </trkpt>
      <trkpt lat="46.74981" lon="5.97872">
        <ele>714.8</ele>
        <time>2022-05-24T12:39:21Z</time>
      </trkpt>
      <trkpt lat="46.74976" lon="5.97877">
        <ele>715.2</ele>
        <time>2022-05-24T12:39:22Z</time>
      </trkpt>
      <trkpt lat="46.74971" lon="5.97881">
        <ele>715.4</ele>
        <time>2022-05-24T12:39:23Z</time>
      </trkpt>
      <trkpt lat="46.74966" lon="5.97885">
        <ele>715.6</ele>
        <time>2022-05-24T12:39:24Z</time>
      </trkpt>
      <trkpt lat="46.74961" lon="5.97889">
        <ele>716</ele>
        <time>2022-05-24T12:39:25Z</time>
      </trkpt>
      <trkpt lat="46.74956" lon="5.9789">
        <ele>716.4</ele>
        <time>2022-05-24T12:39:26Z</time>
      </trkpt>
      <trkpt lat="46.74952" lon="5.97891">
        <ele>716.6</ele>
        <time>2022-05-24T12:39:27Z</time>
      </trkpt>
      <trkpt lat="46.74947" lon="5.97892">
        <ele>716.6</ele>
        <time>2022-05-24T12:39:28Z</time>
      </trkpt>
      <trkpt lat="46.74943" lon="5.97892">
        <ele>716.8</ele>
        <time>2022-05-24T12:39:29Z</time>
      </trkpt>
      <trkpt lat="46.74938" lon="5.97892">
        <ele>717.2</ele>
        <time>2022-05-24T12:39:30Z</time>
      </trkpt>
      <trkpt lat="46.74934" lon="5.97892">
        <ele>717.2</ele>
        <time>2022-05-24T12:39:31Z</time>
      </trkpt>
      <trkpt lat="46.74929" lon="5.97892">
        <ele>717.4</ele>
        <time>2022-05-24T12:39:32Z</time>
      </trkpt>
      <trkpt lat="46.74924" lon="5.97891">
        <ele>717.6</ele>
        <time>2022-05-24T12:39:33Z</time>
      </trkpt>
      <trkpt lat="46.7492" lon="5.97891">
        <ele>717.6</ele>
        <time>2022-05-24T12:39:34Z</time>
      </trkpt>
      <trkpt lat="46.74915" lon="5.97891">
        <ele>718</ele>
        <time>2022-05-24T12:39:35Z</time>
      </trkpt>
      <trkpt lat="46.74911" lon="5.97892">
        <ele>718.2</ele>
        <time>2022-05-24T12:39:36Z</time>
      </trkpt>
      <trkpt lat="46.74907" lon="5.97894">
        <ele>718.6</ele>
        <time>2022-05-24T12:39:37Z</time>
      </trkpt>
      <trkpt lat="46.74903" lon="5.97897">
        <ele>718.6</ele>
        <time>2022-05-24T12:39:38Z</time>
      </trkpt>
      <trkpt lat="46.74899" lon="5.979">
        <ele>719</ele>
        <time>2022-05-24T12:39:39Z</time>
      </trkpt>
      <trkpt lat="46.74896" lon="5.97905">
        <ele>719.2</ele>
        <time>2022-05-24T12:39:40Z</time>
      </trkpt>
      <trkpt lat="46.74894" lon="5.9791">
        <ele>719.4</ele>
        <time>2022-05-24T12:39:41Z</time>
      </trkpt>
      <trkpt lat="46.74892" lon="5.97914">
        <ele>719.6</ele>
        <time>2022-05-24T12:39:42Z</time>
      </trkpt>
      <trkpt lat="46.7489" lon="5.97918">
        <ele>720</ele>
        <time>2022-05-24T12:39:43Z</time>
      </trkpt>
      <trkpt lat="46.74889" lon="5.97923">
        <ele>720.2</ele>
        <time>2022-05-24T12:39:44Z</time>
      </trkpt>
      <trkpt lat="46.74889" lon="5.97928">
        <ele>720.4</ele>
        <time>2022-05-24T12:39:45Z</time>
      </trkpt>
      <trkpt lat="46.74889" lon="5.97932">
        <ele>720.4</ele>
        <time>2022-05-24T12:39:46Z</time>
      </trkpt>
      <trkpt lat="46.74888" lon="5.97937">
        <ele>720.8</ele>
        <time>2022-05-24T12:39:47Z</time>
      </trkpt>
      <trkpt lat="46.74889" lon="5.97942">
        <ele>720.8</ele>
        <time>2022-05-24T12:39:48Z</time>
      </trkpt>
      <trkpt lat="46.74889" lon="5.97947">
        <ele>721.2</ele>
        <time>2022-05-24T12:39:49Z</time>
      </trkpt>
      <trkpt lat="46.7489" lon="5.97952">
        <ele>721.4</ele>
        <time>2022-05-24T12:39:50Z</time>
      </trkpt>
      <trkpt lat="46.74891" lon="5.97956">
        <ele>721.4</ele>
        <time>2022-05-24T12:39:51Z</time>
      </trkpt>
      <trkpt lat="46.74893" lon="5.97961">
        <ele>721.8</ele>
        <time>2022-05-24T12:39:52Z</time>
      </trkpt>
      <trkpt lat="46.74895" lon="5.97965">
        <ele>721.8</ele>
        <time>2022-05-24T12:39:53Z</time>
      </trkpt>
      <trkpt lat="46.74897" lon="5.97969">
        <ele>722.2</ele>
        <time>2022-05-24T12:39:54Z</time>
      </trkpt>
      <trkpt lat="46.74899" lon="5.97973">
        <ele>722.2</ele>
        <time>2022-05-24T12:39:55Z</time>
      </trkpt>
      <trkpt lat="46.74901" lon="5.97976">
        <ele>722.6</ele>
        <time>2022-05-24T12:39:56Z</time>
      </trkpt>
      <trkpt lat="46.74904" lon="5.9798">
        <ele>722.6</ele>
        <time>2022-05-24T12:39:57Z</time>
      </trkpt>
      <trkpt lat="46.74907" lon="5.97983">
        <ele>722.8</ele>
        <time>2022-05-24T12:39:58Z</time>
      </trkpt>
      <trkpt lat="46.7491" lon="5.97986">
        <ele>722.8</ele>
        <time>2022-05-24T12:39:59Z</time>
      </trkpt>
      <trkpt lat="46.74913" lon="5.97989">
        <ele>723</ele>
        <time>2022-05-24T12:40:00Z</time>
      </trkpt>
      <trkpt lat="46.74915" lon="5.97991">
        <ele>723</ele>
        <time>2022-05-24T12:40:01Z</time>
      </trkpt>
      <trkpt lat="46.74918" lon="5.97994">
        <ele>723.4</ele>
        <time>2022-05-24T12:40:02Z</time>
      </trkpt>
      <trkpt lat="46.74921" lon="5.97997">
        <ele>723.4</ele>
        <time>2022-05-24T12:40:03Z</time>
      </trkpt>
      <trkpt lat="46.74924" lon="5.97999">
        <ele>723.6</ele>
        <time>2022-05-24T12:40:04Z</time>
      </trkpt>
      <trkpt lat="46.74927" lon="5.98002">
        <ele>723.6</ele>
        <time>2022-05-24T12:40:05Z</time>
      </trkpt>
      <trkpt lat="46.74929" lon="5.98005">
        <ele>724</ele>
        <time>2022-05-24T12:40:06Z</time>
      </trkpt>
      <trkpt lat="46.74932" lon="5.98007">
        <ele>724.2</ele>
        <time>2022-05-24T12:40:07Z</time>
      </trkpt>
      <trkpt lat="46.74935" lon="5.9801">
        <ele>724.2</ele>
        <time>2022-05-24T12:40:08Z</time>
      </trkpt>
      <trkpt lat="46.74937" lon="5.98012">
        <ele>724.6</ele>
        <time>2022-05-24T12:40:09Z</time>
      </trkpt>
      <trkpt lat="46.7494" lon="5.98015">
        <ele>724.6</ele>
        <time>2022-05-24T12:40:10Z</time>
      </trkpt>
      <trkpt lat="46.74943" lon="5.98017">
        <ele>725.2</ele>
        <time>2022-05-24T12:40:11Z</time>
      </trkpt>
      <trkpt lat="46.74946" lon="5.98019">
        <ele>725.6</ele>
        <time>2022-05-24T12:40:12Z</time>
      </trkpt>
      <trkpt lat="46.74948" lon="5.98021">
        <ele>725.6</ele>
        <time>2022-05-24T12:40:13Z</time>
      </trkpt>
      <trkpt lat="46.74951" lon="5.98023">
        <ele>725.8</ele>
        <time>2022-05-24T12:40:14Z</time>
      </trkpt>
      <trkpt lat="46.74954" lon="5.98025">
        <ele>725.8</ele>
        <time>2022-05-24T12:40:15Z</time>
      </trkpt>
      <trkpt lat="46.74956" lon="5.98027">
        <ele>726.4</ele>
        <time>2022-05-24T12:40:16Z</time>
      </trkpt>
      <trkpt lat="46.74959" lon="5.9803">
        <ele>726.4</ele>
        <time>2022-05-24T12:40:17Z</time>
      </trkpt>
      <trkpt lat="46.74962" lon="5.98032">
        <ele>726.6</ele>
        <time>2022-05-24T12:40:18Z</time>
      </trkpt>
      <trkpt lat="46.74964" lon="5.98033">
        <ele>726.6</ele>
        <time>2022-05-24T12:40:19Z</time>
      </trkpt>
      <trkpt lat="46.74967" lon="5.98035">
        <ele>726.8</ele>
        <time>2022-05-24T12:40:20Z</time>
      </trkpt>
      <trkpt lat="46.74969" lon="5.98037">
        <ele>726.8</ele>
        <time>2022-05-24T12:40:21Z</time>
      </trkpt>
      <trkpt lat="46.74972" lon="5.98038">
        <ele>727.2</ele>
        <time>2022-05-24T12:40:22Z</time>
      </trkpt>
      <trkpt lat="46.74975" lon="5.9804">
        <ele>727.4</ele>
        <time>2022-05-24T12:40:23Z</time>
      </trkpt>
      <trkpt lat="46.74977" lon="5.98042">
        <ele>727.6</ele>
        <time>2022-05-24T12:40:24Z</time>
      </trkpt>
      <trkpt lat="46.7498" lon="5.98044">
        <ele>727.6</ele>
        <time>2022-05-24T12:40:25Z</time>
      </trkpt>
      <trkpt lat="46.74982" lon="5.98046">
        <ele>727.8</ele>
        <time>2022-05-24T12:40:26Z</time>
      </trkpt>
      <trkpt lat="46.74985" lon="5.98047">
        <ele>727.8</ele>
        <time>2022-05-24T12:40:27Z</time>
      </trkpt>
      <trkpt lat="46.74988" lon="5.98049">
        <ele>728.2</ele>
        <time>2022-05-24T12:40:28Z</time>
      </trkpt>
      <trkpt lat="46.7499" lon="5.98051">
        <ele>728.2</ele>
        <time>2022-05-24T12:40:29Z</time>
      </trkpt>
      <trkpt lat="46.74993" lon="5.98053">
        <ele>728.6</ele>
        <time>2022-05-24T12:40:30Z</time>
      </trkpt>
      <trkpt lat="46.74996" lon="5.98055">
        <ele>728.6</ele>
        <time>2022-05-24T12:40:31Z</time>
      </trkpt>
      <trkpt lat="46.74998" lon="5.98057">
        <ele>728.8</ele>
        <time>2022-05-24T12:40:32Z</time>
      </trkpt>
      <trkpt lat="46.75001" lon="5.98058">
        <ele>728.8</ele>
        <time>2022-05-24T12:40:33Z</time>
      </trkpt>
      <trkpt lat="46.75004" lon="5.9806">
        <ele>729.2</ele>
        <time>2022-05-24T12:40:34Z</time>
      </trkpt>
      <trkpt lat="46.75006" lon="5.98062">
        <ele>729.2</ele>
        <time>2022-05-24T12:40:35Z</time>
      </trkpt>
      <trkpt lat="46.75009" lon="5.98065">
        <ele>729.6</ele>
        <time>2022-05-24T12:40:36Z</time>
      </trkpt>
      <trkpt lat="46.75011" lon="5.98067">
        <ele>729.6</ele>
        <time>2022-05-24T12:40:37Z</time>
      </trkpt>
      <trkpt lat="46.75014" lon="5.9807">
        <ele>729.8</ele>
        <time>2022-05-24T12:40:38Z</time>
      </trkpt>
      <trkpt lat="46.75016" lon="5.98072">
        <ele>729.8</ele>
        <time>2022-05-24T12:40:39Z</time>
      </trkpt>
      <trkpt lat="46.75019" lon="5.98075">
        <ele>730.2</ele>
        <time>2022-05-24T12:40:40Z</time>
      </trkpt>
      <trkpt lat="46.75021" lon="5.98077">
        <ele>730.4</ele>
        <time>2022-05-24T12:40:41Z</time>
      </trkpt>
      <trkpt lat="46.75023" lon="5.9808">
        <ele>730.4</ele>
        <time>2022-05-24T12:40:42Z</time>
      </trkpt>
      <trkpt lat="46.75025" lon="5.98084">
        <ele>730.8</ele>
        <time>2022-05-24T12:40:43Z</time>
      </trkpt>
      <trkpt lat="46.75027" lon="5.98087">
        <ele>730.8</ele>
        <time>2022-05-24T12:40:44Z</time>
      </trkpt>
      <trkpt lat="46.75029" lon="5.9809">
        <ele>731.2</ele>
        <time>2022-05-24T12:40:45Z</time>
      </trkpt>
      <trkpt lat="46.75031" lon="5.98093">
        <ele>731.6</ele>
        <time>2022-05-24T12:40:46Z</time>
      </trkpt>
      <trkpt lat="46.75032" lon="5.98097">
        <ele>731.6</ele>
        <time>2022-05-24T12:40:47Z</time>
      </trkpt>
      <trkpt lat="46.75034" lon="5.981">
        <ele>732</ele>
        <time>2022-05-24T12:40:48Z</time>
      </trkpt>
      <trkpt lat="46.75034" lon="5.981">
        <ele>732</ele>
        <time>2022-05-24T12:40:49Z</time>
      </trkpt>
      <trkpt lat="46.75035" lon="5.98104">
        <ele>732.4</ele>
        <time>2022-05-24T12:40:50Z</time>
      </trkpt>
      <trkpt lat="46.75036" lon="5.98108">
        <ele>732.4</ele>
        <time>2022-05-24T12:40:51Z</time>
      </trkpt>
      <trkpt lat="46.75037" lon="5.98112">
        <ele>732.8</ele>
        <time>2022-05-24T12:40:52Z</time>
      </trkpt>
      <trkpt lat="46.75038" lon="5.98117">
        <ele>732.8</ele>
        <time>2022-05-24T12:40:53Z</time>
      </trkpt>
      <trkpt lat="46.75038" lon="5.98121">
        <ele>733.2</ele>
        <time>2022-05-24T12:40:54Z</time>
      </trkpt>
      <trkpt lat="46.75038" lon="5.98125">
        <ele>733.4</ele>
        <time>2022-05-24T12:40:55Z</time>
      </trkpt>
      <trkpt lat="46.75038" lon="5.9813">
        <ele>733.4</ele>
        <time>2022-05-24T12:40:56Z</time>
      </trkpt>
      <trkpt lat="46.75038" lon="5.98134">
        <ele>733.6</ele>
        <time>2022-05-24T12:40:57Z</time>
      </trkpt>
      <trkpt lat="46.75038" lon="5.98138">
        <ele>733.6</ele>
        <time>2022-05-24T12:40:58Z</time>
      </trkpt>
      <trkpt lat="46.75038" lon="5.98143">
        <ele>734</ele>
        <time>2022-05-24T12:40:59Z</time>
      </trkpt>
      <trkpt lat="46.75038" lon="5.98151">
        <ele>734</ele>
        <time>2022-05-24T12:41:00Z</time>
      </trkpt>
      <trkpt lat="46.75038" lon="5.98156">
        <ele>734.4</ele>
        <time>2022-05-24T12:41:01Z</time>
      </trkpt>
      <trkpt lat="46.75037" lon="5.9816">
        <ele>734.4</ele>
        <time>2022-05-24T12:41:02Z</time>
      </trkpt>
      <trkpt lat="46.75037" lon="5.98164">
        <ele>734.8</ele>
        <time>2022-05-24T12:41:03Z</time>
      </trkpt>
      <trkpt lat="46.75037" lon="5.98169">
        <ele>734.8</ele>
        <time>2022-05-24T12:41:04Z</time>
      </trkpt>
      <trkpt lat="46.75036" lon="5.98173">
        <ele>735</ele>
        <time>2022-05-24T12:41:05Z</time>
      </trkpt>
      <trkpt lat="46.75035" lon="5.98178">
        <ele>735.2</ele>
        <time>2022-05-24T12:41:06Z</time>
      </trkpt>
      <trkpt lat="46.75033" lon="5.98182">
        <ele>735.8</ele>
        <time>2022-05-24T12:41:07Z</time>
      </trkpt>
      <trkpt lat="46.75031" lon="5.98186">
        <ele>735.8</ele>
        <time>2022-05-24T12:41:08Z</time>
      </trkpt>
      <trkpt lat="46.75029" lon="5.98189">
        <ele>736</ele>
        <time>2022-05-24T12:41:09Z</time>
      </trkpt>
      <trkpt lat="46.75027" lon="5.98193">
        <ele>736</ele>
        <time>2022-05-24T12:41:10Z</time>
      </trkpt>
      <trkpt lat="46.75024" lon="5.98196">
        <ele>736</ele>
        <time>2022-05-24T12:41:11Z</time>
      </trkpt>
      <trkpt lat="46.75021" lon="5.98199">
        <ele>736.4</ele>
        <time>2022-05-24T12:41:12Z</time>
      </trkpt>
      <trkpt lat="46.75018" lon="5.982">
        <ele>736.4</ele>
        <time>2022-05-24T12:41:13Z</time>
      </trkpt>
      <trkpt lat="46.75015" lon="5.98201">
        <ele>736.6</ele>
        <time>2022-05-24T12:41:14Z</time>
      </trkpt>
      <trkpt lat="46.75012" lon="5.98201">
        <ele>736.6</ele>
        <time>2022-05-24T12:41:15Z</time>
      </trkpt>
      <trkpt lat="46.75008" lon="5.982">
        <ele>736.6</ele>
        <time>2022-05-24T12:41:16Z</time>
      </trkpt>
      <trkpt lat="46.75005" lon="5.98199">
        <ele>736.8</ele>
        <time>2022-05-24T12:41:17Z</time>
      </trkpt>
      <trkpt lat="46.75002" lon="5.98197">
        <ele>736.8</ele>
        <time>2022-05-24T12:41:18Z</time>
      </trkpt>
      <trkpt lat="46.74998" lon="5.98194">
        <ele>737.2</ele>
        <time>2022-05-24T12:41:19Z</time>
      </trkpt>
      <trkpt lat="46.74996" lon="5.98191">
        <ele>737.2</ele>
        <time>2022-05-24T12:41:20Z</time>
      </trkpt>
      <trkpt lat="46.74994" lon="5.98187">
        <ele>737.4</ele>
        <time>2022-05-24T12:41:21Z</time>
      </trkpt>
      <trkpt lat="46.74992" lon="5.98183">
        <ele>737.4</ele>
        <time>2022-05-24T12:41:22Z</time>
      </trkpt>
      <trkpt lat="46.74991" lon="5.98178">
        <ele>737.6</ele>
        <time>2022-05-24T12:41:23Z</time>
      </trkpt>
      <trkpt lat="46.7499" lon="5.98173">
        <ele>737.6</ele>
        <time>2022-05-24T12:41:24Z</time>
      </trkpt>
      <trkpt lat="46.7499" lon="5.98168">
        <ele>738</ele>
        <time>2022-05-24T12:41:25Z</time>
      </trkpt>
      <trkpt lat="46.7499" lon="5.98163">
        <ele>738.2</ele>
        <time>2022-05-24T12:41:26Z</time>
      </trkpt>
      <trkpt lat="46.74989" lon="5.98157">
        <ele>738.2</ele>
        <time>2022-05-24T12:41:27Z</time>
      </trkpt>
      <trkpt lat="46.74989" lon="5.98152">
        <ele>738.6</ele>
        <time>2022-05-24T12:41:28Z</time>
      </trkpt>
      <trkpt lat="46.74989" lon="5.98147">
        <ele>738.8</ele>
        <time>2022-05-24T12:41:29Z</time>
      </trkpt>
      <trkpt lat="46.74989" lon="5.98147">
        <ele>739</ele>
        <time>2022-05-24T12:41:30Z</time>
      </trkpt>
      <trkpt lat="46.74988" lon="5.98143">
        <ele>739.4</ele>
        <time>2022-05-24T12:41:31Z</time>
      </trkpt>
      <trkpt lat="46.74988" lon="5.98138">
        <ele>739.4</ele>
        <time>2022-05-24T12:41:32Z</time>
      </trkpt>
      <trkpt lat="46.74988" lon="5.98133">
        <ele>739.8</ele>
        <time>2022-05-24T12:41:33Z</time>
      </trkpt>
      <trkpt lat="46.74987" lon="5.98128">
        <ele>739.8</ele>
        <time>2022-05-24T12:41:34Z</time>
      </trkpt>
      <trkpt lat="46.74986" lon="5.98123">
        <ele>740.2</ele>
        <time>2022-05-24T12:41:35Z</time>
      </trkpt>
      <trkpt lat="46.74985" lon="5.98119">
        <ele>740.2</ele>
        <time>2022-05-24T12:41:36Z</time>
      </trkpt>
      <trkpt lat="46.74984" lon="5.98115">
        <ele>740.6</ele>
        <time>2022-05-24T12:41:37Z</time>
      </trkpt>
      <trkpt lat="46.74982" lon="5.9811">
        <ele>740.6</ele>
        <time>2022-05-24T12:41:38Z</time>
      </trkpt>
      <trkpt lat="46.7498" lon="5.98106">
        <ele>740.8</ele>
        <time>2022-05-24T12:41:39Z</time>
      </trkpt>
      <trkpt lat="46.74978" lon="5.98102">
        <ele>740.8</ele>
        <time>2022-05-24T12:41:40Z</time>
      </trkpt>
      <trkpt lat="46.74975" lon="5.98099">
        <ele>741</ele>
        <time>2022-05-24T12:41:41Z</time>
      </trkpt>
      <trkpt lat="46.74973" lon="5.98096">
        <ele>741</ele>
        <time>2022-05-24T12:41:42Z</time>
      </trkpt>
      <trkpt lat="46.7497" lon="5.98093">
        <ele>741.2</ele>
        <time>2022-05-24T12:41:43Z</time>
      </trkpt>
      <trkpt lat="46.74967" lon="5.98091">
        <ele>741.4</ele>
        <time>2022-05-24T12:41:44Z</time>
      </trkpt>
      <trkpt lat="46.74963" lon="5.98089">
        <ele>741.4</ele>
        <time>2022-05-24T12:41:45Z</time>
      </trkpt>
      <trkpt lat="46.7496" lon="5.98086">
        <ele>741.8</ele>
        <time>2022-05-24T12:41:46Z</time>
      </trkpt>
      <trkpt lat="46.74957" lon="5.98084">
        <ele>741.8</ele>
        <time>2022-05-24T12:41:47Z</time>
      </trkpt>
      <trkpt lat="46.74954" lon="5.98083">
        <ele>742.2</ele>
        <time>2022-05-24T12:41:48Z</time>
      </trkpt>
      <trkpt lat="46.7495" lon="5.98081">
        <ele>742.4</ele>
        <time>2022-05-24T12:41:49Z</time>
      </trkpt>
      <trkpt lat="46.74947" lon="5.98079">
        <ele>742.4</ele>
        <time>2022-05-24T12:41:50Z</time>
      </trkpt>
      <trkpt lat="46.74944" lon="5.98078">
        <ele>742.6</ele>
        <time>2022-05-24T12:41:51Z</time>
      </trkpt>
      <trkpt lat="46.7494" lon="5.98076">
        <ele>742.6</ele>
        <time>2022-05-24T12:41:52Z</time>
      </trkpt>
      <trkpt lat="46.74937" lon="5.98074">
        <ele>743</ele>
        <time>2022-05-24T12:41:53Z</time>
      </trkpt>
      <trkpt lat="46.74934" lon="5.98073">
        <ele>743</ele>
        <time>2022-05-24T12:41:54Z</time>
      </trkpt>
      <trkpt lat="46.7493" lon="5.98071">
        <ele>743.2</ele>
        <time>2022-05-24T12:41:55Z</time>
      </trkpt>
      <trkpt lat="46.74927" lon="5.98069">
        <ele>743.2</ele>
        <time>2022-05-24T12:41:56Z</time>
      </trkpt>
      <trkpt lat="46.74924" lon="5.98067">
        <ele>743.6</ele>
        <time>2022-05-24T12:41:57Z</time>
      </trkpt>
      <trkpt lat="46.74922" lon="5.98066">
        <ele>743.6</ele>
        <time>2022-05-24T12:41:58Z</time>
      </trkpt>
      <trkpt lat="46.7492" lon="5.98064">
        <ele>743.8</ele>
        <time>2022-05-24T12:41:59Z</time>
      </trkpt>
      <trkpt lat="46.74919" lon="5.98064">
        <ele>743.8</ele>
        <time>2022-05-24T12:42:00Z</time>
      </trkpt>
      <trkpt lat="46.74919" lon="5.98064">
        <ele>744.2</ele>
        <time>2022-05-24T12:42:01Z</time>
      </trkpt>
      <trkpt lat="46.74919" lon="5.98064">
        <ele>744.2</ele>
        <time>2022-05-24T12:42:02Z</time>
      </trkpt>
      <trkpt lat="46.74919" lon="5.98064">
        <ele>744.2</ele>
        <time>2022-05-24T12:42:04Z</time>
      </trkpt>
      <trkpt lat="46.74918" lon="5.98064">
        <ele>744.2</ele>
        <time>2022-05-24T12:42:05Z</time>
      </trkpt>
      <trkpt lat="46.74918" lon="5.98063">
        <ele>744.4</ele>
        <time>2022-05-24T12:42:06Z</time>
      </trkpt>
      <trkpt lat="46.74918" lon="5.98063">
        <ele>744.4</ele>
        <time>2022-05-24T12:42:07Z</time>
      </trkpt>
      <trkpt lat="46.74918" lon="5.98063">
        <ele>744.6</ele>
        <time>2022-05-24T12:42:14Z</time>
      </trkpt>
      <trkpt lat="46.74917" lon="5.98063">
        <ele>744.6</ele>
        <time>2022-05-24T12:42:15Z</time>
      </trkpt>
      <trkpt lat="46.74917" lon="5.98063">
        <ele>744.6</ele>
        <time>2022-05-24T12:42:16Z</time>
      </trkpt>
      <trkpt lat="46.74917" lon="5.98063">
        <ele>744.6</ele>
        <time>2022-05-24T12:42:17Z</time>
      </trkpt>
      <trkpt lat="46.74916" lon="5.98062">
        <ele>744.4</ele>
        <time>2022-05-24T12:42:22Z</time>
      </trkpt>
      <trkpt lat="46.74916" lon="5.98062">
        <ele>744.4</ele>
        <time>2022-05-24T12:42:23Z</time>
      </trkpt>
      <trkpt lat="46.74916" lon="5.98062">
        <ele>744.4</ele>
        <time>2022-05-24T12:42:24Z</time>
      </trkpt>
      <trkpt lat="46.74916" lon="5.98062">
        <ele>744.4</ele>
        <time>2022-05-24T12:42:25Z</time>
      </trkpt>
      <trkpt lat="46.74915" lon="5.98062">
        <ele>744.4</ele>
        <time>2022-05-24T12:42:26Z</time>
      </trkpt>
      <trkpt lat="46.74915" lon="5.98062">
        <ele>744.4</ele>
        <time>2022-05-24T12:42:27Z</time>
      </trkpt>
      <trkpt lat="46.74915" lon="5.98061">
        <ele>744.6</ele>
        <time>2022-05-24T12:42:28Z</time>
      </trkpt>
      <trkpt lat="46.74914" lon="5.98061">
        <ele>744.6</ele>
        <time>2022-05-24T12:42:29Z</time>
      </trkpt>
      <trkpt lat="46.74914" lon="5.98061">
        <ele>744.6</ele>
        <time>2022-05-24T12:42:30Z</time>
      </trkpt>
      <trkpt lat="46.74914" lon="5.98061">
        <ele>744.6</ele>
        <time>2022-05-24T12:42:31Z</time>
      </trkpt>
      <trkpt lat="46.74912" lon="5.98061">
        <ele>745</ele>
        <time>2022-05-24T12:42:32Z</time>
      </trkpt>
      <trkpt lat="46.7491" lon="5.9806">
        <ele>745</ele>
        <time>2022-05-24T12:42:33Z</time>
      </trkpt>
      <trkpt lat="46.74908" lon="5.98059">
        <ele>745.4</ele>
        <time>2022-05-24T12:42:34Z</time>
      </trkpt>
      <trkpt lat="46.74906" lon="5.98058">
        <ele>745.4</ele>
        <time>2022-05-24T12:42:35Z</time>
      </trkpt>
      <trkpt lat="46.74904" lon="5.98056">
        <ele>745.6</ele>
        <time>2022-05-24T12:42:36Z</time>
      </trkpt>
      <trkpt lat="46.74901" lon="5.98056">
        <ele>745.6</ele>
        <time>2022-05-24T12:42:37Z</time>
      </trkpt>
      <trkpt lat="46.74899" lon="5.98055">
        <ele>745.6</ele>
        <time>2022-05-24T12:42:38Z</time>
      </trkpt>
      <trkpt lat="46.74896" lon="5.98054">
        <ele>745.8</ele>
        <time>2022-05-24T12:42:39Z</time>
      </trkpt>
      <trkpt lat="46.74894" lon="5.98053">
        <ele>745.8</ele>
        <time>2022-05-24T12:42:40Z</time>
      </trkpt>
      <trkpt lat="46.74891" lon="5.98052">
        <ele>746.2</ele>
        <time>2022-05-24T12:42:41Z</time>
      </trkpt>
      <trkpt lat="46.74888" lon="5.98051">
        <ele>746.4</ele>
        <time>2022-05-24T12:42:42Z</time>
      </trkpt>
      <trkpt lat="46.74886" lon="5.9805">
        <ele>746.4</ele>
        <time>2022-05-24T12:42:43Z</time>
      </trkpt>
      <trkpt lat="46.74883" lon="5.98048">
        <ele>746.8</ele>
        <time>2022-05-24T12:42:44Z</time>
      </trkpt>
      <trkpt lat="46.7488" lon="5.98047">
        <ele>747</ele>
        <time>2022-05-24T12:42:45Z</time>
      </trkpt>
      <trkpt lat="46.74877" lon="5.98046">
        <ele>747.4</ele>
        <time>2022-05-24T12:42:46Z</time>
      </trkpt>
      <trkpt lat="46.74874" lon="5.98045">
        <ele>747.4</ele>
        <time>2022-05-24T12:42:47Z</time>
      </trkpt>
      <trkpt lat="46.74871" lon="5.98044">
        <ele>747.6</ele>
        <time>2022-05-24T12:42:48Z</time>
      </trkpt>
      <trkpt lat="46.74868" lon="5.98043">
        <ele>747.6</ele>
        <time>2022-05-24T12:42:49Z</time>
      </trkpt>
      <trkpt lat="46.74865" lon="5.98042">
        <ele>748.2</ele>
        <time>2022-05-24T12:42:50Z</time>
      </trkpt>
      <trkpt lat="46.74862" lon="5.98041">
        <ele>748.4</ele>
        <time>2022-05-24T12:42:51Z</time>
      </trkpt>
      <trkpt lat="46.74859" lon="5.9804">
        <ele>748.6</ele>
        <time>2022-05-24T12:42:52Z</time>
      </trkpt>
      <trkpt lat="46.74856" lon="5.98039">
        <ele>748.8</ele>
        <time>2022-05-24T12:42:53Z</time>
      </trkpt>
      <trkpt lat="46.74853" lon="5.98038">
        <ele>749</ele>
        <time>2022-05-24T12:42:54Z</time>
      </trkpt>
      <trkpt lat="46.7485" lon="5.98037">
        <ele>749.4</ele>
        <time>2022-05-24T12:42:55Z</time>
      </trkpt>
      <trkpt lat="46.74847" lon="5.98036">
        <ele>749.6</ele>
        <time>2022-05-24T12:42:56Z</time>
      </trkpt>
      <trkpt lat="46.74844" lon="5.98035">
        <ele>749.8</ele>
        <time>2022-05-24T12:42:57Z</time>
      </trkpt>
      <trkpt lat="46.74842" lon="5.98035">
        <ele>750</ele>
        <time>2022-05-24T12:42:58Z</time>
      </trkpt>
      <trkpt lat="46.74839" lon="5.98034">
        <ele>750</ele>
        <time>2022-05-24T12:42:59Z</time>
      </trkpt>
      <trkpt lat="46.74836" lon="5.98033">
        <ele>750.4</ele>
        <time>2022-05-24T12:43:00Z</time>
      </trkpt>
      <trkpt lat="46.74833" lon="5.98031">
        <ele>750.6</ele>
        <time>2022-05-24T12:43:01Z</time>
      </trkpt>
      <trkpt lat="46.74829" lon="5.9803">
        <ele>750.8</ele>
        <time>2022-05-24T12:43:02Z</time>
      </trkpt>
      <trkpt lat="46.74826" lon="5.98028">
        <ele>751</ele>
        <time>2022-05-24T12:43:03Z</time>
      </trkpt>
      <trkpt lat="46.74823" lon="5.98027">
        <ele>751</ele>
        <time>2022-05-24T12:43:04Z</time>
      </trkpt>
      <trkpt lat="46.74823" lon="5.98027">
        <ele>751.4</ele>
        <time>2022-05-24T12:43:05Z</time>
      </trkpt>
      <trkpt lat="46.7482" lon="5.98027">
        <ele>751.4</ele>
        <time>2022-05-24T12:43:06Z</time>
      </trkpt>
      <trkpt lat="46.74817" lon="5.98026">
        <ele>751.6</ele>
        <time>2022-05-24T12:43:07Z</time>
      </trkpt>
      <trkpt lat="46.74814" lon="5.98025">
        <ele>751.6</ele>
        <time>2022-05-24T12:43:08Z</time>
      </trkpt>
      <trkpt lat="46.7481" lon="5.98024">
        <ele>752</ele>
        <time>2022-05-24T12:43:09Z</time>
      </trkpt>
      <trkpt lat="46.74807" lon="5.98022">
        <ele>752.2</ele>
        <time>2022-05-24T12:43:10Z</time>
      </trkpt>
      <trkpt lat="46.74804" lon="5.98021">
        <ele>752.2</ele>
        <time>2022-05-24T12:43:11Z</time>
      </trkpt>
      <trkpt lat="46.74801" lon="5.98019">
        <ele>752.4</ele>
        <time>2022-05-24T12:43:12Z</time>
      </trkpt>
      <trkpt lat="46.74798" lon="5.98017">
        <ele>752.4</ele>
        <time>2022-05-24T12:43:13Z</time>
      </trkpt>
      <trkpt lat="46.74795" lon="5.98015">
        <ele>752.8</ele>
        <time>2022-05-24T12:43:14Z</time>
      </trkpt>
      <trkpt lat="46.74793" lon="5.98012">
        <ele>752.8</ele>
        <time>2022-05-24T12:43:15Z</time>
      </trkpt>
      <trkpt lat="46.7479" lon="5.98009">
        <ele>753</ele>
        <time>2022-05-24T12:43:16Z</time>
      </trkpt>
      <trkpt lat="46.74788" lon="5.98006">
        <ele>753.2</ele>
        <time>2022-05-24T12:43:17Z</time>
      </trkpt>
      <trkpt lat="46.74785" lon="5.98004">
        <ele>753.2</ele>
        <time>2022-05-24T12:43:18Z</time>
      </trkpt>
      <trkpt lat="46.74783" lon="5.98001">
        <ele>753.6</ele>
        <time>2022-05-24T12:43:19Z</time>
      </trkpt>
      <trkpt lat="46.7478" lon="5.97997">
        <ele>753.6</ele>
        <time>2022-05-24T12:43:20Z</time>
      </trkpt>
      <trkpt lat="46.74778" lon="5.97994">
        <ele>753.6</ele>
        <time>2022-05-24T12:43:21Z</time>
      </trkpt>
      <trkpt lat="46.74777" lon="5.9799">
        <ele>753.8</ele>
        <time>2022-05-24T12:43:22Z</time>
      </trkpt>
      <trkpt lat="46.74775" lon="5.97987">
        <ele>753.8</ele>
        <time>2022-05-24T12:43:23Z</time>
      </trkpt>
      <trkpt lat="46.74773" lon="5.97983">
        <ele>754.2</ele>
        <time>2022-05-24T12:43:24Z</time>
      </trkpt>
      <trkpt lat="46.74771" lon="5.9798">
        <ele>754.2</ele>
        <time>2022-05-24T12:43:25Z</time>
      </trkpt>
      <trkpt lat="46.74769" lon="5.97977">
        <ele>754.4</ele>
        <time>2022-05-24T12:43:26Z</time>
      </trkpt>
      <trkpt lat="46.74767" lon="5.97973">
        <ele>754.4</ele>
        <time>2022-05-24T12:43:27Z</time>
      </trkpt>
      <trkpt lat="46.74766" lon="5.9797">
        <ele>754.6</ele>
        <time>2022-05-24T12:43:28Z</time>
      </trkpt>
      <trkpt lat="46.74764" lon="5.97967">
        <ele>754.6</ele>
        <time>2022-05-24T12:43:29Z</time>
      </trkpt>
      <trkpt lat="46.74762" lon="5.97964">
        <ele>755</ele>
        <time>2022-05-24T12:43:30Z</time>
      </trkpt>
      <trkpt lat="46.7476" lon="5.97962">
        <ele>755.2</ele>
        <time>2022-05-24T12:43:31Z</time>
      </trkpt>
      <trkpt lat="46.74758" lon="5.97959">
        <ele>755.4</ele>
        <time>2022-05-24T12:43:32Z</time>
      </trkpt>
      <trkpt lat="46.74756" lon="5.97956">
        <ele>755.6</ele>
        <time>2022-05-24T12:43:33Z</time>
      </trkpt>
      <trkpt lat="46.74754" lon="5.97954">
        <ele>756</ele>
        <time>2022-05-24T12:43:34Z</time>
      </trkpt>
      <trkpt lat="46.74751" lon="5.97951">
        <ele>756</ele>
        <time>2022-05-24T12:43:35Z</time>
      </trkpt>
      <trkpt lat="46.74749" lon="5.97949">
        <ele>756.2</ele>
        <time>2022-05-24T12:43:36Z</time>
      </trkpt>
      <trkpt lat="46.74746" lon="5.97947">
        <ele>756.2</ele>
        <time>2022-05-24T12:43:37Z</time>
      </trkpt>
      <trkpt lat="46.74743" lon="5.97945">
        <ele>756.6</ele>
        <time>2022-05-24T12:43:38Z</time>
      </trkpt>
      <trkpt lat="46.7474" lon="5.97943">
        <ele>756.6</ele>
        <time>2022-05-24T12:43:39Z</time>
      </trkpt>
      <trkpt lat="46.74737" lon="5.97943">
        <ele>756.6</ele>
        <time>2022-05-24T12:43:40Z</time>
      </trkpt>
      <trkpt lat="46.74734" lon="5.97942">
        <ele>756.8</ele>
        <time>2022-05-24T12:43:41Z</time>
      </trkpt>
      <trkpt lat="46.74731" lon="5.97942">
        <ele>756.8</ele>
        <time>2022-05-24T12:43:42Z</time>
      </trkpt>
      <trkpt lat="46.74728" lon="5.97941">
        <ele>756.8</ele>
        <time>2022-05-24T12:43:43Z</time>
      </trkpt>
      <trkpt lat="46.74725" lon="5.97941">
        <ele>756.8</ele>
        <time>2022-05-24T12:43:44Z</time>
      </trkpt>
      <trkpt lat="46.74722" lon="5.9794">
        <ele>757</ele>
        <time>2022-05-24T12:43:45Z</time>
      </trkpt>
      <trkpt lat="46.74719" lon="5.9794">
        <ele>757</ele>
        <time>2022-05-24T12:43:46Z</time>
      </trkpt>
      <trkpt lat="46.74715" lon="5.97939">
        <ele>757.4</ele>
        <time>2022-05-24T12:43:47Z</time>
      </trkpt>
      <trkpt lat="46.74712" lon="5.97939">
        <ele>757.4</ele>
        <time>2022-05-24T12:43:48Z</time>
      </trkpt>
      <trkpt lat="46.7471" lon="5.97938">
        <ele>757.4</ele>
        <time>2022-05-24T12:43:49Z</time>
      </trkpt>
      <trkpt lat="46.74707" lon="5.97937">
        <ele>757.4</ele>
        <time>2022-05-24T12:43:50Z</time>
      </trkpt>
      <trkpt lat="46.74704" lon="5.97937">
        <ele>757.4</ele>
        <time>2022-05-24T12:43:51Z</time>
      </trkpt>
      <trkpt lat="46.74701" lon="5.97936">
        <ele>757.4</ele>
        <time>2022-05-24T12:43:52Z</time>
      </trkpt>
      <trkpt lat="46.74697" lon="5.97936">
        <ele>757.4</ele>
        <time>2022-05-24T12:43:53Z</time>
      </trkpt>
      <trkpt lat="46.74694" lon="5.97938">
        <ele>757.6</ele>
        <time>2022-05-24T12:43:54Z</time>
      </trkpt>
      <trkpt lat="46.74692" lon="5.97941">
        <ele>757.6</ele>
        <time>2022-05-24T12:43:55Z</time>
      </trkpt>
      <trkpt lat="46.74691" lon="5.97945">
        <ele>757.6</ele>
        <time>2022-05-24T12:43:56Z</time>
      </trkpt>
      <trkpt lat="46.7469" lon="5.97949">
        <ele>757.6</ele>
        <time>2022-05-24T12:43:57Z</time>
      </trkpt>
      <trkpt lat="46.74691" lon="5.97953">
        <ele>757.8</ele>
        <time>2022-05-24T12:43:58Z</time>
      </trkpt>
      <trkpt lat="46.74692" lon="5.97957">
        <ele>757.8</ele>
        <time>2022-05-24T12:43:59Z</time>
      </trkpt>
      <trkpt lat="46.74694" lon="5.97959">
        <ele>758</ele>
        <time>2022-05-24T12:44:00Z</time>
      </trkpt>
      <trkpt lat="46.74696" lon="5.97961">
        <ele>758.4</ele>
        <time>2022-05-24T12:44:01Z</time>
      </trkpt>
      <trkpt lat="46.74697" lon="5.97962">
        <ele>758.6</ele>
        <time>2022-05-24T12:44:02Z</time>
      </trkpt>
      <trkpt lat="46.74698" lon="5.97964">
        <ele>758.8</ele>
        <time>2022-05-24T12:44:03Z</time>
      </trkpt>
      <trkpt lat="46.74699" lon="5.97966">
        <ele>758.8</ele>
        <time>2022-05-24T12:44:04Z</time>
      </trkpt>
      <trkpt lat="46.74699" lon="5.97966">
        <ele>759.2</ele>
        <time>2022-05-24T12:44:05Z</time>
      </trkpt>
      <trkpt lat="46.74699" lon="5.97966">
        <ele>759.2</ele>
        <time>2022-05-24T12:44:06Z</time>
      </trkpt>
      <trkpt lat="46.74699" lon="5.97967">
        <ele>759.4</ele>
        <time>2022-05-24T12:44:07Z</time>
      </trkpt>
      <trkpt lat="46.74699" lon="5.97967">
        <ele>759.4</ele>
        <time>2022-05-24T12:44:09Z</time>
      </trkpt>
      <trkpt lat="46.74699" lon="5.97967">
        <ele>759.6</ele>
        <time>2022-05-24T12:44:10Z</time>
      </trkpt>
      <trkpt lat="46.74699" lon="5.97967">
        <ele>759.6</ele>
        <time>2022-05-24T12:44:11Z</time>
      </trkpt>
      <trkpt lat="46.74699" lon="5.97967">
        <ele>759.6</ele>
        <time>2022-05-24T12:44:12Z</time>
      </trkpt>
      <trkpt lat="46.74699" lon="5.97967">
        <ele>760</ele>
        <time>2022-05-24T12:44:41Z</time>
      </trkpt>
      <trkpt lat="46.74699" lon="5.97967">
        <ele>760</ele>
        <time>2022-05-24T12:44:42Z</time>
      </trkpt>
      <trkpt lat="46.74699" lon="5.97967">
        <ele>760</ele>
        <time>2022-05-24T12:44:43Z</time>
      </trkpt>
      <trkpt lat="46.74699" lon="5.97967">
        <ele>760</ele>
        <time>2022-05-24T12:44:44Z</time>
      </trkpt>
      <trkpt lat="46.74699" lon="5.97967">
        <ele>760</ele>
        <time>2022-05-24T12:44:45Z</time>
      </trkpt>
      <trkpt lat="46.74701" lon="5.97968">
        <ele>760</ele>
        <time>2022-05-24T12:44:46Z</time>
      </trkpt>
      <trkpt lat="46.74703" lon="5.97969">
        <ele>760</ele>
        <time>2022-05-24T12:44:47Z</time>
      </trkpt>
      <trkpt lat="46.74704" lon="5.9797">
        <ele>760</ele>
        <time>2022-05-24T12:44:48Z</time>
      </trkpt>
      <trkpt lat="46.74706" lon="5.97972">
        <ele>760.4</ele>
        <time>2022-05-24T12:44:49Z</time>
      </trkpt>
      <trkpt lat="46.74707" lon="5.97974">
        <ele>760.4</ele>
        <time>2022-05-24T12:44:50Z</time>
      </trkpt>
      <trkpt lat="46.74708" lon="5.97976">
        <ele>760.8</ele>
        <time>2022-05-24T12:44:51Z</time>
      </trkpt>
      <trkpt lat="46.74709" lon="5.97978">
        <ele>761</ele>
        <time>2022-05-24T12:44:52Z</time>
      </trkpt>
      <trkpt lat="46.7471" lon="5.97979">
        <ele>761</ele>
        <time>2022-05-24T12:44:53Z</time>
      </trkpt>
      <trkpt lat="46.74712" lon="5.97981">
        <ele>761.2</ele>
        <time>2022-05-24T12:44:54Z</time>
      </trkpt>
      <trkpt lat="46.74713" lon="5.97984">
        <ele>761.4</ele>
        <time>2022-05-24T12:44:55Z</time>
      </trkpt>
      <trkpt lat="46.74714" lon="5.97986">
        <ele>761.4</ele>
        <time>2022-05-24T12:44:56Z</time>
      </trkpt>
      <trkpt lat="46.74715" lon="5.97988">
        <ele>761.8</ele>
        <time>2022-05-24T12:44:57Z</time>
      </trkpt>
      <trkpt lat="46.74716" lon="5.97991">
        <ele>762</ele>
        <time>2022-05-24T12:44:58Z</time>
      </trkpt>
      <trkpt lat="46.74717" lon="5.97993">
        <ele>762.2</ele>
        <time>2022-05-24T12:44:59Z</time>
      </trkpt>
      <trkpt lat="46.74719" lon="5.97995">
        <ele>762.4</ele>
        <time>2022-05-24T12:45:00Z</time>
      </trkpt>
      <trkpt lat="46.74721" lon="5.97997">
        <ele>762.6</ele>
        <time>2022-05-24T12:45:01Z</time>
      </trkpt>
      <trkpt lat="46.74724" lon="5.98">
        <ele>762.8</ele>
        <time>2022-05-24T12:45:02Z</time>
      </trkpt>
      <trkpt lat="46.74726" lon="5.98003">
        <ele>763</ele>
        <time>2022-05-24T12:45:03Z</time>
      </trkpt>
      <trkpt lat="46.74728" lon="5.98005">
        <ele>763.2</ele>
        <time>2022-05-24T12:45:04Z</time>
      </trkpt>
      <trkpt lat="46.7473" lon="5.98008">
        <ele>763.2</ele>
        <time>2022-05-24T12:45:05Z</time>
      </trkpt>
      <trkpt lat="46.74732" lon="5.9801">
        <ele>763.6</ele>
        <time>2022-05-24T12:45:06Z</time>
      </trkpt>
      <trkpt lat="46.74734" lon="5.98013">
        <ele>763.8</ele>
        <time>2022-05-24T12:45:07Z</time>
      </trkpt>
      <trkpt lat="46.74735" lon="5.98015">
        <ele>764</ele>
        <time>2022-05-24T12:45:08Z</time>
      </trkpt>
      <trkpt lat="46.74737" lon="5.98018">
        <ele>764.4</ele>
        <time>2022-05-24T12:45:09Z</time>
      </trkpt>
      <trkpt lat="46.74738" lon="5.98021">
        <ele>764.8</ele>
        <time>2022-05-24T12:45:10Z</time>
      </trkpt>
      <trkpt lat="46.7474" lon="5.98024">
        <ele>765</ele>
        <time>2022-05-24T12:45:11Z</time>
      </trkpt>
      <trkpt lat="46.74741" lon="5.98026">
        <ele>765.2</ele>
        <time>2022-05-24T12:45:12Z</time>
      </trkpt>
      <trkpt lat="46.74742" lon="5.98028">
        <ele>765.6</ele>
        <time>2022-05-24T12:45:13Z</time>
      </trkpt>
      <trkpt lat="46.74744" lon="5.9803">
        <ele>765.8</ele>
        <time>2022-05-24T12:45:14Z</time>
      </trkpt>
      <trkpt lat="46.74745" lon="5.98033">
        <ele>766</ele>
        <time>2022-05-24T12:45:15Z</time>
      </trkpt>
      <trkpt lat="46.74747" lon="5.98036">
        <ele>766.4</ele>
        <time>2022-05-24T12:45:16Z</time>
      </trkpt>
      <trkpt lat="46.74749" lon="5.98038">
        <ele>766.6</ele>
        <time>2022-05-24T12:45:17Z</time>
      </trkpt>
      <trkpt lat="46.74751" lon="5.9804">
        <ele>766.8</ele>
        <time>2022-05-24T12:45:18Z</time>
      </trkpt>
      <trkpt lat="46.74753" lon="5.98043">
        <ele>767.2</ele>
        <time>2022-05-24T12:45:19Z</time>
      </trkpt>
      <trkpt lat="46.74754" lon="5.98044">
        <ele>767.2</ele>
        <time>2022-05-24T12:45:20Z</time>
      </trkpt>
      <trkpt lat="46.74755" lon="5.98046">
        <ele>767.6</ele>
        <time>2022-05-24T12:45:21Z</time>
      </trkpt>
      <trkpt lat="46.74756" lon="5.98048">
        <ele>768</ele>
        <time>2022-05-24T12:45:22Z</time>
      </trkpt>
      <trkpt lat="46.74757" lon="5.9805">
        <ele>768.2</ele>
        <time>2022-05-24T12:45:23Z</time>
      </trkpt>
      <trkpt lat="46.74758" lon="5.98051">
        <ele>768.4</ele>
        <time>2022-05-24T12:45:24Z</time>
      </trkpt>
      <trkpt lat="46.74759" lon="5.98053">
        <ele>768.6</ele>
        <time>2022-05-24T12:45:25Z</time>
      </trkpt>
      <trkpt lat="46.7476" lon="5.98054">
        <ele>768.6</ele>
        <time>2022-05-24T12:45:26Z</time>
      </trkpt>
      <trkpt lat="46.74761" lon="5.98056">
        <ele>769</ele>
        <time>2022-05-24T12:45:27Z</time>
      </trkpt>
      <trkpt lat="46.74763" lon="5.98058">
        <ele>769</ele>
        <time>2022-05-24T12:45:28Z</time>
      </trkpt>
      <trkpt lat="46.74764" lon="5.9806">
        <ele>769</ele>
        <time>2022-05-24T12:45:29Z</time>
      </trkpt>
      <trkpt lat="46.74766" lon="5.98062">
        <ele>769.4</ele>
        <time>2022-05-24T12:45:30Z</time>
      </trkpt>
      <trkpt lat="46.74767" lon="5.98064">
        <ele>769.4</ele>
        <time>2022-05-24T12:45:31Z</time>
      </trkpt>
      <trkpt lat="46.74769" lon="5.98066">
        <ele>769.8</ele>
        <time>2022-05-24T12:45:32Z</time>
      </trkpt>
      <trkpt lat="46.74771" lon="5.98068">
        <ele>769.8</ele>
        <time>2022-05-24T12:45:33Z</time>
      </trkpt>
      <trkpt lat="46.74772" lon="5.9807">
        <ele>770</ele>
        <time>2022-05-24T12:45:34Z</time>
      </trkpt>
      <trkpt lat="46.74773" lon="5.98072">
        <ele>770</ele>
        <time>2022-05-24T12:45:35Z</time>
      </trkpt>
      <trkpt lat="46.74775" lon="5.98074">
        <ele>770.2</ele>
        <time>2022-05-24T12:45:36Z</time>
      </trkpt>
      <trkpt lat="46.74777" lon="5.98076">
        <ele>770.2</ele>
        <time>2022-05-24T12:45:37Z</time>
      </trkpt>
      <trkpt lat="46.74778" lon="5.98078">
        <ele>770.4</ele>
        <time>2022-05-24T12:45:38Z</time>
      </trkpt>
      <trkpt lat="46.7478" lon="5.9808">
        <ele>770.4</ele>
        <time>2022-05-24T12:45:39Z</time>
      </trkpt>
      <trkpt lat="46.74782" lon="5.98082">
        <ele>770.8</ele>
        <time>2022-05-24T12:45:40Z</time>
      </trkpt>
      <trkpt lat="46.74784" lon="5.98084">
        <ele>770.8</ele>
        <time>2022-05-24T12:45:41Z</time>
      </trkpt>
      <trkpt lat="46.74786" lon="5.98086">
        <ele>770.8</ele>
        <time>2022-05-24T12:45:42Z</time>
      </trkpt>
      <trkpt lat="46.74788" lon="5.98088">
        <ele>771.2</ele>
        <time>2022-05-24T12:45:43Z</time>
      </trkpt>
      <trkpt lat="46.7479" lon="5.98091">
        <ele>771.2</ele>
        <time>2022-05-24T12:45:44Z</time>
      </trkpt>
      <trkpt lat="46.74792" lon="5.98093">
        <ele>771.4</ele>
        <time>2022-05-24T12:45:45Z</time>
      </trkpt>
      <trkpt lat="46.74794" lon="5.98096">
        <ele>771.4</ele>
        <time>2022-05-24T12:45:46Z</time>
      </trkpt>
      <trkpt lat="46.74796" lon="5.98099">
        <ele>771.8</ele>
        <time>2022-05-24T12:45:47Z</time>
      </trkpt>
      <trkpt lat="46.74798" lon="5.98102">
        <ele>771.8</ele>
        <time>2022-05-24T12:45:48Z</time>
      </trkpt>
      <trkpt lat="46.74801" lon="5.98105">
        <ele>772</ele>
        <time>2022-05-24T12:45:49Z</time>
      </trkpt>
      <trkpt lat="46.74803" lon="5.98108">
        <ele>772</ele>
        <time>2022-05-24T12:45:50Z</time>
      </trkpt>
      <trkpt lat="46.74807" lon="5.98112">
        <ele>772.4</ele>
        <time>2022-05-24T12:45:51Z</time>
      </trkpt>
      <trkpt lat="46.7481" lon="5.98116">
        <ele>772.4</ele>
        <time>2022-05-24T12:45:52Z</time>
      </trkpt>
      <trkpt lat="46.74813" lon="5.98121">
        <ele>772.6</ele>
        <time>2022-05-24T12:45:53Z</time>
      </trkpt>
      <trkpt lat="46.74817" lon="5.98125">
        <ele>772.6</ele>
        <time>2022-05-24T12:45:54Z</time>
      </trkpt>
      <trkpt lat="46.74821" lon="5.9813">
        <ele>772.8</ele>
        <time>2022-05-24T12:45:55Z</time>
      </trkpt>
      <trkpt lat="46.74824" lon="5.98134">
        <ele>772.8</ele>
        <time>2022-05-24T12:45:56Z</time>
      </trkpt>
      <trkpt lat="46.74828" lon="5.98139">
        <ele>772.8</ele>
        <time>2022-05-24T12:45:57Z</time>
      </trkpt>
      <trkpt lat="46.74831" lon="5.98143">
        <ele>772.8</ele>
        <time>2022-05-24T12:45:58Z</time>
      </trkpt>
      <trkpt lat="46.74835" lon="5.98148">
        <ele>773</ele>
        <time>2022-05-24T12:45:59Z</time>
      </trkpt>
      <trkpt lat="46.74839" lon="5.98153">
        <ele>773</ele>
        <time>2022-05-24T12:46:00Z</time>
      </trkpt>
      <trkpt lat="46.74842" lon="5.98157">
        <ele>773.2</ele>
        <time>2022-05-24T12:46:01Z</time>
      </trkpt>
      <trkpt lat="46.74845" lon="5.98162">
        <ele>773.2</ele>
        <time>2022-05-24T12:46:02Z</time>
      </trkpt>
      <trkpt lat="46.74848" lon="5.98166">
        <ele>773.2</ele>
        <time>2022-05-24T12:46:03Z</time>
      </trkpt>
      <trkpt lat="46.7485" lon="5.9817">
        <ele>773.2</ele>
        <time>2022-05-24T12:46:04Z</time>
      </trkpt>
      <trkpt lat="46.74853" lon="5.98174">
        <ele>773.2</ele>
        <time>2022-05-24T12:46:05Z</time>
      </trkpt>
      <trkpt lat="46.74855" lon="5.98178">
        <ele>773.2</ele>
        <time>2022-05-24T12:46:06Z</time>
      </trkpt>
      <trkpt lat="46.74857" lon="5.98183">
        <ele>773.2</ele>
        <time>2022-05-24T12:46:07Z</time>
      </trkpt>
      <trkpt lat="46.7486" lon="5.98187">
        <ele>773.2</ele>
        <time>2022-05-24T12:46:08Z</time>
      </trkpt>
      <trkpt lat="46.74863" lon="5.98191">
        <ele>773</ele>
        <time>2022-05-24T12:46:09Z</time>
      </trkpt>
      <trkpt lat="46.74865" lon="5.98195">
        <ele>773</ele>
        <time>2022-05-24T12:46:10Z</time>
      </trkpt>
      <trkpt lat="46.74868" lon="5.982">
        <ele>772.8</ele>
        <time>2022-05-24T12:46:11Z</time>
      </trkpt>
      <trkpt lat="46.74871" lon="5.98205">
        <ele>772.8</ele>
        <time>2022-05-24T12:46:12Z</time>
      </trkpt>
      <trkpt lat="46.74874" lon="5.98209">
        <ele>772.6</ele>
        <time>2022-05-24T12:46:13Z</time>
      </trkpt>
      <trkpt lat="46.74876" lon="5.98214">
        <ele>772.6</ele>
        <time>2022-05-24T12:46:14Z</time>
      </trkpt>
      <trkpt lat="46.74879" lon="5.98218">
        <ele>772.2</ele>
        <time>2022-05-24T12:46:15Z</time>
      </trkpt>
      <trkpt lat="46.74882" lon="5.98222">
        <ele>772</ele>
        <time>2022-05-24T12:46:16Z</time>
      </trkpt>
      <trkpt lat="46.74884" lon="5.98226">
        <ele>771.8</ele>
        <time>2022-05-24T12:46:17Z</time>
      </trkpt>
      <trkpt lat="46.74887" lon="5.9823">
        <ele>771.4</ele>
        <time>2022-05-24T12:46:18Z</time>
      </trkpt>
      <trkpt lat="46.7489" lon="5.98233">
        <ele>771</ele>
        <time>2022-05-24T12:46:19Z</time>
      </trkpt>
      <trkpt lat="46.74893" lon="5.98237">
        <ele>770.8</ele>
        <time>2022-05-24T12:46:20Z</time>
      </trkpt>
      <trkpt lat="46.74896" lon="5.98239">
        <ele>770.4</ele>
        <time>2022-05-24T12:46:21Z</time>
      </trkpt>
      <trkpt lat="46.749" lon="5.98241">
        <ele>769.8</ele>
        <time>2022-05-24T12:46:22Z</time>
      </trkpt>
      <trkpt lat="46.749" lon="5.98241">
        <ele>769.2</ele>
        <time>2022-05-24T12:46:23Z</time>
      </trkpt>
      <trkpt lat="46.74904" lon="5.98242">
        <ele>768.8</ele>
        <time>2022-05-24T12:46:24Z</time>
      </trkpt>
      <trkpt lat="46.74909" lon="5.98244">
        <ele>768.2</ele>
        <time>2022-05-24T12:46:25Z</time>
      </trkpt>
      <trkpt lat="46.74913" lon="5.98246">
        <ele>767.6</ele>
        <time>2022-05-24T12:46:26Z</time>
      </trkpt>
      <trkpt lat="46.74918" lon="5.98249">
        <ele>767</ele>
        <time>2022-05-24T12:46:27Z</time>
      </trkpt>
      <trkpt lat="46.74923" lon="5.98252">
        <ele>766.6</ele>
        <time>2022-05-24T12:46:28Z</time>
      </trkpt>
      <trkpt lat="46.74928" lon="5.98254">
        <ele>766</ele>
        <time>2022-05-24T12:46:29Z</time>
      </trkpt>
      <trkpt lat="46.74933" lon="5.98257">
        <ele>765.4</ele>
        <time>2022-05-24T12:46:30Z</time>
      </trkpt>
      <trkpt lat="46.74938" lon="5.9826">
        <ele>765</ele>
        <time>2022-05-24T12:46:31Z</time>
      </trkpt>
      <trkpt lat="46.74943" lon="5.98265">
        <ele>764.6</ele>
        <time>2022-05-24T12:46:32Z</time>
      </trkpt>
      <trkpt lat="46.74948" lon="5.98271">
        <ele>764.2</ele>
        <time>2022-05-24T12:46:33Z</time>
      </trkpt>
      <trkpt lat="46.74951" lon="5.98278">
        <ele>763.8</ele>
        <time>2022-05-24T12:46:34Z</time>
      </trkpt>
      <trkpt lat="46.74954" lon="5.98284">
        <ele>763.4</ele>
        <time>2022-05-24T12:46:35Z</time>
      </trkpt>
      <trkpt lat="46.74956" lon="5.98289">
        <ele>763</ele>
        <time>2022-05-24T12:46:36Z</time>
      </trkpt>
      <trkpt lat="46.74959" lon="5.98294">
        <ele>762.6</ele>
        <time>2022-05-24T12:46:37Z</time>
      </trkpt>
      <trkpt lat="46.74961" lon="5.98298">
        <ele>762.4</ele>
        <time>2022-05-24T12:46:38Z</time>
      </trkpt>
      <trkpt lat="46.74963" lon="5.98303">
        <ele>762</ele>
        <time>2022-05-24T12:46:39Z</time>
      </trkpt>
      <trkpt lat="46.74965" lon="5.98308">
        <ele>761.6</ele>
        <time>2022-05-24T12:46:40Z</time>
      </trkpt>
      <trkpt lat="46.74967" lon="5.98313">
        <ele>761.4</ele>
        <time>2022-05-24T12:46:41Z</time>
      </trkpt>
      <trkpt lat="46.7497" lon="5.98318">
        <ele>761</ele>
        <time>2022-05-24T12:46:42Z</time>
      </trkpt>
      <trkpt lat="46.74972" lon="5.98324">
        <ele>760.4</ele>
        <time>2022-05-24T12:46:43Z</time>
      </trkpt>
      <trkpt lat="46.74974" lon="5.98329">
        <ele>760</ele>
        <time>2022-05-24T12:46:44Z</time>
      </trkpt>
      <trkpt lat="46.74975" lon="5.98333">
        <ele>759.4</ele>
        <time>2022-05-24T12:46:45Z</time>
      </trkpt>
      <trkpt lat="46.74977" lon="5.98337">
        <ele>759</ele>
        <time>2022-05-24T12:46:46Z</time>
      </trkpt>
      <trkpt lat="46.74979" lon="5.98342">
        <ele>758.6</ele>
        <time>2022-05-24T12:46:47Z</time>
      </trkpt>
      <trkpt lat="46.74981" lon="5.98345">
        <ele>758</ele>
        <time>2022-05-24T12:46:48Z</time>
      </trkpt>
      <trkpt lat="46.74985" lon="5.98349">
        <ele>757.4</ele>
        <time>2022-05-24T12:46:49Z</time>
      </trkpt>
      <trkpt lat="46.74989" lon="5.98352">
        <ele>757.2</ele>
        <time>2022-05-24T12:46:50Z</time>
      </trkpt>
      <trkpt lat="46.74993" lon="5.98354">
        <ele>756.8</ele>
        <time>2022-05-24T12:46:51Z</time>
      </trkpt>
      <trkpt lat="46.74998" lon="5.98354">
        <ele>756.4</ele>
        <time>2022-05-24T12:46:52Z</time>
      </trkpt>
      <trkpt lat="46.75002" lon="5.98353">
        <ele>756.4</ele>
        <time>2022-05-24T12:46:53Z</time>
      </trkpt>
      <trkpt lat="46.75005" lon="5.98352">
        <ele>756.2</ele>
        <time>2022-05-24T12:46:54Z</time>
      </trkpt>
      <trkpt lat="46.75008" lon="5.9835">
        <ele>756.2</ele>
        <time>2022-05-24T12:46:55Z</time>
      </trkpt>
      <trkpt lat="46.75012" lon="5.98348">
        <ele>756.2</ele>
        <time>2022-05-24T12:46:56Z</time>
      </trkpt>
      <trkpt lat="46.75015" lon="5.98347">
        <ele>756.2</ele>
        <time>2022-05-24T12:46:57Z</time>
      </trkpt>
      <trkpt lat="46.75018" lon="5.98345">
        <ele>755.8</ele>
        <time>2022-05-24T12:46:58Z</time>
      </trkpt>
      <trkpt lat="46.75021" lon="5.98343">
        <ele>755.8</ele>
        <time>2022-05-24T12:46:59Z</time>
      </trkpt>
      <trkpt lat="46.75024" lon="5.98341">
        <ele>755.8</ele>
        <time>2022-05-24T12:47:00Z</time>
      </trkpt>
      <trkpt lat="46.75027" lon="5.98339">
        <ele>755.8</ele>
        <time>2022-05-24T12:47:01Z</time>
      </trkpt>
      <trkpt lat="46.7503" lon="5.98338">
        <ele>755.8</ele>
        <time>2022-05-24T12:47:02Z</time>
      </trkpt>
      <trkpt lat="46.75033" lon="5.98338">
        <ele>755.8</ele>
        <time>2022-05-24T12:47:03Z</time>
      </trkpt>
      <trkpt lat="46.75036" lon="5.98339">
        <ele>756</ele>
        <time>2022-05-24T12:47:04Z</time>
      </trkpt>
      <trkpt lat="46.75038" lon="5.98339">
        <ele>756</ele>
        <time>2022-05-24T12:47:05Z</time>
      </trkpt>
      <trkpt lat="46.75042" lon="5.9834">
        <ele>756.6</ele>
        <time>2022-05-24T12:47:06Z</time>
      </trkpt>
      <trkpt lat="46.75045" lon="5.98341">
        <ele>756.6</ele>
        <time>2022-05-24T12:47:07Z</time>
      </trkpt>
      <trkpt lat="46.75047" lon="5.98342">
        <ele>757</ele>
        <time>2022-05-24T12:47:08Z</time>
      </trkpt>
      <trkpt lat="46.7505" lon="5.98344">
        <ele>757.2</ele>
        <time>2022-05-24T12:47:09Z</time>
      </trkpt>
      <trkpt lat="46.75052" lon="5.98347">
        <ele>757.6</ele>
        <time>2022-05-24T12:47:10Z</time>
      </trkpt>
      <trkpt lat="46.75055" lon="5.98348">
        <ele>757.6</ele>
        <time>2022-05-24T12:47:11Z</time>
      </trkpt>
      <trkpt lat="46.75058" lon="5.98349">
        <ele>758</ele>
        <time>2022-05-24T12:47:12Z</time>
      </trkpt>
      <trkpt lat="46.75062" lon="5.9835">
        <ele>758.4</ele>
        <time>2022-05-24T12:47:13Z</time>
      </trkpt>
      <trkpt lat="46.75065" lon="5.98351">
        <ele>758.8</ele>
        <time>2022-05-24T12:47:14Z</time>
      </trkpt>
      <trkpt lat="46.75068" lon="5.98352">
        <ele>759</ele>
        <time>2022-05-24T12:47:15Z</time>
      </trkpt>
      <trkpt lat="46.75071" lon="5.98353">
        <ele>759.2</ele>
        <time>2022-05-24T12:47:16Z</time>
      </trkpt>
      <trkpt lat="46.75074" lon="5.98354">
        <ele>759.6</ele>
        <time>2022-05-24T12:47:17Z</time>
      </trkpt>
      <trkpt lat="46.75076" lon="5.98356">
        <ele>759.8</ele>
        <time>2022-05-24T12:47:18Z</time>
      </trkpt>
      <trkpt lat="46.75079" lon="5.98357">
        <ele>759.8</ele>
        <time>2022-05-24T12:47:19Z</time>
      </trkpt>
      <trkpt lat="46.75081" lon="5.98358">
        <ele>760.2</ele>
        <time>2022-05-24T12:47:20Z</time>
      </trkpt>
      <trkpt lat="46.75084" lon="5.98359">
        <ele>760.4</ele>
        <time>2022-05-24T12:47:21Z</time>
      </trkpt>
      <trkpt lat="46.75087" lon="5.9836">
        <ele>760.8</ele>
        <time>2022-05-24T12:47:22Z</time>
      </trkpt>
      <trkpt lat="46.75089" lon="5.98361">
        <ele>760.8</ele>
        <time>2022-05-24T12:47:23Z</time>
      </trkpt>
      <trkpt lat="46.75091" lon="5.98363">
        <ele>761.2</ele>
        <time>2022-05-24T12:47:24Z</time>
      </trkpt>
      <trkpt lat="46.75094" lon="5.98364">
        <ele>761.2</ele>
        <time>2022-05-24T12:47:25Z</time>
      </trkpt>
      <trkpt lat="46.75097" lon="5.98366">
        <ele>761.4</ele>
        <time>2022-05-24T12:47:26Z</time>
      </trkpt>
      <trkpt lat="46.751" lon="5.98367">
        <ele>761.4</ele>
        <time>2022-05-24T12:47:27Z</time>
      </trkpt>
      <trkpt lat="46.75102" lon="5.98369">
        <ele>761.8</ele>
        <time>2022-05-24T12:47:28Z</time>
      </trkpt>
      <trkpt lat="46.75104" lon="5.9837">
        <ele>761.8</ele>
        <time>2022-05-24T12:47:29Z</time>
      </trkpt>
      <trkpt lat="46.75105" lon="5.98371">
        <ele>762</ele>
        <time>2022-05-24T12:47:30Z</time>
      </trkpt>
      <trkpt lat="46.75105" lon="5.98371">
        <ele>762</ele>
        <time>2022-05-24T12:47:31Z</time>
      </trkpt>
      <trkpt lat="46.75105" lon="5.98371">
        <ele>762</ele>
        <time>2022-05-24T12:47:32Z</time>
      </trkpt>
      <trkpt lat="46.75105" lon="5.98371">
        <ele>762</ele>
        <time>2022-05-24T12:47:34Z</time>
      </trkpt>
      <trkpt lat="46.75106" lon="5.98371">
        <ele>762</ele>
        <time>2022-05-24T12:47:35Z</time>
      </trkpt>
      <trkpt lat="46.75106" lon="5.98371">
        <ele>762</ele>
        <time>2022-05-24T12:47:36Z</time>
      </trkpt>
      <trkpt lat="46.75106" lon="5.98371">
        <ele>762</ele>
        <time>2022-05-24T12:47:37Z</time>
      </trkpt>
      <trkpt lat="46.75106" lon="5.98372">
        <ele>762</ele>
        <time>2022-05-24T12:47:38Z</time>
      </trkpt>
      <trkpt lat="46.75107" lon="5.98372">
        <ele>762</ele>
        <time>2022-05-24T12:47:40Z</time>
      </trkpt>
      <trkpt lat="46.75107" lon="5.98372">
        <ele>762</ele>
        <time>2022-05-24T12:47:41Z</time>
      </trkpt>
      <trkpt lat="46.75107" lon="5.98372">
        <ele>762</ele>
        <time>2022-05-24T12:47:43Z</time>
      </trkpt>
      <trkpt lat="46.75107" lon="5.98372">
        <ele>762</ele>
        <time>2022-05-24T12:47:44Z</time>
      </trkpt>
      <trkpt lat="46.75108" lon="5.98372">
        <ele>762</ele>
        <time>2022-05-24T12:47:48Z</time>
      </trkpt>
      <trkpt lat="46.75108" lon="5.98372">
        <ele>762</ele>
        <time>2022-05-24T12:47:49Z</time>
      </trkpt>
      <trkpt lat="46.75108" lon="5.98373">
        <ele>762</ele>
        <time>2022-05-24T12:47:51Z</time>
      </trkpt>
      <trkpt lat="46.75108" lon="5.98373">
        <ele>762</ele>
        <time>2022-05-24T12:47:52Z</time>
      </trkpt>
      <trkpt lat="46.75108" lon="5.98373">
        <ele>762</ele>
        <time>2022-05-24T12:47:53Z</time>
      </trkpt>
      <trkpt lat="46.75109" lon="5.98373">
        <ele>762</ele>
        <time>2022-05-24T12:47:56Z</time>
      </trkpt>
      <trkpt lat="46.75109" lon="5.98373">
        <ele>762</ele>
        <time>2022-05-24T12:47:57Z</time>
      </trkpt>
      <trkpt lat="46.75109" lon="5.98373">
        <ele>762</ele>
        <time>2022-05-24T12:48:02Z</time>
      </trkpt>
      <trkpt lat="46.75109" lon="5.98373">
        <ele>762</ele>
        <time>2022-05-24T12:48:03Z</time>
      </trkpt>
      <trkpt lat="46.7511" lon="5.98374">
        <ele>762.2</ele>
        <time>2022-05-24T12:48:23Z</time>
      </trkpt>
      <trkpt lat="46.7511" lon="5.98374">
        <ele>762.2</ele>
        <time>2022-05-24T12:48:24Z</time>
      </trkpt>
      <trkpt lat="46.7511" lon="5.98374">
        <ele>762.2</ele>
        <time>2022-05-24T12:48:25Z</time>
      </trkpt>
      <trkpt lat="46.7511" lon="5.98374">
        <ele>762.2</ele>
        <time>2022-05-24T12:48:26Z</time>
      </trkpt>
      <trkpt lat="46.75111" lon="5.98374">
        <ele>762.2</ele>
        <time>2022-05-24T12:48:27Z</time>
      </trkpt>
      <trkpt lat="46.75111" lon="5.98374">
        <ele>762.2</ele>
        <time>2022-05-24T12:48:28Z</time>
      </trkpt>
      <trkpt lat="46.75111" lon="5.98374">
        <ele>762.2</ele>
        <time>2022-05-24T12:48:29Z</time>
      </trkpt>
      <trkpt lat="46.75111" lon="5.98375">
        <ele>762.2</ele>
        <time>2022-05-24T12:48:30Z</time>
      </trkpt>
      <trkpt lat="46.75112" lon="5.98375">
        <ele>762.2</ele>
        <time>2022-05-24T12:48:31Z</time>
      </trkpt>
      <trkpt lat="46.75112" lon="5.98375">
        <ele>762.2</ele>
        <time>2022-05-24T12:48:32Z</time>
      </trkpt>
      <trkpt lat="46.75112" lon="5.98375">
        <ele>762.2</ele>
        <time>2022-05-24T12:48:34Z</time>
      </trkpt>
      <trkpt lat="46.75112" lon="5.98375">
        <ele>762.6</ele>
        <time>2022-05-24T12:48:35Z</time>
      </trkpt>
      <trkpt lat="46.75114" lon="5.98377">
        <ele>762.6</ele>
        <time>2022-05-24T12:48:36Z</time>
      </trkpt>
      <trkpt lat="46.75116" lon="5.98378">
        <ele>762.6</ele>
        <time>2022-05-24T12:48:37Z</time>
      </trkpt>
      <trkpt lat="46.75118" lon="5.98379">
        <ele>762.8</ele>
        <time>2022-05-24T12:48:38Z</time>
      </trkpt>
      <trkpt lat="46.75121" lon="5.98381">
        <ele>762.8</ele>
        <time>2022-05-24T12:48:39Z</time>
      </trkpt>
      <trkpt lat="46.75123" lon="5.98382">
        <ele>762.8</ele>
        <time>2022-05-24T12:48:40Z</time>
      </trkpt>
      <trkpt lat="46.75126" lon="5.98383">
        <ele>763</ele>
        <time>2022-05-24T12:48:41Z</time>
      </trkpt>
      <trkpt lat="46.75128" lon="5.98385">
        <ele>763</ele>
        <time>2022-05-24T12:48:42Z</time>
      </trkpt>
      <trkpt lat="46.75131" lon="5.98386">
        <ele>763.4</ele>
        <time>2022-05-24T12:48:43Z</time>
      </trkpt>
      <trkpt lat="46.75133" lon="5.98387">
        <ele>763.4</ele>
        <time>2022-05-24T12:48:44Z</time>
      </trkpt>
      <trkpt lat="46.75136" lon="5.98389">
        <ele>763.8</ele>
        <time>2022-05-24T12:48:45Z</time>
      </trkpt>
      <trkpt lat="46.75139" lon="5.9839">
        <ele>763.8</ele>
        <time>2022-05-24T12:48:46Z</time>
      </trkpt>
      <trkpt lat="46.75141" lon="5.98391">
        <ele>764</ele>
        <time>2022-05-24T12:48:47Z</time>
      </trkpt>
      <trkpt lat="46.75144" lon="5.98391">
        <ele>764</ele>
        <time>2022-05-24T12:48:48Z</time>
      </trkpt>
      <trkpt lat="46.75147" lon="5.98393">
        <ele>764.2</ele>
        <time>2022-05-24T12:48:49Z</time>
      </trkpt>
      <trkpt lat="46.7515" lon="5.98394">
        <ele>764.2</ele>
        <time>2022-05-24T12:48:50Z</time>
      </trkpt>
      <trkpt lat="46.75152" lon="5.98394">
        <ele>764.4</ele>
        <time>2022-05-24T12:48:51Z</time>
      </trkpt>
      <trkpt lat="46.75155" lon="5.98395">
        <ele>764.8</ele>
        <time>2022-05-24T12:48:52Z</time>
      </trkpt>
      <trkpt lat="46.75157" lon="5.98396">
        <ele>764.8</ele>
        <time>2022-05-24T12:48:53Z</time>
      </trkpt>
      <trkpt lat="46.75159" lon="5.98397">
        <ele>765.2</ele>
        <time>2022-05-24T12:48:54Z</time>
      </trkpt>
      <trkpt lat="46.75162" lon="5.98397">
        <ele>765.4</ele>
        <time>2022-05-24T12:48:55Z</time>
      </trkpt>
      <trkpt lat="46.75164" lon="5.98398">
        <ele>765.6</ele>
        <time>2022-05-24T12:48:56Z</time>
      </trkpt>
      <trkpt lat="46.75166" lon="5.98399">
        <ele>765.6</ele>
        <time>2022-05-24T12:48:57Z</time>
      </trkpt>
      <trkpt lat="46.75168" lon="5.98399">
        <ele>765.8</ele>
        <time>2022-05-24T12:48:58Z</time>
      </trkpt>
      <trkpt lat="46.7517" lon="5.984">
        <ele>765.8</ele>
        <time>2022-05-24T12:48:59Z</time>
      </trkpt>
      <trkpt lat="46.75173" lon="5.98401">
        <ele>766.2</ele>
        <time>2022-05-24T12:49:00Z</time>
      </trkpt>
      <trkpt lat="46.75175" lon="5.98401">
        <ele>766.2</ele>
        <time>2022-05-24T12:49:01Z</time>
      </trkpt>
      <trkpt lat="46.75178" lon="5.98402">
        <ele>766.6</ele>
        <time>2022-05-24T12:49:02Z</time>
      </trkpt>
      <trkpt lat="46.75181" lon="5.98402">
        <ele>766.6</ele>
        <time>2022-05-24T12:49:03Z</time>
      </trkpt>
      <trkpt lat="46.75184" lon="5.98402">
        <ele>766.8</ele>
        <time>2022-05-24T12:49:04Z</time>
      </trkpt>
      <trkpt lat="46.75186" lon="5.98403">
        <ele>766.8</ele>
        <time>2022-05-24T12:49:05Z</time>
      </trkpt>
      <trkpt lat="46.75189" lon="5.98403">
        <ele>767.2</ele>
        <time>2022-05-24T12:49:06Z</time>
      </trkpt>
      <trkpt lat="46.75191" lon="5.98403">
        <ele>767.2</ele>
        <time>2022-05-24T12:49:07Z</time>
      </trkpt>
      <trkpt lat="46.75194" lon="5.98404">
        <ele>767.4</ele>
        <time>2022-05-24T12:49:08Z</time>
      </trkpt>
      <trkpt lat="46.75197" lon="5.98404">
        <ele>767.4</ele>
        <time>2022-05-24T12:49:09Z</time>
      </trkpt>
      <trkpt lat="46.752" lon="5.98405">
        <ele>767.8</ele>
        <time>2022-05-24T12:49:10Z</time>
      </trkpt>
      <trkpt lat="46.75203" lon="5.98406">
        <ele>767.8</ele>
        <time>2022-05-24T12:49:11Z</time>
      </trkpt>
      <trkpt lat="46.75206" lon="5.98407">
        <ele>768.2</ele>
        <time>2022-05-24T12:49:12Z</time>
      </trkpt>
      <trkpt lat="46.75208" lon="5.98408">
        <ele>768.2</ele>
        <time>2022-05-24T12:49:13Z</time>
      </trkpt>
      <trkpt lat="46.75211" lon="5.98409">
        <ele>768.4</ele>
        <time>2022-05-24T12:49:14Z</time>
      </trkpt>
      <trkpt lat="46.75214" lon="5.9841">
        <ele>768.4</ele>
        <time>2022-05-24T12:49:15Z</time>
      </trkpt>
      <trkpt lat="46.75214" lon="5.9841">
        <ele>768.4</ele>
        <time>2022-05-24T12:49:16Z</time>
      </trkpt>
      <trkpt lat="46.75217" lon="5.9841">
        <ele>768.8</ele>
        <time>2022-05-24T12:49:17Z</time>
      </trkpt>
      <trkpt lat="46.75221" lon="5.98411">
        <ele>768.8</ele>
        <time>2022-05-24T12:49:18Z</time>
      </trkpt>
      <trkpt lat="46.75227" lon="5.98413">
        <ele>769</ele>
        <time>2022-05-24T12:49:19Z</time>
      </trkpt>
      <trkpt lat="46.7523" lon="5.98414">
        <ele>769.2</ele>
        <time>2022-05-24T12:49:20Z</time>
      </trkpt>
      <trkpt lat="46.75233" lon="5.98415">
        <ele>769.2</ele>
        <time>2022-05-24T12:49:21Z</time>
      </trkpt>
      <trkpt lat="46.75236" lon="5.98416">
        <ele>769.2</ele>
        <time>2022-05-24T12:49:22Z</time>
      </trkpt>
      <trkpt lat="46.75239" lon="5.98418">
        <ele>769.6</ele>
        <time>2022-05-24T12:49:23Z</time>
      </trkpt>
      <trkpt lat="46.75242" lon="5.98419">
        <ele>769.6</ele>
        <time>2022-05-24T12:49:24Z</time>
      </trkpt>
      <trkpt lat="46.75246" lon="5.98421">
        <ele>769.8</ele>
        <time>2022-05-24T12:49:25Z</time>
      </trkpt>
      <trkpt lat="46.75249" lon="5.98422">
        <ele>769.8</ele>
        <time>2022-05-24T12:49:26Z</time>
      </trkpt>
      <trkpt lat="46.75252" lon="5.98423">
        <ele>770</ele>
        <time>2022-05-24T12:49:27Z</time>
      </trkpt>
      <trkpt lat="46.75256" lon="5.98425">
        <ele>770</ele>
        <time>2022-05-24T12:49:28Z</time>
      </trkpt>
      <trkpt lat="46.75258" lon="5.98425">
        <ele>770.4</ele>
        <time>2022-05-24T12:49:29Z</time>
      </trkpt>
      <trkpt lat="46.75261" lon="5.98427">
        <ele>770.4</ele>
        <time>2022-05-24T12:49:30Z</time>
      </trkpt>
      <trkpt lat="46.75264" lon="5.98428">
        <ele>770.6</ele>
        <time>2022-05-24T12:49:31Z</time>
      </trkpt>
      <trkpt lat="46.75266" lon="5.9843">
        <ele>770.6</ele>
        <time>2022-05-24T12:49:32Z</time>
      </trkpt>
      <trkpt lat="46.75269" lon="5.98433">
        <ele>770.8</ele>
        <time>2022-05-24T12:49:33Z</time>
      </trkpt>
      <trkpt lat="46.75272" lon="5.98437">
        <ele>770.8</ele>
        <time>2022-05-24T12:49:34Z</time>
      </trkpt>
      <trkpt lat="46.75275" lon="5.98439">
        <ele>770.8</ele>
        <time>2022-05-24T12:49:35Z</time>
      </trkpt>
      <trkpt lat="46.75279" lon="5.98442">
        <ele>771.2</ele>
        <time>2022-05-24T12:49:36Z</time>
      </trkpt>
      <trkpt lat="46.75282" lon="5.98444">
        <ele>771.2</ele>
        <time>2022-05-24T12:49:37Z</time>
      </trkpt>
      <trkpt lat="46.75285" lon="5.98446">
        <ele>771.4</ele>
        <time>2022-05-24T12:49:38Z</time>
      </trkpt>
      <trkpt lat="46.75288" lon="5.98449">
        <ele>771.4</ele>
        <time>2022-05-24T12:49:39Z</time>
      </trkpt>
      <trkpt lat="46.75291" lon="5.98451">
        <ele>771.6</ele>
        <time>2022-05-24T12:49:40Z</time>
      </trkpt>
      <trkpt lat="46.75294" lon="5.98454">
        <ele>771.6</ele>
        <time>2022-05-24T12:49:41Z</time>
      </trkpt>
      <trkpt lat="46.75298" lon="5.98456">
        <ele>771.8</ele>
        <time>2022-05-24T12:49:42Z</time>
      </trkpt>
      <trkpt lat="46.75301" lon="5.98457">
        <ele>771.8</ele>
        <time>2022-05-24T12:49:43Z</time>
      </trkpt>
      <trkpt lat="46.75304" lon="5.98459">
        <ele>772</ele>
        <time>2022-05-24T12:49:44Z</time>
      </trkpt>
      <trkpt lat="46.75308" lon="5.9846">
        <ele>772.2</ele>
        <time>2022-05-24T12:49:45Z</time>
      </trkpt>
      <trkpt lat="46.75311" lon="5.98461">
        <ele>772.2</ele>
        <time>2022-05-24T12:49:46Z</time>
      </trkpt>
      <trkpt lat="46.75314" lon="5.98461">
        <ele>772.6</ele>
        <time>2022-05-24T12:49:47Z</time>
      </trkpt>
      <trkpt lat="46.75317" lon="5.98461">
        <ele>772.8</ele>
        <time>2022-05-24T12:49:48Z</time>
      </trkpt>
      <trkpt lat="46.75321" lon="5.98461">
        <ele>772.8</ele>
        <time>2022-05-24T12:49:49Z</time>
      </trkpt>
      <trkpt lat="46.75324" lon="5.98461">
        <ele>773</ele>
        <time>2022-05-24T12:49:50Z</time>
      </trkpt>
      <trkpt lat="46.75328" lon="5.98461">
        <ele>773</ele>
        <time>2022-05-24T12:49:51Z</time>
      </trkpt>
      <trkpt lat="46.75331" lon="5.98461">
        <ele>773.4</ele>
        <time>2022-05-24T12:49:52Z</time>
      </trkpt>
      <trkpt lat="46.75335" lon="5.98461">
        <ele>773.4</ele>
        <time>2022-05-24T12:49:53Z</time>
      </trkpt>
      <trkpt lat="46.75338" lon="5.98461">
        <ele>773.8</ele>
        <time>2022-05-24T12:49:54Z</time>
      </trkpt>
      <trkpt lat="46.75342" lon="5.98462">
        <ele>773.8</ele>
        <time>2022-05-24T12:49:55Z</time>
      </trkpt>
      <trkpt lat="46.75345" lon="5.98462">
        <ele>774.2</ele>
        <time>2022-05-24T12:49:56Z</time>
      </trkpt>
      <trkpt lat="46.75349" lon="5.98463">
        <ele>774.2</ele>
        <time>2022-05-24T12:49:57Z</time>
      </trkpt>
      <trkpt lat="46.75353" lon="5.98463">
        <ele>774.4</ele>
        <time>2022-05-24T12:49:58Z</time>
      </trkpt>
      <trkpt lat="46.75356" lon="5.98464">
        <ele>774.4</ele>
        <time>2022-05-24T12:49:59Z</time>
      </trkpt>
      <trkpt lat="46.7536" lon="5.98464">
        <ele>774.6</ele>
        <time>2022-05-24T12:50:00Z</time>
      </trkpt>
      <trkpt lat="46.75365" lon="5.98465">
        <ele>774.6</ele>
        <time>2022-05-24T12:50:01Z</time>
      </trkpt>
      <trkpt lat="46.75369" lon="5.98465">
        <ele>774.6</ele>
        <time>2022-05-24T12:50:02Z</time>
      </trkpt>
      <trkpt lat="46.75373" lon="5.98465">
        <ele>774.6</ele>
        <time>2022-05-24T12:50:03Z</time>
      </trkpt>
      <trkpt lat="46.75377" lon="5.98465">
        <ele>774.6</ele>
        <time>2022-05-24T12:50:04Z</time>
      </trkpt>
      <trkpt lat="46.75381" lon="5.98466">
        <ele>774.8</ele>
        <time>2022-05-24T12:50:05Z</time>
      </trkpt>
      <trkpt lat="46.75385" lon="5.98466">
        <ele>774.8</ele>
        <time>2022-05-24T12:50:06Z</time>
      </trkpt>
      <trkpt lat="46.75389" lon="5.98466">
        <ele>774.8</ele>
        <time>2022-05-24T12:50:07Z</time>
      </trkpt>
      <trkpt lat="46.75393" lon="5.98466">
        <ele>774.8</ele>
        <time>2022-05-24T12:50:08Z</time>
      </trkpt>
      <trkpt lat="46.75398" lon="5.98466">
        <ele>774.8</ele>
        <time>2022-05-24T12:50:09Z</time>
      </trkpt>
      <trkpt lat="46.75403" lon="5.98466">
        <ele>774.8</ele>
        <time>2022-05-24T12:50:10Z</time>
      </trkpt>
      <trkpt lat="46.75409" lon="5.98467">
        <ele>774.6</ele>
        <time>2022-05-24T12:50:11Z</time>
      </trkpt>
      <trkpt lat="46.75409" lon="5.98467">
        <ele>774.6</ele>
        <time>2022-05-24T12:50:12Z</time>
      </trkpt>
      <trkpt lat="46.75415" lon="5.98468">
        <ele>774.6</ele>
        <time>2022-05-24T12:50:13Z</time>
      </trkpt>
      <trkpt lat="46.75421" lon="5.9847">
        <ele>774.6</ele>
        <time>2022-05-24T12:50:14Z</time>
      </trkpt>
      <trkpt lat="46.75427" lon="5.98472">
        <ele>774.6</ele>
        <time>2022-05-24T12:50:15Z</time>
      </trkpt>
      <trkpt lat="46.75433" lon="5.98474">
        <ele>774.6</ele>
        <time>2022-05-24T12:50:16Z</time>
      </trkpt>
      <trkpt lat="46.75439" lon="5.98476">
        <ele>774.4</ele>
        <time>2022-05-24T12:50:17Z</time>
      </trkpt>
      <trkpt lat="46.75445" lon="5.98479">
        <ele>774.4</ele>
        <time>2022-05-24T12:50:18Z</time>
      </trkpt>
      <trkpt lat="46.75451" lon="5.98483">
        <ele>774.4</ele>
        <time>2022-05-24T12:50:19Z</time>
      </trkpt>
      <trkpt lat="46.75457" lon="5.98487">
        <ele>774.4</ele>
        <time>2022-05-24T12:50:20Z</time>
      </trkpt>
      <trkpt lat="46.75462" lon="5.98491">
        <ele>774.2</ele>
        <time>2022-05-24T12:50:21Z</time>
      </trkpt>
      <trkpt lat="46.75468" lon="5.98496">
        <ele>774.2</ele>
        <time>2022-05-24T12:50:22Z</time>
      </trkpt>
      <trkpt lat="46.75473" lon="5.98502">
        <ele>774.2</ele>
        <time>2022-05-24T12:50:23Z</time>
      </trkpt>
      <trkpt lat="46.75479" lon="5.98507">
        <ele>773.8</ele>
        <time>2022-05-24T12:50:24Z</time>
      </trkpt>
      <trkpt lat="46.75485" lon="5.98512">
        <ele>773.6</ele>
        <time>2022-05-24T12:50:25Z</time>
      </trkpt>
      <trkpt lat="46.75492" lon="5.98517">
        <ele>773.4</ele>
        <time>2022-05-24T12:50:26Z</time>
      </trkpt>
      <trkpt lat="46.75499" lon="5.98523">
        <ele>773.2</ele>
        <time>2022-05-24T12:50:27Z</time>
      </trkpt>
      <trkpt lat="46.75505" lon="5.9853">
        <ele>772.8</ele>
        <time>2022-05-24T12:50:28Z</time>
      </trkpt>
      <trkpt lat="46.75512" lon="5.98537">
        <ele>772.6</ele>
        <time>2022-05-24T12:50:29Z</time>
      </trkpt>
      <trkpt lat="46.75519" lon="5.98544">
        <ele>772.2</ele>
        <time>2022-05-24T12:50:30Z</time>
      </trkpt>
      <trkpt lat="46.75526" lon="5.98551">
        <ele>772</ele>
        <time>2022-05-24T12:50:31Z</time>
      </trkpt>
      <trkpt lat="46.75533" lon="5.98557">
        <ele>771.6</ele>
        <time>2022-05-24T12:50:32Z</time>
      </trkpt>
      <trkpt lat="46.75541" lon="5.98564">
        <ele>771</ele>
        <time>2022-05-24T12:50:33Z</time>
      </trkpt>
      <trkpt lat="46.75548" lon="5.98571">
        <ele>770.8</ele>
        <time>2022-05-24T12:50:34Z</time>
      </trkpt>
      <trkpt lat="46.75557" lon="5.98578">
        <ele>770.4</ele>
        <time>2022-05-24T12:50:35Z</time>
      </trkpt>
      <trkpt lat="46.75566" lon="5.98584">
        <ele>770</ele>
        <time>2022-05-24T12:50:36Z</time>
      </trkpt>
      <trkpt lat="46.75575" lon="5.9859">
        <ele>769.4</ele>
        <time>2022-05-24T12:50:37Z</time>
      </trkpt>
      <trkpt lat="46.75585" lon="5.98596">
        <ele>769</ele>
        <time>2022-05-24T12:50:38Z</time>
      </trkpt>
      <trkpt lat="46.75594" lon="5.98602">
        <ele>768.6</ele>
        <time>2022-05-24T12:50:39Z</time>
      </trkpt>
      <trkpt lat="46.75604" lon="5.98608">
        <ele>768</ele>
        <time>2022-05-24T12:50:40Z</time>
      </trkpt>
      <trkpt lat="46.75613" lon="5.98614">
        <ele>767.6</ele>
        <time>2022-05-24T12:50:41Z</time>
      </trkpt>
      <trkpt lat="46.75624" lon="5.98621">
        <ele>767</ele>
        <time>2022-05-24T12:50:42Z</time>
      </trkpt>
      <trkpt lat="46.75633" lon="5.98628">
        <ele>766.6</ele>
        <time>2022-05-24T12:50:43Z</time>
      </trkpt>
      <trkpt lat="46.75643" lon="5.98635">
        <ele>766.4</ele>
        <time>2022-05-24T12:50:44Z</time>
      </trkpt>
      <trkpt lat="46.75652" lon="5.9864">
        <ele>766</ele>
        <time>2022-05-24T12:50:45Z</time>
      </trkpt>
      <trkpt lat="46.75661" lon="5.98647">
        <ele>765.6</ele>
        <time>2022-05-24T12:50:46Z</time>
      </trkpt>
      <trkpt lat="46.7567" lon="5.98655">
        <ele>765.6</ele>
        <time>2022-05-24T12:50:47Z</time>
      </trkpt>
      <trkpt lat="46.75678" lon="5.98663">
        <ele>765.2</ele>
        <time>2022-05-24T12:50:48Z</time>
      </trkpt>
      <trkpt lat="46.75686" lon="5.98671">
        <ele>764.8</ele>
        <time>2022-05-24T12:50:49Z</time>
      </trkpt>
      <trkpt lat="46.75694" lon="5.98679">
        <ele>764.6</ele>
        <time>2022-05-24T12:50:50Z</time>
      </trkpt>
      <trkpt lat="46.75707" lon="5.98696">
        <ele>764.4</ele>
        <time>2022-05-24T12:50:51Z</time>
      </trkpt>
      <trkpt lat="46.75712" lon="5.98704">
        <ele>764.4</ele>
        <time>2022-05-24T12:50:52Z</time>
      </trkpt>
      <trkpt lat="46.75718" lon="5.98713">
        <ele>764</ele>
        <time>2022-05-24T12:50:53Z</time>
      </trkpt>
      <trkpt lat="46.75723" lon="5.98721">
        <ele>764</ele>
        <time>2022-05-24T12:50:54Z</time>
      </trkpt>
      <trkpt lat="46.75728" lon="5.9873">
        <ele>764</ele>
        <time>2022-05-24T12:50:55Z</time>
      </trkpt>
      <trkpt lat="46.75734" lon="5.98738">
        <ele>764</ele>
        <time>2022-05-24T12:50:56Z</time>
      </trkpt>
      <trkpt lat="46.7574" lon="5.98747">
        <ele>764</ele>
        <time>2022-05-24T12:50:57Z</time>
      </trkpt>
      <trkpt lat="46.75746" lon="5.98755">
        <ele>763.6</ele>
        <time>2022-05-24T12:50:58Z</time>
      </trkpt>
      <trkpt lat="46.75753" lon="5.98762">
        <ele>763.6</ele>
        <time>2022-05-24T12:50:59Z</time>
      </trkpt>
      <trkpt lat="46.7576" lon="5.98769">
        <ele>763.6</ele>
        <time>2022-05-24T12:51:00Z</time>
      </trkpt>
      <trkpt lat="46.75767" lon="5.98774">
        <ele>763.6</ele>
        <time>2022-05-24T12:51:01Z</time>
      </trkpt>
      <trkpt lat="46.75774" lon="5.98779">
        <ele>763.6</ele>
        <time>2022-05-24T12:51:02Z</time>
      </trkpt>
      <trkpt lat="46.75782" lon="5.98782">
        <ele>763.4</ele>
        <time>2022-05-24T12:51:03Z</time>
      </trkpt>
      <trkpt lat="46.75789" lon="5.98785">
        <ele>763.4</ele>
        <time>2022-05-24T12:51:04Z</time>
      </trkpt>
      <trkpt lat="46.75797" lon="5.98788">
        <ele>763.4</ele>
        <time>2022-05-24T12:51:05Z</time>
      </trkpt>
      <trkpt lat="46.75804" lon="5.98791">
        <ele>763.4</ele>
        <time>2022-05-24T12:51:06Z</time>
      </trkpt>
      <trkpt lat="46.75812" lon="5.98794">
        <ele>763.4</ele>
        <time>2022-05-24T12:51:07Z</time>
      </trkpt>
      <trkpt lat="46.75819" lon="5.98796">
        <ele>763.4</ele>
        <time>2022-05-24T12:51:08Z</time>
      </trkpt>
      <trkpt lat="46.75826" lon="5.98799">
        <ele>763.4</ele>
        <time>2022-05-24T12:51:09Z</time>
      </trkpt>
      <trkpt lat="46.75833" lon="5.98802">
        <ele>763.4</ele>
        <time>2022-05-24T12:51:10Z</time>
      </trkpt>
      <trkpt lat="46.7584" lon="5.98804">
        <ele>763.8</ele>
        <time>2022-05-24T12:51:11Z</time>
      </trkpt>
      <trkpt lat="46.75846" lon="5.98806">
        <ele>763.8</ele>
        <time>2022-05-24T12:51:12Z</time>
      </trkpt>
      <trkpt lat="46.75852" lon="5.98808">
        <ele>764</ele>
        <time>2022-05-24T12:51:13Z</time>
      </trkpt>
      <trkpt lat="46.75859" lon="5.9881">
        <ele>764</ele>
        <time>2022-05-24T12:51:14Z</time>
      </trkpt>
      <trkpt lat="46.75865" lon="5.98812">
        <ele>764.2</ele>
        <time>2022-05-24T12:51:15Z</time>
      </trkpt>
      <trkpt lat="46.75871" lon="5.98815">
        <ele>764.6</ele>
        <time>2022-05-24T12:51:16Z</time>
      </trkpt>
      <trkpt lat="46.75877" lon="5.98817">
        <ele>764.6</ele>
        <time>2022-05-24T12:51:17Z</time>
      </trkpt>
      <trkpt lat="46.75883" lon="5.98819">
        <ele>764.8</ele>
        <time>2022-05-24T12:51:18Z</time>
      </trkpt>
      <trkpt lat="46.7589" lon="5.98822">
        <ele>765</ele>
        <time>2022-05-24T12:51:19Z</time>
      </trkpt>
      <trkpt lat="46.75896" lon="5.98824">
        <ele>765</ele>
        <time>2022-05-24T12:51:20Z</time>
      </trkpt>
      <trkpt lat="46.75901" lon="5.98826">
        <ele>765</ele>
        <time>2022-05-24T12:51:21Z</time>
      </trkpt>
      <trkpt lat="46.75907" lon="5.98828">
        <ele>765.4</ele>
        <time>2022-05-24T12:51:22Z</time>
      </trkpt>
      <trkpt lat="46.75913" lon="5.9883">
        <ele>765.4</ele>
        <time>2022-05-24T12:51:23Z</time>
      </trkpt>
      <trkpt lat="46.75913" lon="5.9883">
        <ele>765.6</ele>
        <time>2022-05-24T12:51:24Z</time>
      </trkpt>
      <trkpt lat="46.75919" lon="5.98832">
        <ele>765.8</ele>
        <time>2022-05-24T12:51:25Z</time>
      </trkpt>
      <trkpt lat="46.75924" lon="5.98834">
        <ele>766</ele>
        <time>2022-05-24T12:51:26Z</time>
      </trkpt>
      <trkpt lat="46.7593" lon="5.98835">
        <ele>766.4</ele>
        <time>2022-05-24T12:51:27Z</time>
      </trkpt>
      <trkpt lat="46.75935" lon="5.98837">
        <ele>766.4</ele>
        <time>2022-05-24T12:51:28Z</time>
      </trkpt>
      <trkpt lat="46.7594" lon="5.98839">
        <ele>766.6</ele>
        <time>2022-05-24T12:51:29Z</time>
      </trkpt>
      <trkpt lat="46.75945" lon="5.98841">
        <ele>766.6</ele>
        <time>2022-05-24T12:51:30Z</time>
      </trkpt>
      <trkpt lat="46.7595" lon="5.98843">
        <ele>766.8</ele>
        <time>2022-05-24T12:51:31Z</time>
      </trkpt>
      <trkpt lat="46.75956" lon="5.98845">
        <ele>766.8</ele>
        <time>2022-05-24T12:51:32Z</time>
      </trkpt>
      <trkpt lat="46.75961" lon="5.98847">
        <ele>767.2</ele>
        <time>2022-05-24T12:51:33Z</time>
      </trkpt>
      <trkpt lat="46.75966" lon="5.98849">
        <ele>767.2</ele>
        <time>2022-05-24T12:51:34Z</time>
      </trkpt>
      <trkpt lat="46.75971" lon="5.9885">
        <ele>767.6</ele>
        <time>2022-05-24T12:51:35Z</time>
      </trkpt>
      <trkpt lat="46.75975" lon="5.98852">
        <ele>767.6</ele>
        <time>2022-05-24T12:51:36Z</time>
      </trkpt>
      <trkpt lat="46.7598" lon="5.98854">
        <ele>768</ele>
        <time>2022-05-24T12:51:37Z</time>
      </trkpt>
      <trkpt lat="46.75984" lon="5.98856">
        <ele>768</ele>
        <time>2022-05-24T12:51:38Z</time>
      </trkpt>
      <trkpt lat="46.75989" lon="5.98858">
        <ele>768.2</ele>
        <time>2022-05-24T12:51:39Z</time>
      </trkpt>
      <trkpt lat="46.75993" lon="5.98859">
        <ele>768.4</ele>
        <time>2022-05-24T12:51:40Z</time>
      </trkpt>
      <trkpt lat="46.75998" lon="5.98861">
        <ele>768.4</ele>
        <time>2022-05-24T12:51:41Z</time>
      </trkpt>
      <trkpt lat="46.76002" lon="5.98863">
        <ele>768.8</ele>
        <time>2022-05-24T12:51:42Z</time>
      </trkpt>
      <trkpt lat="46.76006" lon="5.98865">
        <ele>768.8</ele>
        <time>2022-05-24T12:51:43Z</time>
      </trkpt>
      <trkpt lat="46.76015" lon="5.9887">
        <ele>769</ele>
        <time>2022-05-24T12:51:44Z</time>
      </trkpt>
      <trkpt lat="46.7602" lon="5.98873">
        <ele>769</ele>
        <time>2022-05-24T12:51:45Z</time>
      </trkpt>
      <trkpt lat="46.76025" lon="5.98877">
        <ele>769</ele>
        <time>2022-05-24T12:51:46Z</time>
      </trkpt>
      <trkpt lat="46.76031" lon="5.98881">
        <ele>769</ele>
        <time>2022-05-24T12:51:47Z</time>
      </trkpt>
      <trkpt lat="46.76036" lon="5.98884">
        <ele>769</ele>
        <time>2022-05-24T12:51:48Z</time>
      </trkpt>
      <trkpt lat="46.76041" lon="5.98887">
        <ele>768.6</ele>
        <time>2022-05-24T12:51:49Z</time>
      </trkpt>
      <trkpt lat="46.76045" lon="5.98889">
        <ele>768.4</ele>
        <time>2022-05-24T12:51:50Z</time>
      </trkpt>
      <trkpt lat="46.76048" lon="5.98889">
        <ele>768</ele>
        <time>2022-05-24T12:51:51Z</time>
      </trkpt>
      <trkpt lat="46.76051" lon="5.9889">
        <ele>767.8</ele>
        <time>2022-05-24T12:51:52Z</time>
      </trkpt>
      <trkpt lat="46.76052" lon="5.9889">
        <ele>767.8</ele>
        <time>2022-05-24T12:51:53Z</time>
      </trkpt>
      <trkpt lat="46.76053" lon="5.9889">
        <ele>767.6</ele>
        <time>2022-05-24T12:51:54Z</time>
      </trkpt>
      <trkpt lat="46.76053" lon="5.9889">
        <ele>767.6</ele>
        <time>2022-05-24T12:51:55Z</time>
      </trkpt>
      <trkpt lat="46.76053" lon="5.9889">
        <ele>767.6</ele>
        <time>2022-05-24T12:51:58Z</time>
      </trkpt>
      <trkpt lat="46.76053" lon="5.9889">
        <ele>767.6</ele>
        <time>2022-05-24T12:51:59Z</time>
      </trkpt>
      <trkpt lat="46.76053" lon="5.9889">
        <ele>767.6</ele>
        <time>2022-05-24T12:52:00Z</time>
      </trkpt>
      <trkpt lat="46.76053" lon="5.9889">
        <ele>767.6</ele>
        <time>2022-05-24T12:52:01Z</time>
      </trkpt>
      <trkpt lat="46.76053" lon="5.9889">
        <ele>767.4</ele>
        <time>2022-05-24T12:52:02Z</time>
      </trkpt>
      <trkpt lat="46.76053" lon="5.9889">
        <ele>767.4</ele>
        <time>2022-05-24T12:52:03Z</time>
      </trkpt>
      <trkpt lat="46.76053" lon="5.9889">
        <ele>767.4</ele>
        <time>2022-05-24T12:52:04Z</time>
      </trkpt>
      <trkpt lat="46.76053" lon="5.9889">
        <ele>767.4</ele>
        <time>2022-05-24T12:52:28Z</time>
      </trkpt>
      <trkpt lat="46.76053" lon="5.9889">
        <ele>767.4</ele>
        <time>2022-05-24T12:52:29Z</time>
      </trkpt>
      <trkpt lat="46.76053" lon="5.9889">
        <ele>767.4</ele>
        <time>2022-05-24T12:52:30Z</time>
      </trkpt>
      <trkpt lat="46.76054" lon="5.98891">
        <ele>767.4</ele>
        <time>2022-05-24T12:52:31Z</time>
      </trkpt>
      <trkpt lat="46.76055" lon="5.98893">
        <ele>767.4</ele>
        <time>2022-05-24T12:52:32Z</time>
      </trkpt>
      <trkpt lat="46.76058" lon="5.98895">
        <ele>767.4</ele>
        <time>2022-05-24T12:52:33Z</time>
      </trkpt>
      <trkpt lat="46.7606" lon="5.98896">
        <ele>767.2</ele>
        <time>2022-05-24T12:52:34Z</time>
      </trkpt>
      <trkpt lat="46.76063" lon="5.98898">
        <ele>767.2</ele>
        <time>2022-05-24T12:52:35Z</time>
      </trkpt>
      <trkpt lat="46.76067" lon="5.989">
        <ele>767.2</ele>
        <time>2022-05-24T12:52:36Z</time>
      </trkpt>
      <trkpt lat="46.7607" lon="5.98901">
        <ele>766.8</ele>
        <time>2022-05-24T12:52:37Z</time>
      </trkpt>
      <trkpt lat="46.76074" lon="5.98903">
        <ele>766.8</ele>
        <time>2022-05-24T12:52:38Z</time>
      </trkpt>
      <trkpt lat="46.76078" lon="5.98905">
        <ele>766.8</ele>
        <time>2022-05-24T12:52:39Z</time>
      </trkpt>
      <trkpt lat="46.76082" lon="5.98907">
        <ele>766.8</ele>
        <time>2022-05-24T12:52:40Z</time>
      </trkpt>
      <trkpt lat="46.76086" lon="5.98908">
        <ele>766.6</ele>
        <time>2022-05-24T12:52:41Z</time>
      </trkpt>
      <trkpt lat="46.76091" lon="5.9891">
        <ele>766.6</ele>
        <time>2022-05-24T12:52:42Z</time>
      </trkpt>
      <trkpt lat="46.76095" lon="5.98912">
        <ele>766.6</ele>
        <time>2022-05-24T12:52:43Z</time>
      </trkpt>
      <trkpt lat="46.761" lon="5.98914">
        <ele>766.4</ele>
        <time>2022-05-24T12:52:44Z</time>
      </trkpt>
      <trkpt lat="46.76104" lon="5.98916">
        <ele>766.4</ele>
        <time>2022-05-24T12:52:45Z</time>
      </trkpt>
      <trkpt lat="46.76109" lon="5.98918">
        <ele>766.4</ele>
        <time>2022-05-24T12:52:46Z</time>
      </trkpt>
      <trkpt lat="46.76114" lon="5.9892">
        <ele>766.4</ele>
        <time>2022-05-24T12:52:47Z</time>
      </trkpt>
      <trkpt lat="46.76118" lon="5.98922">
        <ele>766.4</ele>
        <time>2022-05-24T12:52:48Z</time>
      </trkpt>
      <trkpt lat="46.76123" lon="5.98925">
        <ele>766.2</ele>
        <time>2022-05-24T12:52:49Z</time>
      </trkpt>
      <trkpt lat="46.76128" lon="5.98927">
        <ele>766.2</ele>
        <time>2022-05-24T12:52:50Z</time>
      </trkpt>
      <trkpt lat="46.76133" lon="5.9893">
        <ele>765.8</ele>
        <time>2022-05-24T12:52:51Z</time>
      </trkpt>
      <trkpt lat="46.76138" lon="5.98934">
        <ele>765.4</ele>
        <time>2022-05-24T12:52:52Z</time>
      </trkpt>
      <trkpt lat="46.76144" lon="5.98937">
        <ele>765</ele>
        <time>2022-05-24T12:52:53Z</time>
      </trkpt>
      <trkpt lat="46.7615" lon="5.98941">
        <ele>764.8</ele>
        <time>2022-05-24T12:52:54Z</time>
      </trkpt>
      <trkpt lat="46.76157" lon="5.98945">
        <ele>764.4</ele>
        <time>2022-05-24T12:52:55Z</time>
      </trkpt>
      <trkpt lat="46.76164" lon="5.9895">
        <ele>764.2</ele>
        <time>2022-05-24T12:52:56Z</time>
      </trkpt>
      <trkpt lat="46.76171" lon="5.98955">
        <ele>763.8</ele>
        <time>2022-05-24T12:52:57Z</time>
      </trkpt>
      <trkpt lat="46.76179" lon="5.9896">
        <ele>763.8</ele>
        <time>2022-05-24T12:52:58Z</time>
      </trkpt>
      <trkpt lat="46.76186" lon="5.98965">
        <ele>763.4</ele>
        <time>2022-05-24T12:52:59Z</time>
      </trkpt>
      <trkpt lat="46.76194" lon="5.9897">
        <ele>763.4</ele>
        <time>2022-05-24T12:53:00Z</time>
      </trkpt>
      <trkpt lat="46.76201" lon="5.98975">
        <ele>763.2</ele>
        <time>2022-05-24T12:53:01Z</time>
      </trkpt>
      <trkpt lat="46.76209" lon="5.9898">
        <ele>763.2</ele>
        <time>2022-05-24T12:53:02Z</time>
      </trkpt>
      <trkpt lat="46.76217" lon="5.98985">
        <ele>762.8</ele>
        <time>2022-05-24T12:53:03Z</time>
      </trkpt>
      <trkpt lat="46.76225" lon="5.9899">
        <ele>762.8</ele>
        <time>2022-05-24T12:53:04Z</time>
      </trkpt>
      <trkpt lat="46.76233" lon="5.98995">
        <ele>762.6</ele>
        <time>2022-05-24T12:53:05Z</time>
      </trkpt>
      <trkpt lat="46.76241" lon="5.98999">
        <ele>762.4</ele>
        <time>2022-05-24T12:53:06Z</time>
      </trkpt>
      <trkpt lat="46.7625" lon="5.99003">
        <ele>762.4</ele>
        <time>2022-05-24T12:53:07Z</time>
      </trkpt>
      <trkpt lat="46.76258" lon="5.99007">
        <ele>762.2</ele>
        <time>2022-05-24T12:53:08Z</time>
      </trkpt>
      <trkpt lat="46.76267" lon="5.99011">
        <ele>761.8</ele>
        <time>2022-05-24T12:53:09Z</time>
      </trkpt>
      <trkpt lat="46.76275" lon="5.99016">
        <ele>761.8</ele>
        <time>2022-05-24T12:53:10Z</time>
      </trkpt>
      <trkpt lat="46.76282" lon="5.99022">
        <ele>761.4</ele>
        <time>2022-05-24T12:53:11Z</time>
      </trkpt>
      <trkpt lat="46.7629" lon="5.99029">
        <ele>761.4</ele>
        <time>2022-05-24T12:53:12Z</time>
      </trkpt>
      <trkpt lat="46.76296" lon="5.99037">
        <ele>761.2</ele>
        <time>2022-05-24T12:53:13Z</time>
      </trkpt>
      <trkpt lat="46.76302" lon="5.99046">
        <ele>761.2</ele>
        <time>2022-05-24T12:53:14Z</time>
      </trkpt>
      <trkpt lat="46.76308" lon="5.99054">
        <ele>760.8</ele>
        <time>2022-05-24T12:53:15Z</time>
      </trkpt>
      <trkpt lat="46.76314" lon="5.99062">
        <ele>760.8</ele>
        <time>2022-05-24T12:53:16Z</time>
      </trkpt>
      <trkpt lat="46.7632" lon="5.9907">
        <ele>760.8</ele>
        <time>2022-05-24T12:53:17Z</time>
      </trkpt>
      <trkpt lat="46.76327" lon="5.99077">
        <ele>760.8</ele>
        <time>2022-05-24T12:53:18Z</time>
      </trkpt>
      <trkpt lat="46.76333" lon="5.99084">
        <ele>760.6</ele>
        <time>2022-05-24T12:53:19Z</time>
      </trkpt>
      <trkpt lat="46.7634" lon="5.99091">
        <ele>760.6</ele>
        <time>2022-05-24T12:53:20Z</time>
      </trkpt>
      <trkpt lat="46.76346" lon="5.99098">
        <ele>760.4</ele>
        <time>2022-05-24T12:53:21Z</time>
      </trkpt>
      <trkpt lat="46.76352" lon="5.99105">
        <ele>760.4</ele>
        <time>2022-05-24T12:53:22Z</time>
      </trkpt>
      <trkpt lat="46.76359" lon="5.99111">
        <ele>760</ele>
        <time>2022-05-24T12:53:23Z</time>
      </trkpt>
      <trkpt lat="46.76365" lon="5.99118">
        <ele>759.8</ele>
        <time>2022-05-24T12:53:24Z</time>
      </trkpt>
      <trkpt lat="46.76372" lon="5.99125">
        <ele>759.8</ele>
        <time>2022-05-24T12:53:25Z</time>
      </trkpt>
      <trkpt lat="46.7638" lon="5.99132">
        <ele>759.4</ele>
        <time>2022-05-24T12:53:26Z</time>
      </trkpt>
      <trkpt lat="46.76387" lon="5.99139">
        <ele>759</ele>
        <time>2022-05-24T12:53:27Z</time>
      </trkpt>
      <trkpt lat="46.76394" lon="5.99146">
        <ele>758.6</ele>
        <time>2022-05-24T12:53:29Z</time>
      </trkpt>
      <trkpt lat="46.76402" lon="5.99152">
        <ele>758.6</ele>
        <time>2022-05-24T12:53:30Z</time>
      </trkpt>
      <trkpt lat="46.76409" lon="5.99158">
        <ele>758.6</ele>
        <time>2022-05-24T12:53:31Z</time>
      </trkpt>
      <trkpt lat="46.76417" lon="5.99164">
        <ele>758.2</ele>
        <time>2022-05-24T12:53:32Z</time>
      </trkpt>
      <trkpt lat="46.76425" lon="5.99171">
        <ele>758.2</ele>
        <time>2022-05-24T12:53:33Z</time>
      </trkpt>
      <trkpt lat="46.76434" lon="5.99177">
        <ele>758</ele>
        <time>2022-05-24T12:53:34Z</time>
      </trkpt>
      <trkpt lat="46.76442" lon="5.99183">
        <ele>758</ele>
        <time>2022-05-24T12:53:35Z</time>
      </trkpt>
      <trkpt lat="46.76449" lon="5.99189">
        <ele>757.6</ele>
        <time>2022-05-24T12:53:36Z</time>
      </trkpt>
      <trkpt lat="46.76457" lon="5.99196">
        <ele>757.6</ele>
        <time>2022-05-24T12:53:37Z</time>
      </trkpt>
      <trkpt lat="46.76465" lon="5.99202">
        <ele>757.6</ele>
        <time>2022-05-24T12:53:38Z</time>
      </trkpt>
      <trkpt lat="46.76472" lon="5.99208">
        <ele>757.6</ele>
        <time>2022-05-24T12:53:39Z</time>
      </trkpt>
      <trkpt lat="46.76479" lon="5.99213">
        <ele>757.4</ele>
        <time>2022-05-24T12:53:40Z</time>
      </trkpt>
      <trkpt lat="46.76486" lon="5.99219">
        <ele>757.4</ele>
        <time>2022-05-24T12:53:41Z</time>
      </trkpt>
      <trkpt lat="46.76493" lon="5.99225">
        <ele>757.4</ele>
        <time>2022-05-24T12:53:42Z</time>
      </trkpt>
      <trkpt lat="46.765" lon="5.99231">
        <ele>757.4</ele>
        <time>2022-05-24T12:53:43Z</time>
      </trkpt>
      <trkpt lat="46.76507" lon="5.99237">
        <ele>757.4</ele>
        <time>2022-05-24T12:53:44Z</time>
      </trkpt>
      <trkpt lat="46.76513" lon="5.99242">
        <ele>757.4</ele>
        <time>2022-05-24T12:53:45Z</time>
      </trkpt>
      <trkpt lat="46.7652" lon="5.99248">
        <ele>757.4</ele>
        <time>2022-05-24T12:53:46Z</time>
      </trkpt>
      <trkpt lat="46.76526" lon="5.99254">
        <ele>757.4</ele>
        <time>2022-05-24T12:53:47Z</time>
      </trkpt>
      <trkpt lat="46.76532" lon="5.9926">
        <ele>757.6</ele>
        <time>2022-05-24T12:53:48Z</time>
      </trkpt>
      <trkpt lat="46.76539" lon="5.99265">
        <ele>757.6</ele>
        <time>2022-05-24T12:53:49Z</time>
      </trkpt>
      <trkpt lat="46.76544" lon="5.99271">
        <ele>757.8</ele>
        <time>2022-05-24T12:53:50Z</time>
      </trkpt>
      <trkpt lat="46.7655" lon="5.99277">
        <ele>757.8</ele>
        <time>2022-05-24T12:53:51Z</time>
      </trkpt>
      <trkpt lat="46.76556" lon="5.99283">
        <ele>757.8</ele>
        <time>2022-05-24T12:53:52Z</time>
      </trkpt>
      <trkpt lat="46.76563" lon="5.99288">
        <ele>757.8</ele>
        <time>2022-05-24T12:53:53Z</time>
      </trkpt>
      <trkpt lat="46.76569" lon="5.99294">
        <ele>757.8</ele>
        <time>2022-05-24T12:53:54Z</time>
      </trkpt>
      <trkpt lat="46.76576" lon="5.99299">
        <ele>757.8</ele>
        <time>2022-05-24T12:53:55Z</time>
      </trkpt>
      <trkpt lat="46.76583" lon="5.99305">
        <ele>757.8</ele>
        <time>2022-05-24T12:53:56Z</time>
      </trkpt>
      <trkpt lat="46.7659" lon="5.99309">
        <ele>757.8</ele>
        <time>2022-05-24T12:53:57Z</time>
      </trkpt>
      <trkpt lat="46.76596" lon="5.99314">
        <ele>758</ele>
        <time>2022-05-24T12:53:58Z</time>
      </trkpt>
      <trkpt lat="46.76603" lon="5.99319">
        <ele>758</ele>
        <time>2022-05-24T12:53:59Z</time>
      </trkpt>
      <trkpt lat="46.7661" lon="5.99323">
        <ele>758</ele>
        <time>2022-05-24T12:54:00Z</time>
      </trkpt>
      <trkpt lat="46.76617" lon="5.99327">
        <ele>758</ele>
        <time>2022-05-24T12:54:01Z</time>
      </trkpt>
      <trkpt lat="46.76624" lon="5.9933">
        <ele>758</ele>
        <time>2022-05-24T12:54:02Z</time>
      </trkpt>
      <trkpt lat="46.76631" lon="5.99334">
        <ele>758</ele>
        <time>2022-05-24T12:54:03Z</time>
      </trkpt>
      <trkpt lat="46.76637" lon="5.99337">
        <ele>758</ele>
        <time>2022-05-24T12:54:04Z</time>
      </trkpt>
      <trkpt lat="46.76644" lon="5.9934">
        <ele>758</ele>
        <time>2022-05-24T12:54:05Z</time>
      </trkpt>
      <trkpt lat="46.7665" lon="5.99343">
        <ele>758.4</ele>
        <time>2022-05-24T12:54:06Z</time>
      </trkpt>
      <trkpt lat="46.76656" lon="5.99347">
        <ele>758.4</ele>
        <time>2022-05-24T12:54:07Z</time>
      </trkpt>
      <trkpt lat="46.76662" lon="5.9935">
        <ele>758.6</ele>
        <time>2022-05-24T12:54:08Z</time>
      </trkpt>
      <trkpt lat="46.76668" lon="5.99353">
        <ele>758.6</ele>
        <time>2022-05-24T12:54:09Z</time>
      </trkpt>
      <trkpt lat="46.76673" lon="5.99357">
        <ele>759</ele>
        <time>2022-05-24T12:54:10Z</time>
      </trkpt>
      <trkpt lat="46.76679" lon="5.9936">
        <ele>759</ele>
        <time>2022-05-24T12:54:11Z</time>
      </trkpt>
      <trkpt lat="46.76684" lon="5.99363">
        <ele>759.2</ele>
        <time>2022-05-24T12:54:12Z</time>
      </trkpt>
      <trkpt lat="46.76688" lon="5.99367">
        <ele>759.2</ele>
        <time>2022-05-24T12:54:13Z</time>
      </trkpt>
      <trkpt lat="46.76693" lon="5.9937">
        <ele>759.2</ele>
        <time>2022-05-24T12:54:14Z</time>
      </trkpt>
      <trkpt lat="46.76698" lon="5.99374">
        <ele>759.4</ele>
        <time>2022-05-24T12:54:15Z</time>
      </trkpt>
      <trkpt lat="46.76703" lon="5.99377">
        <ele>759.4</ele>
        <time>2022-05-24T12:54:16Z</time>
      </trkpt>
      <trkpt lat="46.76708" lon="5.99381">
        <ele>759.4</ele>
        <time>2022-05-24T12:54:17Z</time>
      </trkpt>
      <trkpt lat="46.76713" lon="5.99385">
        <ele>759.6</ele>
        <time>2022-05-24T12:54:18Z</time>
      </trkpt>
      <trkpt lat="46.76718" lon="5.99389">
        <ele>759.6</ele>
        <time>2022-05-24T12:54:19Z</time>
      </trkpt>
      <trkpt lat="46.76723" lon="5.99392">
        <ele>759.6</ele>
        <time>2022-05-24T12:54:20Z</time>
      </trkpt>
      <trkpt lat="46.76728" lon="5.99396">
        <ele>759.6</ele>
        <time>2022-05-24T12:54:21Z</time>
      </trkpt>
      <trkpt lat="46.76734" lon="5.99398">
        <ele>759.6</ele>
        <time>2022-05-24T12:54:22Z</time>
      </trkpt>
      <trkpt lat="46.76739" lon="5.99401">
        <ele>759.6</ele>
        <time>2022-05-24T12:54:23Z</time>
      </trkpt>
      <trkpt lat="46.7675" lon="5.99405">
        <ele>759.6</ele>
        <time>2022-05-24T12:54:24Z</time>
      </trkpt>
      <trkpt lat="46.76755" lon="5.99406">
        <ele>759.6</ele>
        <time>2022-05-24T12:54:25Z</time>
      </trkpt>
      <trkpt lat="46.76759" lon="5.99407">
        <ele>759.6</ele>
        <time>2022-05-24T12:54:26Z</time>
      </trkpt>
      <trkpt lat="46.76762" lon="5.9941">
        <ele>759.6</ele>
        <time>2022-05-24T12:54:27Z</time>
      </trkpt>
      <trkpt lat="46.76764" lon="5.99415">
        <ele>759.6</ele>
        <time>2022-05-24T12:54:28Z</time>
      </trkpt>
      <trkpt lat="46.76764" lon="5.9942">
        <ele>759.6</ele>
        <time>2022-05-24T12:54:29Z</time>
      </trkpt>
      <trkpt lat="46.76762" lon="5.99425">
        <ele>759.4</ele>
        <time>2022-05-24T12:54:30Z</time>
      </trkpt>
      <trkpt lat="46.76759" lon="5.9943">
        <ele>759.4</ele>
        <time>2022-05-24T12:54:31Z</time>
      </trkpt>
      <trkpt lat="46.76757" lon="5.99435">
        <ele>759.2</ele>
        <time>2022-05-24T12:54:32Z</time>
      </trkpt>
      <trkpt lat="46.76755" lon="5.99442">
        <ele>759.2</ele>
        <time>2022-05-24T12:54:33Z</time>
      </trkpt>
      <trkpt lat="46.76755" lon="5.99448">
        <ele>759.2</ele>
        <time>2022-05-24T12:54:34Z</time>
      </trkpt>
      <trkpt lat="46.76757" lon="5.99454">
        <ele>759.2</ele>
        <time>2022-05-24T12:54:35Z</time>
      </trkpt>
      <trkpt lat="46.76759" lon="5.99459">
        <ele>759</ele>
        <time>2022-05-24T12:54:36Z</time>
      </trkpt>
      <trkpt lat="46.76762" lon="5.99464">
        <ele>759</ele>
        <time>2022-05-24T12:54:37Z</time>
      </trkpt>
      <trkpt lat="46.76765" lon="5.99469">
        <ele>759</ele>
        <time>2022-05-24T12:54:38Z</time>
      </trkpt>
      <trkpt lat="46.76769" lon="5.99474">
        <ele>759</ele>
        <time>2022-05-24T12:54:39Z</time>
      </trkpt>
      <trkpt lat="46.76772" lon="5.99479">
        <ele>759</ele>
        <time>2022-05-24T12:54:40Z</time>
      </trkpt>
      <trkpt lat="46.76776" lon="5.99485">
        <ele>759</ele>
        <time>2022-05-24T12:54:41Z</time>
      </trkpt>
      <trkpt lat="46.7678" lon="5.9949">
        <ele>759.2</ele>
        <time>2022-05-24T12:54:42Z</time>
      </trkpt>
      <trkpt lat="46.76784" lon="5.99495">
        <ele>759.2</ele>
        <time>2022-05-24T12:54:43Z</time>
      </trkpt>
      <trkpt lat="46.76789" lon="5.995">
        <ele>759.4</ele>
        <time>2022-05-24T12:54:44Z</time>
      </trkpt>
      <trkpt lat="46.76793" lon="5.99504">
        <ele>759.4</ele>
        <time>2022-05-24T12:54:45Z</time>
      </trkpt>
      <trkpt lat="46.76797" lon="5.99509">
        <ele>759.8</ele>
        <time>2022-05-24T12:54:46Z</time>
      </trkpt>
      <trkpt lat="46.76801" lon="5.99513">
        <ele>759.8</ele>
        <time>2022-05-24T12:54:47Z</time>
      </trkpt>
      <trkpt lat="46.76804" lon="5.99517">
        <ele>760.2</ele>
        <time>2022-05-24T12:54:48Z</time>
      </trkpt>
      <trkpt lat="46.76808" lon="5.99521">
        <ele>760.2</ele>
        <time>2022-05-24T12:54:49Z</time>
      </trkpt>
      <trkpt lat="46.76811" lon="5.99525">
        <ele>760.2</ele>
        <time>2022-05-24T12:54:50Z</time>
      </trkpt>
      <trkpt lat="46.76815" lon="5.99529">
        <ele>760.4</ele>
        <time>2022-05-24T12:54:51Z</time>
      </trkpt>
      <trkpt lat="46.76819" lon="5.99533">
        <ele>760.4</ele>
        <time>2022-05-24T12:54:52Z</time>
      </trkpt>
      <trkpt lat="46.76819" lon="5.99533">
        <ele>760.8</ele>
        <time>2022-05-24T12:54:53Z</time>
      </trkpt>
      <trkpt lat="46.76822" lon="5.99537">
        <ele>760.8</ele>
        <time>2022-05-24T12:54:54Z</time>
      </trkpt>
      <trkpt lat="46.76826" lon="5.9954">
        <ele>761</ele>
        <time>2022-05-24T12:54:55Z</time>
      </trkpt>
      <trkpt lat="46.7683" lon="5.99543">
        <ele>761</ele>
        <time>2022-05-24T12:54:56Z</time>
      </trkpt>
      <trkpt lat="46.76834" lon="5.99546">
        <ele>761</ele>
        <time>2022-05-24T12:54:57Z</time>
      </trkpt>
      <trkpt lat="46.76837" lon="5.99549">
        <ele>761.2</ele>
        <time>2022-05-24T12:54:58Z</time>
      </trkpt>
      <trkpt lat="46.76841" lon="5.99552">
        <ele>761.2</ele>
        <time>2022-05-24T12:54:59Z</time>
      </trkpt>
      <trkpt lat="46.76845" lon="5.99555">
        <ele>761.2</ele>
        <time>2022-05-24T12:55:00Z</time>
      </trkpt>
      <trkpt lat="46.7685" lon="5.99558">
        <ele>761.2</ele>
        <time>2022-05-24T12:55:01Z</time>
      </trkpt>
      <trkpt lat="46.76854" lon="5.99562">
        <ele>761.2</ele>
        <time>2022-05-24T12:55:02Z</time>
      </trkpt>
      <trkpt lat="46.76859" lon="5.99565">
        <ele>761.2</ele>
        <time>2022-05-24T12:55:03Z</time>
      </trkpt>
      <trkpt lat="46.76865" lon="5.9957">
        <ele>760.8</ele>
        <time>2022-05-24T12:55:04Z</time>
      </trkpt>
      <trkpt lat="46.7687" lon="5.99575">
        <ele>760.6</ele>
        <time>2022-05-24T12:55:05Z</time>
      </trkpt>
      <trkpt lat="46.76876" lon="5.99581">
        <ele>760.2</ele>
        <time>2022-05-24T12:55:06Z</time>
      </trkpt>
      <trkpt lat="46.76882" lon="5.99587">
        <ele>760</ele>
        <time>2022-05-24T12:55:07Z</time>
      </trkpt>
      <trkpt lat="46.76894" lon="5.996">
        <ele>759.4</ele>
        <time>2022-05-24T12:55:08Z</time>
      </trkpt>
      <trkpt lat="46.76899" lon="5.99607">
        <ele>759</ele>
        <time>2022-05-24T12:55:10Z</time>
      </trkpt>
      <trkpt lat="46.76905" lon="5.99614">
        <ele>758.8</ele>
        <time>2022-05-24T12:55:11Z</time>
      </trkpt>
      <trkpt lat="46.76911" lon="5.9962">
        <ele>758.8</ele>
        <time>2022-05-24T12:55:12Z</time>
      </trkpt>
      <trkpt lat="46.76917" lon="5.99626">
        <ele>758.4</ele>
        <time>2022-05-24T12:55:13Z</time>
      </trkpt>
      <trkpt lat="46.76922" lon="5.99633">
        <ele>758</ele>
        <time>2022-05-24T12:55:14Z</time>
      </trkpt>
      <trkpt lat="46.76926" lon="5.99642">
        <ele>757.8</ele>
        <time>2022-05-24T12:55:15Z</time>
      </trkpt>
      <trkpt lat="46.76929" lon="5.99651">
        <ele>757.6</ele>
        <time>2022-05-24T12:55:16Z</time>
      </trkpt>
      <trkpt lat="46.76931" lon="5.99661">
        <ele>757.6</ele>
        <time>2022-05-24T12:55:17Z</time>
      </trkpt>
      <trkpt lat="46.76933" lon="5.99671">
        <ele>757.2</ele>
        <time>2022-05-24T12:55:18Z</time>
      </trkpt>
      <trkpt lat="46.76934" lon="5.99681">
        <ele>757.2</ele>
        <time>2022-05-24T12:55:19Z</time>
      </trkpt>
      <trkpt lat="46.76936" lon="5.9969">
        <ele>757</ele>
        <time>2022-05-24T12:55:20Z</time>
      </trkpt>
      <trkpt lat="46.76937" lon="5.997">
        <ele>757</ele>
        <time>2022-05-24T12:55:21Z</time>
      </trkpt>
      <trkpt lat="46.76939" lon="5.9971">
        <ele>756.8</ele>
        <time>2022-05-24T12:55:22Z</time>
      </trkpt>
      <trkpt lat="46.76941" lon="5.9972">
        <ele>756.8</ele>
        <time>2022-05-24T12:55:23Z</time>
      </trkpt>
      <trkpt lat="46.76942" lon="5.99731">
        <ele>756.4</ele>
        <time>2022-05-24T12:55:24Z</time>
      </trkpt>
      <trkpt lat="46.76944" lon="5.99742">
        <ele>756.2</ele>
        <time>2022-05-24T12:55:25Z</time>
      </trkpt>
      <trkpt lat="46.76945" lon="5.99752">
        <ele>756.2</ele>
        <time>2022-05-24T12:55:26Z</time>
      </trkpt>
      <trkpt lat="46.76946" lon="5.99764">
        <ele>756.2</ele>
        <time>2022-05-24T12:55:27Z</time>
      </trkpt>
      <trkpt lat="46.76948" lon="5.99775">
        <ele>755.8</ele>
        <time>2022-05-24T12:55:28Z</time>
      </trkpt>
      <trkpt lat="46.76949" lon="5.99787">
        <ele>755.8</ele>
        <time>2022-05-24T12:55:29Z</time>
      </trkpt>
      <trkpt lat="46.76951" lon="5.99799">
        <ele>755.4</ele>
        <time>2022-05-24T12:55:30Z</time>
      </trkpt>
      <trkpt lat="46.76953" lon="5.99811">
        <ele>755</ele>
        <time>2022-05-24T12:55:31Z</time>
      </trkpt>
      <trkpt lat="46.76955" lon="5.99824">
        <ele>754.8</ele>
        <time>2022-05-24T12:55:32Z</time>
      </trkpt>
      <trkpt lat="46.76957" lon="5.99839">
        <ele>754.4</ele>
        <time>2022-05-24T12:55:33Z</time>
      </trkpt>
      <trkpt lat="46.76959" lon="5.99853">
        <ele>754.2</ele>
        <time>2022-05-24T12:55:34Z</time>
      </trkpt>
      <trkpt lat="46.76961" lon="5.99867">
        <ele>753.6</ele>
        <time>2022-05-24T12:55:35Z</time>
      </trkpt>
      <trkpt lat="46.76962" lon="5.99882">
        <ele>753.2</ele>
        <time>2022-05-24T12:55:36Z</time>
      </trkpt>
      <trkpt lat="46.76962" lon="5.99896">
        <ele>752.6</ele>
        <time>2022-05-24T12:55:37Z</time>
      </trkpt>
      <trkpt lat="46.76963" lon="5.99911">
        <ele>752</ele>
        <time>2022-05-24T12:55:38Z</time>
      </trkpt>
      <trkpt lat="46.76963" lon="5.99926">
        <ele>751.2</ele>
        <time>2022-05-24T12:55:39Z</time>
      </trkpt>
      <trkpt lat="46.76963" lon="5.99941">
        <ele>750.8</ele>
        <time>2022-05-24T12:55:40Z</time>
      </trkpt>
      <trkpt lat="46.76963" lon="5.99955">
        <ele>750</ele>
        <time>2022-05-24T12:55:41Z</time>
      </trkpt>
      <trkpt lat="46.76968" lon="5.99982">
        <ele>749.4</ele>
        <time>2022-05-24T12:55:42Z</time>
      </trkpt>
      <trkpt lat="46.76973" lon="5.99995">
        <ele>748.8</ele>
        <time>2022-05-24T12:55:43Z</time>
      </trkpt>
      <trkpt lat="46.76979" lon="6.00008">
        <ele>748.4</ele>
        <time>2022-05-24T12:55:44Z</time>
      </trkpt>
      <trkpt lat="46.76986" lon="6.00019">
        <ele>748</ele>
        <time>2022-05-24T12:55:45Z</time>
      </trkpt>
      <trkpt lat="46.76995" lon="6.00029">
        <ele>747.4</ele>
        <time>2022-05-24T12:55:46Z</time>
      </trkpt>
      <trkpt lat="46.77004" lon="6.00038">
        <ele>747</ele>
        <time>2022-05-24T12:55:47Z</time>
      </trkpt>
      <trkpt lat="46.77013" lon="6.00046">
        <ele>746.6</ele>
        <time>2022-05-24T12:55:48Z</time>
      </trkpt>
      <trkpt lat="46.77022" lon="6.00054">
        <ele>746.2</ele>
        <time>2022-05-24T12:55:49Z</time>
      </trkpt>
      <trkpt lat="46.77031" lon="6.00062">
        <ele>745.8</ele>
        <time>2022-05-24T12:55:50Z</time>
      </trkpt>
      <trkpt lat="46.7704" lon="6.00071">
        <ele>745.2</ele>
        <time>2022-05-24T12:55:51Z</time>
      </trkpt>
      <trkpt lat="46.77048" lon="6.00078">
        <ele>744.6</ele>
        <time>2022-05-24T12:55:52Z</time>
      </trkpt>
      <trkpt lat="46.77058" lon="6.00085">
        <ele>744</ele>
        <time>2022-05-24T12:55:53Z</time>
      </trkpt>
      <trkpt lat="46.77068" lon="6.0009">
        <ele>743.8</ele>
        <time>2022-05-24T12:55:54Z</time>
      </trkpt>
      <trkpt lat="46.77078" lon="6.00094">
        <ele>743.4</ele>
        <time>2022-05-24T12:55:55Z</time>
      </trkpt>
      <trkpt lat="46.77089" lon="6.00096">
        <ele>743.2</ele>
        <time>2022-05-24T12:55:56Z</time>
      </trkpt>
      <trkpt lat="46.771" lon="6.00098">
        <ele>743</ele>
        <time>2022-05-24T12:55:57Z</time>
      </trkpt>
      <trkpt lat="46.7711" lon="6.00099">
        <ele>743</ele>
        <time>2022-05-24T12:55:58Z</time>
      </trkpt>
      <trkpt lat="46.7712" lon="6.00098">
        <ele>742.4</ele>
        <time>2022-05-24T12:55:59Z</time>
      </trkpt>
      <trkpt lat="46.77129" lon="6.00097">
        <ele>742</ele>
        <time>2022-05-24T12:56:00Z</time>
      </trkpt>
      <trkpt lat="46.77139" lon="6.00096">
        <ele>741.6</ele>
        <time>2022-05-24T12:56:01Z</time>
      </trkpt>
      <trkpt lat="46.77149" lon="6.00095">
        <ele>741</ele>
        <time>2022-05-24T12:56:02Z</time>
      </trkpt>
      <trkpt lat="46.77159" lon="6.00094">
        <ele>740.2</ele>
        <time>2022-05-24T12:56:03Z</time>
      </trkpt>
      <trkpt lat="46.77169" lon="6.00093">
        <ele>739.6</ele>
        <time>2022-05-24T12:56:04Z</time>
      </trkpt>
      <trkpt lat="46.7718" lon="6.0009">
        <ele>738.8</ele>
        <time>2022-05-24T12:56:05Z</time>
      </trkpt>
      <trkpt lat="46.77191" lon="6.00089">
        <ele>738</ele>
        <time>2022-05-24T12:56:06Z</time>
      </trkpt>
      <trkpt lat="46.77203" lon="6.00088">
        <ele>737.6</ele>
        <time>2022-05-24T12:56:07Z</time>
      </trkpt>
      <trkpt lat="46.77215" lon="6.00087">
        <ele>737</ele>
        <time>2022-05-24T12:56:08Z</time>
      </trkpt>
      <trkpt lat="46.77227" lon="6.00085">
        <ele>736.4</ele>
        <time>2022-05-24T12:56:09Z</time>
      </trkpt>
      <trkpt lat="46.77239" lon="6.00082">
        <ele>735.2</ele>
        <time>2022-05-24T12:56:10Z</time>
      </trkpt>
      <trkpt lat="46.77252" lon="6.0008">
        <ele>734.4</ele>
        <time>2022-05-24T12:56:11Z</time>
      </trkpt>
      <trkpt lat="46.77264" lon="6.00079">
        <ele>733.6</ele>
        <time>2022-05-24T12:56:12Z</time>
      </trkpt>
      <trkpt lat="46.77276" lon="6.00082">
        <ele>732.4</ele>
        <time>2022-05-24T12:56:13Z</time>
      </trkpt>
      <trkpt lat="46.77287" lon="6.00084">
        <ele>731.2</ele>
        <time>2022-05-24T12:56:14Z</time>
      </trkpt>
      <trkpt lat="46.77297" lon="6.00087">
        <ele>730.2</ele>
        <time>2022-05-24T12:56:15Z</time>
      </trkpt>
      <trkpt lat="46.77304" lon="6.0009">
        <ele>729.4</ele>
        <time>2022-05-24T12:56:16Z</time>
      </trkpt>
      <trkpt lat="46.77312" lon="6.00092">
        <ele>728.6</ele>
        <time>2022-05-24T12:56:17Z</time>
      </trkpt>
      <trkpt lat="46.7732" lon="6.00097">
        <ele>727.8</ele>
        <time>2022-05-24T12:56:18Z</time>
      </trkpt>
      <trkpt lat="46.77328" lon="6.00103">
        <ele>727.2</ele>
        <time>2022-05-24T12:56:19Z</time>
      </trkpt>
      <trkpt lat="46.77335" lon="6.0011">
        <ele>726.8</ele>
        <time>2022-05-24T12:56:20Z</time>
      </trkpt>
      <trkpt lat="46.77342" lon="6.00118">
        <ele>726.4</ele>
        <time>2022-05-24T12:56:21Z</time>
      </trkpt>
      <trkpt lat="46.77348" lon="6.00126">
        <ele>726</ele>
        <time>2022-05-24T12:56:22Z</time>
      </trkpt>
      <trkpt lat="46.77355" lon="6.00135">
        <ele>725.8</ele>
        <time>2022-05-24T12:56:23Z</time>
      </trkpt>
      <trkpt lat="46.77361" lon="6.00143">
        <ele>725.8</ele>
        <time>2022-05-24T12:56:24Z</time>
      </trkpt>
      <trkpt lat="46.77368" lon="6.00151">
        <ele>725.4</ele>
        <time>2022-05-24T12:56:25Z</time>
      </trkpt>
      <trkpt lat="46.77374" lon="6.00157">
        <ele>725.4</ele>
        <time>2022-05-24T12:56:26Z</time>
      </trkpt>
      <trkpt lat="46.77381" lon="6.00163">
        <ele>725.4</ele>
        <time>2022-05-24T12:56:27Z</time>
      </trkpt>
      <trkpt lat="46.77388" lon="6.00169">
        <ele>725.4</ele>
        <time>2022-05-24T12:56:28Z</time>
      </trkpt>
      <trkpt lat="46.77394" lon="6.00173">
        <ele>725.4</ele>
        <time>2022-05-24T12:56:29Z</time>
      </trkpt>
      <trkpt lat="46.77401" lon="6.00177">
        <ele>725.4</ele>
        <time>2022-05-24T12:56:30Z</time>
      </trkpt>
      <trkpt lat="46.77407" lon="6.00181">
        <ele>725.4</ele>
        <time>2022-05-24T12:56:31Z</time>
      </trkpt>
      <trkpt lat="46.77414" lon="6.00185">
        <ele>725.4</ele>
        <time>2022-05-24T12:56:32Z</time>
      </trkpt>
      <trkpt lat="46.7742" lon="6.00189">
        <ele>725.4</ele>
        <time>2022-05-24T12:56:33Z</time>
      </trkpt>
      <trkpt lat="46.77426" lon="6.00193">
        <ele>725.4</ele>
        <time>2022-05-24T12:56:34Z</time>
      </trkpt>
      <trkpt lat="46.77431" lon="6.00197">
        <ele>725.4</ele>
        <time>2022-05-24T12:56:35Z</time>
      </trkpt>
      <trkpt lat="46.77436" lon="6.00201">
        <ele>725.4</ele>
        <time>2022-05-24T12:56:36Z</time>
      </trkpt>
      <trkpt lat="46.77441" lon="6.00205">
        <ele>725.6</ele>
        <time>2022-05-24T12:56:37Z</time>
      </trkpt>
      <trkpt lat="46.77446" lon="6.00209">
        <ele>725.6</ele>
        <time>2022-05-24T12:56:38Z</time>
      </trkpt>
      <trkpt lat="46.7745" lon="6.00212">
        <ele>726</ele>
        <time>2022-05-24T12:56:39Z</time>
      </trkpt>
      <trkpt lat="46.77455" lon="6.00215">
        <ele>726</ele>
        <time>2022-05-24T12:56:40Z</time>
      </trkpt>
      <trkpt lat="46.77459" lon="6.00216">
        <ele>726.4</ele>
        <time>2022-05-24T12:56:41Z</time>
      </trkpt>
      <trkpt lat="46.77463" lon="6.00218">
        <ele>726.6</ele>
        <time>2022-05-24T12:56:42Z</time>
      </trkpt>
      <trkpt lat="46.77466" lon="6.0022">
        <ele>726.8</ele>
        <time>2022-05-24T12:56:43Z</time>
      </trkpt>
      <trkpt lat="46.77469" lon="6.00221">
        <ele>727.2</ele>
        <time>2022-05-24T12:56:44Z</time>
      </trkpt>
      <trkpt lat="46.77472" lon="6.00222">
        <ele>727.4</ele>
        <time>2022-05-24T12:56:45Z</time>
      </trkpt>
      <trkpt lat="46.77475" lon="6.00224">
        <ele>727.8</ele>
        <time>2022-05-24T12:56:46Z</time>
      </trkpt>
      <trkpt lat="46.77477" lon="6.00226">
        <ele>728</ele>
        <time>2022-05-24T12:56:47Z</time>
      </trkpt>
      <trkpt lat="46.77479" lon="6.00228">
        <ele>728.4</ele>
        <time>2022-05-24T12:56:48Z</time>
      </trkpt>
      <trkpt lat="46.77481" lon="6.00231">
        <ele>728.6</ele>
        <time>2022-05-24T12:56:49Z</time>
      </trkpt>
      <trkpt lat="46.77483" lon="6.00233">
        <ele>729</ele>
        <time>2022-05-24T12:56:50Z</time>
      </trkpt>
      <trkpt lat="46.77485" lon="6.00235">
        <ele>729.2</ele>
        <time>2022-05-24T12:56:51Z</time>
      </trkpt>
      <trkpt lat="46.77487" lon="6.00238">
        <ele>729.4</ele>
        <time>2022-05-24T12:56:52Z</time>
      </trkpt>
      <trkpt lat="46.77489" lon="6.00239">
        <ele>729.8</ele>
        <time>2022-05-24T12:56:53Z</time>
      </trkpt>
      <trkpt lat="46.77491" lon="6.00241">
        <ele>730.2</ele>
        <time>2022-05-24T12:56:54Z</time>
      </trkpt>
      <trkpt lat="46.77493" lon="6.00244">
        <ele>730.4</ele>
        <time>2022-05-24T12:56:55Z</time>
      </trkpt>
      <trkpt lat="46.77495" lon="6.00247">
        <ele>730.8</ele>
        <time>2022-05-24T12:56:56Z</time>
      </trkpt>
      <trkpt lat="46.77496" lon="6.0025">
        <ele>731.2</ele>
        <time>2022-05-24T12:56:57Z</time>
      </trkpt>
      <trkpt lat="46.77499" lon="6.00253">
        <ele>731.4</ele>
        <time>2022-05-24T12:56:58Z</time>
      </trkpt>
      <trkpt lat="46.77501" lon="6.00255">
        <ele>731.8</ele>
        <time>2022-05-24T12:56:59Z</time>
      </trkpt>
      <trkpt lat="46.77502" lon="6.00258">
        <ele>732.2</ele>
        <time>2022-05-24T12:57:00Z</time>
      </trkpt>
      <trkpt lat="46.77504" lon="6.00261">
        <ele>732.4</ele>
        <time>2022-05-24T12:57:01Z</time>
      </trkpt>
      <trkpt lat="46.77506" lon="6.00263">
        <ele>732.8</ele>
        <time>2022-05-24T12:57:02Z</time>
      </trkpt>
      <trkpt lat="46.77509" lon="6.00265">
        <ele>733.2</ele>
        <time>2022-05-24T12:57:03Z</time>
      </trkpt>
      <trkpt lat="46.77511" lon="6.00267">
        <ele>733.6</ele>
        <time>2022-05-24T12:57:04Z</time>
      </trkpt>
      <trkpt lat="46.77513" lon="6.0027">
        <ele>733.8</ele>
        <time>2022-05-24T12:57:05Z</time>
      </trkpt>
      <trkpt lat="46.77515" lon="6.00273">
        <ele>734.2</ele>
        <time>2022-05-24T12:57:06Z</time>
      </trkpt>
      <trkpt lat="46.77516" lon="6.00275">
        <ele>734.4</ele>
        <time>2022-05-24T12:57:07Z</time>
      </trkpt>
      <trkpt lat="46.77518" lon="6.00278">
        <ele>734.8</ele>
        <time>2022-05-24T12:57:08Z</time>
      </trkpt>
      <trkpt lat="46.7752" lon="6.00281">
        <ele>735</ele>
        <time>2022-05-24T12:57:09Z</time>
      </trkpt>
      <trkpt lat="46.77522" lon="6.00284">
        <ele>735.2</ele>
        <time>2022-05-24T12:57:10Z</time>
      </trkpt>
      <trkpt lat="46.77524" lon="6.00287">
        <ele>735.6</ele>
        <time>2022-05-24T12:57:11Z</time>
      </trkpt>
      <trkpt lat="46.77526" lon="6.00289">
        <ele>736</ele>
        <time>2022-05-24T12:57:12Z</time>
      </trkpt>
      <trkpt lat="46.77528" lon="6.00292">
        <ele>736.2</ele>
        <time>2022-05-24T12:57:13Z</time>
      </trkpt>
      <trkpt lat="46.7753" lon="6.00295">
        <ele>736.4</ele>
        <time>2022-05-24T12:57:14Z</time>
      </trkpt>
      <trkpt lat="46.77532" lon="6.00297">
        <ele>736.8</ele>
        <time>2022-05-24T12:57:15Z</time>
      </trkpt>
      <trkpt lat="46.77534" lon="6.00299">
        <ele>737</ele>
        <time>2022-05-24T12:57:16Z</time>
      </trkpt>
      <trkpt lat="46.77536" lon="6.00301">
        <ele>737.4</ele>
        <time>2022-05-24T12:57:17Z</time>
      </trkpt>
      <trkpt lat="46.77538" lon="6.00304">
        <ele>737.6</ele>
        <time>2022-05-24T12:57:18Z</time>
      </trkpt>
      <trkpt lat="46.7754" lon="6.00307">
        <ele>738</ele>
        <time>2022-05-24T12:57:19Z</time>
      </trkpt>
      <trkpt lat="46.77542" lon="6.00309">
        <ele>738.4</ele>
        <time>2022-05-24T12:57:20Z</time>
      </trkpt>
      <trkpt lat="46.77544" lon="6.00312">
        <ele>738.6</ele>
        <time>2022-05-24T12:57:21Z</time>
      </trkpt>
      <trkpt lat="46.77544" lon="6.00312">
        <ele>739</ele>
        <time>2022-05-24T12:57:22Z</time>
      </trkpt>
      <trkpt lat="46.77545" lon="6.00315">
        <ele>739.2</ele>
        <time>2022-05-24T12:57:23Z</time>
      </trkpt>
      <trkpt lat="46.77547" lon="6.00318">
        <ele>739.6</ele>
        <time>2022-05-24T12:57:24Z</time>
      </trkpt>
      <trkpt lat="46.77548" lon="6.00321">
        <ele>739.8</ele>
        <time>2022-05-24T12:57:25Z</time>
      </trkpt>
      <trkpt lat="46.77549" lon="6.00323">
        <ele>740.2</ele>
        <time>2022-05-24T12:57:26Z</time>
      </trkpt>
      <trkpt lat="46.7755" lon="6.00325">
        <ele>740.4</ele>
        <time>2022-05-24T12:57:27Z</time>
      </trkpt>
      <trkpt lat="46.77551" lon="6.00327">
        <ele>740.8</ele>
        <time>2022-05-24T12:57:28Z</time>
      </trkpt>
      <trkpt lat="46.77552" lon="6.00329">
        <ele>741</ele>
        <time>2022-05-24T12:57:29Z</time>
      </trkpt>
      <trkpt lat="46.77554" lon="6.00331">
        <ele>741.2</ele>
        <time>2022-05-24T12:57:30Z</time>
      </trkpt>
      <trkpt lat="46.77555" lon="6.00333">
        <ele>741.2</ele>
        <time>2022-05-24T12:57:31Z</time>
      </trkpt>
      <trkpt lat="46.77556" lon="6.00335">
        <ele>741.6</ele>
        <time>2022-05-24T12:57:32Z</time>
      </trkpt>
      <trkpt lat="46.77557" lon="6.00337">
        <ele>741.8</ele>
        <time>2022-05-24T12:57:33Z</time>
      </trkpt>
      <trkpt lat="46.77558" lon="6.00339">
        <ele>742</ele>
        <time>2022-05-24T12:57:34Z</time>
      </trkpt>
      <trkpt lat="46.77559" lon="6.00341">
        <ele>742</ele>
        <time>2022-05-24T12:57:35Z</time>
      </trkpt>
      <trkpt lat="46.7756" lon="6.00343">
        <ele>742.2</ele>
        <time>2022-05-24T12:57:36Z</time>
      </trkpt>
      <trkpt lat="46.77561" lon="6.00345">
        <ele>742.6</ele>
        <time>2022-05-24T12:57:37Z</time>
      </trkpt>
      <trkpt lat="46.77562" lon="6.00347">
        <ele>742.8</ele>
        <time>2022-05-24T12:57:38Z</time>
      </trkpt>
      <trkpt lat="46.77563" lon="6.00349">
        <ele>743</ele>
        <time>2022-05-24T12:57:39Z</time>
      </trkpt>
      <trkpt lat="46.77564" lon="6.00351">
        <ele>743.4</ele>
        <time>2022-05-24T12:57:40Z</time>
      </trkpt>
      <trkpt lat="46.77565" lon="6.00353">
        <ele>743.4</ele>
        <time>2022-05-24T12:57:41Z</time>
      </trkpt>
      <trkpt lat="46.77566" lon="6.00355">
        <ele>743.6</ele>
        <time>2022-05-24T12:57:42Z</time>
      </trkpt>
      <trkpt lat="46.77567" lon="6.00357">
        <ele>743.6</ele>
        <time>2022-05-24T12:57:43Z</time>
      </trkpt>
      <trkpt lat="46.77568" lon="6.00359">
        <ele>744</ele>
        <time>2022-05-24T12:57:44Z</time>
      </trkpt>
      <trkpt lat="46.77569" lon="6.00361">
        <ele>744.2</ele>
        <time>2022-05-24T12:57:45Z</time>
      </trkpt>
      <trkpt lat="46.7757" lon="6.00364">
        <ele>744.2</ele>
        <time>2022-05-24T12:57:46Z</time>
      </trkpt>
      <trkpt lat="46.7757" lon="6.00366">
        <ele>744.8</ele>
        <time>2022-05-24T12:57:47Z</time>
      </trkpt>
      <trkpt lat="46.77571" lon="6.00368">
        <ele>745</ele>
        <time>2022-05-24T12:57:48Z</time>
      </trkpt>
      <trkpt lat="46.77572" lon="6.0037">
        <ele>745</ele>
        <time>2022-05-24T12:57:49Z</time>
      </trkpt>
      <trkpt lat="46.77573" lon="6.00373">
        <ele>745.2</ele>
        <time>2022-05-24T12:57:50Z</time>
      </trkpt>
      <trkpt lat="46.77574" lon="6.00375">
        <ele>745.6</ele>
        <time>2022-05-24T12:57:51Z</time>
      </trkpt>
      <trkpt lat="46.77575" lon="6.00377">
        <ele>745.8</ele>
        <time>2022-05-24T12:57:52Z</time>
      </trkpt>
      <trkpt lat="46.77576" lon="6.00379">
        <ele>745.8</ele>
        <time>2022-05-24T12:57:53Z</time>
      </trkpt>
      <trkpt lat="46.77577" lon="6.00381">
        <ele>746</ele>
        <time>2022-05-24T12:57:54Z</time>
      </trkpt>
      <trkpt lat="46.77578" lon="6.00383">
        <ele>746.4</ele>
        <time>2022-05-24T12:57:55Z</time>
      </trkpt>
      <trkpt lat="46.77579" lon="6.00385">
        <ele>746.4</ele>
        <time>2022-05-24T12:57:56Z</time>
      </trkpt>
      <trkpt lat="46.7758" lon="6.00388">
        <ele>747</ele>
        <time>2022-05-24T12:57:57Z</time>
      </trkpt>
      <trkpt lat="46.7758" lon="6.0039">
        <ele>747.2</ele>
        <time>2022-05-24T12:57:58Z</time>
      </trkpt>
      <trkpt lat="46.77581" lon="6.00393">
        <ele>747.2</ele>
        <time>2022-05-24T12:57:59Z</time>
      </trkpt>
      <trkpt lat="46.77582" lon="6.00395">
        <ele>747.6</ele>
        <time>2022-05-24T12:58:00Z</time>
      </trkpt>
      <trkpt lat="46.77583" lon="6.00397">
        <ele>747.8</ele>
        <time>2022-05-24T12:58:01Z</time>
      </trkpt>
      <trkpt lat="46.77584" lon="6.004">
        <ele>748</ele>
        <time>2022-05-24T12:58:02Z</time>
      </trkpt>
      <trkpt lat="46.77585" lon="6.00402">
        <ele>748.2</ele>
        <time>2022-05-24T12:58:03Z</time>
      </trkpt>
      <trkpt lat="46.77586" lon="6.00405">
        <ele>748.2</ele>
        <time>2022-05-24T12:58:04Z</time>
      </trkpt>
      <trkpt lat="46.77587" lon="6.00407">
        <ele>748.8</ele>
        <time>2022-05-24T12:58:05Z</time>
      </trkpt>
      <trkpt lat="46.77588" lon="6.0041">
        <ele>749</ele>
        <time>2022-05-24T12:58:06Z</time>
      </trkpt>
      <trkpt lat="46.77589" lon="6.00412">
        <ele>749.2</ele>
        <time>2022-05-24T12:58:07Z</time>
      </trkpt>
      <trkpt lat="46.77591" lon="6.00415">
        <ele>749.4</ele>
        <time>2022-05-24T12:58:08Z</time>
      </trkpt>
      <trkpt lat="46.77592" lon="6.00417">
        <ele>749.8</ele>
        <time>2022-05-24T12:58:09Z</time>
      </trkpt>
      <trkpt lat="46.77593" lon="6.00419">
        <ele>750</ele>
        <time>2022-05-24T12:58:10Z</time>
      </trkpt>
      <trkpt lat="46.77594" lon="6.00422">
        <ele>750.2</ele>
        <time>2022-05-24T12:58:11Z</time>
      </trkpt>
      <trkpt lat="46.77595" lon="6.00424">
        <ele>750.2</ele>
        <time>2022-05-24T12:58:12Z</time>
      </trkpt>
      <trkpt lat="46.77596" lon="6.00426">
        <ele>750.6</ele>
        <time>2022-05-24T12:58:13Z</time>
      </trkpt>
      <trkpt lat="46.77597" lon="6.00428">
        <ele>750.8</ele>
        <time>2022-05-24T12:58:14Z</time>
      </trkpt>
      <trkpt lat="46.77598" lon="6.0043">
        <ele>751.2</ele>
        <time>2022-05-24T12:58:15Z</time>
      </trkpt>
      <trkpt lat="46.77599" lon="6.00432">
        <ele>751.2</ele>
        <time>2022-05-24T12:58:16Z</time>
      </trkpt>
      <trkpt lat="46.77601" lon="6.00434">
        <ele>751.4</ele>
        <time>2022-05-24T12:58:17Z</time>
      </trkpt>
      <trkpt lat="46.77601" lon="6.00436">
        <ele>751.6</ele>
        <time>2022-05-24T12:58:18Z</time>
      </trkpt>
      <trkpt lat="46.77602" lon="6.00438">
        <ele>751.6</ele>
        <time>2022-05-24T12:58:19Z</time>
      </trkpt>
      <trkpt lat="46.77604" lon="6.0044">
        <ele>752</ele>
        <time>2022-05-24T12:58:20Z</time>
      </trkpt>
      <trkpt lat="46.77605" lon="6.00442">
        <ele>752.4</ele>
        <time>2022-05-24T12:58:21Z</time>
      </trkpt>
      <trkpt lat="46.77606" lon="6.00444">
        <ele>752.4</ele>
        <time>2022-05-24T12:58:22Z</time>
      </trkpt>
      <trkpt lat="46.77607" lon="6.00446">
        <ele>752.6</ele>
        <time>2022-05-24T12:58:23Z</time>
      </trkpt>
      <trkpt lat="46.77607" lon="6.00448">
        <ele>753</ele>
        <time>2022-05-24T12:58:24Z</time>
      </trkpt>
      <trkpt lat="46.77608" lon="6.0045">
        <ele>753</ele>
        <time>2022-05-24T12:58:25Z</time>
      </trkpt>
      <trkpt lat="46.77609" lon="6.00452">
        <ele>753.4</ele>
        <time>2022-05-24T12:58:26Z</time>
      </trkpt>
      <trkpt lat="46.7761" lon="6.00455">
        <ele>753.6</ele>
        <time>2022-05-24T12:58:27Z</time>
      </trkpt>
      <trkpt lat="46.77611" lon="6.00457">
        <ele>753.6</ele>
        <time>2022-05-24T12:58:28Z</time>
      </trkpt>
      <trkpt lat="46.77612" lon="6.00459">
        <ele>754</ele>
        <time>2022-05-24T12:58:29Z</time>
      </trkpt>
      <trkpt lat="46.77613" lon="6.00461">
        <ele>754.2</ele>
        <time>2022-05-24T12:58:30Z</time>
      </trkpt>
      <trkpt lat="46.77615" lon="6.00466">
        <ele>754.4</ele>
        <time>2022-05-24T12:58:31Z</time>
      </trkpt>
      <trkpt lat="46.77616" lon="6.00469">
        <ele>754.4</ele>
        <time>2022-05-24T12:58:32Z</time>
      </trkpt>
      <trkpt lat="46.77617" lon="6.00471">
        <ele>754.8</ele>
        <time>2022-05-24T12:58:33Z</time>
      </trkpt>
      <trkpt lat="46.77618" lon="6.00473">
        <ele>755</ele>
        <time>2022-05-24T12:58:34Z</time>
      </trkpt>
      <trkpt lat="46.7762" lon="6.00475">
        <ele>755.2</ele>
        <time>2022-05-24T12:58:35Z</time>
      </trkpt>
      <trkpt lat="46.77621" lon="6.00478">
        <ele>755.4</ele>
        <time>2022-05-24T12:58:36Z</time>
      </trkpt>
      <trkpt lat="46.77622" lon="6.0048">
        <ele>755.6</ele>
        <time>2022-05-24T12:58:37Z</time>
      </trkpt>
      <trkpt lat="46.77622" lon="6.00482">
        <ele>756</ele>
        <time>2022-05-24T12:58:38Z</time>
      </trkpt>
      <trkpt lat="46.77624" lon="6.00485">
        <ele>756</ele>
        <time>2022-05-24T12:58:39Z</time>
      </trkpt>
      <trkpt lat="46.77625" lon="6.00487">
        <ele>756.2</ele>
        <time>2022-05-24T12:58:40Z</time>
      </trkpt>
      <trkpt lat="46.77625" lon="6.0049">
        <ele>756.6</ele>
        <time>2022-05-24T12:58:41Z</time>
      </trkpt>
      <trkpt lat="46.77626" lon="6.00492">
        <ele>756.8</ele>
        <time>2022-05-24T12:58:42Z</time>
      </trkpt>
      <trkpt lat="46.77627" lon="6.00494">
        <ele>757</ele>
        <time>2022-05-24T12:58:43Z</time>
      </trkpt>
      <trkpt lat="46.77628" lon="6.00497">
        <ele>757.2</ele>
        <time>2022-05-24T12:58:44Z</time>
      </trkpt>
      <trkpt lat="46.77629" lon="6.00499">
        <ele>757.2</ele>
        <time>2022-05-24T12:58:45Z</time>
      </trkpt>
      <trkpt lat="46.7763" lon="6.00502">
        <ele>757.6</ele>
        <time>2022-05-24T12:58:46Z</time>
      </trkpt>
      <trkpt lat="46.77631" lon="6.00505">
        <ele>757.6</ele>
        <time>2022-05-24T12:58:47Z</time>
      </trkpt>
      <trkpt lat="46.77632" lon="6.00507">
        <ele>758.2</ele>
        <time>2022-05-24T12:58:48Z</time>
      </trkpt>
      <trkpt lat="46.77633" lon="6.0051">
        <ele>758.4</ele>
        <time>2022-05-24T12:58:49Z</time>
      </trkpt>
      <trkpt lat="46.77634" lon="6.00512">
        <ele>758.4</ele>
        <time>2022-05-24T12:58:50Z</time>
      </trkpt>
      <trkpt lat="46.77635" lon="6.00515">
        <ele>758.8</ele>
        <time>2022-05-24T12:58:51Z</time>
      </trkpt>
      <trkpt lat="46.77636" lon="6.00517">
        <ele>759</ele>
        <time>2022-05-24T12:58:52Z</time>
      </trkpt>
      <trkpt lat="46.77637" lon="6.0052">
        <ele>759.4</ele>
        <time>2022-05-24T12:58:53Z</time>
      </trkpt>
      <trkpt lat="46.77638" lon="6.00522">
        <ele>759.6</ele>
        <time>2022-05-24T12:58:54Z</time>
      </trkpt>
      <trkpt lat="46.77639" lon="6.00525">
        <ele>759.8</ele>
        <time>2022-05-24T12:58:55Z</time>
      </trkpt>
      <trkpt lat="46.7764" lon="6.00527">
        <ele>759.8</ele>
        <time>2022-05-24T12:58:56Z</time>
      </trkpt>
      <trkpt lat="46.77641" lon="6.0053">
        <ele>760.2</ele>
        <time>2022-05-24T12:58:57Z</time>
      </trkpt>
      <trkpt lat="46.77642" lon="6.00533">
        <ele>760.2</ele>
        <time>2022-05-24T12:58:58Z</time>
      </trkpt>
      <trkpt lat="46.77642" lon="6.00536">
        <ele>760.6</ele>
        <time>2022-05-24T12:58:59Z</time>
      </trkpt>
      <trkpt lat="46.77643" lon="6.00539">
        <ele>760.8</ele>
        <time>2022-05-24T12:59:00Z</time>
      </trkpt>
      <trkpt lat="46.77644" lon="6.00541">
        <ele>761</ele>
        <time>2022-05-24T12:59:01Z</time>
      </trkpt>
      <trkpt lat="46.77645" lon="6.00544">
        <ele>761</ele>
        <time>2022-05-24T12:59:02Z</time>
      </trkpt>
      <trkpt lat="46.77646" lon="6.00546">
        <ele>761.6</ele>
        <time>2022-05-24T12:59:03Z</time>
      </trkpt>
      <trkpt lat="46.77647" lon="6.00549">
        <ele>761.8</ele>
        <time>2022-05-24T12:59:04Z</time>
      </trkpt>
      <trkpt lat="46.77648" lon="6.00551">
        <ele>762.2</ele>
        <time>2022-05-24T12:59:05Z</time>
      </trkpt>
      <trkpt lat="46.77648" lon="6.00554">
        <ele>762.4</ele>
        <time>2022-05-24T12:59:06Z</time>
      </trkpt>
      <trkpt lat="46.77649" lon="6.00556">
        <ele>762.8</ele>
        <time>2022-05-24T12:59:07Z</time>
      </trkpt>
      <trkpt lat="46.7765" lon="6.00558">
        <ele>763</ele>
        <time>2022-05-24T12:59:08Z</time>
      </trkpt>
      <trkpt lat="46.77651" lon="6.0056">
        <ele>763.2</ele>
        <time>2022-05-24T12:59:09Z</time>
      </trkpt>
      <trkpt lat="46.77652" lon="6.00562">
        <ele>763.6</ele>
        <time>2022-05-24T12:59:10Z</time>
      </trkpt>
      <trkpt lat="46.77653" lon="6.00564">
        <ele>763.8</ele>
        <time>2022-05-24T12:59:11Z</time>
      </trkpt>
      <trkpt lat="46.77654" lon="6.00567">
        <ele>764</ele>
        <time>2022-05-24T12:59:12Z</time>
      </trkpt>
      <trkpt lat="46.77655" lon="6.00568">
        <ele>764.2</ele>
        <time>2022-05-24T12:59:13Z</time>
      </trkpt>
      <trkpt lat="46.77657" lon="6.0057">
        <ele>764.4</ele>
        <time>2022-05-24T12:59:14Z</time>
      </trkpt>
      <trkpt lat="46.77658" lon="6.00571">
        <ele>764.8</ele>
        <time>2022-05-24T12:59:15Z</time>
      </trkpt>
      <trkpt lat="46.7766" lon="6.00572">
        <ele>765</ele>
        <time>2022-05-24T12:59:16Z</time>
      </trkpt>
      <trkpt lat="46.77662" lon="6.00573">
        <ele>765.2</ele>
        <time>2022-05-24T12:59:17Z</time>
      </trkpt>
      <trkpt lat="46.77663" lon="6.00574">
        <ele>765.4</ele>
        <time>2022-05-24T12:59:18Z</time>
      </trkpt>
      <trkpt lat="46.77665" lon="6.00575">
        <ele>765.8</ele>
        <time>2022-05-24T12:59:19Z</time>
      </trkpt>
      <trkpt lat="46.77667" lon="6.00575">
        <ele>766</ele>
        <time>2022-05-24T12:59:20Z</time>
      </trkpt>
      <trkpt lat="46.77668" lon="6.00575">
        <ele>766.2</ele>
        <time>2022-05-24T12:59:21Z</time>
      </trkpt>
      <trkpt lat="46.7767" lon="6.00574">
        <ele>766.6</ele>
        <time>2022-05-24T12:59:22Z</time>
      </trkpt>
      <trkpt lat="46.77672" lon="6.00573">
        <ele>767</ele>
        <time>2022-05-24T12:59:23Z</time>
      </trkpt>
      <trkpt lat="46.77673" lon="6.00572">
        <ele>767.2</ele>
        <time>2022-05-24T12:59:24Z</time>
      </trkpt>
      <trkpt lat="46.77675" lon="6.0057">
        <ele>767.6</ele>
        <time>2022-05-24T12:59:25Z</time>
      </trkpt>
      <trkpt lat="46.77677" lon="6.00569">
        <ele>767.8</ele>
        <time>2022-05-24T12:59:26Z</time>
      </trkpt>
      <trkpt lat="46.77678" lon="6.00568">
        <ele>768</ele>
        <time>2022-05-24T12:59:27Z</time>
      </trkpt>
      <trkpt lat="46.77678" lon="6.00568">
        <ele>768.2</ele>
        <time>2022-05-24T12:59:28Z</time>
      </trkpt>
      <trkpt lat="46.7768" lon="6.00567">
        <ele>768.4</ele>
        <time>2022-05-24T12:59:29Z</time>
      </trkpt>
      <trkpt lat="46.77682" lon="6.00565">
        <ele>768.4</ele>
        <time>2022-05-24T12:59:30Z</time>
      </trkpt>
      <trkpt lat="46.77683" lon="6.00563">
        <ele>768.8</ele>
        <time>2022-05-24T12:59:31Z</time>
      </trkpt>
      <trkpt lat="46.77685" lon="6.00561">
        <ele>768.8</ele>
        <time>2022-05-24T12:59:32Z</time>
      </trkpt>
      <trkpt lat="46.77686" lon="6.0056">
        <ele>769.2</ele>
        <time>2022-05-24T12:59:33Z</time>
      </trkpt>
      <trkpt lat="46.77688" lon="6.00558">
        <ele>769.2</ele>
        <time>2022-05-24T12:59:34Z</time>
      </trkpt>
      <trkpt lat="46.7769" lon="6.00556">
        <ele>769.6</ele>
        <time>2022-05-24T12:59:35Z</time>
      </trkpt>
      <trkpt lat="46.77691" lon="6.00554">
        <ele>769.6</ele>
        <time>2022-05-24T12:59:36Z</time>
      </trkpt>
      <trkpt lat="46.77693" lon="6.00552">
        <ele>770</ele>
        <time>2022-05-24T12:59:37Z</time>
      </trkpt>
      <trkpt lat="46.77694" lon="6.0055">
        <ele>770.2</ele>
        <time>2022-05-24T12:59:38Z</time>
      </trkpt>
      <trkpt lat="46.77696" lon="6.00548">
        <ele>770.4</ele>
        <time>2022-05-24T12:59:39Z</time>
      </trkpt>
      <trkpt lat="46.77697" lon="6.00546">
        <ele>770.8</ele>
        <time>2022-05-24T12:59:40Z</time>
      </trkpt>
      <trkpt lat="46.77699" lon="6.00544">
        <ele>770.8</ele>
        <time>2022-05-24T12:59:41Z</time>
      </trkpt>
      <trkpt lat="46.77701" lon="6.00542">
        <ele>771.2</ele>
        <time>2022-05-24T12:59:42Z</time>
      </trkpt>
      <trkpt lat="46.77702" lon="6.0054">
        <ele>771.4</ele>
        <time>2022-05-24T12:59:43Z</time>
      </trkpt>
      <trkpt lat="46.77704" lon="6.00538">
        <ele>771.6</ele>
        <time>2022-05-24T12:59:44Z</time>
      </trkpt>
      <trkpt lat="46.77705" lon="6.00536">
        <ele>771.8</ele>
        <time>2022-05-24T12:59:45Z</time>
      </trkpt>
      <trkpt lat="46.77706" lon="6.00534">
        <ele>772</ele>
        <time>2022-05-24T12:59:46Z</time>
      </trkpt>
      <trkpt lat="46.77708" lon="6.00532">
        <ele>772.2</ele>
        <time>2022-05-24T12:59:47Z</time>
      </trkpt>
      <trkpt lat="46.77709" lon="6.0053">
        <ele>772.2</ele>
        <time>2022-05-24T12:59:48Z</time>
      </trkpt>
      <trkpt lat="46.77711" lon="6.00528">
        <ele>772.6</ele>
        <time>2022-05-24T12:59:49Z</time>
      </trkpt>
      <trkpt lat="46.77712" lon="6.00526">
        <ele>772.6</ele>
        <time>2022-05-24T12:59:50Z</time>
      </trkpt>
      <trkpt lat="46.77714" lon="6.00524">
        <ele>773</ele>
        <time>2022-05-24T12:59:51Z</time>
      </trkpt>
      <trkpt lat="46.77716" lon="6.00522">
        <ele>773.2</ele>
        <time>2022-05-24T12:59:52Z</time>
      </trkpt>
      <trkpt lat="46.77717" lon="6.00521">
        <ele>773.2</ele>
        <time>2022-05-24T12:59:53Z</time>
      </trkpt>
      <trkpt lat="46.77719" lon="6.00519">
        <ele>773.6</ele>
        <time>2022-05-24T12:59:54Z</time>
      </trkpt>
      <trkpt lat="46.7772" lon="6.00517">
        <ele>773.8</ele>
        <time>2022-05-24T12:59:55Z</time>
      </trkpt>
      <trkpt lat="46.77722" lon="6.00516">
        <ele>774.2</ele>
        <time>2022-05-24T12:59:56Z</time>
      </trkpt>
      <trkpt lat="46.77723" lon="6.00514">
        <ele>774.6</ele>
        <time>2022-05-24T12:59:57Z</time>
      </trkpt>
      <trkpt lat="46.77725" lon="6.00513">
        <ele>774.8</ele>
        <time>2022-05-24T12:59:58Z</time>
      </trkpt>
      <trkpt lat="46.77726" lon="6.00511">
        <ele>775</ele>
        <time>2022-05-24T12:59:59Z</time>
      </trkpt>
      <trkpt lat="46.77727" lon="6.00509">
        <ele>775</ele>
        <time>2022-05-24T13:00:00Z</time>
      </trkpt>
      <trkpt lat="46.77729" lon="6.00508">
        <ele>775.4</ele>
        <time>2022-05-24T13:00:01Z</time>
      </trkpt>
      <trkpt lat="46.77731" lon="6.00506">
        <ele>775.4</ele>
        <time>2022-05-24T13:00:02Z</time>
      </trkpt>
      <trkpt lat="46.77732" lon="6.00505">
        <ele>775.8</ele>
        <time>2022-05-24T13:00:03Z</time>
      </trkpt>
      <trkpt lat="46.77734" lon="6.00503">
        <ele>775.8</ele>
        <time>2022-05-24T13:00:04Z</time>
      </trkpt>
      <trkpt lat="46.77735" lon="6.00502">
        <ele>776</ele>
        <time>2022-05-24T13:00:05Z</time>
      </trkpt>
      <trkpt lat="46.77737" lon="6.00501">
        <ele>776</ele>
        <time>2022-05-24T13:00:06Z</time>
      </trkpt>
      <trkpt lat="46.77738" lon="6.005">
        <ele>776.4</ele>
        <time>2022-05-24T13:00:07Z</time>
      </trkpt>
      <trkpt lat="46.7774" lon="6.00499">
        <ele>776.4</ele>
        <time>2022-05-24T13:00:08Z</time>
      </trkpt>
      <trkpt lat="46.77742" lon="6.00497">
        <ele>776.6</ele>
        <time>2022-05-24T13:00:09Z</time>
      </trkpt>
      <trkpt lat="46.77743" lon="6.00496">
        <ele>776.6</ele>
        <time>2022-05-24T13:00:10Z</time>
      </trkpt>
      <trkpt lat="46.77745" lon="6.00495">
        <ele>777</ele>
        <time>2022-05-24T13:00:11Z</time>
      </trkpt>
      <trkpt lat="46.77746" lon="6.00493">
        <ele>777</ele>
        <time>2022-05-24T13:00:12Z</time>
      </trkpt>
      <trkpt lat="46.77748" lon="6.00492">
        <ele>777.4</ele>
        <time>2022-05-24T13:00:13Z</time>
      </trkpt>
      <trkpt lat="46.7775" lon="6.0049">
        <ele>777.6</ele>
        <time>2022-05-24T13:00:14Z</time>
      </trkpt>
      <trkpt lat="46.77751" lon="6.00489">
        <ele>777.6</ele>
        <time>2022-05-24T13:00:15Z</time>
      </trkpt>
      <trkpt lat="46.77753" lon="6.00488">
        <ele>778</ele>
        <time>2022-05-24T13:00:16Z</time>
      </trkpt>
      <trkpt lat="46.77754" lon="6.00486">
        <ele>778</ele>
        <time>2022-05-24T13:00:17Z</time>
      </trkpt>
      <trkpt lat="46.77756" lon="6.00485">
        <ele>778.4</ele>
        <time>2022-05-24T13:00:18Z</time>
      </trkpt>
      <trkpt lat="46.77757" lon="6.00483">
        <ele>778.6</ele>
        <time>2022-05-24T13:00:19Z</time>
      </trkpt>
      <trkpt lat="46.77759" lon="6.00482">
        <ele>779</ele>
        <time>2022-05-24T13:00:20Z</time>
      </trkpt>
      <trkpt lat="46.77761" lon="6.00481">
        <ele>779.2</ele>
        <time>2022-05-24T13:00:21Z</time>
      </trkpt>
      <trkpt lat="46.77762" lon="6.0048">
        <ele>779.4</ele>
        <time>2022-05-24T13:00:22Z</time>
      </trkpt>
      <trkpt lat="46.77764" lon="6.00479">
        <ele>779.6</ele>
        <time>2022-05-24T13:00:23Z</time>
      </trkpt>
      <trkpt lat="46.77766" lon="6.00478">
        <ele>779.6</ele>
        <time>2022-05-24T13:00:24Z</time>
      </trkpt>
      <trkpt lat="46.77768" lon="6.00477">
        <ele>780</ele>
        <time>2022-05-24T13:00:25Z</time>
      </trkpt>
      <trkpt lat="46.7777" lon="6.00476">
        <ele>780.2</ele>
        <time>2022-05-24T13:00:26Z</time>
      </trkpt>
      <trkpt lat="46.7777" lon="6.00476">
        <ele>780.2</ele>
        <time>2022-05-24T13:00:27Z</time>
      </trkpt>
      <trkpt lat="46.77771" lon="6.00475">
        <ele>780.4</ele>
        <time>2022-05-24T13:00:28Z</time>
      </trkpt>
      <trkpt lat="46.77773" lon="6.00473">
        <ele>780.6</ele>
        <time>2022-05-24T13:00:29Z</time>
      </trkpt>
      <trkpt lat="46.77775" lon="6.00472">
        <ele>780.6</ele>
        <time>2022-05-24T13:00:30Z</time>
      </trkpt>
      <trkpt lat="46.77778" lon="6.0047">
        <ele>781</ele>
        <time>2022-05-24T13:00:31Z</time>
      </trkpt>
      <trkpt lat="46.7778" lon="6.00469">
        <ele>781</ele>
        <time>2022-05-24T13:00:32Z</time>
      </trkpt>
      <trkpt lat="46.77782" lon="6.00468">
        <ele>781.2</ele>
        <time>2022-05-24T13:00:33Z</time>
      </trkpt>
      <trkpt lat="46.77784" lon="6.00467">
        <ele>781.2</ele>
        <time>2022-05-24T13:00:34Z</time>
      </trkpt>
      <trkpt lat="46.77786" lon="6.00467">
        <ele>781.6</ele>
        <time>2022-05-24T13:00:35Z</time>
      </trkpt>
      <trkpt lat="46.77788" lon="6.00466">
        <ele>781.6</ele>
        <time>2022-05-24T13:00:36Z</time>
      </trkpt>
      <trkpt lat="46.7779" lon="6.00465">
        <ele>781.8</ele>
        <time>2022-05-24T13:00:37Z</time>
      </trkpt>
      <trkpt lat="46.77792" lon="6.00464">
        <ele>782.2</ele>
        <time>2022-05-24T13:00:38Z</time>
      </trkpt>
      <trkpt lat="46.77794" lon="6.00463">
        <ele>782.4</ele>
        <time>2022-05-24T13:00:39Z</time>
      </trkpt>
      <trkpt lat="46.77795" lon="6.00462">
        <ele>782.6</ele>
        <time>2022-05-24T13:00:40Z</time>
      </trkpt>
      <trkpt lat="46.77797" lon="6.00461">
        <ele>782.8</ele>
        <time>2022-05-24T13:00:41Z</time>
      </trkpt>
      <trkpt lat="46.77799" lon="6.00461">
        <ele>783</ele>
        <time>2022-05-24T13:00:42Z</time>
      </trkpt>
      <trkpt lat="46.77801" lon="6.0046">
        <ele>783.2</ele>
        <time>2022-05-24T13:00:43Z</time>
      </trkpt>
      <trkpt lat="46.77803" lon="6.00459">
        <ele>783.6</ele>
        <time>2022-05-24T13:00:44Z</time>
      </trkpt>
      <trkpt lat="46.77805" lon="6.00458">
        <ele>783.8</ele>
        <time>2022-05-24T13:00:45Z</time>
      </trkpt>
      <trkpt lat="46.77807" lon="6.00457">
        <ele>784.2</ele>
        <time>2022-05-24T13:00:46Z</time>
      </trkpt>
      <trkpt lat="46.77809" lon="6.00456">
        <ele>784.4</ele>
        <time>2022-05-24T13:00:47Z</time>
      </trkpt>
      <trkpt lat="46.77811" lon="6.00455">
        <ele>784.4</ele>
        <time>2022-05-24T13:00:48Z</time>
      </trkpt>
      <trkpt lat="46.77813" lon="6.00454">
        <ele>784.8</ele>
        <time>2022-05-24T13:00:49Z</time>
      </trkpt>
      <trkpt lat="46.77815" lon="6.00453">
        <ele>785</ele>
        <time>2022-05-24T13:00:50Z</time>
      </trkpt>
      <trkpt lat="46.77817" lon="6.00452">
        <ele>785.2</ele>
        <time>2022-05-24T13:00:51Z</time>
      </trkpt>
      <trkpt lat="46.77819" lon="6.00451">
        <ele>785.4</ele>
        <time>2022-05-24T13:00:52Z</time>
      </trkpt>
      <trkpt lat="46.7782" lon="6.0045">
        <ele>785.4</ele>
        <time>2022-05-24T13:00:53Z</time>
      </trkpt>
      <trkpt lat="46.77822" lon="6.00449">
        <ele>785.8</ele>
        <time>2022-05-24T13:00:54Z</time>
      </trkpt>
      <trkpt lat="46.77824" lon="6.00448">
        <ele>785.8</ele>
        <time>2022-05-24T13:00:55Z</time>
      </trkpt>
      <trkpt lat="46.77826" lon="6.00446">
        <ele>786.2</ele>
        <time>2022-05-24T13:00:56Z</time>
      </trkpt>
      <trkpt lat="46.77828" lon="6.00445">
        <ele>786.6</ele>
        <time>2022-05-24T13:00:57Z</time>
      </trkpt>
      <trkpt lat="46.7783" lon="6.00444">
        <ele>786.8</ele>
        <time>2022-05-24T13:00:58Z</time>
      </trkpt>
      <trkpt lat="46.77832" lon="6.00442">
        <ele>787</ele>
        <time>2022-05-24T13:00:59Z</time>
      </trkpt>
      <trkpt lat="46.77834" lon="6.00441">
        <ele>787</ele>
        <time>2022-05-24T13:01:00Z</time>
      </trkpt>
      <trkpt lat="46.77836" lon="6.00439">
        <ele>787.4</ele>
        <time>2022-05-24T13:01:01Z</time>
      </trkpt>
      <trkpt lat="46.77838" lon="6.00437">
        <ele>787.6</ele>
        <time>2022-05-24T13:01:02Z</time>
      </trkpt>
      <trkpt lat="46.77839" lon="6.00436">
        <ele>787.6</ele>
        <time>2022-05-24T13:01:03Z</time>
      </trkpt>
      <trkpt lat="46.77841" lon="6.00434">
        <ele>788</ele>
        <time>2022-05-24T13:01:04Z</time>
      </trkpt>
      <trkpt lat="46.77843" lon="6.00433">
        <ele>788</ele>
        <time>2022-05-24T13:01:05Z</time>
      </trkpt>
      <trkpt lat="46.77845" lon="6.00431">
        <ele>788</ele>
        <time>2022-05-24T13:01:06Z</time>
      </trkpt>
      <trkpt lat="46.77847" lon="6.00429">
        <ele>788.4</ele>
        <time>2022-05-24T13:01:07Z</time>
      </trkpt>
      <trkpt lat="46.77849" lon="6.00428">
        <ele>788.4</ele>
        <time>2022-05-24T13:01:08Z</time>
      </trkpt>
      <trkpt lat="46.77851" lon="6.00426">
        <ele>788.6</ele>
        <time>2022-05-24T13:01:09Z</time>
      </trkpt>
      <trkpt lat="46.77853" lon="6.00424">
        <ele>788.6</ele>
        <time>2022-05-24T13:01:10Z</time>
      </trkpt>
      <trkpt lat="46.77855" lon="6.00423">
        <ele>788.8</ele>
        <time>2022-05-24T13:01:11Z</time>
      </trkpt>
      <trkpt lat="46.77858" lon="6.00421">
        <ele>788.8</ele>
        <time>2022-05-24T13:01:12Z</time>
      </trkpt>
      <trkpt lat="46.7786" lon="6.0042">
        <ele>789.2</ele>
        <time>2022-05-24T13:01:13Z</time>
      </trkpt>
      <trkpt lat="46.77864" lon="6.00419">
        <ele>789.2</ele>
        <time>2022-05-24T13:01:14Z</time>
      </trkpt>
      <trkpt lat="46.77865" lon="6.00418">
        <ele>789.4</ele>
        <time>2022-05-24T13:01:15Z</time>
      </trkpt>
      <trkpt lat="46.77869" lon="6.00417">
        <ele>789.4</ele>
        <time>2022-05-24T13:01:16Z</time>
      </trkpt>
      <trkpt lat="46.77871" lon="6.00416">
        <ele>789.6</ele>
        <time>2022-05-24T13:01:17Z</time>
      </trkpt>
      <trkpt lat="46.77873" lon="6.00416">
        <ele>789.6</ele>
        <time>2022-05-24T13:01:18Z</time>
      </trkpt>
      <trkpt lat="46.77876" lon="6.00416">
        <ele>790</ele>
        <time>2022-05-24T13:01:19Z</time>
      </trkpt>
      <trkpt lat="46.77879" lon="6.00416">
        <ele>790</ele>
        <time>2022-05-24T13:01:20Z</time>
      </trkpt>
      <trkpt lat="46.77882" lon="6.00416">
        <ele>790</ele>
        <time>2022-05-24T13:01:21Z</time>
      </trkpt>
      <trkpt lat="46.77885" lon="6.00417">
        <ele>790.2</ele>
        <time>2022-05-24T13:01:22Z</time>
      </trkpt>
      <trkpt lat="46.77888" lon="6.00417">
        <ele>790.2</ele>
        <time>2022-05-24T13:01:23Z</time>
      </trkpt>
      <trkpt lat="46.77892" lon="6.00417">
        <ele>790.2</ele>
        <time>2022-05-24T13:01:24Z</time>
      </trkpt>
      <trkpt lat="46.77895" lon="6.00417">
        <ele>790.2</ele>
        <time>2022-05-24T13:01:25Z</time>
      </trkpt>
      <trkpt lat="46.77898" lon="6.00418">
        <ele>790.2</ele>
        <time>2022-05-24T13:01:26Z</time>
      </trkpt>
      <trkpt lat="46.77902" lon="6.00418">
        <ele>790.2</ele>
        <time>2022-05-24T13:01:27Z</time>
      </trkpt>
      <trkpt lat="46.77906" lon="6.00418">
        <ele>790.2</ele>
        <time>2022-05-24T13:01:28Z</time>
      </trkpt>
      <trkpt lat="46.77909" lon="6.00418">
        <ele>790.2</ele>
        <time>2022-05-24T13:01:29Z</time>
      </trkpt>
      <trkpt lat="46.77913" lon="6.00417">
        <ele>790.2</ele>
        <time>2022-05-24T13:01:30Z</time>
      </trkpt>
      <trkpt lat="46.77917" lon="6.00415">
        <ele>790.2</ele>
        <time>2022-05-24T13:01:31Z</time>
      </trkpt>
      <trkpt lat="46.7792" lon="6.00413">
        <ele>790.2</ele>
        <time>2022-05-24T13:01:32Z</time>
      </trkpt>
      <trkpt lat="46.77924" lon="6.00411">
        <ele>790</ele>
        <time>2022-05-24T13:01:33Z</time>
      </trkpt>
      <trkpt lat="46.77928" lon="6.00409">
        <ele>790</ele>
        <time>2022-05-24T13:01:34Z</time>
      </trkpt>
      <trkpt lat="46.77933" lon="6.00406">
        <ele>790</ele>
        <time>2022-05-24T13:01:35Z</time>
      </trkpt>
      <trkpt lat="46.77938" lon="6.00404">
        <ele>789.6</ele>
        <time>2022-05-24T13:01:36Z</time>
      </trkpt>
      <trkpt lat="46.77944" lon="6.00401">
        <ele>789.4</ele>
        <time>2022-05-24T13:01:37Z</time>
      </trkpt>
      <trkpt lat="46.7795" lon="6.00399">
        <ele>789</ele>
        <time>2022-05-24T13:01:38Z</time>
      </trkpt>
      <trkpt lat="46.77957" lon="6.00398">
        <ele>788.6</ele>
        <time>2022-05-24T13:01:39Z</time>
      </trkpt>
      <trkpt lat="46.77964" lon="6.00398">
        <ele>788</ele>
        <time>2022-05-24T13:01:40Z</time>
      </trkpt>
      <trkpt lat="46.77972" lon="6.004">
        <ele>787.8</ele>
        <time>2022-05-24T13:01:41Z</time>
      </trkpt>
      <trkpt lat="46.7798" lon="6.00403">
        <ele>787.4</ele>
        <time>2022-05-24T13:01:42Z</time>
      </trkpt>
      <trkpt lat="46.77987" lon="6.00406">
        <ele>787.2</ele>
        <time>2022-05-24T13:01:43Z</time>
      </trkpt>
      <trkpt lat="46.77994" lon="6.00411">
        <ele>786.8</ele>
        <time>2022-05-24T13:01:44Z</time>
      </trkpt>
      <trkpt lat="46.78002" lon="6.00416">
        <ele>786.4</ele>
        <time>2022-05-24T13:01:45Z</time>
      </trkpt>
      <trkpt lat="46.78009" lon="6.00421">
        <ele>786.2</ele>
        <time>2022-05-24T13:01:46Z</time>
      </trkpt>
      <trkpt lat="46.78016" lon="6.00425">
        <ele>786.2</ele>
        <time>2022-05-24T13:01:47Z</time>
      </trkpt>
      <trkpt lat="46.78022" lon="6.00429">
        <ele>786</ele>
        <time>2022-05-24T13:01:48Z</time>
      </trkpt>
      <trkpt lat="46.78029" lon="6.00434">
        <ele>786</ele>
        <time>2022-05-24T13:01:49Z</time>
      </trkpt>
      <trkpt lat="46.78036" lon="6.00438">
        <ele>785.6</ele>
        <time>2022-05-24T13:01:50Z</time>
      </trkpt>
      <trkpt lat="46.78042" lon="6.00442">
        <ele>785.6</ele>
        <time>2022-05-24T13:01:51Z</time>
      </trkpt>
      <trkpt lat="46.78049" lon="6.00445">
        <ele>785.6</ele>
        <time>2022-05-24T13:01:52Z</time>
      </trkpt>
      <trkpt lat="46.78055" lon="6.00448">
        <ele>785.6</ele>
        <time>2022-05-24T13:01:53Z</time>
      </trkpt>
      <trkpt lat="46.78061" lon="6.0045">
        <ele>785.4</ele>
        <time>2022-05-24T13:01:54Z</time>
      </trkpt>
      <trkpt lat="46.78068" lon="6.00452">
        <ele>785.4</ele>
        <time>2022-05-24T13:01:55Z</time>
      </trkpt>
      <trkpt lat="46.78074" lon="6.00453">
        <ele>785.4</ele>
        <time>2022-05-24T13:01:56Z</time>
      </trkpt>
      <trkpt lat="46.7808" lon="6.00453">
        <ele>785.4</ele>
        <time>2022-05-24T13:01:57Z</time>
      </trkpt>
      <trkpt lat="46.78086" lon="6.00454">
        <ele>785.4</ele>
        <time>2022-05-24T13:01:58Z</time>
      </trkpt>
      <trkpt lat="46.78091" lon="6.00455">
        <ele>785.6</ele>
        <time>2022-05-24T13:01:59Z</time>
      </trkpt>
      <trkpt lat="46.78096" lon="6.00455">
        <ele>785.6</ele>
        <time>2022-05-24T13:02:00Z</time>
      </trkpt>
      <trkpt lat="46.78101" lon="6.00456">
        <ele>785.8</ele>
        <time>2022-05-24T13:02:01Z</time>
      </trkpt>
      <trkpt lat="46.78105" lon="6.00458">
        <ele>785.8</ele>
        <time>2022-05-24T13:02:02Z</time>
      </trkpt>
      <trkpt lat="46.78107" lon="6.0046">
        <ele>786.2</ele>
        <time>2022-05-24T13:02:03Z</time>
      </trkpt>
      <trkpt lat="46.7811" lon="6.00459">
        <ele>786.2</ele>
        <time>2022-05-24T13:02:04Z</time>
      </trkpt>
      <trkpt lat="46.7811" lon="6.00458">
        <ele>786.4</ele>
        <time>2022-05-24T13:02:05Z</time>
      </trkpt>
      <trkpt lat="46.78109" lon="6.00456">
        <ele>786.4</ele>
        <time>2022-05-24T13:02:06Z</time>
      </trkpt>
      <trkpt lat="46.78106" lon="6.00455">
        <ele>786.8</ele>
        <time>2022-05-24T13:02:07Z</time>
      </trkpt>
      <trkpt lat="46.78104" lon="6.00455">
        <ele>786.8</ele>
        <time>2022-05-24T13:02:08Z</time>
      </trkpt>
      <trkpt lat="46.781" lon="6.00455">
        <ele>786.8</ele>
        <time>2022-05-24T13:02:09Z</time>
      </trkpt>
      <trkpt lat="46.78097" lon="6.00455">
        <ele>786.8</ele>
        <time>2022-05-24T13:02:10Z</time>
      </trkpt>
      <trkpt lat="46.78094" lon="6.00453">
        <ele>786.4</ele>
        <time>2022-05-24T13:02:11Z</time>
      </trkpt>
      <trkpt lat="46.78091" lon="6.00449">
        <ele>786.4</ele>
        <time>2022-05-24T13:02:12Z</time>
      </trkpt>
      <trkpt lat="46.7809" lon="6.00443">
        <ele>786.2</ele>
        <time>2022-05-24T13:02:13Z</time>
      </trkpt>
      <trkpt lat="46.78088" lon="6.00437">
        <ele>786.2</ele>
        <time>2022-05-24T13:02:14Z</time>
      </trkpt>
      <trkpt lat="46.78088" lon="6.0043">
        <ele>786.2</ele>
        <time>2022-05-24T13:02:15Z</time>
      </trkpt>
      <trkpt lat="46.78089" lon="6.00423">
        <ele>786.2</ele>
        <time>2022-05-24T13:02:16Z</time>
      </trkpt>
      <trkpt lat="46.7809" lon="6.00416">
        <ele>786.2</ele>
        <time>2022-05-24T13:02:17Z</time>
      </trkpt>
      <trkpt lat="46.78092" lon="6.00409">
        <ele>786.2</ele>
        <time>2022-05-24T13:02:18Z</time>
      </trkpt>
      <trkpt lat="46.78094" lon="6.00403">
        <ele>786.2</ele>
        <time>2022-05-24T13:02:19Z</time>
      </trkpt>
      <trkpt lat="46.78095" lon="6.00396">
        <ele>786.2</ele>
        <time>2022-05-24T13:02:20Z</time>
      </trkpt>
      <trkpt lat="46.78096" lon="6.00389">
        <ele>786.2</ele>
        <time>2022-05-24T13:02:21Z</time>
      </trkpt>
      <trkpt lat="46.78098" lon="6.00382">
        <ele>786.2</ele>
        <time>2022-05-24T13:02:22Z</time>
      </trkpt>
      <trkpt lat="46.781" lon="6.00376">
        <ele>786.2</ele>
        <time>2022-05-24T13:02:23Z</time>
      </trkpt>
      <trkpt lat="46.78101" lon="6.00369">
        <ele>786.2</ele>
        <time>2022-05-24T13:02:24Z</time>
      </trkpt>
      <trkpt lat="46.78103" lon="6.00361">
        <ele>786</ele>
        <time>2022-05-24T13:02:25Z</time>
      </trkpt>
      <trkpt lat="46.78104" lon="6.00354">
        <ele>786</ele>
        <time>2022-05-24T13:02:26Z</time>
      </trkpt>
      <trkpt lat="46.78105" lon="6.00347">
        <ele>785.8</ele>
        <time>2022-05-24T13:02:27Z</time>
      </trkpt>
      <trkpt lat="46.78107" lon="6.00339">
        <ele>785.8</ele>
        <time>2022-05-24T13:02:28Z</time>
      </trkpt>
      <trkpt lat="46.78108" lon="6.00332">
        <ele>785.8</ele>
        <time>2022-05-24T13:02:29Z</time>
      </trkpt>
      <trkpt lat="46.78109" lon="6.00325">
        <ele>785.8</ele>
        <time>2022-05-24T13:02:30Z</time>
      </trkpt>
      <trkpt lat="46.78111" lon="6.00318">
        <ele>785.8</ele>
        <time>2022-05-24T13:02:31Z</time>
      </trkpt>
      <trkpt lat="46.78112" lon="6.00311">
        <ele>785.8</ele>
        <time>2022-05-24T13:02:32Z</time>
      </trkpt>
      <trkpt lat="46.78113" lon="6.00304">
        <ele>786</ele>
        <time>2022-05-24T13:02:33Z</time>
      </trkpt>
      <trkpt lat="46.78113" lon="6.00298">
        <ele>786</ele>
        <time>2022-05-24T13:02:34Z</time>
      </trkpt>
      <trkpt lat="46.78114" lon="6.00292">
        <ele>786</ele>
        <time>2022-05-24T13:02:35Z</time>
      </trkpt>
      <trkpt lat="46.78116" lon="6.00286">
        <ele>786.4</ele>
        <time>2022-05-24T13:02:36Z</time>
      </trkpt>
      <trkpt lat="46.78117" lon="6.00281">
        <ele>786.4</ele>
        <time>2022-05-24T13:02:37Z</time>
      </trkpt>
      <trkpt lat="46.78119" lon="6.00277">
        <ele>786.8</ele>
        <time>2022-05-24T13:02:38Z</time>
      </trkpt>
      <trkpt lat="46.78121" lon="6.00273">
        <ele>787</ele>
        <time>2022-05-24T13:02:39Z</time>
      </trkpt>
      <trkpt lat="46.78122" lon="6.0027">
        <ele>787</ele>
        <time>2022-05-24T13:02:40Z</time>
      </trkpt>
      <trkpt lat="46.78122" lon="6.00267">
        <ele>787.4</ele>
        <time>2022-05-24T13:02:41Z</time>
      </trkpt>
      <trkpt lat="46.78123" lon="6.00265">
        <ele>787.4</ele>
        <time>2022-05-24T13:02:42Z</time>
      </trkpt>
      <trkpt lat="46.78123" lon="6.00263">
        <ele>787.4</ele>
        <time>2022-05-24T13:02:43Z</time>
      </trkpt>
      <trkpt lat="46.78123" lon="6.00262">
        <ele>787.6</ele>
        <time>2022-05-24T13:02:44Z</time>
      </trkpt>
      <trkpt lat="46.78123" lon="6.00262">
        <ele>787.6</ele>
        <time>2022-05-24T13:02:45Z</time>
      </trkpt>
      <trkpt lat="46.78124" lon="6.00261">
        <ele>787.6</ele>
        <time>2022-05-24T13:02:46Z</time>
      </trkpt>
      <trkpt lat="46.78125" lon="6.0026">
        <ele>787.8</ele>
        <time>2022-05-24T13:02:47Z</time>
      </trkpt>
      <trkpt lat="46.78126" lon="6.00257">
        <ele>787.8</ele>
        <time>2022-05-24T13:02:48Z</time>
      </trkpt>
      <trkpt lat="46.78128" lon="6.00254">
        <ele>787.8</ele>
        <time>2022-05-24T13:02:49Z</time>
      </trkpt>
      <trkpt lat="46.7813" lon="6.00251">
        <ele>788</ele>
        <time>2022-05-24T13:02:50Z</time>
      </trkpt>
      <trkpt lat="46.78131" lon="6.00247">
        <ele>788</ele>
        <time>2022-05-24T13:02:51Z</time>
      </trkpt>
      <trkpt lat="46.78133" lon="6.00242">
        <ele>788.2</ele>
        <time>2022-05-24T13:02:52Z</time>
      </trkpt>
      <trkpt lat="46.78134" lon="6.00237">
        <ele>788.2</ele>
        <time>2022-05-24T13:02:53Z</time>
      </trkpt>
      <trkpt lat="46.78135" lon="6.00231">
        <ele>788.4</ele>
        <time>2022-05-24T13:02:54Z</time>
      </trkpt>
      <trkpt lat="46.78135" lon="6.00226">
        <ele>788.4</ele>
        <time>2022-05-24T13:02:55Z</time>
      </trkpt>
      <trkpt lat="46.78135" lon="6.00219">
        <ele>788.4</ele>
        <time>2022-05-24T13:02:56Z</time>
      </trkpt>
      <trkpt lat="46.78135" lon="6.00212">
        <ele>788.4</ele>
        <time>2022-05-24T13:02:57Z</time>
      </trkpt>
      <trkpt lat="46.78135" lon="6.00205">
        <ele>788.6</ele>
        <time>2022-05-24T13:02:58Z</time>
      </trkpt>
      <trkpt lat="46.78135" lon="6.00198">
        <ele>788.6</ele>
        <time>2022-05-24T13:02:59Z</time>
      </trkpt>
      <trkpt lat="46.78134" lon="6.0019">
        <ele>788.4</ele>
        <time>2022-05-24T13:03:00Z</time>
      </trkpt>
      <trkpt lat="46.78133" lon="6.00182">
        <ele>788.4</ele>
        <time>2022-05-24T13:03:01Z</time>
      </trkpt>
      <trkpt lat="46.78132" lon="6.00173">
        <ele>788.2</ele>
        <time>2022-05-24T13:03:02Z</time>
      </trkpt>
      <trkpt lat="46.78131" lon="6.00164">
        <ele>788</ele>
        <time>2022-05-24T13:03:03Z</time>
      </trkpt>
      <trkpt lat="46.78131" lon="6.00154">
        <ele>787.6</ele>
        <time>2022-05-24T13:03:04Z</time>
      </trkpt>
      <trkpt lat="46.7813" lon="6.00143">
        <ele>787.6</ele>
        <time>2022-05-24T13:03:05Z</time>
      </trkpt>
      <trkpt lat="46.78129" lon="6.00132">
        <ele>787.2</ele>
        <time>2022-05-24T13:03:06Z</time>
      </trkpt>
      <trkpt lat="46.78128" lon="6.00121">
        <ele>787</ele>
        <time>2022-05-24T13:03:07Z</time>
      </trkpt>
      <trkpt lat="46.78127" lon="6.0011">
        <ele>787</ele>
        <time>2022-05-24T13:03:08Z</time>
      </trkpt>
      <trkpt lat="46.78126" lon="6.00098">
        <ele>786.6</ele>
        <time>2022-05-24T13:03:09Z</time>
      </trkpt>
      <trkpt lat="46.78125" lon="6.00087">
        <ele>786</ele>
        <time>2022-05-24T13:03:10Z</time>
      </trkpt>
      <trkpt lat="46.78124" lon="6.00076">
        <ele>785.6</ele>
        <time>2022-05-24T13:03:11Z</time>
      </trkpt>
      <trkpt lat="46.78123" lon="6.00064">
        <ele>785.6</ele>
        <time>2022-05-24T13:03:12Z</time>
      </trkpt>
      <trkpt lat="46.78122" lon="6.00052">
        <ele>785.2</ele>
        <time>2022-05-24T13:03:13Z</time>
      </trkpt>
      <trkpt lat="46.78121" lon="6.0004">
        <ele>784.8</ele>
        <time>2022-05-24T13:03:14Z</time>
      </trkpt>
      <trkpt lat="46.7812" lon="6.00028">
        <ele>784.4</ele>
        <time>2022-05-24T13:03:15Z</time>
      </trkpt>
      <trkpt lat="46.78119" lon="6.00015">
        <ele>784</ele>
        <time>2022-05-24T13:03:16Z</time>
      </trkpt>
      <trkpt lat="46.78118" lon="6.00002">
        <ele>783.2</ele>
        <time>2022-05-24T13:03:17Z</time>
      </trkpt>
      <trkpt lat="46.78117" lon="5.99989">
        <ele>782.4</ele>
        <time>2022-05-24T13:03:18Z</time>
      </trkpt>
      <trkpt lat="46.78115" lon="5.99976">
        <ele>782.4</ele>
        <time>2022-05-24T13:03:19Z</time>
      </trkpt>
      <trkpt lat="46.78114" lon="5.99964">
        <ele>782.2</ele>
        <time>2022-05-24T13:03:20Z</time>
      </trkpt>
      <trkpt lat="46.78113" lon="5.99951">
        <ele>782</ele>
        <time>2022-05-24T13:03:21Z</time>
      </trkpt>
      <trkpt lat="46.78112" lon="5.99939">
        <ele>781.8</ele>
        <time>2022-05-24T13:03:22Z</time>
      </trkpt>
      <trkpt lat="46.78111" lon="5.99926">
        <ele>781.6</ele>
        <time>2022-05-24T13:03:23Z</time>
      </trkpt>
      <trkpt lat="46.7811" lon="5.99915">
        <ele>781.4</ele>
        <time>2022-05-24T13:03:24Z</time>
      </trkpt>
      <trkpt lat="46.78109" lon="5.99903">
        <ele>781.4</ele>
        <time>2022-05-24T13:03:25Z</time>
      </trkpt>
      <trkpt lat="46.78108" lon="5.99892">
        <ele>781.4</ele>
        <time>2022-05-24T13:03:26Z</time>
      </trkpt>
      <trkpt lat="46.78107" lon="5.99882">
        <ele>781.4</ele>
        <time>2022-05-24T13:03:27Z</time>
      </trkpt>
      <trkpt lat="46.78107" lon="5.99872">
        <ele>781.4</ele>
        <time>2022-05-24T13:03:28Z</time>
      </trkpt>
      <trkpt lat="46.78106" lon="5.99863">
        <ele>781.4</ele>
        <time>2022-05-24T13:03:29Z</time>
      </trkpt>
      <trkpt lat="46.78106" lon="5.99855">
        <ele>781.6</ele>
        <time>2022-05-24T13:03:30Z</time>
      </trkpt>
      <trkpt lat="46.78106" lon="5.99847">
        <ele>781.6</ele>
        <time>2022-05-24T13:03:31Z</time>
      </trkpt>
      <trkpt lat="46.78106" lon="5.99839">
        <ele>782</ele>
        <time>2022-05-24T13:03:32Z</time>
      </trkpt>
      <trkpt lat="46.78106" lon="5.99831">
        <ele>782.2</ele>
        <time>2022-05-24T13:03:33Z</time>
      </trkpt>
      <trkpt lat="46.78105" lon="5.99823">
        <ele>782.6</ele>
        <time>2022-05-24T13:03:34Z</time>
      </trkpt>
      <trkpt lat="46.78105" lon="5.99814">
        <ele>782.6</ele>
        <time>2022-05-24T13:03:35Z</time>
      </trkpt>
      <trkpt lat="46.78105" lon="5.99806">
        <ele>783</ele>
        <time>2022-05-24T13:03:36Z</time>
      </trkpt>
      <trkpt lat="46.78106" lon="5.99798">
        <ele>783</ele>
        <time>2022-05-24T13:03:37Z</time>
      </trkpt>
      <trkpt lat="46.78105" lon="5.99791">
        <ele>783.2</ele>
        <time>2022-05-24T13:03:38Z</time>
      </trkpt>
      <trkpt lat="46.78105" lon="5.99783">
        <ele>783.2</ele>
        <time>2022-05-24T13:03:39Z</time>
      </trkpt>
      <trkpt lat="46.78105" lon="5.99775">
        <ele>783.2</ele>
        <time>2022-05-24T13:03:40Z</time>
      </trkpt>
      <trkpt lat="46.78105" lon="5.99767">
        <ele>783.2</ele>
        <time>2022-05-24T13:03:41Z</time>
      </trkpt>
      <trkpt lat="46.78105" lon="5.9976">
        <ele>783.6</ele>
        <time>2022-05-24T13:03:42Z</time>
      </trkpt>
      <trkpt lat="46.78105" lon="5.99752">
        <ele>783.6</ele>
        <time>2022-05-24T13:03:43Z</time>
      </trkpt>
      <trkpt lat="46.78105" lon="5.99744">
        <ele>783.6</ele>
        <time>2022-05-24T13:03:44Z</time>
      </trkpt>
      <trkpt lat="46.78105" lon="5.99737">
        <ele>783.8</ele>
        <time>2022-05-24T13:03:45Z</time>
      </trkpt>
      <trkpt lat="46.78105" lon="5.99729">
        <ele>783.8</ele>
        <time>2022-05-24T13:03:46Z</time>
      </trkpt>
      <trkpt lat="46.78105" lon="5.99721">
        <ele>783.8</ele>
        <time>2022-05-24T13:03:47Z</time>
      </trkpt>
      <trkpt lat="46.78105" lon="5.99713">
        <ele>784</ele>
        <time>2022-05-24T13:03:48Z</time>
      </trkpt>
      <trkpt lat="46.78105" lon="5.99704">
        <ele>784</ele>
        <time>2022-05-24T13:03:49Z</time>
      </trkpt>
      <trkpt lat="46.78105" lon="5.99696">
        <ele>784</ele>
        <time>2022-05-24T13:03:50Z</time>
      </trkpt>
      <trkpt lat="46.78105" lon="5.99687">
        <ele>784</ele>
        <time>2022-05-24T13:03:51Z</time>
      </trkpt>
      <trkpt lat="46.78104" lon="5.99678">
        <ele>784</ele>
        <time>2022-05-24T13:03:52Z</time>
      </trkpt>
      <trkpt lat="46.78104" lon="5.99669">
        <ele>784</ele>
        <time>2022-05-24T13:03:53Z</time>
      </trkpt>
      <trkpt lat="46.78104" lon="5.99661">
        <ele>784</ele>
        <time>2022-05-24T13:03:54Z</time>
      </trkpt>
      <trkpt lat="46.78104" lon="5.99652">
        <ele>784</ele>
        <time>2022-05-24T13:03:55Z</time>
      </trkpt>
      <trkpt lat="46.78104" lon="5.99643">
        <ele>784</ele>
        <time>2022-05-24T13:03:56Z</time>
      </trkpt>
      <trkpt lat="46.78104" lon="5.99634">
        <ele>784</ele>
        <time>2022-05-24T13:03:57Z</time>
      </trkpt>
      <trkpt lat="46.78104" lon="5.99625">
        <ele>784</ele>
        <time>2022-05-24T13:03:58Z</time>
      </trkpt>
      <trkpt lat="46.78104" lon="5.99617">
        <ele>784</ele>
        <time>2022-05-24T13:03:59Z</time>
      </trkpt>
      <trkpt lat="46.78104" lon="5.99608">
        <ele>784</ele>
        <time>2022-05-24T13:04:00Z</time>
      </trkpt>
      <trkpt lat="46.78104" lon="5.996">
        <ele>784</ele>
        <time>2022-05-24T13:04:01Z</time>
      </trkpt>
      <trkpt lat="46.78103" lon="5.99592">
        <ele>784.2</ele>
        <time>2022-05-24T13:04:02Z</time>
      </trkpt>
      <trkpt lat="46.78103" lon="5.99584">
        <ele>784.2</ele>
        <time>2022-05-24T13:04:03Z</time>
      </trkpt>
      <trkpt lat="46.78103" lon="5.99576">
        <ele>784.2</ele>
        <time>2022-05-24T13:04:04Z</time>
      </trkpt>
      <trkpt lat="46.78102" lon="5.99568">
        <ele>784.6</ele>
        <time>2022-05-24T13:04:05Z</time>
      </trkpt>
      <trkpt lat="46.78101" lon="5.99561">
        <ele>784.6</ele>
        <time>2022-05-24T13:04:06Z</time>
      </trkpt>
      <trkpt lat="46.78101" lon="5.99555">
        <ele>785</ele>
        <time>2022-05-24T13:04:07Z</time>
      </trkpt>
      <trkpt lat="46.781" lon="5.99549">
        <ele>785</ele>
        <time>2022-05-24T13:04:08Z</time>
      </trkpt>
      <trkpt lat="46.78099" lon="5.99543">
        <ele>785.4</ele>
        <time>2022-05-24T13:04:09Z</time>
      </trkpt>
      <trkpt lat="46.78099" lon="5.99538">
        <ele>785.6</ele>
        <time>2022-05-24T13:04:10Z</time>
      </trkpt>
      <trkpt lat="46.78098" lon="5.99533">
        <ele>785.8</ele>
        <time>2022-05-24T13:04:11Z</time>
      </trkpt>
      <trkpt lat="46.78097" lon="5.99527">
        <ele>786</ele>
        <time>2022-05-24T13:04:12Z</time>
      </trkpt>
      <trkpt lat="46.78097" lon="5.99522">
        <ele>786.2</ele>
        <time>2022-05-24T13:04:13Z</time>
      </trkpt>
      <trkpt lat="46.78096" lon="5.99518">
        <ele>786.4</ele>
        <time>2022-05-24T13:04:14Z</time>
      </trkpt>
      <trkpt lat="46.78095" lon="5.99513">
        <ele>786.8</ele>
        <time>2022-05-24T13:04:15Z</time>
      </trkpt>
      <trkpt lat="46.78094" lon="5.99508">
        <ele>786.8</ele>
        <time>2022-05-24T13:04:16Z</time>
      </trkpt>
      <trkpt lat="46.78093" lon="5.99503">
        <ele>787.2</ele>
        <time>2022-05-24T13:04:17Z</time>
      </trkpt>
      <trkpt lat="46.78092" lon="5.99499">
        <ele>787.2</ele>
        <time>2022-05-24T13:04:18Z</time>
      </trkpt>
      <trkpt lat="46.78091" lon="5.99494">
        <ele>787.6</ele>
        <time>2022-05-24T13:04:19Z</time>
      </trkpt>
      <trkpt lat="46.7809" lon="5.9949">
        <ele>787.8</ele>
        <time>2022-05-24T13:04:20Z</time>
      </trkpt>
      <trkpt lat="46.78088" lon="5.99485">
        <ele>788</ele>
        <time>2022-05-24T13:04:21Z</time>
      </trkpt>
      <trkpt lat="46.78087" lon="5.99481">
        <ele>788.2</ele>
        <time>2022-05-24T13:04:22Z</time>
      </trkpt>
      <trkpt lat="46.78085" lon="5.99476">
        <ele>788.4</ele>
        <time>2022-05-24T13:04:23Z</time>
      </trkpt>
      <trkpt lat="46.78083" lon="5.99472">
        <ele>788.8</ele>
        <time>2022-05-24T13:04:24Z</time>
      </trkpt>
      <trkpt lat="46.78082" lon="5.99468">
        <ele>789</ele>
        <time>2022-05-24T13:04:25Z</time>
      </trkpt>
      <trkpt lat="46.7808" lon="5.99464">
        <ele>789.2</ele>
        <time>2022-05-24T13:04:26Z</time>
      </trkpt>
      <trkpt lat="46.78078" lon="5.99461">
        <ele>789.4</ele>
        <time>2022-05-24T13:04:27Z</time>
      </trkpt>
      <trkpt lat="46.78076" lon="5.99457">
        <ele>789.6</ele>
        <time>2022-05-24T13:04:28Z</time>
      </trkpt>
      <trkpt lat="46.78073" lon="5.99454">
        <ele>789.6</ele>
        <time>2022-05-24T13:04:29Z</time>
      </trkpt>
      <trkpt lat="46.78071" lon="5.99451">
        <ele>790</ele>
        <time>2022-05-24T13:04:30Z</time>
      </trkpt>
      <trkpt lat="46.78069" lon="5.99448">
        <ele>790.4</ele>
        <time>2022-05-24T13:04:31Z</time>
      </trkpt>
      <trkpt lat="46.78066" lon="5.99445">
        <ele>790.6</ele>
        <time>2022-05-24T13:04:32Z</time>
      </trkpt>
      <trkpt lat="46.78063" lon="5.99442">
        <ele>790.8</ele>
        <time>2022-05-24T13:04:33Z</time>
      </trkpt>
      <trkpt lat="46.78061" lon="5.9944">
        <ele>791.2</ele>
        <time>2022-05-24T13:04:34Z</time>
      </trkpt>
      <trkpt lat="46.78059" lon="5.99438">
        <ele>791.2</ele>
        <time>2022-05-24T13:04:35Z</time>
      </trkpt>
      <trkpt lat="46.78057" lon="5.99436">
        <ele>791.4</ele>
        <time>2022-05-24T13:04:36Z</time>
      </trkpt>
      <trkpt lat="46.78055" lon="5.99433">
        <ele>791.4</ele>
        <time>2022-05-24T13:04:37Z</time>
      </trkpt>
      <trkpt lat="46.78055" lon="5.9943">
        <ele>791.4</ele>
        <time>2022-05-24T13:04:38Z</time>
      </trkpt>
      <trkpt lat="46.78055" lon="5.99426">
        <ele>791.8</ele>
        <time>2022-05-24T13:04:39Z</time>
      </trkpt>
      <trkpt lat="46.78056" lon="5.99423">
        <ele>791.8</ele>
        <time>2022-05-24T13:04:40Z</time>
      </trkpt>
      <trkpt lat="46.78057" lon="5.9942">
        <ele>792.2</ele>
        <time>2022-05-24T13:04:41Z</time>
      </trkpt>
      <trkpt lat="46.78058" lon="5.99419">
        <ele>792.4</ele>
        <time>2022-05-24T13:04:42Z</time>
      </trkpt>
      <trkpt lat="46.7806" lon="5.99418">
        <ele>792.4</ele>
        <time>2022-05-24T13:04:43Z</time>
      </trkpt>
      <trkpt lat="46.78062" lon="5.99417">
        <ele>792.8</ele>
        <time>2022-05-24T13:04:44Z</time>
      </trkpt>
      <trkpt lat="46.78064" lon="5.99416">
        <ele>793</ele>
        <time>2022-05-24T13:04:45Z</time>
      </trkpt>
      <trkpt lat="46.78067" lon="5.99416">
        <ele>793.2</ele>
        <time>2022-05-24T13:04:46Z</time>
      </trkpt>
      <trkpt lat="46.78069" lon="5.99415">
        <ele>793.4</ele>
        <time>2022-05-24T13:04:47Z</time>
      </trkpt>
      <trkpt lat="46.78072" lon="5.99415">
        <ele>793.4</ele>
        <time>2022-05-24T13:04:48Z</time>
      </trkpt>
      <trkpt lat="46.78075" lon="5.99415">
        <ele>793.8</ele>
        <time>2022-05-24T13:04:49Z</time>
      </trkpt>
      <trkpt lat="46.78078" lon="5.99415">
        <ele>793.8</ele>
        <time>2022-05-24T13:04:50Z</time>
      </trkpt>
      <trkpt lat="46.78081" lon="5.99416">
        <ele>794.2</ele>
        <time>2022-05-24T13:04:51Z</time>
      </trkpt>
      <trkpt lat="46.78084" lon="5.99417">
        <ele>794.2</ele>
        <time>2022-05-24T13:04:52Z</time>
      </trkpt>
      <trkpt lat="46.78087" lon="5.99418">
        <ele>794.2</ele>
        <time>2022-05-24T13:04:53Z</time>
      </trkpt>
      <trkpt lat="46.7809" lon="5.99419">
        <ele>794.4</ele>
        <time>2022-05-24T13:04:54Z</time>
      </trkpt>
      <trkpt lat="46.78093" lon="5.9942">
        <ele>794.6</ele>
        <time>2022-05-24T13:04:55Z</time>
      </trkpt>
      <trkpt lat="46.78096" lon="5.99422">
        <ele>794.6</ele>
        <time>2022-05-24T13:04:56Z</time>
      </trkpt>
      <trkpt lat="46.78099" lon="5.99423">
        <ele>794.6</ele>
        <time>2022-05-24T13:04:57Z</time>
      </trkpt>
      <trkpt lat="46.78101" lon="5.99425">
        <ele>795</ele>
        <time>2022-05-24T13:04:58Z</time>
      </trkpt>
      <trkpt lat="46.78104" lon="5.99427">
        <ele>795.2</ele>
        <time>2022-05-24T13:04:59Z</time>
      </trkpt>
      <trkpt lat="46.78106" lon="5.9943">
        <ele>795.4</ele>
        <time>2022-05-24T13:05:00Z</time>
      </trkpt>
      <trkpt lat="46.78109" lon="5.99432">
        <ele>795.4</ele>
        <time>2022-05-24T13:05:01Z</time>
      </trkpt>
      <trkpt lat="46.78111" lon="5.99434">
        <ele>795.6</ele>
        <time>2022-05-24T13:05:02Z</time>
      </trkpt>
      <trkpt lat="46.78114" lon="5.99436">
        <ele>795.6</ele>
        <time>2022-05-24T13:05:03Z</time>
      </trkpt>
      <trkpt lat="46.78116" lon="5.99438">
        <ele>796</ele>
        <time>2022-05-24T13:05:04Z</time>
      </trkpt>
      <trkpt lat="46.78118" lon="5.9944">
        <ele>796.2</ele>
        <time>2022-05-24T13:05:05Z</time>
      </trkpt>
      <trkpt lat="46.7812" lon="5.99442">
        <ele>796.2</ele>
        <time>2022-05-24T13:05:06Z</time>
      </trkpt>
      <trkpt lat="46.78122" lon="5.99444">
        <ele>796.6</ele>
        <time>2022-05-24T13:05:07Z</time>
      </trkpt>
      <trkpt lat="46.78124" lon="5.99446">
        <ele>796.8</ele>
        <time>2022-05-24T13:05:08Z</time>
      </trkpt>
      <trkpt lat="46.78126" lon="5.99448">
        <ele>797</ele>
        <time>2022-05-24T13:05:09Z</time>
      </trkpt>
      <trkpt lat="46.7813" lon="5.99452">
        <ele>797</ele>
        <time>2022-05-24T13:05:10Z</time>
      </trkpt>
      <trkpt lat="46.78132" lon="5.99454">
        <ele>797.6</ele>
        <time>2022-05-24T13:05:11Z</time>
      </trkpt>
      <trkpt lat="46.78134" lon="5.99457">
        <ele>797.8</ele>
        <time>2022-05-24T13:05:12Z</time>
      </trkpt>
      <trkpt lat="46.78136" lon="5.99459">
        <ele>798</ele>
        <time>2022-05-24T13:05:13Z</time>
      </trkpt>
      <trkpt lat="46.78136" lon="5.99459">
        <ele>798.2</ele>
        <time>2022-05-24T13:05:14Z</time>
      </trkpt>
      <trkpt lat="46.78139" lon="5.99462">
        <ele>798.2</ele>
        <time>2022-05-24T13:05:15Z</time>
      </trkpt>
      <trkpt lat="46.78142" lon="5.99465">
        <ele>798.8</ele>
        <time>2022-05-24T13:05:16Z</time>
      </trkpt>
      <trkpt lat="46.78144" lon="5.99467">
        <ele>799</ele>
        <time>2022-05-24T13:05:17Z</time>
      </trkpt>
      <trkpt lat="46.78147" lon="5.99469">
        <ele>799.2</ele>
        <time>2022-05-24T13:05:18Z</time>
      </trkpt>
      <trkpt lat="46.78149" lon="5.99471">
        <ele>799.6</ele>
        <time>2022-05-24T13:05:19Z</time>
      </trkpt>
      <trkpt lat="46.78156" lon="5.99474">
        <ele>799.6</ele>
        <time>2022-05-24T13:05:20Z</time>
      </trkpt>
      <trkpt lat="46.78159" lon="5.99475">
        <ele>800</ele>
        <time>2022-05-24T13:05:21Z</time>
      </trkpt>
      <trkpt lat="46.78163" lon="5.99475">
        <ele>800.2</ele>
        <time>2022-05-24T13:05:22Z</time>
      </trkpt>
      <trkpt lat="46.78166" lon="5.99476">
        <ele>800.6</ele>
        <time>2022-05-24T13:05:23Z</time>
      </trkpt>
      <trkpt lat="46.78169" lon="5.99476">
        <ele>800.8</ele>
        <time>2022-05-24T13:05:24Z</time>
      </trkpt>
      <trkpt lat="46.78172" lon="5.99474">
        <ele>800.8</ele>
        <time>2022-05-24T13:05:25Z</time>
      </trkpt>
      <trkpt lat="46.78175" lon="5.99472">
        <ele>801.4</ele>
        <time>2022-05-24T13:05:26Z</time>
      </trkpt>
      <trkpt lat="46.78177" lon="5.9947">
        <ele>801.6</ele>
        <time>2022-05-24T13:05:27Z</time>
      </trkpt>
      <trkpt lat="46.78179" lon="5.99467">
        <ele>801.8</ele>
        <time>2022-05-24T13:05:28Z</time>
      </trkpt>
      <trkpt lat="46.7818" lon="5.99464">
        <ele>802</ele>
        <time>2022-05-24T13:05:29Z</time>
      </trkpt>
      <trkpt lat="46.78182" lon="5.9946">
        <ele>802.4</ele>
        <time>2022-05-24T13:05:30Z</time>
      </trkpt>
      <trkpt lat="46.78184" lon="5.99457">
        <ele>802.6</ele>
        <time>2022-05-24T13:05:31Z</time>
      </trkpt>
      <trkpt lat="46.78186" lon="5.99454">
        <ele>802.6</ele>
        <time>2022-05-24T13:05:32Z</time>
      </trkpt>
      <trkpt lat="46.78187" lon="5.99451">
        <ele>803</ele>
        <time>2022-05-24T13:05:33Z</time>
      </trkpt>
      <trkpt lat="46.78188" lon="5.99447">
        <ele>803</ele>
        <time>2022-05-24T13:05:34Z</time>
      </trkpt>
      <trkpt lat="46.78188" lon="5.99444">
        <ele>803.2</ele>
        <time>2022-05-24T13:05:35Z</time>
      </trkpt>
      <trkpt lat="46.78187" lon="5.9944">
        <ele>803.2</ele>
        <time>2022-05-24T13:05:36Z</time>
      </trkpt>
      <trkpt lat="46.78187" lon="5.99437">
        <ele>803.6</ele>
        <time>2022-05-24T13:05:37Z</time>
      </trkpt>
      <trkpt lat="46.78187" lon="5.99434">
        <ele>804</ele>
        <time>2022-05-24T13:05:38Z</time>
      </trkpt>
      <trkpt lat="46.78187" lon="5.9943">
        <ele>804.2</ele>
        <time>2022-05-24T13:05:39Z</time>
      </trkpt>
      <trkpt lat="46.78186" lon="5.99427">
        <ele>804.4</ele>
        <time>2022-05-24T13:05:40Z</time>
      </trkpt>
      <trkpt lat="46.78186" lon="5.99423">
        <ele>804.4</ele>
        <time>2022-05-24T13:05:41Z</time>
      </trkpt>
      <trkpt lat="46.78186" lon="5.9942">
        <ele>804.4</ele>
        <time>2022-05-24T13:05:42Z</time>
      </trkpt>
      <trkpt lat="46.78186" lon="5.99418">
        <ele>804.8</ele>
        <time>2022-05-24T13:05:43Z</time>
      </trkpt>
      <trkpt lat="46.78185" lon="5.99415">
        <ele>805</ele>
        <time>2022-05-24T13:05:44Z</time>
      </trkpt>
      <trkpt lat="46.78185" lon="5.99412">
        <ele>805</ele>
        <time>2022-05-24T13:05:45Z</time>
      </trkpt>
      <trkpt lat="46.78184" lon="5.99409">
        <ele>805.4</ele>
        <time>2022-05-24T13:05:46Z</time>
      </trkpt>
      <trkpt lat="46.78183" lon="5.99405">
        <ele>805.4</ele>
        <time>2022-05-24T13:05:47Z</time>
      </trkpt>
      <trkpt lat="46.78182" lon="5.99401">
        <ele>805.6</ele>
        <time>2022-05-24T13:05:48Z</time>
      </trkpt>
      <trkpt lat="46.78182" lon="5.99397">
        <ele>805.6</ele>
        <time>2022-05-24T13:05:49Z</time>
      </trkpt>
      <trkpt lat="46.78182" lon="5.99392">
        <ele>805.6</ele>
        <time>2022-05-24T13:05:50Z</time>
      </trkpt>
      <trkpt lat="46.78182" lon="5.99387">
        <ele>805.8</ele>
        <time>2022-05-24T13:05:51Z</time>
      </trkpt>
      <trkpt lat="46.78183" lon="5.99383">
        <ele>805.8</ele>
        <time>2022-05-24T13:05:52Z</time>
      </trkpt>
      <trkpt lat="46.78183" lon="5.99379">
        <ele>805.8</ele>
        <time>2022-05-24T13:05:53Z</time>
      </trkpt>
      <trkpt lat="46.78184" lon="5.99375">
        <ele>806.2</ele>
        <time>2022-05-24T13:05:54Z</time>
      </trkpt>
      <trkpt lat="46.78185" lon="5.99371">
        <ele>806.2</ele>
        <time>2022-05-24T13:05:55Z</time>
      </trkpt>
      <trkpt lat="46.78186" lon="5.99366">
        <ele>806.2</ele>
        <time>2022-05-24T13:05:56Z</time>
      </trkpt>
      <trkpt lat="46.78187" lon="5.99362">
        <ele>806.4</ele>
        <time>2022-05-24T13:05:57Z</time>
      </trkpt>
      <trkpt lat="46.78188" lon="5.99357">
        <ele>806.4</ele>
        <time>2022-05-24T13:05:58Z</time>
      </trkpt>
      <trkpt lat="46.78189" lon="5.99352">
        <ele>806.4</ele>
        <time>2022-05-24T13:05:59Z</time>
      </trkpt>
      <trkpt lat="46.7819" lon="5.99348">
        <ele>806.8</ele>
        <time>2022-05-24T13:06:00Z</time>
      </trkpt>
      <trkpt lat="46.78191" lon="5.99344">
        <ele>807</ele>
        <time>2022-05-24T13:06:01Z</time>
      </trkpt>
      <trkpt lat="46.78192" lon="5.9934">
        <ele>807</ele>
        <time>2022-05-24T13:06:02Z</time>
      </trkpt>
      <trkpt lat="46.78192" lon="5.99336">
        <ele>807.4</ele>
        <time>2022-05-24T13:06:03Z</time>
      </trkpt>
      <trkpt lat="46.78193" lon="5.99333">
        <ele>807.4</ele>
        <time>2022-05-24T13:06:04Z</time>
      </trkpt>
      <trkpt lat="46.78194" lon="5.99329">
        <ele>807.4</ele>
        <time>2022-05-24T13:06:05Z</time>
      </trkpt>
      <trkpt lat="46.78196" lon="5.99325">
        <ele>807.6</ele>
        <time>2022-05-24T13:06:06Z</time>
      </trkpt>
      <trkpt lat="46.78197" lon="5.99321">
        <ele>807.6</ele>
        <time>2022-05-24T13:06:07Z</time>
      </trkpt>
      <trkpt lat="46.78198" lon="5.99318">
        <ele>807.6</ele>
        <time>2022-05-24T13:06:08Z</time>
      </trkpt>
      <trkpt lat="46.78198" lon="5.99316">
        <ele>807.6</ele>
        <time>2022-05-24T13:06:09Z</time>
      </trkpt>
      <trkpt lat="46.78198" lon="5.99315">
        <ele>807.6</ele>
        <time>2022-05-24T13:06:10Z</time>
      </trkpt>
      <trkpt lat="46.78198" lon="5.99315">
        <ele>807.4</ele>
        <time>2022-05-24T13:06:11Z</time>
      </trkpt>
      <trkpt lat="46.78198" lon="5.99315">
        <ele>807.4</ele>
        <time>2022-05-24T13:06:12Z</time>
      </trkpt>
      <trkpt lat="46.78199" lon="5.99314">
        <ele>807.4</ele>
        <time>2022-05-24T13:06:13Z</time>
      </trkpt>
      <trkpt lat="46.78199" lon="5.99314">
        <ele>807.4</ele>
        <time>2022-05-24T13:06:14Z</time>
      </trkpt>
      <trkpt lat="46.78199" lon="5.99313">
        <ele>807.4</ele>
        <time>2022-05-24T13:06:15Z</time>
      </trkpt>
      <trkpt lat="46.78199" lon="5.99313">
        <ele>807.2</ele>
        <time>2022-05-24T13:06:16Z</time>
      </trkpt>
      <trkpt lat="46.78199" lon="5.99312">
        <ele>807.2</ele>
        <time>2022-05-24T13:06:29Z</time>
      </trkpt>
      <trkpt lat="46.78199" lon="5.99312">
        <ele>807.2</ele>
        <time>2022-05-24T13:06:30Z</time>
      </trkpt>
      <trkpt lat="46.78199" lon="5.99311">
        <ele>807.2</ele>
        <time>2022-05-24T13:06:31Z</time>
      </trkpt>
      <trkpt lat="46.782" lon="5.99311">
        <ele>807.2</ele>
        <time>2022-05-24T13:06:32Z</time>
      </trkpt>
      <trkpt lat="46.782" lon="5.9931">
        <ele>807.2</ele>
        <time>2022-05-24T13:06:33Z</time>
      </trkpt>
      <trkpt lat="46.782" lon="5.9931">
        <ele>807.2</ele>
        <time>2022-05-24T13:06:34Z</time>
      </trkpt>
      <trkpt lat="46.782" lon="5.99309">
        <ele>807.2</ele>
        <time>2022-05-24T13:06:35Z</time>
      </trkpt>
      <trkpt lat="46.782" lon="5.99309">
        <ele>807.2</ele>
        <time>2022-05-24T13:06:36Z</time>
      </trkpt>
      <trkpt lat="46.782" lon="5.99308">
        <ele>807.2</ele>
        <time>2022-05-24T13:06:37Z</time>
      </trkpt>
      <trkpt lat="46.782" lon="5.99308">
        <ele>807.2</ele>
        <time>2022-05-24T13:06:38Z</time>
      </trkpt>
      <trkpt lat="46.78201" lon="5.99308">
        <ele>807.2</ele>
        <time>2022-05-24T13:06:39Z</time>
      </trkpt>
      <trkpt lat="46.78202" lon="5.99305">
        <ele>807.2</ele>
        <time>2022-05-24T13:06:40Z</time>
      </trkpt>
      <trkpt lat="46.78203" lon="5.99302">
        <ele>806.8</ele>
        <time>2022-05-24T13:06:41Z</time>
      </trkpt>
      <trkpt lat="46.78204" lon="5.993">
        <ele>806.8</ele>
        <time>2022-05-24T13:06:42Z</time>
      </trkpt>
      <trkpt lat="46.78206" lon="5.99297">
        <ele>806.6</ele>
        <time>2022-05-24T13:06:43Z</time>
      </trkpt>
      <trkpt lat="46.78208" lon="5.99294">
        <ele>806.6</ele>
        <time>2022-05-24T13:06:44Z</time>
      </trkpt>
      <trkpt lat="46.78209" lon="5.99292">
        <ele>806.2</ele>
        <time>2022-05-24T13:06:45Z</time>
      </trkpt>
      <trkpt lat="46.7821" lon="5.99289">
        <ele>806.2</ele>
        <time>2022-05-24T13:06:46Z</time>
      </trkpt>
      <trkpt lat="46.78212" lon="5.99287">
        <ele>805.8</ele>
        <time>2022-05-24T13:06:47Z</time>
      </trkpt>
      <trkpt lat="46.78214" lon="5.99285">
        <ele>805.6</ele>
        <time>2022-05-24T13:06:48Z</time>
      </trkpt>
      <trkpt lat="46.78217" lon="5.99282">
        <ele>805.6</ele>
        <time>2022-05-24T13:06:49Z</time>
      </trkpt>
      <trkpt lat="46.7822" lon="5.9928">
        <ele>805.4</ele>
        <time>2022-05-24T13:06:50Z</time>
      </trkpt>
      <trkpt lat="46.78223" lon="5.99277">
        <ele>805</ele>
        <time>2022-05-24T13:06:51Z</time>
      </trkpt>
      <trkpt lat="46.78226" lon="5.99275">
        <ele>804.6</ele>
        <time>2022-05-24T13:06:52Z</time>
      </trkpt>
      <trkpt lat="46.78229" lon="5.99271">
        <ele>804.2</ele>
        <time>2022-05-24T13:06:53Z</time>
      </trkpt>
      <trkpt lat="46.78232" lon="5.99267">
        <ele>804</ele>
        <time>2022-05-24T13:06:54Z</time>
      </trkpt>
      <trkpt lat="46.78234" lon="5.99263">
        <ele>803.6</ele>
        <time>2022-05-24T13:06:55Z</time>
      </trkpt>
      <trkpt lat="46.78236" lon="5.99258">
        <ele>803.4</ele>
        <time>2022-05-24T13:06:56Z</time>
      </trkpt>
      <trkpt lat="46.78237" lon="5.99252">
        <ele>803</ele>
        <time>2022-05-24T13:06:57Z</time>
      </trkpt>
      <trkpt lat="46.7824" lon="5.99246">
        <ele>802.6</ele>
        <time>2022-05-24T13:06:58Z</time>
      </trkpt>
      <trkpt lat="46.78244" lon="5.99238">
        <ele>802.2</ele>
        <time>2022-05-24T13:06:59Z</time>
      </trkpt>
      <trkpt lat="46.78248" lon="5.9923">
        <ele>801.8</ele>
        <time>2022-05-24T13:07:00Z</time>
      </trkpt>
      <trkpt lat="46.78253" lon="5.99223">
        <ele>801.4</ele>
        <time>2022-05-24T13:07:01Z</time>
      </trkpt>
      <trkpt lat="46.78257" lon="5.99215">
        <ele>801</ele>
        <time>2022-05-24T13:07:02Z</time>
      </trkpt>
      <trkpt lat="46.78263" lon="5.99208">
        <ele>800.4</ele>
        <time>2022-05-24T13:07:03Z</time>
      </trkpt>
      <trkpt lat="46.78269" lon="5.99202">
        <ele>799.8</ele>
        <time>2022-05-24T13:07:04Z</time>
      </trkpt>
      <trkpt lat="46.78275" lon="5.99197">
        <ele>799.2</ele>
        <time>2022-05-24T13:07:05Z</time>
      </trkpt>
      <trkpt lat="46.7828" lon="5.99193">
        <ele>798.8</ele>
        <time>2022-05-24T13:07:06Z</time>
      </trkpt>
      <trkpt lat="46.78284" lon="5.99189">
        <ele>798.4</ele>
        <time>2022-05-24T13:07:07Z</time>
      </trkpt>
      <trkpt lat="46.78288" lon="5.99186">
        <ele>798</ele>
        <time>2022-05-24T13:07:08Z</time>
      </trkpt>
      <trkpt lat="46.78293" lon="5.99185">
        <ele>797.6</ele>
        <time>2022-05-24T13:07:09Z</time>
      </trkpt>
      <trkpt lat="46.78297" lon="5.99184">
        <ele>797.4</ele>
        <time>2022-05-24T13:07:10Z</time>
      </trkpt>
      <trkpt lat="46.78301" lon="5.99186">
        <ele>797.4</ele>
        <time>2022-05-24T13:07:11Z</time>
      </trkpt>
      <trkpt lat="46.78305" lon="5.9919">
        <ele>797.4</ele>
        <time>2022-05-24T13:07:12Z</time>
      </trkpt>
      <trkpt lat="46.78309" lon="5.99194">
        <ele>797.2</ele>
        <time>2022-05-24T13:07:13Z</time>
      </trkpt>
      <trkpt lat="46.78313" lon="5.99199">
        <ele>797.2</ele>
        <time>2022-05-24T13:07:14Z</time>
      </trkpt>
      <trkpt lat="46.78318" lon="5.99203">
        <ele>797.2</ele>
        <time>2022-05-24T13:07:15Z</time>
      </trkpt>
      <trkpt lat="46.78322" lon="5.99207">
        <ele>797.2</ele>
        <time>2022-05-24T13:07:16Z</time>
      </trkpt>
      <trkpt lat="46.78326" lon="5.99211">
        <ele>797.2</ele>
        <time>2022-05-24T13:07:17Z</time>
      </trkpt>
      <trkpt lat="46.7833" lon="5.99216">
        <ele>797.2</ele>
        <time>2022-05-24T13:07:18Z</time>
      </trkpt>
      <trkpt lat="46.78335" lon="5.99221">
        <ele>797.2</ele>
        <time>2022-05-24T13:07:19Z</time>
      </trkpt>
      <trkpt lat="46.78339" lon="5.99226">
        <ele>797.2</ele>
        <time>2022-05-24T13:07:20Z</time>
      </trkpt>
      <trkpt lat="46.78343" lon="5.9923">
        <ele>797.2</ele>
        <time>2022-05-24T13:07:21Z</time>
      </trkpt>
      <trkpt lat="46.78348" lon="5.99235">
        <ele>797.2</ele>
        <time>2022-05-24T13:07:22Z</time>
      </trkpt>
      <trkpt lat="46.78352" lon="5.9924">
        <ele>797.2</ele>
        <time>2022-05-24T13:07:23Z</time>
      </trkpt>
      <trkpt lat="46.78356" lon="5.99245">
        <ele>797.2</ele>
        <time>2022-05-24T13:07:24Z</time>
      </trkpt>
      <trkpt lat="46.78361" lon="5.9925">
        <ele>797.6</ele>
        <time>2022-05-24T13:07:25Z</time>
      </trkpt>
      <trkpt lat="46.78365" lon="5.99254">
        <ele>797.6</ele>
        <time>2022-05-24T13:07:26Z</time>
      </trkpt>
      <trkpt lat="46.78369" lon="5.99259">
        <ele>797.6</ele>
        <time>2022-05-24T13:07:27Z</time>
      </trkpt>
      <trkpt lat="46.78373" lon="5.99264">
        <ele>798</ele>
        <time>2022-05-24T13:07:28Z</time>
      </trkpt>
      <trkpt lat="46.78377" lon="5.99269">
        <ele>798</ele>
        <time>2022-05-24T13:07:29Z</time>
      </trkpt>
      <trkpt lat="46.78382" lon="5.99273">
        <ele>798.2</ele>
        <time>2022-05-24T13:07:30Z</time>
      </trkpt>
      <trkpt lat="46.78386" lon="5.99278">
        <ele>798.2</ele>
        <time>2022-05-24T13:07:31Z</time>
      </trkpt>
      <trkpt lat="46.7839" lon="5.99282">
        <ele>798.4</ele>
        <time>2022-05-24T13:07:32Z</time>
      </trkpt>
      <trkpt lat="46.78394" lon="5.99287">
        <ele>798.4</ele>
        <time>2022-05-24T13:07:33Z</time>
      </trkpt>
      <trkpt lat="46.78398" lon="5.99291">
        <ele>798.4</ele>
        <time>2022-05-24T13:07:34Z</time>
      </trkpt>
      <trkpt lat="46.78402" lon="5.99296">
        <ele>798.4</ele>
        <time>2022-05-24T13:07:35Z</time>
      </trkpt>
      <trkpt lat="46.78406" lon="5.99301">
        <ele>798.4</ele>
        <time>2022-05-24T13:07:36Z</time>
      </trkpt>
      <trkpt lat="46.7841" lon="5.99306">
        <ele>798.4</ele>
        <time>2022-05-24T13:07:37Z</time>
      </trkpt>
      <trkpt lat="46.78414" lon="5.9931">
        <ele>798.4</ele>
        <time>2022-05-24T13:07:38Z</time>
      </trkpt>
      <trkpt lat="46.78418" lon="5.99315">
        <ele>798.4</ele>
        <time>2022-05-24T13:07:39Z</time>
      </trkpt>
      <trkpt lat="46.78422" lon="5.9932">
        <ele>798.4</ele>
        <time>2022-05-24T13:07:40Z</time>
      </trkpt>
      <trkpt lat="46.78426" lon="5.99325">
        <ele>798.6</ele>
        <time>2022-05-24T13:07:41Z</time>
      </trkpt>
      <trkpt lat="46.78431" lon="5.99329">
        <ele>798.6</ele>
        <time>2022-05-24T13:07:42Z</time>
      </trkpt>
      <trkpt lat="46.78435" lon="5.99334">
        <ele>798.6</ele>
        <time>2022-05-24T13:07:43Z</time>
      </trkpt>
      <trkpt lat="46.78439" lon="5.99339">
        <ele>799</ele>
        <time>2022-05-24T13:07:44Z</time>
      </trkpt>
      <trkpt lat="46.78443" lon="5.99344">
        <ele>799</ele>
        <time>2022-05-24T13:07:45Z</time>
      </trkpt>
      <trkpt lat="46.78447" lon="5.99349">
        <ele>799.2</ele>
        <time>2022-05-24T13:07:46Z</time>
      </trkpt>
      <trkpt lat="46.78451" lon="5.99353">
        <ele>799.2</ele>
        <time>2022-05-24T13:07:47Z</time>
      </trkpt>
      <trkpt lat="46.78455" lon="5.99358">
        <ele>799.6</ele>
        <time>2022-05-24T13:07:48Z</time>
      </trkpt>
      <trkpt lat="46.78459" lon="5.99362">
        <ele>799.6</ele>
        <time>2022-05-24T13:07:49Z</time>
      </trkpt>
      <trkpt lat="46.78463" lon="5.99367">
        <ele>799.8</ele>
        <time>2022-05-24T13:07:50Z</time>
      </trkpt>
      <trkpt lat="46.78463" lon="5.99367">
        <ele>799.8</ele>
        <time>2022-05-24T13:07:51Z</time>
      </trkpt>
      <trkpt lat="46.78467" lon="5.99371">
        <ele>800.2</ele>
        <time>2022-05-24T13:07:52Z</time>
      </trkpt>
      <trkpt lat="46.78471" lon="5.99376">
        <ele>800.2</ele>
        <time>2022-05-24T13:07:53Z</time>
      </trkpt>
      <trkpt lat="46.78474" lon="5.9938">
        <ele>800.2</ele>
        <time>2022-05-24T13:07:54Z</time>
      </trkpt>
      <trkpt lat="46.78478" lon="5.99385">
        <ele>800.2</ele>
        <time>2022-05-24T13:07:55Z</time>
      </trkpt>
      <trkpt lat="46.78482" lon="5.99389">
        <ele>800.2</ele>
        <time>2022-05-24T13:07:56Z</time>
      </trkpt>
      <trkpt lat="46.78486" lon="5.99394">
        <ele>800.6</ele>
        <time>2022-05-24T13:07:57Z</time>
      </trkpt>
      <trkpt lat="46.7849" lon="5.99398">
        <ele>800.6</ele>
        <time>2022-05-24T13:07:58Z</time>
      </trkpt>
      <trkpt lat="46.78494" lon="5.99403">
        <ele>800.6</ele>
        <time>2022-05-24T13:07:59Z</time>
      </trkpt>
      <trkpt lat="46.78498" lon="5.99407">
        <ele>800.6</ele>
        <time>2022-05-24T13:08:00Z</time>
      </trkpt>
      <trkpt lat="46.78501" lon="5.99412">
        <ele>800.6</ele>
        <time>2022-05-24T13:08:01Z</time>
      </trkpt>
      <trkpt lat="46.78505" lon="5.99416">
        <ele>800.6</ele>
        <time>2022-05-24T13:08:02Z</time>
      </trkpt>
      <trkpt lat="46.78509" lon="5.9942">
        <ele>800.6</ele>
        <time>2022-05-24T13:08:03Z</time>
      </trkpt>
      <trkpt lat="46.78512" lon="5.99424">
        <ele>800.8</ele>
        <time>2022-05-24T13:08:04Z</time>
      </trkpt>
      <trkpt lat="46.78516" lon="5.99429">
        <ele>801.2</ele>
        <time>2022-05-24T13:08:05Z</time>
      </trkpt>
      <trkpt lat="46.78519" lon="5.99433">
        <ele>801.4</ele>
        <time>2022-05-24T13:08:06Z</time>
      </trkpt>
      <trkpt lat="46.78523" lon="5.99437">
        <ele>801.6</ele>
        <time>2022-05-24T13:08:07Z</time>
      </trkpt>
      <trkpt lat="46.78526" lon="5.99442">
        <ele>801.8</ele>
        <time>2022-05-24T13:08:08Z</time>
      </trkpt>
      <trkpt lat="46.7853" lon="5.99446">
        <ele>802.2</ele>
        <time>2022-05-24T13:08:09Z</time>
      </trkpt>
      <trkpt lat="46.78533" lon="5.9945">
        <ele>802.6</ele>
        <time>2022-05-24T13:08:10Z</time>
      </trkpt>
      <trkpt lat="46.78537" lon="5.99454">
        <ele>803</ele>
        <time>2022-05-24T13:08:11Z</time>
      </trkpt>
      <trkpt lat="46.78541" lon="5.99459">
        <ele>803.4</ele>
        <time>2022-05-24T13:08:12Z</time>
      </trkpt>
      <trkpt lat="46.78544" lon="5.99463">
        <ele>803.8</ele>
        <time>2022-05-24T13:08:13Z</time>
      </trkpt>
      <trkpt lat="46.78547" lon="5.99467">
        <ele>804</ele>
        <time>2022-05-24T13:08:14Z</time>
      </trkpt>
      <trkpt lat="46.78551" lon="5.99471">
        <ele>804.4</ele>
        <time>2022-05-24T13:08:15Z</time>
      </trkpt>
      <trkpt lat="46.78554" lon="5.99475">
        <ele>804.6</ele>
        <time>2022-05-24T13:08:16Z</time>
      </trkpt>
      <trkpt lat="46.78558" lon="5.99479">
        <ele>805</ele>
        <time>2022-05-24T13:08:17Z</time>
      </trkpt>
      <trkpt lat="46.78562" lon="5.99483">
        <ele>805.4</ele>
        <time>2022-05-24T13:08:18Z</time>
      </trkpt>
      <trkpt lat="46.78565" lon="5.99487">
        <ele>805.8</ele>
        <time>2022-05-24T13:08:19Z</time>
      </trkpt>
      <trkpt lat="46.78569" lon="5.9949">
        <ele>806</ele>
        <time>2022-05-24T13:08:20Z</time>
      </trkpt>
      <trkpt lat="46.78572" lon="5.99494">
        <ele>806.2</ele>
        <time>2022-05-24T13:08:21Z</time>
      </trkpt>
      <trkpt lat="46.78576" lon="5.99499">
        <ele>806.6</ele>
        <time>2022-05-24T13:08:22Z</time>
      </trkpt>
      <trkpt lat="46.78579" lon="5.99503">
        <ele>806.8</ele>
        <time>2022-05-24T13:08:23Z</time>
      </trkpt>
      <trkpt lat="46.78583" lon="5.99507">
        <ele>807</ele>
        <time>2022-05-24T13:08:24Z</time>
      </trkpt>
      <trkpt lat="46.78586" lon="5.9951">
        <ele>807.4</ele>
        <time>2022-05-24T13:08:25Z</time>
      </trkpt>
      <trkpt lat="46.78589" lon="5.99514">
        <ele>807.6</ele>
        <time>2022-05-24T13:08:26Z</time>
      </trkpt>
      <trkpt lat="46.78591" lon="5.99517">
        <ele>807.6</ele>
        <time>2022-05-24T13:08:27Z</time>
      </trkpt>
      <trkpt lat="46.78594" lon="5.99521">
        <ele>808.2</ele>
        <time>2022-05-24T13:08:28Z</time>
      </trkpt>
      <trkpt lat="46.78597" lon="5.99524">
        <ele>808.2</ele>
        <time>2022-05-24T13:08:29Z</time>
      </trkpt>
      <trkpt lat="46.78599" lon="5.99527">
        <ele>808.4</ele>
        <time>2022-05-24T13:08:30Z</time>
      </trkpt>
      <trkpt lat="46.78602" lon="5.99531">
        <ele>808.4</ele>
        <time>2022-05-24T13:08:31Z</time>
      </trkpt>
      <trkpt lat="46.78605" lon="5.99535">
        <ele>808.6</ele>
        <time>2022-05-24T13:08:32Z</time>
      </trkpt>
      <trkpt lat="46.78608" lon="5.9954">
        <ele>808.6</ele>
        <time>2022-05-24T13:08:33Z</time>
      </trkpt>
      <trkpt lat="46.78612" lon="5.99545">
        <ele>808.6</ele>
        <time>2022-05-24T13:08:34Z</time>
      </trkpt>
      <trkpt lat="46.78615" lon="5.9955">
        <ele>808.6</ele>
        <time>2022-05-24T13:08:35Z</time>
      </trkpt>
      <trkpt lat="46.78619" lon="5.99555">
        <ele>808.6</ele>
        <time>2022-05-24T13:08:36Z</time>
      </trkpt>
      <trkpt lat="46.78623" lon="5.99561">
        <ele>808.6</ele>
        <time>2022-05-24T13:08:37Z</time>
      </trkpt>
      <trkpt lat="46.78627" lon="5.99568">
        <ele>808.6</ele>
        <time>2022-05-24T13:08:38Z</time>
      </trkpt>
      <trkpt lat="46.78631" lon="5.99575">
        <ele>808.4</ele>
        <time>2022-05-24T13:08:39Z</time>
      </trkpt>
      <trkpt lat="46.78636" lon="5.99582">
        <ele>808.4</ele>
        <time>2022-05-24T13:08:40Z</time>
      </trkpt>
      <trkpt lat="46.78641" lon="5.99589">
        <ele>808</ele>
        <time>2022-05-24T13:08:41Z</time>
      </trkpt>
      <trkpt lat="46.78646" lon="5.99596">
        <ele>808</ele>
        <time>2022-05-24T13:08:42Z</time>
      </trkpt>
      <trkpt lat="46.7865" lon="5.99603">
        <ele>808</ele>
        <time>2022-05-24T13:08:43Z</time>
      </trkpt>
      <trkpt lat="46.78655" lon="5.9961">
        <ele>808</ele>
        <time>2022-05-24T13:08:44Z</time>
      </trkpt>
      <trkpt lat="46.7866" lon="5.99618">
        <ele>808</ele>
        <time>2022-05-24T13:08:45Z</time>
      </trkpt>
      <trkpt lat="46.78665" lon="5.99625">
        <ele>807.8</ele>
        <time>2022-05-24T13:08:46Z</time>
      </trkpt>
      <trkpt lat="46.78669" lon="5.99632">
        <ele>807.8</ele>
        <time>2022-05-24T13:08:47Z</time>
      </trkpt>
      <trkpt lat="46.78673" lon="5.99639">
        <ele>807.8</ele>
        <time>2022-05-24T13:08:48Z</time>
      </trkpt>
      <trkpt lat="46.78678" lon="5.99645">
        <ele>807.8</ele>
        <time>2022-05-24T13:08:49Z</time>
      </trkpt>
      <trkpt lat="46.78682" lon="5.99652">
        <ele>807.8</ele>
        <time>2022-05-24T13:08:50Z</time>
      </trkpt>
      <trkpt lat="46.78686" lon="5.99658">
        <ele>808.2</ele>
        <time>2022-05-24T13:08:51Z</time>
      </trkpt>
      <trkpt lat="46.7869" lon="5.99664">
        <ele>808.2</ele>
        <time>2022-05-24T13:08:52Z</time>
      </trkpt>
      <trkpt lat="46.78694" lon="5.9967">
        <ele>808.2</ele>
        <time>2022-05-24T13:08:53Z</time>
      </trkpt>
      <trkpt lat="46.78699" lon="5.99677">
        <ele>808.4</ele>
        <time>2022-05-24T13:08:54Z</time>
      </trkpt>
      <trkpt lat="46.78703" lon="5.99683">
        <ele>808.4</ele>
        <time>2022-05-24T13:08:55Z</time>
      </trkpt>
      <trkpt lat="46.78707" lon="5.9969">
        <ele>808.4</ele>
        <time>2022-05-24T13:08:56Z</time>
      </trkpt>
      <trkpt lat="46.78711" lon="5.99696">
        <ele>808.4</ele>
        <time>2022-05-24T13:08:57Z</time>
      </trkpt>
      <trkpt lat="46.78715" lon="5.99702">
        <ele>808.4</ele>
        <time>2022-05-24T13:08:58Z</time>
      </trkpt>
      <trkpt lat="46.7872" lon="5.99709">
        <ele>808.4</ele>
        <time>2022-05-24T13:08:59Z</time>
      </trkpt>
      <trkpt lat="46.78724" lon="5.99715">
        <ele>808.6</ele>
        <time>2022-05-24T13:09:00Z</time>
      </trkpt>
      <trkpt lat="46.78728" lon="5.99722">
        <ele>808.6</ele>
        <time>2022-05-24T13:09:01Z</time>
      </trkpt>
      <trkpt lat="46.78733" lon="5.99729">
        <ele>808.6</ele>
        <time>2022-05-24T13:09:02Z</time>
      </trkpt>
      <trkpt lat="46.78737" lon="5.99735">
        <ele>808.6</ele>
        <time>2022-05-24T13:09:03Z</time>
      </trkpt>
      <trkpt lat="46.78741" lon="5.99741">
        <ele>808.6</ele>
        <time>2022-05-24T13:09:04Z</time>
      </trkpt>
      <trkpt lat="46.78745" lon="5.99747">
        <ele>808.8</ele>
        <time>2022-05-24T13:09:05Z</time>
      </trkpt>
      <trkpt lat="46.78749" lon="5.99753">
        <ele>808.8</ele>
        <time>2022-05-24T13:09:06Z</time>
      </trkpt>
      <trkpt lat="46.78753" lon="5.99759">
        <ele>808.8</ele>
        <time>2022-05-24T13:09:07Z</time>
      </trkpt>
      <trkpt lat="46.78757" lon="5.99765">
        <ele>809</ele>
        <time>2022-05-24T13:09:08Z</time>
      </trkpt>
      <trkpt lat="46.78761" lon="5.99771">
        <ele>809</ele>
        <time>2022-05-24T13:09:09Z</time>
      </trkpt>
      <trkpt lat="46.78765" lon="5.99777">
        <ele>809</ele>
        <time>2022-05-24T13:09:10Z</time>
      </trkpt>
      <trkpt lat="46.78769" lon="5.99783">
        <ele>809</ele>
        <time>2022-05-24T13:09:11Z</time>
      </trkpt>
      <trkpt lat="46.78774" lon="5.9979">
        <ele>809</ele>
        <time>2022-05-24T13:09:12Z</time>
      </trkpt>
      <trkpt lat="46.78778" lon="5.99797">
        <ele>809</ele>
        <time>2022-05-24T13:09:13Z</time>
      </trkpt>
      <trkpt lat="46.78783" lon="5.99804">
        <ele>809</ele>
        <time>2022-05-24T13:09:14Z</time>
      </trkpt>
      <trkpt lat="46.78788" lon="5.99811">
        <ele>808.6</ele>
        <time>2022-05-24T13:09:15Z</time>
      </trkpt>
      <trkpt lat="46.78793" lon="5.99819">
        <ele>808.6</ele>
        <time>2022-05-24T13:09:16Z</time>
      </trkpt>
      <trkpt lat="46.78798" lon="5.99827">
        <ele>808.4</ele>
        <time>2022-05-24T13:09:17Z</time>
      </trkpt>
      <trkpt lat="46.78803" lon="5.99834">
        <ele>808.4</ele>
        <time>2022-05-24T13:09:18Z</time>
      </trkpt>
      <trkpt lat="46.78808" lon="5.99842">
        <ele>808</ele>
        <time>2022-05-24T13:09:19Z</time>
      </trkpt>
      <trkpt lat="46.78814" lon="5.9985">
        <ele>808</ele>
        <time>2022-05-24T13:09:20Z</time>
      </trkpt>
      <trkpt lat="46.78819" lon="5.99858">
        <ele>807.8</ele>
        <time>2022-05-24T13:09:21Z</time>
      </trkpt>
      <trkpt lat="46.78824" lon="5.99866">
        <ele>807.8</ele>
        <time>2022-05-24T13:09:22Z</time>
      </trkpt>
      <trkpt lat="46.7883" lon="5.99874">
        <ele>807.8</ele>
        <time>2022-05-24T13:09:23Z</time>
      </trkpt>
      <trkpt lat="46.78835" lon="5.99882">
        <ele>807.8</ele>
        <time>2022-05-24T13:09:24Z</time>
      </trkpt>
      <trkpt lat="46.7884" lon="5.9989">
        <ele>807.8</ele>
        <time>2022-05-24T13:09:25Z</time>
      </trkpt>
      <trkpt lat="46.78845" lon="5.99898">
        <ele>807.8</ele>
        <time>2022-05-24T13:09:26Z</time>
      </trkpt>
      <trkpt lat="46.78851" lon="5.99906">
        <ele>807.6</ele>
        <time>2022-05-24T13:09:27Z</time>
      </trkpt>
      <trkpt lat="46.78856" lon="5.99914">
        <ele>807.6</ele>
        <time>2022-05-24T13:09:28Z</time>
      </trkpt>
      <trkpt lat="46.78861" lon="5.99922">
        <ele>807.6</ele>
        <time>2022-05-24T13:09:29Z</time>
      </trkpt>
      <trkpt lat="46.78866" lon="5.99929">
        <ele>807.6</ele>
        <time>2022-05-24T13:09:30Z</time>
      </trkpt>
      <trkpt lat="46.78871" lon="5.99936">
        <ele>807.6</ele>
        <time>2022-05-24T13:09:31Z</time>
      </trkpt>
      <trkpt lat="46.78876" lon="5.99943">
        <ele>807.8</ele>
        <time>2022-05-24T13:09:32Z</time>
      </trkpt>
      <trkpt lat="46.7888" lon="5.9995">
        <ele>807.8</ele>
        <time>2022-05-24T13:09:33Z</time>
      </trkpt>
      <trkpt lat="46.78885" lon="5.99957">
        <ele>807.8</ele>
        <time>2022-05-24T13:09:34Z</time>
      </trkpt>
      <trkpt lat="46.78889" lon="5.99964">
        <ele>807.8</ele>
        <time>2022-05-24T13:09:35Z</time>
      </trkpt>
      <trkpt lat="46.78893" lon="5.99971">
        <ele>808.2</ele>
        <time>2022-05-24T13:09:36Z</time>
      </trkpt>
      <trkpt lat="46.78898" lon="5.99977">
        <ele>808.2</ele>
        <time>2022-05-24T13:09:37Z</time>
      </trkpt>
      <trkpt lat="46.78906" lon="5.9999">
        <ele>808.4</ele>
        <time>2022-05-24T13:09:38Z</time>
      </trkpt>
      <trkpt lat="46.7891" lon="5.99995">
        <ele>808.4</ele>
        <time>2022-05-24T13:09:39Z</time>
      </trkpt>
      <trkpt lat="46.78913" lon="6.00001">
        <ele>808.6</ele>
        <time>2022-05-24T13:09:40Z</time>
      </trkpt>
      <trkpt lat="46.78917" lon="6.00006">
        <ele>808.6</ele>
        <time>2022-05-24T13:09:41Z</time>
      </trkpt>
      <trkpt lat="46.78921" lon="6.00012">
        <ele>809</ele>
        <time>2022-05-24T13:09:42Z</time>
      </trkpt>
      <trkpt lat="46.78925" lon="6.00017">
        <ele>809</ele>
        <time>2022-05-24T13:09:43Z</time>
      </trkpt>
      <trkpt lat="46.78928" lon="6.00022">
        <ele>809.2</ele>
        <time>2022-05-24T13:09:44Z</time>
      </trkpt>
      <trkpt lat="46.78932" lon="6.00028">
        <ele>809.2</ele>
        <time>2022-05-24T13:09:45Z</time>
      </trkpt>
      <trkpt lat="46.78935" lon="6.00034">
        <ele>809.6</ele>
        <time>2022-05-24T13:09:46Z</time>
      </trkpt>
      <trkpt lat="46.78939" lon="6.00039">
        <ele>809.6</ele>
        <time>2022-05-24T13:09:47Z</time>
      </trkpt>
      <trkpt lat="46.78943" lon="6.00045">
        <ele>809.8</ele>
        <time>2022-05-24T13:09:48Z</time>
      </trkpt>
      <trkpt lat="46.78946" lon="6.0005">
        <ele>809.8</ele>
        <time>2022-05-24T13:09:49Z</time>
      </trkpt>
      <trkpt lat="46.7895" lon="6.00056">
        <ele>810.2</ele>
        <time>2022-05-24T13:09:50Z</time>
      </trkpt>
      <trkpt lat="46.78954" lon="6.00061">
        <ele>810.2</ele>
        <time>2022-05-24T13:09:51Z</time>
      </trkpt>
      <trkpt lat="46.78957" lon="6.00067">
        <ele>810.2</ele>
        <time>2022-05-24T13:09:52Z</time>
      </trkpt>
      <trkpt lat="46.78961" lon="6.00072">
        <ele>810.4</ele>
        <time>2022-05-24T13:09:53Z</time>
      </trkpt>
      <trkpt lat="46.78964" lon="6.00077">
        <ele>810.4</ele>
        <time>2022-05-24T13:09:54Z</time>
      </trkpt>
      <trkpt lat="46.78968" lon="6.00082">
        <ele>810.4</ele>
        <time>2022-05-24T13:09:55Z</time>
      </trkpt>
      <trkpt lat="46.78971" lon="6.00087">
        <ele>810.8</ele>
        <time>2022-05-24T13:09:56Z</time>
      </trkpt>
      <trkpt lat="46.78974" lon="6.00092">
        <ele>810.8</ele>
        <time>2022-05-24T13:09:57Z</time>
      </trkpt>
      <trkpt lat="46.78977" lon="6.00097">
        <ele>811</ele>
        <time>2022-05-24T13:09:58Z</time>
      </trkpt>
      <trkpt lat="46.7898" lon="6.00102">
        <ele>811</ele>
        <time>2022-05-24T13:09:59Z</time>
      </trkpt>
      <trkpt lat="46.78983" lon="6.00107">
        <ele>811.4</ele>
        <time>2022-05-24T13:10:00Z</time>
      </trkpt>
      <trkpt lat="46.78986" lon="6.00111">
        <ele>811.6</ele>
        <time>2022-05-24T13:10:01Z</time>
      </trkpt>
      <trkpt lat="46.78989" lon="6.00115">
        <ele>811.6</ele>
        <time>2022-05-24T13:10:02Z</time>
      </trkpt>
      <trkpt lat="46.78992" lon="6.00119">
        <ele>812</ele>
        <time>2022-05-24T13:10:03Z</time>
      </trkpt>
      <trkpt lat="46.78994" lon="6.00123">
        <ele>812.4</ele>
        <time>2022-05-24T13:10:04Z</time>
      </trkpt>
      <trkpt lat="46.78997" lon="6.00127">
        <ele>812.6</ele>
        <time>2022-05-24T13:10:05Z</time>
      </trkpt>
      <trkpt lat="46.78999" lon="6.0013">
        <ele>813</ele>
        <time>2022-05-24T13:10:06Z</time>
      </trkpt>
      <trkpt lat="46.79002" lon="6.00134">
        <ele>813.2</ele>
        <time>2022-05-24T13:10:07Z</time>
      </trkpt>
      <trkpt lat="46.79005" lon="6.00138">
        <ele>813.2</ele>
        <time>2022-05-24T13:10:08Z</time>
      </trkpt>
      <trkpt lat="46.79008" lon="6.00142">
        <ele>813.4</ele>
        <time>2022-05-24T13:10:09Z</time>
      </trkpt>
      <trkpt lat="46.79011" lon="6.00146">
        <ele>813.4</ele>
        <time>2022-05-24T13:10:10Z</time>
      </trkpt>
      <trkpt lat="46.79014" lon="6.00151">
        <ele>813.4</ele>
        <time>2022-05-24T13:10:11Z</time>
      </trkpt>
      <trkpt lat="46.79018" lon="6.00156">
        <ele>813.8</ele>
        <time>2022-05-24T13:10:12Z</time>
      </trkpt>
      <trkpt lat="46.79022" lon="6.00161">
        <ele>813.8</ele>
        <time>2022-05-24T13:10:13Z</time>
      </trkpt>
      <trkpt lat="46.79026" lon="6.00167">
        <ele>813.8</ele>
        <time>2022-05-24T13:10:14Z</time>
      </trkpt>
      <trkpt lat="46.7903" lon="6.00173">
        <ele>813.8</ele>
        <time>2022-05-24T13:10:15Z</time>
      </trkpt>
      <trkpt lat="46.79034" lon="6.00179">
        <ele>813.8</ele>
        <time>2022-05-24T13:10:16Z</time>
      </trkpt>
      <trkpt lat="46.79038" lon="6.00185">
        <ele>813.8</ele>
        <time>2022-05-24T13:10:17Z</time>
      </trkpt>
      <trkpt lat="46.79042" lon="6.00191">
        <ele>813.4</ele>
        <time>2022-05-24T13:10:18Z</time>
      </trkpt>
      <trkpt lat="46.79046" lon="6.00196">
        <ele>813.4</ele>
        <time>2022-05-24T13:10:19Z</time>
      </trkpt>
      <trkpt lat="46.7905" lon="6.00202">
        <ele>813.4</ele>
        <time>2022-05-24T13:10:20Z</time>
      </trkpt>
      <trkpt lat="46.79054" lon="6.00208">
        <ele>813.4</ele>
        <time>2022-05-24T13:10:21Z</time>
      </trkpt>
      <trkpt lat="46.79058" lon="6.00214">
        <ele>813.2</ele>
        <time>2022-05-24T13:10:22Z</time>
      </trkpt>
      <trkpt lat="46.79062" lon="6.0022">
        <ele>813.2</ele>
        <time>2022-05-24T13:10:23Z</time>
      </trkpt>
      <trkpt lat="46.79066" lon="6.00226">
        <ele>813.2</ele>
        <time>2022-05-24T13:10:24Z</time>
      </trkpt>
      <trkpt lat="46.7907" lon="6.00232">
        <ele>813.2</ele>
        <time>2022-05-24T13:10:25Z</time>
      </trkpt>
      <trkpt lat="46.79074" lon="6.00238">
        <ele>813.2</ele>
        <time>2022-05-24T13:10:26Z</time>
      </trkpt>
      <trkpt lat="46.79078" lon="6.00243">
        <ele>813.2</ele>
        <time>2022-05-24T13:10:27Z</time>
      </trkpt>
      <trkpt lat="46.79083" lon="6.00249">
        <ele>813.2</ele>
        <time>2022-05-24T13:10:28Z</time>
      </trkpt>
      <trkpt lat="46.79087" lon="6.00256">
        <ele>813.2</ele>
        <time>2022-05-24T13:10:29Z</time>
      </trkpt>
      <trkpt lat="46.79092" lon="6.00262">
        <ele>813.2</ele>
        <time>2022-05-24T13:10:30Z</time>
      </trkpt>
      <trkpt lat="46.79097" lon="6.00269">
        <ele>813.2</ele>
        <time>2022-05-24T13:10:31Z</time>
      </trkpt>
      <trkpt lat="46.79102" lon="6.00276">
        <ele>813.2</ele>
        <time>2022-05-24T13:10:32Z</time>
      </trkpt>
      <trkpt lat="46.79106" lon="6.00283">
        <ele>813.2</ele>
        <time>2022-05-24T13:10:33Z</time>
      </trkpt>
      <trkpt lat="46.79106" lon="6.00283">
        <ele>812.8</ele>
        <time>2022-05-24T13:10:34Z</time>
      </trkpt>
      <trkpt lat="46.79111" lon="6.00291">
        <ele>812.8</ele>
        <time>2022-05-24T13:10:35Z</time>
      </trkpt>
      <trkpt lat="46.79116" lon="6.00298">
        <ele>812.6</ele>
        <time>2022-05-24T13:10:36Z</time>
      </trkpt>
      <trkpt lat="46.79121" lon="6.00305">
        <ele>812.6</ele>
        <time>2022-05-24T13:10:37Z</time>
      </trkpt>
      <trkpt lat="46.79126" lon="6.00312">
        <ele>812.6</ele>
        <time>2022-05-24T13:10:38Z</time>
      </trkpt>
      <trkpt lat="46.79131" lon="6.0032">
        <ele>812.6</ele>
        <time>2022-05-24T13:10:39Z</time>
      </trkpt>
      <trkpt lat="46.79136" lon="6.00328">
        <ele>812.6</ele>
        <time>2022-05-24T13:10:40Z</time>
      </trkpt>
      <trkpt lat="46.79142" lon="6.00335">
        <ele>812.6</ele>
        <time>2022-05-24T13:10:41Z</time>
      </trkpt>
      <trkpt lat="46.79147" lon="6.00342">
        <ele>812.6</ele>
        <time>2022-05-24T13:10:42Z</time>
      </trkpt>
      <trkpt lat="46.79152" lon="6.00349">
        <ele>812.6</ele>
        <time>2022-05-24T13:10:43Z</time>
      </trkpt>
      <trkpt lat="46.79157" lon="6.00357">
        <ele>812.6</ele>
        <time>2022-05-24T13:10:44Z</time>
      </trkpt>
      <trkpt lat="46.79162" lon="6.00364">
        <ele>812.4</ele>
        <time>2022-05-24T13:10:45Z</time>
      </trkpt>
      <trkpt lat="46.79167" lon="6.00371">
        <ele>812.4</ele>
        <time>2022-05-24T13:10:46Z</time>
      </trkpt>
      <trkpt lat="46.79172" lon="6.00379">
        <ele>812.4</ele>
        <time>2022-05-24T13:10:47Z</time>
      </trkpt>
      <trkpt lat="46.79177" lon="6.00386">
        <ele>812.4</ele>
        <time>2022-05-24T13:10:48Z</time>
      </trkpt>
      <trkpt lat="46.79182" lon="6.00393">
        <ele>812.6</ele>
        <time>2022-05-24T13:10:49Z</time>
      </trkpt>
      <trkpt lat="46.79186" lon="6.004">
        <ele>812.6</ele>
        <time>2022-05-24T13:10:50Z</time>
      </trkpt>
      <trkpt lat="46.79191" lon="6.00406">
        <ele>812.8</ele>
        <time>2022-05-24T13:10:51Z</time>
      </trkpt>
      <trkpt lat="46.79195" lon="6.00412">
        <ele>812.8</ele>
        <time>2022-05-24T13:10:52Z</time>
      </trkpt>
      <trkpt lat="46.79199" lon="6.00418">
        <ele>813.2</ele>
        <time>2022-05-24T13:10:53Z</time>
      </trkpt>
      <trkpt lat="46.79202" lon="6.00424">
        <ele>813.6</ele>
        <time>2022-05-24T13:10:54Z</time>
      </trkpt>
      <trkpt lat="46.79206" lon="6.00429">
        <ele>813.8</ele>
        <time>2022-05-24T13:10:55Z</time>
      </trkpt>
      <trkpt lat="46.7921" lon="6.00435">
        <ele>814</ele>
        <time>2022-05-24T13:10:56Z</time>
      </trkpt>
      <trkpt lat="46.79213" lon="6.0044">
        <ele>814.2</ele>
        <time>2022-05-24T13:10:57Z</time>
      </trkpt>
      <trkpt lat="46.79217" lon="6.00445">
        <ele>814.2</ele>
        <time>2022-05-24T13:10:58Z</time>
      </trkpt>
      <trkpt lat="46.79221" lon="6.0045">
        <ele>814.6</ele>
        <time>2022-05-24T13:10:59Z</time>
      </trkpt>
      <trkpt lat="46.79225" lon="6.00456">
        <ele>814.6</ele>
        <time>2022-05-24T13:11:00Z</time>
      </trkpt>
      <trkpt lat="46.7923" lon="6.00461">
        <ele>814.6</ele>
        <time>2022-05-24T13:11:01Z</time>
      </trkpt>
      <trkpt lat="46.79235" lon="6.00466">
        <ele>814.6</ele>
        <time>2022-05-24T13:11:02Z</time>
      </trkpt>
      <trkpt lat="46.79241" lon="6.00472">
        <ele>814.6</ele>
        <time>2022-05-24T13:11:03Z</time>
      </trkpt>
      <trkpt lat="46.79247" lon="6.00479">
        <ele>814.4</ele>
        <time>2022-05-24T13:11:04Z</time>
      </trkpt>
      <trkpt lat="46.79253" lon="6.00485">
        <ele>814.4</ele>
        <time>2022-05-24T13:11:05Z</time>
      </trkpt>
      <trkpt lat="46.79259" lon="6.00493">
        <ele>814.4</ele>
        <time>2022-05-24T13:11:06Z</time>
      </trkpt>
      <trkpt lat="46.79265" lon="6.005">
        <ele>814</ele>
        <time>2022-05-24T13:11:07Z</time>
      </trkpt>
      <trkpt lat="46.79271" lon="6.00508">
        <ele>814</ele>
        <time>2022-05-24T13:11:08Z</time>
      </trkpt>
      <trkpt lat="46.79277" lon="6.00516">
        <ele>814</ele>
        <time>2022-05-24T13:11:09Z</time>
      </trkpt>
      <trkpt lat="46.79283" lon="6.00524">
        <ele>814</ele>
        <time>2022-05-24T13:11:10Z</time>
      </trkpt>
      <trkpt lat="46.79288" lon="6.00531">
        <ele>813.6</ele>
        <time>2022-05-24T13:11:11Z</time>
      </trkpt>
      <trkpt lat="46.79294" lon="6.00539">
        <ele>813.6</ele>
        <time>2022-05-24T13:11:12Z</time>
      </trkpt>
      <trkpt lat="46.79298" lon="6.00546">
        <ele>813.6</ele>
        <time>2022-05-24T13:11:13Z</time>
      </trkpt>
      <trkpt lat="46.79305" lon="6.00557">
        <ele>813.6</ele>
        <time>2022-05-24T13:11:14Z</time>
      </trkpt>
      <trkpt lat="46.79308" lon="6.0056">
        <ele>813.6</ele>
        <time>2022-05-24T13:11:15Z</time>
      </trkpt>
      <trkpt lat="46.79315" lon="6.0057">
        <ele>813.6</ele>
        <time>2022-05-24T13:11:16Z</time>
      </trkpt>
      <trkpt lat="46.79317" lon="6.00574">
        <ele>813.6</ele>
        <time>2022-05-24T13:11:17Z</time>
      </trkpt>
      <trkpt lat="46.79321" lon="6.0058">
        <ele>813.6</ele>
        <time>2022-05-24T13:11:18Z</time>
      </trkpt>
      <trkpt lat="46.79326" lon="6.00587">
        <ele>813.8</ele>
        <time>2022-05-24T13:11:19Z</time>
      </trkpt>
      <trkpt lat="46.7933" lon="6.00593">
        <ele>813.8</ele>
        <time>2022-05-24T13:11:20Z</time>
      </trkpt>
      <trkpt lat="46.79334" lon="6.00599">
        <ele>813.8</ele>
        <time>2022-05-24T13:11:21Z</time>
      </trkpt>
      <trkpt lat="46.7934" lon="6.00608">
        <ele>814.2</ele>
        <time>2022-05-24T13:11:22Z</time>
      </trkpt>
      <trkpt lat="46.79342" lon="6.00611">
        <ele>814.2</ele>
        <time>2022-05-24T13:11:23Z</time>
      </trkpt>
      <trkpt lat="46.79345" lon="6.00617">
        <ele>814.4</ele>
        <time>2022-05-24T13:11:24Z</time>
      </trkpt>
      <trkpt lat="46.79349" lon="6.00622">
        <ele>814.4</ele>
        <time>2022-05-24T13:11:25Z</time>
      </trkpt>
      <trkpt lat="46.79352" lon="6.00627">
        <ele>814.8</ele>
        <time>2022-05-24T13:11:26Z</time>
      </trkpt>
      <trkpt lat="46.79355" lon="6.00632">
        <ele>814.8</ele>
        <time>2022-05-24T13:11:27Z</time>
      </trkpt>
      <trkpt lat="46.7936" lon="6.00638">
        <ele>815</ele>
        <time>2022-05-24T13:11:28Z</time>
      </trkpt>
      <trkpt lat="46.79362" lon="6.00641">
        <ele>815.4</ele>
        <time>2022-05-24T13:11:29Z</time>
      </trkpt>
      <trkpt lat="46.79365" lon="6.00645">
        <ele>815.6</ele>
        <time>2022-05-24T13:11:30Z</time>
      </trkpt>
      <trkpt lat="46.79367" lon="6.0065">
        <ele>815.6</ele>
        <time>2022-05-24T13:11:31Z</time>
      </trkpt>
      <trkpt lat="46.79371" lon="6.00656">
        <ele>816</ele>
        <time>2022-05-24T13:11:32Z</time>
      </trkpt>
      <trkpt lat="46.79373" lon="6.00658">
        <ele>816</ele>
        <time>2022-05-24T13:11:33Z</time>
      </trkpt>
      <trkpt lat="46.79375" lon="6.00662">
        <ele>816.2</ele>
        <time>2022-05-24T13:11:34Z</time>
      </trkpt>
      <trkpt lat="46.79377" lon="6.00666">
        <ele>816.2</ele>
        <time>2022-05-24T13:11:35Z</time>
      </trkpt>
      <trkpt lat="46.7938" lon="6.00669">
        <ele>816.4</ele>
        <time>2022-05-24T13:11:36Z</time>
      </trkpt>
      <trkpt lat="46.79382" lon="6.00673">
        <ele>816.4</ele>
        <time>2022-05-24T13:11:37Z</time>
      </trkpt>
      <trkpt lat="46.79384" lon="6.00676">
        <ele>816.6</ele>
        <time>2022-05-24T13:11:38Z</time>
      </trkpt>
      <trkpt lat="46.79387" lon="6.0068">
        <ele>816.6</ele>
        <time>2022-05-24T13:11:39Z</time>
      </trkpt>
      <trkpt lat="46.79389" lon="6.00683">
        <ele>816.6</ele>
        <time>2022-05-24T13:11:40Z</time>
      </trkpt>
      <trkpt lat="46.79392" lon="6.00688">
        <ele>817</ele>
        <time>2022-05-24T13:11:41Z</time>
      </trkpt>
      <trkpt lat="46.79393" lon="6.00689">
        <ele>817</ele>
        <time>2022-05-24T13:11:42Z</time>
      </trkpt>
      <trkpt lat="46.79395" lon="6.00692">
        <ele>817</ele>
        <time>2022-05-24T13:11:43Z</time>
      </trkpt>
      <trkpt lat="46.79397" lon="6.00696">
        <ele>817</ele>
        <time>2022-05-24T13:11:44Z</time>
      </trkpt>
      <trkpt lat="46.794" lon="6.00698">
        <ele>817</ele>
        <time>2022-05-24T13:11:45Z</time>
      </trkpt>
      <trkpt lat="46.79404" lon="6.00698">
        <ele>817</ele>
        <time>2022-05-24T13:11:46Z</time>
      </trkpt>
      <trkpt lat="46.79406" lon="6.00698">
        <ele>816.6</ele>
        <time>2022-05-24T13:11:47Z</time>
      </trkpt>
      <trkpt lat="46.79408" lon="6.00695">
        <ele>816.6</ele>
        <time>2022-05-24T13:11:48Z</time>
      </trkpt>
      <trkpt lat="46.79409" lon="6.00692">
        <ele>816.6</ele>
        <time>2022-05-24T13:11:49Z</time>
      </trkpt>
      <trkpt lat="46.79409" lon="6.00689">
        <ele>816.6</ele>
        <time>2022-05-24T13:11:50Z</time>
      </trkpt>
      <trkpt lat="46.79408" lon="6.00686">
        <ele>816.6</ele>
        <time>2022-05-24T13:11:51Z</time>
      </trkpt>
      <trkpt lat="46.79407" lon="6.00682">
        <ele>816.8</ele>
        <time>2022-05-24T13:11:52Z</time>
      </trkpt>
      <trkpt lat="46.79406" lon="6.00679">
        <ele>816.8</ele>
        <time>2022-05-24T13:11:53Z</time>
      </trkpt>
      <trkpt lat="46.79405" lon="6.00675">
        <ele>817.4</ele>
        <time>2022-05-24T13:11:54Z</time>
      </trkpt>
      <trkpt lat="46.79404" lon="6.0067">
        <ele>817.6</ele>
        <time>2022-05-24T13:11:55Z</time>
      </trkpt>
      <trkpt lat="46.79403" lon="6.00666">
        <ele>817.6</ele>
        <time>2022-05-24T13:11:56Z</time>
      </trkpt>
      <trkpt lat="46.794" lon="6.00659">
        <ele>817.8</ele>
        <time>2022-05-24T13:11:57Z</time>
      </trkpt>
      <trkpt lat="46.79399" lon="6.00657">
        <ele>817.8</ele>
        <time>2022-05-24T13:11:58Z</time>
      </trkpt>
      <trkpt lat="46.79398" lon="6.00652">
        <ele>818</ele>
        <time>2022-05-24T13:11:59Z</time>
      </trkpt>
      <trkpt lat="46.79396" lon="6.00647">
        <ele>818</ele>
        <time>2022-05-24T13:12:00Z</time>
      </trkpt>
      <trkpt lat="46.79394" lon="6.00639">
        <ele>818.4</ele>
        <time>2022-05-24T13:12:01Z</time>
      </trkpt>
      <trkpt lat="46.79393" lon="6.00636">
        <ele>818.4</ele>
        <time>2022-05-24T13:12:02Z</time>
      </trkpt>
      <trkpt lat="46.79391" lon="6.00631">
        <ele>818.6</ele>
        <time>2022-05-24T13:12:03Z</time>
      </trkpt>
      <trkpt lat="46.79389" lon="6.00626">
        <ele>818.6</ele>
        <time>2022-05-24T13:12:04Z</time>
      </trkpt>
      <trkpt lat="46.79387" lon="6.00621">
        <ele>818.8</ele>
        <time>2022-05-24T13:12:05Z</time>
      </trkpt>
      <trkpt lat="46.79383" lon="6.00613">
        <ele>818.8</ele>
        <time>2022-05-24T13:12:06Z</time>
      </trkpt>
      <trkpt lat="46.79381" lon="6.00611">
        <ele>819.2</ele>
        <time>2022-05-24T13:12:07Z</time>
      </trkpt>
      <trkpt lat="46.79378" lon="6.00606">
        <ele>819.2</ele>
        <time>2022-05-24T13:12:08Z</time>
      </trkpt>
      <trkpt lat="46.79373" lon="6.00599">
        <ele>819.2</ele>
        <time>2022-05-24T13:12:09Z</time>
      </trkpt>
      <trkpt lat="46.79371" lon="6.00597">
        <ele>819.4</ele>
        <time>2022-05-24T13:12:10Z</time>
      </trkpt>
      <trkpt lat="46.79366" lon="6.0059">
        <ele>819.4</ele>
        <time>2022-05-24T13:12:11Z</time>
      </trkpt>
      <trkpt lat="46.79363" lon="6.00588">
        <ele>819.6</ele>
        <time>2022-05-24T13:12:12Z</time>
      </trkpt>
      <trkpt lat="46.79357" lon="6.00581">
        <ele>819.6</ele>
        <time>2022-05-24T13:12:13Z</time>
      </trkpt>
      <trkpt lat="46.79356" lon="6.00579">
        <ele>819.6</ele>
        <time>2022-05-24T13:12:14Z</time>
      </trkpt>
      <trkpt lat="46.79352" lon="6.00574">
        <ele>819.8</ele>
        <time>2022-05-24T13:12:15Z</time>
      </trkpt>
      <trkpt lat="46.79346" lon="6.00567">
        <ele>819.8</ele>
        <time>2022-05-24T13:12:16Z</time>
      </trkpt>
      <trkpt lat="46.79344" lon="6.00565">
        <ele>820.2</ele>
        <time>2022-05-24T13:12:17Z</time>
      </trkpt>
      <trkpt lat="46.79341" lon="6.0056">
        <ele>820.2</ele>
        <time>2022-05-24T13:12:18Z</time>
      </trkpt>
      <trkpt lat="46.79337" lon="6.00554">
        <ele>820.2</ele>
        <time>2022-05-24T13:12:19Z</time>
      </trkpt>
      <trkpt lat="46.79334" lon="6.00548">
        <ele>820.4</ele>
        <time>2022-05-24T13:12:20Z</time>
      </trkpt>
      <trkpt lat="46.7933" lon="6.00539">
        <ele>820.4</ele>
        <time>2022-05-24T13:12:21Z</time>
      </trkpt>
      <trkpt lat="46.79329" lon="6.00535">
        <ele>820.6</ele>
        <time>2022-05-24T13:12:22Z</time>
      </trkpt>
      <trkpt lat="46.79326" lon="6.00528">
        <ele>820.6</ele>
        <time>2022-05-24T13:12:23Z</time>
      </trkpt>
      <trkpt lat="46.79325" lon="6.0052">
        <ele>820.6</ele>
        <time>2022-05-24T13:12:24Z</time>
      </trkpt>
      <trkpt lat="46.79323" lon="6.00513">
        <ele>820.6</ele>
        <time>2022-05-24T13:12:25Z</time>
      </trkpt>
      <trkpt lat="46.79321" lon="6.00505">
        <ele>820.8</ele>
        <time>2022-05-24T13:12:27Z</time>
      </trkpt>
      <trkpt lat="46.79319" lon="6.00497">
        <ele>820.8</ele>
        <time>2022-05-24T13:12:28Z</time>
      </trkpt>
      <trkpt lat="46.79318" lon="6.00489">
        <ele>821.2</ele>
        <time>2022-05-24T13:12:29Z</time>
      </trkpt>
      <trkpt lat="46.79316" lon="6.00481">
        <ele>821.2</ele>
        <time>2022-05-24T13:12:30Z</time>
      </trkpt>
      <trkpt lat="46.79313" lon="6.00466">
        <ele>821.4</ele>
        <time>2022-05-24T13:12:31Z</time>
      </trkpt>
      <trkpt lat="46.7931" lon="6.00454">
        <ele>821.4</ele>
        <time>2022-05-24T13:12:32Z</time>
      </trkpt>
      <trkpt lat="46.79309" lon="6.00451">
        <ele>821.6</ele>
        <time>2022-05-24T13:12:33Z</time>
      </trkpt>
      <trkpt lat="46.79308" lon="6.00444">
        <ele>821.8</ele>
        <time>2022-05-24T13:12:34Z</time>
      </trkpt>
      <trkpt lat="46.79307" lon="6.00437">
        <ele>822.2</ele>
        <time>2022-05-24T13:12:35Z</time>
      </trkpt>
      <trkpt lat="46.79305" lon="6.00429">
        <ele>822.2</ele>
        <time>2022-05-24T13:12:36Z</time>
      </trkpt>
      <trkpt lat="46.79305" lon="6.00426">
        <ele>822.6</ele>
        <time>2022-05-24T13:12:37Z</time>
      </trkpt>
      <trkpt lat="46.79304" lon="6.0042">
        <ele>822.8</ele>
        <time>2022-05-24T13:12:38Z</time>
      </trkpt>
      <trkpt lat="46.79304" lon="6.00414">
        <ele>822.8</ele>
        <time>2022-05-24T13:12:39Z</time>
      </trkpt>
      <trkpt lat="46.79304" lon="6.00403">
        <ele>823</ele>
        <time>2022-05-24T13:12:40Z</time>
      </trkpt>
      <trkpt lat="46.79305" lon="6.004">
        <ele>823</ele>
        <time>2022-05-24T13:12:41Z</time>
      </trkpt>
      <trkpt lat="46.79305" lon="6.00393">
        <ele>823.4</ele>
        <time>2022-05-24T13:12:42Z</time>
      </trkpt>
      <trkpt lat="46.79306" lon="6.00387">
        <ele>823.6</ele>
        <time>2022-05-24T13:12:43Z</time>
      </trkpt>
      <trkpt lat="46.79307" lon="6.0038">
        <ele>823.8</ele>
        <time>2022-05-24T13:12:44Z</time>
      </trkpt>
      <trkpt lat="46.79307" lon="6.00374">
        <ele>824</ele>
        <time>2022-05-24T13:12:45Z</time>
      </trkpt>
      <trkpt lat="46.79309" lon="6.00365">
        <ele>824</ele>
        <time>2022-05-24T13:12:46Z</time>
      </trkpt>
      <trkpt lat="46.79309" lon="6.00362">
        <ele>824.4</ele>
        <time>2022-05-24T13:12:47Z</time>
      </trkpt>
      <trkpt lat="46.7931" lon="6.00355">
        <ele>824.4</ele>
        <time>2022-05-24T13:12:48Z</time>
      </trkpt>
      <trkpt lat="46.7931" lon="6.00348">
        <ele>824.6</ele>
        <time>2022-05-24T13:12:49Z</time>
      </trkpt>
      <trkpt lat="46.7931" lon="6.00341">
        <ele>824.6</ele>
        <time>2022-05-24T13:12:50Z</time>
      </trkpt>
      <trkpt lat="46.7931" lon="6.00335">
        <ele>824.6</ele>
        <time>2022-05-24T13:12:51Z</time>
      </trkpt>
      <trkpt lat="46.79308" lon="6.00325">
        <ele>824.8</ele>
        <time>2022-05-24T13:12:52Z</time>
      </trkpt>
      <trkpt lat="46.79307" lon="6.00322">
        <ele>824.8</ele>
        <time>2022-05-24T13:12:53Z</time>
      </trkpt>
      <trkpt lat="46.79306" lon="6.00315">
        <ele>824.8</ele>
        <time>2022-05-24T13:12:54Z</time>
      </trkpt>
      <trkpt lat="46.79303" lon="6.00309">
        <ele>824.8</ele>
        <time>2022-05-24T13:12:55Z</time>
      </trkpt>
      <trkpt lat="46.79301" lon="6.00303">
        <ele>824.8</ele>
        <time>2022-05-24T13:12:56Z</time>
      </trkpt>
      <trkpt lat="46.79298" lon="6.00297">
        <ele>824.8</ele>
        <time>2022-05-24T13:12:57Z</time>
      </trkpt>
      <trkpt lat="46.79295" lon="6.00291">
        <ele>825</ele>
        <time>2022-05-24T13:12:58Z</time>
      </trkpt>
      <trkpt lat="46.79292" lon="6.00281">
        <ele>825</ele>
        <time>2022-05-24T13:12:59Z</time>
      </trkpt>
      <trkpt lat="46.79291" lon="6.00278">
        <ele>825</ele>
        <time>2022-05-24T13:13:00Z</time>
      </trkpt>
      <trkpt lat="46.79289" lon="6.00272">
        <ele>825.4</ele>
        <time>2022-05-24T13:13:01Z</time>
      </trkpt>
      <trkpt lat="46.79286" lon="6.00262">
        <ele>825.4</ele>
        <time>2022-05-24T13:13:02Z</time>
      </trkpt>
      <trkpt lat="46.79286" lon="6.00258">
        <ele>825.8</ele>
        <time>2022-05-24T13:13:03Z</time>
      </trkpt>
      <trkpt lat="46.79285" lon="6.00252">
        <ele>825.8</ele>
        <time>2022-05-24T13:13:04Z</time>
      </trkpt>
      <trkpt lat="46.79284" lon="6.00245">
        <ele>826.2</ele>
        <time>2022-05-24T13:13:05Z</time>
      </trkpt>
      <trkpt lat="46.79284" lon="6.00238">
        <ele>826.2</ele>
        <time>2022-05-24T13:13:06Z</time>
      </trkpt>
      <trkpt lat="46.79285" lon="6.00228">
        <ele>826.2</ele>
        <time>2022-05-24T13:13:07Z</time>
      </trkpt>
      <trkpt lat="46.79285" lon="6.00225">
        <ele>826.4</ele>
        <time>2022-05-24T13:13:08Z</time>
      </trkpt>
      <trkpt lat="46.79286" lon="6.00219">
        <ele>826.4</ele>
        <time>2022-05-24T13:13:09Z</time>
      </trkpt>
      <trkpt lat="46.79286" lon="6.00212">
        <ele>826.4</ele>
        <time>2022-05-24T13:13:10Z</time>
      </trkpt>
      <trkpt lat="46.79287" lon="6.00206">
        <ele>826.4</ele>
        <time>2022-05-24T13:13:11Z</time>
      </trkpt>
      <trkpt lat="46.79288" lon="6.002">
        <ele>826.2</ele>
        <time>2022-05-24T13:13:12Z</time>
      </trkpt>
      <trkpt lat="46.79291" lon="6.00196">
        <ele>826.2</ele>
        <time>2022-05-24T13:13:13Z</time>
      </trkpt>
      <trkpt lat="46.79295" lon="6.00194">
        <ele>826</ele>
        <time>2022-05-24T13:13:14Z</time>
      </trkpt>
      <trkpt lat="46.79298" lon="6.00193">
        <ele>826</ele>
        <time>2022-05-24T13:13:15Z</time>
      </trkpt>
      <trkpt lat="46.79301" lon="6.00194">
        <ele>826</ele>
        <time>2022-05-24T13:13:16Z</time>
      </trkpt>
      <trkpt lat="46.79304" lon="6.00196">
        <ele>826</ele>
        <time>2022-05-24T13:13:17Z</time>
      </trkpt>
      <trkpt lat="46.79306" lon="6.00197">
        <ele>826</ele>
        <time>2022-05-24T13:13:18Z</time>
      </trkpt>
      <trkpt lat="46.79308" lon="6.00199">
        <ele>826</ele>
        <time>2022-05-24T13:13:19Z</time>
      </trkpt>
      <trkpt lat="46.7931" lon="6.00201">
        <ele>826.2</ele>
        <time>2022-05-24T13:13:20Z</time>
      </trkpt>
      <trkpt lat="46.79312" lon="6.00203">
        <ele>826.4</ele>
        <time>2022-05-24T13:13:21Z</time>
      </trkpt>
      <trkpt lat="46.79314" lon="6.00205">
        <ele>826.4</ele>
        <time>2022-05-24T13:13:22Z</time>
      </trkpt>
      <trkpt lat="46.79315" lon="6.00208">
        <ele>826.8</ele>
        <time>2022-05-24T13:13:23Z</time>
      </trkpt>
      <trkpt lat="46.79317" lon="6.0021">
        <ele>827</ele>
        <time>2022-05-24T13:13:24Z</time>
      </trkpt>
      <trkpt lat="46.79319" lon="6.00213">
        <ele>827.2</ele>
        <time>2022-05-24T13:13:25Z</time>
      </trkpt>
      <trkpt lat="46.79321" lon="6.00215">
        <ele>827.4</ele>
        <time>2022-05-24T13:13:26Z</time>
      </trkpt>
      <trkpt lat="46.79323" lon="6.00217">
        <ele>827.4</ele>
        <time>2022-05-24T13:13:27Z</time>
      </trkpt>
      <trkpt lat="46.79326" lon="6.00219">
        <ele>828</ele>
        <time>2022-05-24T13:13:28Z</time>
      </trkpt>
      <trkpt lat="46.79328" lon="6.00221">
        <ele>828.2</ele>
        <time>2022-05-24T13:13:29Z</time>
      </trkpt>
      <trkpt lat="46.7933" lon="6.00223">
        <ele>828.6</ele>
        <time>2022-05-24T13:13:30Z</time>
      </trkpt>
      <trkpt lat="46.79333" lon="6.00224">
        <ele>828.8</ele>
        <time>2022-05-24T13:13:31Z</time>
      </trkpt>
      <trkpt lat="46.79336" lon="6.00226">
        <ele>829.2</ele>
        <time>2022-05-24T13:13:32Z</time>
      </trkpt>
      <trkpt lat="46.79338" lon="6.00228">
        <ele>829.4</ele>
        <time>2022-05-24T13:13:33Z</time>
      </trkpt>
      <trkpt lat="46.79341" lon="6.00229">
        <ele>829.8</ele>
        <time>2022-05-24T13:13:34Z</time>
      </trkpt>
      <trkpt lat="46.79344" lon="6.0023">
        <ele>830</ele>
        <time>2022-05-24T13:13:35Z</time>
      </trkpt>
      <trkpt lat="46.79346" lon="6.00231">
        <ele>830.4</ele>
        <time>2022-05-24T13:13:36Z</time>
      </trkpt>
      <trkpt lat="46.79349" lon="6.00232">
        <ele>830.6</ele>
        <time>2022-05-24T13:13:37Z</time>
      </trkpt>
      <trkpt lat="46.79351" lon="6.00232">
        <ele>831</ele>
        <time>2022-05-24T13:13:38Z</time>
      </trkpt>
      <trkpt lat="46.79354" lon="6.00233">
        <ele>831.2</ele>
        <time>2022-05-24T13:13:39Z</time>
      </trkpt>
      <trkpt lat="46.79356" lon="6.00234">
        <ele>831.6</ele>
        <time>2022-05-24T13:13:40Z</time>
      </trkpt>
      <trkpt lat="46.79358" lon="6.00234">
        <ele>831.8</ele>
        <time>2022-05-24T13:13:41Z</time>
      </trkpt>
      <trkpt lat="46.79361" lon="6.00235">
        <ele>832.2</ele>
        <time>2022-05-24T13:13:42Z</time>
      </trkpt>
      <trkpt lat="46.79363" lon="6.00235">
        <ele>832.4</ele>
        <time>2022-05-24T13:13:43Z</time>
      </trkpt>
      <trkpt lat="46.79365" lon="6.00235">
        <ele>832.6</ele>
        <time>2022-05-24T13:13:44Z</time>
      </trkpt>
      <trkpt lat="46.79368" lon="6.00236">
        <ele>833</ele>
        <time>2022-05-24T13:13:45Z</time>
      </trkpt>
      <trkpt lat="46.7937" lon="6.00236">
        <ele>833.2</ele>
        <time>2022-05-24T13:13:46Z</time>
      </trkpt>
      <trkpt lat="46.79373" lon="6.00236">
        <ele>833.4</ele>
        <time>2022-05-24T13:13:47Z</time>
      </trkpt>
      <trkpt lat="46.79375" lon="6.00237">
        <ele>833.4</ele>
        <time>2022-05-24T13:13:48Z</time>
      </trkpt>
      <trkpt lat="46.79378" lon="6.00237">
        <ele>833.4</ele>
        <time>2022-05-24T13:13:49Z</time>
      </trkpt>
      <trkpt lat="46.7938" lon="6.00237">
        <ele>833.8</ele>
        <time>2022-05-24T13:13:50Z</time>
      </trkpt>
      <trkpt lat="46.79383" lon="6.00238">
        <ele>833.8</ele>
        <time>2022-05-24T13:13:51Z</time>
      </trkpt>
      <trkpt lat="46.79386" lon="6.00238">
        <ele>834</ele>
        <time>2022-05-24T13:13:52Z</time>
      </trkpt>
      <trkpt lat="46.79389" lon="6.00238">
        <ele>834</ele>
        <time>2022-05-24T13:13:53Z</time>
      </trkpt>
      <trkpt lat="46.79392" lon="6.00239">
        <ele>834.2</ele>
        <time>2022-05-24T13:13:54Z</time>
      </trkpt>
      <trkpt lat="46.79395" lon="6.00239">
        <ele>834.2</ele>
        <time>2022-05-24T13:13:55Z</time>
      </trkpt>
      <trkpt lat="46.79398" lon="6.00239">
        <ele>834.6</ele>
        <time>2022-05-24T13:13:56Z</time>
      </trkpt>
      <trkpt lat="46.79401" lon="6.00238">
        <ele>834.6</ele>
        <time>2022-05-24T13:13:57Z</time>
      </trkpt>
      <trkpt lat="46.79404" lon="6.00238">
        <ele>834.8</ele>
        <time>2022-05-24T13:13:58Z</time>
      </trkpt>
      <trkpt lat="46.79406" lon="6.00237">
        <ele>834.8</ele>
        <time>2022-05-24T13:13:59Z</time>
      </trkpt>
      <trkpt lat="46.79409" lon="6.00237">
        <ele>835.2</ele>
        <time>2022-05-24T13:14:00Z</time>
      </trkpt>
      <trkpt lat="46.79412" lon="6.00236">
        <ele>835.4</ele>
        <time>2022-05-24T13:14:01Z</time>
      </trkpt>
      <trkpt lat="46.79414" lon="6.00234">
        <ele>835.4</ele>
        <time>2022-05-24T13:14:02Z</time>
      </trkpt>
      <trkpt lat="46.79417" lon="6.00232">
        <ele>835.8</ele>
        <time>2022-05-24T13:14:03Z</time>
      </trkpt>
      <trkpt lat="46.79419" lon="6.00231">
        <ele>835.8</ele>
        <time>2022-05-24T13:14:04Z</time>
      </trkpt>
      <trkpt lat="46.79422" lon="6.00229">
        <ele>836.2</ele>
        <time>2022-05-24T13:14:05Z</time>
      </trkpt>
      <trkpt lat="46.79425" lon="6.00227">
        <ele>836.2</ele>
        <time>2022-05-24T13:14:06Z</time>
      </trkpt>
      <trkpt lat="46.79427" lon="6.00225">
        <ele>836.4</ele>
        <time>2022-05-24T13:14:07Z</time>
      </trkpt>
      <trkpt lat="46.7943" lon="6.00222">
        <ele>836.4</ele>
        <time>2022-05-24T13:14:08Z</time>
      </trkpt>
      <trkpt lat="46.79433" lon="6.0022">
        <ele>836.8</ele>
        <time>2022-05-24T13:14:09Z</time>
      </trkpt>
      <trkpt lat="46.79435" lon="6.00217">
        <ele>836.8</ele>
        <time>2022-05-24T13:14:10Z</time>
      </trkpt>
      <trkpt lat="46.79438" lon="6.00214">
        <ele>837</ele>
        <time>2022-05-24T13:14:11Z</time>
      </trkpt>
      <trkpt lat="46.7944" lon="6.00212">
        <ele>837</ele>
        <time>2022-05-24T13:14:12Z</time>
      </trkpt>
      <trkpt lat="46.79442" lon="6.00209">
        <ele>837.4</ele>
        <time>2022-05-24T13:14:13Z</time>
      </trkpt>
      <trkpt lat="46.79445" lon="6.00206">
        <ele>837.4</ele>
        <time>2022-05-24T13:14:14Z</time>
      </trkpt>
      <trkpt lat="46.79447" lon="6.00203">
        <ele>837.8</ele>
        <time>2022-05-24T13:14:15Z</time>
      </trkpt>
      <trkpt lat="46.79449" lon="6.002">
        <ele>838</ele>
        <time>2022-05-24T13:14:16Z</time>
      </trkpt>
      <trkpt lat="46.7945" lon="6.00197">
        <ele>838.2</ele>
        <time>2022-05-24T13:14:17Z</time>
      </trkpt>
      <trkpt lat="46.79452" lon="6.00193">
        <ele>838.4</ele>
        <time>2022-05-24T13:14:18Z</time>
      </trkpt>
      <trkpt lat="46.79454" lon="6.0019">
        <ele>838.6</ele>
        <time>2022-05-24T13:14:19Z</time>
      </trkpt>
      <trkpt lat="46.79456" lon="6.00187">
        <ele>839</ele>
        <time>2022-05-24T13:14:20Z</time>
      </trkpt>
      <trkpt lat="46.79458" lon="6.00184">
        <ele>839.2</ele>
        <time>2022-05-24T13:14:21Z</time>
      </trkpt>
      <trkpt lat="46.79459" lon="6.0018">
        <ele>839.4</ele>
        <time>2022-05-24T13:14:22Z</time>
      </trkpt>
      <trkpt lat="46.79461" lon="6.00176">
        <ele>839.8</ele>
        <time>2022-05-24T13:14:23Z</time>
      </trkpt>
      <trkpt lat="46.79462" lon="6.00173">
        <ele>839.8</ele>
        <time>2022-05-24T13:14:24Z</time>
      </trkpt>
      <trkpt lat="46.79464" lon="6.00169">
        <ele>840.2</ele>
        <time>2022-05-24T13:14:25Z</time>
      </trkpt>
      <trkpt lat="46.79465" lon="6.00166">
        <ele>840.2</ele>
        <time>2022-05-24T13:14:26Z</time>
      </trkpt>
      <trkpt lat="46.79467" lon="6.00162">
        <ele>840.4</ele>
        <time>2022-05-24T13:14:27Z</time>
      </trkpt>
      <trkpt lat="46.79468" lon="6.00158">
        <ele>840.4</ele>
        <time>2022-05-24T13:14:28Z</time>
      </trkpt>
      <trkpt lat="46.7947" lon="6.00154">
        <ele>840.8</ele>
        <time>2022-05-24T13:14:29Z</time>
      </trkpt>
      <trkpt lat="46.79471" lon="6.0015">
        <ele>840.8</ele>
        <time>2022-05-24T13:14:30Z</time>
      </trkpt>
      <trkpt lat="46.79473" lon="6.00146">
        <ele>840.8</ele>
        <time>2022-05-24T13:14:31Z</time>
      </trkpt>
      <trkpt lat="46.79475" lon="6.00142">
        <ele>841.2</ele>
        <time>2022-05-24T13:14:32Z</time>
      </trkpt>
      <trkpt lat="46.79477" lon="6.00137">
        <ele>841.2</ele>
        <time>2022-05-24T13:14:33Z</time>
      </trkpt>
      <trkpt lat="46.79479" lon="6.00133">
        <ele>841.2</ele>
        <time>2022-05-24T13:14:34Z</time>
      </trkpt>
      <trkpt lat="46.79481" lon="6.00128">
        <ele>841.2</ele>
        <time>2022-05-24T13:14:35Z</time>
      </trkpt>
      <trkpt lat="46.79483" lon="6.00124">
        <ele>841.2</ele>
        <time>2022-05-24T13:14:36Z</time>
      </trkpt>
      <trkpt lat="46.79485" lon="6.00119">
        <ele>841.2</ele>
        <time>2022-05-24T13:14:37Z</time>
      </trkpt>
      <trkpt lat="46.79487" lon="6.00115">
        <ele>841.2</ele>
        <time>2022-05-24T13:14:38Z</time>
      </trkpt>
      <trkpt lat="46.7949" lon="6.0011">
        <ele>841.4</ele>
        <time>2022-05-24T13:14:39Z</time>
      </trkpt>
      <trkpt lat="46.79492" lon="6.00105">
        <ele>841.4</ele>
        <time>2022-05-24T13:14:40Z</time>
      </trkpt>
      <trkpt lat="46.79493" lon="6.00101">
        <ele>841.4</ele>
        <time>2022-05-24T13:14:41Z</time>
      </trkpt>
      <trkpt lat="46.79495" lon="6.00097">
        <ele>841.4</ele>
        <time>2022-05-24T13:14:42Z</time>
      </trkpt>
      <trkpt lat="46.79497" lon="6.00092">
        <ele>841.8</ele>
        <time>2022-05-24T13:14:43Z</time>
      </trkpt>
      <trkpt lat="46.79499" lon="6.00088">
        <ele>841.8</ele>
        <time>2022-05-24T13:14:44Z</time>
      </trkpt>
      <trkpt lat="46.79501" lon="6.00084">
        <ele>841.8</ele>
        <time>2022-05-24T13:14:45Z</time>
      </trkpt>
      <trkpt lat="46.79503" lon="6.0008">
        <ele>842</ele>
        <time>2022-05-24T13:14:46Z</time>
      </trkpt>
      <trkpt lat="46.79506" lon="6.00076">
        <ele>842</ele>
        <time>2022-05-24T13:14:47Z</time>
      </trkpt>
      <trkpt lat="46.79508" lon="6.00072">
        <ele>842.2</ele>
        <time>2022-05-24T13:14:48Z</time>
      </trkpt>
      <trkpt lat="46.7951" lon="6.00068">
        <ele>842.2</ele>
        <time>2022-05-24T13:14:49Z</time>
      </trkpt>
      <trkpt lat="46.79513" lon="6.00064">
        <ele>842.2</ele>
        <time>2022-05-24T13:14:50Z</time>
      </trkpt>
      <trkpt lat="46.79516" lon="6.0006">
        <ele>842.4</ele>
        <time>2022-05-24T13:14:51Z</time>
      </trkpt>
      <trkpt lat="46.79519" lon="6.00055">
        <ele>842.4</ele>
        <time>2022-05-24T13:14:52Z</time>
      </trkpt>
      <trkpt lat="46.79523" lon="6.00052">
        <ele>842.4</ele>
        <time>2022-05-24T13:14:53Z</time>
      </trkpt>
      <trkpt lat="46.79527" lon="6.00048">
        <ele>842.4</ele>
        <time>2022-05-24T13:14:54Z</time>
      </trkpt>
      <trkpt lat="46.7953" lon="6.00044">
        <ele>842.4</ele>
        <time>2022-05-24T13:14:55Z</time>
      </trkpt>
      <trkpt lat="46.79534" lon="6.0004">
        <ele>842.4</ele>
        <time>2022-05-24T13:14:56Z</time>
      </trkpt>
      <trkpt lat="46.79538" lon="6.00036">
        <ele>842.6</ele>
        <time>2022-05-24T13:14:57Z</time>
      </trkpt>
      <trkpt lat="46.79542" lon="6.00032">
        <ele>842.6</ele>
        <time>2022-05-24T13:14:58Z</time>
      </trkpt>
      <trkpt lat="46.79545" lon="6.00029">
        <ele>842.6</ele>
        <time>2022-05-24T13:14:59Z</time>
      </trkpt>
      <trkpt lat="46.79549" lon="6.00026">
        <ele>842.8</ele>
        <time>2022-05-24T13:15:00Z</time>
      </trkpt>
      <trkpt lat="46.79553" lon="6.00024">
        <ele>842.8</ele>
        <time>2022-05-24T13:15:01Z</time>
      </trkpt>
      <trkpt lat="46.79556" lon="6.00021">
        <ele>842.8</ele>
        <time>2022-05-24T13:15:02Z</time>
      </trkpt>
      <trkpt lat="46.7956" lon="6.00019">
        <ele>842.8</ele>
        <time>2022-05-24T13:15:03Z</time>
      </trkpt>
      <trkpt lat="46.79564" lon="6.00016">
        <ele>842.8</ele>
        <time>2022-05-24T13:15:04Z</time>
      </trkpt>
      <trkpt lat="46.79568" lon="6.00014">
        <ele>842.8</ele>
        <time>2022-05-24T13:15:05Z</time>
      </trkpt>
      <trkpt lat="46.79572" lon="6.00012">
        <ele>842.8</ele>
        <time>2022-05-24T13:15:06Z</time>
      </trkpt>
      <trkpt lat="46.79576" lon="6.00008">
        <ele>842.8</ele>
        <time>2022-05-24T13:15:07Z</time>
      </trkpt>
      <trkpt lat="46.7958" lon="6.00004">
        <ele>842.8</ele>
        <time>2022-05-24T13:15:08Z</time>
      </trkpt>
      <trkpt lat="46.79584" lon="6">
        <ele>842.6</ele>
        <time>2022-05-24T13:15:09Z</time>
      </trkpt>
      <trkpt lat="46.79589" lon="5.99995">
        <ele>842.4</ele>
        <time>2022-05-24T13:15:10Z</time>
      </trkpt>
      <trkpt lat="46.79593" lon="5.99989">
        <ele>842.4</ele>
        <time>2022-05-24T13:15:11Z</time>
      </trkpt>
      <trkpt lat="46.79598" lon="5.99984">
        <ele>842</ele>
        <time>2022-05-24T13:15:12Z</time>
      </trkpt>
      <trkpt lat="46.79604" lon="5.99978">
        <ele>841.6</ele>
        <time>2022-05-24T13:15:13Z</time>
      </trkpt>
      <trkpt lat="46.79609" lon="5.99971">
        <ele>841.4</ele>
        <time>2022-05-24T13:15:14Z</time>
      </trkpt>
      <trkpt lat="46.79615" lon="5.99965">
        <ele>841.2</ele>
        <time>2022-05-24T13:15:15Z</time>
      </trkpt>
      <trkpt lat="46.79621" lon="5.99958">
        <ele>841.2</ele>
        <time>2022-05-24T13:15:16Z</time>
      </trkpt>
      <trkpt lat="46.79626" lon="5.99951">
        <ele>840.8</ele>
        <time>2022-05-24T13:15:17Z</time>
      </trkpt>
      <trkpt lat="46.79632" lon="5.99945">
        <ele>840.6</ele>
        <time>2022-05-24T13:15:18Z</time>
      </trkpt>
      <trkpt lat="46.79638" lon="5.99938">
        <ele>840.2</ele>
        <time>2022-05-24T13:15:19Z</time>
      </trkpt>
      <trkpt lat="46.79643" lon="5.99931">
        <ele>840</ele>
        <time>2022-05-24T13:15:20Z</time>
      </trkpt>
      <trkpt lat="46.79649" lon="5.99924">
        <ele>839.6</ele>
        <time>2022-05-24T13:15:21Z</time>
      </trkpt>
      <trkpt lat="46.79655" lon="5.99918">
        <ele>839.2</ele>
        <time>2022-05-24T13:15:22Z</time>
      </trkpt>
      <trkpt lat="46.79667" lon="5.99904">
        <ele>839</ele>
        <time>2022-05-24T13:15:23Z</time>
      </trkpt>
      <trkpt lat="46.79673" lon="5.99898">
        <ele>838.6</ele>
        <time>2022-05-24T13:15:24Z</time>
      </trkpt>
      <trkpt lat="46.79679" lon="5.99892">
        <ele>838.6</ele>
        <time>2022-05-24T13:15:25Z</time>
      </trkpt>
      <trkpt lat="46.79685" lon="5.99886">
        <ele>838.4</ele>
        <time>2022-05-24T13:15:26Z</time>
      </trkpt>
      <trkpt lat="46.79691" lon="5.9988">
        <ele>838.4</ele>
        <time>2022-05-24T13:15:27Z</time>
      </trkpt>
      <trkpt lat="46.79697" lon="5.99875">
        <ele>838</ele>
        <time>2022-05-24T13:15:28Z</time>
      </trkpt>
      <trkpt lat="46.79702" lon="5.99868">
        <ele>838</ele>
        <time>2022-05-24T13:15:29Z</time>
      </trkpt>
      <trkpt lat="46.79707" lon="5.99861">
        <ele>837.8</ele>
        <time>2022-05-24T13:15:30Z</time>
      </trkpt>
      <trkpt lat="46.79711" lon="5.99852">
        <ele>837.6</ele>
        <time>2022-05-24T13:15:31Z</time>
      </trkpt>
      <trkpt lat="46.79714" lon="5.99841">
        <ele>837.6</ele>
        <time>2022-05-24T13:15:32Z</time>
      </trkpt>
      <trkpt lat="46.79716" lon="5.9983">
        <ele>837.2</ele>
        <time>2022-05-24T13:15:33Z</time>
      </trkpt>
      <trkpt lat="46.79717" lon="5.99819">
        <ele>836.8</ele>
        <time>2022-05-24T13:15:34Z</time>
      </trkpt>
      <trkpt lat="46.79718" lon="5.99807">
        <ele>836.4</ele>
        <time>2022-05-24T13:15:35Z</time>
      </trkpt>
      <trkpt lat="46.79718" lon="5.99795">
        <ele>836.2</ele>
        <time>2022-05-24T13:15:36Z</time>
      </trkpt>
      <trkpt lat="46.79719" lon="5.99784">
        <ele>836</ele>
        <time>2022-05-24T13:15:37Z</time>
      </trkpt>
      <trkpt lat="46.7972" lon="5.99773">
        <ele>835.8</ele>
        <time>2022-05-24T13:15:38Z</time>
      </trkpt>
      <trkpt lat="46.79722" lon="5.99763">
        <ele>835.8</ele>
        <time>2022-05-24T13:15:39Z</time>
      </trkpt>
      <trkpt lat="46.79723" lon="5.99753">
        <ele>835.4</ele>
        <time>2022-05-24T13:15:40Z</time>
      </trkpt>
      <trkpt lat="46.79724" lon="5.99745">
        <ele>835.4</ele>
        <time>2022-05-24T13:15:41Z</time>
      </trkpt>
      <trkpt lat="46.79725" lon="5.99737">
        <ele>835.2</ele>
        <time>2022-05-24T13:15:42Z</time>
      </trkpt>
      <trkpt lat="46.79725" lon="5.99729">
        <ele>835.2</ele>
        <time>2022-05-24T13:15:43Z</time>
      </trkpt>
      <trkpt lat="46.79726" lon="5.99722">
        <ele>835.2</ele>
        <time>2022-05-24T13:15:44Z</time>
      </trkpt>
      <trkpt lat="46.79726" lon="5.99716">
        <ele>835.2</ele>
        <time>2022-05-24T13:15:45Z</time>
      </trkpt>
      <trkpt lat="46.79726" lon="5.9971">
        <ele>835.4</ele>
        <time>2022-05-24T13:15:46Z</time>
      </trkpt>
      <trkpt lat="46.79726" lon="5.99706">
        <ele>835.4</ele>
        <time>2022-05-24T13:15:47Z</time>
      </trkpt>
      <trkpt lat="46.79726" lon="5.99701">
        <ele>835.6</ele>
        <time>2022-05-24T13:15:48Z</time>
      </trkpt>
      <trkpt lat="46.79726" lon="5.99697">
        <ele>835.6</ele>
        <time>2022-05-24T13:15:49Z</time>
      </trkpt>
      <trkpt lat="46.79725" lon="5.99694">
        <ele>835.6</ele>
        <time>2022-05-24T13:15:50Z</time>
      </trkpt>
      <trkpt lat="46.79725" lon="5.99692">
        <ele>836</ele>
        <time>2022-05-24T13:15:51Z</time>
      </trkpt>
      <trkpt lat="46.79724" lon="5.9969">
        <ele>836</ele>
        <time>2022-05-24T13:15:52Z</time>
      </trkpt>
      <trkpt lat="46.79724" lon="5.9969">
        <ele>836.2</ele>
        <time>2022-05-24T13:15:53Z</time>
      </trkpt>
      <trkpt lat="46.79724" lon="5.9969">
        <ele>836.2</ele>
        <time>2022-05-24T13:15:54Z</time>
      </trkpt>
      <trkpt lat="46.79723" lon="5.99691">
        <ele>836.4</ele>
        <time>2022-05-24T13:15:55Z</time>
      </trkpt>
      <trkpt lat="46.79724" lon="5.99695">
        <ele>836.4</ele>
        <time>2022-05-24T13:15:57Z</time>
      </trkpt>
      <trkpt lat="46.79725" lon="5.99698">
        <ele>836.4</ele>
        <time>2022-05-24T13:15:58Z</time>
      </trkpt>
      <trkpt lat="46.79725" lon="5.99701">
        <ele>836.4</ele>
        <time>2022-05-24T13:15:59Z</time>
      </trkpt>
      <trkpt lat="46.79725" lon="5.99706">
        <ele>836.4</ele>
        <time>2022-05-24T13:16:00Z</time>
      </trkpt>
      <trkpt lat="46.79726" lon="5.9971">
        <ele>836.4</ele>
        <time>2022-05-24T13:16:01Z</time>
      </trkpt>
      <trkpt lat="46.79726" lon="5.99716">
        <ele>836.4</ele>
        <time>2022-05-24T13:16:02Z</time>
      </trkpt>
      <trkpt lat="46.79725" lon="5.99723">
        <ele>836.4</ele>
        <time>2022-05-24T13:16:03Z</time>
      </trkpt>
      <trkpt lat="46.79724" lon="5.9973">
        <ele>836</ele>
        <time>2022-05-24T13:16:04Z</time>
      </trkpt>
      <trkpt lat="46.79724" lon="5.99737">
        <ele>835.8</ele>
        <time>2022-05-24T13:16:05Z</time>
      </trkpt>
      <trkpt lat="46.79723" lon="5.99744">
        <ele>835.6</ele>
        <time>2022-05-24T13:16:06Z</time>
      </trkpt>
      <trkpt lat="46.79722" lon="5.99752">
        <ele>835.6</ele>
        <time>2022-05-24T13:16:07Z</time>
      </trkpt>
      <trkpt lat="46.79721" lon="5.99759">
        <ele>835.4</ele>
        <time>2022-05-24T13:16:08Z</time>
      </trkpt>
      <trkpt lat="46.7972" lon="5.99767">
        <ele>835.4</ele>
        <time>2022-05-24T13:16:09Z</time>
      </trkpt>
      <trkpt lat="46.7972" lon="5.99774">
        <ele>835</ele>
        <time>2022-05-24T13:16:10Z</time>
      </trkpt>
      <trkpt lat="46.79719" lon="5.99782">
        <ele>835</ele>
        <time>2022-05-24T13:16:11Z</time>
      </trkpt>
      <trkpt lat="46.79718" lon="5.9979">
        <ele>834.8</ele>
        <time>2022-05-24T13:16:12Z</time>
      </trkpt>
      <trkpt lat="46.79718" lon="5.99798">
        <ele>834.8</ele>
        <time>2022-05-24T13:16:13Z</time>
      </trkpt>
      <trkpt lat="46.79717" lon="5.99805">
        <ele>834.8</ele>
        <time>2022-05-24T13:16:14Z</time>
      </trkpt>
      <trkpt lat="46.79716" lon="5.99812">
        <ele>834.4</ele>
        <time>2022-05-24T13:16:15Z</time>
      </trkpt>
      <trkpt lat="46.79716" lon="5.9982">
        <ele>834.4</ele>
        <time>2022-05-24T13:16:16Z</time>
      </trkpt>
      <trkpt lat="46.79715" lon="5.99827">
        <ele>834.4</ele>
        <time>2022-05-24T13:16:17Z</time>
      </trkpt>
      <trkpt lat="46.79714" lon="5.99834">
        <ele>834.4</ele>
        <time>2022-05-24T13:16:18Z</time>
      </trkpt>
      <trkpt lat="46.79713" lon="5.99842">
        <ele>834.4</ele>
        <time>2022-05-24T13:16:19Z</time>
      </trkpt>
      <trkpt lat="46.79712" lon="5.99848">
        <ele>834.4</ele>
        <time>2022-05-24T13:16:20Z</time>
      </trkpt>
      <trkpt lat="46.7971" lon="5.99854">
        <ele>834.4</ele>
        <time>2022-05-24T13:16:21Z</time>
      </trkpt>
      <trkpt lat="46.79707" lon="5.9986">
        <ele>834.8</ele>
        <time>2022-05-24T13:16:22Z</time>
      </trkpt>
      <trkpt lat="46.79705" lon="5.99864">
        <ele>835</ele>
        <time>2022-05-24T13:16:23Z</time>
      </trkpt>
      <trkpt lat="46.79702" lon="5.99868">
        <ele>835.4</ele>
        <time>2022-05-24T13:16:24Z</time>
      </trkpt>
      <trkpt lat="46.79699" lon="5.99872">
        <ele>835.6</ele>
        <time>2022-05-24T13:16:25Z</time>
      </trkpt>
      <trkpt lat="46.79696" lon="5.99875">
        <ele>836</ele>
        <time>2022-05-24T13:16:26Z</time>
      </trkpt>
      <trkpt lat="46.79693" lon="5.99878">
        <ele>836.2</ele>
        <time>2022-05-24T13:16:27Z</time>
      </trkpt>
      <trkpt lat="46.7969" lon="5.99881">
        <ele>836.2</ele>
        <time>2022-05-24T13:16:28Z</time>
      </trkpt>
      <trkpt lat="46.79687" lon="5.99885">
        <ele>836.6</ele>
        <time>2022-05-24T13:16:29Z</time>
      </trkpt>
      <trkpt lat="46.79684" lon="5.99888">
        <ele>836.6</ele>
        <time>2022-05-24T13:16:30Z</time>
      </trkpt>
      <trkpt lat="46.79681" lon="5.99892">
        <ele>836.6</ele>
        <time>2022-05-24T13:16:31Z</time>
      </trkpt>
      <trkpt lat="46.79677" lon="5.99896">
        <ele>837</ele>
        <time>2022-05-24T13:16:32Z</time>
      </trkpt>
      <trkpt lat="46.79674" lon="5.99901">
        <ele>837</ele>
        <time>2022-05-24T13:16:33Z</time>
      </trkpt>
      <trkpt lat="46.7967" lon="5.99905">
        <ele>837</ele>
        <time>2022-05-24T13:16:34Z</time>
      </trkpt>
      <trkpt lat="46.79667" lon="5.99909">
        <ele>837.2</ele>
        <time>2022-05-24T13:16:35Z</time>
      </trkpt>
      <trkpt lat="46.79663" lon="5.99913">
        <ele>837.2</ele>
        <time>2022-05-24T13:16:36Z</time>
      </trkpt>
      <trkpt lat="46.7966" lon="5.99917">
        <ele>837.4</ele>
        <time>2022-05-24T13:16:37Z</time>
      </trkpt>
      <trkpt lat="46.79656" lon="5.99921">
        <ele>837.4</ele>
        <time>2022-05-24T13:16:38Z</time>
      </trkpt>
      <trkpt lat="46.79652" lon="5.99925">
        <ele>837.4</ele>
        <time>2022-05-24T13:16:39Z</time>
      </trkpt>
      <trkpt lat="46.79649" lon="5.99928">
        <ele>837.8</ele>
        <time>2022-05-24T13:16:40Z</time>
      </trkpt>
      <trkpt lat="46.79645" lon="5.99932">
        <ele>837.8</ele>
        <time>2022-05-24T13:16:41Z</time>
      </trkpt>
      <trkpt lat="46.79642" lon="5.99936">
        <ele>837.8</ele>
        <time>2022-05-24T13:16:42Z</time>
      </trkpt>
      <trkpt lat="46.79642" lon="5.99936">
        <ele>837.8</ele>
        <time>2022-05-24T13:16:43Z</time>
      </trkpt>
      <trkpt lat="46.79638" lon="5.9994">
        <ele>837.8</ele>
        <time>2022-05-24T13:16:44Z</time>
      </trkpt>
      <trkpt lat="46.79635" lon="5.99944">
        <ele>837.8</ele>
        <time>2022-05-24T13:16:45Z</time>
      </trkpt>
      <trkpt lat="46.79631" lon="5.99948">
        <ele>838</ele>
        <time>2022-05-24T13:16:46Z</time>
      </trkpt>
      <trkpt lat="46.79628" lon="5.99952">
        <ele>838</ele>
        <time>2022-05-24T13:16:47Z</time>
      </trkpt>
      <trkpt lat="46.79625" lon="5.99956">
        <ele>838</ele>
        <time>2022-05-24T13:16:48Z</time>
      </trkpt>
      <trkpt lat="46.79622" lon="5.9996">
        <ele>838.2</ele>
        <time>2022-05-24T13:16:49Z</time>
      </trkpt>
      <trkpt lat="46.79618" lon="5.99964">
        <ele>838.2</ele>
        <time>2022-05-24T13:16:50Z</time>
      </trkpt>
      <trkpt lat="46.79615" lon="5.99967">
        <ele>838.6</ele>
        <time>2022-05-24T13:16:51Z</time>
      </trkpt>
      <trkpt lat="46.79611" lon="5.99971">
        <ele>838.6</ele>
        <time>2022-05-24T13:16:52Z</time>
      </trkpt>
      <trkpt lat="46.79608" lon="5.99975">
        <ele>839</ele>
        <time>2022-05-24T13:16:53Z</time>
      </trkpt>
      <trkpt lat="46.79604" lon="5.99978">
        <ele>839</ele>
        <time>2022-05-24T13:16:54Z</time>
      </trkpt>
      <trkpt lat="46.79601" lon="5.99982">
        <ele>839.2</ele>
        <time>2022-05-24T13:16:55Z</time>
      </trkpt>
      <trkpt lat="46.79598" lon="5.99987">
        <ele>839.4</ele>
        <time>2022-05-24T13:16:56Z</time>
      </trkpt>
      <trkpt lat="46.79594" lon="5.99991">
        <ele>839.8</ele>
        <time>2022-05-24T13:16:57Z</time>
      </trkpt>
      <trkpt lat="46.79591" lon="5.99995">
        <ele>840</ele>
        <time>2022-05-24T13:16:58Z</time>
      </trkpt>
      <trkpt lat="46.79588" lon="5.99998">
        <ele>840.2</ele>
        <time>2022-05-24T13:16:59Z</time>
      </trkpt>
      <trkpt lat="46.79584" lon="6.00001">
        <ele>840.6</ele>
        <time>2022-05-24T13:17:00Z</time>
      </trkpt>
      <trkpt lat="46.79581" lon="6.00004">
        <ele>840.8</ele>
        <time>2022-05-24T13:17:01Z</time>
      </trkpt>
      <trkpt lat="46.79577" lon="6.00007">
        <ele>841.2</ele>
        <time>2022-05-24T13:17:02Z</time>
      </trkpt>
      <trkpt lat="46.79574" lon="6.00009">
        <ele>841.4</ele>
        <time>2022-05-24T13:17:03Z</time>
      </trkpt>
      <trkpt lat="46.79571" lon="6.00011">
        <ele>841.6</ele>
        <time>2022-05-24T13:17:04Z</time>
      </trkpt>
      <trkpt lat="46.79567" lon="6.00013">
        <ele>841.8</ele>
        <time>2022-05-24T13:17:05Z</time>
      </trkpt>
      <trkpt lat="46.79564" lon="6.00015">
        <ele>842</ele>
        <time>2022-05-24T13:17:06Z</time>
      </trkpt>
      <trkpt lat="46.79561" lon="6.00018">
        <ele>842</ele>
        <time>2022-05-24T13:17:07Z</time>
      </trkpt>
      <trkpt lat="46.79557" lon="6.0002">
        <ele>842.4</ele>
        <time>2022-05-24T13:17:08Z</time>
      </trkpt>
      <trkpt lat="46.79553" lon="6.00022">
        <ele>842.4</ele>
        <time>2022-05-24T13:17:09Z</time>
      </trkpt>
      <trkpt lat="46.79549" lon="6.00025">
        <ele>842.6</ele>
        <time>2022-05-24T13:17:10Z</time>
      </trkpt>
      <trkpt lat="46.79546" lon="6.00028">
        <ele>842.6</ele>
        <time>2022-05-24T13:17:11Z</time>
      </trkpt>
      <trkpt lat="46.79542" lon="6.00031">
        <ele>842.6</ele>
        <time>2022-05-24T13:17:12Z</time>
      </trkpt>
      <trkpt lat="46.79538" lon="6.00036">
        <ele>842.6</ele>
        <time>2022-05-24T13:17:13Z</time>
      </trkpt>
      <trkpt lat="46.79533" lon="6.0004">
        <ele>842.8</ele>
        <time>2022-05-24T13:17:14Z</time>
      </trkpt>
      <trkpt lat="46.79529" lon="6.00044">
        <ele>842.8</ele>
        <time>2022-05-24T13:17:15Z</time>
      </trkpt>
      <trkpt lat="46.79525" lon="6.00049">
        <ele>842.8</ele>
        <time>2022-05-24T13:17:16Z</time>
      </trkpt>
      <trkpt lat="46.79521" lon="6.00053">
        <ele>842.8</ele>
        <time>2022-05-24T13:17:17Z</time>
      </trkpt>
      <trkpt lat="46.79517" lon="6.00058">
        <ele>842.8</ele>
        <time>2022-05-24T13:17:18Z</time>
      </trkpt>
      <trkpt lat="46.79513" lon="6.00063">
        <ele>842.8</ele>
        <time>2022-05-24T13:17:19Z</time>
      </trkpt>
      <trkpt lat="46.7951" lon="6.00068">
        <ele>842.8</ele>
        <time>2022-05-24T13:17:20Z</time>
      </trkpt>
      <trkpt lat="46.79507" lon="6.00073">
        <ele>842.8</ele>
        <time>2022-05-24T13:17:21Z</time>
      </trkpt>
      <trkpt lat="46.79504" lon="6.00079">
        <ele>842.8</ele>
        <time>2022-05-24T13:17:22Z</time>
      </trkpt>
      <trkpt lat="46.79501" lon="6.00085">
        <ele>842.6</ele>
        <time>2022-05-24T13:17:23Z</time>
      </trkpt>
      <trkpt lat="46.79498" lon="6.00092">
        <ele>842.6</ele>
        <time>2022-05-24T13:17:24Z</time>
      </trkpt>
      <trkpt lat="46.79495" lon="6.00098">
        <ele>842.4</ele>
        <time>2022-05-24T13:17:25Z</time>
      </trkpt>
      <trkpt lat="46.79492" lon="6.00105">
        <ele>842.4</ele>
        <time>2022-05-24T13:17:26Z</time>
      </trkpt>
      <trkpt lat="46.79488" lon="6.00112">
        <ele>842</ele>
        <time>2022-05-24T13:17:27Z</time>
      </trkpt>
      <trkpt lat="46.79485" lon="6.00119">
        <ele>841.8</ele>
        <time>2022-05-24T13:17:28Z</time>
      </trkpt>
      <trkpt lat="46.79482" lon="6.00126">
        <ele>841.8</ele>
        <time>2022-05-24T13:17:29Z</time>
      </trkpt>
      <trkpt lat="46.79479" lon="6.00133">
        <ele>841.6</ele>
        <time>2022-05-24T13:17:30Z</time>
      </trkpt>
      <trkpt lat="46.79476" lon="6.0014">
        <ele>841.6</ele>
        <time>2022-05-24T13:17:31Z</time>
      </trkpt>
      <trkpt lat="46.79472" lon="6.00147">
        <ele>841.2</ele>
        <time>2022-05-24T13:17:32Z</time>
      </trkpt>
      <trkpt lat="46.79469" lon="6.00154">
        <ele>841.2</ele>
        <time>2022-05-24T13:17:33Z</time>
      </trkpt>
      <trkpt lat="46.79466" lon="6.00161">
        <ele>841</ele>
        <time>2022-05-24T13:17:34Z</time>
      </trkpt>
      <trkpt lat="46.79463" lon="6.00169">
        <ele>841</ele>
        <time>2022-05-24T13:17:35Z</time>
      </trkpt>
      <trkpt lat="46.7946" lon="6.00177">
        <ele>840.6</ele>
        <time>2022-05-24T13:17:36Z</time>
      </trkpt>
      <trkpt lat="46.79456" lon="6.00186">
        <ele>840.4</ele>
        <time>2022-05-24T13:17:37Z</time>
      </trkpt>
      <trkpt lat="46.79451" lon="6.00193">
        <ele>840</ele>
        <time>2022-05-24T13:17:38Z</time>
      </trkpt>
      <trkpt lat="46.79446" lon="6.00201">
        <ele>839.6</ele>
        <time>2022-05-24T13:17:39Z</time>
      </trkpt>
      <trkpt lat="46.7944" lon="6.00209">
        <ele>839.4</ele>
        <time>2022-05-24T13:17:40Z</time>
      </trkpt>
      <trkpt lat="46.79434" lon="6.00216">
        <ele>839</ele>
        <time>2022-05-24T13:17:41Z</time>
      </trkpt>
      <trkpt lat="46.79427" lon="6.00223">
        <ele>838.4</ele>
        <time>2022-05-24T13:17:42Z</time>
      </trkpt>
      <trkpt lat="46.79419" lon="6.00228">
        <ele>837.8</ele>
        <time>2022-05-24T13:17:43Z</time>
      </trkpt>
      <trkpt lat="46.79412" lon="6.00232">
        <ele>837.4</ele>
        <time>2022-05-24T13:17:44Z</time>
      </trkpt>
      <trkpt lat="46.79404" lon="6.00235">
        <ele>837</ele>
        <time>2022-05-24T13:17:45Z</time>
      </trkpt>
      <trkpt lat="46.79396" lon="6.00236">
        <ele>836.6</ele>
        <time>2022-05-24T13:17:46Z</time>
      </trkpt>
      <trkpt lat="46.79387" lon="6.00236">
        <ele>836.2</ele>
        <time>2022-05-24T13:17:47Z</time>
      </trkpt>
      <trkpt lat="46.79378" lon="6.00235">
        <ele>835.8</ele>
        <time>2022-05-24T13:17:48Z</time>
      </trkpt>
      <trkpt lat="46.7937" lon="6.00234">
        <ele>835.4</ele>
        <time>2022-05-24T13:17:49Z</time>
      </trkpt>
      <trkpt lat="46.79362" lon="6.00233">
        <ele>835</ele>
        <time>2022-05-24T13:17:50Z</time>
      </trkpt>
      <trkpt lat="46.79354" lon="6.00232">
        <ele>834.6</ele>
        <time>2022-05-24T13:17:51Z</time>
      </trkpt>
      <trkpt lat="46.79347" lon="6.0023">
        <ele>834</ele>
        <time>2022-05-24T13:17:52Z</time>
      </trkpt>
      <trkpt lat="46.79339" lon="6.00227">
        <ele>833.4</ele>
        <time>2022-05-24T13:17:53Z</time>
      </trkpt>
      <trkpt lat="46.79332" lon="6.00223">
        <ele>832.6</ele>
        <time>2022-05-24T13:17:54Z</time>
      </trkpt>
      <trkpt lat="46.79326" lon="6.00218">
        <ele>831.8</ele>
        <time>2022-05-24T13:17:55Z</time>
      </trkpt>
      <trkpt lat="46.7932" lon="6.00212">
        <ele>831.2</ele>
        <time>2022-05-24T13:17:56Z</time>
      </trkpt>
      <trkpt lat="46.79315" lon="6.00206">
        <ele>830.4</ele>
        <time>2022-05-24T13:17:57Z</time>
      </trkpt>
      <trkpt lat="46.7931" lon="6.002">
        <ele>829.6</ele>
        <time>2022-05-24T13:17:58Z</time>
      </trkpt>
      <trkpt lat="46.79305" lon="6.00196">
        <ele>828.8</ele>
        <time>2022-05-24T13:17:59Z</time>
      </trkpt>
      <trkpt lat="46.79301" lon="6.00193">
        <ele>828.2</ele>
        <time>2022-05-24T13:18:00Z</time>
      </trkpt>
      <trkpt lat="46.79297" lon="6.00192">
        <ele>827.6</ele>
        <time>2022-05-24T13:18:01Z</time>
      </trkpt>
      <trkpt lat="46.79294" lon="6.00193">
        <ele>827</ele>
        <time>2022-05-24T13:18:02Z</time>
      </trkpt>
      <trkpt lat="46.7929" lon="6.00196">
        <ele>826.8</ele>
        <time>2022-05-24T13:18:03Z</time>
      </trkpt>
      <trkpt lat="46.79288" lon="6.00201">
        <ele>826.4</ele>
        <time>2022-05-24T13:18:04Z</time>
      </trkpt>
      <trkpt lat="46.79287" lon="6.00207">
        <ele>826.2</ele>
        <time>2022-05-24T13:18:05Z</time>
      </trkpt>
      <trkpt lat="46.79286" lon="6.00213">
        <ele>826</ele>
        <time>2022-05-24T13:18:06Z</time>
      </trkpt>
      <trkpt lat="46.79285" lon="6.00219">
        <ele>826</ele>
        <time>2022-05-24T13:18:07Z</time>
      </trkpt>
      <trkpt lat="46.79285" lon="6.00226">
        <ele>826</ele>
        <time>2022-05-24T13:18:08Z</time>
      </trkpt>
      <trkpt lat="46.79284" lon="6.00233">
        <ele>826</ele>
        <time>2022-05-24T13:18:09Z</time>
      </trkpt>
      <trkpt lat="46.79284" lon="6.0024">
        <ele>826</ele>
        <time>2022-05-24T13:18:10Z</time>
      </trkpt>
      <trkpt lat="46.79284" lon="6.00248">
        <ele>826</ele>
        <time>2022-05-24T13:18:11Z</time>
      </trkpt>
      <trkpt lat="46.79285" lon="6.00255">
        <ele>826</ele>
        <time>2022-05-24T13:18:12Z</time>
      </trkpt>
      <trkpt lat="46.79286" lon="6.00263">
        <ele>826</ele>
        <time>2022-05-24T13:18:13Z</time>
      </trkpt>
      <trkpt lat="46.79288" lon="6.00271">
        <ele>826</ele>
        <time>2022-05-24T13:18:14Z</time>
      </trkpt>
      <trkpt lat="46.79294" lon="6.00287">
        <ele>825.8</ele>
        <time>2022-05-24T13:18:15Z</time>
      </trkpt>
      <trkpt lat="46.79297" lon="6.00295">
        <ele>825.4</ele>
        <time>2022-05-24T13:18:16Z</time>
      </trkpt>
      <trkpt lat="46.79301" lon="6.00303">
        <ele>825.4</ele>
        <time>2022-05-24T13:18:17Z</time>
      </trkpt>
      <trkpt lat="46.79304" lon="6.00311">
        <ele>825.2</ele>
        <time>2022-05-24T13:18:18Z</time>
      </trkpt>
      <trkpt lat="46.79304" lon="6.00311">
        <ele>825.2</ele>
        <time>2022-05-24T13:18:19Z</time>
      </trkpt>
      <trkpt lat="46.79307" lon="6.00319">
        <ele>825.2</ele>
        <time>2022-05-24T13:18:20Z</time>
      </trkpt>
      <trkpt lat="46.79308" lon="6.00329">
        <ele>825.2</ele>
        <time>2022-05-24T13:18:21Z</time>
      </trkpt>
      <trkpt lat="46.79309" lon="6.00338">
        <ele>825</ele>
        <time>2022-05-24T13:18:22Z</time>
      </trkpt>
      <trkpt lat="46.79309" lon="6.00348">
        <ele>825</ele>
        <time>2022-05-24T13:18:23Z</time>
      </trkpt>
      <trkpt lat="46.79308" lon="6.00358">
        <ele>825</ele>
        <time>2022-05-24T13:18:24Z</time>
      </trkpt>
      <trkpt lat="46.79307" lon="6.00368">
        <ele>824.4</ele>
        <time>2022-05-24T13:18:25Z</time>
      </trkpt>
      <trkpt lat="46.79306" lon="6.00377">
        <ele>824.4</ele>
        <time>2022-05-24T13:18:26Z</time>
      </trkpt>
      <trkpt lat="46.79305" lon="6.00387">
        <ele>824.2</ele>
        <time>2022-05-24T13:18:27Z</time>
      </trkpt>
      <trkpt lat="46.79304" lon="6.00397">
        <ele>824.2</ele>
        <time>2022-05-24T13:18:28Z</time>
      </trkpt>
      <trkpt lat="46.79304" lon="6.00407">
        <ele>824.2</ele>
        <time>2022-05-24T13:18:29Z</time>
      </trkpt>
      <trkpt lat="46.79305" lon="6.00422">
        <ele>823.8</ele>
        <time>2022-05-24T13:18:30Z</time>
      </trkpt>
      <trkpt lat="46.79305" lon="6.00428">
        <ele>823.6</ele>
        <time>2022-05-24T13:18:31Z</time>
      </trkpt>
      <trkpt lat="46.79307" lon="6.00438">
        <ele>823.2</ele>
        <time>2022-05-24T13:18:32Z</time>
      </trkpt>
      <trkpt lat="46.79309" lon="6.00449">
        <ele>822.8</ele>
        <time>2022-05-24T13:18:33Z</time>
      </trkpt>
      <trkpt lat="46.79312" lon="6.00466">
        <ele>822.6</ele>
        <time>2022-05-24T13:18:34Z</time>
      </trkpt>
      <trkpt lat="46.79313" lon="6.00472">
        <ele>822.4</ele>
        <time>2022-05-24T13:18:35Z</time>
      </trkpt>
      <trkpt lat="46.79316" lon="6.00483">
        <ele>822.2</ele>
        <time>2022-05-24T13:18:36Z</time>
      </trkpt>
      <trkpt lat="46.79318" lon="6.00495">
        <ele>822</ele>
        <time>2022-05-24T13:18:37Z</time>
      </trkpt>
      <trkpt lat="46.79322" lon="6.00511">
        <ele>821.8</ele>
        <time>2022-05-24T13:18:38Z</time>
      </trkpt>
      <trkpt lat="46.79323" lon="6.00517">
        <ele>821.8</ele>
        <time>2022-05-24T13:18:39Z</time>
      </trkpt>
      <trkpt lat="46.79326" lon="6.00528">
        <ele>821.8</ele>
        <time>2022-05-24T13:18:40Z</time>
      </trkpt>
      <trkpt lat="46.79329" lon="6.00538">
        <ele>821.4</ele>
        <time>2022-05-24T13:18:41Z</time>
      </trkpt>
      <trkpt lat="46.79333" lon="6.00547">
        <ele>821.2</ele>
        <time>2022-05-24T13:18:42Z</time>
      </trkpt>
      <trkpt lat="46.79338" lon="6.00556">
        <ele>821.2</ele>
        <time>2022-05-24T13:18:43Z</time>
      </trkpt>
      <trkpt lat="46.79343" lon="6.00564">
        <ele>821.2</ele>
        <time>2022-05-24T13:18:44Z</time>
      </trkpt>
      <trkpt lat="46.79348" lon="6.00571">
        <ele>821</ele>
        <time>2022-05-24T13:18:45Z</time>
      </trkpt>
      <trkpt lat="46.79354" lon="6.00578">
        <ele>820.8</ele>
        <time>2022-05-24T13:18:46Z</time>
      </trkpt>
      <trkpt lat="46.7936" lon="6.00585">
        <ele>820.8</ele>
        <time>2022-05-24T13:18:47Z</time>
      </trkpt>
      <trkpt lat="46.79369" lon="6.00595">
        <ele>820.8</ele>
        <time>2022-05-24T13:18:48Z</time>
      </trkpt>
      <trkpt lat="46.79371" lon="6.00598">
        <ele>820.6</ele>
        <time>2022-05-24T13:18:49Z</time>
      </trkpt>
      <trkpt lat="46.79377" lon="6.00605">
        <ele>820.6</ele>
        <time>2022-05-24T13:18:50Z</time>
      </trkpt>
      <trkpt lat="46.79383" lon="6.00613">
        <ele>820.2</ele>
        <time>2022-05-24T13:18:51Z</time>
      </trkpt>
      <trkpt lat="46.79387" lon="6.00621">
        <ele>820</ele>
        <time>2022-05-24T13:18:52Z</time>
      </trkpt>
      <trkpt lat="46.79391" lon="6.0063">
        <ele>820</ele>
        <time>2022-05-24T13:18:53Z</time>
      </trkpt>
      <trkpt lat="46.79395" lon="6.00639">
        <ele>820</ele>
        <time>2022-05-24T13:18:54Z</time>
      </trkpt>
      <trkpt lat="46.79397" lon="6.00649">
        <ele>819.6</ele>
        <time>2022-05-24T13:18:55Z</time>
      </trkpt>
      <trkpt lat="46.794" lon="6.00658">
        <ele>819.4</ele>
        <time>2022-05-24T13:18:56Z</time>
      </trkpt>
      <trkpt lat="46.79402" lon="6.00667">
        <ele>819</ele>
        <time>2022-05-24T13:18:57Z</time>
      </trkpt>
      <trkpt lat="46.79404" lon="6.00675">
        <ele>818.8</ele>
        <time>2022-05-24T13:18:58Z</time>
      </trkpt>
      <trkpt lat="46.79405" lon="6.00682">
        <ele>818.4</ele>
        <time>2022-05-24T13:18:59Z</time>
      </trkpt>
      <trkpt lat="46.79406" lon="6.00687">
        <ele>818.2</ele>
        <time>2022-05-24T13:19:00Z</time>
      </trkpt>
      <trkpt lat="46.79406" lon="6.00692">
        <ele>818.2</ele>
        <time>2022-05-24T13:19:01Z</time>
      </trkpt>
      <trkpt lat="46.79405" lon="6.00696">
        <ele>817.8</ele>
        <time>2022-05-24T13:19:02Z</time>
      </trkpt>
      <trkpt lat="46.79404" lon="6.00699">
        <ele>817.8</ele>
        <time>2022-05-24T13:19:03Z</time>
      </trkpt>
      <trkpt lat="46.79402" lon="6.00703">
        <ele>817.4</ele>
        <time>2022-05-24T13:19:04Z</time>
      </trkpt>
      <trkpt lat="46.794" lon="6.00706">
        <ele>817.2</ele>
        <time>2022-05-24T13:19:05Z</time>
      </trkpt>
      <trkpt lat="46.79397" lon="6.00708">
        <ele>817</ele>
        <time>2022-05-24T13:19:06Z</time>
      </trkpt>
      <trkpt lat="46.79396" lon="6.00711">
        <ele>816.6</ele>
        <time>2022-05-24T13:19:07Z</time>
      </trkpt>
      <trkpt lat="46.79394" lon="6.00712">
        <ele>816.2</ele>
        <time>2022-05-24T13:19:08Z</time>
      </trkpt>
      <trkpt lat="46.79393" lon="6.00714">
        <ele>815.8</ele>
        <time>2022-05-24T13:19:09Z</time>
      </trkpt>
      <trkpt lat="46.79391" lon="6.00716">
        <ele>815.6</ele>
        <time>2022-05-24T13:19:10Z</time>
      </trkpt>
      <trkpt lat="46.79388" lon="6.00718">
        <ele>815.6</ele>
        <time>2022-05-24T13:19:11Z</time>
      </trkpt>
      <trkpt lat="46.79384" lon="6.00723">
        <ele>815.2</ele>
        <time>2022-05-24T13:19:12Z</time>
      </trkpt>
      <trkpt lat="46.79382" lon="6.00725">
        <ele>815.2</ele>
        <time>2022-05-24T13:19:13Z</time>
      </trkpt>
      <trkpt lat="46.79378" lon="6.00728">
        <ele>815.2</ele>
        <time>2022-05-24T13:19:14Z</time>
      </trkpt>
      <trkpt lat="46.79374" lon="6.00731">
        <ele>815.2</ele>
        <time>2022-05-24T13:19:15Z</time>
      </trkpt>
      <trkpt lat="46.79368" lon="6.00736">
        <ele>815.2</ele>
        <time>2022-05-24T13:19:16Z</time>
      </trkpt>
      <trkpt lat="46.79366" lon="6.00737">
        <ele>815.2</ele>
        <time>2022-05-24T13:19:17Z</time>
      </trkpt>
      <trkpt lat="46.79362" lon="6.0074">
        <ele>815.2</ele>
        <time>2022-05-24T13:19:18Z</time>
      </trkpt>
      <trkpt lat="46.79358" lon="6.00742">
        <ele>815.2</ele>
        <time>2022-05-24T13:19:19Z</time>
      </trkpt>
      <trkpt lat="46.79353" lon="6.00744">
        <ele>815.2</ele>
        <time>2022-05-24T13:19:20Z</time>
      </trkpt>
      <trkpt lat="46.79349" lon="6.00746">
        <ele>815.6</ele>
        <time>2022-05-24T13:19:21Z</time>
      </trkpt>
      <trkpt lat="46.79345" lon="6.00748">
        <ele>815.6</ele>
        <time>2022-05-24T13:19:22Z</time>
      </trkpt>
      <trkpt lat="46.79342" lon="6.0075">
        <ele>816.2</ele>
        <time>2022-05-24T13:19:23Z</time>
      </trkpt>
      <trkpt lat="46.79338" lon="6.00752">
        <ele>816.4</ele>
        <time>2022-05-24T13:19:24Z</time>
      </trkpt>
      <trkpt lat="46.79335" lon="6.00755">
        <ele>816.4</ele>
        <time>2022-05-24T13:19:25Z</time>
      </trkpt>
      <trkpt lat="46.79332" lon="6.00757">
        <ele>816.8</ele>
        <time>2022-05-24T13:19:26Z</time>
      </trkpt>
      <trkpt lat="46.79329" lon="6.0076">
        <ele>816.8</ele>
        <time>2022-05-24T13:19:27Z</time>
      </trkpt>
      <trkpt lat="46.79326" lon="6.00763">
        <ele>816.8</ele>
        <time>2022-05-24T13:19:28Z</time>
      </trkpt>
      <trkpt lat="46.79323" lon="6.00767">
        <ele>816.8</ele>
        <time>2022-05-24T13:19:29Z</time>
      </trkpt>
      <trkpt lat="46.7932" lon="6.00772">
        <ele>816.8</ele>
        <time>2022-05-24T13:19:30Z</time>
      </trkpt>
      <trkpt lat="46.79319" lon="6.00778">
        <ele>816.8</ele>
        <time>2022-05-24T13:19:31Z</time>
      </trkpt>
      <trkpt lat="46.79319" lon="6.00785">
        <ele>816.6</ele>
        <time>2022-05-24T13:19:32Z</time>
      </trkpt>
      <trkpt lat="46.79321" lon="6.00792">
        <ele>816.6</ele>
        <time>2022-05-24T13:19:33Z</time>
      </trkpt>
      <trkpt lat="46.79323" lon="6.00798">
        <ele>816.6</ele>
        <time>2022-05-24T13:19:34Z</time>
      </trkpt>
      <trkpt lat="46.79326" lon="6.00805">
        <ele>816.2</ele>
        <time>2022-05-24T13:19:35Z</time>
      </trkpt>
      <trkpt lat="46.79329" lon="6.00811">
        <ele>816.2</ele>
        <time>2022-05-24T13:19:36Z</time>
      </trkpt>
      <trkpt lat="46.79332" lon="6.00817">
        <ele>816.2</ele>
        <time>2022-05-24T13:19:37Z</time>
      </trkpt>
      <trkpt lat="46.79335" lon="6.00824">
        <ele>816</ele>
        <time>2022-05-24T13:19:38Z</time>
      </trkpt>
      <trkpt lat="46.79338" lon="6.0083">
        <ele>815.8</ele>
        <time>2022-05-24T13:19:39Z</time>
      </trkpt>
      <trkpt lat="46.7934" lon="6.00837">
        <ele>815.8</ele>
        <time>2022-05-24T13:19:40Z</time>
      </trkpt>
      <trkpt lat="46.79343" lon="6.00844">
        <ele>815.8</ele>
        <time>2022-05-24T13:19:41Z</time>
      </trkpt>
      <trkpt lat="46.79345" lon="6.00851">
        <ele>815.4</ele>
        <time>2022-05-24T13:19:42Z</time>
      </trkpt>
      <trkpt lat="46.79348" lon="6.00858">
        <ele>815.4</ele>
        <time>2022-05-24T13:19:43Z</time>
      </trkpt>
      <trkpt lat="46.79351" lon="6.00865">
        <ele>815.4</ele>
        <time>2022-05-24T13:19:44Z</time>
      </trkpt>
      <trkpt lat="46.79353" lon="6.00871">
        <ele>815.4</ele>
        <time>2022-05-24T13:19:45Z</time>
      </trkpt>
      <trkpt lat="46.79356" lon="6.00878">
        <ele>815.4</ele>
        <time>2022-05-24T13:19:46Z</time>
      </trkpt>
      <trkpt lat="46.79359" lon="6.00884">
        <ele>815.4</ele>
        <time>2022-05-24T13:19:47Z</time>
      </trkpt>
      <trkpt lat="46.79362" lon="6.0089">
        <ele>815.4</ele>
        <time>2022-05-24T13:19:48Z</time>
      </trkpt>
      <trkpt lat="46.79366" lon="6.00895">
        <ele>815.4</ele>
        <time>2022-05-24T13:19:49Z</time>
      </trkpt>
      <trkpt lat="46.79369" lon="6.00901">
        <ele>815.4</ele>
        <time>2022-05-24T13:19:50Z</time>
      </trkpt>
      <trkpt lat="46.79373" lon="6.00907">
        <ele>815.4</ele>
        <time>2022-05-24T13:19:51Z</time>
      </trkpt>
      <trkpt lat="46.79376" lon="6.00912">
        <ele>815.4</ele>
        <time>2022-05-24T13:19:52Z</time>
      </trkpt>
      <trkpt lat="46.7938" lon="6.00918">
        <ele>815.4</ele>
        <time>2022-05-24T13:19:53Z</time>
      </trkpt>
      <trkpt lat="46.79383" lon="6.00924">
        <ele>815.4</ele>
        <time>2022-05-24T13:19:54Z</time>
      </trkpt>
      <trkpt lat="46.79387" lon="6.0093">
        <ele>815.4</ele>
        <time>2022-05-24T13:19:55Z</time>
      </trkpt>
      <trkpt lat="46.7939" lon="6.00937">
        <ele>815.4</ele>
        <time>2022-05-24T13:19:56Z</time>
      </trkpt>
      <trkpt lat="46.79393" lon="6.00943">
        <ele>815.4</ele>
        <time>2022-05-24T13:19:57Z</time>
      </trkpt>
      <trkpt lat="46.79395" lon="6.0095">
        <ele>815.4</ele>
        <time>2022-05-24T13:19:58Z</time>
      </trkpt>
      <trkpt lat="46.79396" lon="6.00957">
        <ele>815.4</ele>
        <time>2022-05-24T13:19:59Z</time>
      </trkpt>
      <trkpt lat="46.79398" lon="6.00964">
        <ele>815.4</ele>
        <time>2022-05-24T13:20:00Z</time>
      </trkpt>
      <trkpt lat="46.794" lon="6.00971">
        <ele>815.4</ele>
        <time>2022-05-24T13:20:01Z</time>
      </trkpt>
      <trkpt lat="46.79402" lon="6.00978">
        <ele>815.4</ele>
        <time>2022-05-24T13:20:02Z</time>
      </trkpt>
      <trkpt lat="46.79403" lon="6.00985">
        <ele>815.8</ele>
        <time>2022-05-24T13:20:03Z</time>
      </trkpt>
      <trkpt lat="46.79405" lon="6.00991">
        <ele>815.8</ele>
        <time>2022-05-24T13:20:04Z</time>
      </trkpt>
      <trkpt lat="46.79407" lon="6.00998">
        <ele>816</ele>
        <time>2022-05-24T13:20:05Z</time>
      </trkpt>
      <trkpt lat="46.79409" lon="6.01004">
        <ele>816</ele>
        <time>2022-05-24T13:20:06Z</time>
      </trkpt>
      <trkpt lat="46.79411" lon="6.0101">
        <ele>816.4</ele>
        <time>2022-05-24T13:20:07Z</time>
      </trkpt>
      <trkpt lat="46.79414" lon="6.01015">
        <ele>816.6</ele>
        <time>2022-05-24T13:20:08Z</time>
      </trkpt>
      <trkpt lat="46.79416" lon="6.0102">
        <ele>816.8</ele>
        <time>2022-05-24T13:20:09Z</time>
      </trkpt>
      <trkpt lat="46.79419" lon="6.01026">
        <ele>817</ele>
        <time>2022-05-24T13:20:10Z</time>
      </trkpt>
      <trkpt lat="46.79422" lon="6.01031">
        <ele>817</ele>
        <time>2022-05-24T13:20:11Z</time>
      </trkpt>
      <trkpt lat="46.79425" lon="6.01036">
        <ele>817.4</ele>
        <time>2022-05-24T13:20:12Z</time>
      </trkpt>
      <trkpt lat="46.79428" lon="6.01041">
        <ele>817.6</ele>
        <time>2022-05-24T13:20:13Z</time>
      </trkpt>
      <trkpt lat="46.79431" lon="6.01047">
        <ele>817.6</ele>
        <time>2022-05-24T13:20:14Z</time>
      </trkpt>
      <trkpt lat="46.79433" lon="6.01052">
        <ele>818</ele>
        <time>2022-05-24T13:20:15Z</time>
      </trkpt>
      <trkpt lat="46.79435" lon="6.01058">
        <ele>818.2</ele>
        <time>2022-05-24T13:20:16Z</time>
      </trkpt>
      <trkpt lat="46.79438" lon="6.01063">
        <ele>818.4</ele>
        <time>2022-05-24T13:20:17Z</time>
      </trkpt>
      <trkpt lat="46.7944" lon="6.01068">
        <ele>818.6</ele>
        <time>2022-05-24T13:20:18Z</time>
      </trkpt>
      <trkpt lat="46.79443" lon="6.01073">
        <ele>818.8</ele>
        <time>2022-05-24T13:20:19Z</time>
      </trkpt>
      <trkpt lat="46.79445" lon="6.01078">
        <ele>819</ele>
        <time>2022-05-24T13:20:20Z</time>
      </trkpt>
      <trkpt lat="46.79448" lon="6.01082">
        <ele>819.4</ele>
        <time>2022-05-24T13:20:21Z</time>
      </trkpt>
      <trkpt lat="46.79451" lon="6.01087">
        <ele>819.6</ele>
        <time>2022-05-24T13:20:22Z</time>
      </trkpt>
      <trkpt lat="46.79454" lon="6.01092">
        <ele>820</ele>
        <time>2022-05-24T13:20:23Z</time>
      </trkpt>
      <trkpt lat="46.79456" lon="6.01097">
        <ele>820.2</ele>
        <time>2022-05-24T13:20:24Z</time>
      </trkpt>
      <trkpt lat="46.79459" lon="6.01101">
        <ele>820.4</ele>
        <time>2022-05-24T13:20:25Z</time>
      </trkpt>
      <trkpt lat="46.79461" lon="6.01106">
        <ele>820.6</ele>
        <time>2022-05-24T13:20:26Z</time>
      </trkpt>
      <trkpt lat="46.79463" lon="6.01111">
        <ele>821</ele>
        <time>2022-05-24T13:20:27Z</time>
      </trkpt>
      <trkpt lat="46.79466" lon="6.01115">
        <ele>821</ele>
        <time>2022-05-24T13:20:28Z</time>
      </trkpt>
      <trkpt lat="46.79468" lon="6.01119">
        <ele>821.2</ele>
        <time>2022-05-24T13:20:29Z</time>
      </trkpt>
      <trkpt lat="46.7947" lon="6.01122">
        <ele>821.2</ele>
        <time>2022-05-24T13:20:30Z</time>
      </trkpt>
      <trkpt lat="46.79472" lon="6.01126">
        <ele>821.6</ele>
        <time>2022-05-24T13:20:31Z</time>
      </trkpt>
      <trkpt lat="46.79474" lon="6.01129">
        <ele>821.8</ele>
        <time>2022-05-24T13:20:32Z</time>
      </trkpt>
      <trkpt lat="46.79476" lon="6.01133">
        <ele>821.8</ele>
        <time>2022-05-24T13:20:33Z</time>
      </trkpt>
      <trkpt lat="46.79477" lon="6.01137">
        <ele>821.8</ele>
        <time>2022-05-24T13:20:34Z</time>
      </trkpt>
      <trkpt lat="46.79478" lon="6.01141">
        <ele>822.2</ele>
        <time>2022-05-24T13:20:35Z</time>
      </trkpt>
      <trkpt lat="46.79478" lon="6.01146">
        <ele>822.2</ele>
        <time>2022-05-24T13:20:36Z</time>
      </trkpt>
      <trkpt lat="46.79477" lon="6.01151">
        <ele>822.2</ele>
        <time>2022-05-24T13:20:37Z</time>
      </trkpt>
      <trkpt lat="46.79476" lon="6.01155">
        <ele>822.4</ele>
        <time>2022-05-24T13:20:38Z</time>
      </trkpt>
      <trkpt lat="46.79474" lon="6.0116">
        <ele>822.4</ele>
        <time>2022-05-24T13:20:39Z</time>
      </trkpt>
      <trkpt lat="46.79473" lon="6.01166">
        <ele>822.4</ele>
        <time>2022-05-24T13:20:40Z</time>
      </trkpt>
      <trkpt lat="46.7947" lon="6.01172">
        <ele>822.4</ele>
        <time>2022-05-24T13:20:41Z</time>
      </trkpt>
      <trkpt lat="46.79468" lon="6.01178">
        <ele>822.4</ele>
        <time>2022-05-24T13:20:42Z</time>
      </trkpt>
      <trkpt lat="46.79466" lon="6.01185">
        <ele>822.4</ele>
        <time>2022-05-24T13:20:43Z</time>
      </trkpt>
      <trkpt lat="46.79463" lon="6.01192">
        <ele>822.4</ele>
        <time>2022-05-24T13:20:44Z</time>
      </trkpt>
      <trkpt lat="46.79461" lon="6.01199">
        <ele>822.4</ele>
        <time>2022-05-24T13:20:45Z</time>
      </trkpt>
      <trkpt lat="46.79458" lon="6.01206">
        <ele>822.4</ele>
        <time>2022-05-24T13:20:46Z</time>
      </trkpt>
      <trkpt lat="46.79456" lon="6.01213">
        <ele>822.4</ele>
        <time>2022-05-24T13:20:47Z</time>
      </trkpt>
      <trkpt lat="46.79453" lon="6.01221">
        <ele>822.4</ele>
        <time>2022-05-24T13:20:48Z</time>
      </trkpt>
      <trkpt lat="46.79451" lon="6.01228">
        <ele>822.2</ele>
        <time>2022-05-24T13:20:49Z</time>
      </trkpt>
      <trkpt lat="46.79448" lon="6.01236">
        <ele>822.2</ele>
        <time>2022-05-24T13:20:50Z</time>
      </trkpt>
      <trkpt lat="46.79445" lon="6.01243">
        <ele>821.6</ele>
        <time>2022-05-24T13:20:51Z</time>
      </trkpt>
      <trkpt lat="46.79442" lon="6.01251">
        <ele>821.4</ele>
        <time>2022-05-24T13:20:52Z</time>
      </trkpt>
      <trkpt lat="46.79439" lon="6.0126">
        <ele>821.4</ele>
        <time>2022-05-24T13:20:53Z</time>
      </trkpt>
      <trkpt lat="46.79436" lon="6.01269">
        <ele>821.2</ele>
        <time>2022-05-24T13:20:54Z</time>
      </trkpt>
      <trkpt lat="46.79434" lon="6.01278">
        <ele>820.8</ele>
        <time>2022-05-24T13:20:55Z</time>
      </trkpt>
      <trkpt lat="46.79432" lon="6.01288">
        <ele>820.8</ele>
        <time>2022-05-24T13:20:56Z</time>
      </trkpt>
      <trkpt lat="46.79431" lon="6.01298">
        <ele>820.6</ele>
        <time>2022-05-24T13:20:57Z</time>
      </trkpt>
      <trkpt lat="46.79429" lon="6.01308">
        <ele>820.6</ele>
        <time>2022-05-24T13:20:58Z</time>
      </trkpt>
      <trkpt lat="46.79428" lon="6.01318">
        <ele>820</ele>
        <time>2022-05-24T13:20:59Z</time>
      </trkpt>
      <trkpt lat="46.79426" lon="6.01328">
        <ele>819.8</ele>
        <time>2022-05-24T13:21:00Z</time>
      </trkpt>
      <trkpt lat="46.79425" lon="6.01339">
        <ele>819.6</ele>
        <time>2022-05-24T13:21:01Z</time>
      </trkpt>
      <trkpt lat="46.79423" lon="6.0135">
        <ele>819.4</ele>
        <time>2022-05-24T13:21:02Z</time>
      </trkpt>
      <trkpt lat="46.7942" lon="6.01361">
        <ele>819</ele>
        <time>2022-05-24T13:21:03Z</time>
      </trkpt>
      <trkpt lat="46.79418" lon="6.01372">
        <ele>818.6</ele>
        <time>2022-05-24T13:21:04Z</time>
      </trkpt>
      <trkpt lat="46.79414" lon="6.01385">
        <ele>818.2</ele>
        <time>2022-05-24T13:21:05Z</time>
      </trkpt>
      <trkpt lat="46.79411" lon="6.01398">
        <ele>817.6</ele>
        <time>2022-05-24T13:21:06Z</time>
      </trkpt>
      <trkpt lat="46.79408" lon="6.01412">
        <ele>817.2</ele>
        <time>2022-05-24T13:21:07Z</time>
      </trkpt>
      <trkpt lat="46.79405" lon="6.01427">
        <ele>816.8</ele>
        <time>2022-05-24T13:21:08Z</time>
      </trkpt>
      <trkpt lat="46.794" lon="6.01441">
        <ele>816.2</ele>
        <time>2022-05-24T13:21:09Z</time>
      </trkpt>
      <trkpt lat="46.79396" lon="6.01456">
        <ele>815.6</ele>
        <time>2022-05-24T13:21:10Z</time>
      </trkpt>
      <trkpt lat="46.79392" lon="6.01471">
        <ele>815.2</ele>
        <time>2022-05-24T13:21:11Z</time>
      </trkpt>
      <trkpt lat="46.79387" lon="6.01487">
        <ele>814.4</ele>
        <time>2022-05-24T13:21:12Z</time>
      </trkpt>
      <trkpt lat="46.79381" lon="6.01501">
        <ele>813.8</ele>
        <time>2022-05-24T13:21:13Z</time>
      </trkpt>
      <trkpt lat="46.79376" lon="6.01514">
        <ele>812.6</ele>
        <time>2022-05-24T13:21:14Z</time>
      </trkpt>
      <trkpt lat="46.79371" lon="6.01524">
        <ele>810.8</ele>
        <time>2022-05-24T13:21:15Z</time>
      </trkpt>
      <trkpt lat="46.79367" lon="6.01534">
        <ele>810</ele>
        <time>2022-05-24T13:21:16Z</time>
      </trkpt>
      <trkpt lat="46.79362" lon="6.01543">
        <ele>809</ele>
        <time>2022-05-24T13:21:17Z</time>
      </trkpt>
      <trkpt lat="46.79358" lon="6.01551">
        <ele>808.2</ele>
        <time>2022-05-24T13:21:18Z</time>
      </trkpt>
      <trkpt lat="46.79354" lon="6.01558">
        <ele>807.6</ele>
        <time>2022-05-24T13:21:19Z</time>
      </trkpt>
      <trkpt lat="46.79352" lon="6.01565">
        <ele>806.8</ele>
        <time>2022-05-24T13:21:20Z</time>
      </trkpt>
      <trkpt lat="46.79351" lon="6.01572">
        <ele>806.4</ele>
        <time>2022-05-24T13:21:21Z</time>
      </trkpt>
      <trkpt lat="46.79352" lon="6.01579">
        <ele>805.8</ele>
        <time>2022-05-24T13:21:22Z</time>
      </trkpt>
      <trkpt lat="46.79355" lon="6.01586">
        <ele>805.4</ele>
        <time>2022-05-24T13:21:23Z</time>
      </trkpt>
      <trkpt lat="46.7936" lon="6.01594">
        <ele>804.8</ele>
        <time>2022-05-24T13:21:24Z</time>
      </trkpt>
      <trkpt lat="46.79365" lon="6.01601">
        <ele>804.2</ele>
        <time>2022-05-24T13:21:25Z</time>
      </trkpt>
      <trkpt lat="46.79372" lon="6.01609">
        <ele>803.6</ele>
        <time>2022-05-24T13:21:26Z</time>
      </trkpt>
      <trkpt lat="46.79379" lon="6.01617">
        <ele>803</ele>
        <time>2022-05-24T13:21:27Z</time>
      </trkpt>
      <trkpt lat="46.79396" lon="6.01635">
        <ele>802.2</ele>
        <time>2022-05-24T13:21:28Z</time>
      </trkpt>
      <trkpt lat="46.79405" lon="6.01644">
        <ele>801.8</ele>
        <time>2022-05-24T13:21:29Z</time>
      </trkpt>
      <trkpt lat="46.79413" lon="6.01653">
        <ele>801.2</ele>
        <time>2022-05-24T13:21:30Z</time>
      </trkpt>
      <trkpt lat="46.79421" lon="6.01661">
        <ele>800.8</ele>
        <time>2022-05-24T13:21:31Z</time>
      </trkpt>
      <trkpt lat="46.79428" lon="6.01668">
        <ele>800.6</ele>
        <time>2022-05-24T13:21:32Z</time>
      </trkpt>
      <trkpt lat="46.79436" lon="6.01676">
        <ele>800.2</ele>
        <time>2022-05-24T13:21:33Z</time>
      </trkpt>
      <trkpt lat="46.79444" lon="6.01682">
        <ele>800</ele>
        <time>2022-05-24T13:21:34Z</time>
      </trkpt>
      <trkpt lat="46.7945" lon="6.01689">
        <ele>799.6</ele>
        <time>2022-05-24T13:21:35Z</time>
      </trkpt>
      <trkpt lat="46.79454" lon="6.01696">
        <ele>799.6</ele>
        <time>2022-05-24T13:21:36Z</time>
      </trkpt>
      <trkpt lat="46.79456" lon="6.01704">
        <ele>799.4</ele>
        <time>2022-05-24T13:21:37Z</time>
      </trkpt>
      <trkpt lat="46.79457" lon="6.01711">
        <ele>799.4</ele>
        <time>2022-05-24T13:21:38Z</time>
      </trkpt>
      <trkpt lat="46.79456" lon="6.01717">
        <ele>799.4</ele>
        <time>2022-05-24T13:21:39Z</time>
      </trkpt>
      <trkpt lat="46.79454" lon="6.01724">
        <ele>799.4</ele>
        <time>2022-05-24T13:21:40Z</time>
      </trkpt>
      <trkpt lat="46.79453" lon="6.01731">
        <ele>799.4</ele>
        <time>2022-05-24T13:21:41Z</time>
      </trkpt>
      <trkpt lat="46.79451" lon="6.01737">
        <ele>799.4</ele>
        <time>2022-05-24T13:21:42Z</time>
      </trkpt>
      <trkpt lat="46.7945" lon="6.01744">
        <ele>799.4</ele>
        <time>2022-05-24T13:21:43Z</time>
      </trkpt>
      <trkpt lat="46.79449" lon="6.0175">
        <ele>799.6</ele>
        <time>2022-05-24T13:21:44Z</time>
      </trkpt>
      <trkpt lat="46.79449" lon="6.01757">
        <ele>799.6</ele>
        <time>2022-05-24T13:21:45Z</time>
      </trkpt>
      <trkpt lat="46.79449" lon="6.01764">
        <ele>799.8</ele>
        <time>2022-05-24T13:21:46Z</time>
      </trkpt>
      <trkpt lat="46.79449" lon="6.01771">
        <ele>800</ele>
        <time>2022-05-24T13:21:47Z</time>
      </trkpt>
      <trkpt lat="46.7945" lon="6.01778">
        <ele>800.4</ele>
        <time>2022-05-24T13:21:48Z</time>
      </trkpt>
      <trkpt lat="46.7945" lon="6.01785">
        <ele>800.6</ele>
        <time>2022-05-24T13:21:49Z</time>
      </trkpt>
      <trkpt lat="46.79452" lon="6.01791">
        <ele>800.8</ele>
        <time>2022-05-24T13:21:50Z</time>
      </trkpt>
      <trkpt lat="46.79453" lon="6.01797">
        <ele>801.2</ele>
        <time>2022-05-24T13:21:51Z</time>
      </trkpt>
      <trkpt lat="46.79453" lon="6.01797">
        <ele>801.6</ele>
        <time>2022-05-24T13:21:52Z</time>
      </trkpt>
      <trkpt lat="46.79455" lon="6.01802">
        <ele>801.8</ele>
        <time>2022-05-24T13:21:53Z</time>
      </trkpt>
      <trkpt lat="46.79458" lon="6.01806">
        <ele>802.4</ele>
        <time>2022-05-24T13:21:54Z</time>
      </trkpt>
      <trkpt lat="46.7946" lon="6.01811">
        <ele>802.8</ele>
        <time>2022-05-24T13:21:55Z</time>
      </trkpt>
      <trkpt lat="46.79463" lon="6.01815">
        <ele>803.2</ele>
        <time>2022-05-24T13:21:56Z</time>
      </trkpt>
      <trkpt lat="46.79466" lon="6.01819">
        <ele>803.6</ele>
        <time>2022-05-24T13:21:57Z</time>
      </trkpt>
      <trkpt lat="46.79469" lon="6.01822">
        <ele>804</ele>
        <time>2022-05-24T13:21:58Z</time>
      </trkpt>
      <trkpt lat="46.79472" lon="6.01826">
        <ele>804.4</ele>
        <time>2022-05-24T13:21:59Z</time>
      </trkpt>
      <trkpt lat="46.79475" lon="6.01829">
        <ele>804.6</ele>
        <time>2022-05-24T13:22:00Z</time>
      </trkpt>
      <trkpt lat="46.79478" lon="6.01833">
        <ele>805</ele>
        <time>2022-05-24T13:22:01Z</time>
      </trkpt>
      <trkpt lat="46.7948" lon="6.01837">
        <ele>805.4</ele>
        <time>2022-05-24T13:22:02Z</time>
      </trkpt>
      <trkpt lat="46.79483" lon="6.01841">
        <ele>805.8</ele>
        <time>2022-05-24T13:22:03Z</time>
      </trkpt>
      <trkpt lat="46.79486" lon="6.01845">
        <ele>806</ele>
        <time>2022-05-24T13:22:04Z</time>
      </trkpt>
      <trkpt lat="46.7949" lon="6.01853">
        <ele>806.8</ele>
        <time>2022-05-24T13:22:05Z</time>
      </trkpt>
      <trkpt lat="46.79491" lon="6.01857">
        <ele>807</ele>
        <time>2022-05-24T13:22:06Z</time>
      </trkpt>
      <trkpt lat="46.79493" lon="6.0186">
        <ele>807.4</ele>
        <time>2022-05-24T13:22:07Z</time>
      </trkpt>
      <trkpt lat="46.79494" lon="6.01864">
        <ele>807.8</ele>
        <time>2022-05-24T13:22:08Z</time>
      </trkpt>
      <trkpt lat="46.79495" lon="6.01868">
        <ele>808</ele>
        <time>2022-05-24T13:22:09Z</time>
      </trkpt>
      <trkpt lat="46.79497" lon="6.01872">
        <ele>808.2</ele>
        <time>2022-05-24T13:22:10Z</time>
      </trkpt>
      <trkpt lat="46.79498" lon="6.01876">
        <ele>808.4</ele>
        <time>2022-05-24T13:22:11Z</time>
      </trkpt>
      <trkpt lat="46.795" lon="6.01881">
        <ele>808.4</ele>
        <time>2022-05-24T13:22:12Z</time>
      </trkpt>
      <trkpt lat="46.79501" lon="6.01885">
        <ele>808.8</ele>
        <time>2022-05-24T13:22:13Z</time>
      </trkpt>
      <trkpt lat="46.79503" lon="6.01889">
        <ele>808.8</ele>
        <time>2022-05-24T13:22:14Z</time>
      </trkpt>
      <trkpt lat="46.79504" lon="6.01894">
        <ele>809.2</ele>
        <time>2022-05-24T13:22:15Z</time>
      </trkpt>
      <trkpt lat="46.79505" lon="6.01899">
        <ele>809.2</ele>
        <time>2022-05-24T13:22:16Z</time>
      </trkpt>
      <trkpt lat="46.79507" lon="6.01903">
        <ele>809.6</ele>
        <time>2022-05-24T13:22:17Z</time>
      </trkpt>
      <trkpt lat="46.79507" lon="6.01903">
        <ele>809.6</ele>
        <time>2022-05-24T13:22:18Z</time>
      </trkpt>
      <trkpt lat="46.79508" lon="6.01908">
        <ele>809.6</ele>
        <time>2022-05-24T13:22:19Z</time>
      </trkpt>
      <trkpt lat="46.7951" lon="6.01912">
        <ele>809.8</ele>
        <time>2022-05-24T13:22:20Z</time>
      </trkpt>
      <trkpt lat="46.79511" lon="6.01916">
        <ele>809.8</ele>
        <time>2022-05-24T13:22:21Z</time>
      </trkpt>
      <trkpt lat="46.79513" lon="6.01921">
        <ele>810.2</ele>
        <time>2022-05-24T13:22:22Z</time>
      </trkpt>
      <trkpt lat="46.79514" lon="6.01926">
        <ele>810.2</ele>
        <time>2022-05-24T13:22:23Z</time>
      </trkpt>
      <trkpt lat="46.79516" lon="6.0193">
        <ele>810.2</ele>
        <time>2022-05-24T13:22:24Z</time>
      </trkpt>
      <trkpt lat="46.79517" lon="6.01935">
        <ele>810.4</ele>
        <time>2022-05-24T13:22:25Z</time>
      </trkpt>
      <trkpt lat="46.79521" lon="6.01944">
        <ele>810.4</ele>
        <time>2022-05-24T13:22:26Z</time>
      </trkpt>
      <trkpt lat="46.79523" lon="6.01949">
        <ele>810.6</ele>
        <time>2022-05-24T13:22:27Z</time>
      </trkpt>
      <trkpt lat="46.79526" lon="6.01953">
        <ele>810.6</ele>
        <time>2022-05-24T13:22:28Z</time>
      </trkpt>
      <trkpt lat="46.7953" lon="6.01955">
        <ele>811</ele>
        <time>2022-05-24T13:22:29Z</time>
      </trkpt>
      <trkpt lat="46.79533" lon="6.01955">
        <ele>811</ele>
        <time>2022-05-24T13:22:30Z</time>
      </trkpt>
      <trkpt lat="46.79537" lon="6.01955">
        <ele>811.2</ele>
        <time>2022-05-24T13:22:31Z</time>
      </trkpt>
      <trkpt lat="46.7954" lon="6.01954">
        <ele>811.6</ele>
        <time>2022-05-24T13:22:32Z</time>
      </trkpt>
      <trkpt lat="46.79543" lon="6.01952">
        <ele>811.8</ele>
        <time>2022-05-24T13:22:33Z</time>
      </trkpt>
      <trkpt lat="46.79546" lon="6.01951">
        <ele>811.8</ele>
        <time>2022-05-24T13:22:34Z</time>
      </trkpt>
      <trkpt lat="46.79549" lon="6.01949">
        <ele>811.8</ele>
        <time>2022-05-24T13:22:35Z</time>
      </trkpt>
      <trkpt lat="46.79552" lon="6.01948">
        <ele>812.2</ele>
        <time>2022-05-24T13:22:36Z</time>
      </trkpt>
      <trkpt lat="46.79556" lon="6.01946">
        <ele>812.2</ele>
        <time>2022-05-24T13:22:37Z</time>
      </trkpt>
      <trkpt lat="46.79559" lon="6.01945">
        <ele>812.4</ele>
        <time>2022-05-24T13:22:38Z</time>
      </trkpt>
      <trkpt lat="46.79562" lon="6.01944">
        <ele>812.4</ele>
        <time>2022-05-24T13:22:39Z</time>
      </trkpt>
      <trkpt lat="46.79565" lon="6.01942">
        <ele>812.4</ele>
        <time>2022-05-24T13:22:40Z</time>
      </trkpt>
      <trkpt lat="46.79569" lon="6.01941">
        <ele>812.6</ele>
        <time>2022-05-24T13:22:41Z</time>
      </trkpt>
      <trkpt lat="46.79573" lon="6.01939">
        <ele>812.6</ele>
        <time>2022-05-24T13:22:42Z</time>
      </trkpt>
      <trkpt lat="46.79577" lon="6.01937">
        <ele>812.8</ele>
        <time>2022-05-24T13:22:43Z</time>
      </trkpt>
      <trkpt lat="46.79582" lon="6.01936">
        <ele>812.8</ele>
        <time>2022-05-24T13:22:44Z</time>
      </trkpt>
      <trkpt lat="46.79586" lon="6.01935">
        <ele>812.8</ele>
        <time>2022-05-24T13:22:45Z</time>
      </trkpt>
      <trkpt lat="46.79592" lon="6.01933">
        <ele>812.8</ele>
        <time>2022-05-24T13:22:46Z</time>
      </trkpt>
      <trkpt lat="46.79597" lon="6.01932">
        <ele>812.8</ele>
        <time>2022-05-24T13:22:47Z</time>
      </trkpt>
      <trkpt lat="46.79604" lon="6.0193">
        <ele>812.8</ele>
        <time>2022-05-24T13:22:48Z</time>
      </trkpt>
      <trkpt lat="46.7961" lon="6.01927">
        <ele>812.8</ele>
        <time>2022-05-24T13:22:49Z</time>
      </trkpt>
      <trkpt lat="46.79616" lon="6.01925">
        <ele>812.8</ele>
        <time>2022-05-24T13:22:50Z</time>
      </trkpt>
      <trkpt lat="46.79623" lon="6.01922">
        <ele>812.6</ele>
        <time>2022-05-24T13:22:51Z</time>
      </trkpt>
      <trkpt lat="46.7963" lon="6.0192">
        <ele>812.6</ele>
        <time>2022-05-24T13:22:52Z</time>
      </trkpt>
      <trkpt lat="46.7963" lon="6.0192">
        <ele>812.6</ele>
        <time>2022-05-24T13:22:53Z</time>
      </trkpt>
      <trkpt lat="46.79637" lon="6.01918">
        <ele>812.2</ele>
        <time>2022-05-24T13:22:54Z</time>
      </trkpt>
      <trkpt lat="46.79643" lon="6.01916">
        <ele>812.2</ele>
        <time>2022-05-24T13:22:55Z</time>
      </trkpt>
      <trkpt lat="46.7965" lon="6.01913">
        <ele>812.2</ele>
        <time>2022-05-24T13:22:56Z</time>
      </trkpt>
      <trkpt lat="46.79656" lon="6.01911">
        <ele>812.2</ele>
        <time>2022-05-24T13:22:57Z</time>
      </trkpt>
      <trkpt lat="46.79663" lon="6.01909">
        <ele>811.8</ele>
        <time>2022-05-24T13:22:58Z</time>
      </trkpt>
      <trkpt lat="46.79669" lon="6.01907">
        <ele>811.8</ele>
        <time>2022-05-24T13:22:59Z</time>
      </trkpt>
      <trkpt lat="46.79676" lon="6.01905">
        <ele>811.6</ele>
        <time>2022-05-24T13:23:00Z</time>
      </trkpt>
      <trkpt lat="46.79682" lon="6.01903">
        <ele>811.2</ele>
        <time>2022-05-24T13:23:01Z</time>
      </trkpt>
      <trkpt lat="46.79687" lon="6.01901">
        <ele>811.2</ele>
        <time>2022-05-24T13:23:02Z</time>
      </trkpt>
      <trkpt lat="46.79693" lon="6.01899">
        <ele>811</ele>
        <time>2022-05-24T13:23:03Z</time>
      </trkpt>
      <trkpt lat="46.79699" lon="6.01897">
        <ele>811</ele>
        <time>2022-05-24T13:23:04Z</time>
      </trkpt>
      <trkpt lat="46.79705" lon="6.01896">
        <ele>810.8</ele>
        <time>2022-05-24T13:23:05Z</time>
      </trkpt>
      <trkpt lat="46.79711" lon="6.01893">
        <ele>810.8</ele>
        <time>2022-05-24T13:23:06Z</time>
      </trkpt>
      <trkpt lat="46.79717" lon="6.01891">
        <ele>810.8</ele>
        <time>2022-05-24T13:23:07Z</time>
      </trkpt>
      <trkpt lat="46.79723" lon="6.01889">
        <ele>810.8</ele>
        <time>2022-05-24T13:23:08Z</time>
      </trkpt>
      <trkpt lat="46.79729" lon="6.01887">
        <ele>810.4</ele>
        <time>2022-05-24T13:23:09Z</time>
      </trkpt>
      <trkpt lat="46.79735" lon="6.01886">
        <ele>810.4</ele>
        <time>2022-05-24T13:23:10Z</time>
      </trkpt>
      <trkpt lat="46.79741" lon="6.01886">
        <ele>810</ele>
        <time>2022-05-24T13:23:11Z</time>
      </trkpt>
      <trkpt lat="46.79748" lon="6.01887">
        <ele>809.8</ele>
        <time>2022-05-24T13:23:12Z</time>
      </trkpt>
      <trkpt lat="46.79754" lon="6.01891">
        <ele>809.8</ele>
        <time>2022-05-24T13:23:13Z</time>
      </trkpt>
      <trkpt lat="46.7976" lon="6.01895">
        <ele>809.6</ele>
        <time>2022-05-24T13:23:14Z</time>
      </trkpt>
      <trkpt lat="46.79765" lon="6.01901">
        <ele>809.6</ele>
        <time>2022-05-24T13:23:15Z</time>
      </trkpt>
      <trkpt lat="46.79769" lon="6.01907">
        <ele>809.6</ele>
        <time>2022-05-24T13:23:16Z</time>
      </trkpt>
      <trkpt lat="46.79774" lon="6.01913">
        <ele>809.6</ele>
        <time>2022-05-24T13:23:17Z</time>
      </trkpt>
      <trkpt lat="46.79778" lon="6.01919">
        <ele>809.6</ele>
        <time>2022-05-24T13:23:18Z</time>
      </trkpt>
      <trkpt lat="46.79783" lon="6.01924">
        <ele>809.6</ele>
        <time>2022-05-24T13:23:19Z</time>
      </trkpt>
      <trkpt lat="46.79787" lon="6.01929">
        <ele>809.8</ele>
        <time>2022-05-24T13:23:20Z</time>
      </trkpt>
      <trkpt lat="46.79791" lon="6.01933">
        <ele>810</ele>
        <time>2022-05-24T13:23:21Z</time>
      </trkpt>
      <trkpt lat="46.79796" lon="6.01937">
        <ele>810.2</ele>
        <time>2022-05-24T13:23:22Z</time>
      </trkpt>
      <trkpt lat="46.798" lon="6.0194">
        <ele>810.4</ele>
        <time>2022-05-24T13:23:23Z</time>
      </trkpt>
      <trkpt lat="46.79805" lon="6.01942">
        <ele>810.8</ele>
        <time>2022-05-24T13:23:24Z</time>
      </trkpt>
      <trkpt lat="46.7981" lon="6.01945">
        <ele>810.8</ele>
        <time>2022-05-24T13:23:25Z</time>
      </trkpt>
      <trkpt lat="46.79815" lon="6.01947">
        <ele>811</ele>
        <time>2022-05-24T13:23:26Z</time>
      </trkpt>
      <trkpt lat="46.79819" lon="6.01948">
        <ele>811</ele>
        <time>2022-05-24T13:23:27Z</time>
      </trkpt>
      <trkpt lat="46.79824" lon="6.0195">
        <ele>811</ele>
        <time>2022-05-24T13:23:28Z</time>
      </trkpt>
      <trkpt lat="46.79829" lon="6.01951">
        <ele>811.2</ele>
        <time>2022-05-24T13:23:29Z</time>
      </trkpt>
      <trkpt lat="46.79833" lon="6.01951">
        <ele>811.2</ele>
        <time>2022-05-24T13:23:30Z</time>
      </trkpt>
      <trkpt lat="46.79838" lon="6.01952">
        <ele>811.2</ele>
        <time>2022-05-24T13:23:31Z</time>
      </trkpt>
      <trkpt lat="46.79843" lon="6.01954">
        <ele>811.2</ele>
        <time>2022-05-24T13:23:32Z</time>
      </trkpt>
      <trkpt lat="46.79848" lon="6.01956">
        <ele>811.2</ele>
        <time>2022-05-24T13:23:33Z</time>
      </trkpt>
      <trkpt lat="46.79852" lon="6.0196">
        <ele>811.2</ele>
        <time>2022-05-24T13:23:34Z</time>
      </trkpt>
      <trkpt lat="46.79856" lon="6.01965">
        <ele>811.4</ele>
        <time>2022-05-24T13:23:35Z</time>
      </trkpt>
      <trkpt lat="46.79859" lon="6.01969">
        <ele>811.4</ele>
        <time>2022-05-24T13:23:36Z</time>
      </trkpt>
      <trkpt lat="46.79861" lon="6.01974">
        <ele>811.6</ele>
        <time>2022-05-24T13:23:37Z</time>
      </trkpt>
      <trkpt lat="46.79863" lon="6.01979">
        <ele>811.8</ele>
        <time>2022-05-24T13:23:38Z</time>
      </trkpt>
      <trkpt lat="46.79864" lon="6.01984">
        <ele>812.2</ele>
        <time>2022-05-24T13:23:39Z</time>
      </trkpt>
      <trkpt lat="46.79865" lon="6.01988">
        <ele>812.4</ele>
        <time>2022-05-24T13:23:40Z</time>
      </trkpt>
      <trkpt lat="46.79866" lon="6.01992">
        <ele>812.6</ele>
        <time>2022-05-24T13:23:41Z</time>
      </trkpt>
      <trkpt lat="46.79866" lon="6.01996">
        <ele>812.8</ele>
        <time>2022-05-24T13:23:42Z</time>
      </trkpt>
      <trkpt lat="46.79867" lon="6.02">
        <ele>813.2</ele>
        <time>2022-05-24T13:23:43Z</time>
      </trkpt>
      <trkpt lat="46.79869" lon="6.02005">
        <ele>813.2</ele>
        <time>2022-05-24T13:23:44Z</time>
      </trkpt>
      <trkpt lat="46.7987" lon="6.02009">
        <ele>813.4</ele>
        <time>2022-05-24T13:23:45Z</time>
      </trkpt>
      <trkpt lat="46.79871" lon="6.02014">
        <ele>813.4</ele>
        <time>2022-05-24T13:23:46Z</time>
      </trkpt>
      <trkpt lat="46.79872" lon="6.0202">
        <ele>813.8</ele>
        <time>2022-05-24T13:23:47Z</time>
      </trkpt>
      <trkpt lat="46.79873" lon="6.02026">
        <ele>813.8</ele>
        <time>2022-05-24T13:23:48Z</time>
      </trkpt>
      <trkpt lat="46.79874" lon="6.02033">
        <ele>813.8</ele>
        <time>2022-05-24T13:23:49Z</time>
      </trkpt>
      <trkpt lat="46.79876" lon="6.02039">
        <ele>813.8</ele>
        <time>2022-05-24T13:23:50Z</time>
      </trkpt>
      <trkpt lat="46.79877" lon="6.02046">
        <ele>813.8</ele>
        <time>2022-05-24T13:23:51Z</time>
      </trkpt>
      <trkpt lat="46.79878" lon="6.02054">
        <ele>813.6</ele>
        <time>2022-05-24T13:23:52Z</time>
      </trkpt>
      <trkpt lat="46.7988" lon="6.02062">
        <ele>813.6</ele>
        <time>2022-05-24T13:23:53Z</time>
      </trkpt>
      <trkpt lat="46.79882" lon="6.0207">
        <ele>813.2</ele>
        <time>2022-05-24T13:23:54Z</time>
      </trkpt>
      <trkpt lat="46.79884" lon="6.02078">
        <ele>813.2</ele>
        <time>2022-05-24T13:23:55Z</time>
      </trkpt>
      <trkpt lat="46.79886" lon="6.02087">
        <ele>812.8</ele>
        <time>2022-05-24T13:23:56Z</time>
      </trkpt>
      <trkpt lat="46.79888" lon="6.02095">
        <ele>812.8</ele>
        <time>2022-05-24T13:23:57Z</time>
      </trkpt>
      <trkpt lat="46.79891" lon="6.02104">
        <ele>812.6</ele>
        <time>2022-05-24T13:23:58Z</time>
      </trkpt>
      <trkpt lat="46.79894" lon="6.02112">
        <ele>812.4</ele>
        <time>2022-05-24T13:23:59Z</time>
      </trkpt>
      <trkpt lat="46.79897" lon="6.02121">
        <ele>812.4</ele>
        <time>2022-05-24T13:24:00Z</time>
      </trkpt>
      <trkpt lat="46.79899" lon="6.02129">
        <ele>812.2</ele>
        <time>2022-05-24T13:24:01Z</time>
      </trkpt>
      <trkpt lat="46.79902" lon="6.02137">
        <ele>812.2</ele>
        <time>2022-05-24T13:24:02Z</time>
      </trkpt>
      <trkpt lat="46.79905" lon="6.02145">
        <ele>812.2</ele>
        <time>2022-05-24T13:24:03Z</time>
      </trkpt>
      <trkpt lat="46.79908" lon="6.02153">
        <ele>812.2</ele>
        <time>2022-05-24T13:24:04Z</time>
      </trkpt>
      <trkpt lat="46.7991" lon="6.0216">
        <ele>812.2</ele>
        <time>2022-05-24T13:24:05Z</time>
      </trkpt>
      <trkpt lat="46.79913" lon="6.02167">
        <ele>812.2</ele>
        <time>2022-05-24T13:24:06Z</time>
      </trkpt>
      <trkpt lat="46.79919" lon="6.02181">
        <ele>811.8</ele>
        <time>2022-05-24T13:24:07Z</time>
      </trkpt>
      <trkpt lat="46.79922" lon="6.02187">
        <ele>811.8</ele>
        <time>2022-05-24T13:24:08Z</time>
      </trkpt>
      <trkpt lat="46.79926" lon="6.02193">
        <ele>811.4</ele>
        <time>2022-05-24T13:24:09Z</time>
      </trkpt>
      <trkpt lat="46.79931" lon="6.02198">
        <ele>811.4</ele>
        <time>2022-05-24T13:24:10Z</time>
      </trkpt>
      <trkpt lat="46.79937" lon="6.02202">
        <ele>811.2</ele>
        <time>2022-05-24T13:24:11Z</time>
      </trkpt>
      <trkpt lat="46.79942" lon="6.02203">
        <ele>811.2</ele>
        <time>2022-05-24T13:24:12Z</time>
      </trkpt>
      <trkpt lat="46.79947" lon="6.02203">
        <ele>811</ele>
        <time>2022-05-24T13:24:13Z</time>
      </trkpt>
      <trkpt lat="46.79951" lon="6.02204">
        <ele>811</ele>
        <time>2022-05-24T13:24:14Z</time>
      </trkpt>
      <trkpt lat="46.79956" lon="6.02204">
        <ele>811</ele>
        <time>2022-05-24T13:24:15Z</time>
      </trkpt>
      <trkpt lat="46.79959" lon="6.02206">
        <ele>811</ele>
        <time>2022-05-24T13:24:16Z</time>
      </trkpt>
      <trkpt lat="46.79959" lon="6.02206">
        <ele>811</ele>
        <time>2022-05-24T13:24:17Z</time>
      </trkpt>
      <trkpt lat="46.79962" lon="6.0221">
        <ele>810.8</ele>
        <time>2022-05-24T13:24:18Z</time>
      </trkpt>
      <trkpt lat="46.79963" lon="6.02215">
        <ele>810.8</ele>
        <time>2022-05-24T13:24:19Z</time>
      </trkpt>
      <trkpt lat="46.79964" lon="6.0222">
        <ele>810.8</ele>
        <time>2022-05-24T13:24:20Z</time>
      </trkpt>
      <trkpt lat="46.79963" lon="6.02226">
        <ele>810.8</ele>
        <time>2022-05-24T13:24:21Z</time>
      </trkpt>
      <trkpt lat="46.79962" lon="6.02233">
        <ele>810.8</ele>
        <time>2022-05-24T13:24:22Z</time>
      </trkpt>
      <trkpt lat="46.79962" lon="6.0224">
        <ele>810.4</ele>
        <time>2022-05-24T13:24:23Z</time>
      </trkpt>
      <trkpt lat="46.79961" lon="6.02247">
        <ele>810.4</ele>
        <time>2022-05-24T13:24:24Z</time>
      </trkpt>
      <trkpt lat="46.7996" lon="6.02254">
        <ele>810.4</ele>
        <time>2022-05-24T13:24:25Z</time>
      </trkpt>
      <trkpt lat="46.79959" lon="6.02262">
        <ele>810.4</ele>
        <time>2022-05-24T13:24:26Z</time>
      </trkpt>
      <trkpt lat="46.79957" lon="6.0227">
        <ele>810.4</ele>
        <time>2022-05-24T13:24:27Z</time>
      </trkpt>
      <trkpt lat="46.79956" lon="6.02278">
        <ele>810.4</ele>
        <time>2022-05-24T13:24:28Z</time>
      </trkpt>
      <trkpt lat="46.79954" lon="6.02286">
        <ele>810.4</ele>
        <time>2022-05-24T13:24:29Z</time>
      </trkpt>
      <trkpt lat="46.79952" lon="6.02294">
        <ele>810.2</ele>
        <time>2022-05-24T13:24:30Z</time>
      </trkpt>
      <trkpt lat="46.7995" lon="6.02302">
        <ele>810.2</ele>
        <time>2022-05-24T13:24:31Z</time>
      </trkpt>
      <trkpt lat="46.79948" lon="6.0231">
        <ele>810.2</ele>
        <time>2022-05-24T13:24:32Z</time>
      </trkpt>
      <trkpt lat="46.79946" lon="6.02322">
        <ele>810.2</ele>
        <time>2022-05-24T13:24:33Z</time>
      </trkpt>
      <trkpt lat="46.79945" lon="6.02326">
        <ele>810.2</ele>
        <time>2022-05-24T13:24:34Z</time>
      </trkpt>
      <trkpt lat="46.79945" lon="6.02334">
        <ele>810.2</ele>
        <time>2022-05-24T13:24:35Z</time>
      </trkpt>
      <trkpt lat="46.79946" lon="6.02346">
        <ele>810.2</ele>
        <time>2022-05-24T13:24:36Z</time>
      </trkpt>
      <trkpt lat="46.79947" lon="6.0235">
        <ele>810.2</ele>
        <time>2022-05-24T13:24:37Z</time>
      </trkpt>
      <trkpt lat="46.79949" lon="6.02357">
        <ele>810.6</ele>
        <time>2022-05-24T13:24:38Z</time>
      </trkpt>
      <trkpt lat="46.79955" lon="6.0237">
        <ele>810.6</ele>
        <time>2022-05-24T13:24:39Z</time>
      </trkpt>
      <trkpt lat="46.79959" lon="6.02374">
        <ele>810.6</ele>
        <time>2022-05-24T13:24:40Z</time>
      </trkpt>
      <trkpt lat="46.79964" lon="6.02377">
        <ele>810.8</ele>
        <time>2022-05-24T13:24:41Z</time>
      </trkpt>
      <trkpt lat="46.79969" lon="6.02381">
        <ele>811</ele>
        <time>2022-05-24T13:24:42Z</time>
      </trkpt>
      <trkpt lat="46.79973" lon="6.02383">
        <ele>811.4</ele>
        <time>2022-05-24T13:24:43Z</time>
      </trkpt>
      <trkpt lat="46.79978" lon="6.02386">
        <ele>811.6</ele>
        <time>2022-05-24T13:24:44Z</time>
      </trkpt>
      <trkpt lat="46.79982" lon="6.02388">
        <ele>812</ele>
        <time>2022-05-24T13:24:45Z</time>
      </trkpt>
      <trkpt lat="46.79986" lon="6.0239">
        <ele>812.2</ele>
        <time>2022-05-24T13:24:46Z</time>
      </trkpt>
      <trkpt lat="46.79991" lon="6.02392">
        <ele>812.2</ele>
        <time>2022-05-24T13:24:47Z</time>
      </trkpt>
      <trkpt lat="46.79995" lon="6.02395">
        <ele>812.4</ele>
        <time>2022-05-24T13:24:48Z</time>
      </trkpt>
      <trkpt lat="46.79999" lon="6.02398">
        <ele>812.4</ele>
        <time>2022-05-24T13:24:49Z</time>
      </trkpt>
      <trkpt lat="46.80003" lon="6.02401">
        <ele>812.6</ele>
        <time>2022-05-24T13:24:50Z</time>
      </trkpt>
      <trkpt lat="46.80007" lon="6.02404">
        <ele>812.6</ele>
        <time>2022-05-24T13:24:51Z</time>
      </trkpt>
      <trkpt lat="46.80011" lon="6.02408">
        <ele>812.6</ele>
        <time>2022-05-24T13:24:52Z</time>
      </trkpt>
      <trkpt lat="46.80015" lon="6.02412">
        <ele>812.6</ele>
        <time>2022-05-24T13:24:53Z</time>
      </trkpt>
      <trkpt lat="46.80018" lon="6.02416">
        <ele>812.8</ele>
        <time>2022-05-24T13:24:54Z</time>
      </trkpt>
      <trkpt lat="46.80022" lon="6.02421">
        <ele>812.8</ele>
        <time>2022-05-24T13:24:55Z</time>
      </trkpt>
      <trkpt lat="46.80025" lon="6.02426">
        <ele>813.2</ele>
        <time>2022-05-24T13:24:56Z</time>
      </trkpt>
      <trkpt lat="46.80028" lon="6.02431">
        <ele>813.2</ele>
        <time>2022-05-24T13:24:57Z</time>
      </trkpt>
      <trkpt lat="46.80031" lon="6.02436">
        <ele>813.4</ele>
        <time>2022-05-24T13:24:58Z</time>
      </trkpt>
      <trkpt lat="46.80033" lon="6.02441">
        <ele>813.4</ele>
        <time>2022-05-24T13:24:59Z</time>
      </trkpt>
      <trkpt lat="46.80036" lon="6.02447">
        <ele>813.6</ele>
        <time>2022-05-24T13:25:00Z</time>
      </trkpt>
      <trkpt lat="46.80038" lon="6.02453">
        <ele>813.6</ele>
        <time>2022-05-24T13:25:01Z</time>
      </trkpt>
      <trkpt lat="46.80041" lon="6.0246">
        <ele>813.6</ele>
        <time>2022-05-24T13:25:02Z</time>
      </trkpt>
      <trkpt lat="46.80042" lon="6.02464">
        <ele>813.6</ele>
        <time>2022-05-24T13:25:03Z</time>
      </trkpt>
      <trkpt lat="46.80044" lon="6.02467">
        <ele>813.6</ele>
        <time>2022-05-24T13:25:04Z</time>
      </trkpt>
      <trkpt lat="46.80046" lon="6.02475">
        <ele>813.6</ele>
        <time>2022-05-24T13:25:05Z</time>
      </trkpt>
      <trkpt lat="46.80049" lon="6.02483">
        <ele>813.4</ele>
        <time>2022-05-24T13:25:06Z</time>
      </trkpt>
      <trkpt lat="46.80051" lon="6.02491">
        <ele>813.4</ele>
        <time>2022-05-24T13:25:07Z</time>
      </trkpt>
      <trkpt lat="46.80054" lon="6.02499">
        <ele>813.2</ele>
        <time>2022-05-24T13:25:08Z</time>
      </trkpt>
      <trkpt lat="46.80058" lon="6.02507">
        <ele>813</ele>
        <time>2022-05-24T13:25:09Z</time>
      </trkpt>
      <trkpt lat="46.80061" lon="6.02516">
        <ele>813</ele>
        <time>2022-05-24T13:25:10Z</time>
      </trkpt>
      <trkpt lat="46.80065" lon="6.02525">
        <ele>812.6</ele>
        <time>2022-05-24T13:25:11Z</time>
      </trkpt>
      <trkpt lat="46.80069" lon="6.02534">
        <ele>812.6</ele>
        <time>2022-05-24T13:25:12Z</time>
      </trkpt>
      <trkpt lat="46.80073" lon="6.02543">
        <ele>812.2</ele>
        <time>2022-05-24T13:25:13Z</time>
      </trkpt>
      <trkpt lat="46.80077" lon="6.02553">
        <ele>812</ele>
        <time>2022-05-24T13:25:14Z</time>
      </trkpt>
      <trkpt lat="46.80081" lon="6.02563">
        <ele>812</ele>
        <time>2022-05-24T13:25:15Z</time>
      </trkpt>
      <trkpt lat="46.80085" lon="6.02573">
        <ele>811.6</ele>
        <time>2022-05-24T13:25:16Z</time>
      </trkpt>
      <trkpt lat="46.80089" lon="6.02583">
        <ele>811.6</ele>
        <time>2022-05-24T13:25:17Z</time>
      </trkpt>
      <trkpt lat="46.80093" lon="6.02593">
        <ele>811.6</ele>
        <time>2022-05-24T13:25:18Z</time>
      </trkpt>
      <trkpt lat="46.80097" lon="6.02603">
        <ele>811.6</ele>
        <time>2022-05-24T13:25:19Z</time>
      </trkpt>
      <trkpt lat="46.80101" lon="6.02612">
        <ele>811.4</ele>
        <time>2022-05-24T13:25:20Z</time>
      </trkpt>
      <trkpt lat="46.80105" lon="6.02621">
        <ele>811.4</ele>
        <time>2022-05-24T13:25:21Z</time>
      </trkpt>
      <trkpt lat="46.80109" lon="6.0263">
        <ele>811.4</ele>
        <time>2022-05-24T13:25:22Z</time>
      </trkpt>
      <trkpt lat="46.80114" lon="6.02639">
        <ele>811.4</ele>
        <time>2022-05-24T13:25:23Z</time>
      </trkpt>
      <trkpt lat="46.80118" lon="6.02646">
        <ele>811.6</ele>
        <time>2022-05-24T13:25:24Z</time>
      </trkpt>
      <trkpt lat="46.80122" lon="6.02654">
        <ele>811.6</ele>
        <time>2022-05-24T13:25:25Z</time>
      </trkpt>
      <trkpt lat="46.80127" lon="6.02661">
        <ele>811.6</ele>
        <time>2022-05-24T13:25:26Z</time>
      </trkpt>
      <trkpt lat="46.80131" lon="6.02668">
        <ele>812</ele>
        <time>2022-05-24T13:25:27Z</time>
      </trkpt>
      <trkpt lat="46.80135" lon="6.02675">
        <ele>812</ele>
        <time>2022-05-24T13:25:28Z</time>
      </trkpt>
      <trkpt lat="46.80138" lon="6.02682">
        <ele>812.2</ele>
        <time>2022-05-24T13:25:29Z</time>
      </trkpt>
      <trkpt lat="46.80141" lon="6.02689">
        <ele>812.2</ele>
        <time>2022-05-24T13:25:30Z</time>
      </trkpt>
      <trkpt lat="46.80144" lon="6.02697">
        <ele>812.2</ele>
        <time>2022-05-24T13:25:31Z</time>
      </trkpt>
      <trkpt lat="46.80147" lon="6.02705">
        <ele>812.2</ele>
        <time>2022-05-24T13:25:32Z</time>
      </trkpt>
      <trkpt lat="46.8015" lon="6.02713">
        <ele>812.2</ele>
        <time>2022-05-24T13:25:33Z</time>
      </trkpt>
      <trkpt lat="46.80153" lon="6.02722">
        <ele>812.2</ele>
        <time>2022-05-24T13:25:34Z</time>
      </trkpt>
      <trkpt lat="46.80156" lon="6.02731">
        <ele>812</ele>
        <time>2022-05-24T13:25:35Z</time>
      </trkpt>
      <trkpt lat="46.80159" lon="6.02741">
        <ele>811.8</ele>
        <time>2022-05-24T13:25:36Z</time>
      </trkpt>
      <trkpt lat="46.80162" lon="6.02751">
        <ele>811.6</ele>
        <time>2022-05-24T13:25:37Z</time>
      </trkpt>
      <trkpt lat="46.80166" lon="6.02761">
        <ele>811.6</ele>
        <time>2022-05-24T13:25:38Z</time>
      </trkpt>
      <trkpt lat="46.8017" lon="6.02772">
        <ele>811.2</ele>
        <time>2022-05-24T13:25:39Z</time>
      </trkpt>
      <trkpt lat="46.80174" lon="6.02783">
        <ele>811.2</ele>
        <time>2022-05-24T13:25:40Z</time>
      </trkpt>
      <trkpt lat="46.80178" lon="6.02793">
        <ele>810.6</ele>
        <time>2022-05-24T13:25:41Z</time>
      </trkpt>
      <trkpt lat="46.80183" lon="6.02803">
        <ele>810.6</ele>
        <time>2022-05-24T13:25:42Z</time>
      </trkpt>
      <trkpt lat="46.80187" lon="6.02813">
        <ele>810.6</ele>
        <time>2022-05-24T13:25:43Z</time>
      </trkpt>
      <trkpt lat="46.80191" lon="6.02823">
        <ele>810.6</ele>
        <time>2022-05-24T13:25:44Z</time>
      </trkpt>
      <trkpt lat="46.80196" lon="6.02832">
        <ele>810.6</ele>
        <time>2022-05-24T13:25:45Z</time>
      </trkpt>
      <trkpt lat="46.80201" lon="6.02841">
        <ele>810.4</ele>
        <time>2022-05-24T13:25:46Z</time>
      </trkpt>
      <trkpt lat="46.80206" lon="6.02849">
        <ele>810.4</ele>
        <time>2022-05-24T13:25:47Z</time>
      </trkpt>
      <trkpt lat="46.80211" lon="6.02857">
        <ele>810.4</ele>
        <time>2022-05-24T13:25:48Z</time>
      </trkpt>
      <trkpt lat="46.80216" lon="6.02864">
        <ele>810.4</ele>
        <time>2022-05-24T13:25:49Z</time>
      </trkpt>
      <trkpt lat="46.80221" lon="6.02872">
        <ele>810.4</ele>
        <time>2022-05-24T13:25:50Z</time>
      </trkpt>
      <trkpt lat="46.80226" lon="6.02879">
        <ele>810.8</ele>
        <time>2022-05-24T13:25:51Z</time>
      </trkpt>
      <trkpt lat="46.80231" lon="6.02886">
        <ele>810.8</ele>
        <time>2022-05-24T13:25:52Z</time>
      </trkpt>
      <trkpt lat="46.80236" lon="6.02893">
        <ele>810.8</ele>
        <time>2022-05-24T13:25:53Z</time>
      </trkpt>
      <trkpt lat="46.8024" lon="6.029">
        <ele>810.8</ele>
        <time>2022-05-24T13:25:54Z</time>
      </trkpt>
      <trkpt lat="46.80245" lon="6.02906">
        <ele>811</ele>
        <time>2022-05-24T13:25:55Z</time>
      </trkpt>
      <trkpt lat="46.8025" lon="6.02912">
        <ele>811</ele>
        <time>2022-05-24T13:25:56Z</time>
      </trkpt>
      <trkpt lat="46.80254" lon="6.02919">
        <ele>811</ele>
        <time>2022-05-24T13:25:57Z</time>
      </trkpt>
      <trkpt lat="46.80259" lon="6.02925">
        <ele>811</ele>
        <time>2022-05-24T13:25:58Z</time>
      </trkpt>
      <trkpt lat="46.80263" lon="6.02931">
        <ele>811.4</ele>
        <time>2022-05-24T13:25:59Z</time>
      </trkpt>
      <trkpt lat="46.80268" lon="6.02936">
        <ele>811.4</ele>
        <time>2022-05-24T13:26:00Z</time>
      </trkpt>
      <trkpt lat="46.80272" lon="6.02942">
        <ele>811.6</ele>
        <time>2022-05-24T13:26:01Z</time>
      </trkpt>
      <trkpt lat="46.80276" lon="6.02946">
        <ele>811.6</ele>
        <time>2022-05-24T13:26:02Z</time>
      </trkpt>
      <trkpt lat="46.8028" lon="6.0295">
        <ele>812</ele>
        <time>2022-05-24T13:26:03Z</time>
      </trkpt>
      <trkpt lat="46.80285" lon="6.02952">
        <ele>812</ele>
        <time>2022-05-24T13:26:04Z</time>
      </trkpt>
      <trkpt lat="46.8029" lon="6.02954">
        <ele>812</ele>
        <time>2022-05-24T13:26:05Z</time>
      </trkpt>
      <trkpt lat="46.80295" lon="6.02955">
        <ele>812</ele>
        <time>2022-05-24T13:26:06Z</time>
      </trkpt>
      <trkpt lat="46.80299" lon="6.02956">
        <ele>812.2</ele>
        <time>2022-05-24T13:26:07Z</time>
      </trkpt>
      <trkpt lat="46.80304" lon="6.02957">
        <ele>812.2</ele>
        <time>2022-05-24T13:26:08Z</time>
      </trkpt>
      <trkpt lat="46.80309" lon="6.02957">
        <ele>812.2</ele>
        <time>2022-05-24T13:26:09Z</time>
      </trkpt>
      <trkpt lat="46.80314" lon="6.02956">
        <ele>812.2</ele>
        <time>2022-05-24T13:26:10Z</time>
      </trkpt>
      <trkpt lat="46.80319" lon="6.02955">
        <ele>812.4</ele>
        <time>2022-05-24T13:26:11Z</time>
      </trkpt>
      <trkpt lat="46.80323" lon="6.02955">
        <ele>812.4</ele>
        <time>2022-05-24T13:26:12Z</time>
      </trkpt>
      <trkpt lat="46.80328" lon="6.02953">
        <ele>812.4</ele>
        <time>2022-05-24T13:26:13Z</time>
      </trkpt>
      <trkpt lat="46.80333" lon="6.02951">
        <ele>812.8</ele>
        <time>2022-05-24T13:26:14Z</time>
      </trkpt>
      <trkpt lat="46.80337" lon="6.0295">
        <ele>812.8</ele>
        <time>2022-05-24T13:26:15Z</time>
      </trkpt>
      <trkpt lat="46.80343" lon="6.02948">
        <ele>812.8</ele>
        <time>2022-05-24T13:26:16Z</time>
      </trkpt>
      <trkpt lat="46.80348" lon="6.02946">
        <ele>812.8</ele>
        <time>2022-05-24T13:26:17Z</time>
      </trkpt>
      <trkpt lat="46.80353" lon="6.02944">
        <ele>812.8</ele>
        <time>2022-05-24T13:26:18Z</time>
      </trkpt>
      <trkpt lat="46.8036" lon="6.02942">
        <ele>812.8</ele>
        <time>2022-05-24T13:26:19Z</time>
      </trkpt>
      <trkpt lat="46.80362" lon="6.02941">
        <ele>812.8</ele>
        <time>2022-05-24T13:26:20Z</time>
      </trkpt>
      <trkpt lat="46.80367" lon="6.02941">
        <ele>812.8</ele>
        <time>2022-05-24T13:26:21Z</time>
      </trkpt>
      <trkpt lat="46.80372" lon="6.0294">
        <ele>812.8</ele>
        <time>2022-05-24T13:26:22Z</time>
      </trkpt>
      <trkpt lat="46.80377" lon="6.02941">
        <ele>812.8</ele>
        <time>2022-05-24T13:26:23Z</time>
      </trkpt>
      <trkpt lat="46.80382" lon="6.02942">
        <ele>812.8</ele>
        <time>2022-05-24T13:26:24Z</time>
      </trkpt>
      <trkpt lat="46.80387" lon="6.02943">
        <ele>812.8</ele>
        <time>2022-05-24T13:26:25Z</time>
      </trkpt>
      <trkpt lat="46.80391" lon="6.02946">
        <ele>813</ele>
        <time>2022-05-24T13:26:26Z</time>
      </trkpt>
      <trkpt lat="46.80395" lon="6.0295">
        <ele>813</ele>
        <time>2022-05-24T13:26:27Z</time>
      </trkpt>
      <trkpt lat="46.804" lon="6.02953">
        <ele>813</ele>
        <time>2022-05-24T13:26:28Z</time>
      </trkpt>
      <trkpt lat="46.80404" lon="6.02957">
        <ele>813.2</ele>
        <time>2022-05-24T13:26:29Z</time>
      </trkpt>
      <trkpt lat="46.80408" lon="6.02961">
        <ele>813.2</ele>
        <time>2022-05-24T13:26:30Z</time>
      </trkpt>
      <trkpt lat="46.80411" lon="6.02965">
        <ele>813.6</ele>
        <time>2022-05-24T13:26:31Z</time>
      </trkpt>
      <trkpt lat="46.80415" lon="6.02969">
        <ele>813.6</ele>
        <time>2022-05-24T13:26:32Z</time>
      </trkpt>
      <trkpt lat="46.80419" lon="6.02973">
        <ele>813.6</ele>
        <time>2022-05-24T13:26:33Z</time>
      </trkpt>
      <trkpt lat="46.80425" lon="6.02979">
        <ele>813.6</ele>
        <time>2022-05-24T13:26:34Z</time>
      </trkpt>
      <trkpt lat="46.80427" lon="6.02981">
        <ele>813.8</ele>
        <time>2022-05-24T13:26:35Z</time>
      </trkpt>
      <trkpt lat="46.80433" lon="6.02986">
        <ele>813.8</ele>
        <time>2022-05-24T13:26:36Z</time>
      </trkpt>
      <trkpt lat="46.80435" lon="6.02988">
        <ele>814</ele>
        <time>2022-05-24T13:26:37Z</time>
      </trkpt>
      <trkpt lat="46.80439" lon="6.02991">
        <ele>814</ele>
        <time>2022-05-24T13:26:38Z</time>
      </trkpt>
      <trkpt lat="46.80443" lon="6.02995">
        <ele>814</ele>
        <time>2022-05-24T13:26:39Z</time>
      </trkpt>
      <trkpt lat="46.80448" lon="6.02998">
        <ele>814.4</ele>
        <time>2022-05-24T13:26:40Z</time>
      </trkpt>
      <trkpt lat="46.80452" lon="6.03">
        <ele>814.4</ele>
        <time>2022-05-24T13:26:41Z</time>
      </trkpt>
      <trkpt lat="46.80457" lon="6.03003">
        <ele>814.4</ele>
        <time>2022-05-24T13:26:42Z</time>
      </trkpt>
      <trkpt lat="46.80461" lon="6.03006">
        <ele>814.6</ele>
        <time>2022-05-24T13:26:43Z</time>
      </trkpt>
      <trkpt lat="46.80465" lon="6.03009">
        <ele>814.6</ele>
        <time>2022-05-24T13:26:44Z</time>
      </trkpt>
      <trkpt lat="46.8047" lon="6.03012">
        <ele>815</ele>
        <time>2022-05-24T13:26:45Z</time>
      </trkpt>
      <trkpt lat="46.80474" lon="6.03015">
        <ele>815</ele>
        <time>2022-05-24T13:26:46Z</time>
      </trkpt>
      <trkpt lat="46.80478" lon="6.03018">
        <ele>815</ele>
        <time>2022-05-24T13:26:47Z</time>
      </trkpt>
      <trkpt lat="46.80482" lon="6.03021">
        <ele>815.4</ele>
        <time>2022-05-24T13:26:48Z</time>
      </trkpt>
      <trkpt lat="46.80486" lon="6.03023">
        <ele>815.4</ele>
        <time>2022-05-24T13:26:49Z</time>
      </trkpt>
      <trkpt lat="46.80491" lon="6.03026">
        <ele>815.6</ele>
        <time>2022-05-24T13:26:50Z</time>
      </trkpt>
      <trkpt lat="46.80499" lon="6.03032">
        <ele>815.6</ele>
        <time>2022-05-24T13:26:51Z</time>
      </trkpt>
      <trkpt lat="46.80504" lon="6.03034">
        <ele>815.6</ele>
        <time>2022-05-24T13:26:52Z</time>
      </trkpt>
      <trkpt lat="46.80508" lon="6.03037">
        <ele>815.6</ele>
        <time>2022-05-24T13:26:53Z</time>
      </trkpt>
      <trkpt lat="46.80513" lon="6.0304">
        <ele>816</ele>
        <time>2022-05-24T13:26:54Z</time>
      </trkpt>
      <trkpt lat="46.80518" lon="6.03043">
        <ele>816</ele>
        <time>2022-05-24T13:26:55Z</time>
      </trkpt>
      <trkpt lat="46.80522" lon="6.03046">
        <ele>816.4</ele>
        <time>2022-05-24T13:26:56Z</time>
      </trkpt>
      <trkpt lat="46.80527" lon="6.03048">
        <ele>816.6</ele>
        <time>2022-05-24T13:26:57Z</time>
      </trkpt>
      <trkpt lat="46.80531" lon="6.03051">
        <ele>816.6</ele>
        <time>2022-05-24T13:26:58Z</time>
      </trkpt>
      <trkpt lat="46.80535" lon="6.03054">
        <ele>817</ele>
        <time>2022-05-24T13:26:59Z</time>
      </trkpt>
      <trkpt lat="46.80539" lon="6.03057">
        <ele>817.4</ele>
        <time>2022-05-24T13:27:00Z</time>
      </trkpt>
      <trkpt lat="46.80542" lon="6.0306">
        <ele>817.6</ele>
        <time>2022-05-24T13:27:01Z</time>
      </trkpt>
      <trkpt lat="46.80546" lon="6.03062">
        <ele>818</ele>
        <time>2022-05-24T13:27:02Z</time>
      </trkpt>
      <trkpt lat="46.80549" lon="6.03065">
        <ele>818.2</ele>
        <time>2022-05-24T13:27:03Z</time>
      </trkpt>
      <trkpt lat="46.80552" lon="6.03068">
        <ele>818.4</ele>
        <time>2022-05-24T13:27:04Z</time>
      </trkpt>
      <trkpt lat="46.80555" lon="6.0307">
        <ele>818.4</ele>
        <time>2022-05-24T13:27:05Z</time>
      </trkpt>
      <trkpt lat="46.80558" lon="6.03073">
        <ele>818.8</ele>
        <time>2022-05-24T13:27:06Z</time>
      </trkpt>
      <trkpt lat="46.80561" lon="6.03075">
        <ele>818.8</ele>
        <time>2022-05-24T13:27:07Z</time>
      </trkpt>
      <trkpt lat="46.80561" lon="6.03075">
        <ele>819.2</ele>
        <time>2022-05-24T13:27:08Z</time>
      </trkpt>
      <trkpt lat="46.80564" lon="6.03076">
        <ele>819.2</ele>
        <time>2022-05-24T13:27:09Z</time>
      </trkpt>
      <trkpt lat="46.80569" lon="6.03077">
        <ele>819.2</ele>
        <time>2022-05-24T13:27:10Z</time>
      </trkpt>
      <trkpt lat="46.80573" lon="6.03077">
        <ele>819.2</ele>
        <time>2022-05-24T13:27:11Z</time>
      </trkpt>
      <trkpt lat="46.80577" lon="6.03076">
        <ele>819.2</ele>
        <time>2022-05-24T13:27:12Z</time>
      </trkpt>
      <trkpt lat="46.80581" lon="6.03072">
        <ele>819.6</ele>
        <time>2022-05-24T13:27:13Z</time>
      </trkpt>
      <trkpt lat="46.80584" lon="6.03069">
        <ele>819.6</ele>
        <time>2022-05-24T13:27:14Z</time>
      </trkpt>
      <trkpt lat="46.80588" lon="6.03065">
        <ele>820</ele>
        <time>2022-05-24T13:27:15Z</time>
      </trkpt>
      <trkpt lat="46.80591" lon="6.03063">
        <ele>820.2</ele>
        <time>2022-05-24T13:27:16Z</time>
      </trkpt>
      <trkpt lat="46.80594" lon="6.0306">
        <ele>820.8</ele>
        <time>2022-05-24T13:27:17Z</time>
      </trkpt>
      <trkpt lat="46.80597" lon="6.03056">
        <ele>821.2</ele>
        <time>2022-05-24T13:27:18Z</time>
      </trkpt>
      <trkpt lat="46.806" lon="6.03053">
        <ele>821.4</ele>
        <time>2022-05-24T13:27:19Z</time>
      </trkpt>
      <trkpt lat="46.80603" lon="6.03051">
        <ele>821.4</ele>
        <time>2022-05-24T13:27:20Z</time>
      </trkpt>
      <trkpt lat="46.80605" lon="6.03048">
        <ele>821.8</ele>
        <time>2022-05-24T13:27:21Z</time>
      </trkpt>
      <trkpt lat="46.80607" lon="6.03044">
        <ele>822.2</ele>
        <time>2022-05-24T13:27:22Z</time>
      </trkpt>
      <trkpt lat="46.8061" lon="6.03041">
        <ele>822.6</ele>
        <time>2022-05-24T13:27:23Z</time>
      </trkpt>
      <trkpt lat="46.80612" lon="6.03038">
        <ele>823</ele>
        <time>2022-05-24T13:27:24Z</time>
      </trkpt>
      <trkpt lat="46.80615" lon="6.03035">
        <ele>823.2</ele>
        <time>2022-05-24T13:27:25Z</time>
      </trkpt>
      <trkpt lat="46.80617" lon="6.03031">
        <ele>823.6</ele>
        <time>2022-05-24T13:27:26Z</time>
      </trkpt>
      <trkpt lat="46.8062" lon="6.03028">
        <ele>823.8</ele>
        <time>2022-05-24T13:27:27Z</time>
      </trkpt>
      <trkpt lat="46.80622" lon="6.03025">
        <ele>824</ele>
        <time>2022-05-24T13:27:28Z</time>
      </trkpt>
      <trkpt lat="46.80625" lon="6.03021">
        <ele>824.2</ele>
        <time>2022-05-24T13:27:29Z</time>
      </trkpt>
      <trkpt lat="46.80627" lon="6.03018">
        <ele>824.4</ele>
        <time>2022-05-24T13:27:30Z</time>
      </trkpt>
      <trkpt lat="46.8063" lon="6.03014">
        <ele>824.4</ele>
        <time>2022-05-24T13:27:31Z</time>
      </trkpt>
      <trkpt lat="46.80632" lon="6.03011">
        <ele>824.8</ele>
        <time>2022-05-24T13:27:32Z</time>
      </trkpt>
      <trkpt lat="46.80635" lon="6.03008">
        <ele>824.8</ele>
        <time>2022-05-24T13:27:33Z</time>
      </trkpt>
      <trkpt lat="46.80637" lon="6.03004">
        <ele>825</ele>
        <time>2022-05-24T13:27:34Z</time>
      </trkpt>
      <trkpt lat="46.8064" lon="6.03001">
        <ele>825.2</ele>
        <time>2022-05-24T13:27:35Z</time>
      </trkpt>
      <trkpt lat="46.80642" lon="6.02998">
        <ele>825.2</ele>
        <time>2022-05-24T13:27:36Z</time>
      </trkpt>
      <trkpt lat="46.80645" lon="6.02995">
        <ele>825.6</ele>
        <time>2022-05-24T13:27:37Z</time>
      </trkpt>
      <trkpt lat="46.80648" lon="6.02992">
        <ele>825.6</ele>
        <time>2022-05-24T13:27:38Z</time>
      </trkpt>
      <trkpt lat="46.80651" lon="6.02989">
        <ele>825.8</ele>
        <time>2022-05-24T13:27:39Z</time>
      </trkpt>
      <trkpt lat="46.80654" lon="6.02987">
        <ele>825.8</ele>
        <time>2022-05-24T13:27:40Z</time>
      </trkpt>
      <trkpt lat="46.80658" lon="6.02985">
        <ele>825.8</ele>
        <time>2022-05-24T13:27:41Z</time>
      </trkpt>
      <trkpt lat="46.80661" lon="6.02983">
        <ele>826</ele>
        <time>2022-05-24T13:27:42Z</time>
      </trkpt>
      <trkpt lat="46.80665" lon="6.02982">
        <ele>826</ele>
        <time>2022-05-24T13:27:43Z</time>
      </trkpt>
      <trkpt lat="46.80668" lon="6.0298">
        <ele>826</ele>
        <time>2022-05-24T13:27:44Z</time>
      </trkpt>
      <trkpt lat="46.80672" lon="6.02979">
        <ele>826.4</ele>
        <time>2022-05-24T13:27:45Z</time>
      </trkpt>
      <trkpt lat="46.80676" lon="6.02978">
        <ele>826.4</ele>
        <time>2022-05-24T13:27:46Z</time>
      </trkpt>
      <trkpt lat="46.80679" lon="6.02978">
        <ele>826.8</ele>
        <time>2022-05-24T13:27:47Z</time>
      </trkpt>
      <trkpt lat="46.80683" lon="6.02976">
        <ele>827</ele>
        <time>2022-05-24T13:27:48Z</time>
      </trkpt>
      <trkpt lat="46.80687" lon="6.02975">
        <ele>827</ele>
        <time>2022-05-24T13:27:49Z</time>
      </trkpt>
      <trkpt lat="46.8069" lon="6.02974">
        <ele>827</ele>
        <time>2022-05-24T13:27:50Z</time>
      </trkpt>
      <trkpt lat="46.80693" lon="6.02972">
        <ele>827</ele>
        <time>2022-05-24T13:27:51Z</time>
      </trkpt>
      <trkpt lat="46.80697" lon="6.0297">
        <ele>827</ele>
        <time>2022-05-24T13:27:52Z</time>
      </trkpt>
      <trkpt lat="46.807" lon="6.02968">
        <ele>827</ele>
        <time>2022-05-24T13:27:53Z</time>
      </trkpt>
      <trkpt lat="46.80703" lon="6.02966">
        <ele>827.2</ele>
        <time>2022-05-24T13:27:54Z</time>
      </trkpt>
      <trkpt lat="46.80706" lon="6.02964">
        <ele>827.2</ele>
        <time>2022-05-24T13:27:55Z</time>
      </trkpt>
      <trkpt lat="46.80709" lon="6.02962">
        <ele>827.2</ele>
        <time>2022-05-24T13:27:56Z</time>
      </trkpt>
      <trkpt lat="46.80713" lon="6.0296">
        <ele>827.2</ele>
        <time>2022-05-24T13:27:57Z</time>
      </trkpt>
      <trkpt lat="46.80719" lon="6.02958">
        <ele>827.2</ele>
        <time>2022-05-24T13:27:58Z</time>
      </trkpt>
      <trkpt lat="46.80721" lon="6.02958">
        <ele>827</ele>
        <time>2022-05-24T13:27:59Z</time>
      </trkpt>
      <trkpt lat="46.80725" lon="6.02958">
        <ele>827</ele>
        <time>2022-05-24T13:28:00Z</time>
      </trkpt>
      <trkpt lat="46.8073" lon="6.02958">
        <ele>827</ele>
        <time>2022-05-24T13:28:01Z</time>
      </trkpt>
      <trkpt lat="46.80734" lon="6.02959">
        <ele>827</ele>
        <time>2022-05-24T13:28:02Z</time>
      </trkpt>
      <trkpt lat="46.80739" lon="6.02961">
        <ele>827</ele>
        <time>2022-05-24T13:28:03Z</time>
      </trkpt>
      <trkpt lat="46.80744" lon="6.02963">
        <ele>826.8</ele>
        <time>2022-05-24T13:28:04Z</time>
      </trkpt>
      <trkpt lat="46.8075" lon="6.02965">
        <ele>826.8</ele>
        <time>2022-05-24T13:28:05Z</time>
      </trkpt>
      <trkpt lat="46.80755" lon="6.02966">
        <ele>826.8</ele>
        <time>2022-05-24T13:28:06Z</time>
      </trkpt>
      <trkpt lat="46.80761" lon="6.02967">
        <ele>826.4</ele>
        <time>2022-05-24T13:28:07Z</time>
      </trkpt>
      <trkpt lat="46.80767" lon="6.02968">
        <ele>826.4</ele>
        <time>2022-05-24T13:28:08Z</time>
      </trkpt>
      <trkpt lat="46.80773" lon="6.02969">
        <ele>826.2</ele>
        <time>2022-05-24T13:28:09Z</time>
      </trkpt>
      <trkpt lat="46.8078" lon="6.02969">
        <ele>826.2</ele>
        <time>2022-05-24T13:28:10Z</time>
      </trkpt>
      <trkpt lat="46.80786" lon="6.02968">
        <ele>826</ele>
        <time>2022-05-24T13:28:11Z</time>
      </trkpt>
      <trkpt lat="46.80792" lon="6.02966">
        <ele>826</ele>
        <time>2022-05-24T13:28:12Z</time>
      </trkpt>
      <trkpt lat="46.80798" lon="6.02963">
        <ele>825.6</ele>
        <time>2022-05-24T13:28:13Z</time>
      </trkpt>
      <trkpt lat="46.80803" lon="6.0296">
        <ele>825.4</ele>
        <time>2022-05-24T13:28:14Z</time>
      </trkpt>
      <trkpt lat="46.80809" lon="6.02957">
        <ele>825.2</ele>
        <time>2022-05-24T13:28:15Z</time>
      </trkpt>
      <trkpt lat="46.80815" lon="6.02954">
        <ele>825.2</ele>
        <time>2022-05-24T13:28:16Z</time>
      </trkpt>
      <trkpt lat="46.80821" lon="6.0295">
        <ele>824.8</ele>
        <time>2022-05-24T13:28:17Z</time>
      </trkpt>
      <trkpt lat="46.80827" lon="6.02947">
        <ele>824.8</ele>
        <time>2022-05-24T13:28:18Z</time>
      </trkpt>
      <trkpt lat="46.80833" lon="6.02944">
        <ele>824.4</ele>
        <time>2022-05-24T13:28:19Z</time>
      </trkpt>
      <trkpt lat="46.80838" lon="6.0294">
        <ele>824.4</ele>
        <time>2022-05-24T13:28:20Z</time>
      </trkpt>
      <trkpt lat="46.80844" lon="6.02936">
        <ele>824.2</ele>
        <time>2022-05-24T13:28:21Z</time>
      </trkpt>
      <trkpt lat="46.80849" lon="6.02933">
        <ele>824.2</ele>
        <time>2022-05-24T13:28:22Z</time>
      </trkpt>
      <trkpt lat="46.80855" lon="6.0293">
        <ele>824.2</ele>
        <time>2022-05-24T13:28:23Z</time>
      </trkpt>
      <trkpt lat="46.80861" lon="6.02927">
        <ele>824.2</ele>
        <time>2022-05-24T13:28:24Z</time>
      </trkpt>
      <trkpt lat="46.80866" lon="6.02924">
        <ele>824.2</ele>
        <time>2022-05-24T13:28:25Z</time>
      </trkpt>
      <trkpt lat="46.80871" lon="6.02921">
        <ele>824.2</ele>
        <time>2022-05-24T13:28:26Z</time>
      </trkpt>
      <trkpt lat="46.80876" lon="6.02918">
        <ele>824.2</ele>
        <time>2022-05-24T13:28:27Z</time>
      </trkpt>
      <trkpt lat="46.80882" lon="6.02915">
        <ele>824.2</ele>
        <time>2022-05-24T13:28:28Z</time>
      </trkpt>
      <trkpt lat="46.80887" lon="6.02913">
        <ele>823.8</ele>
        <time>2022-05-24T13:28:29Z</time>
      </trkpt>
      <trkpt lat="46.80892" lon="6.02911">
        <ele>823.8</ele>
        <time>2022-05-24T13:28:30Z</time>
      </trkpt>
      <trkpt lat="46.80897" lon="6.02911">
        <ele>823.6</ele>
        <time>2022-05-24T13:28:31Z</time>
      </trkpt>
      <trkpt lat="46.80903" lon="6.02913">
        <ele>823.6</ele>
        <time>2022-05-24T13:28:32Z</time>
      </trkpt>
      <trkpt lat="46.80909" lon="6.02915">
        <ele>823.6</ele>
        <time>2022-05-24T13:28:33Z</time>
      </trkpt>
      <trkpt lat="46.80914" lon="6.02918">
        <ele>823.2</ele>
        <time>2022-05-24T13:28:34Z</time>
      </trkpt>
      <trkpt lat="46.80919" lon="6.02922">
        <ele>823</ele>
        <time>2022-05-24T13:28:35Z</time>
      </trkpt>
      <trkpt lat="46.80924" lon="6.02927">
        <ele>823</ele>
        <time>2022-05-24T13:28:36Z</time>
      </trkpt>
      <trkpt lat="46.80928" lon="6.02933">
        <ele>822.8</ele>
        <time>2022-05-24T13:28:37Z</time>
      </trkpt>
      <trkpt lat="46.80933" lon="6.02938">
        <ele>822.8</ele>
        <time>2022-05-24T13:28:38Z</time>
      </trkpt>
      <trkpt lat="46.80937" lon="6.02944">
        <ele>822.8</ele>
        <time>2022-05-24T13:28:39Z</time>
      </trkpt>
      <trkpt lat="46.80942" lon="6.0295">
        <ele>822.6</ele>
        <time>2022-05-24T13:28:40Z</time>
      </trkpt>
      <trkpt lat="46.80946" lon="6.02956">
        <ele>822.8</ele>
        <time>2022-05-24T13:28:41Z</time>
      </trkpt>
      <trkpt lat="46.8095" lon="6.02962">
        <ele>822.6</ele>
        <time>2022-05-24T13:28:42Z</time>
      </trkpt>
      <trkpt lat="46.80955" lon="6.02968">
        <ele>822.6</ele>
        <time>2022-05-24T13:28:43Z</time>
      </trkpt>
      <trkpt lat="46.8096" lon="6.02974">
        <ele>822.6</ele>
        <time>2022-05-24T13:28:44Z</time>
      </trkpt>
      <trkpt lat="46.80964" lon="6.0298">
        <ele>822.6</ele>
        <time>2022-05-24T13:28:45Z</time>
      </trkpt>
      <trkpt lat="46.80969" lon="6.02986">
        <ele>822.6</ele>
        <time>2022-05-24T13:28:46Z</time>
      </trkpt>
      <trkpt lat="46.80973" lon="6.02993">
        <ele>822.8</ele>
        <time>2022-05-24T13:28:47Z</time>
      </trkpt>
      <trkpt lat="46.80978" lon="6.02999">
        <ele>822.8</ele>
        <time>2022-05-24T13:28:48Z</time>
      </trkpt>
      <trkpt lat="46.80982" lon="6.03006">
        <ele>822.8</ele>
        <time>2022-05-24T13:28:49Z</time>
      </trkpt>
      <trkpt lat="46.80987" lon="6.03013">
        <ele>822.8</ele>
        <time>2022-05-24T13:28:50Z</time>
      </trkpt>
      <trkpt lat="46.80991" lon="6.0302">
        <ele>822.8</ele>
        <time>2022-05-24T13:28:51Z</time>
      </trkpt>
      <trkpt lat="46.80995" lon="6.03026">
        <ele>822.8</ele>
        <time>2022-05-24T13:28:52Z</time>
      </trkpt>
      <trkpt lat="46.81" lon="6.03033">
        <ele>822.8</ele>
        <time>2022-05-24T13:28:53Z</time>
      </trkpt>
      <trkpt lat="46.81004" lon="6.0304">
        <ele>822.8</ele>
        <time>2022-05-24T13:28:54Z</time>
      </trkpt>
      <trkpt lat="46.81008" lon="6.03048">
        <ele>822.8</ele>
        <time>2022-05-24T13:28:55Z</time>
      </trkpt>
      <trkpt lat="46.81012" lon="6.03055">
        <ele>822.8</ele>
        <time>2022-05-24T13:28:56Z</time>
      </trkpt>
      <trkpt lat="46.81016" lon="6.03062">
        <ele>822.8</ele>
        <time>2022-05-24T13:28:57Z</time>
      </trkpt>
      <trkpt lat="46.8102" lon="6.0307">
        <ele>823</ele>
        <time>2022-05-24T13:28:58Z</time>
      </trkpt>
      <trkpt lat="46.81024" lon="6.03078">
        <ele>823</ele>
        <time>2022-05-24T13:28:59Z</time>
      </trkpt>
      <trkpt lat="46.81027" lon="6.03086">
        <ele>823</ele>
        <time>2022-05-24T13:29:00Z</time>
      </trkpt>
      <trkpt lat="46.81031" lon="6.03094">
        <ele>823.6</ele>
        <time>2022-05-24T13:29:01Z</time>
      </trkpt>
      <trkpt lat="46.81035" lon="6.03102">
        <ele>823.6</ele>
        <time>2022-05-24T13:29:02Z</time>
      </trkpt>
      <trkpt lat="46.81038" lon="6.03111">
        <ele>823.6</ele>
        <time>2022-05-24T13:29:03Z</time>
      </trkpt>
      <trkpt lat="46.81042" lon="6.03119">
        <ele>823.6</ele>
        <time>2022-05-24T13:29:04Z</time>
      </trkpt>
      <trkpt lat="46.81045" lon="6.03127">
        <ele>823.6</ele>
        <time>2022-05-24T13:29:05Z</time>
      </trkpt>
      <trkpt lat="46.81052" lon="6.03144">
        <ele>823.8</ele>
        <time>2022-05-24T13:29:06Z</time>
      </trkpt>
      <trkpt lat="46.81055" lon="6.03153">
        <ele>823.8</ele>
        <time>2022-05-24T13:29:07Z</time>
      </trkpt>
      <trkpt lat="46.81059" lon="6.03161">
        <ele>823.8</ele>
        <time>2022-05-24T13:29:08Z</time>
      </trkpt>
      <trkpt lat="46.81062" lon="6.0317">
        <ele>824</ele>
        <time>2022-05-24T13:29:09Z</time>
      </trkpt>
      <trkpt lat="46.81065" lon="6.03179">
        <ele>824</ele>
        <time>2022-05-24T13:29:10Z</time>
      </trkpt>
      <trkpt lat="46.81068" lon="6.03187">
        <ele>824</ele>
        <time>2022-05-24T13:29:11Z</time>
      </trkpt>
      <trkpt lat="46.81071" lon="6.03196">
        <ele>824</ele>
        <time>2022-05-24T13:29:12Z</time>
      </trkpt>
      <trkpt lat="46.81074" lon="6.03205">
        <ele>824</ele>
        <time>2022-05-24T13:29:13Z</time>
      </trkpt>
      <trkpt lat="46.81077" lon="6.03214">
        <ele>824</ele>
        <time>2022-05-24T13:29:14Z</time>
      </trkpt>
      <trkpt lat="46.81081" lon="6.03223">
        <ele>824</ele>
        <time>2022-05-24T13:29:15Z</time>
      </trkpt>
      <trkpt lat="46.81084" lon="6.03231">
        <ele>824</ele>
        <time>2022-05-24T13:29:16Z</time>
      </trkpt>
      <trkpt lat="46.81087" lon="6.0324">
        <ele>824</ele>
        <time>2022-05-24T13:29:17Z</time>
      </trkpt>
      <trkpt lat="46.8109" lon="6.03249">
        <ele>824</ele>
        <time>2022-05-24T13:29:18Z</time>
      </trkpt>
      <trkpt lat="46.81093" lon="6.03258">
        <ele>824</ele>
        <time>2022-05-24T13:29:19Z</time>
      </trkpt>
      <trkpt lat="46.81096" lon="6.03267">
        <ele>824</ele>
        <time>2022-05-24T13:29:20Z</time>
      </trkpt>
      <trkpt lat="46.81099" lon="6.03276">
        <ele>824</ele>
        <time>2022-05-24T13:29:21Z</time>
      </trkpt>
      <trkpt lat="46.81099" lon="6.03276">
        <ele>824</ele>
        <time>2022-05-24T13:29:22Z</time>
      </trkpt>
      <trkpt lat="46.81102" lon="6.03285">
        <ele>824</ele>
        <time>2022-05-24T13:29:23Z</time>
      </trkpt>
      <trkpt lat="46.81105" lon="6.03294">
        <ele>824.2</ele>
        <time>2022-05-24T13:29:24Z</time>
      </trkpt>
      <trkpt lat="46.81109" lon="6.03302">
        <ele>824.4</ele>
        <time>2022-05-24T13:29:25Z</time>
      </trkpt>
      <trkpt lat="46.81112" lon="6.03311">
        <ele>824.6</ele>
        <time>2022-05-24T13:29:26Z</time>
      </trkpt>
      <trkpt lat="46.81116" lon="6.03324">
        <ele>824.6</ele>
        <time>2022-05-24T13:29:27Z</time>
      </trkpt>
      <trkpt lat="46.81117" lon="6.03328">
        <ele>825</ele>
        <time>2022-05-24T13:29:28Z</time>
      </trkpt>
      <trkpt lat="46.8112" lon="6.03337">
        <ele>825</ele>
        <time>2022-05-24T13:29:29Z</time>
      </trkpt>
      <trkpt lat="46.81123" lon="6.03346">
        <ele>825</ele>
        <time>2022-05-24T13:29:30Z</time>
      </trkpt>
      <trkpt lat="46.81126" lon="6.03354">
        <ele>825</ele>
        <time>2022-05-24T13:29:31Z</time>
      </trkpt>
      <trkpt lat="46.81129" lon="6.03363">
        <ele>825</ele>
        <time>2022-05-24T13:29:32Z</time>
      </trkpt>
      <trkpt lat="46.81131" lon="6.03372">
        <ele>825</ele>
        <time>2022-05-24T13:29:33Z</time>
      </trkpt>
      <trkpt lat="46.81134" lon="6.0338">
        <ele>825</ele>
        <time>2022-05-24T13:29:34Z</time>
      </trkpt>
      <trkpt lat="46.81137" lon="6.03389">
        <ele>825</ele>
        <time>2022-05-24T13:29:35Z</time>
      </trkpt>
      <trkpt lat="46.81144" lon="6.03406">
        <ele>825</ele>
        <time>2022-05-24T13:29:36Z</time>
      </trkpt>
      <trkpt lat="46.81147" lon="6.03414">
        <ele>825</ele>
        <time>2022-05-24T13:29:37Z</time>
      </trkpt>
      <trkpt lat="46.8115" lon="6.03423">
        <ele>825</ele>
        <time>2022-05-24T13:29:38Z</time>
      </trkpt>
      <trkpt lat="46.81153" lon="6.03431">
        <ele>825</ele>
        <time>2022-05-24T13:29:39Z</time>
      </trkpt>
      <trkpt lat="46.81156" lon="6.0344">
        <ele>825</ele>
        <time>2022-05-24T13:29:40Z</time>
      </trkpt>
      <trkpt lat="46.81159" lon="6.03448">
        <ele>825</ele>
        <time>2022-05-24T13:29:41Z</time>
      </trkpt>
      <trkpt lat="46.81162" lon="6.03456">
        <ele>825</ele>
        <time>2022-05-24T13:29:42Z</time>
      </trkpt>
      <trkpt lat="46.81164" lon="6.03465">
        <ele>825.2</ele>
        <time>2022-05-24T13:29:43Z</time>
      </trkpt>
      <trkpt lat="46.81167" lon="6.03473">
        <ele>825.2</ele>
        <time>2022-05-24T13:29:44Z</time>
      </trkpt>
      <trkpt lat="46.8117" lon="6.03481">
        <ele>825.2</ele>
        <time>2022-05-24T13:29:45Z</time>
      </trkpt>
      <trkpt lat="46.81173" lon="6.03489">
        <ele>825.2</ele>
        <time>2022-05-24T13:29:46Z</time>
      </trkpt>
      <trkpt lat="46.81176" lon="6.03496">
        <ele>825.2</ele>
        <time>2022-05-24T13:29:47Z</time>
      </trkpt>
      <trkpt lat="46.81179" lon="6.03505">
        <ele>825.2</ele>
        <time>2022-05-24T13:29:48Z</time>
      </trkpt>
      <trkpt lat="46.81182" lon="6.03512">
        <ele>825.2</ele>
        <time>2022-05-24T13:29:49Z</time>
      </trkpt>
      <trkpt lat="46.81184" lon="6.0352">
        <ele>825.2</ele>
        <time>2022-05-24T13:29:50Z</time>
      </trkpt>
      <trkpt lat="46.81187" lon="6.03528">
        <ele>825.2</ele>
        <time>2022-05-24T13:29:51Z</time>
      </trkpt>
      <trkpt lat="46.8119" lon="6.03536">
        <ele>825.2</ele>
        <time>2022-05-24T13:29:52Z</time>
      </trkpt>
      <trkpt lat="46.81192" lon="6.03544">
        <ele>825.2</ele>
        <time>2022-05-24T13:29:53Z</time>
      </trkpt>
      <trkpt lat="46.81195" lon="6.03552">
        <ele>825.2</ele>
        <time>2022-05-24T13:29:54Z</time>
      </trkpt>
      <trkpt lat="46.81197" lon="6.03559">
        <ele>825.6</ele>
        <time>2022-05-24T13:29:55Z</time>
      </trkpt>
      <trkpt lat="46.812" lon="6.03567">
        <ele>825.8</ele>
        <time>2022-05-24T13:29:56Z</time>
      </trkpt>
      <trkpt lat="46.81202" lon="6.03574">
        <ele>826</ele>
        <time>2022-05-24T13:29:57Z</time>
      </trkpt>
      <trkpt lat="46.81204" lon="6.03581">
        <ele>826</ele>
        <time>2022-05-24T13:29:58Z</time>
      </trkpt>
      <trkpt lat="46.81207" lon="6.03588">
        <ele>826.4</ele>
        <time>2022-05-24T13:29:59Z</time>
      </trkpt>
      <trkpt lat="46.81209" lon="6.03594">
        <ele>826.4</ele>
        <time>2022-05-24T13:30:00Z</time>
      </trkpt>
      <trkpt lat="46.81212" lon="6.03601">
        <ele>826.8</ele>
        <time>2022-05-24T13:30:01Z</time>
      </trkpt>
      <trkpt lat="46.81214" lon="6.03608">
        <ele>826.8</ele>
        <time>2022-05-24T13:30:02Z</time>
      </trkpt>
      <trkpt lat="46.81216" lon="6.03615">
        <ele>827.2</ele>
        <time>2022-05-24T13:30:03Z</time>
      </trkpt>
      <trkpt lat="46.81219" lon="6.03622">
        <ele>827.4</ele>
        <time>2022-05-24T13:30:04Z</time>
      </trkpt>
      <trkpt lat="46.81221" lon="6.03628">
        <ele>827.8</ele>
        <time>2022-05-24T13:30:05Z</time>
      </trkpt>
      <trkpt lat="46.81223" lon="6.03634">
        <ele>827.8</ele>
        <time>2022-05-24T13:30:06Z</time>
      </trkpt>
      <trkpt lat="46.81226" lon="6.03641">
        <ele>828</ele>
        <time>2022-05-24T13:30:07Z</time>
      </trkpt>
      <trkpt lat="46.81228" lon="6.03648">
        <ele>828</ele>
        <time>2022-05-24T13:30:08Z</time>
      </trkpt>
      <trkpt lat="46.8123" lon="6.03655">
        <ele>828.4</ele>
        <time>2022-05-24T13:30:09Z</time>
      </trkpt>
      <trkpt lat="46.81232" lon="6.03662">
        <ele>828.4</ele>
        <time>2022-05-24T13:30:10Z</time>
      </trkpt>
      <trkpt lat="46.81235" lon="6.03669">
        <ele>828.6</ele>
        <time>2022-05-24T13:30:11Z</time>
      </trkpt>
      <trkpt lat="46.81237" lon="6.03677">
        <ele>828.6</ele>
        <time>2022-05-24T13:30:12Z</time>
      </trkpt>
      <trkpt lat="46.81239" lon="6.03685">
        <ele>828.6</ele>
        <time>2022-05-24T13:30:13Z</time>
      </trkpt>
      <trkpt lat="46.81241" lon="6.03694">
        <ele>828.6</ele>
        <time>2022-05-24T13:30:14Z</time>
      </trkpt>
      <trkpt lat="46.81243" lon="6.03702">
        <ele>828.6</ele>
        <time>2022-05-24T13:30:15Z</time>
      </trkpt>
      <trkpt lat="46.81245" lon="6.03711">
        <ele>828.6</ele>
        <time>2022-05-24T13:30:16Z</time>
      </trkpt>
      <trkpt lat="46.81246" lon="6.03719">
        <ele>829</ele>
        <time>2022-05-24T13:30:17Z</time>
      </trkpt>
      <trkpt lat="46.81248" lon="6.03727">
        <ele>829</ele>
        <time>2022-05-24T13:30:18Z</time>
      </trkpt>
      <trkpt lat="46.81249" lon="6.03735">
        <ele>829</ele>
        <time>2022-05-24T13:30:19Z</time>
      </trkpt>
      <trkpt lat="46.81251" lon="6.03743">
        <ele>829.2</ele>
        <time>2022-05-24T13:30:20Z</time>
      </trkpt>
      <trkpt lat="46.81252" lon="6.03751">
        <ele>829.2</ele>
        <time>2022-05-24T13:30:21Z</time>
      </trkpt>
      <trkpt lat="46.81253" lon="6.03759">
        <ele>829.4</ele>
        <time>2022-05-24T13:30:22Z</time>
      </trkpt>
      <trkpt lat="46.81254" lon="6.03766">
        <ele>829.4</ele>
        <time>2022-05-24T13:30:23Z</time>
      </trkpt>
      <trkpt lat="46.81255" lon="6.03773">
        <ele>829.8</ele>
        <time>2022-05-24T13:30:24Z</time>
      </trkpt>
      <trkpt lat="46.81256" lon="6.0378">
        <ele>830</ele>
        <time>2022-05-24T13:30:25Z</time>
      </trkpt>
      <trkpt lat="46.81257" lon="6.03787">
        <ele>830.4</ele>
        <time>2022-05-24T13:30:26Z</time>
      </trkpt>
      <trkpt lat="46.81258" lon="6.03794">
        <ele>830.6</ele>
        <time>2022-05-24T13:30:27Z</time>
      </trkpt>
      <trkpt lat="46.81259" lon="6.03801">
        <ele>830.6</ele>
        <time>2022-05-24T13:30:28Z</time>
      </trkpt>
      <trkpt lat="46.8126" lon="6.03809">
        <ele>831</ele>
        <time>2022-05-24T13:30:29Z</time>
      </trkpt>
      <trkpt lat="46.81261" lon="6.03816">
        <ele>831</ele>
        <time>2022-05-24T13:30:30Z</time>
      </trkpt>
      <trkpt lat="46.81262" lon="6.03823">
        <ele>831.4</ele>
        <time>2022-05-24T13:30:31Z</time>
      </trkpt>
      <trkpt lat="46.81264" lon="6.03831">
        <ele>831.6</ele>
        <time>2022-05-24T13:30:32Z</time>
      </trkpt>
      <trkpt lat="46.81265" lon="6.03839">
        <ele>831.8</ele>
        <time>2022-05-24T13:30:33Z</time>
      </trkpt>
      <trkpt lat="46.81266" lon="6.03846">
        <ele>832.2</ele>
        <time>2022-05-24T13:30:34Z</time>
      </trkpt>
      <trkpt lat="46.81267" lon="6.03853">
        <ele>832.6</ele>
        <time>2022-05-24T13:30:35Z</time>
      </trkpt>
      <trkpt lat="46.81268" lon="6.0386">
        <ele>832.8</ele>
        <time>2022-05-24T13:30:36Z</time>
      </trkpt>
      <trkpt lat="46.81269" lon="6.03866">
        <ele>833.2</ele>
        <time>2022-05-24T13:30:37Z</time>
      </trkpt>
      <trkpt lat="46.8127" lon="6.03873">
        <ele>833.4</ele>
        <time>2022-05-24T13:30:38Z</time>
      </trkpt>
      <trkpt lat="46.81271" lon="6.03879">
        <ele>833.4</ele>
        <time>2022-05-24T13:30:39Z</time>
      </trkpt>
      <trkpt lat="46.81272" lon="6.03886">
        <ele>833.6</ele>
        <time>2022-05-24T13:30:40Z</time>
      </trkpt>
      <trkpt lat="46.81273" lon="6.03893">
        <ele>833.8</ele>
        <time>2022-05-24T13:30:41Z</time>
      </trkpt>
      <trkpt lat="46.81274" lon="6.039">
        <ele>834.2</ele>
        <time>2022-05-24T13:30:42Z</time>
      </trkpt>
      <trkpt lat="46.81275" lon="6.03907">
        <ele>834.4</ele>
        <time>2022-05-24T13:30:43Z</time>
      </trkpt>
      <trkpt lat="46.81275" lon="6.03907">
        <ele>834.4</ele>
        <time>2022-05-24T13:30:44Z</time>
      </trkpt>
      <trkpt lat="46.81276" lon="6.03915">
        <ele>834.6</ele>
        <time>2022-05-24T13:30:45Z</time>
      </trkpt>
      <trkpt lat="46.81277" lon="6.03922">
        <ele>835</ele>
        <time>2022-05-24T13:30:46Z</time>
      </trkpt>
      <trkpt lat="46.81279" lon="6.03929">
        <ele>835</ele>
        <time>2022-05-24T13:30:47Z</time>
      </trkpt>
      <trkpt lat="46.8128" lon="6.03937">
        <ele>835.2</ele>
        <time>2022-05-24T13:30:48Z</time>
      </trkpt>
      <trkpt lat="46.81281" lon="6.03944">
        <ele>835.2</ele>
        <time>2022-05-24T13:30:49Z</time>
      </trkpt>
      <trkpt lat="46.81282" lon="6.03952">
        <ele>835.4</ele>
        <time>2022-05-24T13:30:50Z</time>
      </trkpt>
      <trkpt lat="46.81283" lon="6.03959">
        <ele>835.4</ele>
        <time>2022-05-24T13:30:51Z</time>
      </trkpt>
      <trkpt lat="46.81284" lon="6.03967">
        <ele>835.8</ele>
        <time>2022-05-24T13:30:52Z</time>
      </trkpt>
      <trkpt lat="46.81286" lon="6.03974">
        <ele>835.8</ele>
        <time>2022-05-24T13:30:53Z</time>
      </trkpt>
      <trkpt lat="46.81287" lon="6.03982">
        <ele>835.8</ele>
        <time>2022-05-24T13:30:54Z</time>
      </trkpt>
      <trkpt lat="46.81289" lon="6.0399">
        <ele>836</ele>
        <time>2022-05-24T13:30:55Z</time>
      </trkpt>
      <trkpt lat="46.8129" lon="6.03997">
        <ele>836</ele>
        <time>2022-05-24T13:30:56Z</time>
      </trkpt>
      <trkpt lat="46.81292" lon="6.04005">
        <ele>836</ele>
        <time>2022-05-24T13:30:57Z</time>
      </trkpt>
      <trkpt lat="46.81293" lon="6.04012">
        <ele>836.4</ele>
        <time>2022-05-24T13:30:58Z</time>
      </trkpt>
      <trkpt lat="46.81295" lon="6.0402">
        <ele>836.4</ele>
        <time>2022-05-24T13:30:59Z</time>
      </trkpt>
      <trkpt lat="46.81296" lon="6.04027">
        <ele>836.4</ele>
        <time>2022-05-24T13:31:00Z</time>
      </trkpt>
      <trkpt lat="46.81298" lon="6.04035">
        <ele>836.4</ele>
        <time>2022-05-24T13:31:01Z</time>
      </trkpt>
      <trkpt lat="46.813" lon="6.04042">
        <ele>836.6</ele>
        <time>2022-05-24T13:31:02Z</time>
      </trkpt>
      <trkpt lat="46.81302" lon="6.0405">
        <ele>836.8</ele>
        <time>2022-05-24T13:31:03Z</time>
      </trkpt>
      <trkpt lat="46.81304" lon="6.04057">
        <ele>836.8</ele>
        <time>2022-05-24T13:31:04Z</time>
      </trkpt>
      <trkpt lat="46.81306" lon="6.04065">
        <ele>836.8</ele>
        <time>2022-05-24T13:31:05Z</time>
      </trkpt>
      <trkpt lat="46.81307" lon="6.04072">
        <ele>836.8</ele>
        <time>2022-05-24T13:31:06Z</time>
      </trkpt>
      <trkpt lat="46.81306" lon="6.04087">
        <ele>837.2</ele>
        <time>2022-05-24T13:31:07Z</time>
      </trkpt>
      <trkpt lat="46.81304" lon="6.04095">
        <ele>837.2</ele>
        <time>2022-05-24T13:31:08Z</time>
      </trkpt>
      <trkpt lat="46.81301" lon="6.04102">
        <ele>837.4</ele>
        <time>2022-05-24T13:31:09Z</time>
      </trkpt>
      <trkpt lat="46.81298" lon="6.04109">
        <ele>837.4</ele>
        <time>2022-05-24T13:31:10Z</time>
      </trkpt>
      <trkpt lat="46.81295" lon="6.04117">
        <ele>837.4</ele>
        <time>2022-05-24T13:31:11Z</time>
      </trkpt>
      <trkpt lat="46.81292" lon="6.04124">
        <ele>837.4</ele>
        <time>2022-05-24T13:31:12Z</time>
      </trkpt>
      <trkpt lat="46.81289" lon="6.04132">
        <ele>837.4</ele>
        <time>2022-05-24T13:31:13Z</time>
      </trkpt>
      <trkpt lat="46.81286" lon="6.04139">
        <ele>837.4</ele>
        <time>2022-05-24T13:31:14Z</time>
      </trkpt>
      <trkpt lat="46.81282" lon="6.04147">
        <ele>837.4</ele>
        <time>2022-05-24T13:31:15Z</time>
      </trkpt>
      <trkpt lat="46.81278" lon="6.04154">
        <ele>837.4</ele>
        <time>2022-05-24T13:31:16Z</time>
      </trkpt>
      <trkpt lat="46.81275" lon="6.04162">
        <ele>837.4</ele>
        <time>2022-05-24T13:31:17Z</time>
      </trkpt>
      <trkpt lat="46.81271" lon="6.04169">
        <ele>837.4</ele>
        <time>2022-05-24T13:31:18Z</time>
      </trkpt>
      <trkpt lat="46.81267" lon="6.04178">
        <ele>837.4</ele>
        <time>2022-05-24T13:31:19Z</time>
      </trkpt>
      <trkpt lat="46.81263" lon="6.04186">
        <ele>837.4</ele>
        <time>2022-05-24T13:31:20Z</time>
      </trkpt>
      <trkpt lat="46.81259" lon="6.04194">
        <ele>837.4</ele>
        <time>2022-05-24T13:31:21Z</time>
      </trkpt>
      <trkpt lat="46.81255" lon="6.04203">
        <ele>837.4</ele>
        <time>2022-05-24T13:31:22Z</time>
      </trkpt>
      <trkpt lat="46.81251" lon="6.04212">
        <ele>837.2</ele>
        <time>2022-05-24T13:31:23Z</time>
      </trkpt>
      <trkpt lat="46.81247" lon="6.0422">
        <ele>837.2</ele>
        <time>2022-05-24T13:31:24Z</time>
      </trkpt>
      <trkpt lat="46.81243" lon="6.04229">
        <ele>837.2</ele>
        <time>2022-05-24T13:31:25Z</time>
      </trkpt>
      <trkpt lat="46.81239" lon="6.04238">
        <ele>837.2</ele>
        <time>2022-05-24T13:31:26Z</time>
      </trkpt>
      <trkpt lat="46.81235" lon="6.04247">
        <ele>837</ele>
        <time>2022-05-24T13:31:27Z</time>
      </trkpt>
      <trkpt lat="46.8123" lon="6.04255">
        <ele>837</ele>
        <time>2022-05-24T13:31:28Z</time>
      </trkpt>
      <trkpt lat="46.81226" lon="6.04264">
        <ele>837</ele>
        <time>2022-05-24T13:31:29Z</time>
      </trkpt>
      <trkpt lat="46.81222" lon="6.04273">
        <ele>837</ele>
        <time>2022-05-24T13:31:30Z</time>
      </trkpt>
      <trkpt lat="46.81218" lon="6.04281">
        <ele>837</ele>
        <time>2022-05-24T13:31:31Z</time>
      </trkpt>
      <trkpt lat="46.81214" lon="6.04289">
        <ele>837</ele>
        <time>2022-05-24T13:31:32Z</time>
      </trkpt>
      <trkpt lat="46.8121" lon="6.04296">
        <ele>837</ele>
        <time>2022-05-24T13:31:33Z</time>
      </trkpt>
      <trkpt lat="46.81206" lon="6.04304">
        <ele>837</ele>
        <time>2022-05-24T13:31:34Z</time>
      </trkpt>
      <trkpt lat="46.81202" lon="6.04311">
        <ele>837</ele>
        <time>2022-05-24T13:31:35Z</time>
      </trkpt>
      <trkpt lat="46.81198" lon="6.04318">
        <ele>837</ele>
        <time>2022-05-24T13:31:36Z</time>
      </trkpt>
      <trkpt lat="46.81194" lon="6.04324">
        <ele>837</ele>
        <time>2022-05-24T13:31:37Z</time>
      </trkpt>
      <trkpt lat="46.81191" lon="6.0433">
        <ele>837</ele>
        <time>2022-05-24T13:31:38Z</time>
      </trkpt>
      <trkpt lat="46.81188" lon="6.04336">
        <ele>837.2</ele>
        <time>2022-05-24T13:31:39Z</time>
      </trkpt>
      <trkpt lat="46.81185" lon="6.04341">
        <ele>837.2</ele>
        <time>2022-05-24T13:31:40Z</time>
      </trkpt>
      <trkpt lat="46.81184" lon="6.04345">
        <ele>837.2</ele>
        <time>2022-05-24T13:31:41Z</time>
      </trkpt>
      <trkpt lat="46.81183" lon="6.04349">
        <ele>837.2</ele>
        <time>2022-05-24T13:31:42Z</time>
      </trkpt>
      <trkpt lat="46.81184" lon="6.04352">
        <ele>837.4</ele>
        <time>2022-05-24T13:31:43Z</time>
      </trkpt>
      <trkpt lat="46.81186" lon="6.04354">
        <ele>837.4</ele>
        <time>2022-05-24T13:31:44Z</time>
      </trkpt>
      <trkpt lat="46.81189" lon="6.04354">
        <ele>837.4</ele>
        <time>2022-05-24T13:31:45Z</time>
      </trkpt>
      <trkpt lat="46.81192" lon="6.04353">
        <ele>837.4</ele>
        <time>2022-05-24T13:31:46Z</time>
      </trkpt>
      <trkpt lat="46.81194" lon="6.04351">
        <ele>837.8</ele>
        <time>2022-05-24T13:31:47Z</time>
      </trkpt>
      <trkpt lat="46.81198" lon="6.0435">
        <ele>837.8</ele>
        <time>2022-05-24T13:31:48Z</time>
      </trkpt>
      <trkpt lat="46.81201" lon="6.04349">
        <ele>837.8</ele>
        <time>2022-05-24T13:31:49Z</time>
      </trkpt>
      <trkpt lat="46.81205" lon="6.0435">
        <ele>837.8</ele>
        <time>2022-05-24T13:31:50Z</time>
      </trkpt>
      <trkpt lat="46.81209" lon="6.04351">
        <ele>838</ele>
        <time>2022-05-24T13:31:51Z</time>
      </trkpt>
      <trkpt lat="46.81213" lon="6.04351">
        <ele>838</ele>
        <time>2022-05-24T13:31:52Z</time>
      </trkpt>
      <trkpt lat="46.81218" lon="6.04352">
        <ele>838</ele>
        <time>2022-05-24T13:31:53Z</time>
      </trkpt>
      <trkpt lat="46.81223" lon="6.04352">
        <ele>838</ele>
        <time>2022-05-24T13:31:54Z</time>
      </trkpt>
      <trkpt lat="46.81228" lon="6.04353">
        <ele>838</ele>
        <time>2022-05-24T13:31:55Z</time>
      </trkpt>
      <trkpt lat="46.81233" lon="6.04353">
        <ele>838.2</ele>
        <time>2022-05-24T13:31:56Z</time>
      </trkpt>
      <trkpt lat="46.81238" lon="6.04354">
        <ele>838.2</ele>
        <time>2022-05-24T13:31:57Z</time>
      </trkpt>
      <trkpt lat="46.81243" lon="6.04355">
        <ele>838.2</ele>
        <time>2022-05-24T13:31:58Z</time>
      </trkpt>
      <trkpt lat="46.81247" lon="6.04356">
        <ele>838.4</ele>
        <time>2022-05-24T13:31:59Z</time>
      </trkpt>
      <trkpt lat="46.81252" lon="6.04357">
        <ele>838.4</ele>
        <time>2022-05-24T13:32:00Z</time>
      </trkpt>
      <trkpt lat="46.81257" lon="6.04359">
        <ele>838.4</ele>
        <time>2022-05-24T13:32:01Z</time>
      </trkpt>
      <trkpt lat="46.81262" lon="6.0436">
        <ele>838.8</ele>
        <time>2022-05-24T13:32:02Z</time>
      </trkpt>
      <trkpt lat="46.81267" lon="6.04361">
        <ele>838.8</ele>
        <time>2022-05-24T13:32:03Z</time>
      </trkpt>
      <trkpt lat="46.81272" lon="6.04362">
        <ele>838.8</ele>
        <time>2022-05-24T13:32:04Z</time>
      </trkpt>
      <trkpt lat="46.81276" lon="6.04363">
        <ele>839.2</ele>
        <time>2022-05-24T13:32:05Z</time>
      </trkpt>
      <trkpt lat="46.81281" lon="6.04364">
        <ele>839.2</ele>
        <time>2022-05-24T13:32:06Z</time>
      </trkpt>
      <trkpt lat="46.81286" lon="6.04366">
        <ele>839.2</ele>
        <time>2022-05-24T13:32:07Z</time>
      </trkpt>
      <trkpt lat="46.8129" lon="6.04368">
        <ele>839.2</ele>
        <time>2022-05-24T13:32:08Z</time>
      </trkpt>
      <trkpt lat="46.81295" lon="6.0437">
        <ele>839.4</ele>
        <time>2022-05-24T13:32:09Z</time>
      </trkpt>
      <trkpt lat="46.81299" lon="6.04373">
        <ele>839.4</ele>
        <time>2022-05-24T13:32:10Z</time>
      </trkpt>
      <trkpt lat="46.81304" lon="6.04375">
        <ele>839.6</ele>
        <time>2022-05-24T13:32:11Z</time>
      </trkpt>
      <trkpt lat="46.81308" lon="6.04378">
        <ele>839.6</ele>
        <time>2022-05-24T13:32:12Z</time>
      </trkpt>
      <trkpt lat="46.81312" lon="6.04381">
        <ele>840</ele>
        <time>2022-05-24T13:32:13Z</time>
      </trkpt>
      <trkpt lat="46.81316" lon="6.04385">
        <ele>840</ele>
        <time>2022-05-24T13:32:14Z</time>
      </trkpt>
      <trkpt lat="46.8132" lon="6.04388">
        <ele>840</ele>
        <time>2022-05-24T13:32:15Z</time>
      </trkpt>
      <trkpt lat="46.81325" lon="6.04392">
        <ele>840</ele>
        <time>2022-05-24T13:32:16Z</time>
      </trkpt>
      <trkpt lat="46.81329" lon="6.04396">
        <ele>840</ele>
        <time>2022-05-24T13:32:17Z</time>
      </trkpt>
      <trkpt lat="46.81333" lon="6.04399">
        <ele>840</ele>
        <time>2022-05-24T13:32:18Z</time>
      </trkpt>
      <trkpt lat="46.81338" lon="6.04403">
        <ele>840</ele>
        <time>2022-05-24T13:32:19Z</time>
      </trkpt>
      <trkpt lat="46.81342" lon="6.04408">
        <ele>839.8</ele>
        <time>2022-05-24T13:32:20Z</time>
      </trkpt>
      <trkpt lat="46.81346" lon="6.04413">
        <ele>839.8</ele>
        <time>2022-05-24T13:32:21Z</time>
      </trkpt>
      <trkpt lat="46.81351" lon="6.04418">
        <ele>839.4</ele>
        <time>2022-05-24T13:32:22Z</time>
      </trkpt>
      <trkpt lat="46.81356" lon="6.04423">
        <ele>839.2</ele>
        <time>2022-05-24T13:32:23Z</time>
      </trkpt>
      <trkpt lat="46.81361" lon="6.04428">
        <ele>839.2</ele>
        <time>2022-05-24T13:32:24Z</time>
      </trkpt>
      <trkpt lat="46.81366" lon="6.04433">
        <ele>838.8</ele>
        <time>2022-05-24T13:32:25Z</time>
      </trkpt>
      <trkpt lat="46.81371" lon="6.04438">
        <ele>838.8</ele>
        <time>2022-05-24T13:32:26Z</time>
      </trkpt>
      <trkpt lat="46.81377" lon="6.04443">
        <ele>838.6</ele>
        <time>2022-05-24T13:32:27Z</time>
      </trkpt>
      <trkpt lat="46.81382" lon="6.04449">
        <ele>838.6</ele>
        <time>2022-05-24T13:32:28Z</time>
      </trkpt>
      <trkpt lat="46.81388" lon="6.04454">
        <ele>838.4</ele>
        <time>2022-05-24T13:32:29Z</time>
      </trkpt>
      <trkpt lat="46.81393" lon="6.0446">
        <ele>838.4</ele>
        <time>2022-05-24T13:32:30Z</time>
      </trkpt>
      <trkpt lat="46.81398" lon="6.04465">
        <ele>838.2</ele>
        <time>2022-05-24T13:32:31Z</time>
      </trkpt>
      <trkpt lat="46.81403" lon="6.0447">
        <ele>838.2</ele>
        <time>2022-05-24T13:32:32Z</time>
      </trkpt>
      <trkpt lat="46.81407" lon="6.04474">
        <ele>837.8</ele>
        <time>2022-05-24T13:32:33Z</time>
      </trkpt>
      <trkpt lat="46.81412" lon="6.04478">
        <ele>837.8</ele>
        <time>2022-05-24T13:32:34Z</time>
      </trkpt>
      <trkpt lat="46.81416" lon="6.04482">
        <ele>837.6</ele>
        <time>2022-05-24T13:32:35Z</time>
      </trkpt>
      <trkpt lat="46.81421" lon="6.04486">
        <ele>837.4</ele>
        <time>2022-05-24T13:32:36Z</time>
      </trkpt>
      <trkpt lat="46.81426" lon="6.04489">
        <ele>837.4</ele>
        <time>2022-05-24T13:32:37Z</time>
      </trkpt>
      <trkpt lat="46.81431" lon="6.04493">
        <ele>837.4</ele>
        <time>2022-05-24T13:32:38Z</time>
      </trkpt>
      <trkpt lat="46.81436" lon="6.04497">
        <ele>837.4</ele>
        <time>2022-05-24T13:32:39Z</time>
      </trkpt>
      <trkpt lat="46.81442" lon="6.045">
        <ele>837.4</ele>
        <time>2022-05-24T13:32:40Z</time>
      </trkpt>
      <trkpt lat="46.81448" lon="6.04502">
        <ele>837.4</ele>
        <time>2022-05-24T13:32:41Z</time>
      </trkpt>
      <trkpt lat="46.81454" lon="6.04502">
        <ele>837.4</ele>
        <time>2022-05-24T13:32:42Z</time>
      </trkpt>
      <trkpt lat="46.8146" lon="6.04501">
        <ele>837.2</ele>
        <time>2022-05-24T13:32:43Z</time>
      </trkpt>
      <trkpt lat="46.81466" lon="6.04499">
        <ele>837.2</ele>
        <time>2022-05-24T13:32:44Z</time>
      </trkpt>
      <trkpt lat="46.81472" lon="6.04496">
        <ele>836.8</ele>
        <time>2022-05-24T13:32:45Z</time>
      </trkpt>
      <trkpt lat="46.81479" lon="6.04492">
        <ele>836.8</ele>
        <time>2022-05-24T13:32:46Z</time>
      </trkpt>
      <trkpt lat="46.81485" lon="6.04487">
        <ele>836.8</ele>
        <time>2022-05-24T13:32:47Z</time>
      </trkpt>
      <trkpt lat="46.81492" lon="6.04482">
        <ele>836.4</ele>
        <time>2022-05-24T13:32:48Z</time>
      </trkpt>
      <trkpt lat="46.81498" lon="6.04477">
        <ele>836.4</ele>
        <time>2022-05-24T13:32:49Z</time>
      </trkpt>
      <trkpt lat="46.81505" lon="6.04472">
        <ele>836</ele>
        <time>2022-05-24T13:32:50Z</time>
      </trkpt>
      <trkpt lat="46.81512" lon="6.04467">
        <ele>835.6</ele>
        <time>2022-05-24T13:32:51Z</time>
      </trkpt>
      <trkpt lat="46.8152" lon="6.04462">
        <ele>835.6</ele>
        <time>2022-05-24T13:32:52Z</time>
      </trkpt>
      <trkpt lat="46.81527" lon="6.04457">
        <ele>835.4</ele>
        <time>2022-05-24T13:32:53Z</time>
      </trkpt>
      <trkpt lat="46.81535" lon="6.04452">
        <ele>835.2</ele>
        <time>2022-05-24T13:32:54Z</time>
      </trkpt>
      <trkpt lat="46.81542" lon="6.04447">
        <ele>834.8</ele>
        <time>2022-05-24T13:32:55Z</time>
      </trkpt>
      <trkpt lat="46.81549" lon="6.04442">
        <ele>834.8</ele>
        <time>2022-05-24T13:32:56Z</time>
      </trkpt>
      <trkpt lat="46.81556" lon="6.04437">
        <ele>834.8</ele>
        <time>2022-05-24T13:32:57Z</time>
      </trkpt>
      <trkpt lat="46.81563" lon="6.04433">
        <ele>834.8</ele>
        <time>2022-05-24T13:32:58Z</time>
      </trkpt>
      <trkpt lat="46.8157" lon="6.04428">
        <ele>834.8</ele>
        <time>2022-05-24T13:32:59Z</time>
      </trkpt>
      <trkpt lat="46.81576" lon="6.04424">
        <ele>835.2</ele>
        <time>2022-05-24T13:33:00Z</time>
      </trkpt>
      <trkpt lat="46.81582" lon="6.0442">
        <ele>835.4</ele>
        <time>2022-05-24T13:33:01Z</time>
      </trkpt>
      <trkpt lat="46.81588" lon="6.04416">
        <ele>835.4</ele>
        <time>2022-05-24T13:33:02Z</time>
      </trkpt>
      <trkpt lat="46.81594" lon="6.04412">
        <ele>835.8</ele>
        <time>2022-05-24T13:33:03Z</time>
      </trkpt>
      <trkpt lat="46.816" lon="6.04408">
        <ele>835.8</ele>
        <time>2022-05-24T13:33:04Z</time>
      </trkpt>
      <trkpt lat="46.81605" lon="6.04405">
        <ele>836.2</ele>
        <time>2022-05-24T13:33:05Z</time>
      </trkpt>
      <trkpt lat="46.8161" lon="6.04402">
        <ele>836.2</ele>
        <time>2022-05-24T13:33:06Z</time>
      </trkpt>
      <trkpt lat="46.81615" lon="6.04399">
        <ele>836.2</ele>
        <time>2022-05-24T13:33:07Z</time>
      </trkpt>
      <trkpt lat="46.8162" lon="6.04395">
        <ele>836.4</ele>
        <time>2022-05-24T13:33:08Z</time>
      </trkpt>
      <trkpt lat="46.81625" lon="6.04392">
        <ele>836.8</ele>
        <time>2022-05-24T13:33:09Z</time>
      </trkpt>
      <trkpt lat="46.8163" lon="6.04389">
        <ele>837</ele>
        <time>2022-05-24T13:33:10Z</time>
      </trkpt>
      <trkpt lat="46.81635" lon="6.04386">
        <ele>837</ele>
        <time>2022-05-24T13:33:11Z</time>
      </trkpt>
      <trkpt lat="46.8164" lon="6.04382">
        <ele>837</ele>
        <time>2022-05-24T13:33:12Z</time>
      </trkpt>
      <trkpt lat="46.81645" lon="6.04378">
        <ele>836.8</ele>
        <time>2022-05-24T13:33:13Z</time>
      </trkpt>
      <trkpt lat="46.81651" lon="6.04375">
        <ele>836.8</ele>
        <time>2022-05-24T13:33:14Z</time>
      </trkpt>
      <trkpt lat="46.81656" lon="6.04371">
        <ele>836.8</ele>
        <time>2022-05-24T13:33:15Z</time>
      </trkpt>
      <trkpt lat="46.81662" lon="6.04368">
        <ele>836.8</ele>
        <time>2022-05-24T13:33:16Z</time>
      </trkpt>
      <trkpt lat="46.81668" lon="6.04364">
        <ele>836.4</ele>
        <time>2022-05-24T13:33:17Z</time>
      </trkpt>
      <trkpt lat="46.81674" lon="6.0436">
        <ele>836.4</ele>
        <time>2022-05-24T13:33:18Z</time>
      </trkpt>
      <trkpt lat="46.8168" lon="6.04356">
        <ele>836.8</ele>
        <time>2022-05-24T13:33:19Z</time>
      </trkpt>
      <trkpt lat="46.81686" lon="6.04351">
        <ele>836.8</ele>
        <time>2022-05-24T13:33:20Z</time>
      </trkpt>
      <trkpt lat="46.81692" lon="6.04347">
        <ele>836.8</ele>
        <time>2022-05-24T13:33:21Z</time>
      </trkpt>
      <trkpt lat="46.81699" lon="6.04342">
        <ele>836.4</ele>
        <time>2022-05-24T13:33:22Z</time>
      </trkpt>
      <trkpt lat="46.81706" lon="6.04338">
        <ele>836.4</ele>
        <time>2022-05-24T13:33:23Z</time>
      </trkpt>
      <trkpt lat="46.81713" lon="6.04333">
        <ele>836.2</ele>
        <time>2022-05-24T13:33:24Z</time>
      </trkpt>
      <trkpt lat="46.8172" lon="6.04329">
        <ele>836.2</ele>
        <time>2022-05-24T13:33:25Z</time>
      </trkpt>
      <trkpt lat="46.81728" lon="6.04324">
        <ele>835.8</ele>
        <time>2022-05-24T13:33:26Z</time>
      </trkpt>
      <trkpt lat="46.81735" lon="6.04319">
        <ele>835.6</ele>
        <time>2022-05-24T13:33:27Z</time>
      </trkpt>
      <trkpt lat="46.81742" lon="6.04315">
        <ele>835.4</ele>
        <time>2022-05-24T13:33:28Z</time>
      </trkpt>
      <trkpt lat="46.8175" lon="6.0431">
        <ele>835</ele>
        <time>2022-05-24T13:33:29Z</time>
      </trkpt>
      <trkpt lat="46.81757" lon="6.04305">
        <ele>834.8</ele>
        <time>2022-05-24T13:33:30Z</time>
      </trkpt>
      <trkpt lat="46.81764" lon="6.043">
        <ele>834.6</ele>
        <time>2022-05-24T13:33:31Z</time>
      </trkpt>
      <trkpt lat="46.81771" lon="6.04295">
        <ele>834.6</ele>
        <time>2022-05-24T13:33:32Z</time>
      </trkpt>
      <trkpt lat="46.81778" lon="6.0429">
        <ele>834.4</ele>
        <time>2022-05-24T13:33:33Z</time>
      </trkpt>
      <trkpt lat="46.81785" lon="6.04285">
        <ele>834.4</ele>
        <time>2022-05-24T13:33:34Z</time>
      </trkpt>
      <trkpt lat="46.81792" lon="6.0428">
        <ele>834</ele>
        <time>2022-05-24T13:33:35Z</time>
      </trkpt>
      <trkpt lat="46.81799" lon="6.04275">
        <ele>834</ele>
        <time>2022-05-24T13:33:36Z</time>
      </trkpt>
      <trkpt lat="46.81806" lon="6.0427">
        <ele>834</ele>
        <time>2022-05-24T13:33:37Z</time>
      </trkpt>
      <trkpt lat="46.81813" lon="6.04265">
        <ele>833.8</ele>
        <time>2022-05-24T13:33:38Z</time>
      </trkpt>
      <trkpt lat="46.8182" lon="6.0426">
        <ele>833.6</ele>
        <time>2022-05-24T13:33:39Z</time>
      </trkpt>
      <trkpt lat="46.81826" lon="6.04255">
        <ele>833.6</ele>
        <time>2022-05-24T13:33:40Z</time>
      </trkpt>
      <trkpt lat="46.81833" lon="6.0425">
        <ele>833.6</ele>
        <time>2022-05-24T13:33:41Z</time>
      </trkpt>
      <trkpt lat="46.81839" lon="6.04245">
        <ele>833.6</ele>
        <time>2022-05-24T13:33:42Z</time>
      </trkpt>
      <trkpt lat="46.81845" lon="6.04239">
        <ele>833.6</ele>
        <time>2022-05-24T13:33:43Z</time>
      </trkpt>
      <trkpt lat="46.81851" lon="6.04234">
        <ele>833.6</ele>
        <time>2022-05-24T13:33:44Z</time>
      </trkpt>
      <trkpt lat="46.81857" lon="6.04228">
        <ele>833.6</ele>
        <time>2022-05-24T13:33:45Z</time>
      </trkpt>
      <trkpt lat="46.81862" lon="6.04223">
        <ele>833.6</ele>
        <time>2022-05-24T13:33:46Z</time>
      </trkpt>
      <trkpt lat="46.81868" lon="6.04218">
        <ele>833.6</ele>
        <time>2022-05-24T13:33:47Z</time>
      </trkpt>
      <trkpt lat="46.81874" lon="6.04212">
        <ele>833.6</ele>
        <time>2022-05-24T13:33:48Z</time>
      </trkpt>
      <trkpt lat="46.81879" lon="6.04207">
        <ele>833.6</ele>
        <time>2022-05-24T13:33:49Z</time>
      </trkpt>
      <trkpt lat="46.81885" lon="6.04201">
        <ele>833.6</ele>
        <time>2022-05-24T13:33:50Z</time>
      </trkpt>
      <trkpt lat="46.81891" lon="6.04196">
        <ele>833.6</ele>
        <time>2022-05-24T13:33:51Z</time>
      </trkpt>
      <trkpt lat="46.81897" lon="6.04191">
        <ele>833.6</ele>
        <time>2022-05-24T13:33:52Z</time>
      </trkpt>
      <trkpt lat="46.81903" lon="6.04185">
        <ele>833.6</ele>
        <time>2022-05-24T13:33:53Z</time>
      </trkpt>
      <trkpt lat="46.81909" lon="6.0418">
        <ele>833.4</ele>
        <time>2022-05-24T13:33:54Z</time>
      </trkpt>
      <trkpt lat="46.81916" lon="6.04174">
        <ele>833.4</ele>
        <time>2022-05-24T13:33:55Z</time>
      </trkpt>
      <trkpt lat="46.81922" lon="6.04168">
        <ele>833</ele>
        <time>2022-05-24T13:33:56Z</time>
      </trkpt>
      <trkpt lat="46.81929" lon="6.04162">
        <ele>832.8</ele>
        <time>2022-05-24T13:33:57Z</time>
      </trkpt>
      <trkpt lat="46.81937" lon="6.04158">
        <ele>832.8</ele>
        <time>2022-05-24T13:33:58Z</time>
      </trkpt>
      <trkpt lat="46.81945" lon="6.04155">
        <ele>832.4</ele>
        <time>2022-05-24T13:33:59Z</time>
      </trkpt>
      <trkpt lat="46.81954" lon="6.04154">
        <ele>832.4</ele>
        <time>2022-05-24T13:34:00Z</time>
      </trkpt>
      <trkpt lat="46.81962" lon="6.04155">
        <ele>831.8</ele>
        <time>2022-05-24T13:34:01Z</time>
      </trkpt>
      <trkpt lat="46.81971" lon="6.04156">
        <ele>831.6</ele>
        <time>2022-05-24T13:34:02Z</time>
      </trkpt>
      <trkpt lat="46.8198" lon="6.04159">
        <ele>831.2</ele>
        <time>2022-05-24T13:34:03Z</time>
      </trkpt>
      <trkpt lat="46.8199" lon="6.04161">
        <ele>831</ele>
        <time>2022-05-24T13:34:04Z</time>
      </trkpt>
      <trkpt lat="46.82" lon="6.04165">
        <ele>830.6</ele>
        <time>2022-05-24T13:34:05Z</time>
      </trkpt>
      <trkpt lat="46.82" lon="6.04165">
        <ele>830.4</ele>
        <time>2022-05-24T13:34:06Z</time>
      </trkpt>
      <trkpt lat="46.82009" lon="6.04168">
        <ele>830.2</ele>
        <time>2022-05-24T13:34:07Z</time>
      </trkpt>
      <trkpt lat="46.82018" lon="6.04172">
        <ele>829.8</ele>
        <time>2022-05-24T13:34:08Z</time>
      </trkpt>
      <trkpt lat="46.82028" lon="6.04177">
        <ele>829.6</ele>
        <time>2022-05-24T13:34:09Z</time>
      </trkpt>
      <trkpt lat="46.82036" lon="6.04182">
        <ele>829.6</ele>
        <time>2022-05-24T13:34:10Z</time>
      </trkpt>
      <trkpt lat="46.82045" lon="6.04187">
        <ele>829.2</ele>
        <time>2022-05-24T13:34:11Z</time>
      </trkpt>
      <trkpt lat="46.82053" lon="6.04191">
        <ele>829.2</ele>
        <time>2022-05-24T13:34:12Z</time>
      </trkpt>
      <trkpt lat="46.82061" lon="6.04196">
        <ele>829</ele>
        <time>2022-05-24T13:34:13Z</time>
      </trkpt>
      <trkpt lat="46.82068" lon="6.042">
        <ele>829</ele>
        <time>2022-05-24T13:34:14Z</time>
      </trkpt>
      <trkpt lat="46.82076" lon="6.04204">
        <ele>829</ele>
        <time>2022-05-24T13:34:15Z</time>
      </trkpt>
      <trkpt lat="46.82083" lon="6.04208">
        <ele>828.8</ele>
        <time>2022-05-24T13:34:16Z</time>
      </trkpt>
      <trkpt lat="46.82091" lon="6.04212">
        <ele>828.8</ele>
        <time>2022-05-24T13:34:17Z</time>
      </trkpt>
      <trkpt lat="46.82098" lon="6.04216">
        <ele>828.4</ele>
        <time>2022-05-24T13:34:18Z</time>
      </trkpt>
      <trkpt lat="46.82105" lon="6.0422">
        <ele>828.4</ele>
        <time>2022-05-24T13:34:19Z</time>
      </trkpt>
      <trkpt lat="46.82112" lon="6.04224">
        <ele>828.2</ele>
        <time>2022-05-24T13:34:20Z</time>
      </trkpt>
      <trkpt lat="46.82119" lon="6.04227">
        <ele>828.2</ele>
        <time>2022-05-24T13:34:21Z</time>
      </trkpt>
      <trkpt lat="46.82125" lon="6.04231">
        <ele>828.2</ele>
        <time>2022-05-24T13:34:22Z</time>
      </trkpt>
      <trkpt lat="46.82132" lon="6.04234">
        <ele>828.2</ele>
        <time>2022-05-24T13:34:23Z</time>
      </trkpt>
      <trkpt lat="46.82139" lon="6.04238">
        <ele>827.8</ele>
        <time>2022-05-24T13:34:24Z</time>
      </trkpt>
      <trkpt lat="46.82145" lon="6.04242">
        <ele>827.8</ele>
        <time>2022-05-24T13:34:25Z</time>
      </trkpt>
      <trkpt lat="46.82152" lon="6.04245">
        <ele>827.8</ele>
        <time>2022-05-24T13:34:26Z</time>
      </trkpt>
      <trkpt lat="46.82159" lon="6.04249">
        <ele>827.8</ele>
        <time>2022-05-24T13:34:27Z</time>
      </trkpt>
      <trkpt lat="46.82165" lon="6.04253">
        <ele>827.4</ele>
        <time>2022-05-24T13:34:28Z</time>
      </trkpt>
      <trkpt lat="46.82172" lon="6.04257">
        <ele>827.4</ele>
        <time>2022-05-24T13:34:29Z</time>
      </trkpt>
      <trkpt lat="46.82179" lon="6.04261">
        <ele>827.4</ele>
        <time>2022-05-24T13:34:30Z</time>
      </trkpt>
      <trkpt lat="46.82185" lon="6.04265">
        <ele>827.4</ele>
        <time>2022-05-24T13:34:31Z</time>
      </trkpt>
      <trkpt lat="46.82192" lon="6.04268">
        <ele>827.6</ele>
        <time>2022-05-24T13:34:32Z</time>
      </trkpt>
      <trkpt lat="46.82199" lon="6.04271">
        <ele>827.6</ele>
        <time>2022-05-24T13:34:33Z</time>
      </trkpt>
      <trkpt lat="46.82206" lon="6.04274">
        <ele>827.6</ele>
        <time>2022-05-24T13:34:34Z</time>
      </trkpt>
      <trkpt lat="46.82213" lon="6.04277">
        <ele>827.6</ele>
        <time>2022-05-24T13:34:35Z</time>
      </trkpt>
      <trkpt lat="46.82221" lon="6.04279">
        <ele>827.6</ele>
        <time>2022-05-24T13:34:36Z</time>
      </trkpt>
      <trkpt lat="46.82228" lon="6.04281">
        <ele>827.6</ele>
        <time>2022-05-24T13:34:37Z</time>
      </trkpt>
      <trkpt lat="46.82235" lon="6.04283">
        <ele>827.6</ele>
        <time>2022-05-24T13:34:38Z</time>
      </trkpt>
      <trkpt lat="46.82242" lon="6.04284">
        <ele>827.4</ele>
        <time>2022-05-24T13:34:39Z</time>
      </trkpt>
      <trkpt lat="46.82249" lon="6.04286">
        <ele>827.4</ele>
        <time>2022-05-24T13:34:40Z</time>
      </trkpt>
      <trkpt lat="46.82256" lon="6.04288">
        <ele>827.4</ele>
        <time>2022-05-24T13:34:41Z</time>
      </trkpt>
      <trkpt lat="46.82264" lon="6.04289">
        <ele>827.4</ele>
        <time>2022-05-24T13:34:42Z</time>
      </trkpt>
      <trkpt lat="46.82271" lon="6.0429">
        <ele>827.4</ele>
        <time>2022-05-24T13:34:43Z</time>
      </trkpt>
      <trkpt lat="46.82278" lon="6.0429">
        <ele>827.4</ele>
        <time>2022-05-24T13:34:44Z</time>
      </trkpt>
      <trkpt lat="46.82285" lon="6.0429">
        <ele>827.4</ele>
        <time>2022-05-24T13:34:45Z</time>
      </trkpt>
      <trkpt lat="46.82291" lon="6.04289">
        <ele>827.4</ele>
        <time>2022-05-24T13:34:46Z</time>
      </trkpt>
      <trkpt lat="46.82298" lon="6.04289">
        <ele>827.4</ele>
        <time>2022-05-24T13:34:47Z</time>
      </trkpt>
      <trkpt lat="46.82305" lon="6.04289">
        <ele>827.4</ele>
        <time>2022-05-24T13:34:48Z</time>
      </trkpt>
      <trkpt lat="46.82311" lon="6.04288">
        <ele>827.4</ele>
        <time>2022-05-24T13:34:49Z</time>
      </trkpt>
      <trkpt lat="46.82317" lon="6.04287">
        <ele>827.4</ele>
        <time>2022-05-24T13:34:50Z</time>
      </trkpt>
      <trkpt lat="46.82324" lon="6.04286">
        <ele>827.4</ele>
        <time>2022-05-24T13:34:51Z</time>
      </trkpt>
      <trkpt lat="46.8233" lon="6.04285">
        <ele>827.4</ele>
        <time>2022-05-24T13:34:52Z</time>
      </trkpt>
      <trkpt lat="46.82337" lon="6.04285">
        <ele>827.4</ele>
        <time>2022-05-24T13:34:53Z</time>
      </trkpt>
      <trkpt lat="46.82344" lon="6.04284">
        <ele>827.4</ele>
        <time>2022-05-24T13:34:54Z</time>
      </trkpt>
      <trkpt lat="46.82351" lon="6.04283">
        <ele>827.4</ele>
        <time>2022-05-24T13:34:55Z</time>
      </trkpt>
      <trkpt lat="46.82358" lon="6.04282">
        <ele>827.6</ele>
        <time>2022-05-24T13:34:56Z</time>
      </trkpt>
      <trkpt lat="46.82364" lon="6.04281">
        <ele>827.6</ele>
        <time>2022-05-24T13:34:57Z</time>
      </trkpt>
      <trkpt lat="46.82378" lon="6.0428">
        <ele>827.6</ele>
        <time>2022-05-24T13:34:58Z</time>
      </trkpt>
      <trkpt lat="46.82385" lon="6.04279">
        <ele>827.4</ele>
        <time>2022-05-24T13:34:59Z</time>
      </trkpt>
      <trkpt lat="46.82392" lon="6.04279">
        <ele>827.2</ele>
        <time>2022-05-24T13:35:00Z</time>
      </trkpt>
      <trkpt lat="46.82399" lon="6.04278">
        <ele>827.2</ele>
        <time>2022-05-24T13:35:01Z</time>
      </trkpt>
      <trkpt lat="46.82406" lon="6.04277">
        <ele>827.2</ele>
        <time>2022-05-24T13:35:02Z</time>
      </trkpt>
      <trkpt lat="46.82412" lon="6.04276">
        <ele>826.8</ele>
        <time>2022-05-24T13:35:03Z</time>
      </trkpt>
      <trkpt lat="46.82419" lon="6.04274">
        <ele>826.8</ele>
        <time>2022-05-24T13:35:04Z</time>
      </trkpt>
      <trkpt lat="46.82426" lon="6.04274">
        <ele>826.8</ele>
        <time>2022-05-24T13:35:05Z</time>
      </trkpt>
      <trkpt lat="46.82432" lon="6.04273">
        <ele>826.8</ele>
        <time>2022-05-24T13:35:06Z</time>
      </trkpt>
      <trkpt lat="46.82438" lon="6.04272">
        <ele>826.8</ele>
        <time>2022-05-24T13:35:07Z</time>
      </trkpt>
      <trkpt lat="46.82444" lon="6.04271">
        <ele>826.8</ele>
        <time>2022-05-24T13:35:08Z</time>
      </trkpt>
      <trkpt lat="46.8245" lon="6.0427">
        <ele>827.2</ele>
        <time>2022-05-24T13:35:09Z</time>
      </trkpt>
      <trkpt lat="46.82456" lon="6.04269">
        <ele>827.2</ele>
        <time>2022-05-24T13:35:10Z</time>
      </trkpt>
      <trkpt lat="46.82461" lon="6.04269">
        <ele>827.6</ele>
        <time>2022-05-24T13:35:11Z</time>
      </trkpt>
      <trkpt lat="46.82467" lon="6.04268">
        <ele>827.6</ele>
        <time>2022-05-24T13:35:12Z</time>
      </trkpt>
      <trkpt lat="46.82472" lon="6.04268">
        <ele>828</ele>
        <time>2022-05-24T13:35:13Z</time>
      </trkpt>
      <trkpt lat="46.82478" lon="6.04267">
        <ele>828.2</ele>
        <time>2022-05-24T13:35:14Z</time>
      </trkpt>
      <trkpt lat="46.82483" lon="6.04266">
        <ele>828.4</ele>
        <time>2022-05-24T13:35:15Z</time>
      </trkpt>
      <trkpt lat="46.82488" lon="6.04265">
        <ele>828.6</ele>
        <time>2022-05-24T13:35:16Z</time>
      </trkpt>
      <trkpt lat="46.82493" lon="6.04264">
        <ele>829</ele>
        <time>2022-05-24T13:35:17Z</time>
      </trkpt>
      <trkpt lat="46.82498" lon="6.04263">
        <ele>829.2</ele>
        <time>2022-05-24T13:35:18Z</time>
      </trkpt>
      <trkpt lat="46.82503" lon="6.04262">
        <ele>829.6</ele>
        <time>2022-05-24T13:35:19Z</time>
      </trkpt>
      <trkpt lat="46.82508" lon="6.04261">
        <ele>829.8</ele>
        <time>2022-05-24T13:35:20Z</time>
      </trkpt>
      <trkpt lat="46.82512" lon="6.04261">
        <ele>830</ele>
        <time>2022-05-24T13:35:21Z</time>
      </trkpt>
      <trkpt lat="46.82517" lon="6.0426">
        <ele>830.2</ele>
        <time>2022-05-24T13:35:22Z</time>
      </trkpt>
      <trkpt lat="46.82521" lon="6.04259">
        <ele>830.4</ele>
        <time>2022-05-24T13:35:23Z</time>
      </trkpt>
      <trkpt lat="46.82526" lon="6.04258">
        <ele>830.8</ele>
        <time>2022-05-24T13:35:24Z</time>
      </trkpt>
      <trkpt lat="46.8253" lon="6.04257">
        <ele>831</ele>
        <time>2022-05-24T13:35:25Z</time>
      </trkpt>
      <trkpt lat="46.82534" lon="6.04257">
        <ele>831.4</ele>
        <time>2022-05-24T13:35:26Z</time>
      </trkpt>
      <trkpt lat="46.82538" lon="6.04257">
        <ele>831.4</ele>
        <time>2022-05-24T13:35:27Z</time>
      </trkpt>
      <trkpt lat="46.82542" lon="6.04257">
        <ele>831.8</ele>
        <time>2022-05-24T13:35:28Z</time>
      </trkpt>
      <trkpt lat="46.82546" lon="6.04255">
        <ele>832</ele>
        <time>2022-05-24T13:35:29Z</time>
      </trkpt>
      <trkpt lat="46.8255" lon="6.04252">
        <ele>832.4</ele>
        <time>2022-05-24T13:35:30Z</time>
      </trkpt>
      <trkpt lat="46.82554" lon="6.04248">
        <ele>832.6</ele>
        <time>2022-05-24T13:35:31Z</time>
      </trkpt>
      <trkpt lat="46.82557" lon="6.04243">
        <ele>832.6</ele>
        <time>2022-05-24T13:35:32Z</time>
      </trkpt>
      <trkpt lat="46.8256" lon="6.04238">
        <ele>832.8</ele>
        <time>2022-05-24T13:35:33Z</time>
      </trkpt>
      <trkpt lat="46.82563" lon="6.04233">
        <ele>833</ele>
        <time>2022-05-24T13:35:34Z</time>
      </trkpt>
      <trkpt lat="46.82566" lon="6.04228">
        <ele>833</ele>
        <time>2022-05-24T13:35:35Z</time>
      </trkpt>
      <trkpt lat="46.82569" lon="6.04224">
        <ele>833.4</ele>
        <time>2022-05-24T13:35:36Z</time>
      </trkpt>
      <trkpt lat="46.82573" lon="6.04219">
        <ele>833.8</ele>
        <time>2022-05-24T13:35:37Z</time>
      </trkpt>
      <trkpt lat="46.82576" lon="6.04215">
        <ele>834</ele>
        <time>2022-05-24T13:35:38Z</time>
      </trkpt>
      <trkpt lat="46.82579" lon="6.0421">
        <ele>834.2</ele>
        <time>2022-05-24T13:35:39Z</time>
      </trkpt>
      <trkpt lat="46.82582" lon="6.04205">
        <ele>834.6</ele>
        <time>2022-05-24T13:35:40Z</time>
      </trkpt>
      <trkpt lat="46.82585" lon="6.042">
        <ele>834.8</ele>
        <time>2022-05-24T13:35:41Z</time>
      </trkpt>
      <trkpt lat="46.82588" lon="6.04196">
        <ele>835.2</ele>
        <time>2022-05-24T13:35:42Z</time>
      </trkpt>
      <trkpt lat="46.82592" lon="6.04191">
        <ele>835.4</ele>
        <time>2022-05-24T13:35:43Z</time>
      </trkpt>
      <trkpt lat="46.82594" lon="6.04186">
        <ele>835.4</ele>
        <time>2022-05-24T13:35:44Z</time>
      </trkpt>
      <trkpt lat="46.82597" lon="6.0418">
        <ele>835.8</ele>
        <time>2022-05-24T13:35:45Z</time>
      </trkpt>
      <trkpt lat="46.826" lon="6.04175">
        <ele>836</ele>
        <time>2022-05-24T13:35:46Z</time>
      </trkpt>
      <trkpt lat="46.82603" lon="6.0417">
        <ele>836.2</ele>
        <time>2022-05-24T13:35:47Z</time>
      </trkpt>
      <trkpt lat="46.82607" lon="6.04165">
        <ele>836.4</ele>
        <time>2022-05-24T13:35:48Z</time>
      </trkpt>
      <trkpt lat="46.8261" lon="6.04161">
        <ele>836.8</ele>
        <time>2022-05-24T13:35:49Z</time>
      </trkpt>
      <trkpt lat="46.82613" lon="6.04156">
        <ele>837</ele>
        <time>2022-05-24T13:35:50Z</time>
      </trkpt>
      <trkpt lat="46.82616" lon="6.04152">
        <ele>837.2</ele>
        <time>2022-05-24T13:35:51Z</time>
      </trkpt>
      <trkpt lat="46.82619" lon="6.04147">
        <ele>837.6</ele>
        <time>2022-05-24T13:35:52Z</time>
      </trkpt>
      <trkpt lat="46.82622" lon="6.04143">
        <ele>837.8</ele>
        <time>2022-05-24T13:35:53Z</time>
      </trkpt>
      <trkpt lat="46.82625" lon="6.04139">
        <ele>838</ele>
        <time>2022-05-24T13:35:54Z</time>
      </trkpt>
      <trkpt lat="46.82628" lon="6.04135">
        <ele>838.4</ele>
        <time>2022-05-24T13:35:55Z</time>
      </trkpt>
      <trkpt lat="46.82631" lon="6.0413">
        <ele>838.6</ele>
        <time>2022-05-24T13:35:56Z</time>
      </trkpt>
      <trkpt lat="46.82634" lon="6.04127">
        <ele>839</ele>
        <time>2022-05-24T13:35:57Z</time>
      </trkpt>
      <trkpt lat="46.82638" lon="6.04123">
        <ele>839.2</ele>
        <time>2022-05-24T13:35:58Z</time>
      </trkpt>
      <trkpt lat="46.82641" lon="6.0412">
        <ele>839.4</ele>
        <time>2022-05-24T13:35:59Z</time>
      </trkpt>
      <trkpt lat="46.82645" lon="6.04117">
        <ele>839.4</ele>
        <time>2022-05-24T13:36:00Z</time>
      </trkpt>
      <trkpt lat="46.82648" lon="6.04113">
        <ele>839.8</ele>
        <time>2022-05-24T13:36:01Z</time>
      </trkpt>
      <trkpt lat="46.82652" lon="6.0411">
        <ele>839.8</ele>
        <time>2022-05-24T13:36:02Z</time>
      </trkpt>
      <trkpt lat="46.82656" lon="6.04106">
        <ele>840</ele>
        <time>2022-05-24T13:36:03Z</time>
      </trkpt>
      <trkpt lat="46.8266" lon="6.04102">
        <ele>840.2</ele>
        <time>2022-05-24T13:36:04Z</time>
      </trkpt>
      <trkpt lat="46.82664" lon="6.04098">
        <ele>840.2</ele>
        <time>2022-05-24T13:36:05Z</time>
      </trkpt>
      <trkpt lat="46.82668" lon="6.04094">
        <ele>840.2</ele>
        <time>2022-05-24T13:36:06Z</time>
      </trkpt>
      <trkpt lat="46.82672" lon="6.0409">
        <ele>840.2</ele>
        <time>2022-05-24T13:36:07Z</time>
      </trkpt>
      <trkpt lat="46.82676" lon="6.04086">
        <ele>840.4</ele>
        <time>2022-05-24T13:36:08Z</time>
      </trkpt>
      <trkpt lat="46.82681" lon="6.04081">
        <ele>840.4</ele>
        <time>2022-05-24T13:36:09Z</time>
      </trkpt>
      <trkpt lat="46.82685" lon="6.04077">
        <ele>840.4</ele>
        <time>2022-05-24T13:36:10Z</time>
      </trkpt>
      <trkpt lat="46.82689" lon="6.04072">
        <ele>840.4</ele>
        <time>2022-05-24T13:36:11Z</time>
      </trkpt>
      <trkpt lat="46.82693" lon="6.04067">
        <ele>840.4</ele>
        <time>2022-05-24T13:36:12Z</time>
      </trkpt>
      <trkpt lat="46.82697" lon="6.04063">
        <ele>840.4</ele>
        <time>2022-05-24T13:36:13Z</time>
      </trkpt>
      <trkpt lat="46.82701" lon="6.04058">
        <ele>840.4</ele>
        <time>2022-05-24T13:36:14Z</time>
      </trkpt>
      <trkpt lat="46.82704" lon="6.04053">
        <ele>840.6</ele>
        <time>2022-05-24T13:36:15Z</time>
      </trkpt>
      <trkpt lat="46.82708" lon="6.04048">
        <ele>840.6</ele>
        <time>2022-05-24T13:36:16Z</time>
      </trkpt>
      <trkpt lat="46.82712" lon="6.04042">
        <ele>840.6</ele>
        <time>2022-05-24T13:36:17Z</time>
      </trkpt>
      <trkpt lat="46.82716" lon="6.04036">
        <ele>840.6</ele>
        <time>2022-05-24T13:36:18Z</time>
      </trkpt>
      <trkpt lat="46.8272" lon="6.0403">
        <ele>840.6</ele>
        <time>2022-05-24T13:36:19Z</time>
      </trkpt>
      <trkpt lat="46.82724" lon="6.04024">
        <ele>840.6</ele>
        <time>2022-05-24T13:36:20Z</time>
      </trkpt>
      <trkpt lat="46.82729" lon="6.04017">
        <ele>840.6</ele>
        <time>2022-05-24T13:36:21Z</time>
      </trkpt>
      <trkpt lat="46.82734" lon="6.0401">
        <ele>840.6</ele>
        <time>2022-05-24T13:36:22Z</time>
      </trkpt>
      <trkpt lat="46.82738" lon="6.04003">
        <ele>840.6</ele>
        <time>2022-05-24T13:36:23Z</time>
      </trkpt>
      <trkpt lat="46.82743" lon="6.03996">
        <ele>840.4</ele>
        <time>2022-05-24T13:36:24Z</time>
      </trkpt>
      <trkpt lat="46.82748" lon="6.03989">
        <ele>840.4</ele>
        <time>2022-05-24T13:36:25Z</time>
      </trkpt>
      <trkpt lat="46.82753" lon="6.03981">
        <ele>840.4</ele>
        <time>2022-05-24T13:36:26Z</time>
      </trkpt>
      <trkpt lat="46.82758" lon="6.03974">
        <ele>840.4</ele>
        <time>2022-05-24T13:36:27Z</time>
      </trkpt>
      <trkpt lat="46.82763" lon="6.03967">
        <ele>840.4</ele>
        <time>2022-05-24T13:36:28Z</time>
      </trkpt>
      <trkpt lat="46.82768" lon="6.03959">
        <ele>840</ele>
        <time>2022-05-24T13:36:29Z</time>
      </trkpt>
      <trkpt lat="46.82773" lon="6.03952">
        <ele>840</ele>
        <time>2022-05-24T13:36:30Z</time>
      </trkpt>
      <trkpt lat="46.82778" lon="6.03944">
        <ele>839.8</ele>
        <time>2022-05-24T13:36:31Z</time>
      </trkpt>
      <trkpt lat="46.82782" lon="6.03937">
        <ele>839.8</ele>
        <time>2022-05-24T13:36:32Z</time>
      </trkpt>
      <trkpt lat="46.82787" lon="6.03929">
        <ele>839.6</ele>
        <time>2022-05-24T13:36:33Z</time>
      </trkpt>
      <trkpt lat="46.82792" lon="6.03922">
        <ele>839.6</ele>
        <time>2022-05-24T13:36:34Z</time>
      </trkpt>
      <trkpt lat="46.82797" lon="6.03914">
        <ele>839.6</ele>
        <time>2022-05-24T13:36:35Z</time>
      </trkpt>
      <trkpt lat="46.82801" lon="6.03908">
        <ele>839.4</ele>
        <time>2022-05-24T13:36:36Z</time>
      </trkpt>
      <trkpt lat="46.82806" lon="6.03901">
        <ele>839.4</ele>
        <time>2022-05-24T13:36:37Z</time>
      </trkpt>
      <trkpt lat="46.82811" lon="6.03894">
        <ele>839.4</ele>
        <time>2022-05-24T13:36:38Z</time>
      </trkpt>
      <trkpt lat="46.82815" lon="6.03888">
        <ele>839.4</ele>
        <time>2022-05-24T13:36:39Z</time>
      </trkpt>
      <trkpt lat="46.82819" lon="6.03881">
        <ele>839</ele>
        <time>2022-05-24T13:36:40Z</time>
      </trkpt>
      <trkpt lat="46.82824" lon="6.03875">
        <ele>839</ele>
        <time>2022-05-24T13:36:41Z</time>
      </trkpt>
      <trkpt lat="46.82828" lon="6.03869">
        <ele>838.8</ele>
        <time>2022-05-24T13:36:42Z</time>
      </trkpt>
      <trkpt lat="46.82832" lon="6.03862">
        <ele>838.8</ele>
        <time>2022-05-24T13:36:43Z</time>
      </trkpt>
      <trkpt lat="46.82836" lon="6.03855">
        <ele>838.8</ele>
        <time>2022-05-24T13:36:44Z</time>
      </trkpt>
      <trkpt lat="46.82841" lon="6.03849">
        <ele>838.8</ele>
        <time>2022-05-24T13:36:45Z</time>
      </trkpt>
      <trkpt lat="46.82845" lon="6.03842">
        <ele>838.8</ele>
        <time>2022-05-24T13:36:46Z</time>
      </trkpt>
      <trkpt lat="46.8285" lon="6.03835">
        <ele>838.8</ele>
        <time>2022-05-24T13:36:47Z</time>
      </trkpt>
      <trkpt lat="46.82854" lon="6.03827">
        <ele>838.8</ele>
        <time>2022-05-24T13:36:48Z</time>
      </trkpt>
      <trkpt lat="46.82859" lon="6.0382">
        <ele>838.8</ele>
        <time>2022-05-24T13:36:49Z</time>
      </trkpt>
      <trkpt lat="46.82864" lon="6.03813">
        <ele>838.8</ele>
        <time>2022-05-24T13:36:50Z</time>
      </trkpt>
      <trkpt lat="46.82869" lon="6.03805">
        <ele>838.4</ele>
        <time>2022-05-24T13:36:51Z</time>
      </trkpt>
      <trkpt lat="46.82874" lon="6.03798">
        <ele>838.2</ele>
        <time>2022-05-24T13:36:52Z</time>
      </trkpt>
      <trkpt lat="46.82879" lon="6.0379">
        <ele>838</ele>
        <time>2022-05-24T13:36:53Z</time>
      </trkpt>
      <trkpt lat="46.82884" lon="6.03783">
        <ele>838</ele>
        <time>2022-05-24T13:36:54Z</time>
      </trkpt>
      <trkpt lat="46.82889" lon="6.03774">
        <ele>837.4</ele>
        <time>2022-05-24T13:36:55Z</time>
      </trkpt>
      <trkpt lat="46.82895" lon="6.03766">
        <ele>837.2</ele>
        <time>2022-05-24T13:36:56Z</time>
      </trkpt>
      <trkpt lat="46.829" lon="6.03758">
        <ele>837</ele>
        <time>2022-05-24T13:36:57Z</time>
      </trkpt>
      <trkpt lat="46.82906" lon="6.03749">
        <ele>836.8</ele>
        <time>2022-05-24T13:36:58Z</time>
      </trkpt>
      <trkpt lat="46.82911" lon="6.03741">
        <ele>836.8</ele>
        <time>2022-05-24T13:36:59Z</time>
      </trkpt>
      <trkpt lat="46.82916" lon="6.03733">
        <ele>836.4</ele>
        <time>2022-05-24T13:37:00Z</time>
      </trkpt>
      <trkpt lat="46.82921" lon="6.03725">
        <ele>836.4</ele>
        <time>2022-05-24T13:37:01Z</time>
      </trkpt>
      <trkpt lat="46.82926" lon="6.03717">
        <ele>836</ele>
        <time>2022-05-24T13:37:02Z</time>
      </trkpt>
      <trkpt lat="46.82931" lon="6.0371">
        <ele>836</ele>
        <time>2022-05-24T13:37:03Z</time>
      </trkpt>
      <trkpt lat="46.82936" lon="6.03703">
        <ele>836</ele>
        <time>2022-05-24T13:37:04Z</time>
      </trkpt>
      <trkpt lat="46.8294" lon="6.03697">
        <ele>836.4</ele>
        <time>2022-05-24T13:37:05Z</time>
      </trkpt>
      <trkpt lat="46.82944" lon="6.03691">
        <ele>836.4</ele>
        <time>2022-05-24T13:37:06Z</time>
      </trkpt>
      <trkpt lat="46.82948" lon="6.03685">
        <ele>836.4</ele>
        <time>2022-05-24T13:37:07Z</time>
      </trkpt>
      <trkpt lat="46.82952" lon="6.0368">
        <ele>836.6</ele>
        <time>2022-05-24T13:37:08Z</time>
      </trkpt>
      <trkpt lat="46.82955" lon="6.03675">
        <ele>837</ele>
        <time>2022-05-24T13:37:09Z</time>
      </trkpt>
      <trkpt lat="46.82958" lon="6.0367">
        <ele>837.4</ele>
        <time>2022-05-24T13:37:10Z</time>
      </trkpt>
      <trkpt lat="46.82958" lon="6.0367">
        <ele>837.6</ele>
        <time>2022-05-24T13:37:11Z</time>
      </trkpt>
      <trkpt lat="46.82961" lon="6.03665">
        <ele>838</ele>
        <time>2022-05-24T13:37:12Z</time>
      </trkpt>
      <trkpt lat="46.82964" lon="6.03661">
        <ele>838</ele>
        <time>2022-05-24T13:37:13Z</time>
      </trkpt>
      <trkpt lat="46.82967" lon="6.03657">
        <ele>838.4</ele>
        <time>2022-05-24T13:37:14Z</time>
      </trkpt>
      <trkpt lat="46.8297" lon="6.03652">
        <ele>838.4</ele>
        <time>2022-05-24T13:37:15Z</time>
      </trkpt>
      <trkpt lat="46.82973" lon="6.03647">
        <ele>838.6</ele>
        <time>2022-05-24T13:37:16Z</time>
      </trkpt>
      <trkpt lat="46.82976" lon="6.03643">
        <ele>838.6</ele>
        <time>2022-05-24T13:37:17Z</time>
      </trkpt>
      <trkpt lat="46.82979" lon="6.03638">
        <ele>839</ele>
        <time>2022-05-24T13:37:18Z</time>
      </trkpt>
      <trkpt lat="46.82982" lon="6.03633">
        <ele>839</ele>
        <time>2022-05-24T13:37:19Z</time>
      </trkpt>
      <trkpt lat="46.82986" lon="6.03628">
        <ele>839</ele>
        <time>2022-05-24T13:37:20Z</time>
      </trkpt>
      <trkpt lat="46.82989" lon="6.03622">
        <ele>839</ele>
        <time>2022-05-24T13:37:21Z</time>
      </trkpt>
      <trkpt lat="46.82992" lon="6.03617">
        <ele>839.2</ele>
        <time>2022-05-24T13:37:22Z</time>
      </trkpt>
      <trkpt lat="46.82995" lon="6.0361">
        <ele>839.2</ele>
        <time>2022-05-24T13:37:23Z</time>
      </trkpt>
      <trkpt lat="46.82998" lon="6.03605">
        <ele>839.2</ele>
        <time>2022-05-24T13:37:24Z</time>
      </trkpt>
      <trkpt lat="46.83002" lon="6.03599">
        <ele>839.4</ele>
        <time>2022-05-24T13:37:25Z</time>
      </trkpt>
      <trkpt lat="46.83005" lon="6.03593">
        <ele>839.4</ele>
        <time>2022-05-24T13:37:26Z</time>
      </trkpt>
      <trkpt lat="46.83008" lon="6.03587">
        <ele>839.6</ele>
        <time>2022-05-24T13:37:27Z</time>
      </trkpt>
      <trkpt lat="46.8301" lon="6.03581">
        <ele>839.6</ele>
        <time>2022-05-24T13:37:28Z</time>
      </trkpt>
      <trkpt lat="46.83013" lon="6.03575">
        <ele>840</ele>
        <time>2022-05-24T13:37:29Z</time>
      </trkpt>
      <trkpt lat="46.83016" lon="6.03569">
        <ele>840</ele>
        <time>2022-05-24T13:37:30Z</time>
      </trkpt>
      <trkpt lat="46.83018" lon="6.03564">
        <ele>840.4</ele>
        <time>2022-05-24T13:37:31Z</time>
      </trkpt>
      <trkpt lat="46.83021" lon="6.03558">
        <ele>840.4</ele>
        <time>2022-05-24T13:37:32Z</time>
      </trkpt>
      <trkpt lat="46.83024" lon="6.03552">
        <ele>840.8</ele>
        <time>2022-05-24T13:37:33Z</time>
      </trkpt>
      <trkpt lat="46.83027" lon="6.03546">
        <ele>840.8</ele>
        <time>2022-05-24T13:37:34Z</time>
      </trkpt>
      <trkpt lat="46.83029" lon="6.0354">
        <ele>841.2</ele>
        <time>2022-05-24T13:37:35Z</time>
      </trkpt>
      <trkpt lat="46.83032" lon="6.03534">
        <ele>841.4</ele>
        <time>2022-05-24T13:37:36Z</time>
      </trkpt>
      <trkpt lat="46.83034" lon="6.03528">
        <ele>841.8</ele>
        <time>2022-05-24T13:37:37Z</time>
      </trkpt>
      <trkpt lat="46.83037" lon="6.03523">
        <ele>842</ele>
        <time>2022-05-24T13:37:38Z</time>
      </trkpt>
      <trkpt lat="46.8304" lon="6.03517">
        <ele>842.4</ele>
        <time>2022-05-24T13:37:39Z</time>
      </trkpt>
      <trkpt lat="46.83042" lon="6.03512">
        <ele>842.6</ele>
        <time>2022-05-24T13:37:40Z</time>
      </trkpt>
      <trkpt lat="46.83044" lon="6.03506">
        <ele>843</ele>
        <time>2022-05-24T13:37:41Z</time>
      </trkpt>
      <trkpt lat="46.83046" lon="6.035">
        <ele>843.4</ele>
        <time>2022-05-24T13:37:42Z</time>
      </trkpt>
      <trkpt lat="46.83048" lon="6.03495">
        <ele>843.8</ele>
        <time>2022-05-24T13:37:43Z</time>
      </trkpt>
      <trkpt lat="46.8305" lon="6.03489">
        <ele>844</ele>
        <time>2022-05-24T13:37:44Z</time>
      </trkpt>
      <trkpt lat="46.83051" lon="6.03484">
        <ele>844.4</ele>
        <time>2022-05-24T13:37:45Z</time>
      </trkpt>
      <trkpt lat="46.83053" lon="6.03479">
        <ele>844.6</ele>
        <time>2022-05-24T13:37:46Z</time>
      </trkpt>
      <trkpt lat="46.83054" lon="6.03474">
        <ele>844.6</ele>
        <time>2022-05-24T13:37:47Z</time>
      </trkpt>
      <trkpt lat="46.83056" lon="6.03468">
        <ele>845.4</ele>
        <time>2022-05-24T13:37:48Z</time>
      </trkpt>
      <trkpt lat="46.83057" lon="6.03463">
        <ele>845.6</ele>
        <time>2022-05-24T13:37:49Z</time>
      </trkpt>
      <trkpt lat="46.83058" lon="6.03458">
        <ele>846</ele>
        <time>2022-05-24T13:37:50Z</time>
      </trkpt>
      <trkpt lat="46.83059" lon="6.03453">
        <ele>846</ele>
        <time>2022-05-24T13:37:51Z</time>
      </trkpt>
      <trkpt lat="46.83061" lon="6.03448">
        <ele>846.4</ele>
        <time>2022-05-24T13:37:52Z</time>
      </trkpt>
      <trkpt lat="46.83062" lon="6.03443">
        <ele>846.4</ele>
        <time>2022-05-24T13:37:53Z</time>
      </trkpt>
      <trkpt lat="46.83063" lon="6.03437">
        <ele>846.4</ele>
        <time>2022-05-24T13:37:54Z</time>
      </trkpt>
      <trkpt lat="46.83065" lon="6.03431">
        <ele>846.4</ele>
        <time>2022-05-24T13:37:55Z</time>
      </trkpt>
      <trkpt lat="46.83066" lon="6.03425">
        <ele>846.6</ele>
        <time>2022-05-24T13:37:56Z</time>
      </trkpt>
      <trkpt lat="46.83071" lon="6.03411">
        <ele>846.6</ele>
        <time>2022-05-24T13:37:57Z</time>
      </trkpt>
      <trkpt lat="46.83074" lon="6.03404">
        <ele>846.6</ele>
        <time>2022-05-24T13:37:58Z</time>
      </trkpt>
      <trkpt lat="46.83077" lon="6.03397">
        <ele>846.6</ele>
        <time>2022-05-24T13:37:59Z</time>
      </trkpt>
      <trkpt lat="46.8308" lon="6.03389">
        <ele>846.4</ele>
        <time>2022-05-24T13:38:00Z</time>
      </trkpt>
      <trkpt lat="46.83084" lon="6.03382">
        <ele>846.4</ele>
        <time>2022-05-24T13:38:01Z</time>
      </trkpt>
      <trkpt lat="46.83088" lon="6.03374">
        <ele>846.2</ele>
        <time>2022-05-24T13:38:02Z</time>
      </trkpt>
      <trkpt lat="46.83092" lon="6.03367">
        <ele>846.2</ele>
        <time>2022-05-24T13:38:03Z</time>
      </trkpt>
      <trkpt lat="46.83096" lon="6.03361">
        <ele>846.2</ele>
        <time>2022-05-24T13:38:04Z</time>
      </trkpt>
      <trkpt lat="46.831" lon="6.03354">
        <ele>846.2</ele>
        <time>2022-05-24T13:38:05Z</time>
      </trkpt>
      <trkpt lat="46.83104" lon="6.03348">
        <ele>846.2</ele>
        <time>2022-05-24T13:38:06Z</time>
      </trkpt>
      <trkpt lat="46.83108" lon="6.03342">
        <ele>846.2</ele>
        <time>2022-05-24T13:38:07Z</time>
      </trkpt>
      <trkpt lat="46.83113" lon="6.03336">
        <ele>846.4</ele>
        <time>2022-05-24T13:38:08Z</time>
      </trkpt>
      <trkpt lat="46.83116" lon="6.0333">
        <ele>846.4</ele>
        <time>2022-05-24T13:38:09Z</time>
      </trkpt>
      <trkpt lat="46.8312" lon="6.03324">
        <ele>846.6</ele>
        <time>2022-05-24T13:38:10Z</time>
      </trkpt>
      <trkpt lat="46.83123" lon="6.03317">
        <ele>846.6</ele>
        <time>2022-05-24T13:38:11Z</time>
      </trkpt>
      <trkpt lat="46.83126" lon="6.03312">
        <ele>846.8</ele>
        <time>2022-05-24T13:38:12Z</time>
      </trkpt>
      <trkpt lat="46.83129" lon="6.03305">
        <ele>846.8</ele>
        <time>2022-05-24T13:38:13Z</time>
      </trkpt>
      <trkpt lat="46.83132" lon="6.033">
        <ele>847.2</ele>
        <time>2022-05-24T13:38:14Z</time>
      </trkpt>
      <trkpt lat="46.83134" lon="6.03295">
        <ele>847.2</ele>
        <time>2022-05-24T13:38:15Z</time>
      </trkpt>
      <trkpt lat="46.83135" lon="6.0329">
        <ele>847.4</ele>
        <time>2022-05-24T13:38:16Z</time>
      </trkpt>
      <trkpt lat="46.83139" lon="6.03281">
        <ele>847.4</ele>
        <time>2022-05-24T13:38:17Z</time>
      </trkpt>
      <trkpt lat="46.83141" lon="6.03274">
        <ele>847.4</ele>
        <time>2022-05-24T13:38:18Z</time>
      </trkpt>
      <trkpt lat="46.83143" lon="6.03267">
        <ele>847.4</ele>
        <time>2022-05-24T13:38:19Z</time>
      </trkpt>
      <trkpt lat="46.83144" lon="6.03259">
        <ele>847.8</ele>
        <time>2022-05-24T13:38:20Z</time>
      </trkpt>
      <trkpt lat="46.83145" lon="6.03251">
        <ele>847.8</ele>
        <time>2022-05-24T13:38:21Z</time>
      </trkpt>
      <trkpt lat="46.83146" lon="6.03242">
        <ele>848</ele>
        <time>2022-05-24T13:38:22Z</time>
      </trkpt>
      <trkpt lat="46.83147" lon="6.03233">
        <ele>848</ele>
        <time>2022-05-24T13:38:23Z</time>
      </trkpt>
      <trkpt lat="46.83148" lon="6.03224">
        <ele>848</ele>
        <time>2022-05-24T13:38:24Z</time>
      </trkpt>
      <trkpt lat="46.83148" lon="6.03214">
        <ele>848</ele>
        <time>2022-05-24T13:38:25Z</time>
      </trkpt>
      <trkpt lat="46.83149" lon="6.03203">
        <ele>848</ele>
        <time>2022-05-24T13:38:26Z</time>
      </trkpt>
      <trkpt lat="46.83149" lon="6.03193">
        <ele>848</ele>
        <time>2022-05-24T13:38:27Z</time>
      </trkpt>
      <trkpt lat="46.83149" lon="6.03182">
        <ele>848.2</ele>
        <time>2022-05-24T13:38:28Z</time>
      </trkpt>
      <trkpt lat="46.83148" lon="6.03172">
        <ele>848.2</ele>
        <time>2022-05-24T13:38:29Z</time>
      </trkpt>
      <trkpt lat="46.83148" lon="6.03161">
        <ele>848.2</ele>
        <time>2022-05-24T13:38:30Z</time>
      </trkpt>
      <trkpt lat="46.83147" lon="6.0315">
        <ele>848.2</ele>
        <time>2022-05-24T13:38:31Z</time>
      </trkpt>
      <trkpt lat="46.83146" lon="6.03139">
        <ele>848.2</ele>
        <time>2022-05-24T13:38:32Z</time>
      </trkpt>
      <trkpt lat="46.83145" lon="6.03128">
        <ele>848.2</ele>
        <time>2022-05-24T13:38:33Z</time>
      </trkpt>
      <trkpt lat="46.83144" lon="6.03116">
        <ele>848.2</ele>
        <time>2022-05-24T13:38:34Z</time>
      </trkpt>
      <trkpt lat="46.83143" lon="6.03105">
        <ele>848</ele>
        <time>2022-05-24T13:38:35Z</time>
      </trkpt>
      <trkpt lat="46.83143" lon="6.03094">
        <ele>848</ele>
        <time>2022-05-24T13:38:36Z</time>
      </trkpt>
      <trkpt lat="46.83142" lon="6.03082">
        <ele>848</ele>
        <time>2022-05-24T13:38:37Z</time>
      </trkpt>
      <trkpt lat="46.83141" lon="6.03072">
        <ele>848</ele>
        <time>2022-05-24T13:38:38Z</time>
      </trkpt>
      <trkpt lat="46.8314" lon="6.03062">
        <ele>848.2</ele>
        <time>2022-05-24T13:38:39Z</time>
      </trkpt>
      <trkpt lat="46.83139" lon="6.03052">
        <ele>848.4</ele>
        <time>2022-05-24T13:38:40Z</time>
      </trkpt>
      <trkpt lat="46.83138" lon="6.03043">
        <ele>848.4</ele>
        <time>2022-05-24T13:38:41Z</time>
      </trkpt>
      <trkpt lat="46.83138" lon="6.03034">
        <ele>848.8</ele>
        <time>2022-05-24T13:38:42Z</time>
      </trkpt>
      <trkpt lat="46.83137" lon="6.03027">
        <ele>849</ele>
        <time>2022-05-24T13:38:43Z</time>
      </trkpt>
      <trkpt lat="46.83137" lon="6.03019">
        <ele>849</ele>
        <time>2022-05-24T13:38:44Z</time>
      </trkpt>
      <trkpt lat="46.83136" lon="6.03012">
        <ele>849.4</ele>
        <time>2022-05-24T13:38:45Z</time>
      </trkpt>
      <trkpt lat="46.83135" lon="6.03004">
        <ele>849.6</ele>
        <time>2022-05-24T13:38:46Z</time>
      </trkpt>
      <trkpt lat="46.83134" lon="6.02997">
        <ele>849.8</ele>
        <time>2022-05-24T13:38:47Z</time>
      </trkpt>
      <trkpt lat="46.83134" lon="6.02989">
        <ele>850.2</ele>
        <time>2022-05-24T13:38:48Z</time>
      </trkpt>
      <trkpt lat="46.83133" lon="6.02981">
        <ele>850.2</ele>
        <time>2022-05-24T13:38:49Z</time>
      </trkpt>
      <trkpt lat="46.83132" lon="6.02973">
        <ele>850.6</ele>
        <time>2022-05-24T13:38:50Z</time>
      </trkpt>
      <trkpt lat="46.83132" lon="6.02965">
        <ele>850.8</ele>
        <time>2022-05-24T13:38:51Z</time>
      </trkpt>
      <trkpt lat="46.83132" lon="6.02957">
        <ele>851</ele>
        <time>2022-05-24T13:38:52Z</time>
      </trkpt>
      <trkpt lat="46.83131" lon="6.02949">
        <ele>851.4</ele>
        <time>2022-05-24T13:38:53Z</time>
      </trkpt>
      <trkpt lat="46.83131" lon="6.0294">
        <ele>851.4</ele>
        <time>2022-05-24T13:38:54Z</time>
      </trkpt>
      <trkpt lat="46.83131" lon="6.02932">
        <ele>851.6</ele>
        <time>2022-05-24T13:38:55Z</time>
      </trkpt>
      <trkpt lat="46.83131" lon="6.02924">
        <ele>851.6</ele>
        <time>2022-05-24T13:38:56Z</time>
      </trkpt>
      <trkpt lat="46.8313" lon="6.02916">
        <ele>851.8</ele>
        <time>2022-05-24T13:38:57Z</time>
      </trkpt>
      <trkpt lat="46.8313" lon="6.02907">
        <ele>851.8</ele>
        <time>2022-05-24T13:38:58Z</time>
      </trkpt>
      <trkpt lat="46.8313" lon="6.02899">
        <ele>852</ele>
        <time>2022-05-24T13:38:59Z</time>
      </trkpt>
      <trkpt lat="46.8313" lon="6.0289">
        <ele>852</ele>
        <time>2022-05-24T13:39:00Z</time>
      </trkpt>
      <trkpt lat="46.8313" lon="6.02882">
        <ele>852</ele>
        <time>2022-05-24T13:39:01Z</time>
      </trkpt>
      <trkpt lat="46.83131" lon="6.02874">
        <ele>852</ele>
        <time>2022-05-24T13:39:02Z</time>
      </trkpt>
      <trkpt lat="46.83131" lon="6.02865">
        <ele>852</ele>
        <time>2022-05-24T13:39:03Z</time>
      </trkpt>
      <trkpt lat="46.83132" lon="6.02857">
        <ele>852</ele>
        <time>2022-05-24T13:39:04Z</time>
      </trkpt>
      <trkpt lat="46.83133" lon="6.02849">
        <ele>852.4</ele>
        <time>2022-05-24T13:39:05Z</time>
      </trkpt>
      <trkpt lat="46.83135" lon="6.0284">
        <ele>852.4</ele>
        <time>2022-05-24T13:39:06Z</time>
      </trkpt>
      <trkpt lat="46.83136" lon="6.02831">
        <ele>852.4</ele>
        <time>2022-05-24T13:39:07Z</time>
      </trkpt>
      <trkpt lat="46.83137" lon="6.02823">
        <ele>852.4</ele>
        <time>2022-05-24T13:39:08Z</time>
      </trkpt>
      <trkpt lat="46.83138" lon="6.02813">
        <ele>852.4</ele>
        <time>2022-05-24T13:39:09Z</time>
      </trkpt>
      <trkpt lat="46.8314" lon="6.02804">
        <ele>852.4</ele>
        <time>2022-05-24T13:39:10Z</time>
      </trkpt>
      <trkpt lat="46.83141" lon="6.02793">
        <ele>852.4</ele>
        <time>2022-05-24T13:39:11Z</time>
      </trkpt>
      <trkpt lat="46.83142" lon="6.02783">
        <ele>852</ele>
        <time>2022-05-24T13:39:12Z</time>
      </trkpt>
      <trkpt lat="46.83144" lon="6.02772">
        <ele>852</ele>
        <time>2022-05-24T13:39:13Z</time>
      </trkpt>
      <trkpt lat="46.83145" lon="6.02761">
        <ele>851.6</ele>
        <time>2022-05-24T13:39:14Z</time>
      </trkpt>
      <trkpt lat="46.83147" lon="6.02751">
        <ele>851.6</ele>
        <time>2022-05-24T13:39:15Z</time>
      </trkpt>
      <trkpt lat="46.83148" lon="6.02741">
        <ele>851.4</ele>
        <time>2022-05-24T13:39:16Z</time>
      </trkpt>
      <trkpt lat="46.8315" lon="6.0273">
        <ele>851.4</ele>
        <time>2022-05-24T13:39:17Z</time>
      </trkpt>
      <trkpt lat="46.83152" lon="6.0272">
        <ele>851.4</ele>
        <time>2022-05-24T13:39:18Z</time>
      </trkpt>
      <trkpt lat="46.83153" lon="6.02711">
        <ele>851.4</ele>
        <time>2022-05-24T13:39:19Z</time>
      </trkpt>
      <trkpt lat="46.83155" lon="6.02701">
        <ele>851.4</ele>
        <time>2022-05-24T13:39:20Z</time>
      </trkpt>
      <trkpt lat="46.83156" lon="6.02693">
        <ele>851.6</ele>
        <time>2022-05-24T13:39:21Z</time>
      </trkpt>
      <trkpt lat="46.83158" lon="6.02684">
        <ele>851.6</ele>
        <time>2022-05-24T13:39:22Z</time>
      </trkpt>
      <trkpt lat="46.83159" lon="6.02676">
        <ele>852</ele>
        <time>2022-05-24T13:39:23Z</time>
      </trkpt>
      <trkpt lat="46.83161" lon="6.02669">
        <ele>852.2</ele>
        <time>2022-05-24T13:39:24Z</time>
      </trkpt>
      <trkpt lat="46.83162" lon="6.02661">
        <ele>852.2</ele>
        <time>2022-05-24T13:39:25Z</time>
      </trkpt>
      <trkpt lat="46.83164" lon="6.02653">
        <ele>852.6</ele>
        <time>2022-05-24T13:39:26Z</time>
      </trkpt>
      <trkpt lat="46.83165" lon="6.02645">
        <ele>852.6</ele>
        <time>2022-05-24T13:39:27Z</time>
      </trkpt>
      <trkpt lat="46.83167" lon="6.02638">
        <ele>852.8</ele>
        <time>2022-05-24T13:39:28Z</time>
      </trkpt>
      <trkpt lat="46.83169" lon="6.0263">
        <ele>852.8</ele>
        <time>2022-05-24T13:39:29Z</time>
      </trkpt>
      <trkpt lat="46.83172" lon="6.02623">
        <ele>853.2</ele>
        <time>2022-05-24T13:39:30Z</time>
      </trkpt>
      <trkpt lat="46.83174" lon="6.02615">
        <ele>853.2</ele>
        <time>2022-05-24T13:39:31Z</time>
      </trkpt>
      <trkpt lat="46.83174" lon="6.02615">
        <ele>853.4</ele>
        <time>2022-05-24T13:39:32Z</time>
      </trkpt>
      <trkpt lat="46.83176" lon="6.02608">
        <ele>853.4</ele>
        <time>2022-05-24T13:39:33Z</time>
      </trkpt>
      <trkpt lat="46.83179" lon="6.02601">
        <ele>853.6</ele>
        <time>2022-05-24T13:39:34Z</time>
      </trkpt>
      <trkpt lat="46.83181" lon="6.02594">
        <ele>853.8</ele>
        <time>2022-05-24T13:39:35Z</time>
      </trkpt>
      <trkpt lat="46.83184" lon="6.02586">
        <ele>854.2</ele>
        <time>2022-05-24T13:39:36Z</time>
      </trkpt>
      <trkpt lat="46.83186" lon="6.02579">
        <ele>854.4</ele>
        <time>2022-05-24T13:39:37Z</time>
      </trkpt>
      <trkpt lat="46.83189" lon="6.02573">
        <ele>855.2</ele>
        <time>2022-05-24T13:39:38Z</time>
      </trkpt>
      <trkpt lat="46.83192" lon="6.02566">
        <ele>855.4</ele>
        <time>2022-05-24T13:39:39Z</time>
      </trkpt>
      <trkpt lat="46.83194" lon="6.0256">
        <ele>855.6</ele>
        <time>2022-05-24T13:39:40Z</time>
      </trkpt>
      <trkpt lat="46.83196" lon="6.02554">
        <ele>855.6</ele>
        <time>2022-05-24T13:39:41Z</time>
      </trkpt>
      <trkpt lat="46.83199" lon="6.02548">
        <ele>856.2</ele>
        <time>2022-05-24T13:39:42Z</time>
      </trkpt>
      <trkpt lat="46.83201" lon="6.02542">
        <ele>856.6</ele>
        <time>2022-05-24T13:39:43Z</time>
      </trkpt>
      <trkpt lat="46.83203" lon="6.02536">
        <ele>857</ele>
        <time>2022-05-24T13:39:44Z</time>
      </trkpt>
      <trkpt lat="46.83206" lon="6.0253">
        <ele>857.4</ele>
        <time>2022-05-24T13:39:45Z</time>
      </trkpt>
      <trkpt lat="46.83208" lon="6.02524">
        <ele>857.6</ele>
        <time>2022-05-24T13:39:46Z</time>
      </trkpt>
      <trkpt lat="46.8321" lon="6.02518">
        <ele>858.2</ele>
        <time>2022-05-24T13:39:47Z</time>
      </trkpt>
      <trkpt lat="46.83213" lon="6.02512">
        <ele>858.4</ele>
        <time>2022-05-24T13:39:48Z</time>
      </trkpt>
      <trkpt lat="46.83215" lon="6.02507">
        <ele>858.8</ele>
        <time>2022-05-24T13:39:49Z</time>
      </trkpt>
      <trkpt lat="46.83218" lon="6.02501">
        <ele>859</ele>
        <time>2022-05-24T13:39:50Z</time>
      </trkpt>
      <trkpt lat="46.83221" lon="6.02496">
        <ele>859.2</ele>
        <time>2022-05-24T13:39:51Z</time>
      </trkpt>
      <trkpt lat="46.83223" lon="6.0249">
        <ele>859.4</ele>
        <time>2022-05-24T13:39:52Z</time>
      </trkpt>
      <trkpt lat="46.83225" lon="6.02485">
        <ele>859.4</ele>
        <time>2022-05-24T13:39:53Z</time>
      </trkpt>
      <trkpt lat="46.83228" lon="6.02479">
        <ele>859.4</ele>
        <time>2022-05-24T13:39:54Z</time>
      </trkpt>
      <trkpt lat="46.83231" lon="6.02473">
        <ele>859.8</ele>
        <time>2022-05-24T13:39:55Z</time>
      </trkpt>
      <trkpt lat="46.83233" lon="6.02467">
        <ele>859.8</ele>
        <time>2022-05-24T13:39:56Z</time>
      </trkpt>
      <trkpt lat="46.83236" lon="6.0246">
        <ele>859.8</ele>
        <time>2022-05-24T13:39:57Z</time>
      </trkpt>
      <trkpt lat="46.83239" lon="6.02454">
        <ele>859.8</ele>
        <time>2022-05-24T13:39:58Z</time>
      </trkpt>
      <trkpt lat="46.83242" lon="6.02447">
        <ele>859.8</ele>
        <time>2022-05-24T13:39:59Z</time>
      </trkpt>
      <trkpt lat="46.83245" lon="6.02439">
        <ele>859.6</ele>
        <time>2022-05-24T13:40:00Z</time>
      </trkpt>
      <trkpt lat="46.83248" lon="6.02432">
        <ele>859.6</ele>
        <time>2022-05-24T13:40:01Z</time>
      </trkpt>
      <trkpt lat="46.83252" lon="6.02424">
        <ele>859.4</ele>
        <time>2022-05-24T13:40:02Z</time>
      </trkpt>
      <trkpt lat="46.83256" lon="6.02415">
        <ele>859</ele>
        <time>2022-05-24T13:40:03Z</time>
      </trkpt>
      <trkpt lat="46.8326" lon="6.02407">
        <ele>859</ele>
        <time>2022-05-24T13:40:04Z</time>
      </trkpt>
      <trkpt lat="46.83264" lon="6.02398">
        <ele>858.8</ele>
        <time>2022-05-24T13:40:05Z</time>
      </trkpt>
      <trkpt lat="46.83268" lon="6.02388">
        <ele>858.8</ele>
        <time>2022-05-24T13:40:06Z</time>
      </trkpt>
      <trkpt lat="46.83272" lon="6.02379">
        <ele>858.6</ele>
        <time>2022-05-24T13:40:07Z</time>
      </trkpt>
      <trkpt lat="46.83276" lon="6.02369">
        <ele>858.6</ele>
        <time>2022-05-24T13:40:08Z</time>
      </trkpt>
      <trkpt lat="46.8328" lon="6.0236">
        <ele>858.2</ele>
        <time>2022-05-24T13:40:09Z</time>
      </trkpt>
      <trkpt lat="46.83284" lon="6.02351">
        <ele>858.2</ele>
        <time>2022-05-24T13:40:10Z</time>
      </trkpt>
      <trkpt lat="46.83288" lon="6.02342">
        <ele>858.2</ele>
        <time>2022-05-24T13:40:11Z</time>
      </trkpt>
      <trkpt lat="46.83291" lon="6.02331">
        <ele>857.8</ele>
        <time>2022-05-24T13:40:12Z</time>
      </trkpt>
      <trkpt lat="46.83294" lon="6.02321">
        <ele>857.6</ele>
        <time>2022-05-24T13:40:13Z</time>
      </trkpt>
      <trkpt lat="46.83297" lon="6.02309">
        <ele>857.2</ele>
        <time>2022-05-24T13:40:14Z</time>
      </trkpt>
      <trkpt lat="46.833" lon="6.02297">
        <ele>856.8</ele>
        <time>2022-05-24T13:40:15Z</time>
      </trkpt>
      <trkpt lat="46.83304" lon="6.02285">
        <ele>856.4</ele>
        <time>2022-05-24T13:40:16Z</time>
      </trkpt>
      <trkpt lat="46.83307" lon="6.02272">
        <ele>856</ele>
        <time>2022-05-24T13:40:17Z</time>
      </trkpt>
      <trkpt lat="46.83311" lon="6.02258">
        <ele>855.8</ele>
        <time>2022-05-24T13:40:18Z</time>
      </trkpt>
      <trkpt lat="46.83314" lon="6.02245">
        <ele>855.2</ele>
        <time>2022-05-24T13:40:19Z</time>
      </trkpt>
      <trkpt lat="46.83318" lon="6.02231">
        <ele>854.8</ele>
        <time>2022-05-24T13:40:20Z</time>
      </trkpt>
      <trkpt lat="46.83322" lon="6.02217">
        <ele>854.4</ele>
        <time>2022-05-24T13:40:21Z</time>
      </trkpt>
      <trkpt lat="46.83326" lon="6.02202">
        <ele>854</ele>
        <time>2022-05-24T13:40:22Z</time>
      </trkpt>
      <trkpt lat="46.83329" lon="6.02186">
        <ele>853.2</ele>
        <time>2022-05-24T13:40:23Z</time>
      </trkpt>
      <trkpt lat="46.83332" lon="6.02171">
        <ele>852.6</ele>
        <time>2022-05-24T13:40:24Z</time>
      </trkpt>
      <trkpt lat="46.83335" lon="6.02156">
        <ele>851.8</ele>
        <time>2022-05-24T13:40:25Z</time>
      </trkpt>
      <trkpt lat="46.83339" lon="6.0214">
        <ele>851.2</ele>
        <time>2022-05-24T13:40:26Z</time>
      </trkpt>
      <trkpt lat="46.83343" lon="6.02125">
        <ele>850.8</ele>
        <time>2022-05-24T13:40:27Z</time>
      </trkpt>
      <trkpt lat="46.83347" lon="6.0211">
        <ele>850.4</ele>
        <time>2022-05-24T13:40:28Z</time>
      </trkpt>
      <trkpt lat="46.83351" lon="6.02096">
        <ele>850</ele>
        <time>2022-05-24T13:40:29Z</time>
      </trkpt>
      <trkpt lat="46.83354" lon="6.02082">
        <ele>850</ele>
        <time>2022-05-24T13:40:30Z</time>
      </trkpt>
      <trkpt lat="46.83358" lon="6.02068">
        <ele>849.6</ele>
        <time>2022-05-24T13:40:31Z</time>
      </trkpt>
      <trkpt lat="46.83362" lon="6.02054">
        <ele>849.2</ele>
        <time>2022-05-24T13:40:32Z</time>
      </trkpt>
      <trkpt lat="46.83365" lon="6.02041">
        <ele>849</ele>
        <time>2022-05-24T13:40:33Z</time>
      </trkpt>
      <trkpt lat="46.8337" lon="6.02028">
        <ele>849</ele>
        <time>2022-05-24T13:40:34Z</time>
      </trkpt>
      <trkpt lat="46.83374" lon="6.02016">
        <ele>848.8</ele>
        <time>2022-05-24T13:40:35Z</time>
      </trkpt>
      <trkpt lat="46.83378" lon="6.02004">
        <ele>848.8</ele>
        <time>2022-05-24T13:40:36Z</time>
      </trkpt>
      <trkpt lat="46.83381" lon="6.01993">
        <ele>848.8</ele>
        <time>2022-05-24T13:40:37Z</time>
      </trkpt>
      <trkpt lat="46.83383" lon="6.01983">
        <ele>848.8</ele>
        <time>2022-05-24T13:40:38Z</time>
      </trkpt>
      <trkpt lat="46.83386" lon="6.01974">
        <ele>848.8</ele>
        <time>2022-05-24T13:40:39Z</time>
      </trkpt>
      <trkpt lat="46.83388" lon="6.0196">
        <ele>849</ele>
        <time>2022-05-24T13:40:40Z</time>
      </trkpt>
      <trkpt lat="46.83389" lon="6.01956">
        <ele>849</ele>
        <time>2022-05-24T13:40:41Z</time>
      </trkpt>
      <trkpt lat="46.83391" lon="6.01948">
        <ele>849.2</ele>
        <time>2022-05-24T13:40:42Z</time>
      </trkpt>
      <trkpt lat="46.83393" lon="6.01939">
        <ele>849.4</ele>
        <time>2022-05-24T13:40:43Z</time>
      </trkpt>
      <trkpt lat="46.83395" lon="6.0193">
        <ele>849.4</ele>
        <time>2022-05-24T13:40:44Z</time>
      </trkpt>
      <trkpt lat="46.83397" lon="6.01917">
        <ele>849.8</ele>
        <time>2022-05-24T13:40:45Z</time>
      </trkpt>
      <trkpt lat="46.83398" lon="6.01912">
        <ele>849.8</ele>
        <time>2022-05-24T13:40:46Z</time>
      </trkpt>
      <trkpt lat="46.834" lon="6.01899">
        <ele>849.8</ele>
        <time>2022-05-24T13:40:47Z</time>
      </trkpt>
      <trkpt lat="46.83401" lon="6.01894">
        <ele>850.2</ele>
        <time>2022-05-24T13:40:48Z</time>
      </trkpt>
      <trkpt lat="46.83403" lon="6.01885">
        <ele>850.2</ele>
        <time>2022-05-24T13:40:49Z</time>
      </trkpt>
      <trkpt lat="46.83405" lon="6.01871">
        <ele>850.2</ele>
        <time>2022-05-24T13:40:50Z</time>
      </trkpt>
      <trkpt lat="46.83405" lon="6.01866">
        <ele>850.4</ele>
        <time>2022-05-24T13:40:51Z</time>
      </trkpt>
      <trkpt lat="46.83407" lon="6.01856">
        <ele>850.4</ele>
        <time>2022-05-24T13:40:52Z</time>
      </trkpt>
      <trkpt lat="46.83408" lon="6.01845">
        <ele>850.4</ele>
        <time>2022-05-24T13:40:53Z</time>
      </trkpt>
      <trkpt lat="46.83409" lon="6.01834">
        <ele>850</ele>
        <time>2022-05-24T13:40:54Z</time>
      </trkpt>
      <trkpt lat="46.83411" lon="6.01821">
        <ele>849.8</ele>
        <time>2022-05-24T13:40:55Z</time>
      </trkpt>
      <trkpt lat="46.83413" lon="6.01809">
        <ele>849.4</ele>
        <time>2022-05-24T13:40:56Z</time>
      </trkpt>
      <trkpt lat="46.83415" lon="6.01796">
        <ele>849</ele>
        <time>2022-05-24T13:40:57Z</time>
      </trkpt>
      <trkpt lat="46.83417" lon="6.01783">
        <ele>848.6</ele>
        <time>2022-05-24T13:40:58Z</time>
      </trkpt>
      <trkpt lat="46.83419" lon="6.0177">
        <ele>848.4</ele>
        <time>2022-05-24T13:40:59Z</time>
      </trkpt>
      <trkpt lat="46.83421" lon="6.01757">
        <ele>848.2</ele>
        <time>2022-05-24T13:41:00Z</time>
      </trkpt>
      <trkpt lat="46.83423" lon="6.01744">
        <ele>848.2</ele>
        <time>2022-05-24T13:41:01Z</time>
      </trkpt>
      <trkpt lat="46.83425" lon="6.01731">
        <ele>847.8</ele>
        <time>2022-05-24T13:41:02Z</time>
      </trkpt>
      <trkpt lat="46.83427" lon="6.01718">
        <ele>847.8</ele>
        <time>2022-05-24T13:41:03Z</time>
      </trkpt>
      <trkpt lat="46.83429" lon="6.01705">
        <ele>847.6</ele>
        <time>2022-05-24T13:41:04Z</time>
      </trkpt>
      <trkpt lat="46.8343" lon="6.01693">
        <ele>847.6</ele>
        <time>2022-05-24T13:41:05Z</time>
      </trkpt>
      <trkpt lat="46.83432" lon="6.01674">
        <ele>847.4</ele>
        <time>2022-05-24T13:41:06Z</time>
      </trkpt>
      <trkpt lat="46.83432" lon="6.01667">
        <ele>847</ele>
        <time>2022-05-24T13:41:07Z</time>
      </trkpt>
      <trkpt lat="46.83433" lon="6.01649">
        <ele>847</ele>
        <time>2022-05-24T13:41:08Z</time>
      </trkpt>
      <trkpt lat="46.83433" lon="6.01643">
        <ele>847</ele>
        <time>2022-05-24T13:41:09Z</time>
      </trkpt>
      <trkpt lat="46.83433" lon="6.01631">
        <ele>847</ele>
        <time>2022-05-24T13:41:10Z</time>
      </trkpt>
      <trkpt lat="46.83432" lon="6.0162">
        <ele>847</ele>
        <time>2022-05-24T13:41:11Z</time>
      </trkpt>
      <trkpt lat="46.83431" lon="6.0161">
        <ele>847.4</ele>
        <time>2022-05-24T13:41:12Z</time>
      </trkpt>
      <trkpt lat="46.83429" lon="6.016">
        <ele>847.4</ele>
        <time>2022-05-24T13:41:13Z</time>
      </trkpt>
      <trkpt lat="46.83426" lon="6.01584">
        <ele>847.6</ele>
        <time>2022-05-24T13:41:14Z</time>
      </trkpt>
      <trkpt lat="46.83425" lon="6.01579">
        <ele>847.6</ele>
        <time>2022-05-24T13:41:15Z</time>
      </trkpt>
      <trkpt lat="46.83423" lon="6.01569">
        <ele>847.6</ele>
        <time>2022-05-24T13:41:16Z</time>
      </trkpt>
      <trkpt lat="46.83421" lon="6.01558">
        <ele>847.6</ele>
        <time>2022-05-24T13:41:17Z</time>
      </trkpt>
      <trkpt lat="46.83419" lon="6.01547">
        <ele>847.6</ele>
        <time>2022-05-24T13:41:18Z</time>
      </trkpt>
      <trkpt lat="46.83417" lon="6.01536">
        <ele>847.6</ele>
        <time>2022-05-24T13:41:19Z</time>
      </trkpt>
      <trkpt lat="46.83415" lon="6.01525">
        <ele>847.4</ele>
        <time>2022-05-24T13:41:20Z</time>
      </trkpt>
      <trkpt lat="46.83413" lon="6.01514">
        <ele>847.4</ele>
        <time>2022-05-24T13:41:21Z</time>
      </trkpt>
      <trkpt lat="46.83411" lon="6.01503">
        <ele>847.4</ele>
        <time>2022-05-24T13:41:22Z</time>
      </trkpt>
      <trkpt lat="46.83409" lon="6.01492">
        <ele>847.4</ele>
        <time>2022-05-24T13:41:23Z</time>
      </trkpt>
      <trkpt lat="46.83408" lon="6.01482">
        <ele>847.4</ele>
        <time>2022-05-24T13:41:24Z</time>
      </trkpt>
      <trkpt lat="46.83406" lon="6.01472">
        <ele>847.4</ele>
        <time>2022-05-24T13:41:25Z</time>
      </trkpt>
      <trkpt lat="46.83404" lon="6.01463">
        <ele>847.8</ele>
        <time>2022-05-24T13:41:26Z</time>
      </trkpt>
      <trkpt lat="46.83402" lon="6.01455">
        <ele>847.8</ele>
        <time>2022-05-24T13:41:27Z</time>
      </trkpt>
      <trkpt lat="46.834" lon="6.01446">
        <ele>848</ele>
        <time>2022-05-24T13:41:28Z</time>
      </trkpt>
      <trkpt lat="46.83399" lon="6.01437">
        <ele>848</ele>
        <time>2022-05-24T13:41:29Z</time>
      </trkpt>
      <trkpt lat="46.83397" lon="6.01428">
        <ele>848</ele>
        <time>2022-05-24T13:41:30Z</time>
      </trkpt>
      <trkpt lat="46.83395" lon="6.01419">
        <ele>848</ele>
        <time>2022-05-24T13:41:31Z</time>
      </trkpt>
      <trkpt lat="46.83393" lon="6.01409">
        <ele>848</ele>
        <time>2022-05-24T13:41:32Z</time>
      </trkpt>
      <trkpt lat="46.83392" lon="6.014">
        <ele>848</ele>
        <time>2022-05-24T13:41:33Z</time>
      </trkpt>
      <trkpt lat="46.8339" lon="6.01392">
        <ele>848</ele>
        <time>2022-05-24T13:41:34Z</time>
      </trkpt>
      <trkpt lat="46.83389" lon="6.01384">
        <ele>848</ele>
        <time>2022-05-24T13:41:35Z</time>
      </trkpt>
      <trkpt lat="46.83387" lon="6.01376">
        <ele>848.2</ele>
        <time>2022-05-24T13:41:36Z</time>
      </trkpt>
      <trkpt lat="46.83385" lon="6.01368">
        <ele>848.2</ele>
        <time>2022-05-24T13:41:37Z</time>
      </trkpt>
      <trkpt lat="46.83384" lon="6.0136">
        <ele>848.4</ele>
        <time>2022-05-24T13:41:38Z</time>
      </trkpt>
      <trkpt lat="46.83383" lon="6.01352">
        <ele>848.4</ele>
        <time>2022-05-24T13:41:39Z</time>
      </trkpt>
      <trkpt lat="46.83381" lon="6.01344">
        <ele>848.4</ele>
        <time>2022-05-24T13:41:40Z</time>
      </trkpt>
      <trkpt lat="46.8338" lon="6.01336">
        <ele>848.6</ele>
        <time>2022-05-24T13:41:41Z</time>
      </trkpt>
      <trkpt lat="46.83378" lon="6.01328">
        <ele>848.6</ele>
        <time>2022-05-24T13:41:42Z</time>
      </trkpt>
      <trkpt lat="46.83377" lon="6.0132">
        <ele>848.6</ele>
        <time>2022-05-24T13:41:43Z</time>
      </trkpt>
      <trkpt lat="46.83375" lon="6.01312">
        <ele>848.4</ele>
        <time>2022-05-24T13:41:44Z</time>
      </trkpt>
      <trkpt lat="46.83373" lon="6.01302">
        <ele>848.4</ele>
        <time>2022-05-24T13:41:45Z</time>
      </trkpt>
      <trkpt lat="46.8337" lon="6.01293">
        <ele>848.2</ele>
        <time>2022-05-24T13:41:46Z</time>
      </trkpt>
      <trkpt lat="46.83368" lon="6.01283">
        <ele>848.2</ele>
        <time>2022-05-24T13:41:47Z</time>
      </trkpt>
      <trkpt lat="46.83367" lon="6.01272">
        <ele>847.8</ele>
        <time>2022-05-24T13:41:48Z</time>
      </trkpt>
      <trkpt lat="46.83365" lon="6.01261">
        <ele>847.6</ele>
        <time>2022-05-24T13:41:49Z</time>
      </trkpt>
      <trkpt lat="46.83364" lon="6.01249">
        <ele>847.2</ele>
        <time>2022-05-24T13:41:50Z</time>
      </trkpt>
      <trkpt lat="46.83363" lon="6.01237">
        <ele>847.2</ele>
        <time>2022-05-24T13:41:51Z</time>
      </trkpt>
      <trkpt lat="46.83363" lon="6.01225">
        <ele>847</ele>
        <time>2022-05-24T13:41:52Z</time>
      </trkpt>
      <trkpt lat="46.83364" lon="6.01212">
        <ele>846.6</ele>
        <time>2022-05-24T13:41:53Z</time>
      </trkpt>
      <trkpt lat="46.83365" lon="6.012">
        <ele>846.2</ele>
        <time>2022-05-24T13:41:54Z</time>
      </trkpt>
      <trkpt lat="46.83367" lon="6.01187">
        <ele>845.8</ele>
        <time>2022-05-24T13:41:55Z</time>
      </trkpt>
      <trkpt lat="46.83369" lon="6.01175">
        <ele>845.4</ele>
        <time>2022-05-24T13:41:56Z</time>
      </trkpt>
      <trkpt lat="46.83372" lon="6.01162">
        <ele>845.2</ele>
        <time>2022-05-24T13:41:57Z</time>
      </trkpt>
      <trkpt lat="46.83375" lon="6.0115">
        <ele>844.2</ele>
        <time>2022-05-24T13:41:58Z</time>
      </trkpt>
      <trkpt lat="46.83378" lon="6.01137">
        <ele>844.2</ele>
        <time>2022-05-24T13:41:59Z</time>
      </trkpt>
      <trkpt lat="46.83382" lon="6.01123">
        <ele>843.6</ele>
        <time>2022-05-24T13:42:00Z</time>
      </trkpt>
      <trkpt lat="46.83386" lon="6.01108">
        <ele>843.2</ele>
        <time>2022-05-24T13:42:01Z</time>
      </trkpt>
      <trkpt lat="46.83389" lon="6.01094">
        <ele>843.2</ele>
        <time>2022-05-24T13:42:02Z</time>
      </trkpt>
      <trkpt lat="46.83392" lon="6.01081">
        <ele>842.6</ele>
        <time>2022-05-24T13:42:03Z</time>
      </trkpt>
      <trkpt lat="46.83396" lon="6.01067">
        <ele>842.2</ele>
        <time>2022-05-24T13:42:04Z</time>
      </trkpt>
      <trkpt lat="46.83399" lon="6.01053">
        <ele>841.6</ele>
        <time>2022-05-24T13:42:05Z</time>
      </trkpt>
      <trkpt lat="46.83403" lon="6.0104">
        <ele>841.2</ele>
        <time>2022-05-24T13:42:06Z</time>
      </trkpt>
      <trkpt lat="46.83407" lon="6.01026">
        <ele>840.6</ele>
        <time>2022-05-24T13:42:07Z</time>
      </trkpt>
      <trkpt lat="46.83411" lon="6.01013">
        <ele>840.2</ele>
        <time>2022-05-24T13:42:08Z</time>
      </trkpt>
      <trkpt lat="46.83416" lon="6.00998">
        <ele>839.4</ele>
        <time>2022-05-24T13:42:09Z</time>
      </trkpt>
      <trkpt lat="46.83419" lon="6.00983">
        <ele>839</ele>
        <time>2022-05-24T13:42:10Z</time>
      </trkpt>
      <trkpt lat="46.83423" lon="6.00969">
        <ele>838.4</ele>
        <time>2022-05-24T13:42:11Z</time>
      </trkpt>
      <trkpt lat="46.83427" lon="6.00954">
        <ele>837.8</ele>
        <time>2022-05-24T13:42:12Z</time>
      </trkpt>
      <trkpt lat="46.83431" lon="6.0094">
        <ele>837.4</ele>
        <time>2022-05-24T13:42:13Z</time>
      </trkpt>
      <trkpt lat="46.83434" lon="6.00927">
        <ele>837</ele>
        <time>2022-05-24T13:42:14Z</time>
      </trkpt>
      <trkpt lat="46.83438" lon="6.00913">
        <ele>836.2</ele>
        <time>2022-05-24T13:42:15Z</time>
      </trkpt>
      <trkpt lat="46.83442" lon="6.009">
        <ele>835.8</ele>
        <time>2022-05-24T13:42:16Z</time>
      </trkpt>
      <trkpt lat="46.83446" lon="6.00886">
        <ele>835.4</ele>
        <time>2022-05-24T13:42:17Z</time>
      </trkpt>
      <trkpt lat="46.8345" lon="6.00873">
        <ele>835.2</ele>
        <time>2022-05-24T13:42:18Z</time>
      </trkpt>
      <trkpt lat="46.83453" lon="6.00861">
        <ele>835.2</ele>
        <time>2022-05-24T13:42:19Z</time>
      </trkpt>
      <trkpt lat="46.83457" lon="6.00848">
        <ele>834.8</ele>
        <time>2022-05-24T13:42:20Z</time>
      </trkpt>
      <trkpt lat="46.8346" lon="6.00836">
        <ele>834.6</ele>
        <time>2022-05-24T13:42:21Z</time>
      </trkpt>
      <trkpt lat="46.83463" lon="6.00824">
        <ele>834.6</ele>
        <time>2022-05-24T13:42:22Z</time>
      </trkpt>
      <trkpt lat="46.83467" lon="6.00812">
        <ele>834.2</ele>
        <time>2022-05-24T13:42:23Z</time>
      </trkpt>
      <trkpt lat="46.8347" lon="6.008">
        <ele>834</ele>
        <time>2022-05-24T13:42:24Z</time>
      </trkpt>
      <trkpt lat="46.83474" lon="6.00787">
        <ele>833.6</ele>
        <time>2022-05-24T13:42:25Z</time>
      </trkpt>
      <trkpt lat="46.83478" lon="6.00775">
        <ele>833.2</ele>
        <time>2022-05-24T13:42:26Z</time>
      </trkpt>
      <trkpt lat="46.83481" lon="6.00763">
        <ele>832.8</ele>
        <time>2022-05-24T13:42:27Z</time>
      </trkpt>
      <trkpt lat="46.83485" lon="6.0075">
        <ele>832.8</ele>
        <time>2022-05-24T13:42:28Z</time>
      </trkpt>
      <trkpt lat="46.83489" lon="6.00738">
        <ele>832.2</ele>
        <time>2022-05-24T13:42:29Z</time>
      </trkpt>
      <trkpt lat="46.83494" lon="6.00725">
        <ele>831.8</ele>
        <time>2022-05-24T13:42:30Z</time>
      </trkpt>
      <trkpt lat="46.83498" lon="6.00713">
        <ele>831.4</ele>
        <time>2022-05-24T13:42:31Z</time>
      </trkpt>
      <trkpt lat="46.83504" lon="6.00701">
        <ele>831</ele>
        <time>2022-05-24T13:42:32Z</time>
      </trkpt>
      <trkpt lat="46.83509" lon="6.00689">
        <ele>830.6</ele>
        <time>2022-05-24T13:42:33Z</time>
      </trkpt>
      <trkpt lat="46.83516" lon="6.00678">
        <ele>830.2</ele>
        <time>2022-05-24T13:42:34Z</time>
      </trkpt>
      <trkpt lat="46.83525" lon="6.00669">
        <ele>829.8</ele>
        <time>2022-05-24T13:42:35Z</time>
      </trkpt>
      <trkpt lat="46.83534" lon="6.00661">
        <ele>829.4</ele>
        <time>2022-05-24T13:42:36Z</time>
      </trkpt>
      <trkpt lat="46.83543" lon="6.00654">
        <ele>828.6</ele>
        <time>2022-05-24T13:42:37Z</time>
      </trkpt>
      <trkpt lat="46.83553" lon="6.00648">
        <ele>828</ele>
        <time>2022-05-24T13:42:38Z</time>
      </trkpt>
      <trkpt lat="46.83563" lon="6.00641">
        <ele>827.6</ele>
        <time>2022-05-24T13:42:39Z</time>
      </trkpt>
      <trkpt lat="46.83572" lon="6.00633">
        <ele>827</ele>
        <time>2022-05-24T13:42:40Z</time>
      </trkpt>
      <trkpt lat="46.83581" lon="6.00624">
        <ele>826.4</ele>
        <time>2022-05-24T13:42:41Z</time>
      </trkpt>
      <trkpt lat="46.8359" lon="6.00614">
        <ele>826</ele>
        <time>2022-05-24T13:42:42Z</time>
      </trkpt>
      <trkpt lat="46.83597" lon="6.00603">
        <ele>825.4</ele>
        <time>2022-05-24T13:42:43Z</time>
      </trkpt>
      <trkpt lat="46.83604" lon="6.0059">
        <ele>824.8</ele>
        <time>2022-05-24T13:42:44Z</time>
      </trkpt>
      <trkpt lat="46.83608" lon="6.00575">
        <ele>824.4</ele>
        <time>2022-05-24T13:42:45Z</time>
      </trkpt>
      <trkpt lat="46.83611" lon="6.0056">
        <ele>823.8</ele>
        <time>2022-05-24T13:42:46Z</time>
      </trkpt>
      <trkpt lat="46.83612" lon="6.00543">
        <ele>823.2</ele>
        <time>2022-05-24T13:42:47Z</time>
      </trkpt>
      <trkpt lat="46.83613" lon="6.00527">
        <ele>822.6</ele>
        <time>2022-05-24T13:42:48Z</time>
      </trkpt>
      <trkpt lat="46.83614" lon="6.0051">
        <ele>822</ele>
        <time>2022-05-24T13:42:49Z</time>
      </trkpt>
      <trkpt lat="46.83613" lon="6.00493">
        <ele>821.4</ele>
        <time>2022-05-24T13:42:50Z</time>
      </trkpt>
      <trkpt lat="46.83611" lon="6.00476">
        <ele>820.8</ele>
        <time>2022-05-24T13:42:51Z</time>
      </trkpt>
      <trkpt lat="46.83608" lon="6.00462">
        <ele>820</ele>
        <time>2022-05-24T13:42:52Z</time>
      </trkpt>
      <trkpt lat="46.83604" lon="6.00448">
        <ele>819.4</ele>
        <time>2022-05-24T13:42:53Z</time>
      </trkpt>
      <trkpt lat="46.83599" lon="6.00434">
        <ele>818.8</ele>
        <time>2022-05-24T13:42:54Z</time>
      </trkpt>
      <trkpt lat="46.83593" lon="6.00421">
        <ele>818.2</ele>
        <time>2022-05-24T13:42:55Z</time>
      </trkpt>
      <trkpt lat="46.83586" lon="6.00407">
        <ele>816.8</ele>
        <time>2022-05-24T13:42:56Z</time>
      </trkpt>
      <trkpt lat="46.8358" lon="6.00393">
        <ele>816.2</ele>
        <time>2022-05-24T13:42:57Z</time>
      </trkpt>
      <trkpt lat="46.83575" lon="6.00377">
        <ele>815.4</ele>
        <time>2022-05-24T13:42:58Z</time>
      </trkpt>
      <trkpt lat="46.83571" lon="6.00361">
        <ele>814.8</ele>
        <time>2022-05-24T13:42:59Z</time>
      </trkpt>
      <trkpt lat="46.83566" lon="6.00343">
        <ele>814</ele>
        <time>2022-05-24T13:43:00Z</time>
      </trkpt>
      <trkpt lat="46.83564" lon="6.00325">
        <ele>813.4</ele>
        <time>2022-05-24T13:43:01Z</time>
      </trkpt>
      <trkpt lat="46.83566" lon="6.0029">
        <ele>812.6</ele>
        <time>2022-05-24T13:43:02Z</time>
      </trkpt>
      <trkpt lat="46.83569" lon="6.00273">
        <ele>812</ele>
        <time>2022-05-24T13:43:03Z</time>
      </trkpt>
      <trkpt lat="46.83571" lon="6.00257">
        <ele>811.2</ele>
        <time>2022-05-24T13:43:04Z</time>
      </trkpt>
      <trkpt lat="46.83574" lon="6.00241">
        <ele>810.6</ele>
        <time>2022-05-24T13:43:05Z</time>
      </trkpt>
      <trkpt lat="46.83578" lon="6.00224">
        <ele>809.8</ele>
        <time>2022-05-24T13:43:06Z</time>
      </trkpt>
      <trkpt lat="46.83582" lon="6.00208">
        <ele>809.2</ele>
        <time>2022-05-24T13:43:07Z</time>
      </trkpt>
      <trkpt lat="46.83587" lon="6.00192">
        <ele>808.6</ele>
        <time>2022-05-24T13:43:08Z</time>
      </trkpt>
      <trkpt lat="46.83592" lon="6.00177">
        <ele>808.2</ele>
        <time>2022-05-24T13:43:09Z</time>
      </trkpt>
      <trkpt lat="46.83598" lon="6.00162">
        <ele>807.6</ele>
        <time>2022-05-24T13:43:10Z</time>
      </trkpt>
      <trkpt lat="46.83603" lon="6.00147">
        <ele>807</ele>
        <time>2022-05-24T13:43:11Z</time>
      </trkpt>
      <trkpt lat="46.83608" lon="6.00132">
        <ele>806.6</ele>
        <time>2022-05-24T13:43:12Z</time>
      </trkpt>
      <trkpt lat="46.83614" lon="6.00118">
        <ele>806</ele>
        <time>2022-05-24T13:43:13Z</time>
      </trkpt>
      <trkpt lat="46.83619" lon="6.00103">
        <ele>805.4</ele>
        <time>2022-05-24T13:43:14Z</time>
      </trkpt>
      <trkpt lat="46.83625" lon="6.00089">
        <ele>804.8</ele>
        <time>2022-05-24T13:43:15Z</time>
      </trkpt>
      <trkpt lat="46.83631" lon="6.00074">
        <ele>804.4</ele>
        <time>2022-05-24T13:43:16Z</time>
      </trkpt>
      <trkpt lat="46.83636" lon="6.00059">
        <ele>803.6</ele>
        <time>2022-05-24T13:43:17Z</time>
      </trkpt>
      <trkpt lat="46.83642" lon="6.00044">
        <ele>802.8</ele>
        <time>2022-05-24T13:43:18Z</time>
      </trkpt>
      <trkpt lat="46.83647" lon="6.0003">
        <ele>802.2</ele>
        <time>2022-05-24T13:43:19Z</time>
      </trkpt>
      <trkpt lat="46.83652" lon="6.00016">
        <ele>801.6</ele>
        <time>2022-05-24T13:43:20Z</time>
      </trkpt>
      <trkpt lat="46.83658" lon="6.00002">
        <ele>801</ele>
        <time>2022-05-24T13:43:21Z</time>
      </trkpt>
      <trkpt lat="46.83663" lon="5.99988">
        <ele>800.6</ele>
        <time>2022-05-24T13:43:22Z</time>
      </trkpt>
      <trkpt lat="46.83668" lon="5.99974">
        <ele>800.2</ele>
        <time>2022-05-24T13:43:23Z</time>
      </trkpt>
      <trkpt lat="46.83673" lon="5.9996">
        <ele>799.8</ele>
        <time>2022-05-24T13:43:24Z</time>
      </trkpt>
      <trkpt lat="46.83679" lon="5.99946">
        <ele>799.2</ele>
        <time>2022-05-24T13:43:25Z</time>
      </trkpt>
      <trkpt lat="46.83684" lon="5.99932">
        <ele>798.8</ele>
        <time>2022-05-24T13:43:26Z</time>
      </trkpt>
      <trkpt lat="46.83688" lon="5.99918">
        <ele>798.2</ele>
        <time>2022-05-24T13:43:27Z</time>
      </trkpt>
      <trkpt lat="46.83694" lon="5.99904">
        <ele>797.8</ele>
        <time>2022-05-24T13:43:28Z</time>
      </trkpt>
      <trkpt lat="46.83698" lon="5.99891">
        <ele>797.2</ele>
        <time>2022-05-24T13:43:29Z</time>
      </trkpt>
      <trkpt lat="46.83703" lon="5.99878">
        <ele>796.8</ele>
        <time>2022-05-24T13:43:30Z</time>
      </trkpt>
      <trkpt lat="46.83707" lon="5.99867">
        <ele>796.6</ele>
        <time>2022-05-24T13:43:31Z</time>
      </trkpt>
      <trkpt lat="46.83713" lon="5.99855">
        <ele>796.6</ele>
        <time>2022-05-24T13:43:32Z</time>
      </trkpt>
      <trkpt lat="46.83718" lon="5.99844">
        <ele>796.2</ele>
        <time>2022-05-24T13:43:33Z</time>
      </trkpt>
      <trkpt lat="46.83723" lon="5.99831">
        <ele>796</ele>
        <time>2022-05-24T13:43:34Z</time>
      </trkpt>
      <trkpt lat="46.83727" lon="5.99821">
        <ele>796</ele>
        <time>2022-05-24T13:43:35Z</time>
      </trkpt>
      <trkpt lat="46.83731" lon="5.9981">
        <ele>795.6</ele>
        <time>2022-05-24T13:43:36Z</time>
      </trkpt>
      <trkpt lat="46.83736" lon="5.99799">
        <ele>795.4</ele>
        <time>2022-05-24T13:43:37Z</time>
      </trkpt>
      <trkpt lat="46.8374" lon="5.99788">
        <ele>795</ele>
        <time>2022-05-24T13:43:38Z</time>
      </trkpt>
      <trkpt lat="46.83745" lon="5.99777">
        <ele>794.8</ele>
        <time>2022-05-24T13:43:39Z</time>
      </trkpt>
      <trkpt lat="46.83751" lon="5.99766">
        <ele>794.6</ele>
        <time>2022-05-24T13:43:40Z</time>
      </trkpt>
      <trkpt lat="46.83756" lon="5.99754">
        <ele>794.4</ele>
        <time>2022-05-24T13:43:41Z</time>
      </trkpt>
      <trkpt lat="46.83761" lon="5.99744">
        <ele>794.4</ele>
        <time>2022-05-24T13:43:42Z</time>
      </trkpt>
      <trkpt lat="46.83767" lon="5.99733">
        <ele>794.2</ele>
        <time>2022-05-24T13:43:43Z</time>
      </trkpt>
      <trkpt lat="46.83773" lon="5.99724">
        <ele>794.2</ele>
        <time>2022-05-24T13:43:44Z</time>
      </trkpt>
      <trkpt lat="46.83779" lon="5.99715">
        <ele>794.2</ele>
        <time>2022-05-24T13:43:45Z</time>
      </trkpt>
      <trkpt lat="46.83785" lon="5.99706">
        <ele>794.2</ele>
        <time>2022-05-24T13:43:46Z</time>
      </trkpt>
      <trkpt lat="46.83791" lon="5.99696">
        <ele>794.2</ele>
        <time>2022-05-24T13:43:47Z</time>
      </trkpt>
      <trkpt lat="46.83796" lon="5.99688">
        <ele>793.8</ele>
        <time>2022-05-24T13:43:48Z</time>
      </trkpt>
      <trkpt lat="46.83802" lon="5.9968">
        <ele>793.8</ele>
        <time>2022-05-24T13:43:49Z</time>
      </trkpt>
      <trkpt lat="46.83807" lon="5.99672">
        <ele>793.8</ele>
        <time>2022-05-24T13:43:50Z</time>
      </trkpt>
      <trkpt lat="46.83813" lon="5.99664">
        <ele>793.8</ele>
        <time>2022-05-24T13:43:51Z</time>
      </trkpt>
      <trkpt lat="46.83818" lon="5.99656">
        <ele>794</ele>
        <time>2022-05-24T13:43:52Z</time>
      </trkpt>
      <trkpt lat="46.83823" lon="5.99649">
        <ele>794</ele>
        <time>2022-05-24T13:43:53Z</time>
      </trkpt>
      <trkpt lat="46.83828" lon="5.99642">
        <ele>794</ele>
        <time>2022-05-24T13:43:54Z</time>
      </trkpt>
      <trkpt lat="46.83832" lon="5.99636">
        <ele>794</ele>
        <time>2022-05-24T13:43:55Z</time>
      </trkpt>
      <trkpt lat="46.83837" lon="5.99629">
        <ele>794.4</ele>
        <time>2022-05-24T13:43:56Z</time>
      </trkpt>
      <trkpt lat="46.83841" lon="5.99622">
        <ele>794.4</ele>
        <time>2022-05-24T13:43:57Z</time>
      </trkpt>
      <trkpt lat="46.83845" lon="5.99616">
        <ele>794.6</ele>
        <time>2022-05-24T13:43:58Z</time>
      </trkpt>
      <trkpt lat="46.8385" lon="5.9961">
        <ele>794.6</ele>
        <time>2022-05-24T13:43:59Z</time>
      </trkpt>
      <trkpt lat="46.83854" lon="5.99603">
        <ele>795</ele>
        <time>2022-05-24T13:44:00Z</time>
      </trkpt>
      <trkpt lat="46.83858" lon="5.99596">
        <ele>795</ele>
        <time>2022-05-24T13:44:01Z</time>
      </trkpt>
      <trkpt lat="46.83863" lon="5.99589">
        <ele>795.2</ele>
        <time>2022-05-24T13:44:02Z</time>
      </trkpt>
      <trkpt lat="46.83868" lon="5.99583">
        <ele>795.6</ele>
        <time>2022-05-24T13:44:03Z</time>
      </trkpt>
      <trkpt lat="46.83874" lon="5.99578">
        <ele>795.8</ele>
        <time>2022-05-24T13:44:04Z</time>
      </trkpt>
      <trkpt lat="46.8388" lon="5.99574">
        <ele>796</ele>
        <time>2022-05-24T13:44:05Z</time>
      </trkpt>
      <trkpt lat="46.83886" lon="5.9957">
        <ele>796.6</ele>
        <time>2022-05-24T13:44:06Z</time>
      </trkpt>
      <trkpt lat="46.83892" lon="5.99566">
        <ele>797</ele>
        <time>2022-05-24T13:44:07Z</time>
      </trkpt>
      <trkpt lat="46.83897" lon="5.99563">
        <ele>797.4</ele>
        <time>2022-05-24T13:44:08Z</time>
      </trkpt>
      <trkpt lat="46.83901" lon="5.9956">
        <ele>797.6</ele>
        <time>2022-05-24T13:44:09Z</time>
      </trkpt>
      <trkpt lat="46.83907" lon="5.99558">
        <ele>798</ele>
        <time>2022-05-24T13:44:10Z</time>
      </trkpt>
      <trkpt lat="46.83912" lon="5.99556">
        <ele>798.6</ele>
        <time>2022-05-24T13:44:11Z</time>
      </trkpt>
      <trkpt lat="46.83917" lon="5.99555">
        <ele>798.8</ele>
        <time>2022-05-24T13:44:12Z</time>
      </trkpt>
      <trkpt lat="46.83922" lon="5.99554">
        <ele>799.2</ele>
        <time>2022-05-24T13:44:13Z</time>
      </trkpt>
      <trkpt lat="46.83927" lon="5.99552">
        <ele>799.6</ele>
        <time>2022-05-24T13:44:14Z</time>
      </trkpt>
      <trkpt lat="46.83931" lon="5.9955">
        <ele>800</ele>
        <time>2022-05-24T13:44:15Z</time>
      </trkpt>
      <trkpt lat="46.83936" lon="5.99548">
        <ele>800.2</ele>
        <time>2022-05-24T13:44:16Z</time>
      </trkpt>
      <trkpt lat="46.83941" lon="5.99546">
        <ele>800.4</ele>
        <time>2022-05-24T13:44:17Z</time>
      </trkpt>
      <trkpt lat="46.83946" lon="5.99544">
        <ele>800.8</ele>
        <time>2022-05-24T13:44:18Z</time>
      </trkpt>
      <trkpt lat="46.83951" lon="5.99541">
        <ele>801</ele>
        <time>2022-05-24T13:44:19Z</time>
      </trkpt>
      <trkpt lat="46.83956" lon="5.99539">
        <ele>801.2</ele>
        <time>2022-05-24T13:44:20Z</time>
      </trkpt>
      <trkpt lat="46.83961" lon="5.99535">
        <ele>801.2</ele>
        <time>2022-05-24T13:44:21Z</time>
      </trkpt>
      <trkpt lat="46.83966" lon="5.99532">
        <ele>801.2</ele>
        <time>2022-05-24T13:44:22Z</time>
      </trkpt>
      <trkpt lat="46.8397" lon="5.99529">
        <ele>801.4</ele>
        <time>2022-05-24T13:44:23Z</time>
      </trkpt>
      <trkpt lat="46.83975" lon="5.99526">
        <ele>801.4</ele>
        <time>2022-05-24T13:44:24Z</time>
      </trkpt>
      <trkpt lat="46.8398" lon="5.99522">
        <ele>801.4</ele>
        <time>2022-05-24T13:44:25Z</time>
      </trkpt>
      <trkpt lat="46.83985" lon="5.99518">
        <ele>801.4</ele>
        <time>2022-05-24T13:44:26Z</time>
      </trkpt>
      <trkpt lat="46.8399" lon="5.99513">
        <ele>801.4</ele>
        <time>2022-05-24T13:44:27Z</time>
      </trkpt>
      <trkpt lat="46.83995" lon="5.99508">
        <ele>801.4</ele>
        <time>2022-05-24T13:44:28Z</time>
      </trkpt>
      <trkpt lat="46.84001" lon="5.99503">
        <ele>801.4</ele>
        <time>2022-05-24T13:44:29Z</time>
      </trkpt>
      <trkpt lat="46.84006" lon="5.99497">
        <ele>801.4</ele>
        <time>2022-05-24T13:44:30Z</time>
      </trkpt>
      <trkpt lat="46.84012" lon="5.99491">
        <ele>801</ele>
        <time>2022-05-24T13:44:31Z</time>
      </trkpt>
      <trkpt lat="46.84019" lon="5.99485">
        <ele>800.8</ele>
        <time>2022-05-24T13:44:32Z</time>
      </trkpt>
      <trkpt lat="46.84025" lon="5.99478">
        <ele>800.6</ele>
        <time>2022-05-24T13:44:33Z</time>
      </trkpt>
      <trkpt lat="46.84032" lon="5.99471">
        <ele>800.2</ele>
        <time>2022-05-24T13:44:34Z</time>
      </trkpt>
      <trkpt lat="46.84039" lon="5.99463">
        <ele>799.8</ele>
        <time>2022-05-24T13:44:35Z</time>
      </trkpt>
      <trkpt lat="46.84046" lon="5.99455">
        <ele>799.6</ele>
        <time>2022-05-24T13:44:36Z</time>
      </trkpt>
      <trkpt lat="46.84054" lon="5.99447">
        <ele>799.2</ele>
        <time>2022-05-24T13:44:37Z</time>
      </trkpt>
      <trkpt lat="46.84061" lon="5.99439">
        <ele>798.4</ele>
        <time>2022-05-24T13:44:38Z</time>
      </trkpt>
      <trkpt lat="46.8407" lon="5.9943">
        <ele>797.6</ele>
        <time>2022-05-24T13:44:39Z</time>
      </trkpt>
      <trkpt lat="46.84078" lon="5.99421">
        <ele>797.2</ele>
        <time>2022-05-24T13:44:40Z</time>
      </trkpt>
      <trkpt lat="46.84087" lon="5.99411">
        <ele>796.4</ele>
        <time>2022-05-24T13:44:41Z</time>
      </trkpt>
      <trkpt lat="46.84096" lon="5.99402">
        <ele>795.8</ele>
        <time>2022-05-24T13:44:42Z</time>
      </trkpt>
      <trkpt lat="46.84105" lon="5.99392">
        <ele>794.8</ele>
        <time>2022-05-24T13:44:43Z</time>
      </trkpt>
      <trkpt lat="46.84115" lon="5.99381">
        <ele>794</ele>
        <time>2022-05-24T13:44:44Z</time>
      </trkpt>
      <trkpt lat="46.84125" lon="5.99371">
        <ele>793.2</ele>
        <time>2022-05-24T13:44:45Z</time>
      </trkpt>
      <trkpt lat="46.84135" lon="5.99361">
        <ele>792.4</ele>
        <time>2022-05-24T13:44:46Z</time>
      </trkpt>
      <trkpt lat="46.84145" lon="5.9935">
        <ele>791.6</ele>
        <time>2022-05-24T13:44:47Z</time>
      </trkpt>
      <trkpt lat="46.84155" lon="5.9934">
        <ele>790.8</ele>
        <time>2022-05-24T13:44:48Z</time>
      </trkpt>
      <trkpt lat="46.84166" lon="5.99329">
        <ele>790</ele>
        <time>2022-05-24T13:44:49Z</time>
      </trkpt>
      <trkpt lat="46.84177" lon="5.99318">
        <ele>789.4</ele>
        <time>2022-05-24T13:44:50Z</time>
      </trkpt>
      <trkpt lat="46.84189" lon="5.99307">
        <ele>788.6</ele>
        <time>2022-05-24T13:44:51Z</time>
      </trkpt>
      <trkpt lat="46.84199" lon="5.99296">
        <ele>787.8</ele>
        <time>2022-05-24T13:44:52Z</time>
      </trkpt>
      <trkpt lat="46.8421" lon="5.99285">
        <ele>787</ele>
        <time>2022-05-24T13:44:53Z</time>
      </trkpt>
      <trkpt lat="46.8422" lon="5.99274">
        <ele>785.4</ele>
        <time>2022-05-24T13:44:54Z</time>
      </trkpt>
      <trkpt lat="46.84231" lon="5.99262">
        <ele>783.6</ele>
        <time>2022-05-24T13:44:55Z</time>
      </trkpt>
      <trkpt lat="46.84241" lon="5.9925">
        <ele>783.6</ele>
        <time>2022-05-24T13:44:56Z</time>
      </trkpt>
      <trkpt lat="46.84252" lon="5.99239">
        <ele>782.8</ele>
        <time>2022-05-24T13:44:57Z</time>
      </trkpt>
      <trkpt lat="46.84262" lon="5.99228">
        <ele>782</ele>
        <time>2022-05-24T13:44:58Z</time>
      </trkpt>
      <trkpt lat="46.84273" lon="5.99218">
        <ele>781</ele>
        <time>2022-05-24T13:44:59Z</time>
      </trkpt>
      <trkpt lat="46.84284" lon="5.99208">
        <ele>780.6</ele>
        <time>2022-05-24T13:45:00Z</time>
      </trkpt>
      <trkpt lat="46.84295" lon="5.99195">
        <ele>780.2</ele>
        <time>2022-05-24T13:45:01Z</time>
      </trkpt>
      <trkpt lat="46.84306" lon="5.99183">
        <ele>779.4</ele>
        <time>2022-05-24T13:45:02Z</time>
      </trkpt>
      <trkpt lat="46.84317" lon="5.99172">
        <ele>778.6</ele>
        <time>2022-05-24T13:45:03Z</time>
      </trkpt>
      <trkpt lat="46.84329" lon="5.99161">
        <ele>777.8</ele>
        <time>2022-05-24T13:45:04Z</time>
      </trkpt>
      <trkpt lat="46.84341" lon="5.9915">
        <ele>777</ele>
        <time>2022-05-24T13:45:05Z</time>
      </trkpt>
      <trkpt lat="46.84353" lon="5.99138">
        <ele>776.2</ele>
        <time>2022-05-24T13:45:06Z</time>
      </trkpt>
      <trkpt lat="46.84364" lon="5.99127">
        <ele>775.2</ele>
        <time>2022-05-24T13:45:07Z</time>
      </trkpt>
      <trkpt lat="46.84375" lon="5.99115">
        <ele>774.2</ele>
        <time>2022-05-24T13:45:08Z</time>
      </trkpt>
      <trkpt lat="46.84386" lon="5.99104">
        <ele>773.2</ele>
        <time>2022-05-24T13:45:09Z</time>
      </trkpt>
      <trkpt lat="46.84397" lon="5.99091">
        <ele>772.4</ele>
        <time>2022-05-24T13:45:10Z</time>
      </trkpt>
      <trkpt lat="46.84408" lon="5.99079">
        <ele>771.4</ele>
        <time>2022-05-24T13:45:11Z</time>
      </trkpt>
      <trkpt lat="46.8442" lon="5.99068">
        <ele>770.2</ele>
        <time>2022-05-24T13:45:12Z</time>
      </trkpt>
      <trkpt lat="46.84431" lon="5.99057">
        <ele>768.6</ele>
        <time>2022-05-24T13:45:13Z</time>
      </trkpt>
      <trkpt lat="46.84443" lon="5.99045">
        <ele>767.2</ele>
        <time>2022-05-24T13:45:14Z</time>
      </trkpt>
      <trkpt lat="46.84453" lon="5.99035">
        <ele>766</ele>
        <time>2022-05-24T13:45:15Z</time>
      </trkpt>
      <trkpt lat="46.84463" lon="5.99024">
        <ele>765.2</ele>
        <time>2022-05-24T13:45:16Z</time>
      </trkpt>
      <trkpt lat="46.84473" lon="5.99014">
        <ele>765.2</ele>
        <time>2022-05-24T13:45:17Z</time>
      </trkpt>
      <trkpt lat="46.84482" lon="5.99004">
        <ele>765.2</ele>
        <time>2022-05-24T13:45:18Z</time>
      </trkpt>
      <trkpt lat="46.84492" lon="5.98996">
        <ele>764.6</ele>
        <time>2022-05-24T13:45:19Z</time>
      </trkpt>
      <trkpt lat="46.84501" lon="5.98986">
        <ele>764.6</ele>
        <time>2022-05-24T13:45:20Z</time>
      </trkpt>
      <trkpt lat="46.8451" lon="5.98976">
        <ele>764.4</ele>
        <time>2022-05-24T13:45:21Z</time>
      </trkpt>
      <trkpt lat="46.84518" lon="5.98968">
        <ele>764.4</ele>
        <time>2022-05-24T13:45:22Z</time>
      </trkpt>
      <trkpt lat="46.84528" lon="5.98959">
        <ele>764</ele>
        <time>2022-05-24T13:45:23Z</time>
      </trkpt>
      <trkpt lat="46.84537" lon="5.9895">
        <ele>764</ele>
        <time>2022-05-24T13:45:24Z</time>
      </trkpt>
      <trkpt lat="46.84545" lon="5.98942">
        <ele>763.6</ele>
        <time>2022-05-24T13:45:25Z</time>
      </trkpt>
      <trkpt lat="46.84554" lon="5.98934">
        <ele>763.4</ele>
        <time>2022-05-24T13:45:26Z</time>
      </trkpt>
      <trkpt lat="46.84562" lon="5.98925">
        <ele>763.2</ele>
        <time>2022-05-24T13:45:27Z</time>
      </trkpt>
      <trkpt lat="46.84571" lon="5.98917">
        <ele>762.8</ele>
        <time>2022-05-24T13:45:28Z</time>
      </trkpt>
      <trkpt lat="46.84579" lon="5.98907">
        <ele>762.6</ele>
        <time>2022-05-24T13:45:29Z</time>
      </trkpt>
      <trkpt lat="46.84588" lon="5.98898">
        <ele>762.2</ele>
        <time>2022-05-24T13:45:30Z</time>
      </trkpt>
      <trkpt lat="46.84596" lon="5.98889">
        <ele>761.8</ele>
        <time>2022-05-24T13:45:31Z</time>
      </trkpt>
      <trkpt lat="46.84605" lon="5.98879">
        <ele>761.8</ele>
        <time>2022-05-24T13:45:32Z</time>
      </trkpt>
      <trkpt lat="46.84612" lon="5.9887">
        <ele>761.6</ele>
        <time>2022-05-24T13:45:33Z</time>
      </trkpt>
      <trkpt lat="46.8462" lon="5.98861">
        <ele>761.4</ele>
        <time>2022-05-24T13:45:34Z</time>
      </trkpt>
      <trkpt lat="46.84628" lon="5.98852">
        <ele>761</ele>
        <time>2022-05-24T13:45:35Z</time>
      </trkpt>
      <trkpt lat="46.84637" lon="5.98844">
        <ele>760.6</ele>
        <time>2022-05-24T13:45:36Z</time>
      </trkpt>
      <trkpt lat="46.84644" lon="5.98835">
        <ele>760.4</ele>
        <time>2022-05-24T13:45:37Z</time>
      </trkpt>
      <trkpt lat="46.84654" lon="5.98828">
        <ele>759.8</ele>
        <time>2022-05-24T13:45:38Z</time>
      </trkpt>
      <trkpt lat="46.84661" lon="5.98819">
        <ele>759.2</ele>
        <time>2022-05-24T13:45:39Z</time>
      </trkpt>
      <trkpt lat="46.84669" lon="5.98809">
        <ele>758.6</ele>
        <time>2022-05-24T13:45:40Z</time>
      </trkpt>
      <trkpt lat="46.84677" lon="5.98799">
        <ele>758.2</ele>
        <time>2022-05-24T13:45:41Z</time>
      </trkpt>
      <trkpt lat="46.84683" lon="5.98793">
        <ele>755.8</ele>
        <time>2022-05-24T13:45:42Z</time>
      </trkpt>
      <trkpt lat="46.84695" lon="5.9878">
        <ele>755.2</ele>
        <time>2022-05-24T13:45:44Z</time>
      </trkpt>
      <trkpt lat="46.84704" lon="5.9877">
        <ele>754.6</ele>
        <time>2022-05-24T13:45:45Z</time>
      </trkpt>
      <trkpt lat="46.84714" lon="5.9876">
        <ele>754</ele>
        <time>2022-05-24T13:45:46Z</time>
      </trkpt>
      <trkpt lat="46.84723" lon="5.9875">
        <ele>753.4</ele>
        <time>2022-05-24T13:45:47Z</time>
      </trkpt>
      <trkpt lat="46.84733" lon="5.98741">
        <ele>752.8</ele>
        <time>2022-05-24T13:45:48Z</time>
      </trkpt>
      <trkpt lat="46.84743" lon="5.98731">
        <ele>752.2</ele>
        <time>2022-05-24T13:45:49Z</time>
      </trkpt>
      <trkpt lat="46.84752" lon="5.98722">
        <ele>751.6</ele>
        <time>2022-05-24T13:45:50Z</time>
      </trkpt>
      <trkpt lat="46.84762" lon="5.98712">
        <ele>751</ele>
        <time>2022-05-24T13:45:51Z</time>
      </trkpt>
      <trkpt lat="46.84771" lon="5.98703">
        <ele>750.2</ele>
        <time>2022-05-24T13:45:52Z</time>
      </trkpt>
      <trkpt lat="46.84781" lon="5.98692">
        <ele>749.6</ele>
        <time>2022-05-24T13:45:53Z</time>
      </trkpt>
      <trkpt lat="46.84791" lon="5.98682">
        <ele>748.8</ele>
        <time>2022-05-24T13:45:54Z</time>
      </trkpt>
      <trkpt lat="46.84801" lon="5.98673">
        <ele>748.2</ele>
        <time>2022-05-24T13:45:55Z</time>
      </trkpt>
      <trkpt lat="46.84811" lon="5.98663">
        <ele>747.6</ele>
        <time>2022-05-24T13:45:56Z</time>
      </trkpt>
      <trkpt lat="46.8482" lon="5.98653">
        <ele>746.8</ele>
        <time>2022-05-24T13:45:57Z</time>
      </trkpt>
      <trkpt lat="46.8483" lon="5.98643">
        <ele>746.4</ele>
        <time>2022-05-24T13:45:58Z</time>
      </trkpt>
      <trkpt lat="46.84839" lon="5.98633">
        <ele>745.8</ele>
        <time>2022-05-24T13:45:59Z</time>
      </trkpt>
      <trkpt lat="46.84848" lon="5.98623">
        <ele>745.4</ele>
        <time>2022-05-24T13:46:00Z</time>
      </trkpt>
      <trkpt lat="46.84857" lon="5.98614">
        <ele>745</ele>
        <time>2022-05-24T13:46:01Z</time>
      </trkpt>
      <trkpt lat="46.84866" lon="5.98605">
        <ele>745</ele>
        <time>2022-05-24T13:46:02Z</time>
      </trkpt>
      <trkpt lat="46.84875" lon="5.98596">
        <ele>744.6</ele>
        <time>2022-05-24T13:46:03Z</time>
      </trkpt>
      <trkpt lat="46.84884" lon="5.98587">
        <ele>744.6</ele>
        <time>2022-05-24T13:46:04Z</time>
      </trkpt>
      <trkpt lat="46.84892" lon="5.98579">
        <ele>744.4</ele>
        <time>2022-05-24T13:46:05Z</time>
      </trkpt>
      <trkpt lat="46.84899" lon="5.98571">
        <ele>744.4</ele>
        <time>2022-05-24T13:46:06Z</time>
      </trkpt>
      <trkpt lat="46.84907" lon="5.98563">
        <ele>744</ele>
        <time>2022-05-24T13:46:07Z</time>
      </trkpt>
      <trkpt lat="46.84914" lon="5.98554">
        <ele>743.8</ele>
        <time>2022-05-24T13:46:08Z</time>
      </trkpt>
      <trkpt lat="46.84922" lon="5.98545">
        <ele>743.4</ele>
        <time>2022-05-24T13:46:09Z</time>
      </trkpt>
      <trkpt lat="46.84929" lon="5.98536">
        <ele>743.2</ele>
        <time>2022-05-24T13:46:10Z</time>
      </trkpt>
      <trkpt lat="46.84937" lon="5.98528">
        <ele>742.8</ele>
        <time>2022-05-24T13:46:11Z</time>
      </trkpt>
      <trkpt lat="46.84946" lon="5.9852">
        <ele>742.4</ele>
        <time>2022-05-24T13:46:12Z</time>
      </trkpt>
      <trkpt lat="46.84954" lon="5.98511">
        <ele>742.2</ele>
        <time>2022-05-24T13:46:13Z</time>
      </trkpt>
      <trkpt lat="46.84961" lon="5.98502">
        <ele>741.8</ele>
        <time>2022-05-24T13:46:14Z</time>
      </trkpt>
      <trkpt lat="46.8497" lon="5.98495">
        <ele>741.6</ele>
        <time>2022-05-24T13:46:15Z</time>
      </trkpt>
      <trkpt lat="46.84977" lon="5.98486">
        <ele>741.4</ele>
        <time>2022-05-24T13:46:16Z</time>
      </trkpt>
      <trkpt lat="46.84985" lon="5.98478">
        <ele>741.4</ele>
        <time>2022-05-24T13:46:17Z</time>
      </trkpt>
      <trkpt lat="46.84993" lon="5.98471">
        <ele>741.4</ele>
        <time>2022-05-24T13:46:18Z</time>
      </trkpt>
      <trkpt lat="46.85" lon="5.98464">
        <ele>741.4</ele>
        <time>2022-05-24T13:46:19Z</time>
      </trkpt>
      <trkpt lat="46.85008" lon="5.98457">
        <ele>741.4</ele>
        <time>2022-05-24T13:46:20Z</time>
      </trkpt>
      <trkpt lat="46.85015" lon="5.9845">
        <ele>741.4</ele>
        <time>2022-05-24T13:46:21Z</time>
      </trkpt>
      <trkpt lat="46.85022" lon="5.98443">
        <ele>741.4</ele>
        <time>2022-05-24T13:46:22Z</time>
      </trkpt>
      <trkpt lat="46.85029" lon="5.98437">
        <ele>741.4</ele>
        <time>2022-05-24T13:46:23Z</time>
      </trkpt>
      <trkpt lat="46.85036" lon="5.9843">
        <ele>741.2</ele>
        <time>2022-05-24T13:46:24Z</time>
      </trkpt>
      <trkpt lat="46.85042" lon="5.98423">
        <ele>741.2</ele>
        <time>2022-05-24T13:46:25Z</time>
      </trkpt>
      <trkpt lat="46.85049" lon="5.98416">
        <ele>740.8</ele>
        <time>2022-05-24T13:46:26Z</time>
      </trkpt>
      <trkpt lat="46.85056" lon="5.98408">
        <ele>740.4</ele>
        <time>2022-05-24T13:46:27Z</time>
      </trkpt>
      <trkpt lat="46.85063" lon="5.98401">
        <ele>740.2</ele>
        <time>2022-05-24T13:46:28Z</time>
      </trkpt>
      <trkpt lat="46.85071" lon="5.98394">
        <ele>739.8</ele>
        <time>2022-05-24T13:46:29Z</time>
      </trkpt>
      <trkpt lat="46.85078" lon="5.98386">
        <ele>739.4</ele>
        <time>2022-05-24T13:46:30Z</time>
      </trkpt>
      <trkpt lat="46.85085" lon="5.98377">
        <ele>739.2</ele>
        <time>2022-05-24T13:46:31Z</time>
      </trkpt>
      <trkpt lat="46.85093" lon="5.9837">
        <ele>738.8</ele>
        <time>2022-05-24T13:46:32Z</time>
      </trkpt>
      <trkpt lat="46.85101" lon="5.98362">
        <ele>738.6</ele>
        <time>2022-05-24T13:46:33Z</time>
      </trkpt>
      <trkpt lat="46.85108" lon="5.98353">
        <ele>738.6</ele>
        <time>2022-05-24T13:46:34Z</time>
      </trkpt>
      <trkpt lat="46.85116" lon="5.98346">
        <ele>738</ele>
        <time>2022-05-24T13:46:35Z</time>
      </trkpt>
      <trkpt lat="46.85125" lon="5.98339">
        <ele>737.8</ele>
        <time>2022-05-24T13:46:36Z</time>
      </trkpt>
      <trkpt lat="46.85133" lon="5.98333">
        <ele>737.6</ele>
        <time>2022-05-24T13:46:37Z</time>
      </trkpt>
      <trkpt lat="46.8514" lon="5.98326">
        <ele>737.6</ele>
        <time>2022-05-24T13:46:38Z</time>
      </trkpt>
      <trkpt lat="46.85147" lon="5.98318">
        <ele>737</ele>
        <time>2022-05-24T13:46:39Z</time>
      </trkpt>
      <trkpt lat="46.85155" lon="5.98311">
        <ele>736.4</ele>
        <time>2022-05-24T13:46:40Z</time>
      </trkpt>
      <trkpt lat="46.85162" lon="5.98303">
        <ele>736</ele>
        <time>2022-05-24T13:46:41Z</time>
      </trkpt>
      <trkpt lat="46.85169" lon="5.98295">
        <ele>735.6</ele>
        <time>2022-05-24T13:46:42Z</time>
      </trkpt>
      <trkpt lat="46.85176" lon="5.98287">
        <ele>735.2</ele>
        <time>2022-05-24T13:46:43Z</time>
      </trkpt>
      <trkpt lat="46.85183" lon="5.98279">
        <ele>734.6</ele>
        <time>2022-05-24T13:46:44Z</time>
      </trkpt>
      <trkpt lat="46.85191" lon="5.98272">
        <ele>734.2</ele>
        <time>2022-05-24T13:46:45Z</time>
      </trkpt>
      <trkpt lat="46.85199" lon="5.98264">
        <ele>734</ele>
        <time>2022-05-24T13:46:46Z</time>
      </trkpt>
      <trkpt lat="46.85206" lon="5.98256">
        <ele>734</ele>
        <time>2022-05-24T13:46:47Z</time>
      </trkpt>
      <trkpt lat="46.85213" lon="5.98248">
        <ele>733.6</ele>
        <time>2022-05-24T13:46:48Z</time>
      </trkpt>
      <trkpt lat="46.8522" lon="5.9824">
        <ele>733.2</ele>
        <time>2022-05-24T13:46:49Z</time>
      </trkpt>
      <trkpt lat="46.85226" lon="5.98232">
        <ele>733</ele>
        <time>2022-05-24T13:46:50Z</time>
      </trkpt>
      <trkpt lat="46.85233" lon="5.98224">
        <ele>733</ele>
        <time>2022-05-24T13:46:51Z</time>
      </trkpt>
      <trkpt lat="46.85239" lon="5.98217">
        <ele>732.8</ele>
        <time>2022-05-24T13:46:52Z</time>
      </trkpt>
      <trkpt lat="46.85246" lon="5.9821">
        <ele>732.8</ele>
        <time>2022-05-24T13:46:53Z</time>
      </trkpt>
      <trkpt lat="46.85252" lon="5.98203">
        <ele>732.4</ele>
        <time>2022-05-24T13:46:54Z</time>
      </trkpt>
      <trkpt lat="46.85259" lon="5.98196">
        <ele>732.2</ele>
        <time>2022-05-24T13:46:55Z</time>
      </trkpt>
      <trkpt lat="46.85266" lon="5.98189">
        <ele>731.8</ele>
        <time>2022-05-24T13:46:56Z</time>
      </trkpt>
      <trkpt lat="46.85273" lon="5.98182">
        <ele>731.6</ele>
        <time>2022-05-24T13:46:57Z</time>
      </trkpt>
      <trkpt lat="46.8528" lon="5.98175">
        <ele>731.4</ele>
        <time>2022-05-24T13:46:58Z</time>
      </trkpt>
      <trkpt lat="46.85287" lon="5.98167">
        <ele>731</ele>
        <time>2022-05-24T13:46:59Z</time>
      </trkpt>
      <trkpt lat="46.85294" lon="5.9816">
        <ele>730.8</ele>
        <time>2022-05-24T13:47:00Z</time>
      </trkpt>
      <trkpt lat="46.85301" lon="5.98153">
        <ele>730.6</ele>
        <time>2022-05-24T13:47:01Z</time>
      </trkpt>
      <trkpt lat="46.85307" lon="5.98146">
        <ele>730.6</ele>
        <time>2022-05-24T13:47:02Z</time>
      </trkpt>
      <trkpt lat="46.85314" lon="5.98139">
        <ele>730.2</ele>
        <time>2022-05-24T13:47:03Z</time>
      </trkpt>
      <trkpt lat="46.85321" lon="5.98132">
        <ele>730.2</ele>
        <time>2022-05-24T13:47:04Z</time>
      </trkpt>
      <trkpt lat="46.85327" lon="5.98127">
        <ele>730.2</ele>
        <time>2022-05-24T13:47:05Z</time>
      </trkpt>
      <trkpt lat="46.85333" lon="5.98121">
        <ele>730</ele>
        <time>2022-05-24T13:47:06Z</time>
      </trkpt>
      <trkpt lat="46.85339" lon="5.98114">
        <ele>730</ele>
        <time>2022-05-24T13:47:07Z</time>
      </trkpt>
      <trkpt lat="46.85345" lon="5.98108">
        <ele>730</ele>
        <time>2022-05-24T13:47:08Z</time>
      </trkpt>
      <trkpt lat="46.85349" lon="5.98102">
        <ele>730</ele>
        <time>2022-05-24T13:47:09Z</time>
      </trkpt>
      <trkpt lat="46.85354" lon="5.98096">
        <ele>730</ele>
        <time>2022-05-24T13:47:10Z</time>
      </trkpt>
      <trkpt lat="46.85357" lon="5.98089">
        <ele>730</ele>
        <time>2022-05-24T13:47:11Z</time>
      </trkpt>
      <trkpt lat="46.8536" lon="5.98082">
        <ele>730</ele>
        <time>2022-05-24T13:47:12Z</time>
      </trkpt>
      <trkpt lat="46.85363" lon="5.98074">
        <ele>730</ele>
        <time>2022-05-24T13:47:13Z</time>
      </trkpt>
      <trkpt lat="46.85365" lon="5.98066">
        <ele>729.6</ele>
        <time>2022-05-24T13:47:14Z</time>
      </trkpt>
      <trkpt lat="46.85368" lon="5.98057">
        <ele>729.6</ele>
        <time>2022-05-24T13:47:15Z</time>
      </trkpt>
      <trkpt lat="46.85369" lon="5.98048">
        <ele>729.2</ele>
        <time>2022-05-24T13:47:16Z</time>
      </trkpt>
      <trkpt lat="46.85371" lon="5.98038">
        <ele>729</ele>
        <time>2022-05-24T13:47:17Z</time>
      </trkpt>
      <trkpt lat="46.85372" lon="5.98029">
        <ele>728.8</ele>
        <time>2022-05-24T13:47:18Z</time>
      </trkpt>
      <trkpt lat="46.85373" lon="5.98018">
        <ele>728.6</ele>
        <time>2022-05-24T13:47:19Z</time>
      </trkpt>
      <trkpt lat="46.85374" lon="5.98008">
        <ele>728.2</ele>
        <time>2022-05-24T13:47:20Z</time>
      </trkpt>
      <trkpt lat="46.85375" lon="5.97997">
        <ele>727.8</ele>
        <time>2022-05-24T13:47:21Z</time>
      </trkpt>
      <trkpt lat="46.85376" lon="5.97987">
        <ele>727.6</ele>
        <time>2022-05-24T13:47:22Z</time>
      </trkpt>
      <trkpt lat="46.85377" lon="5.97976">
        <ele>727.6</ele>
        <time>2022-05-24T13:47:23Z</time>
      </trkpt>
      <trkpt lat="46.85378" lon="5.97966">
        <ele>727.4</ele>
        <time>2022-05-24T13:47:24Z</time>
      </trkpt>
      <trkpt lat="46.85379" lon="5.97955">
        <ele>727.4</ele>
        <time>2022-05-24T13:47:25Z</time>
      </trkpt>
      <trkpt lat="46.8538" lon="5.97945">
        <ele>727</ele>
        <time>2022-05-24T13:47:26Z</time>
      </trkpt>
      <trkpt lat="46.85381" lon="5.97936">
        <ele>727</ele>
        <time>2022-05-24T13:47:27Z</time>
      </trkpt>
      <trkpt lat="46.85382" lon="5.97927">
        <ele>726.8</ele>
        <time>2022-05-24T13:47:28Z</time>
      </trkpt>
      <trkpt lat="46.85383" lon="5.97918">
        <ele>726.8</ele>
        <time>2022-05-24T13:47:29Z</time>
      </trkpt>
      <trkpt lat="46.85384" lon="5.97909">
        <ele>726.8</ele>
        <time>2022-05-24T13:47:30Z</time>
      </trkpt>
      <trkpt lat="46.85385" lon="5.979">
        <ele>726.8</ele>
        <time>2022-05-24T13:47:31Z</time>
      </trkpt>
      <trkpt lat="46.85385" lon="5.97892">
        <ele>726.8</ele>
        <time>2022-05-24T13:47:32Z</time>
      </trkpt>
      <trkpt lat="46.85386" lon="5.97883">
        <ele>726.8</ele>
        <time>2022-05-24T13:47:33Z</time>
      </trkpt>
      <trkpt lat="46.85387" lon="5.97875">
        <ele>726.8</ele>
        <time>2022-05-24T13:47:34Z</time>
      </trkpt>
      <trkpt lat="46.85388" lon="5.97867">
        <ele>726.8</ele>
        <time>2022-05-24T13:47:35Z</time>
      </trkpt>
      <trkpt lat="46.85389" lon="5.97859">
        <ele>726.8</ele>
        <time>2022-05-24T13:47:36Z</time>
      </trkpt>
      <trkpt lat="46.8539" lon="5.97851">
        <ele>727</ele>
        <time>2022-05-24T13:47:37Z</time>
      </trkpt>
      <trkpt lat="46.8539" lon="5.97843">
        <ele>727</ele>
        <time>2022-05-24T13:47:38Z</time>
      </trkpt>
      <trkpt lat="46.85391" lon="5.97835">
        <ele>727.2</ele>
        <time>2022-05-24T13:47:39Z</time>
      </trkpt>
      <trkpt lat="46.85391" lon="5.97828">
        <ele>727.2</ele>
        <time>2022-05-24T13:47:40Z</time>
      </trkpt>
      <trkpt lat="46.85392" lon="5.97821">
        <ele>727.2</ele>
        <time>2022-05-24T13:47:41Z</time>
      </trkpt>
      <trkpt lat="46.85393" lon="5.97815">
        <ele>727.6</ele>
        <time>2022-05-24T13:47:42Z</time>
      </trkpt>
      <trkpt lat="46.85393" lon="5.97808">
        <ele>727.6</ele>
        <time>2022-05-24T13:47:43Z</time>
      </trkpt>
      <trkpt lat="46.85394" lon="5.97801">
        <ele>727.8</ele>
        <time>2022-05-24T13:47:44Z</time>
      </trkpt>
      <trkpt lat="46.85395" lon="5.97794">
        <ele>727.8</ele>
        <time>2022-05-24T13:47:45Z</time>
      </trkpt>
      <trkpt lat="46.85395" lon="5.97787">
        <ele>727.8</ele>
        <time>2022-05-24T13:47:46Z</time>
      </trkpt>
      <trkpt lat="46.85396" lon="5.9778">
        <ele>727.8</ele>
        <time>2022-05-24T13:47:47Z</time>
      </trkpt>
      <trkpt lat="46.85398" lon="5.97773">
        <ele>727.6</ele>
        <time>2022-05-24T13:47:48Z</time>
      </trkpt>
      <trkpt lat="46.85399" lon="5.97766">
        <ele>727.6</ele>
        <time>2022-05-24T13:47:49Z</time>
      </trkpt>
      <trkpt lat="46.85401" lon="5.97759">
        <ele>727.6</ele>
        <time>2022-05-24T13:47:50Z</time>
      </trkpt>
      <trkpt lat="46.85403" lon="5.97752">
        <ele>727.2</ele>
        <time>2022-05-24T13:47:51Z</time>
      </trkpt>
      <trkpt lat="46.85406" lon="5.97745">
        <ele>727</ele>
        <time>2022-05-24T13:47:52Z</time>
      </trkpt>
      <trkpt lat="46.85409" lon="5.97738">
        <ele>727</ele>
        <time>2022-05-24T13:47:53Z</time>
      </trkpt>
      <trkpt lat="46.85412" lon="5.97731">
        <ele>726.8</ele>
        <time>2022-05-24T13:47:54Z</time>
      </trkpt>
      <trkpt lat="46.85415" lon="5.97724">
        <ele>726.6</ele>
        <time>2022-05-24T13:47:55Z</time>
      </trkpt>
      <trkpt lat="46.85418" lon="5.97716">
        <ele>726.2</ele>
        <time>2022-05-24T13:47:56Z</time>
      </trkpt>
      <trkpt lat="46.85422" lon="5.97709">
        <ele>726</ele>
        <time>2022-05-24T13:47:57Z</time>
      </trkpt>
      <trkpt lat="46.85426" lon="5.97701">
        <ele>725.8</ele>
        <time>2022-05-24T13:47:58Z</time>
      </trkpt>
      <trkpt lat="46.85431" lon="5.97694">
        <ele>725.8</ele>
        <time>2022-05-24T13:47:59Z</time>
      </trkpt>
      <trkpt lat="46.85436" lon="5.97686">
        <ele>725.4</ele>
        <time>2022-05-24T13:48:00Z</time>
      </trkpt>
      <trkpt lat="46.85445" lon="5.97668">
        <ele>725</ele>
        <time>2022-05-24T13:48:01Z</time>
      </trkpt>
      <trkpt lat="46.8545" lon="5.97659">
        <ele>724.8</ele>
        <time>2022-05-24T13:48:02Z</time>
      </trkpt>
      <trkpt lat="46.85455" lon="5.9765">
        <ele>724.4</ele>
        <time>2022-05-24T13:48:03Z</time>
      </trkpt>
      <trkpt lat="46.85459" lon="5.9764">
        <ele>724</ele>
        <time>2022-05-24T13:48:04Z</time>
      </trkpt>
      <trkpt lat="46.85464" lon="5.97631">
        <ele>723.6</ele>
        <time>2022-05-24T13:48:05Z</time>
      </trkpt>
      <trkpt lat="46.85469" lon="5.97621">
        <ele>723.2</ele>
        <time>2022-05-24T13:48:06Z</time>
      </trkpt>
      <trkpt lat="46.85473" lon="5.9761">
        <ele>722.8</ele>
        <time>2022-05-24T13:48:07Z</time>
      </trkpt>
      <trkpt lat="46.85478" lon="5.976">
        <ele>722.4</ele>
        <time>2022-05-24T13:48:08Z</time>
      </trkpt>
      <trkpt lat="46.85483" lon="5.97589">
        <ele>722.2</ele>
        <time>2022-05-24T13:48:09Z</time>
      </trkpt>
      <trkpt lat="46.85487" lon="5.97578">
        <ele>721.8</ele>
        <time>2022-05-24T13:48:10Z</time>
      </trkpt>
      <trkpt lat="46.85492" lon="5.97567">
        <ele>721.4</ele>
        <time>2022-05-24T13:48:11Z</time>
      </trkpt>
      <trkpt lat="46.85497" lon="5.97556">
        <ele>721.2</ele>
        <time>2022-05-24T13:48:12Z</time>
      </trkpt>
      <trkpt lat="46.85501" lon="5.97545">
        <ele>720.8</ele>
        <time>2022-05-24T13:48:13Z</time>
      </trkpt>
      <trkpt lat="46.85504" lon="5.97533">
        <ele>720.4</ele>
        <time>2022-05-24T13:48:14Z</time>
      </trkpt>
      <trkpt lat="46.85507" lon="5.97522">
        <ele>720.4</ele>
        <time>2022-05-24T13:48:15Z</time>
      </trkpt>
      <trkpt lat="46.8551" lon="5.97512">
        <ele>720</ele>
        <time>2022-05-24T13:48:16Z</time>
      </trkpt>
      <trkpt lat="46.85513" lon="5.97501">
        <ele>720</ele>
        <time>2022-05-24T13:48:17Z</time>
      </trkpt>
      <trkpt lat="46.85517" lon="5.97491">
        <ele>719.6</ele>
        <time>2022-05-24T13:48:18Z</time>
      </trkpt>
      <trkpt lat="46.85521" lon="5.9748">
        <ele>719.2</ele>
        <time>2022-05-24T13:48:19Z</time>
      </trkpt>
      <trkpt lat="46.85526" lon="5.9747">
        <ele>719</ele>
        <time>2022-05-24T13:48:20Z</time>
      </trkpt>
      <trkpt lat="46.85532" lon="5.9746">
        <ele>718.6</ele>
        <time>2022-05-24T13:48:21Z</time>
      </trkpt>
      <trkpt lat="46.85538" lon="5.97449">
        <ele>718</ele>
        <time>2022-05-24T13:48:22Z</time>
      </trkpt>
      <trkpt lat="46.85544" lon="5.97439">
        <ele>717.4</ele>
        <time>2022-05-24T13:48:23Z</time>
      </trkpt>
      <trkpt lat="46.85551" lon="5.9743">
        <ele>717</ele>
        <time>2022-05-24T13:48:24Z</time>
      </trkpt>
      <trkpt lat="46.85557" lon="5.97421">
        <ele>716.4</ele>
        <time>2022-05-24T13:48:25Z</time>
      </trkpt>
      <trkpt lat="46.85563" lon="5.97412">
        <ele>715.8</ele>
        <time>2022-05-24T13:48:26Z</time>
      </trkpt>
      <trkpt lat="46.85569" lon="5.97404">
        <ele>715</ele>
        <time>2022-05-24T13:48:27Z</time>
      </trkpt>
      <trkpt lat="46.85574" lon="5.97396">
        <ele>714.2</ele>
        <time>2022-05-24T13:48:28Z</time>
      </trkpt>
      <trkpt lat="46.85579" lon="5.97388">
        <ele>713.2</ele>
        <time>2022-05-24T13:48:29Z</time>
      </trkpt>
      <trkpt lat="46.85584" lon="5.9738">
        <ele>712.4</ele>
        <time>2022-05-24T13:48:30Z</time>
      </trkpt>
      <trkpt lat="46.85589" lon="5.97374">
        <ele>711.4</ele>
        <time>2022-05-24T13:48:31Z</time>
      </trkpt>
      <trkpt lat="46.85595" lon="5.97367">
        <ele>710.6</ele>
        <time>2022-05-24T13:48:32Z</time>
      </trkpt>
      <trkpt lat="46.85602" lon="5.97361">
        <ele>709.6</ele>
        <time>2022-05-24T13:48:33Z</time>
      </trkpt>
      <trkpt lat="46.85609" lon="5.97356">
        <ele>708.4</ele>
        <time>2022-05-24T13:48:34Z</time>
      </trkpt>
      <trkpt lat="46.85616" lon="5.9735">
        <ele>707.4</ele>
        <time>2022-05-24T13:48:35Z</time>
      </trkpt>
      <trkpt lat="46.85624" lon="5.97345">
        <ele>706.4</ele>
        <time>2022-05-24T13:48:36Z</time>
      </trkpt>
      <trkpt lat="46.85632" lon="5.9734">
        <ele>705.6</ele>
        <time>2022-05-24T13:48:37Z</time>
      </trkpt>
      <trkpt lat="46.8564" lon="5.97334">
        <ele>704.4</ele>
        <time>2022-05-24T13:48:38Z</time>
      </trkpt>
      <trkpt lat="46.85648" lon="5.97328">
        <ele>703.4</ele>
        <time>2022-05-24T13:48:39Z</time>
      </trkpt>
      <trkpt lat="46.85656" lon="5.97322">
        <ele>702.2</ele>
        <time>2022-05-24T13:48:40Z</time>
      </trkpt>
      <trkpt lat="46.85664" lon="5.97316">
        <ele>702.2</ele>
        <time>2022-05-24T13:48:41Z</time>
      </trkpt>
      <trkpt lat="46.85671" lon="5.9731">
        <ele>701</ele>
        <time>2022-05-24T13:48:42Z</time>
      </trkpt>
      <trkpt lat="46.85677" lon="5.97304">
        <ele>700</ele>
        <time>2022-05-24T13:48:43Z</time>
      </trkpt>
      <trkpt lat="46.85684" lon="5.97298">
        <ele>698.8</ele>
        <time>2022-05-24T13:48:44Z</time>
      </trkpt>
      <trkpt lat="46.85689" lon="5.97293">
        <ele>697.8</ele>
        <time>2022-05-24T13:48:45Z</time>
      </trkpt>
      <trkpt lat="46.85695" lon="5.97289">
        <ele>696.6</ele>
        <time>2022-05-24T13:48:46Z</time>
      </trkpt>
      <trkpt lat="46.857" lon="5.97286">
        <ele>695.6</ele>
        <time>2022-05-24T13:48:47Z</time>
      </trkpt>
      <trkpt lat="46.85705" lon="5.97283">
        <ele>694.6</ele>
        <time>2022-05-24T13:48:48Z</time>
      </trkpt>
      <trkpt lat="46.85711" lon="5.9728">
        <ele>693.8</ele>
        <time>2022-05-24T13:48:49Z</time>
      </trkpt>
      <trkpt lat="46.85717" lon="5.97278">
        <ele>693</ele>
        <time>2022-05-24T13:48:50Z</time>
      </trkpt>
      <trkpt lat="46.85724" lon="5.97277">
        <ele>692.4</ele>
        <time>2022-05-24T13:48:51Z</time>
      </trkpt>
      <trkpt lat="46.85731" lon="5.97277">
        <ele>692</ele>
        <time>2022-05-24T13:48:52Z</time>
      </trkpt>
      <trkpt lat="46.85738" lon="5.97277">
        <ele>691.6</ele>
        <time>2022-05-24T13:48:53Z</time>
      </trkpt>
      <trkpt lat="46.85745" lon="5.97277">
        <ele>691.2</ele>
        <time>2022-05-24T13:48:54Z</time>
      </trkpt>
      <trkpt lat="46.85752" lon="5.97278">
        <ele>690.8</ele>
        <time>2022-05-24T13:48:55Z</time>
      </trkpt>
      <trkpt lat="46.85759" lon="5.97278">
        <ele>690.4</ele>
        <time>2022-05-24T13:48:56Z</time>
      </trkpt>
      <trkpt lat="46.85767" lon="5.97279">
        <ele>690</ele>
        <time>2022-05-24T13:48:57Z</time>
      </trkpt>
      <trkpt lat="46.85775" lon="5.9728">
        <ele>689.6</ele>
        <time>2022-05-24T13:48:58Z</time>
      </trkpt>
      <trkpt lat="46.85783" lon="5.97282">
        <ele>689.4</ele>
        <time>2022-05-24T13:48:59Z</time>
      </trkpt>
      <trkpt lat="46.85792" lon="5.97284">
        <ele>688.8</ele>
        <time>2022-05-24T13:49:00Z</time>
      </trkpt>
      <trkpt lat="46.858" lon="5.97287">
        <ele>688.6</ele>
        <time>2022-05-24T13:49:01Z</time>
      </trkpt>
      <trkpt lat="46.85809" lon="5.97291">
        <ele>688</ele>
        <time>2022-05-24T13:49:02Z</time>
      </trkpt>
      <trkpt lat="46.85818" lon="5.97295">
        <ele>687.8</ele>
        <time>2022-05-24T13:49:03Z</time>
      </trkpt>
      <trkpt lat="46.85827" lon="5.973">
        <ele>687.4</ele>
        <time>2022-05-24T13:49:04Z</time>
      </trkpt>
      <trkpt lat="46.85836" lon="5.97305">
        <ele>687</ele>
        <time>2022-05-24T13:49:05Z</time>
      </trkpt>
      <trkpt lat="46.85844" lon="5.97311">
        <ele>686.8</ele>
        <time>2022-05-24T13:49:06Z</time>
      </trkpt>
      <trkpt lat="46.85853" lon="5.97317">
        <ele>686.6</ele>
        <time>2022-05-24T13:49:07Z</time>
      </trkpt>
      <trkpt lat="46.85861" lon="5.97323">
        <ele>686.2</ele>
        <time>2022-05-24T13:49:08Z</time>
      </trkpt>
      <trkpt lat="46.8587" lon="5.97329">
        <ele>685.6</ele>
        <time>2022-05-24T13:49:09Z</time>
      </trkpt>
      <trkpt lat="46.85879" lon="5.97333">
        <ele>685</ele>
        <time>2022-05-24T13:49:10Z</time>
      </trkpt>
      <trkpt lat="46.85888" lon="5.97336">
        <ele>684.4</ele>
        <time>2022-05-24T13:49:11Z</time>
      </trkpt>
      <trkpt lat="46.85897" lon="5.97337">
        <ele>683.8</ele>
        <time>2022-05-24T13:49:12Z</time>
      </trkpt>
      <trkpt lat="46.85907" lon="5.97337">
        <ele>683</ele>
        <time>2022-05-24T13:49:13Z</time>
      </trkpt>
      <trkpt lat="46.85918" lon="5.97335">
        <ele>682.4</ele>
        <time>2022-05-24T13:49:14Z</time>
      </trkpt>
      <trkpt lat="46.85927" lon="5.97328">
        <ele>682</ele>
        <time>2022-05-24T13:49:15Z</time>
      </trkpt>
      <trkpt lat="46.85937" lon="5.97319">
        <ele>681.2</ele>
        <time>2022-05-24T13:49:16Z</time>
      </trkpt>
      <trkpt lat="46.85946" lon="5.97307">
        <ele>680.6</ele>
        <time>2022-05-24T13:49:17Z</time>
      </trkpt>
      <trkpt lat="46.85952" lon="5.97294">
        <ele>680</ele>
        <time>2022-05-24T13:49:18Z</time>
      </trkpt>
      <trkpt lat="46.85957" lon="5.97278">
        <ele>679.4</ele>
        <time>2022-05-24T13:49:19Z</time>
      </trkpt>
      <trkpt lat="46.8596" lon="5.97262">
        <ele>679</ele>
        <time>2022-05-24T13:49:20Z</time>
      </trkpt>
      <trkpt lat="46.85962" lon="5.97245">
        <ele>678.6</ele>
        <time>2022-05-24T13:49:21Z</time>
      </trkpt>
      <trkpt lat="46.85962" lon="5.9723">
        <ele>678.2</ele>
        <time>2022-05-24T13:49:22Z</time>
      </trkpt>
      <trkpt lat="46.85959" lon="5.97216">
        <ele>677.8</ele>
        <time>2022-05-24T13:49:23Z</time>
      </trkpt>
      <trkpt lat="46.85955" lon="5.97203">
        <ele>677.6</ele>
        <time>2022-05-24T13:49:24Z</time>
      </trkpt>
      <trkpt lat="46.85949" lon="5.97191">
        <ele>677.4</ele>
        <time>2022-05-24T13:49:25Z</time>
      </trkpt>
      <trkpt lat="46.8594" lon="5.97181">
        <ele>677</ele>
        <time>2022-05-24T13:49:26Z</time>
      </trkpt>
      <trkpt lat="46.85932" lon="5.97173">
        <ele>676.8</ele>
        <time>2022-05-24T13:49:27Z</time>
      </trkpt>
      <trkpt lat="46.85923" lon="5.97166">
        <ele>676.8</ele>
        <time>2022-05-24T13:49:28Z</time>
      </trkpt>
      <trkpt lat="46.85915" lon="5.97159">
        <ele>676.6</ele>
        <time>2022-05-24T13:49:29Z</time>
      </trkpt>
      <trkpt lat="46.85906" lon="5.97152">
        <ele>676.6</ele>
        <time>2022-05-24T13:49:30Z</time>
      </trkpt>
      <trkpt lat="46.85899" lon="5.97146">
        <ele>676.4</ele>
        <time>2022-05-24T13:49:31Z</time>
      </trkpt>
      <trkpt lat="46.85891" lon="5.97139">
        <ele>676.4</ele>
        <time>2022-05-24T13:49:32Z</time>
      </trkpt>
      <trkpt lat="46.85884" lon="5.97133">
        <ele>676</ele>
        <time>2022-05-24T13:49:33Z</time>
      </trkpt>
      <trkpt lat="46.85878" lon="5.97127">
        <ele>676</ele>
        <time>2022-05-24T13:49:34Z</time>
      </trkpt>
      <trkpt lat="46.85871" lon="5.9712">
        <ele>676</ele>
        <time>2022-05-24T13:49:35Z</time>
      </trkpt>
      <trkpt lat="46.85865" lon="5.97113">
        <ele>675.6</ele>
        <time>2022-05-24T13:49:36Z</time>
      </trkpt>
      <trkpt lat="46.8586" lon="5.97106">
        <ele>675.6</ele>
        <time>2022-05-24T13:49:37Z</time>
      </trkpt>
      <trkpt lat="46.85854" lon="5.97099">
        <ele>675.6</ele>
        <time>2022-05-24T13:49:38Z</time>
      </trkpt>
      <trkpt lat="46.8585" lon="5.97091">
        <ele>675.6</ele>
        <time>2022-05-24T13:49:39Z</time>
      </trkpt>
      <trkpt lat="46.85845" lon="5.97083">
        <ele>675.6</ele>
        <time>2022-05-24T13:49:40Z</time>
      </trkpt>
      <trkpt lat="46.85841" lon="5.97075">
        <ele>675.6</ele>
        <time>2022-05-24T13:49:41Z</time>
      </trkpt>
      <trkpt lat="46.85838" lon="5.97067">
        <ele>675.8</ele>
        <time>2022-05-24T13:49:42Z</time>
      </trkpt>
      <trkpt lat="46.85834" lon="5.97058">
        <ele>675.8</ele>
        <time>2022-05-24T13:49:43Z</time>
      </trkpt>
      <trkpt lat="46.85831" lon="5.9705">
        <ele>676.4</ele>
        <time>2022-05-24T13:49:44Z</time>
      </trkpt>
      <trkpt lat="46.85829" lon="5.97042">
        <ele>676.4</ele>
        <time>2022-05-24T13:49:45Z</time>
      </trkpt>
      <trkpt lat="46.85826" lon="5.97034">
        <ele>677</ele>
        <time>2022-05-24T13:49:46Z</time>
      </trkpt>
      <trkpt lat="46.85824" lon="5.97027">
        <ele>677.2</ele>
        <time>2022-05-24T13:49:47Z</time>
      </trkpt>
      <trkpt lat="46.85822" lon="5.97019">
        <ele>677.4</ele>
        <time>2022-05-24T13:49:48Z</time>
      </trkpt>
      <trkpt lat="46.8582" lon="5.97011">
        <ele>677.4</ele>
        <time>2022-05-24T13:49:49Z</time>
      </trkpt>
      <trkpt lat="46.85818" lon="5.97004">
        <ele>677.6</ele>
        <time>2022-05-24T13:49:50Z</time>
      </trkpt>
      <trkpt lat="46.85816" lon="5.96996">
        <ele>677.8</ele>
        <time>2022-05-24T13:49:51Z</time>
      </trkpt>
      <trkpt lat="46.85814" lon="5.96989">
        <ele>677.8</ele>
        <time>2022-05-24T13:49:52Z</time>
      </trkpt>
      <trkpt lat="46.85812" lon="5.96982">
        <ele>678.2</ele>
        <time>2022-05-24T13:49:53Z</time>
      </trkpt>
      <trkpt lat="46.85809" lon="5.96975">
        <ele>678.2</ele>
        <time>2022-05-24T13:49:54Z</time>
      </trkpt>
      <trkpt lat="46.85808" lon="5.96968">
        <ele>678.4</ele>
        <time>2022-05-24T13:49:55Z</time>
      </trkpt>
      <trkpt lat="46.85806" lon="5.96961">
        <ele>678.4</ele>
        <time>2022-05-24T13:49:56Z</time>
      </trkpt>
      <trkpt lat="46.85804" lon="5.96953">
        <ele>678.6</ele>
        <time>2022-05-24T13:49:57Z</time>
      </trkpt>
      <trkpt lat="46.85803" lon="5.96946">
        <ele>679</ele>
        <time>2022-05-24T13:49:58Z</time>
      </trkpt>
      <trkpt lat="46.85802" lon="5.96939">
        <ele>679</ele>
        <time>2022-05-24T13:49:59Z</time>
      </trkpt>
      <trkpt lat="46.858" lon="5.96933">
        <ele>679.2</ele>
        <time>2022-05-24T13:50:00Z</time>
      </trkpt>
      <trkpt lat="46.85799" lon="5.96926">
        <ele>679.2</ele>
        <time>2022-05-24T13:50:01Z</time>
      </trkpt>
      <trkpt lat="46.85799" lon="5.96919">
        <ele>679.4</ele>
        <time>2022-05-24T13:50:02Z</time>
      </trkpt>
      <trkpt lat="46.85798" lon="5.96912">
        <ele>679.6</ele>
        <time>2022-05-24T13:50:03Z</time>
      </trkpt>
      <trkpt lat="46.85798" lon="5.96906">
        <ele>679.8</ele>
        <time>2022-05-24T13:50:04Z</time>
      </trkpt>
      <trkpt lat="46.85798" lon="5.96899">
        <ele>679.8</ele>
        <time>2022-05-24T13:50:05Z</time>
      </trkpt>
      <trkpt lat="46.85798" lon="5.96893">
        <ele>680.2</ele>
        <time>2022-05-24T13:50:06Z</time>
      </trkpt>
      <trkpt lat="46.85798" lon="5.96886">
        <ele>680.2</ele>
        <time>2022-05-24T13:50:07Z</time>
      </trkpt>
      <trkpt lat="46.85798" lon="5.96881">
        <ele>680.6</ele>
        <time>2022-05-24T13:50:08Z</time>
      </trkpt>
      <trkpt lat="46.85799" lon="5.96875">
        <ele>680.6</ele>
        <time>2022-05-24T13:50:09Z</time>
      </trkpt>
      <trkpt lat="46.85799" lon="5.9687">
        <ele>680.8</ele>
        <time>2022-05-24T13:50:10Z</time>
      </trkpt>
      <trkpt lat="46.85799" lon="5.96865">
        <ele>680.8</ele>
        <time>2022-05-24T13:50:11Z</time>
      </trkpt>
      <trkpt lat="46.858" lon="5.9686">
        <ele>681.2</ele>
        <time>2022-05-24T13:50:12Z</time>
      </trkpt>
      <trkpt lat="46.858" lon="5.96855">
        <ele>681.2</ele>
        <time>2022-05-24T13:50:13Z</time>
      </trkpt>
      <trkpt lat="46.85801" lon="5.96849">
        <ele>681.6</ele>
        <time>2022-05-24T13:50:14Z</time>
      </trkpt>
      <trkpt lat="46.85802" lon="5.96843">
        <ele>681.8</ele>
        <time>2022-05-24T13:50:15Z</time>
      </trkpt>
      <trkpt lat="46.85802" lon="5.96843">
        <ele>682.2</ele>
        <time>2022-05-24T13:50:16Z</time>
      </trkpt>
      <trkpt lat="46.85803" lon="5.96837">
        <ele>682.2</ele>
        <time>2022-05-24T13:50:17Z</time>
      </trkpt>
      <trkpt lat="46.85804" lon="5.9683">
        <ele>682.4</ele>
        <time>2022-05-24T13:50:18Z</time>
      </trkpt>
      <trkpt lat="46.85805" lon="5.96824">
        <ele>682.4</ele>
        <time>2022-05-24T13:50:19Z</time>
      </trkpt>
      <trkpt lat="46.85807" lon="5.96818">
        <ele>682.6</ele>
        <time>2022-05-24T13:50:20Z</time>
      </trkpt>
      <trkpt lat="46.85808" lon="5.96812">
        <ele>682.6</ele>
        <time>2022-05-24T13:50:21Z</time>
      </trkpt>
      <trkpt lat="46.85809" lon="5.96805">
        <ele>683</ele>
        <time>2022-05-24T13:50:22Z</time>
      </trkpt>
      <trkpt lat="46.8581" lon="5.96798">
        <ele>683</ele>
        <time>2022-05-24T13:50:23Z</time>
      </trkpt>
      <trkpt lat="46.85812" lon="5.96791">
        <ele>683.4</ele>
        <time>2022-05-24T13:50:24Z</time>
      </trkpt>
      <trkpt lat="46.85814" lon="5.96784">
        <ele>683.4</ele>
        <time>2022-05-24T13:50:25Z</time>
      </trkpt>
      <trkpt lat="46.85815" lon="5.96777">
        <ele>683.6</ele>
        <time>2022-05-24T13:50:26Z</time>
      </trkpt>
      <trkpt lat="46.85817" lon="5.96769">
        <ele>683.6</ele>
        <time>2022-05-24T13:50:27Z</time>
      </trkpt>
      <trkpt lat="46.85819" lon="5.96762">
        <ele>684</ele>
        <time>2022-05-24T13:50:28Z</time>
      </trkpt>
      <trkpt lat="46.85821" lon="5.96755">
        <ele>684.4</ele>
        <time>2022-05-24T13:50:29Z</time>
      </trkpt>
      <trkpt lat="46.85823" lon="5.96748">
        <ele>684.4</ele>
        <time>2022-05-24T13:50:30Z</time>
      </trkpt>
      <trkpt lat="46.85826" lon="5.96741">
        <ele>684.6</ele>
        <time>2022-05-24T13:50:31Z</time>
      </trkpt>
      <trkpt lat="46.85829" lon="5.96734">
        <ele>684.6</ele>
        <time>2022-05-24T13:50:32Z</time>
      </trkpt>
      <trkpt lat="46.85832" lon="5.96728">
        <ele>684.6</ele>
        <time>2022-05-24T13:50:33Z</time>
      </trkpt>
      <trkpt lat="46.85835" lon="5.96721">
        <ele>684.8</ele>
        <time>2022-05-24T13:50:34Z</time>
      </trkpt>
      <trkpt lat="46.85838" lon="5.96715">
        <ele>684.8</ele>
        <time>2022-05-24T13:50:35Z</time>
      </trkpt>
      <trkpt lat="46.85842" lon="5.96709">
        <ele>685</ele>
        <time>2022-05-24T13:50:36Z</time>
      </trkpt>
      <trkpt lat="46.85845" lon="5.96703">
        <ele>685</ele>
        <time>2022-05-24T13:50:37Z</time>
      </trkpt>
      <trkpt lat="46.85849" lon="5.96698">
        <ele>685.4</ele>
        <time>2022-05-24T13:50:38Z</time>
      </trkpt>
      <trkpt lat="46.85852" lon="5.96692">
        <ele>685.4</ele>
        <time>2022-05-24T13:50:39Z</time>
      </trkpt>
      <trkpt lat="46.85856" lon="5.96687">
        <ele>685.4</ele>
        <time>2022-05-24T13:50:40Z</time>
      </trkpt>
      <trkpt lat="46.8586" lon="5.96681">
        <ele>685.6</ele>
        <time>2022-05-24T13:50:41Z</time>
      </trkpt>
      <trkpt lat="46.85864" lon="5.96675">
        <ele>685.6</ele>
        <time>2022-05-24T13:50:42Z</time>
      </trkpt>
      <trkpt lat="46.85869" lon="5.96669">
        <ele>685.6</ele>
        <time>2022-05-24T13:50:43Z</time>
      </trkpt>
      <trkpt lat="46.85873" lon="5.96663">
        <ele>685.6</ele>
        <time>2022-05-24T13:50:44Z</time>
      </trkpt>
      <trkpt lat="46.85878" lon="5.96656">
        <ele>685.2</ele>
        <time>2022-05-24T13:50:45Z</time>
      </trkpt>
      <trkpt lat="46.85883" lon="5.96648">
        <ele>685.2</ele>
        <time>2022-05-24T13:50:46Z</time>
      </trkpt>
      <trkpt lat="46.85889" lon="5.96641">
        <ele>684.8</ele>
        <time>2022-05-24T13:50:47Z</time>
      </trkpt>
      <trkpt lat="46.85895" lon="5.96632">
        <ele>684.4</ele>
        <time>2022-05-24T13:50:48Z</time>
      </trkpt>
      <trkpt lat="46.859" lon="5.96624">
        <ele>684</ele>
        <time>2022-05-24T13:50:49Z</time>
      </trkpt>
      <trkpt lat="46.85906" lon="5.96615">
        <ele>684</ele>
        <time>2022-05-24T13:50:50Z</time>
      </trkpt>
      <trkpt lat="46.85911" lon="5.96606">
        <ele>683.4</ele>
        <time>2022-05-24T13:50:51Z</time>
      </trkpt>
      <trkpt lat="46.85917" lon="5.96597">
        <ele>683.2</ele>
        <time>2022-05-24T13:50:52Z</time>
      </trkpt>
      <trkpt lat="46.85923" lon="5.96588">
        <ele>683</ele>
        <time>2022-05-24T13:50:53Z</time>
      </trkpt>
      <trkpt lat="46.85929" lon="5.96579">
        <ele>682.6</ele>
        <time>2022-05-24T13:50:54Z</time>
      </trkpt>
      <trkpt lat="46.85935" lon="5.96571">
        <ele>682.2</ele>
        <time>2022-05-24T13:50:55Z</time>
      </trkpt>
      <trkpt lat="46.85941" lon="5.96562">
        <ele>682</ele>
        <time>2022-05-24T13:50:56Z</time>
      </trkpt>
      <trkpt lat="46.85947" lon="5.96553">
        <ele>682</ele>
        <time>2022-05-24T13:50:57Z</time>
      </trkpt>
      <trkpt lat="46.85952" lon="5.96544">
        <ele>681.6</ele>
        <time>2022-05-24T13:50:58Z</time>
      </trkpt>
      <trkpt lat="46.85958" lon="5.96535">
        <ele>681.4</ele>
        <time>2022-05-24T13:50:59Z</time>
      </trkpt>
      <trkpt lat="46.85964" lon="5.96526">
        <ele>681</ele>
        <time>2022-05-24T13:51:00Z</time>
      </trkpt>
      <trkpt lat="46.8597" lon="5.96518">
        <ele>681</ele>
        <time>2022-05-24T13:51:01Z</time>
      </trkpt>
      <trkpt lat="46.85975" lon="5.96509">
        <ele>680.6</ele>
        <time>2022-05-24T13:51:02Z</time>
      </trkpt>
      <trkpt lat="46.85981" lon="5.965">
        <ele>680.6</ele>
        <time>2022-05-24T13:51:03Z</time>
      </trkpt>
      <trkpt lat="46.85987" lon="5.96492">
        <ele>680.4</ele>
        <time>2022-05-24T13:51:04Z</time>
      </trkpt>
      <trkpt lat="46.85992" lon="5.96484">
        <ele>680.2</ele>
        <time>2022-05-24T13:51:05Z</time>
      </trkpt>
      <trkpt lat="46.85998" lon="5.96476">
        <ele>680.2</ele>
        <time>2022-05-24T13:51:06Z</time>
      </trkpt>
      <trkpt lat="46.86003" lon="5.96468">
        <ele>680</ele>
        <time>2022-05-24T13:51:07Z</time>
      </trkpt>
      <trkpt lat="46.86008" lon="5.96461">
        <ele>679.8</ele>
        <time>2022-05-24T13:51:08Z</time>
      </trkpt>
      <trkpt lat="46.86013" lon="5.96453">
        <ele>679.8</ele>
        <time>2022-05-24T13:51:09Z</time>
      </trkpt>
      <trkpt lat="46.86018" lon="5.96445">
        <ele>679.6</ele>
        <time>2022-05-24T13:51:10Z</time>
      </trkpt>
      <trkpt lat="46.86023" lon="5.96438">
        <ele>679.6</ele>
        <time>2022-05-24T13:51:11Z</time>
      </trkpt>
      <trkpt lat="46.86028" lon="5.9643">
        <ele>679.6</ele>
        <time>2022-05-24T13:51:12Z</time>
      </trkpt>
      <trkpt lat="46.86033" lon="5.96423">
        <ele>679.6</ele>
        <time>2022-05-24T13:51:13Z</time>
      </trkpt>
      <trkpt lat="46.86038" lon="5.96415">
        <ele>679.6</ele>
        <time>2022-05-24T13:51:14Z</time>
      </trkpt>
      <trkpt lat="46.86043" lon="5.96408">
        <ele>679.2</ele>
        <time>2022-05-24T13:51:15Z</time>
      </trkpt>
      <trkpt lat="46.86048" lon="5.964">
        <ele>679.2</ele>
        <time>2022-05-24T13:51:16Z</time>
      </trkpt>
      <trkpt lat="46.86053" lon="5.96392">
        <ele>679.2</ele>
        <time>2022-05-24T13:51:17Z</time>
      </trkpt>
      <trkpt lat="46.86058" lon="5.96384">
        <ele>679.2</ele>
        <time>2022-05-24T13:51:18Z</time>
      </trkpt>
      <trkpt lat="46.86063" lon="5.96376">
        <ele>678.8</ele>
        <time>2022-05-24T13:51:19Z</time>
      </trkpt>
      <trkpt lat="46.86068" lon="5.96368">
        <ele>678.6</ele>
        <time>2022-05-24T13:51:20Z</time>
      </trkpt>
      <trkpt lat="46.86074" lon="5.9636">
        <ele>678.6</ele>
        <time>2022-05-24T13:51:21Z</time>
      </trkpt>
      <trkpt lat="46.86079" lon="5.96351">
        <ele>678.2</ele>
        <time>2022-05-24T13:51:22Z</time>
      </trkpt>
      <trkpt lat="46.86085" lon="5.96343">
        <ele>678.2</ele>
        <time>2022-05-24T13:51:23Z</time>
      </trkpt>
      <trkpt lat="46.8609" lon="5.96335">
        <ele>678.2</ele>
        <time>2022-05-24T13:51:24Z</time>
      </trkpt>
      <trkpt lat="46.86095" lon="5.96326">
        <ele>678</ele>
        <time>2022-05-24T13:51:25Z</time>
      </trkpt>
      <trkpt lat="46.86101" lon="5.96318">
        <ele>678</ele>
        <time>2022-05-24T13:51:26Z</time>
      </trkpt>
      <trkpt lat="46.86106" lon="5.9631">
        <ele>677.6</ele>
        <time>2022-05-24T13:51:27Z</time>
      </trkpt>
      <trkpt lat="46.86111" lon="5.96302">
        <ele>677.2</ele>
        <time>2022-05-24T13:51:28Z</time>
      </trkpt>
      <trkpt lat="46.86116" lon="5.96294">
        <ele>677</ele>
        <time>2022-05-24T13:51:29Z</time>
      </trkpt>
      <trkpt lat="46.86121" lon="5.96286">
        <ele>677</ele>
        <time>2022-05-24T13:51:30Z</time>
      </trkpt>
      <trkpt lat="46.86127" lon="5.96278">
        <ele>676.8</ele>
        <time>2022-05-24T13:51:31Z</time>
      </trkpt>
      <trkpt lat="46.86132" lon="5.9627">
        <ele>676.8</ele>
        <time>2022-05-24T13:51:32Z</time>
      </trkpt>
      <trkpt lat="46.86137" lon="5.96263">
        <ele>676.6</ele>
        <time>2022-05-24T13:51:33Z</time>
      </trkpt>
      <trkpt lat="46.86142" lon="5.96255">
        <ele>676.6</ele>
        <time>2022-05-24T13:51:34Z</time>
      </trkpt>
      <trkpt lat="46.86147" lon="5.96247">
        <ele>676.6</ele>
        <time>2022-05-24T13:51:35Z</time>
      </trkpt>
      <trkpt lat="46.86152" lon="5.96239">
        <ele>676.2</ele>
        <time>2022-05-24T13:51:36Z</time>
      </trkpt>
      <trkpt lat="46.86158" lon="5.96232">
        <ele>676.2</ele>
        <time>2022-05-24T13:51:37Z</time>
      </trkpt>
      <trkpt lat="46.86163" lon="5.96224">
        <ele>676</ele>
        <time>2022-05-24T13:51:38Z</time>
      </trkpt>
      <trkpt lat="46.86168" lon="5.96217">
        <ele>676</ele>
        <time>2022-05-24T13:51:39Z</time>
      </trkpt>
      <trkpt lat="46.86173" lon="5.96209">
        <ele>676</ele>
        <time>2022-05-24T13:51:40Z</time>
      </trkpt>
      <trkpt lat="46.86178" lon="5.96201">
        <ele>676</ele>
        <time>2022-05-24T13:51:41Z</time>
      </trkpt>
      <trkpt lat="46.86183" lon="5.96194">
        <ele>676</ele>
        <time>2022-05-24T13:51:42Z</time>
      </trkpt>
      <trkpt lat="46.86187" lon="5.96187">
        <ele>676</ele>
        <time>2022-05-24T13:51:43Z</time>
      </trkpt>
      <trkpt lat="46.86192" lon="5.9618">
        <ele>676</ele>
        <time>2022-05-24T13:51:44Z</time>
      </trkpt>
      <trkpt lat="46.86197" lon="5.96173">
        <ele>676</ele>
        <time>2022-05-24T13:51:45Z</time>
      </trkpt>
      <trkpt lat="46.86201" lon="5.96166">
        <ele>676</ele>
        <time>2022-05-24T13:51:46Z</time>
      </trkpt>
      <trkpt lat="46.86206" lon="5.96159">
        <ele>676</ele>
        <time>2022-05-24T13:51:47Z</time>
      </trkpt>
      <trkpt lat="46.8621" lon="5.96151">
        <ele>676</ele>
        <time>2022-05-24T13:51:48Z</time>
      </trkpt>
      <trkpt lat="46.86215" lon="5.96144">
        <ele>676</ele>
        <time>2022-05-24T13:51:49Z</time>
      </trkpt>
      <trkpt lat="46.86219" lon="5.96137">
        <ele>676</ele>
        <time>2022-05-24T13:51:50Z</time>
      </trkpt>
      <trkpt lat="46.86224" lon="5.9613">
        <ele>676</ele>
        <time>2022-05-24T13:51:51Z</time>
      </trkpt>
      <trkpt lat="46.86229" lon="5.96123">
        <ele>676</ele>
        <time>2022-05-24T13:51:52Z</time>
      </trkpt>
      <trkpt lat="46.86233" lon="5.96115">
        <ele>676</ele>
        <time>2022-05-24T13:51:53Z</time>
      </trkpt>
      <trkpt lat="46.86238" lon="5.96108">
        <ele>676</ele>
        <time>2022-05-24T13:51:54Z</time>
      </trkpt>
      <trkpt lat="46.86243" lon="5.96101">
        <ele>676</ele>
        <time>2022-05-24T13:51:55Z</time>
      </trkpt>
      <trkpt lat="46.86248" lon="5.96094">
        <ele>676</ele>
        <time>2022-05-24T13:51:56Z</time>
      </trkpt>
      <trkpt lat="46.86253" lon="5.96086">
        <ele>675.8</ele>
        <time>2022-05-24T13:51:57Z</time>
      </trkpt>
      <trkpt lat="46.86257" lon="5.96079">
        <ele>675.8</ele>
        <time>2022-05-24T13:51:58Z</time>
      </trkpt>
      <trkpt lat="46.86262" lon="5.96071">
        <ele>675.6</ele>
        <time>2022-05-24T13:51:59Z</time>
      </trkpt>
      <trkpt lat="46.86267" lon="5.96064">
        <ele>675.6</ele>
        <time>2022-05-24T13:52:00Z</time>
      </trkpt>
      <trkpt lat="46.86271" lon="5.96057">
        <ele>675.6</ele>
        <time>2022-05-24T13:52:01Z</time>
      </trkpt>
      <trkpt lat="46.86276" lon="5.9605">
        <ele>675.2</ele>
        <time>2022-05-24T13:52:02Z</time>
      </trkpt>
      <trkpt lat="46.86281" lon="5.96042">
        <ele>675.2</ele>
        <time>2022-05-24T13:52:03Z</time>
      </trkpt>
      <trkpt lat="46.86285" lon="5.96035">
        <ele>675</ele>
        <time>2022-05-24T13:52:04Z</time>
      </trkpt>
      <trkpt lat="46.8629" lon="5.96028">
        <ele>675</ele>
        <time>2022-05-24T13:52:05Z</time>
      </trkpt>
      <trkpt lat="46.86294" lon="5.9602">
        <ele>675</ele>
        <time>2022-05-24T13:52:06Z</time>
      </trkpt>
      <trkpt lat="46.86298" lon="5.96012">
        <ele>674.8</ele>
        <time>2022-05-24T13:52:07Z</time>
      </trkpt>
      <trkpt lat="46.86302" lon="5.96004">
        <ele>674.8</ele>
        <time>2022-05-24T13:52:08Z</time>
      </trkpt>
      <trkpt lat="46.86305" lon="5.95994">
        <ele>674.8</ele>
        <time>2022-05-24T13:52:09Z</time>
      </trkpt>
      <trkpt lat="46.86306" lon="5.95984">
        <ele>674.4</ele>
        <time>2022-05-24T13:52:10Z</time>
      </trkpt>
      <trkpt lat="46.86307" lon="5.95974">
        <ele>674.4</ele>
        <time>2022-05-24T13:52:11Z</time>
      </trkpt>
      <trkpt lat="46.86307" lon="5.95964">
        <ele>674.4</ele>
        <time>2022-05-24T13:52:12Z</time>
      </trkpt>
      <trkpt lat="46.86307" lon="5.95953">
        <ele>674.2</ele>
        <time>2022-05-24T13:52:13Z</time>
      </trkpt>
      <trkpt lat="46.86307" lon="5.95942">
        <ele>674.2</ele>
        <time>2022-05-24T13:52:14Z</time>
      </trkpt>
      <trkpt lat="46.86306" lon="5.95931">
        <ele>674</ele>
        <time>2022-05-24T13:52:15Z</time>
      </trkpt>
      <trkpt lat="46.86305" lon="5.9592">
        <ele>674</ele>
        <time>2022-05-24T13:52:16Z</time>
      </trkpt>
      <trkpt lat="46.86305" lon="5.95909">
        <ele>674</ele>
        <time>2022-05-24T13:52:17Z</time>
      </trkpt>
      <trkpt lat="46.86304" lon="5.95898">
        <ele>674</ele>
        <time>2022-05-24T13:52:18Z</time>
      </trkpt>
      <trkpt lat="46.86304" lon="5.95887">
        <ele>673.8</ele>
        <time>2022-05-24T13:52:19Z</time>
      </trkpt>
      <trkpt lat="46.86303" lon="5.95876">
        <ele>673.8</ele>
        <time>2022-05-24T13:52:20Z</time>
      </trkpt>
      <trkpt lat="46.86302" lon="5.95865">
        <ele>673.8</ele>
        <time>2022-05-24T13:52:21Z</time>
      </trkpt>
      <trkpt lat="46.86302" lon="5.95855">
        <ele>673.8</ele>
        <time>2022-05-24T13:52:22Z</time>
      </trkpt>
      <trkpt lat="46.86301" lon="5.95844">
        <ele>673.8</ele>
        <time>2022-05-24T13:52:23Z</time>
      </trkpt>
      <trkpt lat="46.863" lon="5.95834">
        <ele>673.8</ele>
        <time>2022-05-24T13:52:24Z</time>
      </trkpt>
      <trkpt lat="46.863" lon="5.95823">
        <ele>673.8</ele>
        <time>2022-05-24T13:52:25Z</time>
      </trkpt>
      <trkpt lat="46.86299" lon="5.95813">
        <ele>673.8</ele>
        <time>2022-05-24T13:52:26Z</time>
      </trkpt>
      <trkpt lat="46.86299" lon="5.95803">
        <ele>674</ele>
        <time>2022-05-24T13:52:27Z</time>
      </trkpt>
      <trkpt lat="46.86298" lon="5.95793">
        <ele>674</ele>
        <time>2022-05-24T13:52:28Z</time>
      </trkpt>
      <trkpt lat="46.86297" lon="5.95783">
        <ele>674</ele>
        <time>2022-05-24T13:52:29Z</time>
      </trkpt>
      <trkpt lat="46.86297" lon="5.95774">
        <ele>674</ele>
        <time>2022-05-24T13:52:30Z</time>
      </trkpt>
      <trkpt lat="46.86296" lon="5.95764">
        <ele>674</ele>
        <time>2022-05-24T13:52:31Z</time>
      </trkpt>
      <trkpt lat="46.86296" lon="5.95755">
        <ele>674</ele>
        <time>2022-05-24T13:52:32Z</time>
      </trkpt>
      <trkpt lat="46.86295" lon="5.95745">
        <ele>674.4</ele>
        <time>2022-05-24T13:52:33Z</time>
      </trkpt>
      <trkpt lat="46.86295" lon="5.95736">
        <ele>674.4</ele>
        <time>2022-05-24T13:52:34Z</time>
      </trkpt>
      <trkpt lat="46.86294" lon="5.95726">
        <ele>674.4</ele>
        <time>2022-05-24T13:52:35Z</time>
      </trkpt>
      <trkpt lat="46.86293" lon="5.95717">
        <ele>674.4</ele>
        <time>2022-05-24T13:52:36Z</time>
      </trkpt>
      <trkpt lat="46.86293" lon="5.95708">
        <ele>674.4</ele>
        <time>2022-05-24T13:52:37Z</time>
      </trkpt>
      <trkpt lat="46.86292" lon="5.95699">
        <ele>674.6</ele>
        <time>2022-05-24T13:52:38Z</time>
      </trkpt>
      <trkpt lat="46.86292" lon="5.95691">
        <ele>674.6</ele>
        <time>2022-05-24T13:52:39Z</time>
      </trkpt>
      <trkpt lat="46.86291" lon="5.95682">
        <ele>675</ele>
        <time>2022-05-24T13:52:40Z</time>
      </trkpt>
      <trkpt lat="46.86291" lon="5.95673">
        <ele>675</ele>
        <time>2022-05-24T13:52:41Z</time>
      </trkpt>
      <trkpt lat="46.8629" lon="5.95665">
        <ele>675</ele>
        <time>2022-05-24T13:52:42Z</time>
      </trkpt>
      <trkpt lat="46.8629" lon="5.95656">
        <ele>675.2</ele>
        <time>2022-05-24T13:52:43Z</time>
      </trkpt>
      <trkpt lat="46.86289" lon="5.95648">
        <ele>675.2</ele>
        <time>2022-05-24T13:52:44Z</time>
      </trkpt>
      <trkpt lat="46.86288" lon="5.95639">
        <ele>675.4</ele>
        <time>2022-05-24T13:52:45Z</time>
      </trkpt>
      <trkpt lat="46.86288" lon="5.95631">
        <ele>675.4</ele>
        <time>2022-05-24T13:52:46Z</time>
      </trkpt>
      <trkpt lat="46.86287" lon="5.95622">
        <ele>675.8</ele>
        <time>2022-05-24T13:52:47Z</time>
      </trkpt>
      <trkpt lat="46.86287" lon="5.95613">
        <ele>675.8</ele>
        <time>2022-05-24T13:52:48Z</time>
      </trkpt>
      <trkpt lat="46.86286" lon="5.95605">
        <ele>676.2</ele>
        <time>2022-05-24T13:52:49Z</time>
      </trkpt>
      <trkpt lat="46.86286" lon="5.95596">
        <ele>676.2</ele>
        <time>2022-05-24T13:52:50Z</time>
      </trkpt>
      <trkpt lat="46.86285" lon="5.95588">
        <ele>676.4</ele>
        <time>2022-05-24T13:52:51Z</time>
      </trkpt>
      <trkpt lat="46.86285" lon="5.95579">
        <ele>676.4</ele>
        <time>2022-05-24T13:52:52Z</time>
      </trkpt>
      <trkpt lat="46.86284" lon="5.95571">
        <ele>676.4</ele>
        <time>2022-05-24T13:52:53Z</time>
      </trkpt>
      <trkpt lat="46.86284" lon="5.95562">
        <ele>676.6</ele>
        <time>2022-05-24T13:52:54Z</time>
      </trkpt>
      <trkpt lat="46.86283" lon="5.95554">
        <ele>676.6</ele>
        <time>2022-05-24T13:52:55Z</time>
      </trkpt>
      <trkpt lat="46.86283" lon="5.95546">
        <ele>677</ele>
        <time>2022-05-24T13:52:56Z</time>
      </trkpt>
      <trkpt lat="46.86283" lon="5.95537">
        <ele>677</ele>
        <time>2022-05-24T13:52:57Z</time>
      </trkpt>
      <trkpt lat="46.86282" lon="5.95529">
        <ele>677</ele>
        <time>2022-05-24T13:52:58Z</time>
      </trkpt>
      <trkpt lat="46.86282" lon="5.9552">
        <ele>677</ele>
        <time>2022-05-24T13:52:59Z</time>
      </trkpt>
      <trkpt lat="46.86281" lon="5.95512">
        <ele>677.2</ele>
        <time>2022-05-24T13:53:00Z</time>
      </trkpt>
      <trkpt lat="46.86281" lon="5.95503">
        <ele>677.2</ele>
        <time>2022-05-24T13:53:01Z</time>
      </trkpt>
      <trkpt lat="46.8628" lon="5.95495">
        <ele>677.2</ele>
        <time>2022-05-24T13:53:02Z</time>
      </trkpt>
      <trkpt lat="46.8628" lon="5.95486">
        <ele>677.2</ele>
        <time>2022-05-24T13:53:03Z</time>
      </trkpt>
      <trkpt lat="46.86279" lon="5.95478">
        <ele>677.2</ele>
        <time>2022-05-24T13:53:04Z</time>
      </trkpt>
      <trkpt lat="46.86279" lon="5.9547">
        <ele>677.2</ele>
        <time>2022-05-24T13:53:05Z</time>
      </trkpt>
      <trkpt lat="46.86278" lon="5.95453">
        <ele>677.4</ele>
        <time>2022-05-24T13:53:06Z</time>
      </trkpt>
      <trkpt lat="46.86277" lon="5.95445">
        <ele>677.4</ele>
        <time>2022-05-24T13:53:07Z</time>
      </trkpt>
      <trkpt lat="46.86277" lon="5.95437">
        <ele>677.6</ele>
        <time>2022-05-24T13:53:08Z</time>
      </trkpt>
      <trkpt lat="46.86276" lon="5.95429">
        <ele>677.6</ele>
        <time>2022-05-24T13:53:09Z</time>
      </trkpt>
      <trkpt lat="46.86275" lon="5.95421">
        <ele>678</ele>
        <time>2022-05-24T13:53:10Z</time>
      </trkpt>
      <trkpt lat="46.86275" lon="5.95413">
        <ele>678</ele>
        <time>2022-05-24T13:53:11Z</time>
      </trkpt>
      <trkpt lat="46.86275" lon="5.95405">
        <ele>678.2</ele>
        <time>2022-05-24T13:53:12Z</time>
      </trkpt>
      <trkpt lat="46.86274" lon="5.95397">
        <ele>678.2</ele>
        <time>2022-05-24T13:53:13Z</time>
      </trkpt>
      <trkpt lat="46.86274" lon="5.95389">
        <ele>678.2</ele>
        <time>2022-05-24T13:53:14Z</time>
      </trkpt>
      <trkpt lat="46.86273" lon="5.95381">
        <ele>678.2</ele>
        <time>2022-05-24T13:53:15Z</time>
      </trkpt>
      <trkpt lat="46.86273" lon="5.95373">
        <ele>678.2</ele>
        <time>2022-05-24T13:53:16Z</time>
      </trkpt>
      <trkpt lat="46.86272" lon="5.95365">
        <ele>678.4</ele>
        <time>2022-05-24T13:53:17Z</time>
      </trkpt>
      <trkpt lat="46.86272" lon="5.95357">
        <ele>678.4</ele>
        <time>2022-05-24T13:53:18Z</time>
      </trkpt>
      <trkpt lat="46.86272" lon="5.95349">
        <ele>678.4</ele>
        <time>2022-05-24T13:53:19Z</time>
      </trkpt>
      <trkpt lat="46.86271" lon="5.95341">
        <ele>678.6</ele>
        <time>2022-05-24T13:53:20Z</time>
      </trkpt>
      <trkpt lat="46.86271" lon="5.95333">
        <ele>678.6</ele>
        <time>2022-05-24T13:53:21Z</time>
      </trkpt>
      <trkpt lat="46.8627" lon="5.95325">
        <ele>678.6</ele>
        <time>2022-05-24T13:53:22Z</time>
      </trkpt>
      <trkpt lat="46.8627" lon="5.95316">
        <ele>678.8</ele>
        <time>2022-05-24T13:53:23Z</time>
      </trkpt>
      <trkpt lat="46.86269" lon="5.95308">
        <ele>678.8</ele>
        <time>2022-05-24T13:53:24Z</time>
      </trkpt>
      <trkpt lat="46.86268" lon="5.95299">
        <ele>678.8</ele>
        <time>2022-05-24T13:53:25Z</time>
      </trkpt>
      <trkpt lat="46.86268" lon="5.9529">
        <ele>678.8</ele>
        <time>2022-05-24T13:53:26Z</time>
      </trkpt>
      <trkpt lat="46.86267" lon="5.95281">
        <ele>678.8</ele>
        <time>2022-05-24T13:53:27Z</time>
      </trkpt>
      <trkpt lat="46.86267" lon="5.95272">
        <ele>678.8</ele>
        <time>2022-05-24T13:53:28Z</time>
      </trkpt>
      <trkpt lat="46.86266" lon="5.95263">
        <ele>678.8</ele>
        <time>2022-05-24T13:53:29Z</time>
      </trkpt>
      <trkpt lat="46.86266" lon="5.95254">
        <ele>678.6</ele>
        <time>2022-05-24T13:53:30Z</time>
      </trkpt>
      <trkpt lat="46.86265" lon="5.95245">
        <ele>678.6</ele>
        <time>2022-05-24T13:53:31Z</time>
      </trkpt>
      <trkpt lat="46.86265" lon="5.95236">
        <ele>678.6</ele>
        <time>2022-05-24T13:53:32Z</time>
      </trkpt>
      <trkpt lat="46.86264" lon="5.95228">
        <ele>678.8</ele>
        <time>2022-05-24T13:53:33Z</time>
      </trkpt>
      <trkpt lat="46.86264" lon="5.95219">
        <ele>678.8</ele>
        <time>2022-05-24T13:53:34Z</time>
      </trkpt>
      <trkpt lat="46.86263" lon="5.9521">
        <ele>678.8</ele>
        <time>2022-05-24T13:53:35Z</time>
      </trkpt>
      <trkpt lat="46.86263" lon="5.95202">
        <ele>679</ele>
        <time>2022-05-24T13:53:36Z</time>
      </trkpt>
      <trkpt lat="46.86263" lon="5.95193">
        <ele>679</ele>
        <time>2022-05-24T13:53:37Z</time>
      </trkpt>
      <trkpt lat="46.86262" lon="5.95185">
        <ele>679</ele>
        <time>2022-05-24T13:53:38Z</time>
      </trkpt>
      <trkpt lat="46.86261" lon="5.95177">
        <ele>679</ele>
        <time>2022-05-24T13:53:39Z</time>
      </trkpt>
      <trkpt lat="46.86261" lon="5.95169">
        <ele>679</ele>
        <time>2022-05-24T13:53:40Z</time>
      </trkpt>
      <trkpt lat="46.8626" lon="5.95161">
        <ele>679</ele>
        <time>2022-05-24T13:53:41Z</time>
      </trkpt>
      <trkpt lat="46.86259" lon="5.95154">
        <ele>679</ele>
        <time>2022-05-24T13:53:42Z</time>
      </trkpt>
      <trkpt lat="46.86256" lon="5.95146">
        <ele>678.8</ele>
        <time>2022-05-24T13:53:43Z</time>
      </trkpt>
      <trkpt lat="46.86254" lon="5.95138">
        <ele>678.8</ele>
        <time>2022-05-24T13:53:44Z</time>
      </trkpt>
      <trkpt lat="46.8625" lon="5.95131">
        <ele>678.6</ele>
        <time>2022-05-24T13:53:45Z</time>
      </trkpt>
      <trkpt lat="46.86245" lon="5.95124">
        <ele>678.6</ele>
        <time>2022-05-24T13:53:46Z</time>
      </trkpt>
      <trkpt lat="46.8624" lon="5.95117">
        <ele>678.4</ele>
        <time>2022-05-24T13:53:47Z</time>
      </trkpt>
      <trkpt lat="46.86233" lon="5.95112">
        <ele>678.4</ele>
        <time>2022-05-24T13:53:48Z</time>
      </trkpt>
      <trkpt lat="46.86226" lon="5.95107">
        <ele>678</ele>
        <time>2022-05-24T13:53:49Z</time>
      </trkpt>
      <trkpt lat="46.86218" lon="5.95102">
        <ele>677.6</ele>
        <time>2022-05-24T13:53:50Z</time>
      </trkpt>
      <trkpt lat="46.8621" lon="5.95096">
        <ele>677.6</ele>
        <time>2022-05-24T13:53:51Z</time>
      </trkpt>
      <trkpt lat="46.86202" lon="5.95091">
        <ele>677</ele>
        <time>2022-05-24T13:53:52Z</time>
      </trkpt>
      <trkpt lat="46.86193" lon="5.95085">
        <ele>676.6</ele>
        <time>2022-05-24T13:53:53Z</time>
      </trkpt>
      <trkpt lat="46.86184" lon="5.95079">
        <ele>676.4</ele>
        <time>2022-05-24T13:53:54Z</time>
      </trkpt>
      <trkpt lat="46.86175" lon="5.95074">
        <ele>676.2</ele>
        <time>2022-05-24T13:53:55Z</time>
      </trkpt>
      <trkpt lat="46.86166" lon="5.95068">
        <ele>675.8</ele>
        <time>2022-05-24T13:53:56Z</time>
      </trkpt>
      <trkpt lat="46.86157" lon="5.95062">
        <ele>675.8</ele>
        <time>2022-05-24T13:53:57Z</time>
      </trkpt>
      <trkpt lat="46.86148" lon="5.95056">
        <ele>675.2</ele>
        <time>2022-05-24T13:53:58Z</time>
      </trkpt>
      <trkpt lat="46.86139" lon="5.9505">
        <ele>674.8</ele>
        <time>2022-05-24T13:53:59Z</time>
      </trkpt>
      <trkpt lat="46.86129" lon="5.95043">
        <ele>674.2</ele>
        <time>2022-05-24T13:54:00Z</time>
      </trkpt>
      <trkpt lat="46.86119" lon="5.95036">
        <ele>673.4</ele>
        <time>2022-05-24T13:54:01Z</time>
      </trkpt>
      <trkpt lat="46.86109" lon="5.9503">
        <ele>672.8</ele>
        <time>2022-05-24T13:54:02Z</time>
      </trkpt>
      <trkpt lat="46.86099" lon="5.95023">
        <ele>672.2</ele>
        <time>2022-05-24T13:54:03Z</time>
      </trkpt>
      <trkpt lat="46.86088" lon="5.95017">
        <ele>671.6</ele>
        <time>2022-05-24T13:54:04Z</time>
      </trkpt>
      <trkpt lat="46.86078" lon="5.9501">
        <ele>670.8</ele>
        <time>2022-05-24T13:54:05Z</time>
      </trkpt>
      <trkpt lat="46.86068" lon="5.95003">
        <ele>670.2</ele>
        <time>2022-05-24T13:54:06Z</time>
      </trkpt>
      <trkpt lat="46.86057" lon="5.94996">
        <ele>669.6</ele>
        <time>2022-05-24T13:54:07Z</time>
      </trkpt>
      <trkpt lat="46.86047" lon="5.94989">
        <ele>669.2</ele>
        <time>2022-05-24T13:54:08Z</time>
      </trkpt>
      <trkpt lat="46.86036" lon="5.94982">
        <ele>668.6</ele>
        <time>2022-05-24T13:54:09Z</time>
      </trkpt>
      <trkpt lat="46.86026" lon="5.94975">
        <ele>668</ele>
        <time>2022-05-24T13:54:10Z</time>
      </trkpt>
      <trkpt lat="46.86016" lon="5.94968">
        <ele>667.6</ele>
        <time>2022-05-24T13:54:11Z</time>
      </trkpt>
      <trkpt lat="46.86006" lon="5.94961">
        <ele>666.6</ele>
        <time>2022-05-24T13:54:12Z</time>
      </trkpt>
      <trkpt lat="46.85996" lon="5.94953">
        <ele>666.2</ele>
        <time>2022-05-24T13:54:13Z</time>
      </trkpt>
      <trkpt lat="46.85987" lon="5.94944">
        <ele>665.8</ele>
        <time>2022-05-24T13:54:14Z</time>
      </trkpt>
      <trkpt lat="46.85979" lon="5.94932">
        <ele>665.2</ele>
        <time>2022-05-24T13:54:15Z</time>
      </trkpt>
      <trkpt lat="46.85972" lon="5.94919">
        <ele>664.6</ele>
        <time>2022-05-24T13:54:16Z</time>
      </trkpt>
      <trkpt lat="46.85966" lon="5.94905">
        <ele>664.2</ele>
        <time>2022-05-24T13:54:17Z</time>
      </trkpt>
      <trkpt lat="46.85962" lon="5.9489">
        <ele>663.8</ele>
        <time>2022-05-24T13:54:18Z</time>
      </trkpt>
      <trkpt lat="46.85959" lon="5.94874">
        <ele>663.2</ele>
        <time>2022-05-24T13:54:19Z</time>
      </trkpt>
      <trkpt lat="46.85956" lon="5.94858">
        <ele>663</ele>
        <time>2022-05-24T13:54:20Z</time>
      </trkpt>
      <trkpt lat="46.85954" lon="5.94843">
        <ele>662.4</ele>
        <time>2022-05-24T13:54:21Z</time>
      </trkpt>
      <trkpt lat="46.85953" lon="5.94828">
        <ele>662</ele>
        <time>2022-05-24T13:54:22Z</time>
      </trkpt>
      <trkpt lat="46.8595" lon="5.94811">
        <ele>661.6</ele>
        <time>2022-05-24T13:54:23Z</time>
      </trkpt>
      <trkpt lat="46.85948" lon="5.94795">
        <ele>661.2</ele>
        <time>2022-05-24T13:54:24Z</time>
      </trkpt>
      <trkpt lat="46.85946" lon="5.94779">
        <ele>660.2</ele>
        <time>2022-05-24T13:54:25Z</time>
      </trkpt>
      <trkpt lat="46.85944" lon="5.94763">
        <ele>659.4</ele>
        <time>2022-05-24T13:54:26Z</time>
      </trkpt>
      <trkpt lat="46.85941" lon="5.94747">
        <ele>658.4</ele>
        <time>2022-05-24T13:54:27Z</time>
      </trkpt>
      <trkpt lat="46.85937" lon="5.94731">
        <ele>657.8</ele>
        <time>2022-05-24T13:54:28Z</time>
      </trkpt>
      <trkpt lat="46.85935" lon="5.94714">
        <ele>657.2</ele>
        <time>2022-05-24T13:54:29Z</time>
      </trkpt>
      <trkpt lat="46.85932" lon="5.94697">
        <ele>656.6</ele>
        <time>2022-05-24T13:54:30Z</time>
      </trkpt>
      <trkpt lat="46.85929" lon="5.9468">
        <ele>656</ele>
        <time>2022-05-24T13:54:31Z</time>
      </trkpt>
      <trkpt lat="46.85925" lon="5.94663">
        <ele>655.2</ele>
        <time>2022-05-24T13:54:32Z</time>
      </trkpt>
      <trkpt lat="46.85922" lon="5.94645">
        <ele>654.8</ele>
        <time>2022-05-24T13:54:33Z</time>
      </trkpt>
      <trkpt lat="46.8592" lon="5.94628">
        <ele>653.8</ele>
        <time>2022-05-24T13:54:34Z</time>
      </trkpt>
      <trkpt lat="46.85917" lon="5.9461">
        <ele>653</ele>
        <time>2022-05-24T13:54:35Z</time>
      </trkpt>
      <trkpt lat="46.85914" lon="5.94591">
        <ele>652.2</ele>
        <time>2022-05-24T13:54:36Z</time>
      </trkpt>
      <trkpt lat="46.85911" lon="5.94573">
        <ele>651.4</ele>
        <time>2022-05-24T13:54:37Z</time>
      </trkpt>
      <trkpt lat="46.85908" lon="5.94555">
        <ele>650.4</ele>
        <time>2022-05-24T13:54:38Z</time>
      </trkpt>
      <trkpt lat="46.85904" lon="5.94536">
        <ele>649.2</ele>
        <time>2022-05-24T13:54:39Z</time>
      </trkpt>
      <trkpt lat="46.85899" lon="5.94518">
        <ele>648.2</ele>
        <time>2022-05-24T13:54:40Z</time>
      </trkpt>
      <trkpt lat="46.85893" lon="5.94501">
        <ele>646.8</ele>
        <time>2022-05-24T13:54:41Z</time>
      </trkpt>
      <trkpt lat="46.85885" lon="5.94486">
        <ele>645.8</ele>
        <time>2022-05-24T13:54:42Z</time>
      </trkpt>
      <trkpt lat="46.85877" lon="5.94471">
        <ele>644.8</ele>
        <time>2022-05-24T13:54:43Z</time>
      </trkpt>
      <trkpt lat="46.85868" lon="5.94457">
        <ele>643.8</ele>
        <time>2022-05-24T13:54:44Z</time>
      </trkpt>
      <trkpt lat="46.85858" lon="5.94441">
        <ele>642.6</ele>
        <time>2022-05-24T13:54:45Z</time>
      </trkpt>
      <trkpt lat="46.85849" lon="5.94426">
        <ele>641.6</ele>
        <time>2022-05-24T13:54:46Z</time>
      </trkpt>
      <trkpt lat="46.85839" lon="5.94411">
        <ele>640.8</ele>
        <time>2022-05-24T13:54:47Z</time>
      </trkpt>
      <trkpt lat="46.8583" lon="5.94396">
        <ele>640</ele>
        <time>2022-05-24T13:54:48Z</time>
      </trkpt>
      <trkpt lat="46.85821" lon="5.94381">
        <ele>639.2</ele>
        <time>2022-05-24T13:54:49Z</time>
      </trkpt>
      <trkpt lat="46.85812" lon="5.94366">
        <ele>638.2</ele>
        <time>2022-05-24T13:54:50Z</time>
      </trkpt>
      <trkpt lat="46.85812" lon="5.94366">
        <ele>637.2</ele>
        <time>2022-05-24T13:54:51Z</time>
      </trkpt>
      <trkpt lat="46.85803" lon="5.94351">
        <ele>636.4</ele>
        <time>2022-05-24T13:54:52Z</time>
      </trkpt>
      <trkpt lat="46.85794" lon="5.94336">
        <ele>635.4</ele>
        <time>2022-05-24T13:54:53Z</time>
      </trkpt>
      <trkpt lat="46.85786" lon="5.94322">
        <ele>634.4</ele>
        <time>2022-05-24T13:54:54Z</time>
      </trkpt>
      <trkpt lat="46.85776" lon="5.94307">
        <ele>633.6</ele>
        <time>2022-05-24T13:54:55Z</time>
      </trkpt>
      <trkpt lat="46.85768" lon="5.94292">
        <ele>632.6</ele>
        <time>2022-05-24T13:54:56Z</time>
      </trkpt>
      <trkpt lat="46.85758" lon="5.94277">
        <ele>631.6</ele>
        <time>2022-05-24T13:54:57Z</time>
      </trkpt>
      <trkpt lat="46.85749" lon="5.94262">
        <ele>630.6</ele>
        <time>2022-05-24T13:54:58Z</time>
      </trkpt>
      <trkpt lat="46.8574" lon="5.94247">
        <ele>629.8</ele>
        <time>2022-05-24T13:54:59Z</time>
      </trkpt>
      <trkpt lat="46.85732" lon="5.94232">
        <ele>629</ele>
        <time>2022-05-24T13:55:00Z</time>
      </trkpt>
      <trkpt lat="46.85724" lon="5.94217">
        <ele>628.2</ele>
        <time>2022-05-24T13:55:01Z</time>
      </trkpt>
      <trkpt lat="46.85715" lon="5.94203">
        <ele>627.6</ele>
        <time>2022-05-24T13:55:02Z</time>
      </trkpt>
      <trkpt lat="46.85707" lon="5.94188">
        <ele>626.8</ele>
        <time>2022-05-24T13:55:03Z</time>
      </trkpt>
      <trkpt lat="46.85697" lon="5.94173">
        <ele>626.2</ele>
        <time>2022-05-24T13:55:04Z</time>
      </trkpt>
      <trkpt lat="46.85687" lon="5.94158">
        <ele>625.4</ele>
        <time>2022-05-24T13:55:05Z</time>
      </trkpt>
      <trkpt lat="46.85678" lon="5.94142">
        <ele>624.6</ele>
        <time>2022-05-24T13:55:06Z</time>
      </trkpt>
      <trkpt lat="46.85669" lon="5.94127">
        <ele>623.6</ele>
        <time>2022-05-24T13:55:07Z</time>
      </trkpt>
      <trkpt lat="46.85659" lon="5.94113">
        <ele>622.6</ele>
        <time>2022-05-24T13:55:08Z</time>
      </trkpt>
      <trkpt lat="46.8565" lon="5.94099">
        <ele>622</ele>
        <time>2022-05-24T13:55:09Z</time>
      </trkpt>
      <trkpt lat="46.85642" lon="5.94084">
        <ele>621.4</ele>
        <time>2022-05-24T13:55:10Z</time>
      </trkpt>
      <trkpt lat="46.85633" lon="5.94071">
        <ele>620.6</ele>
        <time>2022-05-24T13:55:11Z</time>
      </trkpt>
      <trkpt lat="46.85626" lon="5.94058">
        <ele>619.8</ele>
        <time>2022-05-24T13:55:12Z</time>
      </trkpt>
      <trkpt lat="46.85618" lon="5.94045">
        <ele>619</ele>
        <time>2022-05-24T13:55:13Z</time>
      </trkpt>
      <trkpt lat="46.8561" lon="5.94031">
        <ele>618.4</ele>
        <time>2022-05-24T13:55:14Z</time>
      </trkpt>
      <trkpt lat="46.85602" lon="5.94018">
        <ele>617.8</ele>
        <time>2022-05-24T13:55:15Z</time>
      </trkpt>
      <trkpt lat="46.85596" lon="5.94007">
        <ele>617.4</ele>
        <time>2022-05-24T13:55:16Z</time>
      </trkpt>
      <trkpt lat="46.85588" lon="5.93994">
        <ele>617</ele>
        <time>2022-05-24T13:55:17Z</time>
      </trkpt>
      <trkpt lat="46.85581" lon="5.93983">
        <ele>616.6</ele>
        <time>2022-05-24T13:55:18Z</time>
      </trkpt>
      <trkpt lat="46.85574" lon="5.93973">
        <ele>616.4</ele>
        <time>2022-05-24T13:55:19Z</time>
      </trkpt>
      <trkpt lat="46.85567" lon="5.93962">
        <ele>616</ele>
        <time>2022-05-24T13:55:20Z</time>
      </trkpt>
      <trkpt lat="46.8556" lon="5.93952">
        <ele>615.8</ele>
        <time>2022-05-24T13:55:21Z</time>
      </trkpt>
      <trkpt lat="46.85554" lon="5.93942">
        <ele>615.6</ele>
        <time>2022-05-24T13:55:22Z</time>
      </trkpt>
      <trkpt lat="46.85549" lon="5.9393">
        <ele>615.4</ele>
        <time>2022-05-24T13:55:23Z</time>
      </trkpt>
      <trkpt lat="46.85544" lon="5.9392">
        <ele>615.4</ele>
        <time>2022-05-24T13:55:24Z</time>
      </trkpt>
      <trkpt lat="46.85538" lon="5.93912">
        <ele>614.8</ele>
        <time>2022-05-24T13:55:25Z</time>
      </trkpt>
      <trkpt lat="46.85533" lon="5.93903">
        <ele>614.8</ele>
        <time>2022-05-24T13:55:26Z</time>
      </trkpt>
      <trkpt lat="46.85528" lon="5.93894">
        <ele>614.8</ele>
        <time>2022-05-24T13:55:27Z</time>
      </trkpt>
      <trkpt lat="46.85522" lon="5.93886">
        <ele>614.8</ele>
        <time>2022-05-24T13:55:28Z</time>
      </trkpt>
      <trkpt lat="46.85517" lon="5.93878">
        <ele>614.6</ele>
        <time>2022-05-24T13:55:29Z</time>
      </trkpt>
      <trkpt lat="46.85512" lon="5.93871">
        <ele>614.6</ele>
        <time>2022-05-24T13:55:30Z</time>
      </trkpt>
      <trkpt lat="46.85506" lon="5.93863">
        <ele>614.6</ele>
        <time>2022-05-24T13:55:31Z</time>
      </trkpt>
      <trkpt lat="46.85501" lon="5.93855">
        <ele>614.4</ele>
        <time>2022-05-24T13:55:32Z</time>
      </trkpt>
      <trkpt lat="46.85495" lon="5.93848">
        <ele>614.4</ele>
        <time>2022-05-24T13:55:33Z</time>
      </trkpt>
      <trkpt lat="46.85489" lon="5.93841">
        <ele>614.4</ele>
        <time>2022-05-24T13:55:34Z</time>
      </trkpt>
      <trkpt lat="46.85484" lon="5.93834">
        <ele>614.2</ele>
        <time>2022-05-24T13:55:35Z</time>
      </trkpt>
      <trkpt lat="46.85478" lon="5.93828">
        <ele>614.2</ele>
        <time>2022-05-24T13:55:36Z</time>
      </trkpt>
      <trkpt lat="46.85473" lon="5.93821">
        <ele>614.2</ele>
        <time>2022-05-24T13:55:37Z</time>
      </trkpt>
      <trkpt lat="46.85467" lon="5.93814">
        <ele>614.2</ele>
        <time>2022-05-24T13:55:38Z</time>
      </trkpt>
      <trkpt lat="46.85461" lon="5.93808">
        <ele>614.2</ele>
        <time>2022-05-24T13:55:39Z</time>
      </trkpt>
      <trkpt lat="46.85456" lon="5.93801">
        <ele>614.2</ele>
        <time>2022-05-24T13:55:40Z</time>
      </trkpt>
      <trkpt lat="46.8545" lon="5.93794">
        <ele>614</ele>
        <time>2022-05-24T13:55:41Z</time>
      </trkpt>
      <trkpt lat="46.85445" lon="5.93788">
        <ele>614</ele>
        <time>2022-05-24T13:55:42Z</time>
      </trkpt>
      <trkpt lat="46.8544" lon="5.93782">
        <ele>614</ele>
        <time>2022-05-24T13:55:43Z</time>
      </trkpt>
      <trkpt lat="46.85435" lon="5.93775">
        <ele>614</ele>
        <time>2022-05-24T13:55:44Z</time>
      </trkpt>
      <trkpt lat="46.85429" lon="5.93769">
        <ele>614</ele>
        <time>2022-05-24T13:55:45Z</time>
      </trkpt>
      <trkpt lat="46.85424" lon="5.93763">
        <ele>614</ele>
        <time>2022-05-24T13:55:46Z</time>
      </trkpt>
      <trkpt lat="46.85419" lon="5.93757">
        <ele>614</ele>
        <time>2022-05-24T13:55:47Z</time>
      </trkpt>
      <trkpt lat="46.85413" lon="5.93751">
        <ele>614</ele>
        <time>2022-05-24T13:55:48Z</time>
      </trkpt>
      <trkpt lat="46.85408" lon="5.93744">
        <ele>613.8</ele>
        <time>2022-05-24T13:55:49Z</time>
      </trkpt>
      <trkpt lat="46.85402" lon="5.93738">
        <ele>613.8</ele>
        <time>2022-05-24T13:55:50Z</time>
      </trkpt>
      <trkpt lat="46.85397" lon="5.93732">
        <ele>613.8</ele>
        <time>2022-05-24T13:55:51Z</time>
      </trkpt>
      <trkpt lat="46.85391" lon="5.93726">
        <ele>613.8</ele>
        <time>2022-05-24T13:55:52Z</time>
      </trkpt>
      <trkpt lat="46.85386" lon="5.93719">
        <ele>613.8</ele>
        <time>2022-05-24T13:55:53Z</time>
      </trkpt>
      <trkpt lat="46.8538" lon="5.93713">
        <ele>613.8</ele>
        <time>2022-05-24T13:55:54Z</time>
      </trkpt>
      <trkpt lat="46.85375" lon="5.93707">
        <ele>613.8</ele>
        <time>2022-05-24T13:55:55Z</time>
      </trkpt>
      <trkpt lat="46.8537" lon="5.937">
        <ele>613.8</ele>
        <time>2022-05-24T13:55:56Z</time>
      </trkpt>
      <trkpt lat="46.85365" lon="5.93694">
        <ele>613.8</ele>
        <time>2022-05-24T13:55:57Z</time>
      </trkpt>
      <trkpt lat="46.8536" lon="5.93687">
        <ele>613.8</ele>
        <time>2022-05-24T13:55:58Z</time>
      </trkpt>
      <trkpt lat="46.85355" lon="5.93681">
        <ele>613.8</ele>
        <time>2022-05-24T13:55:59Z</time>
      </trkpt>
      <trkpt lat="46.85349" lon="5.93674">
        <ele>613.8</ele>
        <time>2022-05-24T13:56:00Z</time>
      </trkpt>
      <trkpt lat="46.85344" lon="5.93668">
        <ele>613.8</ele>
        <time>2022-05-24T13:56:01Z</time>
      </trkpt>
      <trkpt lat="46.85339" lon="5.93662">
        <ele>614</ele>
        <time>2022-05-24T13:56:02Z</time>
      </trkpt>
      <trkpt lat="46.85334" lon="5.93656">
        <ele>614</ele>
        <time>2022-05-24T13:56:03Z</time>
      </trkpt>
      <trkpt lat="46.8533" lon="5.93651">
        <ele>614.4</ele>
        <time>2022-05-24T13:56:04Z</time>
      </trkpt>
      <trkpt lat="46.85325" lon="5.93645">
        <ele>614.4</ele>
        <time>2022-05-24T13:56:05Z</time>
      </trkpt>
      <trkpt lat="46.8532" lon="5.9364">
        <ele>614.6</ele>
        <time>2022-05-24T13:56:06Z</time>
      </trkpt>
      <trkpt lat="46.85316" lon="5.93634">
        <ele>614.6</ele>
        <time>2022-05-24T13:56:07Z</time>
      </trkpt>
      <trkpt lat="46.85312" lon="5.93628">
        <ele>614.6</ele>
        <time>2022-05-24T13:56:08Z</time>
      </trkpt>
      <trkpt lat="46.85308" lon="5.93623">
        <ele>614.6</ele>
        <time>2022-05-24T13:56:09Z</time>
      </trkpt>
      <trkpt lat="46.85304" lon="5.93619">
        <ele>615</ele>
        <time>2022-05-24T13:56:10Z</time>
      </trkpt>
      <trkpt lat="46.853" lon="5.93614">
        <ele>615</ele>
        <time>2022-05-24T13:56:11Z</time>
      </trkpt>
      <trkpt lat="46.85296" lon="5.93609">
        <ele>615.2</ele>
        <time>2022-05-24T13:56:12Z</time>
      </trkpt>
      <trkpt lat="46.85293" lon="5.93603">
        <ele>615.2</ele>
        <time>2022-05-24T13:56:13Z</time>
      </trkpt>
      <trkpt lat="46.85289" lon="5.93598">
        <ele>615.4</ele>
        <time>2022-05-24T13:56:14Z</time>
      </trkpt>
      <trkpt lat="46.85286" lon="5.93592">
        <ele>615.4</ele>
        <time>2022-05-24T13:56:15Z</time>
      </trkpt>
      <trkpt lat="46.85282" lon="5.93587">
        <ele>615.4</ele>
        <time>2022-05-24T13:56:16Z</time>
      </trkpt>
      <trkpt lat="46.85279" lon="5.93581">
        <ele>615.4</ele>
        <time>2022-05-24T13:56:17Z</time>
      </trkpt>
      <trkpt lat="46.85271" lon="5.93568">
        <ele>615.4</ele>
        <time>2022-05-24T13:56:18Z</time>
      </trkpt>
      <trkpt lat="46.85267" lon="5.93562">
        <ele>615.4</ele>
        <time>2022-05-24T13:56:19Z</time>
      </trkpt>
      <trkpt lat="46.85262" lon="5.93555">
        <ele>615.4</ele>
        <time>2022-05-24T13:56:20Z</time>
      </trkpt>
      <trkpt lat="46.85258" lon="5.93547">
        <ele>615.4</ele>
        <time>2022-05-24T13:56:21Z</time>
      </trkpt>
      <trkpt lat="46.85253" lon="5.9354">
        <ele>615.4</ele>
        <time>2022-05-24T13:56:22Z</time>
      </trkpt>
      <trkpt lat="46.85249" lon="5.93532">
        <ele>615.2</ele>
        <time>2022-05-24T13:56:23Z</time>
      </trkpt>
      <trkpt lat="46.85244" lon="5.93525">
        <ele>615.2</ele>
        <time>2022-05-24T13:56:24Z</time>
      </trkpt>
      <trkpt lat="46.85239" lon="5.93517">
        <ele>614.8</ele>
        <time>2022-05-24T13:56:25Z</time>
      </trkpt>
      <trkpt lat="46.85235" lon="5.93509">
        <ele>614.8</ele>
        <time>2022-05-24T13:56:26Z</time>
      </trkpt>
      <trkpt lat="46.85231" lon="5.935">
        <ele>614.6</ele>
        <time>2022-05-24T13:56:27Z</time>
      </trkpt>
      <trkpt lat="46.85227" lon="5.93491">
        <ele>614.6</ele>
        <time>2022-05-24T13:56:28Z</time>
      </trkpt>
      <trkpt lat="46.85225" lon="5.93481">
        <ele>614.6</ele>
        <time>2022-05-24T13:56:29Z</time>
      </trkpt>
      <trkpt lat="46.85222" lon="5.93471">
        <ele>614.6</ele>
        <time>2022-05-24T13:56:30Z</time>
      </trkpt>
      <trkpt lat="46.8522" lon="5.9346">
        <ele>614.2</ele>
        <time>2022-05-24T13:56:31Z</time>
      </trkpt>
      <trkpt lat="46.85218" lon="5.9345">
        <ele>613.8</ele>
        <time>2022-05-24T13:56:32Z</time>
      </trkpt>
      <trkpt lat="46.85216" lon="5.9344">
        <ele>613.4</ele>
        <time>2022-05-24T13:56:33Z</time>
      </trkpt>
      <trkpt lat="46.85213" lon="5.93429">
        <ele>613.4</ele>
        <time>2022-05-24T13:56:34Z</time>
      </trkpt>
      <trkpt lat="46.85211" lon="5.93419">
        <ele>613.2</ele>
        <time>2022-05-24T13:56:35Z</time>
      </trkpt>
      <trkpt lat="46.85208" lon="5.93408">
        <ele>613.2</ele>
        <time>2022-05-24T13:56:36Z</time>
      </trkpt>
      <trkpt lat="46.85206" lon="5.93398">
        <ele>613.2</ele>
        <time>2022-05-24T13:56:37Z</time>
      </trkpt>
      <trkpt lat="46.85203" lon="5.93388">
        <ele>612.8</ele>
        <time>2022-05-24T13:56:38Z</time>
      </trkpt>
      <trkpt lat="46.852" lon="5.93377">
        <ele>612.6</ele>
        <time>2022-05-24T13:56:39Z</time>
      </trkpt>
      <trkpt lat="46.85197" lon="5.93367">
        <ele>612.6</ele>
        <time>2022-05-24T13:56:40Z</time>
      </trkpt>
      <trkpt lat="46.85194" lon="5.93356">
        <ele>612.6</ele>
        <time>2022-05-24T13:56:41Z</time>
      </trkpt>
      <trkpt lat="46.85192" lon="5.93345">
        <ele>612.4</ele>
        <time>2022-05-24T13:56:42Z</time>
      </trkpt>
      <trkpt lat="46.85189" lon="5.93334">
        <ele>612.4</ele>
        <time>2022-05-24T13:56:43Z</time>
      </trkpt>
      <trkpt lat="46.85187" lon="5.93323">
        <ele>612.2</ele>
        <time>2022-05-24T13:56:44Z</time>
      </trkpt>
      <trkpt lat="46.85185" lon="5.93312">
        <ele>612.2</ele>
        <time>2022-05-24T13:56:45Z</time>
      </trkpt>
      <trkpt lat="46.85182" lon="5.93301">
        <ele>612.2</ele>
        <time>2022-05-24T13:56:46Z</time>
      </trkpt>
      <trkpt lat="46.85179" lon="5.93289">
        <ele>612</ele>
        <time>2022-05-24T13:56:47Z</time>
      </trkpt>
      <trkpt lat="46.85176" lon="5.93278">
        <ele>611.8</ele>
        <time>2022-05-24T13:56:48Z</time>
      </trkpt>
      <trkpt lat="46.85173" lon="5.93267">
        <ele>611.8</ele>
        <time>2022-05-24T13:56:49Z</time>
      </trkpt>
      <trkpt lat="46.85171" lon="5.93255">
        <ele>611.8</ele>
        <time>2022-05-24T13:56:50Z</time>
      </trkpt>
      <trkpt lat="46.85168" lon="5.93244">
        <ele>611.8</ele>
        <time>2022-05-24T13:56:51Z</time>
      </trkpt>
      <trkpt lat="46.85165" lon="5.93232">
        <ele>611.4</ele>
        <time>2022-05-24T13:56:52Z</time>
      </trkpt>
      <trkpt lat="46.85163" lon="5.93221">
        <ele>611</ele>
        <time>2022-05-24T13:56:53Z</time>
      </trkpt>
      <trkpt lat="46.8516" lon="5.9321">
        <ele>610.8</ele>
        <time>2022-05-24T13:56:54Z</time>
      </trkpt>
      <trkpt lat="46.85157" lon="5.93198">
        <ele>610.4</ele>
        <time>2022-05-24T13:56:55Z</time>
      </trkpt>
      <trkpt lat="46.85155" lon="5.93187">
        <ele>610.4</ele>
        <time>2022-05-24T13:56:56Z</time>
      </trkpt>
      <trkpt lat="46.85152" lon="5.93175">
        <ele>610.2</ele>
        <time>2022-05-24T13:56:57Z</time>
      </trkpt>
      <trkpt lat="46.8515" lon="5.93164">
        <ele>609.8</ele>
        <time>2022-05-24T13:56:58Z</time>
      </trkpt>
      <trkpt lat="46.85147" lon="5.93152">
        <ele>609.8</ele>
        <time>2022-05-24T13:56:59Z</time>
      </trkpt>
      <trkpt lat="46.85144" lon="5.9314">
        <ele>609.6</ele>
        <time>2022-05-24T13:57:00Z</time>
      </trkpt>
      <trkpt lat="46.85142" lon="5.93129">
        <ele>609.2</ele>
        <time>2022-05-24T13:57:01Z</time>
      </trkpt>
      <trkpt lat="46.85139" lon="5.93118">
        <ele>609</ele>
        <time>2022-05-24T13:57:02Z</time>
      </trkpt>
      <trkpt lat="46.85136" lon="5.93106">
        <ele>608.8</ele>
        <time>2022-05-24T13:57:03Z</time>
      </trkpt>
      <trkpt lat="46.85134" lon="5.93095">
        <ele>608.4</ele>
        <time>2022-05-24T13:57:04Z</time>
      </trkpt>
      <trkpt lat="46.85131" lon="5.93083">
        <ele>608.4</ele>
        <time>2022-05-24T13:57:05Z</time>
      </trkpt>
      <trkpt lat="46.85129" lon="5.93072">
        <ele>608.6</ele>
        <time>2022-05-24T13:57:06Z</time>
      </trkpt>
      <trkpt lat="46.85126" lon="5.93061">
        <ele>608.6</ele>
        <time>2022-05-24T13:57:07Z</time>
      </trkpt>
      <trkpt lat="46.85123" lon="5.9305">
        <ele>609</ele>
        <time>2022-05-24T13:57:08Z</time>
      </trkpt>
      <trkpt lat="46.8512" lon="5.93039">
        <ele>609</ele>
        <time>2022-05-24T13:57:09Z</time>
      </trkpt>
      <trkpt lat="46.85118" lon="5.93028">
        <ele>609</ele>
        <time>2022-05-24T13:57:10Z</time>
      </trkpt>
      <trkpt lat="46.85115" lon="5.93017">
        <ele>609</ele>
        <time>2022-05-24T13:57:11Z</time>
      </trkpt>
      <trkpt lat="46.85113" lon="5.93007">
        <ele>609</ele>
        <time>2022-05-24T13:57:12Z</time>
      </trkpt>
      <trkpt lat="46.8511" lon="5.92996">
        <ele>609</ele>
        <time>2022-05-24T13:57:13Z</time>
      </trkpt>
      <trkpt lat="46.85108" lon="5.92986">
        <ele>609</ele>
        <time>2022-05-24T13:57:14Z</time>
      </trkpt>
      <trkpt lat="46.85105" lon="5.92976">
        <ele>609</ele>
        <time>2022-05-24T13:57:15Z</time>
      </trkpt>
      <trkpt lat="46.85103" lon="5.92966">
        <ele>609</ele>
        <time>2022-05-24T13:57:16Z</time>
      </trkpt>
      <trkpt lat="46.85101" lon="5.92956">
        <ele>609</ele>
        <time>2022-05-24T13:57:17Z</time>
      </trkpt>
      <trkpt lat="46.85098" lon="5.92947">
        <ele>609</ele>
        <time>2022-05-24T13:57:18Z</time>
      </trkpt>
      <trkpt lat="46.85096" lon="5.92937">
        <ele>609</ele>
        <time>2022-05-24T13:57:19Z</time>
      </trkpt>
      <trkpt lat="46.85094" lon="5.92927">
        <ele>609</ele>
        <time>2022-05-24T13:57:20Z</time>
      </trkpt>
      <trkpt lat="46.85092" lon="5.92918">
        <ele>609</ele>
        <time>2022-05-24T13:57:21Z</time>
      </trkpt>
      <trkpt lat="46.85089" lon="5.92909">
        <ele>609</ele>
        <time>2022-05-24T13:57:22Z</time>
      </trkpt>
      <trkpt lat="46.85087" lon="5.929">
        <ele>609</ele>
        <time>2022-05-24T13:57:23Z</time>
      </trkpt>
      <trkpt lat="46.85084" lon="5.92891">
        <ele>609</ele>
        <time>2022-05-24T13:57:24Z</time>
      </trkpt>
      <trkpt lat="46.85082" lon="5.92882">
        <ele>609</ele>
        <time>2022-05-24T13:57:25Z</time>
      </trkpt>
      <trkpt lat="46.8508" lon="5.92873">
        <ele>609</ele>
        <time>2022-05-24T13:57:26Z</time>
      </trkpt>
      <trkpt lat="46.85078" lon="5.92864">
        <ele>609</ele>
        <time>2022-05-24T13:57:27Z</time>
      </trkpt>
      <trkpt lat="46.85075" lon="5.92855">
        <ele>609</ele>
        <time>2022-05-24T13:57:28Z</time>
      </trkpt>
      <trkpt lat="46.85073" lon="5.92846">
        <ele>609.2</ele>
        <time>2022-05-24T13:57:29Z</time>
      </trkpt>
      <trkpt lat="46.85071" lon="5.92838">
        <ele>609.2</ele>
        <time>2022-05-24T13:57:30Z</time>
      </trkpt>
      <trkpt lat="46.85068" lon="5.92829">
        <ele>609.2</ele>
        <time>2022-05-24T13:57:31Z</time>
      </trkpt>
      <trkpt lat="46.85066" lon="5.92821">
        <ele>609.4</ele>
        <time>2022-05-24T13:57:32Z</time>
      </trkpt>
      <trkpt lat="46.85064" lon="5.92812">
        <ele>609.4</ele>
        <time>2022-05-24T13:57:33Z</time>
      </trkpt>
      <trkpt lat="46.85062" lon="5.92803">
        <ele>609.4</ele>
        <time>2022-05-24T13:57:34Z</time>
      </trkpt>
      <trkpt lat="46.8506" lon="5.92794">
        <ele>609.4</ele>
        <time>2022-05-24T13:57:35Z</time>
      </trkpt>
      <trkpt lat="46.85058" lon="5.92785">
        <ele>609.4</ele>
        <time>2022-05-24T13:57:36Z</time>
      </trkpt>
      <trkpt lat="46.85056" lon="5.92776">
        <ele>609.8</ele>
        <time>2022-05-24T13:57:37Z</time>
      </trkpt>
      <trkpt lat="46.85055" lon="5.92767">
        <ele>609.8</ele>
        <time>2022-05-24T13:57:38Z</time>
      </trkpt>
      <trkpt lat="46.85055" lon="5.92767">
        <ele>609.8</ele>
        <time>2022-05-24T13:57:39Z</time>
      </trkpt>
      <trkpt lat="46.85053" lon="5.92758">
        <ele>610</ele>
        <time>2022-05-24T13:57:40Z</time>
      </trkpt>
      <trkpt lat="46.85051" lon="5.92749">
        <ele>610</ele>
        <time>2022-05-24T13:57:41Z</time>
      </trkpt>
      <trkpt lat="46.85049" lon="5.9274">
        <ele>610.2</ele>
        <time>2022-05-24T13:57:42Z</time>
      </trkpt>
      <trkpt lat="46.85047" lon="5.92731">
        <ele>610.2</ele>
        <time>2022-05-24T13:57:43Z</time>
      </trkpt>
      <trkpt lat="46.85045" lon="5.92722">
        <ele>610.2</ele>
        <time>2022-05-24T13:57:44Z</time>
      </trkpt>
      <trkpt lat="46.85042" lon="5.92714">
        <ele>610.2</ele>
        <time>2022-05-24T13:57:45Z</time>
      </trkpt>
      <trkpt lat="46.8504" lon="5.92705">
        <ele>610.2</ele>
        <time>2022-05-24T13:57:46Z</time>
      </trkpt>
      <trkpt lat="46.85038" lon="5.92696">
        <ele>610.2</ele>
        <time>2022-05-24T13:57:47Z</time>
      </trkpt>
      <trkpt lat="46.85036" lon="5.92688">
        <ele>610.2</ele>
        <time>2022-05-24T13:57:48Z</time>
      </trkpt>
      <trkpt lat="46.85034" lon="5.92679">
        <ele>610.2</ele>
        <time>2022-05-24T13:57:49Z</time>
      </trkpt>
      <trkpt lat="46.85032" lon="5.9267">
        <ele>610.2</ele>
        <time>2022-05-24T13:57:50Z</time>
      </trkpt>
      <trkpt lat="46.8503" lon="5.92661">
        <ele>610.2</ele>
        <time>2022-05-24T13:57:51Z</time>
      </trkpt>
      <trkpt lat="46.85028" lon="5.92653">
        <ele>610.2</ele>
        <time>2022-05-24T13:57:52Z</time>
      </trkpt>
      <trkpt lat="46.85026" lon="5.92644">
        <ele>610.4</ele>
        <time>2022-05-24T13:57:53Z</time>
      </trkpt>
      <trkpt lat="46.85024" lon="5.92635">
        <ele>610.4</ele>
        <time>2022-05-24T13:57:54Z</time>
      </trkpt>
      <trkpt lat="46.85021" lon="5.92626">
        <ele>610.4</ele>
        <time>2022-05-24T13:57:55Z</time>
      </trkpt>
      <trkpt lat="46.85019" lon="5.92617">
        <ele>610.4</ele>
        <time>2022-05-24T13:57:56Z</time>
      </trkpt>
      <trkpt lat="46.85017" lon="5.92609">
        <ele>610.8</ele>
        <time>2022-05-24T13:57:57Z</time>
      </trkpt>
      <trkpt lat="46.85015" lon="5.926">
        <ele>610.8</ele>
        <time>2022-05-24T13:57:58Z</time>
      </trkpt>
      <trkpt lat="46.85013" lon="5.92591">
        <ele>610.8</ele>
        <time>2022-05-24T13:57:59Z</time>
      </trkpt>
      <trkpt lat="46.85011" lon="5.92582">
        <ele>610.8</ele>
        <time>2022-05-24T13:58:00Z</time>
      </trkpt>
      <trkpt lat="46.85009" lon="5.92574">
        <ele>610.8</ele>
        <time>2022-05-24T13:58:01Z</time>
      </trkpt>
      <trkpt lat="46.85007" lon="5.92565">
        <ele>610.8</ele>
        <time>2022-05-24T13:58:02Z</time>
      </trkpt>
      <trkpt lat="46.85005" lon="5.92556">
        <ele>610.8</ele>
        <time>2022-05-24T13:58:03Z</time>
      </trkpt>
      <trkpt lat="46.85003" lon="5.92548">
        <ele>610.8</ele>
        <time>2022-05-24T13:58:04Z</time>
      </trkpt>
      <trkpt lat="46.85" lon="5.9254">
        <ele>610.8</ele>
        <time>2022-05-24T13:58:05Z</time>
      </trkpt>
      <trkpt lat="46.84998" lon="5.92531">
        <ele>610.8</ele>
        <time>2022-05-24T13:58:06Z</time>
      </trkpt>
      <trkpt lat="46.84996" lon="5.92523">
        <ele>610.8</ele>
        <time>2022-05-24T13:58:07Z</time>
      </trkpt>
      <trkpt lat="46.84994" lon="5.92514">
        <ele>610.8</ele>
        <time>2022-05-24T13:58:08Z</time>
      </trkpt>
      <trkpt lat="46.84992" lon="5.92506">
        <ele>610.8</ele>
        <time>2022-05-24T13:58:09Z</time>
      </trkpt>
      <trkpt lat="46.8499" lon="5.92497">
        <ele>610.8</ele>
        <time>2022-05-24T13:58:10Z</time>
      </trkpt>
      <trkpt lat="46.84988" lon="5.92489">
        <ele>610.8</ele>
        <time>2022-05-24T13:58:11Z</time>
      </trkpt>
      <trkpt lat="46.84986" lon="5.92481">
        <ele>610.8</ele>
        <time>2022-05-24T13:58:12Z</time>
      </trkpt>
      <trkpt lat="46.84984" lon="5.92473">
        <ele>611</ele>
        <time>2022-05-24T13:58:13Z</time>
      </trkpt>
      <trkpt lat="46.84982" lon="5.92464">
        <ele>611</ele>
        <time>2022-05-24T13:58:14Z</time>
      </trkpt>
      <trkpt lat="46.8498" lon="5.92456">
        <ele>610.8</ele>
        <time>2022-05-24T13:58:15Z</time>
      </trkpt>
      <trkpt lat="46.84978" lon="5.92447">
        <ele>610.8</ele>
        <time>2022-05-24T13:58:16Z</time>
      </trkpt>
      <trkpt lat="46.84975" lon="5.92439">
        <ele>610.8</ele>
        <time>2022-05-24T13:58:17Z</time>
      </trkpt>
      <trkpt lat="46.84973" lon="5.92431">
        <ele>610.8</ele>
        <time>2022-05-24T13:58:18Z</time>
      </trkpt>
      <trkpt lat="46.84969" lon="5.92423">
        <ele>610.8</ele>
        <time>2022-05-24T13:58:19Z</time>
      </trkpt>
      <trkpt lat="46.84965" lon="5.92417">
        <ele>610.6</ele>
        <time>2022-05-24T13:58:20Z</time>
      </trkpt>
      <trkpt lat="46.84959" lon="5.92412">
        <ele>610.6</ele>
        <time>2022-05-24T13:58:21Z</time>
      </trkpt>
      <trkpt lat="46.84953" lon="5.92408">
        <ele>610.4</ele>
        <time>2022-05-24T13:58:22Z</time>
      </trkpt>
      <trkpt lat="46.84946" lon="5.92405">
        <ele>610.4</ele>
        <time>2022-05-24T13:58:23Z</time>
      </trkpt>
      <trkpt lat="46.84939" lon="5.92402">
        <ele>610</ele>
        <time>2022-05-24T13:58:24Z</time>
      </trkpt>
      <trkpt lat="46.84932" lon="5.924">
        <ele>610</ele>
        <time>2022-05-24T13:58:25Z</time>
      </trkpt>
      <trkpt lat="46.84925" lon="5.92398">
        <ele>609.8</ele>
        <time>2022-05-24T13:58:26Z</time>
      </trkpt>
      <trkpt lat="46.84918" lon="5.92396">
        <ele>609.8</ele>
        <time>2022-05-24T13:58:27Z</time>
      </trkpt>
      <trkpt lat="46.8491" lon="5.92394">
        <ele>609.4</ele>
        <time>2022-05-24T13:58:28Z</time>
      </trkpt>
      <trkpt lat="46.84902" lon="5.92392">
        <ele>609.4</ele>
        <time>2022-05-24T13:58:29Z</time>
      </trkpt>
      <trkpt lat="46.84895" lon="5.9239">
        <ele>609.2</ele>
        <time>2022-05-24T13:58:30Z</time>
      </trkpt>
      <trkpt lat="46.84887" lon="5.92388">
        <ele>608.8</ele>
        <time>2022-05-24T13:58:31Z</time>
      </trkpt>
      <trkpt lat="46.84879" lon="5.92386">
        <ele>608.6</ele>
        <time>2022-05-24T13:58:32Z</time>
      </trkpt>
      <trkpt lat="46.84871" lon="5.92385">
        <ele>608.6</ele>
        <time>2022-05-24T13:58:33Z</time>
      </trkpt>
      <trkpt lat="46.84863" lon="5.92383">
        <ele>608.2</ele>
        <time>2022-05-24T13:58:34Z</time>
      </trkpt>
      <trkpt lat="46.84854" lon="5.92381">
        <ele>608.2</ele>
        <time>2022-05-24T13:58:35Z</time>
      </trkpt>
      <trkpt lat="46.84846" lon="5.92379">
        <ele>608.2</ele>
        <time>2022-05-24T13:58:36Z</time>
      </trkpt>
      <trkpt lat="46.84837" lon="5.92378">
        <ele>607.8</ele>
        <time>2022-05-24T13:58:37Z</time>
      </trkpt>
      <trkpt lat="46.84828" lon="5.92376">
        <ele>607.8</ele>
        <time>2022-05-24T13:58:38Z</time>
      </trkpt>
      <trkpt lat="46.8482" lon="5.92374">
        <ele>607.6</ele>
        <time>2022-05-24T13:58:39Z</time>
      </trkpt>
      <trkpt lat="46.84811" lon="5.92371">
        <ele>607.2</ele>
        <time>2022-05-24T13:58:40Z</time>
      </trkpt>
      <trkpt lat="46.84802" lon="5.92369">
        <ele>607</ele>
        <time>2022-05-24T13:58:41Z</time>
      </trkpt>
      <trkpt lat="46.84794" lon="5.92367">
        <ele>606.8</ele>
        <time>2022-05-24T13:58:42Z</time>
      </trkpt>
      <trkpt lat="46.84785" lon="5.92365">
        <ele>606.4</ele>
        <time>2022-05-24T13:58:43Z</time>
      </trkpt>
      <trkpt lat="46.84777" lon="5.92363">
        <ele>606.2</ele>
        <time>2022-05-24T13:58:44Z</time>
      </trkpt>
      <trkpt lat="46.84768" lon="5.92362">
        <ele>606</ele>
        <time>2022-05-24T13:58:45Z</time>
      </trkpt>
      <trkpt lat="46.8476" lon="5.9236">
        <ele>605.8</ele>
        <time>2022-05-24T13:58:46Z</time>
      </trkpt>
      <trkpt lat="46.84751" lon="5.92358">
        <ele>605.4</ele>
        <time>2022-05-24T13:58:47Z</time>
      </trkpt>
      <trkpt lat="46.84742" lon="5.92357">
        <ele>605.2</ele>
        <time>2022-05-24T13:58:48Z</time>
      </trkpt>
      <trkpt lat="46.84733" lon="5.92355">
        <ele>605.2</ele>
        <time>2022-05-24T13:58:49Z</time>
      </trkpt>
      <trkpt lat="46.84724" lon="5.92353">
        <ele>604.8</ele>
        <time>2022-05-24T13:58:50Z</time>
      </trkpt>
      <trkpt lat="46.84716" lon="5.92352">
        <ele>604.6</ele>
        <time>2022-05-24T13:58:51Z</time>
      </trkpt>
      <trkpt lat="46.84707" lon="5.9235">
        <ele>604.4</ele>
        <time>2022-05-24T13:58:52Z</time>
      </trkpt>
      <trkpt lat="46.84698" lon="5.92348">
        <ele>604.4</ele>
        <time>2022-05-24T13:58:53Z</time>
      </trkpt>
      <trkpt lat="46.84689" lon="5.92346">
        <ele>604.4</ele>
        <time>2022-05-24T13:58:54Z</time>
      </trkpt>
      <trkpt lat="46.8468" lon="5.92343">
        <ele>604</ele>
        <time>2022-05-24T13:58:55Z</time>
      </trkpt>
      <trkpt lat="46.84671" lon="5.9234">
        <ele>604</ele>
        <time>2022-05-24T13:58:56Z</time>
      </trkpt>
      <trkpt lat="46.84662" lon="5.92336">
        <ele>603.8</ele>
        <time>2022-05-24T13:58:57Z</time>
      </trkpt>
      <trkpt lat="46.84654" lon="5.92331">
        <ele>603.8</ele>
        <time>2022-05-24T13:58:58Z</time>
      </trkpt>
      <trkpt lat="46.84646" lon="5.92324">
        <ele>603.4</ele>
        <time>2022-05-24T13:58:59Z</time>
      </trkpt>
      <trkpt lat="46.84639" lon="5.92316">
        <ele>603.4</ele>
        <time>2022-05-24T13:59:00Z</time>
      </trkpt>
      <trkpt lat="46.84632" lon="5.92308">
        <ele>603.2</ele>
        <time>2022-05-24T13:59:01Z</time>
      </trkpt>
      <trkpt lat="46.84626" lon="5.923">
        <ele>603.2</ele>
        <time>2022-05-24T13:59:02Z</time>
      </trkpt>
      <trkpt lat="46.84621" lon="5.92292">
        <ele>603</ele>
        <time>2022-05-24T13:59:03Z</time>
      </trkpt>
      <trkpt lat="46.84615" lon="5.92283">
        <ele>603</ele>
        <time>2022-05-24T13:59:04Z</time>
      </trkpt>
      <trkpt lat="46.8461" lon="5.92274">
        <ele>602.8</ele>
        <time>2022-05-24T13:59:05Z</time>
      </trkpt>
      <trkpt lat="46.84604" lon="5.92266">
        <ele>602.8</ele>
        <time>2022-05-24T13:59:06Z</time>
      </trkpt>
      <trkpt lat="46.84599" lon="5.92257">
        <ele>602.8</ele>
        <time>2022-05-24T13:59:07Z</time>
      </trkpt>
      <trkpt lat="46.84594" lon="5.92249">
        <ele>602.4</ele>
        <time>2022-05-24T13:59:08Z</time>
      </trkpt>
      <trkpt lat="46.84588" lon="5.9224">
        <ele>602.4</ele>
        <time>2022-05-24T13:59:09Z</time>
      </trkpt>
      <trkpt lat="46.84583" lon="5.92232">
        <ele>602.4</ele>
        <time>2022-05-24T13:59:10Z</time>
      </trkpt>
      <trkpt lat="46.84578" lon="5.92224">
        <ele>602.2</ele>
        <time>2022-05-24T13:59:11Z</time>
      </trkpt>
      <trkpt lat="46.84573" lon="5.92216">
        <ele>602.2</ele>
        <time>2022-05-24T13:59:12Z</time>
      </trkpt>
      <trkpt lat="46.84568" lon="5.92208">
        <ele>602.2</ele>
        <time>2022-05-24T13:59:13Z</time>
      </trkpt>
      <trkpt lat="46.84563" lon="5.922">
        <ele>602.2</ele>
        <time>2022-05-24T13:59:14Z</time>
      </trkpt>
      <trkpt lat="46.84558" lon="5.92192">
        <ele>602.2</ele>
        <time>2022-05-24T13:59:15Z</time>
      </trkpt>
      <trkpt lat="46.84552" lon="5.92184">
        <ele>602.2</ele>
        <time>2022-05-24T13:59:16Z</time>
      </trkpt>
      <trkpt lat="46.84547" lon="5.92176">
        <ele>602.2</ele>
        <time>2022-05-24T13:59:17Z</time>
      </trkpt>
      <trkpt lat="46.84542" lon="5.92168">
        <ele>602</ele>
        <time>2022-05-24T13:59:18Z</time>
      </trkpt>
      <trkpt lat="46.84537" lon="5.9216">
        <ele>602</ele>
        <time>2022-05-24T13:59:19Z</time>
      </trkpt>
      <trkpt lat="46.84532" lon="5.92152">
        <ele>602</ele>
        <time>2022-05-24T13:59:20Z</time>
      </trkpt>
      <trkpt lat="46.84527" lon="5.92144">
        <ele>602</ele>
        <time>2022-05-24T13:59:21Z</time>
      </trkpt>
      <trkpt lat="46.84517" lon="5.92129">
        <ele>602</ele>
        <time>2022-05-24T13:59:22Z</time>
      </trkpt>
      <trkpt lat="46.84512" lon="5.92121">
        <ele>602</ele>
        <time>2022-05-24T13:59:23Z</time>
      </trkpt>
      <trkpt lat="46.84507" lon="5.92113">
        <ele>602.2</ele>
        <time>2022-05-24T13:59:24Z</time>
      </trkpt>
      <trkpt lat="46.84502" lon="5.92106">
        <ele>602.2</ele>
        <time>2022-05-24T13:59:25Z</time>
      </trkpt>
      <trkpt lat="46.84497" lon="5.92098">
        <ele>602.2</ele>
        <time>2022-05-24T13:59:26Z</time>
      </trkpt>
      <trkpt lat="46.84492" lon="5.92091">
        <ele>602.2</ele>
        <time>2022-05-24T13:59:27Z</time>
      </trkpt>
      <trkpt lat="46.84488" lon="5.92083">
        <ele>602.2</ele>
        <time>2022-05-24T13:59:28Z</time>
      </trkpt>
      <trkpt lat="46.84483" lon="5.92076">
        <ele>602.2</ele>
        <time>2022-05-24T13:59:29Z</time>
      </trkpt>
      <trkpt lat="46.84478" lon="5.92068">
        <ele>602.2</ele>
        <time>2022-05-24T13:59:30Z</time>
      </trkpt>
      <trkpt lat="46.84473" lon="5.92061">
        <ele>602.2</ele>
        <time>2022-05-24T13:59:31Z</time>
      </trkpt>
      <trkpt lat="46.84469" lon="5.92053">
        <ele>602.2</ele>
        <time>2022-05-24T13:59:32Z</time>
      </trkpt>
      <trkpt lat="46.84464" lon="5.92046">
        <ele>602.2</ele>
        <time>2022-05-24T13:59:33Z</time>
      </trkpt>
      <trkpt lat="46.84459" lon="5.92038">
        <ele>602.2</ele>
        <time>2022-05-24T13:59:34Z</time>
      </trkpt>
      <trkpt lat="46.84454" lon="5.9203">
        <ele>602.2</ele>
        <time>2022-05-24T13:59:35Z</time>
      </trkpt>
      <trkpt lat="46.84449" lon="5.92023">
        <ele>602.2</ele>
        <time>2022-05-24T13:59:36Z</time>
      </trkpt>
      <trkpt lat="46.84444" lon="5.92016">
        <ele>602.6</ele>
        <time>2022-05-24T13:59:37Z</time>
      </trkpt>
      <trkpt lat="46.8444" lon="5.92009">
        <ele>602.6</ele>
        <time>2022-05-24T13:59:38Z</time>
      </trkpt>
      <trkpt lat="46.84435" lon="5.92002">
        <ele>602.8</ele>
        <time>2022-05-24T13:59:39Z</time>
      </trkpt>
      <trkpt lat="46.84431" lon="5.91995">
        <ele>602.8</ele>
        <time>2022-05-24T13:59:40Z</time>
      </trkpt>
      <trkpt lat="46.84427" lon="5.91988">
        <ele>603</ele>
        <time>2022-05-24T13:59:41Z</time>
      </trkpt>
      <trkpt lat="46.84422" lon="5.91981">
        <ele>603</ele>
        <time>2022-05-24T13:59:42Z</time>
      </trkpt>
      <trkpt lat="46.84418" lon="5.91974">
        <ele>603</ele>
        <time>2022-05-24T13:59:43Z</time>
      </trkpt>
      <trkpt lat="46.84414" lon="5.91968">
        <ele>603</ele>
        <time>2022-05-24T13:59:44Z</time>
      </trkpt>
      <trkpt lat="46.8441" lon="5.91961">
        <ele>603.2</ele>
        <time>2022-05-24T13:59:45Z</time>
      </trkpt>
      <trkpt lat="46.84406" lon="5.91955">
        <ele>603.2</ele>
        <time>2022-05-24T13:59:46Z</time>
      </trkpt>
      <trkpt lat="46.84402" lon="5.91948">
        <ele>603.2</ele>
        <time>2022-05-24T13:59:47Z</time>
      </trkpt>
      <trkpt lat="46.84398" lon="5.91942">
        <ele>603.2</ele>
        <time>2022-05-24T13:59:48Z</time>
      </trkpt>
      <trkpt lat="46.84394" lon="5.91936">
        <ele>603.6</ele>
        <time>2022-05-24T13:59:49Z</time>
      </trkpt>
      <trkpt lat="46.8439" lon="5.9193">
        <ele>603.6</ele>
        <time>2022-05-24T13:59:50Z</time>
      </trkpt>
      <trkpt lat="46.84386" lon="5.91925">
        <ele>603.8</ele>
        <time>2022-05-24T13:59:51Z</time>
      </trkpt>
      <trkpt lat="46.84383" lon="5.91919">
        <ele>603.8</ele>
        <time>2022-05-24T13:59:52Z</time>
      </trkpt>
      <trkpt lat="46.84379" lon="5.91914">
        <ele>604</ele>
        <time>2022-05-24T13:59:53Z</time>
      </trkpt>
      <trkpt lat="46.84376" lon="5.91909">
        <ele>604.2</ele>
        <time>2022-05-24T13:59:54Z</time>
      </trkpt>
      <trkpt lat="46.84373" lon="5.91905">
        <ele>604.2</ele>
        <time>2022-05-24T13:59:55Z</time>
      </trkpt>
      <trkpt lat="46.8437" lon="5.919">
        <ele>604.6</ele>
        <time>2022-05-24T13:59:56Z</time>
      </trkpt>
      <trkpt lat="46.84368" lon="5.91896">
        <ele>604.6</ele>
        <time>2022-05-24T13:59:57Z</time>
      </trkpt>
      <trkpt lat="46.84365" lon="5.91892">
        <ele>605</ele>
        <time>2022-05-24T13:59:58Z</time>
      </trkpt>
      <trkpt lat="46.84363" lon="5.91888">
        <ele>605</ele>
        <time>2022-05-24T13:59:59Z</time>
      </trkpt>
      <trkpt lat="46.84361" lon="5.91884">
        <ele>605.2</ele>
        <time>2022-05-24T14:00:00Z</time>
      </trkpt>
      <trkpt lat="46.84358" lon="5.91881">
        <ele>605.2</ele>
        <time>2022-05-24T14:00:01Z</time>
      </trkpt>
      <trkpt lat="46.84356" lon="5.91877">
        <ele>605.4</ele>
        <time>2022-05-24T14:00:02Z</time>
      </trkpt>
      <trkpt lat="46.84354" lon="5.91874">
        <ele>605.4</ele>
        <time>2022-05-24T14:00:03Z</time>
      </trkpt>
      <trkpt lat="46.84352" lon="5.91872">
        <ele>605.6</ele>
        <time>2022-05-24T14:00:04Z</time>
      </trkpt>
      <trkpt lat="46.8435" lon="5.9187">
        <ele>605.6</ele>
        <time>2022-05-24T14:00:05Z</time>
      </trkpt>
      <trkpt lat="46.84348" lon="5.91867">
        <ele>605.6</ele>
        <time>2022-05-24T14:00:06Z</time>
      </trkpt>
      <trkpt lat="46.84346" lon="5.91864">
        <ele>605.8</ele>
        <time>2022-05-24T14:00:07Z</time>
      </trkpt>
      <trkpt lat="46.84345" lon="5.91861">
        <ele>605.8</ele>
        <time>2022-05-24T14:00:08Z</time>
      </trkpt>
      <trkpt lat="46.84344" lon="5.91857">
        <ele>605.8</ele>
        <time>2022-05-24T14:00:09Z</time>
      </trkpt>
      <trkpt lat="46.84342" lon="5.91853">
        <ele>605.8</ele>
        <time>2022-05-24T14:00:10Z</time>
      </trkpt>
      <trkpt lat="46.84339" lon="5.91849">
        <ele>606.2</ele>
        <time>2022-05-24T14:00:11Z</time>
      </trkpt>
      <trkpt lat="46.84336" lon="5.91845">
        <ele>606.2</ele>
        <time>2022-05-24T14:00:12Z</time>
      </trkpt>
      <trkpt lat="46.84332" lon="5.91844">
        <ele>606.2</ele>
        <time>2022-05-24T14:00:13Z</time>
      </trkpt>
      <trkpt lat="46.84327" lon="5.91844">
        <ele>606.2</ele>
        <time>2022-05-24T14:00:14Z</time>
      </trkpt>
      <trkpt lat="46.84322" lon="5.91846">
        <ele>606.4</ele>
        <time>2022-05-24T14:00:15Z</time>
      </trkpt>
      <trkpt lat="46.84316" lon="5.91848">
        <ele>606.4</ele>
        <time>2022-05-24T14:00:16Z</time>
      </trkpt>
      <trkpt lat="46.84311" lon="5.9185">
        <ele>606.6</ele>
        <time>2022-05-24T14:00:17Z</time>
      </trkpt>
      <trkpt lat="46.84306" lon="5.91852">
        <ele>606.6</ele>
        <time>2022-05-24T14:00:18Z</time>
      </trkpt>
      <trkpt lat="46.843" lon="5.91853">
        <ele>606.6</ele>
        <time>2022-05-24T14:00:19Z</time>
      </trkpt>
      <trkpt lat="46.84295" lon="5.91855">
        <ele>606.6</ele>
        <time>2022-05-24T14:00:20Z</time>
      </trkpt>
      <trkpt lat="46.84289" lon="5.91858">
        <ele>606.8</ele>
        <time>2022-05-24T14:00:21Z</time>
      </trkpt>
      <trkpt lat="46.84283" lon="5.91859">
        <ele>606.8</ele>
        <time>2022-05-24T14:00:22Z</time>
      </trkpt>
      <trkpt lat="46.84277" lon="5.91861">
        <ele>607</ele>
        <time>2022-05-24T14:00:23Z</time>
      </trkpt>
      <trkpt lat="46.84271" lon="5.91863">
        <ele>607</ele>
        <time>2022-05-24T14:00:24Z</time>
      </trkpt>
      <trkpt lat="46.84265" lon="5.91865">
        <ele>607</ele>
        <time>2022-05-24T14:00:25Z</time>
      </trkpt>
      <trkpt lat="46.84259" lon="5.91867">
        <ele>607</ele>
        <time>2022-05-24T14:00:26Z</time>
      </trkpt>
      <trkpt lat="46.84253" lon="5.91869">
        <ele>607</ele>
        <time>2022-05-24T14:00:27Z</time>
      </trkpt>
      <trkpt lat="46.84247" lon="5.91871">
        <ele>607</ele>
        <time>2022-05-24T14:00:28Z</time>
      </trkpt>
      <trkpt lat="46.8424" lon="5.91873">
        <ele>607</ele>
        <time>2022-05-24T14:00:29Z</time>
      </trkpt>
      <trkpt lat="46.84234" lon="5.91875">
        <ele>607</ele>
        <time>2022-05-24T14:00:30Z</time>
      </trkpt>
      <trkpt lat="46.84228" lon="5.91877">
        <ele>607</ele>
        <time>2022-05-24T14:00:31Z</time>
      </trkpt>
      <trkpt lat="46.84221" lon="5.91879">
        <ele>607</ele>
        <time>2022-05-24T14:00:32Z</time>
      </trkpt>
      <trkpt lat="46.84215" lon="5.9188">
        <ele>607</ele>
        <time>2022-05-24T14:00:33Z</time>
      </trkpt>
      <trkpt lat="46.84209" lon="5.91882">
        <ele>607.4</ele>
        <time>2022-05-24T14:00:34Z</time>
      </trkpt>
      <trkpt lat="46.84209" lon="5.91882">
        <ele>607.4</ele>
        <time>2022-05-24T14:00:35Z</time>
      </trkpt>
      <trkpt lat="46.84203" lon="5.91884">
        <ele>607.4</ele>
        <time>2022-05-24T14:00:36Z</time>
      </trkpt>
      <trkpt lat="46.84196" lon="5.91886">
        <ele>607.6</ele>
        <time>2022-05-24T14:00:37Z</time>
      </trkpt>
      <trkpt lat="46.8419" lon="5.91887">
        <ele>607.6</ele>
        <time>2022-05-24T14:00:38Z</time>
      </trkpt>
      <trkpt lat="46.84183" lon="5.91889">
        <ele>607.6</ele>
        <time>2022-05-24T14:00:39Z</time>
      </trkpt>
      <trkpt lat="46.84177" lon="5.91891">
        <ele>607.6</ele>
        <time>2022-05-24T14:00:40Z</time>
      </trkpt>
      <trkpt lat="46.8417" lon="5.91893">
        <ele>607.6</ele>
        <time>2022-05-24T14:00:41Z</time>
      </trkpt>
      <trkpt lat="46.84164" lon="5.91894">
        <ele>607.6</ele>
        <time>2022-05-24T14:00:42Z</time>
      </trkpt>
      <trkpt lat="46.84157" lon="5.91896">
        <ele>607.8</ele>
        <time>2022-05-24T14:00:43Z</time>
      </trkpt>
      <trkpt lat="46.8415" lon="5.91898">
        <ele>607.8</ele>
        <time>2022-05-24T14:00:44Z</time>
      </trkpt>
      <trkpt lat="46.84143" lon="5.919">
        <ele>607.8</ele>
        <time>2022-05-24T14:00:45Z</time>
      </trkpt>
      <trkpt lat="46.84136" lon="5.91902">
        <ele>607.8</ele>
        <time>2022-05-24T14:00:46Z</time>
      </trkpt>
      <trkpt lat="46.84129" lon="5.91904">
        <ele>607.8</ele>
        <time>2022-05-24T14:00:47Z</time>
      </trkpt>
      <trkpt lat="46.84122" lon="5.91906">
        <ele>607.8</ele>
        <time>2022-05-24T14:00:48Z</time>
      </trkpt>
      <trkpt lat="46.84115" lon="5.91909">
        <ele>607.8</ele>
        <time>2022-05-24T14:00:49Z</time>
      </trkpt>
      <trkpt lat="46.84108" lon="5.91912">
        <ele>607.8</ele>
        <time>2022-05-24T14:00:50Z</time>
      </trkpt>
      <trkpt lat="46.84101" lon="5.91914">
        <ele>607.8</ele>
        <time>2022-05-24T14:00:51Z</time>
      </trkpt>
      <trkpt lat="46.84094" lon="5.91916">
        <ele>607.8</ele>
        <time>2022-05-24T14:00:52Z</time>
      </trkpt>
      <trkpt lat="46.84088" lon="5.91919">
        <ele>607.8</ele>
        <time>2022-05-24T14:00:53Z</time>
      </trkpt>
      <trkpt lat="46.84081" lon="5.91921">
        <ele>607.8</ele>
        <time>2022-05-24T14:00:54Z</time>
      </trkpt>
      <trkpt lat="46.84076" lon="5.91923">
        <ele>607.8</ele>
        <time>2022-05-24T14:00:55Z</time>
      </trkpt>
      <trkpt lat="46.8407" lon="5.91925">
        <ele>607.6</ele>
        <time>2022-05-24T14:00:56Z</time>
      </trkpt>
      <trkpt lat="46.84065" lon="5.91926">
        <ele>607.6</ele>
        <time>2022-05-24T14:00:57Z</time>
      </trkpt>
      <trkpt lat="46.84061" lon="5.91928">
        <ele>607.6</ele>
        <time>2022-05-24T14:00:58Z</time>
      </trkpt>
      <trkpt lat="46.84056" lon="5.9193">
        <ele>607.4</ele>
        <time>2022-05-24T14:00:59Z</time>
      </trkpt>
      <trkpt lat="46.84051" lon="5.91932">
        <ele>607.4</ele>
        <time>2022-05-24T14:01:00Z</time>
      </trkpt>
      <trkpt lat="46.84045" lon="5.91934">
        <ele>607.4</ele>
        <time>2022-05-24T14:01:01Z</time>
      </trkpt>
      <trkpt lat="46.84039" lon="5.91936">
        <ele>607.4</ele>
        <time>2022-05-24T14:01:02Z</time>
      </trkpt>
      <trkpt lat="46.84033" lon="5.91938">
        <ele>607.4</ele>
        <time>2022-05-24T14:01:03Z</time>
      </trkpt>
      <trkpt lat="46.84026" lon="5.91939">
        <ele>607.4</ele>
        <time>2022-05-24T14:01:04Z</time>
      </trkpt>
      <trkpt lat="46.84012" lon="5.91943">
        <ele>607.4</ele>
        <time>2022-05-24T14:01:05Z</time>
      </trkpt>
      <trkpt lat="46.84005" lon="5.91945">
        <ele>607</ele>
        <time>2022-05-24T14:01:06Z</time>
      </trkpt>
      <trkpt lat="46.83997" lon="5.91947">
        <ele>607</ele>
        <time>2022-05-24T14:01:07Z</time>
      </trkpt>
      <trkpt lat="46.8399" lon="5.9195">
        <ele>606.8</ele>
        <time>2022-05-24T14:01:08Z</time>
      </trkpt>
      <trkpt lat="46.83982" lon="5.91952">
        <ele>606.8</ele>
        <time>2022-05-24T14:01:09Z</time>
      </trkpt>
      <trkpt lat="46.83975" lon="5.91955">
        <ele>607</ele>
        <time>2022-05-24T14:01:10Z</time>
      </trkpt>
      <trkpt lat="46.83967" lon="5.91957">
        <ele>607</ele>
        <time>2022-05-24T14:01:11Z</time>
      </trkpt>
      <trkpt lat="46.83959" lon="5.9196">
        <ele>607</ele>
        <time>2022-05-24T14:01:12Z</time>
      </trkpt>
      <trkpt lat="46.83952" lon="5.91962">
        <ele>607</ele>
        <time>2022-05-24T14:01:13Z</time>
      </trkpt>
      <trkpt lat="46.83944" lon="5.91964">
        <ele>607</ele>
        <time>2022-05-24T14:01:14Z</time>
      </trkpt>
      <trkpt lat="46.83936" lon="5.91966">
        <ele>606.8</ele>
        <time>2022-05-24T14:01:15Z</time>
      </trkpt>
      <trkpt lat="46.83928" lon="5.91969">
        <ele>606.8</ele>
        <time>2022-05-24T14:01:16Z</time>
      </trkpt>
      <trkpt lat="46.83921" lon="5.91971">
        <ele>606.8</ele>
        <time>2022-05-24T14:01:17Z</time>
      </trkpt>
      <trkpt lat="46.83913" lon="5.91973">
        <ele>606.4</ele>
        <time>2022-05-24T14:01:18Z</time>
      </trkpt>
      <trkpt lat="46.83906" lon="5.91975">
        <ele>606.4</ele>
        <time>2022-05-24T14:01:19Z</time>
      </trkpt>
      <trkpt lat="46.83898" lon="5.91977">
        <ele>606.4</ele>
        <time>2022-05-24T14:01:20Z</time>
      </trkpt>
      <trkpt lat="46.8389" lon="5.9198">
        <ele>606.2</ele>
        <time>2022-05-24T14:01:21Z</time>
      </trkpt>
      <trkpt lat="46.83883" lon="5.91982">
        <ele>606.2</ele>
        <time>2022-05-24T14:01:22Z</time>
      </trkpt>
      <trkpt lat="46.83875" lon="5.91984">
        <ele>606.2</ele>
        <time>2022-05-24T14:01:23Z</time>
      </trkpt>
      <trkpt lat="46.83868" lon="5.91986">
        <ele>606.2</ele>
        <time>2022-05-24T14:01:24Z</time>
      </trkpt>
      <trkpt lat="46.8386" lon="5.91989">
        <ele>606.2</ele>
        <time>2022-05-24T14:01:25Z</time>
      </trkpt>
      <trkpt lat="46.83853" lon="5.91991">
        <ele>606.2</ele>
        <time>2022-05-24T14:01:26Z</time>
      </trkpt>
      <trkpt lat="46.83845" lon="5.91993">
        <ele>606.2</ele>
        <time>2022-05-24T14:01:27Z</time>
      </trkpt>
      <trkpt lat="46.83838" lon="5.91996">
        <ele>605.8</ele>
        <time>2022-05-24T14:01:28Z</time>
      </trkpt>
      <trkpt lat="46.8383" lon="5.91998">
        <ele>605.8</ele>
        <time>2022-05-24T14:01:29Z</time>
      </trkpt>
      <trkpt lat="46.83822" lon="5.92">
        <ele>605.6</ele>
        <time>2022-05-24T14:01:30Z</time>
      </trkpt>
      <trkpt lat="46.83815" lon="5.92002">
        <ele>605.6</ele>
        <time>2022-05-24T14:01:31Z</time>
      </trkpt>
      <trkpt lat="46.83807" lon="5.92005">
        <ele>605.6</ele>
        <time>2022-05-24T14:01:32Z</time>
      </trkpt>
      <trkpt lat="46.838" lon="5.92007">
        <ele>605.6</ele>
        <time>2022-05-24T14:01:33Z</time>
      </trkpt>
      <trkpt lat="46.83792" lon="5.92009">
        <ele>605.6</ele>
        <time>2022-05-24T14:01:34Z</time>
      </trkpt>
      <trkpt lat="46.83784" lon="5.92011">
        <ele>605.6</ele>
        <time>2022-05-24T14:01:35Z</time>
      </trkpt>
      <trkpt lat="46.83776" lon="5.92014">
        <ele>605.6</ele>
        <time>2022-05-24T14:01:36Z</time>
      </trkpt>
      <trkpt lat="46.83768" lon="5.92016">
        <ele>605.6</ele>
        <time>2022-05-24T14:01:37Z</time>
      </trkpt>
      <trkpt lat="46.8376" lon="5.92018">
        <ele>605.6</ele>
        <time>2022-05-24T14:01:38Z</time>
      </trkpt>
      <trkpt lat="46.83753" lon="5.92021">
        <ele>605.6</ele>
        <time>2022-05-24T14:01:39Z</time>
      </trkpt>
      <trkpt lat="46.83745" lon="5.92023">
        <ele>605.6</ele>
        <time>2022-05-24T14:01:40Z</time>
      </trkpt>
      <trkpt lat="46.83737" lon="5.92025">
        <ele>605.6</ele>
        <time>2022-05-24T14:01:41Z</time>
      </trkpt>
      <trkpt lat="46.83729" lon="5.92028">
        <ele>605.6</ele>
        <time>2022-05-24T14:01:42Z</time>
      </trkpt>
      <trkpt lat="46.83721" lon="5.9203">
        <ele>605.6</ele>
        <time>2022-05-24T14:01:43Z</time>
      </trkpt>
      <trkpt lat="46.83714" lon="5.92033">
        <ele>605.6</ele>
        <time>2022-05-24T14:01:44Z</time>
      </trkpt>
      <trkpt lat="46.83706" lon="5.92035">
        <ele>605.6</ele>
        <time>2022-05-24T14:01:45Z</time>
      </trkpt>
      <trkpt lat="46.83698" lon="5.92037">
        <ele>605.6</ele>
        <time>2022-05-24T14:01:46Z</time>
      </trkpt>
      <trkpt lat="46.83691" lon="5.9204">
        <ele>605.6</ele>
        <time>2022-05-24T14:01:47Z</time>
      </trkpt>
      <trkpt lat="46.83691" lon="5.9204">
        <ele>605.6</ele>
        <time>2022-05-24T14:01:48Z</time>
      </trkpt>
      <trkpt lat="46.83684" lon="5.92042">
        <ele>605.6</ele>
        <time>2022-05-24T14:01:49Z</time>
      </trkpt>
      <trkpt lat="46.83676" lon="5.92044">
        <ele>605.6</ele>
        <time>2022-05-24T14:01:50Z</time>
      </trkpt>
      <trkpt lat="46.83669" lon="5.92046">
        <ele>605.6</ele>
        <time>2022-05-24T14:01:51Z</time>
      </trkpt>
      <trkpt lat="46.83662" lon="5.92049">
        <ele>605.6</ele>
        <time>2022-05-24T14:01:52Z</time>
      </trkpt>
      <trkpt lat="46.83654" lon="5.92051">
        <ele>605.6</ele>
        <time>2022-05-24T14:01:53Z</time>
      </trkpt>
      <trkpt lat="46.83647" lon="5.92053">
        <ele>605.6</ele>
        <time>2022-05-24T14:01:54Z</time>
      </trkpt>
      <trkpt lat="46.8364" lon="5.92056">
        <ele>605.6</ele>
        <time>2022-05-24T14:01:55Z</time>
      </trkpt>
      <trkpt lat="46.83632" lon="5.92058">
        <ele>605.6</ele>
        <time>2022-05-24T14:01:56Z</time>
      </trkpt>
      <trkpt lat="46.83625" lon="5.92059">
        <ele>605.6</ele>
        <time>2022-05-24T14:01:57Z</time>
      </trkpt>
      <trkpt lat="46.83618" lon="5.92061">
        <ele>605.6</ele>
        <time>2022-05-24T14:01:58Z</time>
      </trkpt>
      <trkpt lat="46.83611" lon="5.92062">
        <ele>605.6</ele>
        <time>2022-05-24T14:01:59Z</time>
      </trkpt>
      <trkpt lat="46.83603" lon="5.92064">
        <ele>605.6</ele>
        <time>2022-05-24T14:02:00Z</time>
      </trkpt>
      <trkpt lat="46.83596" lon="5.92065">
        <ele>605.6</ele>
        <time>2022-05-24T14:02:01Z</time>
      </trkpt>
      <trkpt lat="46.83589" lon="5.92065">
        <ele>605.6</ele>
        <time>2022-05-24T14:02:02Z</time>
      </trkpt>
      <trkpt lat="46.83581" lon="5.92066">
        <ele>605.6</ele>
        <time>2022-05-24T14:02:03Z</time>
      </trkpt>
      <trkpt lat="46.83574" lon="5.92066">
        <ele>605.8</ele>
        <time>2022-05-24T14:02:04Z</time>
      </trkpt>
      <trkpt lat="46.83567" lon="5.92066">
        <ele>605.8</ele>
        <time>2022-05-24T14:02:05Z</time>
      </trkpt>
      <trkpt lat="46.8356" lon="5.92065">
        <ele>605.8</ele>
        <time>2022-05-24T14:02:06Z</time>
      </trkpt>
      <trkpt lat="46.83552" lon="5.92065">
        <ele>605.8</ele>
        <time>2022-05-24T14:02:07Z</time>
      </trkpt>
      <trkpt lat="46.83545" lon="5.92064">
        <ele>606.2</ele>
        <time>2022-05-24T14:02:08Z</time>
      </trkpt>
      <trkpt lat="46.83538" lon="5.92063">
        <ele>606.2</ele>
        <time>2022-05-24T14:02:09Z</time>
      </trkpt>
      <trkpt lat="46.83531" lon="5.92062">
        <ele>606.4</ele>
        <time>2022-05-24T14:02:10Z</time>
      </trkpt>
      <trkpt lat="46.83524" lon="5.92062">
        <ele>606.4</ele>
        <time>2022-05-24T14:02:11Z</time>
      </trkpt>
      <trkpt lat="46.83516" lon="5.92061">
        <ele>606.4</ele>
        <time>2022-05-24T14:02:12Z</time>
      </trkpt>
      <trkpt lat="46.83509" lon="5.9206">
        <ele>606.4</ele>
        <time>2022-05-24T14:02:13Z</time>
      </trkpt>
      <trkpt lat="46.83502" lon="5.92059">
        <ele>606.6</ele>
        <time>2022-05-24T14:02:14Z</time>
      </trkpt>
      <trkpt lat="46.83495" lon="5.92058">
        <ele>606.6</ele>
        <time>2022-05-24T14:02:15Z</time>
      </trkpt>
      <trkpt lat="46.83488" lon="5.92057">
        <ele>606.6</ele>
        <time>2022-05-24T14:02:16Z</time>
      </trkpt>
      <trkpt lat="46.83474" lon="5.92056">
        <ele>606.8</ele>
        <time>2022-05-24T14:02:17Z</time>
      </trkpt>
      <trkpt lat="46.83467" lon="5.92055">
        <ele>606.8</ele>
        <time>2022-05-24T14:02:18Z</time>
      </trkpt>
      <trkpt lat="46.8346" lon="5.92054">
        <ele>606.8</ele>
        <time>2022-05-24T14:02:19Z</time>
      </trkpt>
      <trkpt lat="46.83453" lon="5.92053">
        <ele>606.8</ele>
        <time>2022-05-24T14:02:20Z</time>
      </trkpt>
      <trkpt lat="46.83446" lon="5.92052">
        <ele>606.8</ele>
        <time>2022-05-24T14:02:21Z</time>
      </trkpt>
      <trkpt lat="46.83439" lon="5.92051">
        <ele>606.8</ele>
        <time>2022-05-24T14:02:22Z</time>
      </trkpt>
      <trkpt lat="46.83432" lon="5.9205">
        <ele>607</ele>
        <time>2022-05-24T14:02:23Z</time>
      </trkpt>
      <trkpt lat="46.83425" lon="5.92048">
        <ele>607</ele>
        <time>2022-05-24T14:02:24Z</time>
      </trkpt>
      <trkpt lat="46.83418" lon="5.92047">
        <ele>607</ele>
        <time>2022-05-24T14:02:25Z</time>
      </trkpt>
      <trkpt lat="46.83411" lon="5.92045">
        <ele>607.2</ele>
        <time>2022-05-24T14:02:26Z</time>
      </trkpt>
      <trkpt lat="46.83404" lon="5.92043">
        <ele>607.2</ele>
        <time>2022-05-24T14:02:27Z</time>
      </trkpt>
      <trkpt lat="46.83398" lon="5.92041">
        <ele>607.2</ele>
        <time>2022-05-24T14:02:28Z</time>
      </trkpt>
      <trkpt lat="46.83391" lon="5.92038">
        <ele>607.2</ele>
        <time>2022-05-24T14:02:29Z</time>
      </trkpt>
      <trkpt lat="46.83384" lon="5.92035">
        <ele>607.2</ele>
        <time>2022-05-24T14:02:30Z</time>
      </trkpt>
      <trkpt lat="46.83378" lon="5.92032">
        <ele>607.2</ele>
        <time>2022-05-24T14:02:31Z</time>
      </trkpt>
      <trkpt lat="46.83371" lon="5.92029">
        <ele>607.6</ele>
        <time>2022-05-24T14:02:32Z</time>
      </trkpt>
      <trkpt lat="46.83365" lon="5.92026">
        <ele>607.6</ele>
        <time>2022-05-24T14:02:33Z</time>
      </trkpt>
      <trkpt lat="46.83358" lon="5.92023">
        <ele>607.6</ele>
        <time>2022-05-24T14:02:34Z</time>
      </trkpt>
      <trkpt lat="46.83352" lon="5.92019">
        <ele>607.6</ele>
        <time>2022-05-24T14:02:35Z</time>
      </trkpt>
      <trkpt lat="46.83345" lon="5.92016">
        <ele>607.6</ele>
        <time>2022-05-24T14:02:36Z</time>
      </trkpt>
      <trkpt lat="46.83339" lon="5.92012">
        <ele>607.8</ele>
        <time>2022-05-24T14:02:37Z</time>
      </trkpt>
      <trkpt lat="46.83332" lon="5.92008">
        <ele>607.8</ele>
        <time>2022-05-24T14:02:38Z</time>
      </trkpt>
      <trkpt lat="46.83326" lon="5.92004">
        <ele>607.8</ele>
        <time>2022-05-24T14:02:39Z</time>
      </trkpt>
      <trkpt lat="46.83319" lon="5.92">
        <ele>608</ele>
        <time>2022-05-24T14:02:40Z</time>
      </trkpt>
      <trkpt lat="46.83312" lon="5.91997">
        <ele>608</ele>
        <time>2022-05-24T14:02:41Z</time>
      </trkpt>
      <trkpt lat="46.83306" lon="5.91993">
        <ele>608.2</ele>
        <time>2022-05-24T14:02:42Z</time>
      </trkpt>
      <trkpt lat="46.83299" lon="5.91989">
        <ele>608.2</ele>
        <time>2022-05-24T14:02:43Z</time>
      </trkpt>
      <trkpt lat="46.83293" lon="5.91985">
        <ele>608.2</ele>
        <time>2022-05-24T14:02:44Z</time>
      </trkpt>
      <trkpt lat="46.83286" lon="5.91981">
        <ele>608.2</ele>
        <time>2022-05-24T14:02:45Z</time>
      </trkpt>
      <trkpt lat="46.83279" lon="5.91977">
        <ele>608.6</ele>
        <time>2022-05-24T14:02:46Z</time>
      </trkpt>
      <trkpt lat="46.83272" lon="5.91973">
        <ele>608.6</ele>
        <time>2022-05-24T14:02:47Z</time>
      </trkpt>
      <trkpt lat="46.83266" lon="5.9197">
        <ele>608.6</ele>
        <time>2022-05-24T14:02:48Z</time>
      </trkpt>
      <trkpt lat="46.83259" lon="5.91966">
        <ele>608.6</ele>
        <time>2022-05-24T14:02:49Z</time>
      </trkpt>
      <trkpt lat="46.83252" lon="5.91962">
        <ele>608.6</ele>
        <time>2022-05-24T14:02:50Z</time>
      </trkpt>
      <trkpt lat="46.83246" lon="5.91958">
        <ele>608.6</ele>
        <time>2022-05-24T14:02:51Z</time>
      </trkpt>
      <trkpt lat="46.83239" lon="5.91955">
        <ele>608.6</ele>
        <time>2022-05-24T14:02:52Z</time>
      </trkpt>
      <trkpt lat="46.83233" lon="5.91951">
        <ele>608.8</ele>
        <time>2022-05-24T14:02:53Z</time>
      </trkpt>
      <trkpt lat="46.83226" lon="5.91947">
        <ele>608.8</ele>
        <time>2022-05-24T14:02:54Z</time>
      </trkpt>
      <trkpt lat="46.8322" lon="5.91943">
        <ele>609</ele>
        <time>2022-05-24T14:02:55Z</time>
      </trkpt>
      <trkpt lat="46.83213" lon="5.91939">
        <ele>609</ele>
        <time>2022-05-24T14:02:56Z</time>
      </trkpt>
      <trkpt lat="46.83207" lon="5.91935">
        <ele>609</ele>
        <time>2022-05-24T14:02:57Z</time>
      </trkpt>
      <trkpt lat="46.832" lon="5.91931">
        <ele>609</ele>
        <time>2022-05-24T14:02:58Z</time>
      </trkpt>
      <trkpt lat="46.83194" lon="5.91928">
        <ele>609</ele>
        <time>2022-05-24T14:02:59Z</time>
      </trkpt>
      <trkpt lat="46.83188" lon="5.91924">
        <ele>609</ele>
        <time>2022-05-24T14:03:00Z</time>
      </trkpt>
      <trkpt lat="46.83181" lon="5.9192">
        <ele>609</ele>
        <time>2022-05-24T14:03:01Z</time>
      </trkpt>
      <trkpt lat="46.83175" lon="5.91917">
        <ele>609</ele>
        <time>2022-05-24T14:03:02Z</time>
      </trkpt>
      <trkpt lat="46.83168" lon="5.91913">
        <ele>609</ele>
        <time>2022-05-24T14:03:03Z</time>
      </trkpt>
      <trkpt lat="46.83162" lon="5.91909">
        <ele>609</ele>
        <time>2022-05-24T14:03:04Z</time>
      </trkpt>
      <trkpt lat="46.83155" lon="5.91906">
        <ele>609</ele>
        <time>2022-05-24T14:03:05Z</time>
      </trkpt>
      <trkpt lat="46.83148" lon="5.91902">
        <ele>608.8</ele>
        <time>2022-05-24T14:03:06Z</time>
      </trkpt>
      <trkpt lat="46.83142" lon="5.91898">
        <ele>608.8</ele>
        <time>2022-05-24T14:03:07Z</time>
      </trkpt>
      <trkpt lat="46.83135" lon="5.91894">
        <ele>608.8</ele>
        <time>2022-05-24T14:03:08Z</time>
      </trkpt>
      <trkpt lat="46.83128" lon="5.9189">
        <ele>609</ele>
        <time>2022-05-24T14:03:09Z</time>
      </trkpt>
      <trkpt lat="46.83121" lon="5.91886">
        <ele>609</ele>
        <time>2022-05-24T14:03:10Z</time>
      </trkpt>
      <trkpt lat="46.83114" lon="5.91882">
        <ele>609</ele>
        <time>2022-05-24T14:03:11Z</time>
      </trkpt>
      <trkpt lat="46.83107" lon="5.91878">
        <ele>608.8</ele>
        <time>2022-05-24T14:03:12Z</time>
      </trkpt>
      <trkpt lat="46.831" lon="5.91873">
        <ele>608.8</ele>
        <time>2022-05-24T14:03:13Z</time>
      </trkpt>
      <trkpt lat="46.83093" lon="5.91869">
        <ele>608.8</ele>
        <time>2022-05-24T14:03:14Z</time>
      </trkpt>
      <trkpt lat="46.83086" lon="5.91865">
        <ele>608.8</ele>
        <time>2022-05-24T14:03:15Z</time>
      </trkpt>
      <trkpt lat="46.83078" lon="5.91861">
        <ele>608.8</ele>
        <time>2022-05-24T14:03:16Z</time>
      </trkpt>
      <trkpt lat="46.83071" lon="5.91856">
        <ele>608.8</ele>
        <time>2022-05-24T14:03:17Z</time>
      </trkpt>
      <trkpt lat="46.83064" lon="5.91852">
        <ele>608.8</ele>
        <time>2022-05-24T14:03:18Z</time>
      </trkpt>
      <trkpt lat="46.83056" lon="5.91848">
        <ele>608.8</ele>
        <time>2022-05-24T14:03:19Z</time>
      </trkpt>
      <trkpt lat="46.83049" lon="5.91844">
        <ele>608.8</ele>
        <time>2022-05-24T14:03:20Z</time>
      </trkpt>
      <trkpt lat="46.83042" lon="5.9184">
        <ele>608.8</ele>
        <time>2022-05-24T14:03:21Z</time>
      </trkpt>
      <trkpt lat="46.83034" lon="5.91837">
        <ele>608.8</ele>
        <time>2022-05-24T14:03:22Z</time>
      </trkpt>
      <trkpt lat="46.83027" lon="5.91834">
        <ele>608.8</ele>
        <time>2022-05-24T14:03:23Z</time>
      </trkpt>
      <trkpt lat="46.83019" lon="5.91831">
        <ele>608.8</ele>
        <time>2022-05-24T14:03:24Z</time>
      </trkpt>
      <trkpt lat="46.83011" lon="5.91829">
        <ele>608.8</ele>
        <time>2022-05-24T14:03:25Z</time>
      </trkpt>
      <trkpt lat="46.83003" lon="5.91826">
        <ele>608.6</ele>
        <time>2022-05-24T14:03:26Z</time>
      </trkpt>
      <trkpt lat="46.82995" lon="5.91824">
        <ele>608.6</ele>
        <time>2022-05-24T14:03:27Z</time>
      </trkpt>
      <trkpt lat="46.82988" lon="5.91821">
        <ele>608.2</ele>
        <time>2022-05-24T14:03:28Z</time>
      </trkpt>
      <trkpt lat="46.8298" lon="5.91819">
        <ele>608.2</ele>
        <time>2022-05-24T14:03:29Z</time>
      </trkpt>
      <trkpt lat="46.82972" lon="5.91817">
        <ele>607.8</ele>
        <time>2022-05-24T14:03:30Z</time>
      </trkpt>
      <trkpt lat="46.82964" lon="5.91815">
        <ele>607.8</ele>
        <time>2022-05-24T14:03:31Z</time>
      </trkpt>
      <trkpt lat="46.82956" lon="5.91813">
        <ele>607.8</ele>
        <time>2022-05-24T14:03:32Z</time>
      </trkpt>
      <trkpt lat="46.82949" lon="5.9181">
        <ele>607.8</ele>
        <time>2022-05-24T14:03:33Z</time>
      </trkpt>
      <trkpt lat="46.82941" lon="5.91808">
        <ele>607.6</ele>
        <time>2022-05-24T14:03:34Z</time>
      </trkpt>
      <trkpt lat="46.82933" lon="5.91806">
        <ele>607.6</ele>
        <time>2022-05-24T14:03:35Z</time>
      </trkpt>
      <trkpt lat="46.82926" lon="5.91804">
        <ele>607.6</ele>
        <time>2022-05-24T14:03:36Z</time>
      </trkpt>
      <trkpt lat="46.82919" lon="5.91802">
        <ele>607.6</ele>
        <time>2022-05-24T14:03:37Z</time>
      </trkpt>
      <trkpt lat="46.82911" lon="5.918">
        <ele>607.4</ele>
        <time>2022-05-24T14:03:38Z</time>
      </trkpt>
      <trkpt lat="46.82904" lon="5.91798">
        <ele>607.4</ele>
        <time>2022-05-24T14:03:39Z</time>
      </trkpt>
      <trkpt lat="46.82897" lon="5.91796">
        <ele>607.4</ele>
        <time>2022-05-24T14:03:40Z</time>
      </trkpt>
      <trkpt lat="46.8289" lon="5.91795">
        <ele>607.4</ele>
        <time>2022-05-24T14:03:41Z</time>
      </trkpt>
      <trkpt lat="46.82883" lon="5.91793">
        <ele>607.4</ele>
        <time>2022-05-24T14:03:42Z</time>
      </trkpt>
      <trkpt lat="46.82877" lon="5.91791">
        <ele>607.4</ele>
        <time>2022-05-24T14:03:43Z</time>
      </trkpt>
      <trkpt lat="46.8287" lon="5.91789">
        <ele>607.4</ele>
        <time>2022-05-24T14:03:44Z</time>
      </trkpt>
      <trkpt lat="46.82864" lon="5.91787">
        <ele>607.6</ele>
        <time>2022-05-24T14:03:45Z</time>
      </trkpt>
      <trkpt lat="46.82858" lon="5.91785">
        <ele>607.6</ele>
        <time>2022-05-24T14:03:46Z</time>
      </trkpt>
      <trkpt lat="46.82858" lon="5.91785">
        <ele>608</ele>
        <time>2022-05-24T14:03:47Z</time>
      </trkpt>
      <trkpt lat="46.82851" lon="5.91784">
        <ele>608</ele>
        <time>2022-05-24T14:03:48Z</time>
      </trkpt>
      <trkpt lat="46.82845" lon="5.91782">
        <ele>608</ele>
        <time>2022-05-24T14:03:49Z</time>
      </trkpt>
      <trkpt lat="46.82839" lon="5.9178">
        <ele>608</ele>
        <time>2022-05-24T14:03:50Z</time>
      </trkpt>
      <trkpt lat="46.82833" lon="5.91778">
        <ele>608</ele>
        <time>2022-05-24T14:03:51Z</time>
      </trkpt>
      <trkpt lat="46.82826" lon="5.91776">
        <ele>608.2</ele>
        <time>2022-05-24T14:03:52Z</time>
      </trkpt>
      <trkpt lat="46.8282" lon="5.91774">
        <ele>608.2</ele>
        <time>2022-05-24T14:03:53Z</time>
      </trkpt>
      <trkpt lat="46.82814" lon="5.91772">
        <ele>608.2</ele>
        <time>2022-05-24T14:03:54Z</time>
      </trkpt>
      <trkpt lat="46.82807" lon="5.9177">
        <ele>608.4</ele>
        <time>2022-05-24T14:03:55Z</time>
      </trkpt>
      <trkpt lat="46.828" lon="5.91769">
        <ele>608.8</ele>
        <time>2022-05-24T14:03:56Z</time>
      </trkpt>
      <trkpt lat="46.82794" lon="5.91767">
        <ele>608.8</ele>
        <time>2022-05-24T14:03:57Z</time>
      </trkpt>
      <trkpt lat="46.82787" lon="5.91766">
        <ele>609.2</ele>
        <time>2022-05-24T14:03:58Z</time>
      </trkpt>
      <trkpt lat="46.8278" lon="5.91764">
        <ele>609.4</ele>
        <time>2022-05-24T14:03:59Z</time>
      </trkpt>
      <trkpt lat="46.82773" lon="5.91763">
        <ele>609.6</ele>
        <time>2022-05-24T14:04:00Z</time>
      </trkpt>
      <trkpt lat="46.82767" lon="5.91761">
        <ele>609.6</ele>
        <time>2022-05-24T14:04:01Z</time>
      </trkpt>
      <trkpt lat="46.8276" lon="5.91759">
        <ele>610</ele>
        <time>2022-05-24T14:04:02Z</time>
      </trkpt>
      <trkpt lat="46.82753" lon="5.91757">
        <ele>610</ele>
        <time>2022-05-24T14:04:03Z</time>
      </trkpt>
      <trkpt lat="46.82746" lon="5.91756">
        <ele>610.2</ele>
        <time>2022-05-24T14:04:04Z</time>
      </trkpt>
      <trkpt lat="46.8274" lon="5.91754">
        <ele>610.4</ele>
        <time>2022-05-24T14:04:05Z</time>
      </trkpt>
      <trkpt lat="46.82733" lon="5.91752">
        <ele>610.6</ele>
        <time>2022-05-24T14:04:06Z</time>
      </trkpt>
      <trkpt lat="46.82727" lon="5.91751">
        <ele>610.6</ele>
        <time>2022-05-24T14:04:07Z</time>
      </trkpt>
      <trkpt lat="46.82721" lon="5.91749">
        <ele>611</ele>
        <time>2022-05-24T14:04:08Z</time>
      </trkpt>
      <trkpt lat="46.82714" lon="5.91747">
        <ele>611</ele>
        <time>2022-05-24T14:04:09Z</time>
      </trkpt>
      <trkpt lat="46.82708" lon="5.91745">
        <ele>611</ele>
        <time>2022-05-24T14:04:10Z</time>
      </trkpt>
      <trkpt lat="46.82702" lon="5.91743">
        <ele>611.6</ele>
        <time>2022-05-24T14:04:11Z</time>
      </trkpt>
      <trkpt lat="46.82696" lon="5.9174">
        <ele>611.6</ele>
        <time>2022-05-24T14:04:12Z</time>
      </trkpt>
      <trkpt lat="46.82689" lon="5.91738">
        <ele>611.6</ele>
        <time>2022-05-24T14:04:13Z</time>
      </trkpt>
      <trkpt lat="46.82683" lon="5.91735">
        <ele>612</ele>
        <time>2022-05-24T14:04:14Z</time>
      </trkpt>
      <trkpt lat="46.82677" lon="5.91732">
        <ele>612</ele>
        <time>2022-05-24T14:04:15Z</time>
      </trkpt>
      <trkpt lat="46.82671" lon="5.91729">
        <ele>612</ele>
        <time>2022-05-24T14:04:16Z</time>
      </trkpt>
      <trkpt lat="46.82665" lon="5.91726">
        <ele>612</ele>
        <time>2022-05-24T14:04:17Z</time>
      </trkpt>
      <trkpt lat="46.82659" lon="5.91723">
        <ele>612</ele>
        <time>2022-05-24T14:04:18Z</time>
      </trkpt>
      <trkpt lat="46.82653" lon="5.9172">
        <ele>612</ele>
        <time>2022-05-24T14:04:19Z</time>
      </trkpt>
      <trkpt lat="46.82646" lon="5.91716">
        <ele>612</ele>
        <time>2022-05-24T14:04:20Z</time>
      </trkpt>
      <trkpt lat="46.8264" lon="5.91712">
        <ele>612</ele>
        <time>2022-05-24T14:04:21Z</time>
      </trkpt>
      <trkpt lat="46.82634" lon="5.91709">
        <ele>612</ele>
        <time>2022-05-24T14:04:22Z</time>
      </trkpt>
      <trkpt lat="46.82628" lon="5.91705">
        <ele>612.2</ele>
        <time>2022-05-24T14:04:23Z</time>
      </trkpt>
      <trkpt lat="46.82621" lon="5.91701">
        <ele>612.2</ele>
        <time>2022-05-24T14:04:24Z</time>
      </trkpt>
      <trkpt lat="46.82615" lon="5.91698">
        <ele>612.4</ele>
        <time>2022-05-24T14:04:25Z</time>
      </trkpt>
      <trkpt lat="46.82608" lon="5.91694">
        <ele>612.4</ele>
        <time>2022-05-24T14:04:26Z</time>
      </trkpt>
      <trkpt lat="46.82602" lon="5.9169">
        <ele>612.4</ele>
        <time>2022-05-24T14:04:27Z</time>
      </trkpt>
      <trkpt lat="46.82595" lon="5.91687">
        <ele>612.4</ele>
        <time>2022-05-24T14:04:28Z</time>
      </trkpt>
      <trkpt lat="46.82588" lon="5.91683">
        <ele>612.4</ele>
        <time>2022-05-24T14:04:29Z</time>
      </trkpt>
      <trkpt lat="46.82582" lon="5.9168">
        <ele>612.6</ele>
        <time>2022-05-24T14:04:30Z</time>
      </trkpt>
      <trkpt lat="46.82575" lon="5.91677">
        <ele>612.6</ele>
        <time>2022-05-24T14:04:31Z</time>
      </trkpt>
      <trkpt lat="46.82568" lon="5.91673">
        <ele>612.6</ele>
        <time>2022-05-24T14:04:32Z</time>
      </trkpt>
      <trkpt lat="46.82561" lon="5.9167">
        <ele>612.6</ele>
        <time>2022-05-24T14:04:33Z</time>
      </trkpt>
      <trkpt lat="46.82554" lon="5.91668">
        <ele>612.6</ele>
        <time>2022-05-24T14:04:34Z</time>
      </trkpt>
      <trkpt lat="46.82547" lon="5.91666">
        <ele>612.6</ele>
        <time>2022-05-24T14:04:35Z</time>
      </trkpt>
      <trkpt lat="46.8254" lon="5.91664">
        <ele>612.6</ele>
        <time>2022-05-24T14:04:36Z</time>
      </trkpt>
      <trkpt lat="46.82533" lon="5.91662">
        <ele>612.4</ele>
        <time>2022-05-24T14:04:37Z</time>
      </trkpt>
      <trkpt lat="46.82526" lon="5.91661">
        <ele>612.4</ele>
        <time>2022-05-24T14:04:38Z</time>
      </trkpt>
      <trkpt lat="46.82518" lon="5.9166">
        <ele>612.4</ele>
        <time>2022-05-24T14:04:39Z</time>
      </trkpt>
      <trkpt lat="46.82511" lon="5.9166">
        <ele>612.4</ele>
        <time>2022-05-24T14:04:40Z</time>
      </trkpt>
      <trkpt lat="46.82504" lon="5.9166">
        <ele>612.4</ele>
        <time>2022-05-24T14:04:41Z</time>
      </trkpt>
      <trkpt lat="46.82496" lon="5.9166">
        <ele>612.4</ele>
        <time>2022-05-24T14:04:42Z</time>
      </trkpt>
      <trkpt lat="46.82481" lon="5.91661">
        <ele>612.4</ele>
        <time>2022-05-24T14:04:43Z</time>
      </trkpt>
      <trkpt lat="46.82474" lon="5.91661">
        <ele>612.2</ele>
        <time>2022-05-24T14:04:44Z</time>
      </trkpt>
      <trkpt lat="46.82466" lon="5.91662">
        <ele>612.2</ele>
        <time>2022-05-24T14:04:45Z</time>
      </trkpt>
      <trkpt lat="46.82459" lon="5.91663">
        <ele>612.2</ele>
        <time>2022-05-24T14:04:46Z</time>
      </trkpt>
      <trkpt lat="46.82451" lon="5.91664">
        <ele>612.2</ele>
        <time>2022-05-24T14:04:47Z</time>
      </trkpt>
      <trkpt lat="46.82443" lon="5.91665">
        <ele>612.2</ele>
        <time>2022-05-24T14:04:48Z</time>
      </trkpt>
      <trkpt lat="46.82435" lon="5.91666">
        <ele>612.2</ele>
        <time>2022-05-24T14:04:49Z</time>
      </trkpt>
      <trkpt lat="46.82427" lon="5.91667">
        <ele>612</ele>
        <time>2022-05-24T14:04:50Z</time>
      </trkpt>
      <trkpt lat="46.82419" lon="5.91668">
        <ele>612</ele>
        <time>2022-05-24T14:04:51Z</time>
      </trkpt>
      <trkpt lat="46.82411" lon="5.91669">
        <ele>612</ele>
        <time>2022-05-24T14:04:52Z</time>
      </trkpt>
      <trkpt lat="46.82403" lon="5.9167">
        <ele>612</ele>
        <time>2022-05-24T14:04:53Z</time>
      </trkpt>
      <trkpt lat="46.82395" lon="5.91671">
        <ele>612</ele>
        <time>2022-05-24T14:04:54Z</time>
      </trkpt>
      <trkpt lat="46.82387" lon="5.91672">
        <ele>611.8</ele>
        <time>2022-05-24T14:04:55Z</time>
      </trkpt>
      <trkpt lat="46.82378" lon="5.91673">
        <ele>611.8</ele>
        <time>2022-05-24T14:04:56Z</time>
      </trkpt>
      <trkpt lat="46.8237" lon="5.91674">
        <ele>611.6</ele>
        <time>2022-05-24T14:04:57Z</time>
      </trkpt>
      <trkpt lat="46.82362" lon="5.91674">
        <ele>611.6</ele>
        <time>2022-05-24T14:04:58Z</time>
      </trkpt>
      <trkpt lat="46.82353" lon="5.91675">
        <ele>611.2</ele>
        <time>2022-05-24T14:04:59Z</time>
      </trkpt>
      <trkpt lat="46.82344" lon="5.91676">
        <ele>611.2</ele>
        <time>2022-05-24T14:05:00Z</time>
      </trkpt>
      <trkpt lat="46.82336" lon="5.91677">
        <ele>610.6</ele>
        <time>2022-05-24T14:05:01Z</time>
      </trkpt>
      <trkpt lat="46.82327" lon="5.91678">
        <ele>611</ele>
        <time>2022-05-24T14:05:02Z</time>
      </trkpt>
      <trkpt lat="46.82318" lon="5.91679">
        <ele>610.8</ele>
        <time>2022-05-24T14:05:03Z</time>
      </trkpt>
      <trkpt lat="46.82309" lon="5.9168">
        <ele>610.8</ele>
        <time>2022-05-24T14:05:04Z</time>
      </trkpt>
      <trkpt lat="46.823" lon="5.91681">
        <ele>610.6</ele>
        <time>2022-05-24T14:05:05Z</time>
      </trkpt>
      <trkpt lat="46.82292" lon="5.91682">
        <ele>610.6</ele>
        <time>2022-05-24T14:05:06Z</time>
      </trkpt>
      <trkpt lat="46.82283" lon="5.91683">
        <ele>610.2</ele>
        <time>2022-05-24T14:05:07Z</time>
      </trkpt>
      <trkpt lat="46.82274" lon="5.91684">
        <ele>610.2</ele>
        <time>2022-05-24T14:05:08Z</time>
      </trkpt>
      <trkpt lat="46.82266" lon="5.91686">
        <ele>609.8</ele>
        <time>2022-05-24T14:05:09Z</time>
      </trkpt>
      <trkpt lat="46.82257" lon="5.91687">
        <ele>609.4</ele>
        <time>2022-05-24T14:05:10Z</time>
      </trkpt>
      <trkpt lat="46.82248" lon="5.91687">
        <ele>609.4</ele>
        <time>2022-05-24T14:05:11Z</time>
      </trkpt>
      <trkpt lat="46.8224" lon="5.91688">
        <ele>609.2</ele>
        <time>2022-05-24T14:05:12Z</time>
      </trkpt>
      <trkpt lat="46.82231" lon="5.91689">
        <ele>609.2</ele>
        <time>2022-05-24T14:05:13Z</time>
      </trkpt>
      <trkpt lat="46.82222" lon="5.9169">
        <ele>609</ele>
        <time>2022-05-24T14:05:14Z</time>
      </trkpt>
      <trkpt lat="46.82214" lon="5.91691">
        <ele>608.6</ele>
        <time>2022-05-24T14:05:15Z</time>
      </trkpt>
      <trkpt lat="46.82205" lon="5.91693">
        <ele>608.6</ele>
        <time>2022-05-24T14:05:16Z</time>
      </trkpt>
      <trkpt lat="46.82196" lon="5.91694">
        <ele>608.2</ele>
        <time>2022-05-24T14:05:17Z</time>
      </trkpt>
      <trkpt lat="46.82188" lon="5.91695">
        <ele>608</ele>
        <time>2022-05-24T14:05:18Z</time>
      </trkpt>
      <trkpt lat="46.82179" lon="5.91696">
        <ele>607.8</ele>
        <time>2022-05-24T14:05:19Z</time>
      </trkpt>
      <trkpt lat="46.8217" lon="5.91697">
        <ele>607.4</ele>
        <time>2022-05-24T14:05:20Z</time>
      </trkpt>
      <trkpt lat="46.82162" lon="5.91697">
        <ele>607</ele>
        <time>2022-05-24T14:05:21Z</time>
      </trkpt>
      <trkpt lat="46.82153" lon="5.91698">
        <ele>606.6</ele>
        <time>2022-05-24T14:05:22Z</time>
      </trkpt>
      <trkpt lat="46.82144" lon="5.91699">
        <ele>606.6</ele>
        <time>2022-05-24T14:05:23Z</time>
      </trkpt>
      <trkpt lat="46.82135" lon="5.91701">
        <ele>606.2</ele>
        <time>2022-05-24T14:05:24Z</time>
      </trkpt>
      <trkpt lat="46.82126" lon="5.91702">
        <ele>606.2</ele>
        <time>2022-05-24T14:05:25Z</time>
      </trkpt>
      <trkpt lat="46.82116" lon="5.91703">
        <ele>606</ele>
        <time>2022-05-24T14:05:26Z</time>
      </trkpt>
      <trkpt lat="46.82107" lon="5.91704">
        <ele>605.8</ele>
        <time>2022-05-24T14:05:27Z</time>
      </trkpt>
      <trkpt lat="46.82098" lon="5.91705">
        <ele>605.8</ele>
        <time>2022-05-24T14:05:28Z</time>
      </trkpt>
      <trkpt lat="46.82089" lon="5.91705">
        <ele>605.4</ele>
        <time>2022-05-24T14:05:29Z</time>
      </trkpt>
      <trkpt lat="46.8208" lon="5.91706">
        <ele>605.4</ele>
        <time>2022-05-24T14:05:30Z</time>
      </trkpt>
      <trkpt lat="46.82071" lon="5.91707">
        <ele>605.4</ele>
        <time>2022-05-24T14:05:31Z</time>
      </trkpt>
      <trkpt lat="46.82062" lon="5.91708">
        <ele>605.4</ele>
        <time>2022-05-24T14:05:32Z</time>
      </trkpt>
      <trkpt lat="46.82054" lon="5.91709">
        <ele>605.4</ele>
        <time>2022-05-24T14:05:33Z</time>
      </trkpt>
      <trkpt lat="46.82045" lon="5.9171">
        <ele>605.2</ele>
        <time>2022-05-24T14:05:34Z</time>
      </trkpt>
      <trkpt lat="46.82037" lon="5.9171">
        <ele>605</ele>
        <time>2022-05-24T14:05:35Z</time>
      </trkpt>
      <trkpt lat="46.82037" lon="5.9171">
        <ele>605</ele>
        <time>2022-05-24T14:05:36Z</time>
      </trkpt>
      <trkpt lat="46.82029" lon="5.91711">
        <ele>604.8</ele>
        <time>2022-05-24T14:05:37Z</time>
      </trkpt>
      <trkpt lat="46.8202" lon="5.91712">
        <ele>604.8</ele>
        <time>2022-05-24T14:05:38Z</time>
      </trkpt>
      <trkpt lat="46.82012" lon="5.91713">
        <ele>604.4</ele>
        <time>2022-05-24T14:05:39Z</time>
      </trkpt>
      <trkpt lat="46.82004" lon="5.91714">
        <ele>604.2</ele>
        <time>2022-05-24T14:05:40Z</time>
      </trkpt>
      <trkpt lat="46.81996" lon="5.91715">
        <ele>604.2</ele>
        <time>2022-05-24T14:05:41Z</time>
      </trkpt>
      <trkpt lat="46.81988" lon="5.91716">
        <ele>604.2</ele>
        <time>2022-05-24T14:05:42Z</time>
      </trkpt>
      <trkpt lat="46.8198" lon="5.91717">
        <ele>604.2</ele>
        <time>2022-05-24T14:05:43Z</time>
      </trkpt>
      <trkpt lat="46.81972" lon="5.91718">
        <ele>604.2</ele>
        <time>2022-05-24T14:05:44Z</time>
      </trkpt>
      <trkpt lat="46.81964" lon="5.91719">
        <ele>604.2</ele>
        <time>2022-05-24T14:05:45Z</time>
      </trkpt>
      <trkpt lat="46.81957" lon="5.9172">
        <ele>604.2</ele>
        <time>2022-05-24T14:05:46Z</time>
      </trkpt>
      <trkpt lat="46.81949" lon="5.91721">
        <ele>604.2</ele>
        <time>2022-05-24T14:05:47Z</time>
      </trkpt>
      <trkpt lat="46.81942" lon="5.91723">
        <ele>604.2</ele>
        <time>2022-05-24T14:05:48Z</time>
      </trkpt>
      <trkpt lat="46.81935" lon="5.91724">
        <ele>604.2</ele>
        <time>2022-05-24T14:05:49Z</time>
      </trkpt>
      <trkpt lat="46.81928" lon="5.91726">
        <ele>604.2</ele>
        <time>2022-05-24T14:05:50Z</time>
      </trkpt>
      <trkpt lat="46.81921" lon="5.91727">
        <ele>604.2</ele>
        <time>2022-05-24T14:05:51Z</time>
      </trkpt>
      <trkpt lat="46.81913" lon="5.91729">
        <ele>604.2</ele>
        <time>2022-05-24T14:05:52Z</time>
      </trkpt>
      <trkpt lat="46.81906" lon="5.9173">
        <ele>604.2</ele>
        <time>2022-05-24T14:05:53Z</time>
      </trkpt>
      <trkpt lat="46.81899" lon="5.91731">
        <ele>604.2</ele>
        <time>2022-05-24T14:05:54Z</time>
      </trkpt>
      <trkpt lat="46.81892" lon="5.9173">
        <ele>603.8</ele>
        <time>2022-05-24T14:05:55Z</time>
      </trkpt>
      <trkpt lat="46.81885" lon="5.91729">
        <ele>603.8</ele>
        <time>2022-05-24T14:05:56Z</time>
      </trkpt>
      <trkpt lat="46.81877" lon="5.91726">
        <ele>603.4</ele>
        <time>2022-05-24T14:05:57Z</time>
      </trkpt>
      <trkpt lat="46.8187" lon="5.91724">
        <ele>603.4</ele>
        <time>2022-05-24T14:05:58Z</time>
      </trkpt>
      <trkpt lat="46.81863" lon="5.9172">
        <ele>603.4</ele>
        <time>2022-05-24T14:05:59Z</time>
      </trkpt>
      <trkpt lat="46.81856" lon="5.91716">
        <ele>603.6</ele>
        <time>2022-05-24T14:06:00Z</time>
      </trkpt>
      <trkpt lat="46.81849" lon="5.91712">
        <ele>603.6</ele>
        <time>2022-05-24T14:06:01Z</time>
      </trkpt>
      <trkpt lat="46.81842" lon="5.91707">
        <ele>603.2</ele>
        <time>2022-05-24T14:06:02Z</time>
      </trkpt>
      <trkpt lat="46.81834" lon="5.91703">
        <ele>603</ele>
        <time>2022-05-24T14:06:03Z</time>
      </trkpt>
      <trkpt lat="46.81827" lon="5.91698">
        <ele>602.6</ele>
        <time>2022-05-24T14:06:04Z</time>
      </trkpt>
      <trkpt lat="46.8182" lon="5.91694">
        <ele>602.2</ele>
        <time>2022-05-24T14:06:05Z</time>
      </trkpt>
      <trkpt lat="46.81812" lon="5.91689">
        <ele>602.2</ele>
        <time>2022-05-24T14:06:06Z</time>
      </trkpt>
      <trkpt lat="46.81805" lon="5.91684">
        <ele>601.8</ele>
        <time>2022-05-24T14:06:07Z</time>
      </trkpt>
      <trkpt lat="46.81797" lon="5.91679">
        <ele>601.6</ele>
        <time>2022-05-24T14:06:08Z</time>
      </trkpt>
      <trkpt lat="46.8179" lon="5.91674">
        <ele>601.4</ele>
        <time>2022-05-24T14:06:09Z</time>
      </trkpt>
      <trkpt lat="46.81782" lon="5.9167">
        <ele>601.2</ele>
        <time>2022-05-24T14:06:10Z</time>
      </trkpt>
      <trkpt lat="46.81775" lon="5.91665">
        <ele>601.2</ele>
        <time>2022-05-24T14:06:11Z</time>
      </trkpt>
      <trkpt lat="46.81767" lon="5.9166">
        <ele>600.8</ele>
        <time>2022-05-24T14:06:12Z</time>
      </trkpt>
      <trkpt lat="46.81759" lon="5.91655">
        <ele>600.8</ele>
        <time>2022-05-24T14:06:13Z</time>
      </trkpt>
      <trkpt lat="46.81748" lon="5.91649">
        <ele>600.8</ele>
        <time>2022-05-24T14:06:14Z</time>
      </trkpt>
      <trkpt lat="46.81744" lon="5.91647">
        <ele>600.6</ele>
        <time>2022-05-24T14:06:15Z</time>
      </trkpt>
      <trkpt lat="46.81736" lon="5.91643">
        <ele>600.6</ele>
        <time>2022-05-24T14:06:16Z</time>
      </trkpt>
      <trkpt lat="46.81728" lon="5.91639">
        <ele>600.4</ele>
        <time>2022-05-24T14:06:17Z</time>
      </trkpt>
      <trkpt lat="46.81721" lon="5.91635">
        <ele>600</ele>
        <time>2022-05-24T14:06:18Z</time>
      </trkpt>
      <trkpt lat="46.81713" lon="5.91632">
        <ele>599.8</ele>
        <time>2022-05-24T14:06:19Z</time>
      </trkpt>
      <trkpt lat="46.81705" lon="5.91628">
        <ele>599.8</ele>
        <time>2022-05-24T14:06:20Z</time>
      </trkpt>
      <trkpt lat="46.81697" lon="5.91624">
        <ele>599.4</ele>
        <time>2022-05-24T14:06:21Z</time>
      </trkpt>
      <trkpt lat="46.81689" lon="5.9162">
        <ele>599.2</ele>
        <time>2022-05-24T14:06:22Z</time>
      </trkpt>
      <trkpt lat="46.81681" lon="5.91616">
        <ele>599.2</ele>
        <time>2022-05-24T14:06:23Z</time>
      </trkpt>
      <trkpt lat="46.81673" lon="5.91613">
        <ele>598.8</ele>
        <time>2022-05-24T14:06:24Z</time>
      </trkpt>
      <trkpt lat="46.81665" lon="5.91609">
        <ele>598.8</ele>
        <time>2022-05-24T14:06:25Z</time>
      </trkpt>
      <trkpt lat="46.81657" lon="5.91606">
        <ele>598.4</ele>
        <time>2022-05-24T14:06:26Z</time>
      </trkpt>
      <trkpt lat="46.81649" lon="5.91603">
        <ele>598.4</ele>
        <time>2022-05-24T14:06:27Z</time>
      </trkpt>
      <trkpt lat="46.81641" lon="5.91602">
        <ele>598.2</ele>
        <time>2022-05-24T14:06:28Z</time>
      </trkpt>
      <trkpt lat="46.81633" lon="5.91601">
        <ele>598.2</ele>
        <time>2022-05-24T14:06:29Z</time>
      </trkpt>
      <trkpt lat="46.81626" lon="5.916">
        <ele>598.2</ele>
        <time>2022-05-24T14:06:30Z</time>
      </trkpt>
      <trkpt lat="46.81618" lon="5.916">
        <ele>598.2</ele>
        <time>2022-05-24T14:06:31Z</time>
      </trkpt>
      <trkpt lat="46.8161" lon="5.916">
        <ele>598.2</ele>
        <time>2022-05-24T14:06:32Z</time>
      </trkpt>
      <trkpt lat="46.81603" lon="5.91599">
        <ele>598.2</ele>
        <time>2022-05-24T14:06:33Z</time>
      </trkpt>
      <trkpt lat="46.81596" lon="5.91599">
        <ele>598.2</ele>
        <time>2022-05-24T14:06:34Z</time>
      </trkpt>
      <trkpt lat="46.81589" lon="5.91598">
        <ele>598.6</ele>
        <time>2022-05-24T14:06:35Z</time>
      </trkpt>
      <trkpt lat="46.81582" lon="5.91597">
        <ele>598.6</ele>
        <time>2022-05-24T14:06:36Z</time>
      </trkpt>
      <trkpt lat="46.81576" lon="5.91597">
        <ele>598.6</ele>
        <time>2022-05-24T14:06:37Z</time>
      </trkpt>
      <trkpt lat="46.8157" lon="5.91596">
        <ele>598.6</ele>
        <time>2022-05-24T14:06:38Z</time>
      </trkpt>
      <trkpt lat="46.81563" lon="5.91595">
        <ele>598.6</ele>
        <time>2022-05-24T14:06:39Z</time>
      </trkpt>
      <trkpt lat="46.81557" lon="5.91594">
        <ele>598.6</ele>
        <time>2022-05-24T14:06:40Z</time>
      </trkpt>
      <trkpt lat="46.8155" lon="5.91594">
        <ele>598.8</ele>
        <time>2022-05-24T14:06:41Z</time>
      </trkpt>
      <trkpt lat="46.81544" lon="5.91593">
        <ele>598.8</ele>
        <time>2022-05-24T14:06:42Z</time>
      </trkpt>
      <trkpt lat="46.81538" lon="5.91592">
        <ele>598.8</ele>
        <time>2022-05-24T14:06:43Z</time>
      </trkpt>
      <trkpt lat="46.81531" lon="5.91592">
        <ele>598.8</ele>
        <time>2022-05-24T14:06:44Z</time>
      </trkpt>
      <trkpt lat="46.81525" lon="5.91591">
        <ele>598.8</ele>
        <time>2022-05-24T14:06:45Z</time>
      </trkpt>
      <trkpt lat="46.81519" lon="5.91591">
        <ele>598.8</ele>
        <time>2022-05-24T14:06:46Z</time>
      </trkpt>
      <trkpt lat="46.81512" lon="5.9159">
        <ele>598.8</ele>
        <time>2022-05-24T14:06:47Z</time>
      </trkpt>
      <trkpt lat="46.81505" lon="5.9159">
        <ele>598.4</ele>
        <time>2022-05-24T14:06:48Z</time>
      </trkpt>
      <trkpt lat="46.81497" lon="5.91588">
        <ele>598.4</ele>
        <time>2022-05-24T14:06:49Z</time>
      </trkpt>
      <trkpt lat="46.8149" lon="5.91587">
        <ele>598.4</ele>
        <time>2022-05-24T14:06:50Z</time>
      </trkpt>
      <trkpt lat="46.81482" lon="5.91586">
        <ele>598.4</ele>
        <time>2022-05-24T14:06:51Z</time>
      </trkpt>
      <trkpt lat="46.81475" lon="5.91583">
        <ele>598.2</ele>
        <time>2022-05-24T14:06:52Z</time>
      </trkpt>
      <trkpt lat="46.81468" lon="5.91581">
        <ele>598</ele>
        <time>2022-05-24T14:06:53Z</time>
      </trkpt>
      <trkpt lat="46.8146" lon="5.91579">
        <ele>597.6</ele>
        <time>2022-05-24T14:06:54Z</time>
      </trkpt>
      <trkpt lat="46.81453" lon="5.91576">
        <ele>597.2</ele>
        <time>2022-05-24T14:06:55Z</time>
      </trkpt>
      <trkpt lat="46.81446" lon="5.91574">
        <ele>597.2</ele>
        <time>2022-05-24T14:06:56Z</time>
      </trkpt>
      <trkpt lat="46.81439" lon="5.91571">
        <ele>597.2</ele>
        <time>2022-05-24T14:06:57Z</time>
      </trkpt>
      <trkpt lat="46.81434" lon="5.91568">
        <ele>597.2</ele>
        <time>2022-05-24T14:06:58Z</time>
      </trkpt>
      <trkpt lat="46.81429" lon="5.91565">
        <ele>597</ele>
        <time>2022-05-24T14:06:59Z</time>
      </trkpt>
      <trkpt lat="46.81427" lon="5.91562">
        <ele>597</ele>
        <time>2022-05-24T14:07:00Z</time>
      </trkpt>
      <trkpt lat="46.81426" lon="5.91557">
        <ele>597</ele>
        <time>2022-05-24T14:07:01Z</time>
      </trkpt>
      <trkpt lat="46.81427" lon="5.91553">
        <ele>597</ele>
        <time>2022-05-24T14:07:02Z</time>
      </trkpt>
      <trkpt lat="46.81428" lon="5.91549">
        <ele>597</ele>
        <time>2022-05-24T14:07:03Z</time>
      </trkpt>
      <trkpt lat="46.8143" lon="5.91546">
        <ele>597</ele>
        <time>2022-05-24T14:07:04Z</time>
      </trkpt>
      <trkpt lat="46.81432" lon="5.91543">
        <ele>597</ele>
        <time>2022-05-24T14:07:05Z</time>
      </trkpt>
      <trkpt lat="46.81434" lon="5.91541">
        <ele>597.4</ele>
        <time>2022-05-24T14:07:06Z</time>
      </trkpt>
      <trkpt lat="46.81436" lon="5.91538">
        <ele>597.4</ele>
        <time>2022-05-24T14:07:07Z</time>
      </trkpt>
      <trkpt lat="46.81438" lon="5.91535">
        <ele>597.6</ele>
        <time>2022-05-24T14:07:08Z</time>
      </trkpt>
      <trkpt lat="46.8144" lon="5.91532">
        <ele>597.6</ele>
        <time>2022-05-24T14:07:09Z</time>
      </trkpt>
      <trkpt lat="46.81442" lon="5.91529">
        <ele>597.8</ele>
        <time>2022-05-24T14:07:10Z</time>
      </trkpt>
      <trkpt lat="46.81443" lon="5.91526">
        <ele>598.2</ele>
        <time>2022-05-24T14:07:11Z</time>
      </trkpt>
      <trkpt lat="46.81444" lon="5.91522">
        <ele>598.2</ele>
        <time>2022-05-24T14:07:12Z</time>
      </trkpt>
      <trkpt lat="46.81446" lon="5.91519">
        <ele>598.4</ele>
        <time>2022-05-24T14:07:13Z</time>
      </trkpt>
      <trkpt lat="46.81447" lon="5.91516">
        <ele>598.8</ele>
        <time>2022-05-24T14:07:14Z</time>
      </trkpt>
      <trkpt lat="46.81449" lon="5.91513">
        <ele>599</ele>
        <time>2022-05-24T14:07:15Z</time>
      </trkpt>
      <trkpt lat="46.8145" lon="5.91509">
        <ele>599.2</ele>
        <time>2022-05-24T14:07:16Z</time>
      </trkpt>
      <trkpt lat="46.81452" lon="5.91506">
        <ele>599.4</ele>
        <time>2022-05-24T14:07:17Z</time>
      </trkpt>
      <trkpt lat="46.81453" lon="5.91503">
        <ele>599.4</ele>
        <time>2022-05-24T14:07:18Z</time>
      </trkpt>
      <trkpt lat="46.81454" lon="5.915">
        <ele>599.8</ele>
        <time>2022-05-24T14:07:19Z</time>
      </trkpt>
      <trkpt lat="46.81456" lon="5.91496">
        <ele>600.2</ele>
        <time>2022-05-24T14:07:20Z</time>
      </trkpt>
      <trkpt lat="46.81458" lon="5.91493">
        <ele>600.4</ele>
        <time>2022-05-24T14:07:21Z</time>
      </trkpt>
      <trkpt lat="46.8146" lon="5.9149">
        <ele>600.6</ele>
        <time>2022-05-24T14:07:22Z</time>
      </trkpt>
      <trkpt lat="46.81462" lon="5.91487">
        <ele>601</ele>
        <time>2022-05-24T14:07:23Z</time>
      </trkpt>
      <trkpt lat="46.81464" lon="5.91484">
        <ele>601.2</ele>
        <time>2022-05-24T14:07:24Z</time>
      </trkpt>
      <trkpt lat="46.81466" lon="5.91481">
        <ele>601.2</ele>
        <time>2022-05-24T14:07:25Z</time>
      </trkpt>
      <trkpt lat="46.81467" lon="5.91477">
        <ele>601.4</ele>
        <time>2022-05-24T14:07:26Z</time>
      </trkpt>
      <trkpt lat="46.81469" lon="5.91473">
        <ele>601.4</ele>
        <time>2022-05-24T14:07:27Z</time>
      </trkpt>
      <trkpt lat="46.81471" lon="5.91469">
        <ele>601.8</ele>
        <time>2022-05-24T14:07:28Z</time>
      </trkpt>
      <trkpt lat="46.81473" lon="5.91466">
        <ele>601.8</ele>
        <time>2022-05-24T14:07:29Z</time>
      </trkpt>
      <trkpt lat="46.81475" lon="5.91463">
        <ele>602</ele>
        <time>2022-05-24T14:07:30Z</time>
      </trkpt>
      <trkpt lat="46.81478" lon="5.9146">
        <ele>602</ele>
        <time>2022-05-24T14:07:31Z</time>
      </trkpt>
      <trkpt lat="46.81481" lon="5.91457">
        <ele>602.2</ele>
        <time>2022-05-24T14:07:32Z</time>
      </trkpt>
      <trkpt lat="46.81483" lon="5.91453">
        <ele>602.2</ele>
        <time>2022-05-24T14:07:33Z</time>
      </trkpt>
      <trkpt lat="46.81486" lon="5.91449">
        <ele>602.2</ele>
        <time>2022-05-24T14:07:34Z</time>
      </trkpt>
      <trkpt lat="46.81488" lon="5.91445">
        <ele>602.4</ele>
        <time>2022-05-24T14:07:35Z</time>
      </trkpt>
      <trkpt lat="46.8149" lon="5.91441">
        <ele>602.4</ele>
        <time>2022-05-24T14:07:36Z</time>
      </trkpt>
      <trkpt lat="46.81492" lon="5.91436">
        <ele>602.4</ele>
        <time>2022-05-24T14:07:37Z</time>
      </trkpt>
      <trkpt lat="46.81495" lon="5.91432">
        <ele>602.8</ele>
        <time>2022-05-24T14:07:38Z</time>
      </trkpt>
      <trkpt lat="46.81497" lon="5.91428">
        <ele>602.8</ele>
        <time>2022-05-24T14:07:39Z</time>
      </trkpt>
      <trkpt lat="46.815" lon="5.91424">
        <ele>602.8</ele>
        <time>2022-05-24T14:07:40Z</time>
      </trkpt>
      <trkpt lat="46.81503" lon="5.9142">
        <ele>603</ele>
        <time>2022-05-24T14:07:41Z</time>
      </trkpt>
      <trkpt lat="46.81505" lon="5.91415">
        <ele>603</ele>
        <time>2022-05-24T14:07:42Z</time>
      </trkpt>
      <trkpt lat="46.81507" lon="5.91411">
        <ele>603</ele>
        <time>2022-05-24T14:07:43Z</time>
      </trkpt>
      <trkpt lat="46.81509" lon="5.91406">
        <ele>603</ele>
        <time>2022-05-24T14:07:44Z</time>
      </trkpt>
      <trkpt lat="46.81511" lon="5.91402">
        <ele>603.4</ele>
        <time>2022-05-24T14:07:45Z</time>
      </trkpt>
      <trkpt lat="46.81512" lon="5.91397">
        <ele>603.4</ele>
        <time>2022-05-24T14:07:46Z</time>
      </trkpt>
      <trkpt lat="46.81514" lon="5.91392">
        <ele>603.4</ele>
        <time>2022-05-24T14:07:47Z</time>
      </trkpt>
      <trkpt lat="46.81516" lon="5.91388">
        <ele>603.6</ele>
        <time>2022-05-24T14:07:48Z</time>
      </trkpt>
      <trkpt lat="46.81517" lon="5.91383">
        <ele>603.6</ele>
        <time>2022-05-24T14:07:49Z</time>
      </trkpt>
      <trkpt lat="46.81519" lon="5.91378">
        <ele>603.8</ele>
        <time>2022-05-24T14:07:50Z</time>
      </trkpt>
      <trkpt lat="46.8152" lon="5.91373">
        <ele>603.8</ele>
        <time>2022-05-24T14:07:51Z</time>
      </trkpt>
      <trkpt lat="46.81521" lon="5.91368">
        <ele>604.2</ele>
        <time>2022-05-24T14:07:52Z</time>
      </trkpt>
      <trkpt lat="46.81522" lon="5.91363">
        <ele>604.2</ele>
        <time>2022-05-24T14:07:53Z</time>
      </trkpt>
      <trkpt lat="46.81522" lon="5.91357">
        <ele>604.4</ele>
        <time>2022-05-24T14:07:54Z</time>
      </trkpt>
      <trkpt lat="46.81523" lon="5.91352">
        <ele>604.6</ele>
        <time>2022-05-24T14:07:55Z</time>
      </trkpt>
      <trkpt lat="46.81524" lon="5.91347">
        <ele>604.6</ele>
        <time>2022-05-24T14:07:56Z</time>
      </trkpt>
      <trkpt lat="46.81525" lon="5.91342">
        <ele>605</ele>
        <time>2022-05-24T14:07:57Z</time>
      </trkpt>
      <trkpt lat="46.81525" lon="5.91336">
        <ele>605.4</ele>
        <time>2022-05-24T14:07:58Z</time>
      </trkpt>
      <trkpt lat="46.81526" lon="5.91331">
        <ele>605.6</ele>
        <time>2022-05-24T14:07:59Z</time>
      </trkpt>
      <trkpt lat="46.81526" lon="5.91326">
        <ele>605.6</ele>
        <time>2022-05-24T14:08:00Z</time>
      </trkpt>
      <trkpt lat="46.81526" lon="5.9132">
        <ele>606.2</ele>
        <time>2022-05-24T14:08:01Z</time>
      </trkpt>
      <trkpt lat="46.81526" lon="5.91315">
        <ele>606.2</ele>
        <time>2022-05-24T14:08:02Z</time>
      </trkpt>
      <trkpt lat="46.81526" lon="5.9131">
        <ele>606.6</ele>
        <time>2022-05-24T14:08:03Z</time>
      </trkpt>
      <trkpt lat="46.81526" lon="5.91305">
        <ele>606.6</ele>
        <time>2022-05-24T14:08:04Z</time>
      </trkpt>
      <trkpt lat="46.81526" lon="5.913">
        <ele>606.8</ele>
        <time>2022-05-24T14:08:05Z</time>
      </trkpt>
      <trkpt lat="46.81526" lon="5.91295">
        <ele>606.8</ele>
        <time>2022-05-24T14:08:06Z</time>
      </trkpt>
      <trkpt lat="46.81526" lon="5.9129">
        <ele>607</ele>
        <time>2022-05-24T14:08:07Z</time>
      </trkpt>
      <trkpt lat="46.81526" lon="5.91286">
        <ele>607</ele>
        <time>2022-05-24T14:08:08Z</time>
      </trkpt>
      <trkpt lat="46.81524" lon="5.91279">
        <ele>607.4</ele>
        <time>2022-05-24T14:08:09Z</time>
      </trkpt>
      <trkpt lat="46.81524" lon="5.91276">
        <ele>607.4</ele>
        <time>2022-05-24T14:08:10Z</time>
      </trkpt>
      <trkpt lat="46.81522" lon="5.91268">
        <ele>607.6</ele>
        <time>2022-05-24T14:08:11Z</time>
      </trkpt>
      <trkpt lat="46.81521" lon="5.91264">
        <ele>607.6</ele>
        <time>2022-05-24T14:08:12Z</time>
      </trkpt>
      <trkpt lat="46.81521" lon="5.91264">
        <ele>608</ele>
        <time>2022-05-24T14:08:13Z</time>
      </trkpt>
      <trkpt lat="46.81521" lon="5.9126">
        <ele>608</ele>
        <time>2022-05-24T14:08:14Z</time>
      </trkpt>
      <trkpt lat="46.8152" lon="5.91256">
        <ele>608.4</ele>
        <time>2022-05-24T14:08:15Z</time>
      </trkpt>
      <trkpt lat="46.8152" lon="5.91252">
        <ele>608.4</ele>
        <time>2022-05-24T14:08:16Z</time>
      </trkpt>
      <trkpt lat="46.81519" lon="5.91248">
        <ele>608.8</ele>
        <time>2022-05-24T14:08:17Z</time>
      </trkpt>
      <trkpt lat="46.81519" lon="5.91244">
        <ele>609</ele>
        <time>2022-05-24T14:08:18Z</time>
      </trkpt>
      <trkpt lat="46.81519" lon="5.91239">
        <ele>609.4</ele>
        <time>2022-05-24T14:08:19Z</time>
      </trkpt>
      <trkpt lat="46.81519" lon="5.91231">
        <ele>609.4</ele>
        <time>2022-05-24T14:08:20Z</time>
      </trkpt>
      <trkpt lat="46.81519" lon="5.91227">
        <ele>609.6</ele>
        <time>2022-05-24T14:08:21Z</time>
      </trkpt>
      <trkpt lat="46.81519" lon="5.91222">
        <ele>610</ele>
        <time>2022-05-24T14:08:22Z</time>
      </trkpt>
      <trkpt lat="46.81519" lon="5.91218">
        <ele>610</ele>
        <time>2022-05-24T14:08:23Z</time>
      </trkpt>
      <trkpt lat="46.81519" lon="5.91213">
        <ele>610</ele>
        <time>2022-05-24T14:08:24Z</time>
      </trkpt>
      <trkpt lat="46.81519" lon="5.91208">
        <ele>610.2</ele>
        <time>2022-05-24T14:08:25Z</time>
      </trkpt>
      <trkpt lat="46.81519" lon="5.91204">
        <ele>610.2</ele>
        <time>2022-05-24T14:08:26Z</time>
      </trkpt>
      <trkpt lat="46.81519" lon="5.91199">
        <ele>610.2</ele>
        <time>2022-05-24T14:08:27Z</time>
      </trkpt>
      <trkpt lat="46.81519" lon="5.91195">
        <ele>610.6</ele>
        <time>2022-05-24T14:08:28Z</time>
      </trkpt>
      <trkpt lat="46.81519" lon="5.9119">
        <ele>610.6</ele>
        <time>2022-05-24T14:08:29Z</time>
      </trkpt>
      <trkpt lat="46.81518" lon="5.91186">
        <ele>610.8</ele>
        <time>2022-05-24T14:08:30Z</time>
      </trkpt>
      <trkpt lat="46.81518" lon="5.91181">
        <ele>610.8</ele>
        <time>2022-05-24T14:08:31Z</time>
      </trkpt>
      <trkpt lat="46.81518" lon="5.91177">
        <ele>611.2</ele>
        <time>2022-05-24T14:08:32Z</time>
      </trkpt>
      <trkpt lat="46.81518" lon="5.91172">
        <ele>611.4</ele>
        <time>2022-05-24T14:08:33Z</time>
      </trkpt>
      <trkpt lat="46.81518" lon="5.91168">
        <ele>611.8</ele>
        <time>2022-05-24T14:08:34Z</time>
      </trkpt>
      <trkpt lat="46.81518" lon="5.91164">
        <ele>611.8</ele>
        <time>2022-05-24T14:08:35Z</time>
      </trkpt>
      <trkpt lat="46.81518" lon="5.91159">
        <ele>612</ele>
        <time>2022-05-24T14:08:36Z</time>
      </trkpt>
      <trkpt lat="46.81518" lon="5.91155">
        <ele>612</ele>
        <time>2022-05-24T14:08:37Z</time>
      </trkpt>
      <trkpt lat="46.81518" lon="5.9115">
        <ele>612.2</ele>
        <time>2022-05-24T14:08:38Z</time>
      </trkpt>
      <trkpt lat="46.81518" lon="5.91145">
        <ele>612.4</ele>
        <time>2022-05-24T14:08:39Z</time>
      </trkpt>
      <trkpt lat="46.81518" lon="5.91141">
        <ele>612.4</ele>
        <time>2022-05-24T14:08:40Z</time>
      </trkpt>
      <trkpt lat="46.81518" lon="5.91136">
        <ele>612.6</ele>
        <time>2022-05-24T14:08:41Z</time>
      </trkpt>
      <trkpt lat="46.81518" lon="5.91131">
        <ele>612.6</ele>
        <time>2022-05-24T14:08:42Z</time>
      </trkpt>
      <trkpt lat="46.81518" lon="5.91126">
        <ele>612.8</ele>
        <time>2022-05-24T14:08:43Z</time>
      </trkpt>
      <trkpt lat="46.81518" lon="5.9112">
        <ele>612.8</ele>
        <time>2022-05-24T14:08:44Z</time>
      </trkpt>
      <trkpt lat="46.81518" lon="5.91114">
        <ele>612.8</ele>
        <time>2022-05-24T14:08:45Z</time>
      </trkpt>
      <trkpt lat="46.81518" lon="5.91107">
        <ele>612.8</ele>
        <time>2022-05-24T14:08:46Z</time>
      </trkpt>
      <trkpt lat="46.81518" lon="5.91101">
        <ele>612.8</ele>
        <time>2022-05-24T14:08:47Z</time>
      </trkpt>
      <trkpt lat="46.81518" lon="5.91094">
        <ele>612.8</ele>
        <time>2022-05-24T14:08:48Z</time>
      </trkpt>
      <trkpt lat="46.81518" lon="5.91087">
        <ele>612.8</ele>
        <time>2022-05-24T14:08:49Z</time>
      </trkpt>
      <trkpt lat="46.81518" lon="5.9108">
        <ele>612.8</ele>
        <time>2022-05-24T14:08:50Z</time>
      </trkpt>
      <trkpt lat="46.81518" lon="5.91073">
        <ele>612.8</ele>
        <time>2022-05-24T14:08:51Z</time>
      </trkpt>
      <trkpt lat="46.81519" lon="5.91066">
        <ele>612.8</ele>
        <time>2022-05-24T14:08:52Z</time>
      </trkpt>
      <trkpt lat="46.81518" lon="5.91059">
        <ele>612.8</ele>
        <time>2022-05-24T14:08:53Z</time>
      </trkpt>
      <trkpt lat="46.81518" lon="5.91052">
        <ele>612.8</ele>
        <time>2022-05-24T14:08:54Z</time>
      </trkpt>
      <trkpt lat="46.81518" lon="5.91046">
        <ele>612.8</ele>
        <time>2022-05-24T14:08:55Z</time>
      </trkpt>
      <trkpt lat="46.81518" lon="5.91039">
        <ele>612.8</ele>
        <time>2022-05-24T14:08:56Z</time>
      </trkpt>
      <trkpt lat="46.81518" lon="5.91032">
        <ele>613.2</ele>
        <time>2022-05-24T14:08:57Z</time>
      </trkpt>
      <trkpt lat="46.81518" lon="5.91025">
        <ele>613.2</ele>
        <time>2022-05-24T14:08:58Z</time>
      </trkpt>
      <trkpt lat="46.81518" lon="5.91018">
        <ele>613.2</ele>
        <time>2022-05-24T14:08:59Z</time>
      </trkpt>
      <trkpt lat="46.81518" lon="5.91012">
        <ele>613.2</ele>
        <time>2022-05-24T14:09:00Z</time>
      </trkpt>
      <trkpt lat="46.81518" lon="5.91005">
        <ele>613.2</ele>
        <time>2022-05-24T14:09:01Z</time>
      </trkpt>
      <trkpt lat="46.81518" lon="5.90999">
        <ele>613.2</ele>
        <time>2022-05-24T14:09:02Z</time>
      </trkpt>
      <trkpt lat="46.81518" lon="5.90992">
        <ele>613.4</ele>
        <time>2022-05-24T14:09:03Z</time>
      </trkpt>
      <trkpt lat="46.81518" lon="5.90986">
        <ele>613.4</ele>
        <time>2022-05-24T14:09:04Z</time>
      </trkpt>
      <trkpt lat="46.81518" lon="5.9098">
        <ele>613.6</ele>
        <time>2022-05-24T14:09:05Z</time>
      </trkpt>
      <trkpt lat="46.81518" lon="5.90974">
        <ele>613.6</ele>
        <time>2022-05-24T14:09:06Z</time>
      </trkpt>
      <trkpt lat="46.81518" lon="5.90968">
        <ele>613.6</ele>
        <time>2022-05-24T14:09:07Z</time>
      </trkpt>
      <trkpt lat="46.81518" lon="5.90962">
        <ele>613.8</ele>
        <time>2022-05-24T14:09:08Z</time>
      </trkpt>
      <trkpt lat="46.81518" lon="5.90957">
        <ele>613.8</ele>
        <time>2022-05-24T14:09:09Z</time>
      </trkpt>
      <trkpt lat="46.81518" lon="5.90951">
        <ele>613.8</ele>
        <time>2022-05-24T14:09:10Z</time>
      </trkpt>
      <trkpt lat="46.81518" lon="5.90945">
        <ele>614.2</ele>
        <time>2022-05-24T14:09:11Z</time>
      </trkpt>
      <trkpt lat="46.81518" lon="5.9094">
        <ele>614.2</ele>
        <time>2022-05-24T14:09:12Z</time>
      </trkpt>
      <trkpt lat="46.81518" lon="5.90934">
        <ele>614.6</ele>
        <time>2022-05-24T14:09:13Z</time>
      </trkpt>
      <trkpt lat="46.81517" lon="5.90928">
        <ele>614.6</ele>
        <time>2022-05-24T14:09:14Z</time>
      </trkpt>
      <trkpt lat="46.81517" lon="5.90923">
        <ele>614.6</ele>
        <time>2022-05-24T14:09:15Z</time>
      </trkpt>
      <trkpt lat="46.81517" lon="5.90917">
        <ele>614.8</ele>
        <time>2022-05-24T14:09:16Z</time>
      </trkpt>
      <trkpt lat="46.81517" lon="5.90912">
        <ele>614.8</ele>
        <time>2022-05-24T14:09:17Z</time>
      </trkpt>
      <trkpt lat="46.81516" lon="5.90906">
        <ele>615</ele>
        <time>2022-05-24T14:09:18Z</time>
      </trkpt>
      <trkpt lat="46.81516" lon="5.909">
        <ele>615</ele>
        <time>2022-05-24T14:09:19Z</time>
      </trkpt>
      <trkpt lat="46.81515" lon="5.90895">
        <ele>615</ele>
        <time>2022-05-24T14:09:20Z</time>
      </trkpt>
      <trkpt lat="46.81515" lon="5.9089">
        <ele>615.4</ele>
        <time>2022-05-24T14:09:21Z</time>
      </trkpt>
      <trkpt lat="46.81514" lon="5.90884">
        <ele>615.4</ele>
        <time>2022-05-24T14:09:22Z</time>
      </trkpt>
      <trkpt lat="46.81514" lon="5.90879">
        <ele>615.8</ele>
        <time>2022-05-24T14:09:23Z</time>
      </trkpt>
      <trkpt lat="46.81513" lon="5.90874">
        <ele>616</ele>
        <time>2022-05-24T14:09:24Z</time>
      </trkpt>
      <trkpt lat="46.81513" lon="5.90869">
        <ele>616</ele>
        <time>2022-05-24T14:09:25Z</time>
      </trkpt>
      <trkpt lat="46.81512" lon="5.90865">
        <ele>616.4</ele>
        <time>2022-05-24T14:09:26Z</time>
      </trkpt>
      <trkpt lat="46.81511" lon="5.9086">
        <ele>616.4</ele>
        <time>2022-05-24T14:09:27Z</time>
      </trkpt>
      <trkpt lat="46.81511" lon="5.90855">
        <ele>616.8</ele>
        <time>2022-05-24T14:09:28Z</time>
      </trkpt>
      <trkpt lat="46.81511" lon="5.90851">
        <ele>617</ele>
        <time>2022-05-24T14:09:29Z</time>
      </trkpt>
      <trkpt lat="46.81511" lon="5.90846">
        <ele>617</ele>
        <time>2022-05-24T14:09:30Z</time>
      </trkpt>
      <trkpt lat="46.8151" lon="5.90841">
        <ele>617.4</ele>
        <time>2022-05-24T14:09:31Z</time>
      </trkpt>
      <trkpt lat="46.8151" lon="5.90836">
        <ele>617.4</ele>
        <time>2022-05-24T14:09:32Z</time>
      </trkpt>
      <trkpt lat="46.81509" lon="5.90831">
        <ele>617.8</ele>
        <time>2022-05-24T14:09:33Z</time>
      </trkpt>
      <trkpt lat="46.81509" lon="5.90826">
        <ele>617.8</ele>
        <time>2022-05-24T14:09:34Z</time>
      </trkpt>
      <trkpt lat="46.81508" lon="5.90822">
        <ele>618.2</ele>
        <time>2022-05-24T14:09:35Z</time>
      </trkpt>
      <trkpt lat="46.81508" lon="5.90817">
        <ele>618.2</ele>
        <time>2022-05-24T14:09:36Z</time>
      </trkpt>
      <trkpt lat="46.81508" lon="5.90811">
        <ele>618.4</ele>
        <time>2022-05-24T14:09:37Z</time>
      </trkpt>
      <trkpt lat="46.81508" lon="5.90806">
        <ele>618.4</ele>
        <time>2022-05-24T14:09:38Z</time>
      </trkpt>
      <trkpt lat="46.81507" lon="5.90801">
        <ele>618.4</ele>
        <time>2022-05-24T14:09:39Z</time>
      </trkpt>
      <trkpt lat="46.81507" lon="5.90796">
        <ele>618.4</ele>
        <time>2022-05-24T14:09:40Z</time>
      </trkpt>
      <trkpt lat="46.81506" lon="5.90791">
        <ele>618.6</ele>
        <time>2022-05-24T14:09:41Z</time>
      </trkpt>
      <trkpt lat="46.81506" lon="5.90786">
        <ele>619</ele>
        <time>2022-05-24T14:09:42Z</time>
      </trkpt>
      <trkpt lat="46.81505" lon="5.90781">
        <ele>619</ele>
        <time>2022-05-24T14:09:43Z</time>
      </trkpt>
      <trkpt lat="46.81505" lon="5.90776">
        <ele>619.2</ele>
        <time>2022-05-24T14:09:44Z</time>
      </trkpt>
      <trkpt lat="46.81505" lon="5.90771">
        <ele>619.2</ele>
        <time>2022-05-24T14:09:45Z</time>
      </trkpt>
      <trkpt lat="46.81504" lon="5.90766">
        <ele>619.6</ele>
        <time>2022-05-24T14:09:46Z</time>
      </trkpt>
      <trkpt lat="46.81504" lon="5.90761">
        <ele>619.8</ele>
        <time>2022-05-24T14:09:47Z</time>
      </trkpt>
      <trkpt lat="46.81503" lon="5.90756">
        <ele>619.8</ele>
        <time>2022-05-24T14:09:48Z</time>
      </trkpt>
      <trkpt lat="46.81502" lon="5.90751">
        <ele>620.2</ele>
        <time>2022-05-24T14:09:49Z</time>
      </trkpt>
      <trkpt lat="46.81502" lon="5.90746">
        <ele>620.2</ele>
        <time>2022-05-24T14:09:50Z</time>
      </trkpt>
      <trkpt lat="46.81501" lon="5.90741">
        <ele>620.6</ele>
        <time>2022-05-24T14:09:51Z</time>
      </trkpt>
      <trkpt lat="46.815" lon="5.90736">
        <ele>620.6</ele>
        <time>2022-05-24T14:09:52Z</time>
      </trkpt>
      <trkpt lat="46.815" lon="5.90732">
        <ele>620.8</ele>
        <time>2022-05-24T14:09:53Z</time>
      </trkpt>
      <trkpt lat="46.815" lon="5.90727">
        <ele>620.8</ele>
        <time>2022-05-24T14:09:54Z</time>
      </trkpt>
      <trkpt lat="46.81499" lon="5.90722">
        <ele>621.2</ele>
        <time>2022-05-24T14:09:55Z</time>
      </trkpt>
      <trkpt lat="46.81499" lon="5.90718">
        <ele>621.2</ele>
        <time>2022-05-24T14:09:56Z</time>
      </trkpt>
      <trkpt lat="46.81498" lon="5.90713">
        <ele>621.4</ele>
        <time>2022-05-24T14:09:57Z</time>
      </trkpt>
      <trkpt lat="46.81498" lon="5.90708">
        <ele>621.8</ele>
        <time>2022-05-24T14:09:58Z</time>
      </trkpt>
      <trkpt lat="46.81497" lon="5.90704">
        <ele>622</ele>
        <time>2022-05-24T14:09:59Z</time>
      </trkpt>
      <trkpt lat="46.81497" lon="5.90699">
        <ele>622</ele>
        <time>2022-05-24T14:10:00Z</time>
      </trkpt>
      <trkpt lat="46.81496" lon="5.90695">
        <ele>622.4</ele>
        <time>2022-05-24T14:10:01Z</time>
      </trkpt>
      <trkpt lat="46.81496" lon="5.9069">
        <ele>622.6</ele>
        <time>2022-05-24T14:10:02Z</time>
      </trkpt>
      <trkpt lat="46.81496" lon="5.90686">
        <ele>622.8</ele>
        <time>2022-05-24T14:10:03Z</time>
      </trkpt>
      <trkpt lat="46.81495" lon="5.90682">
        <ele>623.2</ele>
        <time>2022-05-24T14:10:04Z</time>
      </trkpt>
      <trkpt lat="46.81495" lon="5.90678">
        <ele>623.4</ele>
        <time>2022-05-24T14:10:05Z</time>
      </trkpt>
      <trkpt lat="46.81494" lon="5.90674">
        <ele>623.4</ele>
        <time>2022-05-24T14:10:06Z</time>
      </trkpt>
      <trkpt lat="46.81494" lon="5.9067">
        <ele>623.8</ele>
        <time>2022-05-24T14:10:07Z</time>
      </trkpt>
      <trkpt lat="46.81494" lon="5.90666">
        <ele>623.8</ele>
        <time>2022-05-24T14:10:08Z</time>
      </trkpt>
      <trkpt lat="46.81494" lon="5.90662">
        <ele>624.2</ele>
        <time>2022-05-24T14:10:09Z</time>
      </trkpt>
      <trkpt lat="46.81493" lon="5.90658">
        <ele>624.2</ele>
        <time>2022-05-24T14:10:10Z</time>
      </trkpt>
      <trkpt lat="46.81493" lon="5.90654">
        <ele>624.6</ele>
        <time>2022-05-24T14:10:11Z</time>
      </trkpt>
      <trkpt lat="46.81493" lon="5.90649">
        <ele>624.8</ele>
        <time>2022-05-24T14:10:12Z</time>
      </trkpt>
      <trkpt lat="46.81494" lon="5.90645">
        <ele>624.8</ele>
        <time>2022-05-24T14:10:13Z</time>
      </trkpt>
      <trkpt lat="46.81494" lon="5.90641">
        <ele>625</ele>
        <time>2022-05-24T14:10:14Z</time>
      </trkpt>
      <trkpt lat="46.81494" lon="5.90637">
        <ele>625</ele>
        <time>2022-05-24T14:10:15Z</time>
      </trkpt>
      <trkpt lat="46.81494" lon="5.90633">
        <ele>625.4</ele>
        <time>2022-05-24T14:10:16Z</time>
      </trkpt>
      <trkpt lat="46.81494" lon="5.90629">
        <ele>625.6</ele>
        <time>2022-05-24T14:10:17Z</time>
      </trkpt>
      <trkpt lat="46.81494" lon="5.90625">
        <ele>625.6</ele>
        <time>2022-05-24T14:10:18Z</time>
      </trkpt>
      <trkpt lat="46.81495" lon="5.90621">
        <ele>625.8</ele>
        <time>2022-05-24T14:10:19Z</time>
      </trkpt>
      <trkpt lat="46.81495" lon="5.90617">
        <ele>625.8</ele>
        <time>2022-05-24T14:10:20Z</time>
      </trkpt>
      <trkpt lat="46.81495" lon="5.90613">
        <ele>625.8</ele>
        <time>2022-05-24T14:10:21Z</time>
      </trkpt>
      <trkpt lat="46.81496" lon="5.90608">
        <ele>626.2</ele>
        <time>2022-05-24T14:10:22Z</time>
      </trkpt>
      <trkpt lat="46.81496" lon="5.90604">
        <ele>626.2</ele>
        <time>2022-05-24T14:10:23Z</time>
      </trkpt>
      <trkpt lat="46.81496" lon="5.906">
        <ele>626.6</ele>
        <time>2022-05-24T14:10:24Z</time>
      </trkpt>
      <trkpt lat="46.81496" lon="5.90595">
        <ele>626.6</ele>
        <time>2022-05-24T14:10:25Z</time>
      </trkpt>
      <trkpt lat="46.81497" lon="5.90591">
        <ele>626.8</ele>
        <time>2022-05-24T14:10:26Z</time>
      </trkpt>
      <trkpt lat="46.81497" lon="5.90586">
        <ele>627</ele>
        <time>2022-05-24T14:10:27Z</time>
      </trkpt>
      <trkpt lat="46.81497" lon="5.90586">
        <ele>627</ele>
        <time>2022-05-24T14:10:28Z</time>
      </trkpt>
      <trkpt lat="46.81498" lon="5.90582">
        <ele>627.2</ele>
        <time>2022-05-24T14:10:29Z</time>
      </trkpt>
      <trkpt lat="46.81498" lon="5.90578">
        <ele>627.2</ele>
        <time>2022-05-24T14:10:30Z</time>
      </trkpt>
      <trkpt lat="46.81498" lon="5.90574">
        <ele>627.6</ele>
        <time>2022-05-24T14:10:31Z</time>
      </trkpt>
      <trkpt lat="46.81498" lon="5.9057">
        <ele>627.8</ele>
        <time>2022-05-24T14:10:32Z</time>
      </trkpt>
      <trkpt lat="46.81499" lon="5.90565">
        <ele>627.8</ele>
        <time>2022-05-24T14:10:33Z</time>
      </trkpt>
      <trkpt lat="46.81499" lon="5.90561">
        <ele>628</ele>
        <time>2022-05-24T14:10:34Z</time>
      </trkpt>
      <trkpt lat="46.81499" lon="5.90556">
        <ele>628.2</ele>
        <time>2022-05-24T14:10:35Z</time>
      </trkpt>
      <trkpt lat="46.815" lon="5.90552">
        <ele>628.2</ele>
        <time>2022-05-24T14:10:36Z</time>
      </trkpt>
      <trkpt lat="46.815" lon="5.90547">
        <ele>628.6</ele>
        <time>2022-05-24T14:10:37Z</time>
      </trkpt>
      <trkpt lat="46.81501" lon="5.90543">
        <ele>628.6</ele>
        <time>2022-05-24T14:10:38Z</time>
      </trkpt>
      <trkpt lat="46.81501" lon="5.90538">
        <ele>628.8</ele>
        <time>2022-05-24T14:10:39Z</time>
      </trkpt>
      <trkpt lat="46.81502" lon="5.90534">
        <ele>628.8</ele>
        <time>2022-05-24T14:10:40Z</time>
      </trkpt>
      <trkpt lat="46.81502" lon="5.9053">
        <ele>629.2</ele>
        <time>2022-05-24T14:10:41Z</time>
      </trkpt>
      <trkpt lat="46.81503" lon="5.90525">
        <ele>629.2</ele>
        <time>2022-05-24T14:10:42Z</time>
      </trkpt>
      <trkpt lat="46.81503" lon="5.90521">
        <ele>629.4</ele>
        <time>2022-05-24T14:10:43Z</time>
      </trkpt>
      <trkpt lat="46.81503" lon="5.90516">
        <ele>629.4</ele>
        <time>2022-05-24T14:10:44Z</time>
      </trkpt>
      <trkpt lat="46.81504" lon="5.90512">
        <ele>629.8</ele>
        <time>2022-05-24T14:10:45Z</time>
      </trkpt>
      <trkpt lat="46.81504" lon="5.90507">
        <ele>629.8</ele>
        <time>2022-05-24T14:10:46Z</time>
      </trkpt>
      <trkpt lat="46.81505" lon="5.90503">
        <ele>630</ele>
        <time>2022-05-24T14:10:47Z</time>
      </trkpt>
      <trkpt lat="46.81505" lon="5.90498">
        <ele>630</ele>
        <time>2022-05-24T14:10:48Z</time>
      </trkpt>
      <trkpt lat="46.81505" lon="5.90494">
        <ele>630.4</ele>
        <time>2022-05-24T14:10:49Z</time>
      </trkpt>
      <trkpt lat="46.81506" lon="5.90489">
        <ele>630.4</ele>
        <time>2022-05-24T14:10:50Z</time>
      </trkpt>
      <trkpt lat="46.81506" lon="5.90485">
        <ele>630.8</ele>
        <time>2022-05-24T14:10:51Z</time>
      </trkpt>
      <trkpt lat="46.81506" lon="5.9048">
        <ele>630.8</ele>
        <time>2022-05-24T14:10:52Z</time>
      </trkpt>
      <trkpt lat="46.81506" lon="5.90476">
        <ele>631.2</ele>
        <time>2022-05-24T14:10:53Z</time>
      </trkpt>
      <trkpt lat="46.81507" lon="5.90471">
        <ele>631.2</ele>
        <time>2022-05-24T14:10:54Z</time>
      </trkpt>
      <trkpt lat="46.81507" lon="5.90466">
        <ele>631.6</ele>
        <time>2022-05-24T14:10:55Z</time>
      </trkpt>
      <trkpt lat="46.81507" lon="5.90462">
        <ele>631.8</ele>
        <time>2022-05-24T14:10:56Z</time>
      </trkpt>
      <trkpt lat="46.81507" lon="5.90458">
        <ele>632</ele>
        <time>2022-05-24T14:10:57Z</time>
      </trkpt>
      <trkpt lat="46.81508" lon="5.90454">
        <ele>632.2</ele>
        <time>2022-05-24T14:10:58Z</time>
      </trkpt>
      <trkpt lat="46.81509" lon="5.90449">
        <ele>632.2</ele>
        <time>2022-05-24T14:10:59Z</time>
      </trkpt>
      <trkpt lat="46.81509" lon="5.90445">
        <ele>632.6</ele>
        <time>2022-05-24T14:11:00Z</time>
      </trkpt>
      <trkpt lat="46.81509" lon="5.9044">
        <ele>632.6</ele>
        <time>2022-05-24T14:11:01Z</time>
      </trkpt>
      <trkpt lat="46.8151" lon="5.90435">
        <ele>633</ele>
        <time>2022-05-24T14:11:02Z</time>
      </trkpt>
      <trkpt lat="46.8151" lon="5.90431">
        <ele>633</ele>
        <time>2022-05-24T14:11:03Z</time>
      </trkpt>
      <trkpt lat="46.81511" lon="5.90426">
        <ele>633.4</ele>
        <time>2022-05-24T14:11:04Z</time>
      </trkpt>
      <trkpt lat="46.81511" lon="5.90421">
        <ele>633.4</ele>
        <time>2022-05-24T14:11:05Z</time>
      </trkpt>
      <trkpt lat="46.81511" lon="5.90416">
        <ele>633.6</ele>
        <time>2022-05-24T14:11:06Z</time>
      </trkpt>
      <trkpt lat="46.81512" lon="5.90412">
        <ele>633.6</ele>
        <time>2022-05-24T14:11:07Z</time>
      </trkpt>
      <trkpt lat="46.81512" lon="5.90407">
        <ele>633.6</ele>
        <time>2022-05-24T14:11:08Z</time>
      </trkpt>
      <trkpt lat="46.81512" lon="5.90403">
        <ele>634.2</ele>
        <time>2022-05-24T14:11:09Z</time>
      </trkpt>
      <trkpt lat="46.81512" lon="5.90399">
        <ele>634.4</ele>
        <time>2022-05-24T14:11:10Z</time>
      </trkpt>
      <trkpt lat="46.81513" lon="5.90395">
        <ele>634.6</ele>
        <time>2022-05-24T14:11:11Z</time>
      </trkpt>
      <trkpt lat="46.81513" lon="5.90391">
        <ele>634.8</ele>
        <time>2022-05-24T14:11:12Z</time>
      </trkpt>
      <trkpt lat="46.81513" lon="5.90387">
        <ele>634.8</ele>
        <time>2022-05-24T14:11:13Z</time>
      </trkpt>
      <trkpt lat="46.81513" lon="5.90383">
        <ele>635.2</ele>
        <time>2022-05-24T14:11:14Z</time>
      </trkpt>
      <trkpt lat="46.81512" lon="5.90378">
        <ele>635.6</ele>
        <time>2022-05-24T14:11:15Z</time>
      </trkpt>
      <trkpt lat="46.81512" lon="5.90374">
        <ele>635.6</ele>
        <time>2022-05-24T14:11:16Z</time>
      </trkpt>
      <trkpt lat="46.81513" lon="5.9037">
        <ele>636</ele>
        <time>2022-05-24T14:11:17Z</time>
      </trkpt>
      <trkpt lat="46.81514" lon="5.90365">
        <ele>636.2</ele>
        <time>2022-05-24T14:11:18Z</time>
      </trkpt>
      <trkpt lat="46.81514" lon="5.90361">
        <ele>636.2</ele>
        <time>2022-05-24T14:11:19Z</time>
      </trkpt>
      <trkpt lat="46.81515" lon="5.90357">
        <ele>636.6</ele>
        <time>2022-05-24T14:11:20Z</time>
      </trkpt>
      <trkpt lat="46.81515" lon="5.90353">
        <ele>636.6</ele>
        <time>2022-05-24T14:11:21Z</time>
      </trkpt>
      <trkpt lat="46.81516" lon="5.90349">
        <ele>636.8</ele>
        <time>2022-05-24T14:11:22Z</time>
      </trkpt>
      <trkpt lat="46.81516" lon="5.90345">
        <ele>636.8</ele>
        <time>2022-05-24T14:11:23Z</time>
      </trkpt>
      <trkpt lat="46.81516" lon="5.90341">
        <ele>637.2</ele>
        <time>2022-05-24T14:11:24Z</time>
      </trkpt>
      <trkpt lat="46.81517" lon="5.90337">
        <ele>637.2</ele>
        <time>2022-05-24T14:11:25Z</time>
      </trkpt>
      <trkpt lat="46.81518" lon="5.90332">
        <ele>637.4</ele>
        <time>2022-05-24T14:11:26Z</time>
      </trkpt>
      <trkpt lat="46.81518" lon="5.90327">
        <ele>637.4</ele>
        <time>2022-05-24T14:11:27Z</time>
      </trkpt>
      <trkpt lat="46.81518" lon="5.90322">
        <ele>637.4</ele>
        <time>2022-05-24T14:11:28Z</time>
      </trkpt>
      <trkpt lat="46.81519" lon="5.90317">
        <ele>637.4</ele>
        <time>2022-05-24T14:11:29Z</time>
      </trkpt>
      <trkpt lat="46.81519" lon="5.90312">
        <ele>637.4</ele>
        <time>2022-05-24T14:11:30Z</time>
      </trkpt>
      <trkpt lat="46.8152" lon="5.90306">
        <ele>637.8</ele>
        <time>2022-05-24T14:11:31Z</time>
      </trkpt>
      <trkpt lat="46.81521" lon="5.903">
        <ele>637.8</ele>
        <time>2022-05-24T14:11:32Z</time>
      </trkpt>
      <trkpt lat="46.81522" lon="5.90294">
        <ele>638</ele>
        <time>2022-05-24T14:11:33Z</time>
      </trkpt>
      <trkpt lat="46.81522" lon="5.90288">
        <ele>638</ele>
        <time>2022-05-24T14:11:34Z</time>
      </trkpt>
      <trkpt lat="46.81523" lon="5.90281">
        <ele>638</ele>
        <time>2022-05-24T14:11:35Z</time>
      </trkpt>
      <trkpt lat="46.81524" lon="5.90275">
        <ele>638</ele>
        <time>2022-05-24T14:11:36Z</time>
      </trkpt>
      <trkpt lat="46.81525" lon="5.90261">
        <ele>638</ele>
        <time>2022-05-24T14:11:37Z</time>
      </trkpt>
      <trkpt lat="46.81526" lon="5.90255">
        <ele>638</ele>
        <time>2022-05-24T14:11:38Z</time>
      </trkpt>
      <trkpt lat="46.81527" lon="5.90248">
        <ele>638</ele>
        <time>2022-05-24T14:11:39Z</time>
      </trkpt>
      <trkpt lat="46.81528" lon="5.90241">
        <ele>638</ele>
        <time>2022-05-24T14:11:40Z</time>
      </trkpt>
      <trkpt lat="46.81529" lon="5.90234">
        <ele>638.4</ele>
        <time>2022-05-24T14:11:41Z</time>
      </trkpt>
      <trkpt lat="46.8153" lon="5.90227">
        <ele>638.4</ele>
        <time>2022-05-24T14:11:42Z</time>
      </trkpt>
      <trkpt lat="46.8153" lon="5.90221">
        <ele>638.8</ele>
        <time>2022-05-24T14:11:43Z</time>
      </trkpt>
      <trkpt lat="46.81531" lon="5.90214">
        <ele>638.8</ele>
        <time>2022-05-24T14:11:44Z</time>
      </trkpt>
      <trkpt lat="46.81532" lon="5.90207">
        <ele>638.8</ele>
        <time>2022-05-24T14:11:45Z</time>
      </trkpt>
      <trkpt lat="46.81533" lon="5.902">
        <ele>638.8</ele>
        <time>2022-05-24T14:11:46Z</time>
      </trkpt>
      <trkpt lat="46.81534" lon="5.90193">
        <ele>638.8</ele>
        <time>2022-05-24T14:11:47Z</time>
      </trkpt>
      <trkpt lat="46.81535" lon="5.90186">
        <ele>638.8</ele>
        <time>2022-05-24T14:11:48Z</time>
      </trkpt>
      <trkpt lat="46.81535" lon="5.90178">
        <ele>638.8</ele>
        <time>2022-05-24T14:11:49Z</time>
      </trkpt>
      <trkpt lat="46.81536" lon="5.90171">
        <ele>638.8</ele>
        <time>2022-05-24T14:11:50Z</time>
      </trkpt>
      <trkpt lat="46.81536" lon="5.90163">
        <ele>638.8</ele>
        <time>2022-05-24T14:11:51Z</time>
      </trkpt>
      <trkpt lat="46.81537" lon="5.90156">
        <ele>638.8</ele>
        <time>2022-05-24T14:11:52Z</time>
      </trkpt>
      <trkpt lat="46.81538" lon="5.90149">
        <ele>639</ele>
        <time>2022-05-24T14:11:53Z</time>
      </trkpt>
      <trkpt lat="46.81539" lon="5.90142">
        <ele>639</ele>
        <time>2022-05-24T14:11:54Z</time>
      </trkpt>
      <trkpt lat="46.8154" lon="5.90134">
        <ele>639</ele>
        <time>2022-05-24T14:11:55Z</time>
      </trkpt>
      <trkpt lat="46.81541" lon="5.90127">
        <ele>639.2</ele>
        <time>2022-05-24T14:11:56Z</time>
      </trkpt>
      <trkpt lat="46.81541" lon="5.9012">
        <ele>639.4</ele>
        <time>2022-05-24T14:11:57Z</time>
      </trkpt>
      <trkpt lat="46.81542" lon="5.90113">
        <ele>639.4</ele>
        <time>2022-05-24T14:11:58Z</time>
      </trkpt>
      <trkpt lat="46.81543" lon="5.90106">
        <ele>639.4</ele>
        <time>2022-05-24T14:11:59Z</time>
      </trkpt>
      <trkpt lat="46.81544" lon="5.90099">
        <ele>639.8</ele>
        <time>2022-05-24T14:12:00Z</time>
      </trkpt>
      <trkpt lat="46.81545" lon="5.90092">
        <ele>639.8</ele>
        <time>2022-05-24T14:12:01Z</time>
      </trkpt>
      <trkpt lat="46.81546" lon="5.90085">
        <ele>640</ele>
        <time>2022-05-24T14:12:02Z</time>
      </trkpt>
      <trkpt lat="46.81546" lon="5.90079">
        <ele>640</ele>
        <time>2022-05-24T14:12:03Z</time>
      </trkpt>
      <trkpt lat="46.81547" lon="5.90072">
        <ele>640.4</ele>
        <time>2022-05-24T14:12:04Z</time>
      </trkpt>
      <trkpt lat="46.81547" lon="5.90065">
        <ele>640.6</ele>
        <time>2022-05-24T14:12:05Z</time>
      </trkpt>
      <trkpt lat="46.81548" lon="5.90059">
        <ele>640.6</ele>
        <time>2022-05-24T14:12:06Z</time>
      </trkpt>
      <trkpt lat="46.81548" lon="5.90052">
        <ele>641</ele>
        <time>2022-05-24T14:12:07Z</time>
      </trkpt>
      <trkpt lat="46.81549" lon="5.90045">
        <ele>641</ele>
        <time>2022-05-24T14:12:08Z</time>
      </trkpt>
      <trkpt lat="46.8155" lon="5.90038">
        <ele>641.2</ele>
        <time>2022-05-24T14:12:09Z</time>
      </trkpt>
      <trkpt lat="46.81551" lon="5.90031">
        <ele>641.2</ele>
        <time>2022-05-24T14:12:10Z</time>
      </trkpt>
      <trkpt lat="46.81552" lon="5.90023">
        <ele>641.2</ele>
        <time>2022-05-24T14:12:11Z</time>
      </trkpt>
      <trkpt lat="46.81553" lon="5.90016">
        <ele>641.2</ele>
        <time>2022-05-24T14:12:12Z</time>
      </trkpt>
      <trkpt lat="46.81554" lon="5.90008">
        <ele>641.2</ele>
        <time>2022-05-24T14:12:13Z</time>
      </trkpt>
      <trkpt lat="46.81555" lon="5.90001">
        <ele>641.2</ele>
        <time>2022-05-24T14:12:14Z</time>
      </trkpt>
      <trkpt lat="46.81556" lon="5.89993">
        <ele>641.2</ele>
        <time>2022-05-24T14:12:15Z</time>
      </trkpt>
      <trkpt lat="46.81558" lon="5.89985">
        <ele>641.2</ele>
        <time>2022-05-24T14:12:16Z</time>
      </trkpt>
      <trkpt lat="46.81559" lon="5.89978">
        <ele>641.2</ele>
        <time>2022-05-24T14:12:17Z</time>
      </trkpt>
      <trkpt lat="46.8156" lon="5.89971">
        <ele>641.2</ele>
        <time>2022-05-24T14:12:18Z</time>
      </trkpt>
      <trkpt lat="46.81561" lon="5.89963">
        <ele>641.2</ele>
        <time>2022-05-24T14:12:19Z</time>
      </trkpt>
      <trkpt lat="46.81562" lon="5.89956">
        <ele>641.4</ele>
        <time>2022-05-24T14:12:20Z</time>
      </trkpt>
      <trkpt lat="46.81564" lon="5.89949">
        <ele>641.4</ele>
        <time>2022-05-24T14:12:21Z</time>
      </trkpt>
      <trkpt lat="46.81565" lon="5.89943">
        <ele>641.6</ele>
        <time>2022-05-24T14:12:22Z</time>
      </trkpt>
      <trkpt lat="46.81567" lon="5.89936">
        <ele>641.6</ele>
        <time>2022-05-24T14:12:23Z</time>
      </trkpt>
      <trkpt lat="46.81569" lon="5.8993">
        <ele>641.8</ele>
        <time>2022-05-24T14:12:24Z</time>
      </trkpt>
      <trkpt lat="46.8157" lon="5.89924">
        <ele>641.8</ele>
        <time>2022-05-24T14:12:25Z</time>
      </trkpt>
      <trkpt lat="46.81572" lon="5.89917">
        <ele>642</ele>
        <time>2022-05-24T14:12:26Z</time>
      </trkpt>
      <trkpt lat="46.81573" lon="5.8991">
        <ele>642</ele>
        <time>2022-05-24T14:12:27Z</time>
      </trkpt>
      <trkpt lat="46.81575" lon="5.89903">
        <ele>642</ele>
        <time>2022-05-24T14:12:28Z</time>
      </trkpt>
      <trkpt lat="46.81576" lon="5.89896">
        <ele>642.4</ele>
        <time>2022-05-24T14:12:29Z</time>
      </trkpt>
      <trkpt lat="46.81578" lon="5.89889">
        <ele>642.4</ele>
        <time>2022-05-24T14:12:30Z</time>
      </trkpt>
      <trkpt lat="46.8158" lon="5.89882">
        <ele>642.6</ele>
        <time>2022-05-24T14:12:31Z</time>
      </trkpt>
      <trkpt lat="46.81582" lon="5.89875">
        <ele>642.6</ele>
        <time>2022-05-24T14:12:32Z</time>
      </trkpt>
      <trkpt lat="46.81583" lon="5.89868">
        <ele>643</ele>
        <time>2022-05-24T14:12:33Z</time>
      </trkpt>
      <trkpt lat="46.81585" lon="5.89861">
        <ele>643</ele>
        <time>2022-05-24T14:12:34Z</time>
      </trkpt>
      <trkpt lat="46.81587" lon="5.89855">
        <ele>643</ele>
        <time>2022-05-24T14:12:35Z</time>
      </trkpt>
      <trkpt lat="46.81588" lon="5.89848">
        <ele>643.2</ele>
        <time>2022-05-24T14:12:36Z</time>
      </trkpt>
      <trkpt lat="46.8159" lon="5.89841">
        <ele>643.2</ele>
        <time>2022-05-24T14:12:37Z</time>
      </trkpt>
      <trkpt lat="46.81592" lon="5.89834">
        <ele>643.2</ele>
        <time>2022-05-24T14:12:38Z</time>
      </trkpt>
      <trkpt lat="46.81593" lon="5.89827">
        <ele>643.4</ele>
        <time>2022-05-24T14:12:39Z</time>
      </trkpt>
      <trkpt lat="46.81595" lon="5.8982">
        <ele>643.4</ele>
        <time>2022-05-24T14:12:40Z</time>
      </trkpt>
      <trkpt lat="46.81597" lon="5.89813">
        <ele>643.6</ele>
        <time>2022-05-24T14:12:41Z</time>
      </trkpt>
      <trkpt lat="46.81598" lon="5.89806">
        <ele>643.6</ele>
        <time>2022-05-24T14:12:42Z</time>
      </trkpt>
      <trkpt lat="46.816" lon="5.898">
        <ele>644</ele>
        <time>2022-05-24T14:12:43Z</time>
      </trkpt>
      <trkpt lat="46.81602" lon="5.89794">
        <ele>644</ele>
        <time>2022-05-24T14:12:44Z</time>
      </trkpt>
      <trkpt lat="46.81604" lon="5.89787">
        <ele>644.2</ele>
        <time>2022-05-24T14:12:45Z</time>
      </trkpt>
      <trkpt lat="46.81606" lon="5.89781">
        <ele>644.2</ele>
        <time>2022-05-24T14:12:46Z</time>
      </trkpt>
      <trkpt lat="46.81609" lon="5.89775">
        <ele>644.6</ele>
        <time>2022-05-24T14:12:47Z</time>
      </trkpt>
      <trkpt lat="46.81611" lon="5.89769">
        <ele>644.6</ele>
        <time>2022-05-24T14:12:48Z</time>
      </trkpt>
      <trkpt lat="46.81614" lon="5.89763">
        <ele>644.6</ele>
        <time>2022-05-24T14:12:49Z</time>
      </trkpt>
      <trkpt lat="46.81616" lon="5.89756">
        <ele>644.6</ele>
        <time>2022-05-24T14:12:50Z</time>
      </trkpt>
      <trkpt lat="46.81619" lon="5.8975">
        <ele>644.8</ele>
        <time>2022-05-24T14:12:51Z</time>
      </trkpt>
      <trkpt lat="46.81622" lon="5.89744">
        <ele>644.8</ele>
        <time>2022-05-24T14:12:52Z</time>
      </trkpt>
      <trkpt lat="46.81625" lon="5.89737">
        <ele>645</ele>
        <time>2022-05-24T14:12:53Z</time>
      </trkpt>
      <trkpt lat="46.81628" lon="5.89731">
        <ele>645</ele>
        <time>2022-05-24T14:12:54Z</time>
      </trkpt>
      <trkpt lat="46.81631" lon="5.89725">
        <ele>645</ele>
        <time>2022-05-24T14:12:55Z</time>
      </trkpt>
      <trkpt lat="46.81634" lon="5.89718">
        <ele>645.2</ele>
        <time>2022-05-24T14:12:56Z</time>
      </trkpt>
      <trkpt lat="46.81634" lon="5.89718">
        <ele>645.2</ele>
        <time>2022-05-24T14:12:57Z</time>
      </trkpt>
      <trkpt lat="46.81637" lon="5.89712">
        <ele>645.2</ele>
        <time>2022-05-24T14:12:58Z</time>
      </trkpt>
      <trkpt lat="46.81641" lon="5.89706">
        <ele>645.2</ele>
        <time>2022-05-24T14:12:59Z</time>
      </trkpt>
      <trkpt lat="46.81644" lon="5.897">
        <ele>645.2</ele>
        <time>2022-05-24T14:13:00Z</time>
      </trkpt>
      <trkpt lat="46.81648" lon="5.89694">
        <ele>645.2</ele>
        <time>2022-05-24T14:13:01Z</time>
      </trkpt>
      <trkpt lat="46.81652" lon="5.89689">
        <ele>645.2</ele>
        <time>2022-05-24T14:13:02Z</time>
      </trkpt>
      <trkpt lat="46.81656" lon="5.89682">
        <ele>645.2</ele>
        <time>2022-05-24T14:13:03Z</time>
      </trkpt>
      <trkpt lat="46.8166" lon="5.89676">
        <ele>645.2</ele>
        <time>2022-05-24T14:13:04Z</time>
      </trkpt>
      <trkpt lat="46.81664" lon="5.89669">
        <ele>645.2</ele>
        <time>2022-05-24T14:13:05Z</time>
      </trkpt>
      <trkpt lat="46.81668" lon="5.89663">
        <ele>645.2</ele>
        <time>2022-05-24T14:13:06Z</time>
      </trkpt>
      <trkpt lat="46.81672" lon="5.89656">
        <ele>645</ele>
        <time>2022-05-24T14:13:07Z</time>
      </trkpt>
      <trkpt lat="46.81676" lon="5.89649">
        <ele>645</ele>
        <time>2022-05-24T14:13:08Z</time>
      </trkpt>
      <trkpt lat="46.8168" lon="5.89642">
        <ele>645</ele>
        <time>2022-05-24T14:13:09Z</time>
      </trkpt>
      <trkpt lat="46.81684" lon="5.89635">
        <ele>645</ele>
        <time>2022-05-24T14:13:10Z</time>
      </trkpt>
      <trkpt lat="46.81688" lon="5.89627">
        <ele>644.8</ele>
        <time>2022-05-24T14:13:11Z</time>
      </trkpt>
      <trkpt lat="46.81693" lon="5.8962">
        <ele>644.8</ele>
        <time>2022-05-24T14:13:12Z</time>
      </trkpt>
      <trkpt lat="46.81697" lon="5.89613">
        <ele>644.8</ele>
        <time>2022-05-24T14:13:13Z</time>
      </trkpt>
      <trkpt lat="46.81701" lon="5.89605">
        <ele>644.8</ele>
        <time>2022-05-24T14:13:14Z</time>
      </trkpt>
      <trkpt lat="46.81705" lon="5.89598">
        <ele>644.8</ele>
        <time>2022-05-24T14:13:15Z</time>
      </trkpt>
      <trkpt lat="46.81709" lon="5.89591">
        <ele>644.8</ele>
        <time>2022-05-24T14:13:16Z</time>
      </trkpt>
      <trkpt lat="46.81714" lon="5.89583">
        <ele>644.8</ele>
        <time>2022-05-24T14:13:17Z</time>
      </trkpt>
      <trkpt lat="46.81718" lon="5.89576">
        <ele>644.8</ele>
        <time>2022-05-24T14:13:18Z</time>
      </trkpt>
      <trkpt lat="46.81722" lon="5.89568">
        <ele>644.8</ele>
        <time>2022-05-24T14:13:19Z</time>
      </trkpt>
      <trkpt lat="46.81727" lon="5.89561">
        <ele>644.6</ele>
        <time>2022-05-24T14:13:20Z</time>
      </trkpt>
      <trkpt lat="46.81731" lon="5.89553">
        <ele>644.6</ele>
        <time>2022-05-24T14:13:21Z</time>
      </trkpt>
      <trkpt lat="46.81736" lon="5.89544">
        <ele>644.6</ele>
        <time>2022-05-24T14:13:22Z</time>
      </trkpt>
      <trkpt lat="46.8174" lon="5.89536">
        <ele>644.2</ele>
        <time>2022-05-24T14:13:23Z</time>
      </trkpt>
      <trkpt lat="46.81745" lon="5.89528">
        <ele>644.2</ele>
        <time>2022-05-24T14:13:24Z</time>
      </trkpt>
      <trkpt lat="46.81749" lon="5.8952">
        <ele>644.2</ele>
        <time>2022-05-24T14:13:25Z</time>
      </trkpt>
      <trkpt lat="46.81754" lon="5.89512">
        <ele>644.2</ele>
        <time>2022-05-24T14:13:26Z</time>
      </trkpt>
      <trkpt lat="46.81758" lon="5.89503">
        <ele>644.2</ele>
        <time>2022-05-24T14:13:27Z</time>
      </trkpt>
      <trkpt lat="46.81763" lon="5.89495">
        <ele>644</ele>
        <time>2022-05-24T14:13:28Z</time>
      </trkpt>
      <trkpt lat="46.81767" lon="5.89488">
        <ele>644</ele>
        <time>2022-05-24T14:13:29Z</time>
      </trkpt>
      <trkpt lat="46.81772" lon="5.8948">
        <ele>644</ele>
        <time>2022-05-24T14:13:30Z</time>
      </trkpt>
      <trkpt lat="46.81776" lon="5.89472">
        <ele>644</ele>
        <time>2022-05-24T14:13:31Z</time>
      </trkpt>
      <trkpt lat="46.81781" lon="5.89464">
        <ele>644</ele>
        <time>2022-05-24T14:13:32Z</time>
      </trkpt>
      <trkpt lat="46.81785" lon="5.89457">
        <ele>643.8</ele>
        <time>2022-05-24T14:13:33Z</time>
      </trkpt>
      <trkpt lat="46.8179" lon="5.89449">
        <ele>643.8</ele>
        <time>2022-05-24T14:13:34Z</time>
      </trkpt>
      <trkpt lat="46.81794" lon="5.89442">
        <ele>643.8</ele>
        <time>2022-05-24T14:13:35Z</time>
      </trkpt>
      <trkpt lat="46.81799" lon="5.89435">
        <ele>643.8</ele>
        <time>2022-05-24T14:13:36Z</time>
      </trkpt>
      <trkpt lat="46.81803" lon="5.89427">
        <ele>643.8</ele>
        <time>2022-05-24T14:13:37Z</time>
      </trkpt>
      <trkpt lat="46.81807" lon="5.8942">
        <ele>643.8</ele>
        <time>2022-05-24T14:13:38Z</time>
      </trkpt>
      <trkpt lat="46.81812" lon="5.89413">
        <ele>643.8</ele>
        <time>2022-05-24T14:13:39Z</time>
      </trkpt>
      <trkpt lat="46.81817" lon="5.89406">
        <ele>643.6</ele>
        <time>2022-05-24T14:13:40Z</time>
      </trkpt>
      <trkpt lat="46.81822" lon="5.894">
        <ele>643.6</ele>
        <time>2022-05-24T14:13:41Z</time>
      </trkpt>
      <trkpt lat="46.81827" lon="5.89394">
        <ele>643.6</ele>
        <time>2022-05-24T14:13:42Z</time>
      </trkpt>
      <trkpt lat="46.81832" lon="5.89388">
        <ele>643.6</ele>
        <time>2022-05-24T14:13:43Z</time>
      </trkpt>
      <trkpt lat="46.81838" lon="5.89383">
        <ele>643.4</ele>
        <time>2022-05-24T14:13:44Z</time>
      </trkpt>
      <trkpt lat="46.81844" lon="5.89379">
        <ele>643.4</ele>
        <time>2022-05-24T14:13:45Z</time>
      </trkpt>
      <trkpt lat="46.81851" lon="5.89376">
        <ele>643.4</ele>
        <time>2022-05-24T14:13:46Z</time>
      </trkpt>
      <trkpt lat="46.81857" lon="5.89372">
        <ele>643.2</ele>
        <time>2022-05-24T14:13:47Z</time>
      </trkpt>
      <trkpt lat="46.81863" lon="5.89369">
        <ele>643.2</ele>
        <time>2022-05-24T14:13:48Z</time>
      </trkpt>
      <trkpt lat="46.8187" lon="5.89365">
        <ele>643.2</ele>
        <time>2022-05-24T14:13:49Z</time>
      </trkpt>
      <trkpt lat="46.81876" lon="5.89362">
        <ele>642.8</ele>
        <time>2022-05-24T14:13:50Z</time>
      </trkpt>
      <trkpt lat="46.81883" lon="5.89359">
        <ele>642.8</ele>
        <time>2022-05-24T14:13:51Z</time>
      </trkpt>
      <trkpt lat="46.81889" lon="5.89355">
        <ele>642.8</ele>
        <time>2022-05-24T14:13:52Z</time>
      </trkpt>
      <trkpt lat="46.81895" lon="5.89352">
        <ele>642.8</ele>
        <time>2022-05-24T14:13:53Z</time>
      </trkpt>
      <trkpt lat="46.81902" lon="5.89348">
        <ele>642.8</ele>
        <time>2022-05-24T14:13:54Z</time>
      </trkpt>
      <trkpt lat="46.81908" lon="5.89345">
        <ele>642.8</ele>
        <time>2022-05-24T14:13:55Z</time>
      </trkpt>
      <trkpt lat="46.81915" lon="5.89342">
        <ele>642.8</ele>
        <time>2022-05-24T14:13:56Z</time>
      </trkpt>
      <trkpt lat="46.81921" lon="5.89339">
        <ele>642.6</ele>
        <time>2022-05-24T14:13:57Z</time>
      </trkpt>
      <trkpt lat="46.81928" lon="5.89335">
        <ele>642.4</ele>
        <time>2022-05-24T14:13:58Z</time>
      </trkpt>
      <trkpt lat="46.81934" lon="5.89332">
        <ele>642.4</ele>
        <time>2022-05-24T14:13:59Z</time>
      </trkpt>
      <trkpt lat="46.81941" lon="5.89329">
        <ele>642</ele>
        <time>2022-05-24T14:14:00Z</time>
      </trkpt>
      <trkpt lat="46.81947" lon="5.89326">
        <ele>641.8</ele>
        <time>2022-05-24T14:14:01Z</time>
      </trkpt>
      <trkpt lat="46.81954" lon="5.89323">
        <ele>641.8</ele>
        <time>2022-05-24T14:14:02Z</time>
      </trkpt>
      <trkpt lat="46.81961" lon="5.89319">
        <ele>641.8</ele>
        <time>2022-05-24T14:14:03Z</time>
      </trkpt>
      <trkpt lat="46.81968" lon="5.89316">
        <ele>641.8</ele>
        <time>2022-05-24T14:14:04Z</time>
      </trkpt>
      <trkpt lat="46.81974" lon="5.89312">
        <ele>641.8</ele>
        <time>2022-05-24T14:14:05Z</time>
      </trkpt>
      <trkpt lat="46.81981" lon="5.89308">
        <ele>641.8</ele>
        <time>2022-05-24T14:14:06Z</time>
      </trkpt>
      <trkpt lat="46.81987" lon="5.89303">
        <ele>641.8</ele>
        <time>2022-05-24T14:14:07Z</time>
      </trkpt>
      <trkpt lat="46.81993" lon="5.89298">
        <ele>641.8</ele>
        <time>2022-05-24T14:14:08Z</time>
      </trkpt>
      <trkpt lat="46.81998" lon="5.89291">
        <ele>641.8</ele>
        <time>2022-05-24T14:14:09Z</time>
      </trkpt>
      <trkpt lat="46.82003" lon="5.89284">
        <ele>641.8</ele>
        <time>2022-05-24T14:14:10Z</time>
      </trkpt>
      <trkpt lat="46.82007" lon="5.89276">
        <ele>641.8</ele>
        <time>2022-05-24T14:14:11Z</time>
      </trkpt>
      <trkpt lat="46.8201" lon="5.89268">
        <ele>641.8</ele>
        <time>2022-05-24T14:14:12Z</time>
      </trkpt>
      <trkpt lat="46.82013" lon="5.8926">
        <ele>641.8</ele>
        <time>2022-05-24T14:14:13Z</time>
      </trkpt>
      <trkpt lat="46.82015" lon="5.89252">
        <ele>641.8</ele>
        <time>2022-05-24T14:14:14Z</time>
      </trkpt>
      <trkpt lat="46.82018" lon="5.89244">
        <ele>642.2</ele>
        <time>2022-05-24T14:14:15Z</time>
      </trkpt>
      <trkpt lat="46.8202" lon="5.89236">
        <ele>642.2</ele>
        <time>2022-05-24T14:14:16Z</time>
      </trkpt>
      <trkpt lat="46.82021" lon="5.89228">
        <ele>642.6</ele>
        <time>2022-05-24T14:14:17Z</time>
      </trkpt>
      <trkpt lat="46.82024" lon="5.89213">
        <ele>642.6</ele>
        <time>2022-05-24T14:14:18Z</time>
      </trkpt>
      <trkpt lat="46.82026" lon="5.89205">
        <ele>643</ele>
        <time>2022-05-24T14:14:19Z</time>
      </trkpt>
      <trkpt lat="46.82027" lon="5.89198">
        <ele>643.2</ele>
        <time>2022-05-24T14:14:20Z</time>
      </trkpt>
      <trkpt lat="46.82029" lon="5.89191">
        <ele>643.2</ele>
        <time>2022-05-24T14:14:21Z</time>
      </trkpt>
      <trkpt lat="46.82031" lon="5.89184">
        <ele>643.6</ele>
        <time>2022-05-24T14:14:22Z</time>
      </trkpt>
      <trkpt lat="46.82032" lon="5.89176">
        <ele>643.6</ele>
        <time>2022-05-24T14:14:23Z</time>
      </trkpt>
      <trkpt lat="46.82034" lon="5.89169">
        <ele>643.8</ele>
        <time>2022-05-24T14:14:24Z</time>
      </trkpt>
      <trkpt lat="46.82036" lon="5.89161">
        <ele>643.8</ele>
        <time>2022-05-24T14:14:25Z</time>
      </trkpt>
      <trkpt lat="46.82037" lon="5.89154">
        <ele>643.8</ele>
        <time>2022-05-24T14:14:26Z</time>
      </trkpt>
      <trkpt lat="46.82039" lon="5.89146">
        <ele>643.8</ele>
        <time>2022-05-24T14:14:27Z</time>
      </trkpt>
      <trkpt lat="46.82041" lon="5.89138">
        <ele>644</ele>
        <time>2022-05-24T14:14:28Z</time>
      </trkpt>
      <trkpt lat="46.82043" lon="5.8913">
        <ele>644</ele>
        <time>2022-05-24T14:14:29Z</time>
      </trkpt>
      <trkpt lat="46.82045" lon="5.89122">
        <ele>644</ele>
        <time>2022-05-24T14:14:30Z</time>
      </trkpt>
      <trkpt lat="46.82047" lon="5.89114">
        <ele>644</ele>
        <time>2022-05-24T14:14:31Z</time>
      </trkpt>
      <trkpt lat="46.82049" lon="5.89106">
        <ele>644</ele>
        <time>2022-05-24T14:14:32Z</time>
      </trkpt>
      <trkpt lat="46.82051" lon="5.89098">
        <ele>644.4</ele>
        <time>2022-05-24T14:14:33Z</time>
      </trkpt>
      <trkpt lat="46.82053" lon="5.8909">
        <ele>644.4</ele>
        <time>2022-05-24T14:14:34Z</time>
      </trkpt>
      <trkpt lat="46.82054" lon="5.89082">
        <ele>644.6</ele>
        <time>2022-05-24T14:14:35Z</time>
      </trkpt>
      <trkpt lat="46.82056" lon="5.89075">
        <ele>644.6</ele>
        <time>2022-05-24T14:14:36Z</time>
      </trkpt>
      <trkpt lat="46.82058" lon="5.89067">
        <ele>644.8</ele>
        <time>2022-05-24T14:14:37Z</time>
      </trkpt>
      <trkpt lat="46.82059" lon="5.89059">
        <ele>644.8</ele>
        <time>2022-05-24T14:14:38Z</time>
      </trkpt>
      <trkpt lat="46.82061" lon="5.89051">
        <ele>644.8</ele>
        <time>2022-05-24T14:14:39Z</time>
      </trkpt>
      <trkpt lat="46.82062" lon="5.89044">
        <ele>644.8</ele>
        <time>2022-05-24T14:14:40Z</time>
      </trkpt>
      <trkpt lat="46.82063" lon="5.89036">
        <ele>645.2</ele>
        <time>2022-05-24T14:14:41Z</time>
      </trkpt>
      <trkpt lat="46.82065" lon="5.89028">
        <ele>645.2</ele>
        <time>2022-05-24T14:14:42Z</time>
      </trkpt>
      <trkpt lat="46.82066" lon="5.89021">
        <ele>645.4</ele>
        <time>2022-05-24T14:14:43Z</time>
      </trkpt>
      <trkpt lat="46.82068" lon="5.89014">
        <ele>645.6</ele>
        <time>2022-05-24T14:14:44Z</time>
      </trkpt>
      <trkpt lat="46.82069" lon="5.89006">
        <ele>646</ele>
        <time>2022-05-24T14:14:45Z</time>
      </trkpt>
      <trkpt lat="46.8207" lon="5.89">
        <ele>646.2</ele>
        <time>2022-05-24T14:14:46Z</time>
      </trkpt>
      <trkpt lat="46.82072" lon="5.88993">
        <ele>646.6</ele>
        <time>2022-05-24T14:14:47Z</time>
      </trkpt>
      <trkpt lat="46.82073" lon="5.88986">
        <ele>646.6</ele>
        <time>2022-05-24T14:14:48Z</time>
      </trkpt>
      <trkpt lat="46.82074" lon="5.8898">
        <ele>646.8</ele>
        <time>2022-05-24T14:14:49Z</time>
      </trkpt>
      <trkpt lat="46.82076" lon="5.88973">
        <ele>646.8</ele>
        <time>2022-05-24T14:14:50Z</time>
      </trkpt>
      <trkpt lat="46.82077" lon="5.88966">
        <ele>647.2</ele>
        <time>2022-05-24T14:14:51Z</time>
      </trkpt>
      <trkpt lat="46.82078" lon="5.88959">
        <ele>647.2</ele>
        <time>2022-05-24T14:14:52Z</time>
      </trkpt>
      <trkpt lat="46.8208" lon="5.88952">
        <ele>647.6</ele>
        <time>2022-05-24T14:14:53Z</time>
      </trkpt>
      <trkpt lat="46.82081" lon="5.88945">
        <ele>647.6</ele>
        <time>2022-05-24T14:14:54Z</time>
      </trkpt>
      <trkpt lat="46.82082" lon="5.88938">
        <ele>647.8</ele>
        <time>2022-05-24T14:14:55Z</time>
      </trkpt>
      <trkpt lat="46.82083" lon="5.88931">
        <ele>647.8</ele>
        <time>2022-05-24T14:14:56Z</time>
      </trkpt>
      <trkpt lat="46.82084" lon="5.88923">
        <ele>648</ele>
        <time>2022-05-24T14:14:57Z</time>
      </trkpt>
      <trkpt lat="46.82084" lon="5.88916">
        <ele>648</ele>
        <time>2022-05-24T14:14:58Z</time>
      </trkpt>
      <trkpt lat="46.82085" lon="5.88908">
        <ele>648</ele>
        <time>2022-05-24T14:14:59Z</time>
      </trkpt>
      <trkpt lat="46.82085" lon="5.889">
        <ele>648</ele>
        <time>2022-05-24T14:15:00Z</time>
      </trkpt>
      <trkpt lat="46.82086" lon="5.88893">
        <ele>648</ele>
        <time>2022-05-24T14:15:01Z</time>
      </trkpt>
      <trkpt lat="46.82086" lon="5.88884">
        <ele>648</ele>
        <time>2022-05-24T14:15:02Z</time>
      </trkpt>
      <trkpt lat="46.82086" lon="5.88876">
        <ele>648</ele>
        <time>2022-05-24T14:15:03Z</time>
      </trkpt>
      <trkpt lat="46.82087" lon="5.88868">
        <ele>648</ele>
        <time>2022-05-24T14:15:04Z</time>
      </trkpt>
      <trkpt lat="46.82087" lon="5.88859">
        <ele>648</ele>
        <time>2022-05-24T14:15:05Z</time>
      </trkpt>
      <trkpt lat="46.82087" lon="5.88851">
        <ele>648</ele>
        <time>2022-05-24T14:15:06Z</time>
      </trkpt>
      <trkpt lat="46.82087" lon="5.88843">
        <ele>648.2</ele>
        <time>2022-05-24T14:15:07Z</time>
      </trkpt>
      <trkpt lat="46.82088" lon="5.88834">
        <ele>648.2</ele>
        <time>2022-05-24T14:15:08Z</time>
      </trkpt>
      <trkpt lat="46.82088" lon="5.88826">
        <ele>648.2</ele>
        <time>2022-05-24T14:15:09Z</time>
      </trkpt>
      <trkpt lat="46.82088" lon="5.88818">
        <ele>648.6</ele>
        <time>2022-05-24T14:15:10Z</time>
      </trkpt>
      <trkpt lat="46.82088" lon="5.88811">
        <ele>648.8</ele>
        <time>2022-05-24T14:15:11Z</time>
      </trkpt>
      <trkpt lat="46.82088" lon="5.88803">
        <ele>648.8</ele>
        <time>2022-05-24T14:15:12Z</time>
      </trkpt>
      <trkpt lat="46.82088" lon="5.88795">
        <ele>649.2</ele>
        <time>2022-05-24T14:15:13Z</time>
      </trkpt>
      <trkpt lat="46.82088" lon="5.88787">
        <ele>649.2</ele>
        <time>2022-05-24T14:15:14Z</time>
      </trkpt>
      <trkpt lat="46.82089" lon="5.88779">
        <ele>649.4</ele>
        <time>2022-05-24T14:15:15Z</time>
      </trkpt>
      <trkpt lat="46.82089" lon="5.88771">
        <ele>649.4</ele>
        <time>2022-05-24T14:15:16Z</time>
      </trkpt>
      <trkpt lat="46.8209" lon="5.88762">
        <ele>649.8</ele>
        <time>2022-05-24T14:15:17Z</time>
      </trkpt>
      <trkpt lat="46.8209" lon="5.88753">
        <ele>650</ele>
        <time>2022-05-24T14:15:18Z</time>
      </trkpt>
      <trkpt lat="46.8209" lon="5.88745">
        <ele>650.2</ele>
        <time>2022-05-24T14:15:19Z</time>
      </trkpt>
      <trkpt lat="46.82091" lon="5.88738">
        <ele>650.4</ele>
        <time>2022-05-24T14:15:20Z</time>
      </trkpt>
      <trkpt lat="46.82091" lon="5.8873">
        <ele>650.4</ele>
        <time>2022-05-24T14:15:21Z</time>
      </trkpt>
      <trkpt lat="46.82091" lon="5.88724">
        <ele>650.8</ele>
        <time>2022-05-24T14:15:22Z</time>
      </trkpt>
      <trkpt lat="46.82092" lon="5.88717">
        <ele>650.8</ele>
        <time>2022-05-24T14:15:23Z</time>
      </trkpt>
      <trkpt lat="46.82092" lon="5.88711">
        <ele>651.2</ele>
        <time>2022-05-24T14:15:24Z</time>
      </trkpt>
      <trkpt lat="46.82092" lon="5.88705">
        <ele>651.4</ele>
        <time>2022-05-24T14:15:25Z</time>
      </trkpt>
      <trkpt lat="46.82092" lon="5.88698">
        <ele>651.6</ele>
        <time>2022-05-24T14:15:26Z</time>
      </trkpt>
      <trkpt lat="46.82093" lon="5.88692">
        <ele>652</ele>
        <time>2022-05-24T14:15:27Z</time>
      </trkpt>
      <trkpt lat="46.82093" lon="5.88687">
        <ele>652.2</ele>
        <time>2022-05-24T14:15:28Z</time>
      </trkpt>
      <trkpt lat="46.82093" lon="5.88681">
        <ele>652.2</ele>
        <time>2022-05-24T14:15:29Z</time>
      </trkpt>
      <trkpt lat="46.82093" lon="5.88674">
        <ele>652.2</ele>
        <time>2022-05-24T14:15:30Z</time>
      </trkpt>
      <trkpt lat="46.82094" lon="5.88668">
        <ele>652.4</ele>
        <time>2022-05-24T14:15:31Z</time>
      </trkpt>
      <trkpt lat="46.82094" lon="5.88662">
        <ele>652.4</ele>
        <time>2022-05-24T14:15:32Z</time>
      </trkpt>
      <trkpt lat="46.82095" lon="5.88655">
        <ele>652.4</ele>
        <time>2022-05-24T14:15:33Z</time>
      </trkpt>
      <trkpt lat="46.82095" lon="5.88648">
        <ele>652.8</ele>
        <time>2022-05-24T14:15:34Z</time>
      </trkpt>
      <trkpt lat="46.82095" lon="5.88641">
        <ele>652.8</ele>
        <time>2022-05-24T14:15:35Z</time>
      </trkpt>
      <trkpt lat="46.82095" lon="5.88634">
        <ele>652.8</ele>
        <time>2022-05-24T14:15:36Z</time>
      </trkpt>
      <trkpt lat="46.82096" lon="5.88627">
        <ele>652.8</ele>
        <time>2022-05-24T14:15:37Z</time>
      </trkpt>
      <trkpt lat="46.82096" lon="5.88619">
        <ele>653.2</ele>
        <time>2022-05-24T14:15:38Z</time>
      </trkpt>
      <trkpt lat="46.82097" lon="5.88612">
        <ele>653.2</ele>
        <time>2022-05-24T14:15:39Z</time>
      </trkpt>
      <trkpt lat="46.82097" lon="5.88605">
        <ele>653.2</ele>
        <time>2022-05-24T14:15:40Z</time>
      </trkpt>
      <trkpt lat="46.82098" lon="5.88598">
        <ele>653.4</ele>
        <time>2022-05-24T14:15:41Z</time>
      </trkpt>
      <trkpt lat="46.82098" lon="5.88591">
        <ele>653.4</ele>
        <time>2022-05-24T14:15:42Z</time>
      </trkpt>
      <trkpt lat="46.82099" lon="5.88584">
        <ele>653.4</ele>
        <time>2022-05-24T14:15:43Z</time>
      </trkpt>
      <trkpt lat="46.82099" lon="5.88577">
        <ele>653.6</ele>
        <time>2022-05-24T14:15:44Z</time>
      </trkpt>
      <trkpt lat="46.821" lon="5.8857">
        <ele>653.6</ele>
        <time>2022-05-24T14:15:45Z</time>
      </trkpt>
      <trkpt lat="46.821" lon="5.88564">
        <ele>654</ele>
        <time>2022-05-24T14:15:46Z</time>
      </trkpt>
      <trkpt lat="46.821" lon="5.88557">
        <ele>654</ele>
        <time>2022-05-24T14:15:47Z</time>
      </trkpt>
      <trkpt lat="46.82101" lon="5.88551">
        <ele>654.2</ele>
        <time>2022-05-24T14:15:48Z</time>
      </trkpt>
      <trkpt lat="46.82101" lon="5.88545">
        <ele>654.2</ele>
        <time>2022-05-24T14:15:49Z</time>
      </trkpt>
      <trkpt lat="46.82101" lon="5.88538">
        <ele>654.6</ele>
        <time>2022-05-24T14:15:50Z</time>
      </trkpt>
      <trkpt lat="46.82102" lon="5.88532">
        <ele>654.6</ele>
        <time>2022-05-24T14:15:51Z</time>
      </trkpt>
      <trkpt lat="46.82102" lon="5.88525">
        <ele>655</ele>
        <time>2022-05-24T14:15:52Z</time>
      </trkpt>
      <trkpt lat="46.82102" lon="5.88525">
        <ele>655.2</ele>
        <time>2022-05-24T14:15:53Z</time>
      </trkpt>
      <trkpt lat="46.82103" lon="5.88519">
        <ele>655.4</ele>
        <time>2022-05-24T14:15:54Z</time>
      </trkpt>
      <trkpt lat="46.82104" lon="5.88513">
        <ele>655.8</ele>
        <time>2022-05-24T14:15:55Z</time>
      </trkpt>
      <trkpt lat="46.82105" lon="5.88507">
        <ele>656</ele>
        <time>2022-05-24T14:15:56Z</time>
      </trkpt>
      <trkpt lat="46.82106" lon="5.88501">
        <ele>656.4</ele>
        <time>2022-05-24T14:15:57Z</time>
      </trkpt>
      <trkpt lat="46.82107" lon="5.88495">
        <ele>656.6</ele>
        <time>2022-05-24T14:15:58Z</time>
      </trkpt>
      <trkpt lat="46.82108" lon="5.88489">
        <ele>656.6</ele>
        <time>2022-05-24T14:15:59Z</time>
      </trkpt>
      <trkpt lat="46.8211" lon="5.88483">
        <ele>656.8</ele>
        <time>2022-05-24T14:16:00Z</time>
      </trkpt>
      <trkpt lat="46.82112" lon="5.88477">
        <ele>656.8</ele>
        <time>2022-05-24T14:16:01Z</time>
      </trkpt>
      <trkpt lat="46.82114" lon="5.88471">
        <ele>657.2</ele>
        <time>2022-05-24T14:16:02Z</time>
      </trkpt>
      <trkpt lat="46.82116" lon="5.88464">
        <ele>657.2</ele>
        <time>2022-05-24T14:16:03Z</time>
      </trkpt>
      <trkpt lat="46.82118" lon="5.88458">
        <ele>657.4</ele>
        <time>2022-05-24T14:16:04Z</time>
      </trkpt>
      <trkpt lat="46.8212" lon="5.88452">
        <ele>657.4</ele>
        <time>2022-05-24T14:16:05Z</time>
      </trkpt>
      <trkpt lat="46.82123" lon="5.88446">
        <ele>657.4</ele>
        <time>2022-05-24T14:16:06Z</time>
      </trkpt>
      <trkpt lat="46.82125" lon="5.88439">
        <ele>657.4</ele>
        <time>2022-05-24T14:16:07Z</time>
      </trkpt>
      <trkpt lat="46.82128" lon="5.88432">
        <ele>657.4</ele>
        <time>2022-05-24T14:16:08Z</time>
      </trkpt>
      <trkpt lat="46.8213" lon="5.88425">
        <ele>657.6</ele>
        <time>2022-05-24T14:16:09Z</time>
      </trkpt>
      <trkpt lat="46.82132" lon="5.88417">
        <ele>657.6</ele>
        <time>2022-05-24T14:16:10Z</time>
      </trkpt>
      <trkpt lat="46.82135" lon="5.8841">
        <ele>657.6</ele>
        <time>2022-05-24T14:16:11Z</time>
      </trkpt>
      <trkpt lat="46.82137" lon="5.88403">
        <ele>657.6</ele>
        <time>2022-05-24T14:16:12Z</time>
      </trkpt>
      <trkpt lat="46.8214" lon="5.88395">
        <ele>657.6</ele>
        <time>2022-05-24T14:16:13Z</time>
      </trkpt>
      <trkpt lat="46.82142" lon="5.88388">
        <ele>657.6</ele>
        <time>2022-05-24T14:16:14Z</time>
      </trkpt>
      <trkpt lat="46.82144" lon="5.8838">
        <ele>657.6</ele>
        <time>2022-05-24T14:16:15Z</time>
      </trkpt>
      <trkpt lat="46.82147" lon="5.88373">
        <ele>657.8</ele>
        <time>2022-05-24T14:16:16Z</time>
      </trkpt>
      <trkpt lat="46.8215" lon="5.88366">
        <ele>657.8</ele>
        <time>2022-05-24T14:16:17Z</time>
      </trkpt>
      <trkpt lat="46.82152" lon="5.88358">
        <ele>658</ele>
        <time>2022-05-24T14:16:18Z</time>
      </trkpt>
      <trkpt lat="46.82154" lon="5.88351">
        <ele>658</ele>
        <time>2022-05-24T14:16:19Z</time>
      </trkpt>
      <trkpt lat="46.82156" lon="5.88344">
        <ele>658</ele>
        <time>2022-05-24T14:16:20Z</time>
      </trkpt>
      <trkpt lat="46.82159" lon="5.88337">
        <ele>658.4</ele>
        <time>2022-05-24T14:16:21Z</time>
      </trkpt>
      <trkpt lat="46.8216" lon="5.88331">
        <ele>658.4</ele>
        <time>2022-05-24T14:16:22Z</time>
      </trkpt>
      <trkpt lat="46.82162" lon="5.88324">
        <ele>658.8</ele>
        <time>2022-05-24T14:16:23Z</time>
      </trkpt>
      <trkpt lat="46.82164" lon="5.88318">
        <ele>659</ele>
        <time>2022-05-24T14:16:24Z</time>
      </trkpt>
      <trkpt lat="46.82165" lon="5.88311">
        <ele>659</ele>
        <time>2022-05-24T14:16:25Z</time>
      </trkpt>
      <trkpt lat="46.82166" lon="5.88305">
        <ele>659.4</ele>
        <time>2022-05-24T14:16:26Z</time>
      </trkpt>
      <trkpt lat="46.82168" lon="5.88299">
        <ele>659.6</ele>
        <time>2022-05-24T14:16:27Z</time>
      </trkpt>
      <trkpt lat="46.82169" lon="5.88292">
        <ele>659.6</ele>
        <time>2022-05-24T14:16:28Z</time>
      </trkpt>
      <trkpt lat="46.8217" lon="5.88286">
        <ele>660</ele>
        <time>2022-05-24T14:16:29Z</time>
      </trkpt>
      <trkpt lat="46.82171" lon="5.8828">
        <ele>660</ele>
        <time>2022-05-24T14:16:30Z</time>
      </trkpt>
      <trkpt lat="46.82172" lon="5.88273">
        <ele>660</ele>
        <time>2022-05-24T14:16:31Z</time>
      </trkpt>
      <trkpt lat="46.82172" lon="5.88266">
        <ele>660.2</ele>
        <time>2022-05-24T14:16:32Z</time>
      </trkpt>
      <trkpt lat="46.82173" lon="5.88258">
        <ele>660.2</ele>
        <time>2022-05-24T14:16:33Z</time>
      </trkpt>
      <trkpt lat="46.82174" lon="5.8825">
        <ele>660.2</ele>
        <time>2022-05-24T14:16:34Z</time>
      </trkpt>
      <trkpt lat="46.82175" lon="5.88242">
        <ele>660.2</ele>
        <time>2022-05-24T14:16:35Z</time>
      </trkpt>
      <trkpt lat="46.82177" lon="5.88233">
        <ele>660.2</ele>
        <time>2022-05-24T14:16:36Z</time>
      </trkpt>
      <trkpt lat="46.82178" lon="5.88224">
        <ele>659.8</ele>
        <time>2022-05-24T14:16:37Z</time>
      </trkpt>
      <trkpt lat="46.82179" lon="5.88215">
        <ele>659.8</ele>
        <time>2022-05-24T14:16:38Z</time>
      </trkpt>
      <trkpt lat="46.8218" lon="5.88206">
        <ele>659.6</ele>
        <time>2022-05-24T14:16:39Z</time>
      </trkpt>
      <trkpt lat="46.82182" lon="5.88197">
        <ele>659.6</ele>
        <time>2022-05-24T14:16:40Z</time>
      </trkpt>
      <trkpt lat="46.82184" lon="5.88189">
        <ele>659.6</ele>
        <time>2022-05-24T14:16:41Z</time>
      </trkpt>
      <trkpt lat="46.82186" lon="5.8818">
        <ele>659.4</ele>
        <time>2022-05-24T14:16:42Z</time>
      </trkpt>
      <trkpt lat="46.82188" lon="5.88172">
        <ele>659.4</ele>
        <time>2022-05-24T14:16:43Z</time>
      </trkpt>
      <trkpt lat="46.8219" lon="5.88164">
        <ele>659.4</ele>
        <time>2022-05-24T14:16:44Z</time>
      </trkpt>
      <trkpt lat="46.82193" lon="5.88156">
        <ele>659.4</ele>
        <time>2022-05-24T14:16:45Z</time>
      </trkpt>
      <trkpt lat="46.82195" lon="5.88148">
        <ele>659.4</ele>
        <time>2022-05-24T14:16:46Z</time>
      </trkpt>
      <trkpt lat="46.82197" lon="5.88139">
        <ele>659.2</ele>
        <time>2022-05-24T14:16:47Z</time>
      </trkpt>
      <trkpt lat="46.822" lon="5.8813">
        <ele>659.2</ele>
        <time>2022-05-24T14:16:48Z</time>
      </trkpt>
      <trkpt lat="46.82203" lon="5.88121">
        <ele>658.8</ele>
        <time>2022-05-24T14:16:49Z</time>
      </trkpt>
      <trkpt lat="46.82206" lon="5.88112">
        <ele>658.8</ele>
        <time>2022-05-24T14:16:50Z</time>
      </trkpt>
      <trkpt lat="46.82209" lon="5.88102">
        <ele>658.6</ele>
        <time>2022-05-24T14:16:51Z</time>
      </trkpt>
      <trkpt lat="46.82212" lon="5.88093">
        <ele>658.6</ele>
        <time>2022-05-24T14:16:52Z</time>
      </trkpt>
      <trkpt lat="46.82215" lon="5.88083">
        <ele>658.6</ele>
        <time>2022-05-24T14:16:53Z</time>
      </trkpt>
      <trkpt lat="46.82218" lon="5.88073">
        <ele>658.2</ele>
        <time>2022-05-24T14:16:54Z</time>
      </trkpt>
      <trkpt lat="46.82221" lon="5.88063">
        <ele>658.2</ele>
        <time>2022-05-24T14:16:55Z</time>
      </trkpt>
      <trkpt lat="46.82224" lon="5.88054">
        <ele>658.2</ele>
        <time>2022-05-24T14:16:56Z</time>
      </trkpt>
      <trkpt lat="46.82227" lon="5.88044">
        <ele>658.2</ele>
        <time>2022-05-24T14:16:57Z</time>
      </trkpt>
      <trkpt lat="46.8223" lon="5.88035">
        <ele>658.2</ele>
        <time>2022-05-24T14:16:58Z</time>
      </trkpt>
      <trkpt lat="46.82232" lon="5.88026">
        <ele>658.2</ele>
        <time>2022-05-24T14:16:59Z</time>
      </trkpt>
      <trkpt lat="46.82235" lon="5.88017">
        <ele>658.2</ele>
        <time>2022-05-24T14:17:00Z</time>
      </trkpt>
      <trkpt lat="46.82241" lon="5.87999">
        <ele>658.2</ele>
        <time>2022-05-24T14:17:01Z</time>
      </trkpt>
      <trkpt lat="46.82243" lon="5.87992">
        <ele>658.6</ele>
        <time>2022-05-24T14:17:02Z</time>
      </trkpt>
      <trkpt lat="46.82245" lon="5.87984">
        <ele>658.8</ele>
        <time>2022-05-24T14:17:03Z</time>
      </trkpt>
      <trkpt lat="46.82247" lon="5.87977">
        <ele>658.8</ele>
        <time>2022-05-24T14:17:04Z</time>
      </trkpt>
      <trkpt lat="46.82249" lon="5.8797">
        <ele>659.2</ele>
        <time>2022-05-24T14:17:05Z</time>
      </trkpt>
      <trkpt lat="46.8225" lon="5.87963">
        <ele>659.2</ele>
        <time>2022-05-24T14:17:06Z</time>
      </trkpt>
      <trkpt lat="46.82252" lon="5.87956">
        <ele>659.8</ele>
        <time>2022-05-24T14:17:07Z</time>
      </trkpt>
      <trkpt lat="46.82253" lon="5.8795">
        <ele>660</ele>
        <time>2022-05-24T14:17:08Z</time>
      </trkpt>
      <trkpt lat="46.82255" lon="5.87943">
        <ele>660</ele>
        <time>2022-05-24T14:17:09Z</time>
      </trkpt>
      <trkpt lat="46.82257" lon="5.87936">
        <ele>660.2</ele>
        <time>2022-05-24T14:17:10Z</time>
      </trkpt>
      <trkpt lat="46.82258" lon="5.87929">
        <ele>660.2</ele>
        <time>2022-05-24T14:17:11Z</time>
      </trkpt>
      <trkpt lat="46.82259" lon="5.87922">
        <ele>660.6</ele>
        <time>2022-05-24T14:17:12Z</time>
      </trkpt>
      <trkpt lat="46.8226" lon="5.87916">
        <ele>661</ele>
        <time>2022-05-24T14:17:13Z</time>
      </trkpt>
      <trkpt lat="46.82261" lon="5.87909">
        <ele>661.4</ele>
        <time>2022-05-24T14:17:14Z</time>
      </trkpt>
      <trkpt lat="46.82262" lon="5.87903">
        <ele>661.4</ele>
        <time>2022-05-24T14:17:15Z</time>
      </trkpt>
      <trkpt lat="46.82263" lon="5.87897">
        <ele>661.6</ele>
        <time>2022-05-24T14:17:16Z</time>
      </trkpt>
      <trkpt lat="46.82264" lon="5.8789">
        <ele>662</ele>
        <time>2022-05-24T14:17:17Z</time>
      </trkpt>
      <trkpt lat="46.82265" lon="5.87884">
        <ele>662.2</ele>
        <time>2022-05-24T14:17:18Z</time>
      </trkpt>
      <trkpt lat="46.82266" lon="5.87877">
        <ele>662.2</ele>
        <time>2022-05-24T14:17:19Z</time>
      </trkpt>
      <trkpt lat="46.82267" lon="5.8787">
        <ele>662.4</ele>
        <time>2022-05-24T14:17:20Z</time>
      </trkpt>
      <trkpt lat="46.82269" lon="5.87863">
        <ele>662.4</ele>
        <time>2022-05-24T14:17:21Z</time>
      </trkpt>
      <trkpt lat="46.8227" lon="5.87856">
        <ele>662.4</ele>
        <time>2022-05-24T14:17:22Z</time>
      </trkpt>
      <trkpt lat="46.82272" lon="5.87848">
        <ele>662.4</ele>
        <time>2022-05-24T14:17:23Z</time>
      </trkpt>
      <trkpt lat="46.82273" lon="5.87839">
        <ele>662.2</ele>
        <time>2022-05-24T14:17:24Z</time>
      </trkpt>
      <trkpt lat="46.82275" lon="5.87831">
        <ele>662.2</ele>
        <time>2022-05-24T14:17:25Z</time>
      </trkpt>
      <trkpt lat="46.82276" lon="5.87822">
        <ele>662</ele>
        <time>2022-05-24T14:17:26Z</time>
      </trkpt>
      <trkpt lat="46.82277" lon="5.87812">
        <ele>662</ele>
        <time>2022-05-24T14:17:27Z</time>
      </trkpt>
      <trkpt lat="46.82279" lon="5.87803">
        <ele>662</ele>
        <time>2022-05-24T14:17:28Z</time>
      </trkpt>
      <trkpt lat="46.8228" lon="5.87793">
        <ele>661.8</ele>
        <time>2022-05-24T14:17:29Z</time>
      </trkpt>
      <trkpt lat="46.82282" lon="5.87783">
        <ele>661.8</ele>
        <time>2022-05-24T14:17:30Z</time>
      </trkpt>
      <trkpt lat="46.82284" lon="5.87774">
        <ele>661.4</ele>
        <time>2022-05-24T14:17:31Z</time>
      </trkpt>
      <trkpt lat="46.82287" lon="5.87764">
        <ele>661.2</ele>
        <time>2022-05-24T14:17:32Z</time>
      </trkpt>
      <trkpt lat="46.8229" lon="5.87754">
        <ele>660.8</ele>
        <time>2022-05-24T14:17:33Z</time>
      </trkpt>
      <trkpt lat="46.82294" lon="5.87744">
        <ele>660.6</ele>
        <time>2022-05-24T14:17:34Z</time>
      </trkpt>
      <trkpt lat="46.82298" lon="5.87734">
        <ele>660.2</ele>
        <time>2022-05-24T14:17:35Z</time>
      </trkpt>
      <trkpt lat="46.82303" lon="5.87724">
        <ele>659.8</ele>
        <time>2022-05-24T14:17:36Z</time>
      </trkpt>
      <trkpt lat="46.82308" lon="5.87714">
        <ele>659.6</ele>
        <time>2022-05-24T14:17:37Z</time>
      </trkpt>
      <trkpt lat="46.82312" lon="5.87705">
        <ele>659.4</ele>
        <time>2022-05-24T14:17:38Z</time>
      </trkpt>
      <trkpt lat="46.82317" lon="5.87695">
        <ele>659</ele>
        <time>2022-05-24T14:17:39Z</time>
      </trkpt>
      <trkpt lat="46.82322" lon="5.87686">
        <ele>658.8</ele>
        <time>2022-05-24T14:17:40Z</time>
      </trkpt>
      <trkpt lat="46.82326" lon="5.87677">
        <ele>658.8</ele>
        <time>2022-05-24T14:17:41Z</time>
      </trkpt>
      <trkpt lat="46.82331" lon="5.87668">
        <ele>658.4</ele>
        <time>2022-05-24T14:17:42Z</time>
      </trkpt>
      <trkpt lat="46.82336" lon="5.87659">
        <ele>658.4</ele>
        <time>2022-05-24T14:17:43Z</time>
      </trkpt>
      <trkpt lat="46.8234" lon="5.87651">
        <ele>658.4</ele>
        <time>2022-05-24T14:17:44Z</time>
      </trkpt>
      <trkpt lat="46.82345" lon="5.87642">
        <ele>658.2</ele>
        <time>2022-05-24T14:17:45Z</time>
      </trkpt>
      <trkpt lat="46.82349" lon="5.87633">
        <ele>658.2</ele>
        <time>2022-05-24T14:17:46Z</time>
      </trkpt>
      <trkpt lat="46.82354" lon="5.87623">
        <ele>658.2</ele>
        <time>2022-05-24T14:17:47Z</time>
      </trkpt>
      <trkpt lat="46.82358" lon="5.87614">
        <ele>657.6</ele>
        <time>2022-05-24T14:17:48Z</time>
      </trkpt>
      <trkpt lat="46.82363" lon="5.87604">
        <ele>657.6</ele>
        <time>2022-05-24T14:17:49Z</time>
      </trkpt>
      <trkpt lat="46.82366" lon="5.87594">
        <ele>657.6</ele>
        <time>2022-05-24T14:17:50Z</time>
      </trkpt>
      <trkpt lat="46.8237" lon="5.87584">
        <ele>657.2</ele>
        <time>2022-05-24T14:17:51Z</time>
      </trkpt>
      <trkpt lat="46.82373" lon="5.87574">
        <ele>657.2</ele>
        <time>2022-05-24T14:17:52Z</time>
      </trkpt>
      <trkpt lat="46.82377" lon="5.87564">
        <ele>657</ele>
        <time>2022-05-24T14:17:53Z</time>
      </trkpt>
      <trkpt lat="46.82379" lon="5.87555">
        <ele>657</ele>
        <time>2022-05-24T14:17:54Z</time>
      </trkpt>
      <trkpt lat="46.82383" lon="5.87545">
        <ele>657</ele>
        <time>2022-05-24T14:17:55Z</time>
      </trkpt>
      <trkpt lat="46.82386" lon="5.87536">
        <ele>657</ele>
        <time>2022-05-24T14:17:56Z</time>
      </trkpt>
      <trkpt lat="46.82389" lon="5.87527">
        <ele>656.6</ele>
        <time>2022-05-24T14:17:57Z</time>
      </trkpt>
      <trkpt lat="46.82393" lon="5.87518">
        <ele>656.6</ele>
        <time>2022-05-24T14:17:58Z</time>
      </trkpt>
      <trkpt lat="46.82396" lon="5.8751">
        <ele>656.4</ele>
        <time>2022-05-24T14:17:59Z</time>
      </trkpt>
      <trkpt lat="46.824" lon="5.87502">
        <ele>656.4</ele>
        <time>2022-05-24T14:18:00Z</time>
      </trkpt>
      <trkpt lat="46.82403" lon="5.87494">
        <ele>656.4</ele>
        <time>2022-05-24T14:18:01Z</time>
      </trkpt>
      <trkpt lat="46.82407" lon="5.87486">
        <ele>656.6</ele>
        <time>2022-05-24T14:18:02Z</time>
      </trkpt>
      <trkpt lat="46.8241" lon="5.87478">
        <ele>656.6</ele>
        <time>2022-05-24T14:18:03Z</time>
      </trkpt>
      <trkpt lat="46.82413" lon="5.8747">
        <ele>656.4</ele>
        <time>2022-05-24T14:18:04Z</time>
      </trkpt>
      <trkpt lat="46.82416" lon="5.87463">
        <ele>656.4</ele>
        <time>2022-05-24T14:18:05Z</time>
      </trkpt>
      <trkpt lat="46.8242" lon="5.87456">
        <ele>656.4</ele>
        <time>2022-05-24T14:18:06Z</time>
      </trkpt>
      <trkpt lat="46.82423" lon="5.87448">
        <ele>656.6</ele>
        <time>2022-05-24T14:18:07Z</time>
      </trkpt>
      <trkpt lat="46.82426" lon="5.87441">
        <ele>656.6</ele>
        <time>2022-05-24T14:18:08Z</time>
      </trkpt>
      <trkpt lat="46.82429" lon="5.87434">
        <ele>656.6</ele>
        <time>2022-05-24T14:18:09Z</time>
      </trkpt>
      <trkpt lat="46.82432" lon="5.87427">
        <ele>656.6</ele>
        <time>2022-05-24T14:18:10Z</time>
      </trkpt>
      <trkpt lat="46.82436" lon="5.8742">
        <ele>656.6</ele>
        <time>2022-05-24T14:18:11Z</time>
      </trkpt>
      <trkpt lat="46.82439" lon="5.87412">
        <ele>656.6</ele>
        <time>2022-05-24T14:18:12Z</time>
      </trkpt>
      <trkpt lat="46.82442" lon="5.87405">
        <ele>656.6</ele>
        <time>2022-05-24T14:18:13Z</time>
      </trkpt>
      <trkpt lat="46.82445" lon="5.87397">
        <ele>656.6</ele>
        <time>2022-05-24T14:18:14Z</time>
      </trkpt>
      <trkpt lat="46.82448" lon="5.87389">
        <ele>656.6</ele>
        <time>2022-05-24T14:18:15Z</time>
      </trkpt>
      <trkpt lat="46.82451" lon="5.87382">
        <ele>656.6</ele>
        <time>2022-05-24T14:18:16Z</time>
      </trkpt>
      <trkpt lat="46.82454" lon="5.87375">
        <ele>656.6</ele>
        <time>2022-05-24T14:18:17Z</time>
      </trkpt>
      <trkpt lat="46.82457" lon="5.87367">
        <ele>656.6</ele>
        <time>2022-05-24T14:18:18Z</time>
      </trkpt>
      <trkpt lat="46.8246" lon="5.8736">
        <ele>656.6</ele>
        <time>2022-05-24T14:18:19Z</time>
      </trkpt>
      <trkpt lat="46.82463" lon="5.87354">
        <ele>656.6</ele>
        <time>2022-05-24T14:18:20Z</time>
      </trkpt>
      <trkpt lat="46.82465" lon="5.87347">
        <ele>657</ele>
        <time>2022-05-24T14:18:21Z</time>
      </trkpt>
      <trkpt lat="46.82468" lon="5.8734">
        <ele>657</ele>
        <time>2022-05-24T14:18:22Z</time>
      </trkpt>
      <trkpt lat="46.8247" lon="5.87334">
        <ele>657</ele>
        <time>2022-05-24T14:18:23Z</time>
      </trkpt>
      <trkpt lat="46.82473" lon="5.87328">
        <ele>657.4</ele>
        <time>2022-05-24T14:18:24Z</time>
      </trkpt>
      <trkpt lat="46.82476" lon="5.87322">
        <ele>657.4</ele>
        <time>2022-05-24T14:18:25Z</time>
      </trkpt>
      <trkpt lat="46.82478" lon="5.87316">
        <ele>657.6</ele>
        <time>2022-05-24T14:18:26Z</time>
      </trkpt>
      <trkpt lat="46.8248" lon="5.87311">
        <ele>657.6</ele>
        <time>2022-05-24T14:18:27Z</time>
      </trkpt>
      <trkpt lat="46.82482" lon="5.87305">
        <ele>658</ele>
        <time>2022-05-24T14:18:28Z</time>
      </trkpt>
      <trkpt lat="46.82484" lon="5.87301">
        <ele>658.2</ele>
        <time>2022-05-24T14:18:29Z</time>
      </trkpt>
      <trkpt lat="46.82487" lon="5.87296">
        <ele>658.2</ele>
        <time>2022-05-24T14:18:30Z</time>
      </trkpt>
      <trkpt lat="46.82489" lon="5.87291">
        <ele>658.6</ele>
        <time>2022-05-24T14:18:31Z</time>
      </trkpt>
      <trkpt lat="46.82491" lon="5.87287">
        <ele>658.6</ele>
        <time>2022-05-24T14:18:32Z</time>
      </trkpt>
      <trkpt lat="46.82494" lon="5.87282">
        <ele>658.8</ele>
        <time>2022-05-24T14:18:33Z</time>
      </trkpt>
      <trkpt lat="46.82496" lon="5.87277">
        <ele>658.8</ele>
        <time>2022-05-24T14:18:34Z</time>
      </trkpt>
      <trkpt lat="46.82499" lon="5.87272">
        <ele>658.8</ele>
        <time>2022-05-24T14:18:35Z</time>
      </trkpt>
      <trkpt lat="46.82499" lon="5.87272">
        <ele>658.8</ele>
        <time>2022-05-24T14:18:36Z</time>
      </trkpt>
      <trkpt lat="46.82502" lon="5.87266">
        <ele>658.8</ele>
        <time>2022-05-24T14:18:37Z</time>
      </trkpt>
      <trkpt lat="46.82505" lon="5.87261">
        <ele>658.8</ele>
        <time>2022-05-24T14:18:38Z</time>
      </trkpt>
      <trkpt lat="46.82508" lon="5.87255">
        <ele>658.8</ele>
        <time>2022-05-24T14:18:39Z</time>
      </trkpt>
      <trkpt lat="46.82511" lon="5.87248">
        <ele>658.8</ele>
        <time>2022-05-24T14:18:40Z</time>
      </trkpt>
      <trkpt lat="46.82514" lon="5.87242">
        <ele>658.8</ele>
        <time>2022-05-24T14:18:41Z</time>
      </trkpt>
      <trkpt lat="46.82517" lon="5.87235">
        <ele>658.8</ele>
        <time>2022-05-24T14:18:42Z</time>
      </trkpt>
      <trkpt lat="46.8252" lon="5.87229">
        <ele>658.8</ele>
        <time>2022-05-24T14:18:43Z</time>
      </trkpt>
      <trkpt lat="46.82523" lon="5.87222">
        <ele>658.6</ele>
        <time>2022-05-24T14:18:44Z</time>
      </trkpt>
      <trkpt lat="46.82526" lon="5.87215">
        <ele>658.6</ele>
        <time>2022-05-24T14:18:45Z</time>
      </trkpt>
      <trkpt lat="46.8253" lon="5.87208">
        <ele>658.6</ele>
        <time>2022-05-24T14:18:46Z</time>
      </trkpt>
      <trkpt lat="46.82533" lon="5.87201">
        <ele>658.6</ele>
        <time>2022-05-24T14:18:47Z</time>
      </trkpt>
      <trkpt lat="46.82537" lon="5.87194">
        <ele>658.6</ele>
        <time>2022-05-24T14:18:48Z</time>
      </trkpt>
      <trkpt lat="46.8254" lon="5.87187">
        <ele>658.6</ele>
        <time>2022-05-24T14:18:49Z</time>
      </trkpt>
      <trkpt lat="46.82544" lon="5.8718">
        <ele>658.2</ele>
        <time>2022-05-24T14:18:50Z</time>
      </trkpt>
      <trkpt lat="46.82547" lon="5.87173">
        <ele>658.2</ele>
        <time>2022-05-24T14:18:51Z</time>
      </trkpt>
      <trkpt lat="46.82551" lon="5.87166">
        <ele>658.2</ele>
        <time>2022-05-24T14:18:52Z</time>
      </trkpt>
      <trkpt lat="46.82554" lon="5.87159">
        <ele>658.2</ele>
        <time>2022-05-24T14:18:53Z</time>
      </trkpt>
      <trkpt lat="46.82557" lon="5.87152">
        <ele>658.2</ele>
        <time>2022-05-24T14:18:54Z</time>
      </trkpt>
      <trkpt lat="46.82561" lon="5.87144">
        <ele>658.2</ele>
        <time>2022-05-24T14:18:55Z</time>
      </trkpt>
      <trkpt lat="46.82564" lon="5.87137">
        <ele>658.2</ele>
        <time>2022-05-24T14:18:56Z</time>
      </trkpt>
      <trkpt lat="46.82568" lon="5.87129">
        <ele>658.2</ele>
        <time>2022-05-24T14:18:57Z</time>
      </trkpt>
      <trkpt lat="46.82572" lon="5.87122">
        <ele>658.2</ele>
        <time>2022-05-24T14:18:58Z</time>
      </trkpt>
      <trkpt lat="46.82575" lon="5.87115">
        <ele>658.2</ele>
        <time>2022-05-24T14:18:59Z</time>
      </trkpt>
      <trkpt lat="46.82579" lon="5.87107">
        <ele>658.2</ele>
        <time>2022-05-24T14:19:00Z</time>
      </trkpt>
      <trkpt lat="46.82582" lon="5.871">
        <ele>658.6</ele>
        <time>2022-05-24T14:19:01Z</time>
      </trkpt>
      <trkpt lat="46.82586" lon="5.87092">
        <ele>658.6</ele>
        <time>2022-05-24T14:19:02Z</time>
      </trkpt>
      <trkpt lat="46.82589" lon="5.87085">
        <ele>658.6</ele>
        <time>2022-05-24T14:19:03Z</time>
      </trkpt>
      <trkpt lat="46.82593" lon="5.87078">
        <ele>658.6</ele>
        <time>2022-05-24T14:19:04Z</time>
      </trkpt>
      <trkpt lat="46.82596" lon="5.8707">
        <ele>658.6</ele>
        <time>2022-05-24T14:19:05Z</time>
      </trkpt>
      <trkpt lat="46.82599" lon="5.87063">
        <ele>658.6</ele>
        <time>2022-05-24T14:19:06Z</time>
      </trkpt>
      <trkpt lat="46.82602" lon="5.87056">
        <ele>658.6</ele>
        <time>2022-05-24T14:19:07Z</time>
      </trkpt>
      <trkpt lat="46.82605" lon="5.87048">
        <ele>658.6</ele>
        <time>2022-05-24T14:19:08Z</time>
      </trkpt>
      <trkpt lat="46.82607" lon="5.87041">
        <ele>658.6</ele>
        <time>2022-05-24T14:19:09Z</time>
      </trkpt>
      <trkpt lat="46.82608" lon="5.87033">
        <ele>658.6</ele>
        <time>2022-05-24T14:19:10Z</time>
      </trkpt>
      <trkpt lat="46.82609" lon="5.87026">
        <ele>659</ele>
        <time>2022-05-24T14:19:11Z</time>
      </trkpt>
      <trkpt lat="46.8261" lon="5.87019">
        <ele>659</ele>
        <time>2022-05-24T14:19:12Z</time>
      </trkpt>
      <trkpt lat="46.82611" lon="5.87011">
        <ele>659</ele>
        <time>2022-05-24T14:19:13Z</time>
      </trkpt>
      <trkpt lat="46.82612" lon="5.87002">
        <ele>659</ele>
        <time>2022-05-24T14:19:14Z</time>
      </trkpt>
      <trkpt lat="46.82612" lon="5.86993">
        <ele>659</ele>
        <time>2022-05-24T14:19:15Z</time>
      </trkpt>
      <trkpt lat="46.82613" lon="5.86984">
        <ele>658.8</ele>
        <time>2022-05-24T14:19:16Z</time>
      </trkpt>
      <trkpt lat="46.82614" lon="5.86974">
        <ele>658.8</ele>
        <time>2022-05-24T14:19:17Z</time>
      </trkpt>
      <trkpt lat="46.82615" lon="5.86964">
        <ele>658.8</ele>
        <time>2022-05-24T14:19:18Z</time>
      </trkpt>
      <trkpt lat="46.82616" lon="5.86954">
        <ele>658.4</ele>
        <time>2022-05-24T14:19:19Z</time>
      </trkpt>
      <trkpt lat="46.82618" lon="5.86944">
        <ele>658.4</ele>
        <time>2022-05-24T14:19:20Z</time>
      </trkpt>
      <trkpt lat="46.82619" lon="5.86934">
        <ele>658.2</ele>
        <time>2022-05-24T14:19:21Z</time>
      </trkpt>
      <trkpt lat="46.8262" lon="5.86925">
        <ele>658.2</ele>
        <time>2022-05-24T14:19:22Z</time>
      </trkpt>
      <trkpt lat="46.82622" lon="5.86915">
        <ele>657.8</ele>
        <time>2022-05-24T14:19:23Z</time>
      </trkpt>
      <trkpt lat="46.82623" lon="5.86906">
        <ele>657.6</ele>
        <time>2022-05-24T14:19:24Z</time>
      </trkpt>
      <trkpt lat="46.82624" lon="5.86896">
        <ele>657.6</ele>
        <time>2022-05-24T14:19:25Z</time>
      </trkpt>
      <trkpt lat="46.82626" lon="5.86886">
        <ele>657.2</ele>
        <time>2022-05-24T14:19:26Z</time>
      </trkpt>
      <trkpt lat="46.82627" lon="5.86876">
        <ele>657.2</ele>
        <time>2022-05-24T14:19:27Z</time>
      </trkpt>
      <trkpt lat="46.82628" lon="5.86867">
        <ele>657.2</ele>
        <time>2022-05-24T14:19:28Z</time>
      </trkpt>
      <trkpt lat="46.82629" lon="5.86857">
        <ele>657</ele>
        <time>2022-05-24T14:19:29Z</time>
      </trkpt>
      <trkpt lat="46.82629" lon="5.86848">
        <ele>657</ele>
        <time>2022-05-24T14:19:30Z</time>
      </trkpt>
      <trkpt lat="46.82629" lon="5.86839">
        <ele>657</ele>
        <time>2022-05-24T14:19:31Z</time>
      </trkpt>
      <trkpt lat="46.82629" lon="5.8683">
        <ele>657</ele>
        <time>2022-05-24T14:19:32Z</time>
      </trkpt>
      <trkpt lat="46.82629" lon="5.86821">
        <ele>657</ele>
        <time>2022-05-24T14:19:33Z</time>
      </trkpt>
      <trkpt lat="46.82629" lon="5.86813">
        <ele>656.8</ele>
        <time>2022-05-24T14:19:34Z</time>
      </trkpt>
      <trkpt lat="46.82629" lon="5.86804">
        <ele>656.8</ele>
        <time>2022-05-24T14:19:35Z</time>
      </trkpt>
      <trkpt lat="46.8263" lon="5.86796">
        <ele>656.8</ele>
        <time>2022-05-24T14:19:36Z</time>
      </trkpt>
      <trkpt lat="46.82632" lon="5.86788">
        <ele>656.8</ele>
        <time>2022-05-24T14:19:37Z</time>
      </trkpt>
      <trkpt lat="46.82634" lon="5.8678">
        <ele>656.8</ele>
        <time>2022-05-24T14:19:38Z</time>
      </trkpt>
      <trkpt lat="46.82636" lon="5.86772">
        <ele>656.8</ele>
        <time>2022-05-24T14:19:39Z</time>
      </trkpt>
      <trkpt lat="46.82639" lon="5.86765">
        <ele>656.8</ele>
        <time>2022-05-24T14:19:40Z</time>
      </trkpt>
      <trkpt lat="46.82642" lon="5.86758">
        <ele>656.8</ele>
        <time>2022-05-24T14:19:41Z</time>
      </trkpt>
      <trkpt lat="46.82646" lon="5.86752">
        <ele>657</ele>
        <time>2022-05-24T14:19:42Z</time>
      </trkpt>
      <trkpt lat="46.82649" lon="5.86745">
        <ele>657</ele>
        <time>2022-05-24T14:19:43Z</time>
      </trkpt>
      <trkpt lat="46.82652" lon="5.86738">
        <ele>657</ele>
        <time>2022-05-24T14:19:44Z</time>
      </trkpt>
      <trkpt lat="46.82655" lon="5.86731">
        <ele>657</ele>
        <time>2022-05-24T14:19:45Z</time>
      </trkpt>
      <trkpt lat="46.82658" lon="5.86724">
        <ele>656.8</ele>
        <time>2022-05-24T14:19:46Z</time>
      </trkpt>
      <trkpt lat="46.82661" lon="5.86717">
        <ele>656.4</ele>
        <time>2022-05-24T14:19:47Z</time>
      </trkpt>
      <trkpt lat="46.82664" lon="5.8671">
        <ele>656.4</ele>
        <time>2022-05-24T14:19:48Z</time>
      </trkpt>
      <trkpt lat="46.82667" lon="5.86702">
        <ele>656.2</ele>
        <time>2022-05-24T14:19:49Z</time>
      </trkpt>
      <trkpt lat="46.8267" lon="5.86694">
        <ele>656.2</ele>
        <time>2022-05-24T14:19:50Z</time>
      </trkpt>
      <trkpt lat="46.82674" lon="5.86686">
        <ele>656</ele>
        <time>2022-05-24T14:19:51Z</time>
      </trkpt>
      <trkpt lat="46.82677" lon="5.86678">
        <ele>656</ele>
        <time>2022-05-24T14:19:52Z</time>
      </trkpt>
      <trkpt lat="46.82679" lon="5.86669">
        <ele>655.6</ele>
        <time>2022-05-24T14:19:53Z</time>
      </trkpt>
      <trkpt lat="46.82681" lon="5.86659">
        <ele>655.6</ele>
        <time>2022-05-24T14:19:54Z</time>
      </trkpt>
      <trkpt lat="46.82682" lon="5.8665">
        <ele>655.6</ele>
        <time>2022-05-24T14:19:55Z</time>
      </trkpt>
      <trkpt lat="46.82682" lon="5.8664">
        <ele>655.6</ele>
        <time>2022-05-24T14:19:56Z</time>
      </trkpt>
      <trkpt lat="46.82682" lon="5.8663">
        <ele>655.6</ele>
        <time>2022-05-24T14:19:57Z</time>
      </trkpt>
      <trkpt lat="46.82682" lon="5.86621">
        <ele>655.8</ele>
        <time>2022-05-24T14:19:58Z</time>
      </trkpt>
      <trkpt lat="46.82681" lon="5.86612">
        <ele>655.8</ele>
        <time>2022-05-24T14:19:59Z</time>
      </trkpt>
      <trkpt lat="46.8268" lon="5.86604">
        <ele>655.8</ele>
        <time>2022-05-24T14:20:00Z</time>
      </trkpt>
      <trkpt lat="46.82677" lon="5.86587">
        <ele>655.8</ele>
        <time>2022-05-24T14:20:01Z</time>
      </trkpt>
      <trkpt lat="46.82675" lon="5.8658">
        <ele>655.8</ele>
        <time>2022-05-24T14:20:02Z</time>
      </trkpt>
      <trkpt lat="46.82674" lon="5.86572">
        <ele>655.8</ele>
        <time>2022-05-24T14:20:03Z</time>
      </trkpt>
      <trkpt lat="46.82673" lon="5.86565">
        <ele>656.2</ele>
        <time>2022-05-24T14:20:04Z</time>
      </trkpt>
      <trkpt lat="46.82671" lon="5.86558">
        <ele>656.2</ele>
        <time>2022-05-24T14:20:05Z</time>
      </trkpt>
      <trkpt lat="46.8267" lon="5.86552">
        <ele>656.4</ele>
        <time>2022-05-24T14:20:06Z</time>
      </trkpt>
      <trkpt lat="46.8267" lon="5.86546">
        <ele>656.4</ele>
        <time>2022-05-24T14:20:07Z</time>
      </trkpt>
      <trkpt lat="46.82669" lon="5.8654">
        <ele>656.8</ele>
        <time>2022-05-24T14:20:08Z</time>
      </trkpt>
      <trkpt lat="46.82668" lon="5.86534">
        <ele>657</ele>
        <time>2022-05-24T14:20:09Z</time>
      </trkpt>
      <trkpt lat="46.82668" lon="5.86528">
        <ele>657.2</ele>
        <time>2022-05-24T14:20:10Z</time>
      </trkpt>
      <trkpt lat="46.82667" lon="5.86523">
        <ele>657.2</ele>
        <time>2022-05-24T14:20:11Z</time>
      </trkpt>
      <trkpt lat="46.82667" lon="5.86517">
        <ele>657.6</ele>
        <time>2022-05-24T14:20:12Z</time>
      </trkpt>
      <trkpt lat="46.82666" lon="5.86512">
        <ele>657.6</ele>
        <time>2022-05-24T14:20:13Z</time>
      </trkpt>
      <trkpt lat="46.82665" lon="5.86507">
        <ele>657.6</ele>
        <time>2022-05-24T14:20:14Z</time>
      </trkpt>
      <trkpt lat="46.82664" lon="5.86501">
        <ele>657.8</ele>
        <time>2022-05-24T14:20:15Z</time>
      </trkpt>
      <trkpt lat="46.82664" lon="5.86496">
        <ele>658</ele>
        <time>2022-05-24T14:20:16Z</time>
      </trkpt>
      <trkpt lat="46.82663" lon="5.8649">
        <ele>658</ele>
        <time>2022-05-24T14:20:17Z</time>
      </trkpt>
      <trkpt lat="46.82662" lon="5.86485">
        <ele>658.4</ele>
        <time>2022-05-24T14:20:18Z</time>
      </trkpt>
      <trkpt lat="46.8266" lon="5.8648">
        <ele>658.4</ele>
        <time>2022-05-24T14:20:19Z</time>
      </trkpt>
      <trkpt lat="46.82659" lon="5.86475">
        <ele>658.6</ele>
        <time>2022-05-24T14:20:20Z</time>
      </trkpt>
      <trkpt lat="46.82658" lon="5.8647">
        <ele>658.6</ele>
        <time>2022-05-24T14:20:21Z</time>
      </trkpt>
      <trkpt lat="46.82657" lon="5.86466">
        <ele>658.6</ele>
        <time>2022-05-24T14:20:22Z</time>
      </trkpt>
      <trkpt lat="46.82656" lon="5.86461">
        <ele>658.6</ele>
        <time>2022-05-24T14:20:23Z</time>
      </trkpt>
      <trkpt lat="46.82656" lon="5.86455">
        <ele>658.6</ele>
        <time>2022-05-24T14:20:24Z</time>
      </trkpt>
      <trkpt lat="46.82655" lon="5.8645">
        <ele>658.8</ele>
        <time>2022-05-24T14:20:25Z</time>
      </trkpt>
      <trkpt lat="46.82654" lon="5.86444">
        <ele>658.8</ele>
        <time>2022-05-24T14:20:26Z</time>
      </trkpt>
      <trkpt lat="46.82653" lon="5.86439">
        <ele>658.8</ele>
        <time>2022-05-24T14:20:27Z</time>
      </trkpt>
      <trkpt lat="46.82652" lon="5.86433">
        <ele>658.8</ele>
        <time>2022-05-24T14:20:28Z</time>
      </trkpt>
      <trkpt lat="46.82651" lon="5.86427">
        <ele>658.8</ele>
        <time>2022-05-24T14:20:29Z</time>
      </trkpt>
      <trkpt lat="46.82649" lon="5.86421">
        <ele>658.8</ele>
        <time>2022-05-24T14:20:30Z</time>
      </trkpt>
      <trkpt lat="46.82648" lon="5.86415">
        <ele>658.8</ele>
        <time>2022-05-24T14:20:31Z</time>
      </trkpt>
      <trkpt lat="46.82646" lon="5.8641">
        <ele>658.8</ele>
        <time>2022-05-24T14:20:32Z</time>
      </trkpt>
      <trkpt lat="46.82645" lon="5.86405">
        <ele>658.8</ele>
        <time>2022-05-24T14:20:33Z</time>
      </trkpt>
      <trkpt lat="46.82645" lon="5.864">
        <ele>658.8</ele>
        <time>2022-05-24T14:20:34Z</time>
      </trkpt>
      <trkpt lat="46.82645" lon="5.86396">
        <ele>658.8</ele>
        <time>2022-05-24T14:20:35Z</time>
      </trkpt>
      <trkpt lat="46.82646" lon="5.86393">
        <ele>658.6</ele>
        <time>2022-05-24T14:20:36Z</time>
      </trkpt>
      <trkpt lat="46.82647" lon="5.86389">
        <ele>658.6</ele>
        <time>2022-05-24T14:20:37Z</time>
      </trkpt>
      <trkpt lat="46.82649" lon="5.86386">
        <ele>658.4</ele>
        <time>2022-05-24T14:20:38Z</time>
      </trkpt>
      <trkpt lat="46.8265" lon="5.86382">
        <ele>658.4</ele>
        <time>2022-05-24T14:20:39Z</time>
      </trkpt>
      <trkpt lat="46.8265" lon="5.86377">
        <ele>658.4</ele>
        <time>2022-05-24T14:20:40Z</time>
      </trkpt>
      <trkpt lat="46.8265" lon="5.86372">
        <ele>658.4</ele>
        <time>2022-05-24T14:20:41Z</time>
      </trkpt>
      <trkpt lat="46.82648" lon="5.86367">
        <ele>658.2</ele>
        <time>2022-05-24T14:20:42Z</time>
      </trkpt>
      <trkpt lat="46.82645" lon="5.86362">
        <ele>658.2</ele>
        <time>2022-05-24T14:20:43Z</time>
      </trkpt>
      <trkpt lat="46.82643" lon="5.86356">
        <ele>658.2</ele>
        <time>2022-05-24T14:20:44Z</time>
      </trkpt>
      <trkpt lat="46.82641" lon="5.8635">
        <ele>657.8</ele>
        <time>2022-05-24T14:20:45Z</time>
      </trkpt>
      <trkpt lat="46.82639" lon="5.86343">
        <ele>657.8</ele>
        <time>2022-05-24T14:20:46Z</time>
      </trkpt>
      <trkpt lat="46.82636" lon="5.86335">
        <ele>657.6</ele>
        <time>2022-05-24T14:20:47Z</time>
      </trkpt>
      <trkpt lat="46.82633" lon="5.86328">
        <ele>657.2</ele>
        <time>2022-05-24T14:20:48Z</time>
      </trkpt>
      <trkpt lat="46.8263" lon="5.8632">
        <ele>657</ele>
        <time>2022-05-24T14:20:49Z</time>
      </trkpt>
      <trkpt lat="46.82627" lon="5.86311">
        <ele>656.6</ele>
        <time>2022-05-24T14:20:50Z</time>
      </trkpt>
      <trkpt lat="46.82624" lon="5.86303">
        <ele>656.4</ele>
        <time>2022-05-24T14:20:51Z</time>
      </trkpt>
      <trkpt lat="46.82619" lon="5.86295">
        <ele>656.2</ele>
        <time>2022-05-24T14:20:52Z</time>
      </trkpt>
      <trkpt lat="46.82614" lon="5.86288">
        <ele>655.8</ele>
        <time>2022-05-24T14:20:53Z</time>
      </trkpt>
      <trkpt lat="46.82607" lon="5.86283">
        <ele>655.4</ele>
        <time>2022-05-24T14:20:54Z</time>
      </trkpt>
      <trkpt lat="46.826" lon="5.8628">
        <ele>654.8</ele>
        <time>2022-05-24T14:20:55Z</time>
      </trkpt>
      <trkpt lat="46.82593" lon="5.86279">
        <ele>654.6</ele>
        <time>2022-05-24T14:20:56Z</time>
      </trkpt>
      <trkpt lat="46.82586" lon="5.86279">
        <ele>654.4</ele>
        <time>2022-05-24T14:20:57Z</time>
      </trkpt>
      <trkpt lat="46.8258" lon="5.86279">
        <ele>654.4</ele>
        <time>2022-05-24T14:20:58Z</time>
      </trkpt>
      <trkpt lat="46.82574" lon="5.8628">
        <ele>654.4</ele>
        <time>2022-05-24T14:20:59Z</time>
      </trkpt>
      <trkpt lat="46.82569" lon="5.86281">
        <ele>654.8</ele>
        <time>2022-05-24T14:21:00Z</time>
      </trkpt>
      <trkpt lat="46.82564" lon="5.86283">
        <ele>655</ele>
        <time>2022-05-24T14:21:01Z</time>
      </trkpt>
      <trkpt lat="46.8256" lon="5.86284">
        <ele>655.4</ele>
        <time>2022-05-24T14:21:02Z</time>
      </trkpt>
      <trkpt lat="46.82556" lon="5.86285">
        <ele>655.6</ele>
        <time>2022-05-24T14:21:03Z</time>
      </trkpt>
      <trkpt lat="46.82552" lon="5.86285">
        <ele>655.8</ele>
        <time>2022-05-24T14:21:04Z</time>
      </trkpt>
      <trkpt lat="46.82548" lon="5.86287">
        <ele>656</ele>
        <time>2022-05-24T14:21:05Z</time>
      </trkpt>
      <trkpt lat="46.82544" lon="5.86287">
        <ele>656.2</ele>
        <time>2022-05-24T14:21:06Z</time>
      </trkpt>
      <trkpt lat="46.8254" lon="5.86288">
        <ele>656.6</ele>
        <time>2022-05-24T14:21:07Z</time>
      </trkpt>
      <trkpt lat="46.82537" lon="5.86289">
        <ele>656.8</ele>
        <time>2022-05-24T14:21:08Z</time>
      </trkpt>
      <trkpt lat="46.82534" lon="5.86289">
        <ele>657</ele>
        <time>2022-05-24T14:21:09Z</time>
      </trkpt>
      <trkpt lat="46.8253" lon="5.86288">
        <ele>657.4</ele>
        <time>2022-05-24T14:21:10Z</time>
      </trkpt>
      <trkpt lat="46.82528" lon="5.86286">
        <ele>657.4</ele>
        <time>2022-05-24T14:21:11Z</time>
      </trkpt>
      <trkpt lat="46.82525" lon="5.86282">
        <ele>657.6</ele>
        <time>2022-05-24T14:21:12Z</time>
      </trkpt>
      <trkpt lat="46.82523" lon="5.86278">
        <ele>657.6</ele>
        <time>2022-05-24T14:21:13Z</time>
      </trkpt>
      <trkpt lat="46.82521" lon="5.86273">
        <ele>658</ele>
        <time>2022-05-24T14:21:14Z</time>
      </trkpt>
      <trkpt lat="46.82519" lon="5.86268">
        <ele>658</ele>
        <time>2022-05-24T14:21:15Z</time>
      </trkpt>
      <trkpt lat="46.82517" lon="5.86264">
        <ele>658.2</ele>
        <time>2022-05-24T14:21:16Z</time>
      </trkpt>
      <trkpt lat="46.82514" lon="5.86259">
        <ele>658.2</ele>
        <time>2022-05-24T14:21:17Z</time>
      </trkpt>
      <trkpt lat="46.82512" lon="5.86255">
        <ele>658.2</ele>
        <time>2022-05-24T14:21:18Z</time>
      </trkpt>
      <trkpt lat="46.82509" lon="5.86251">
        <ele>658.4</ele>
        <time>2022-05-24T14:21:19Z</time>
      </trkpt>
      <trkpt lat="46.82506" lon="5.86246">
        <ele>658.4</ele>
        <time>2022-05-24T14:21:20Z</time>
      </trkpt>
      <trkpt lat="46.82503" lon="5.86241">
        <ele>658.4</ele>
        <time>2022-05-24T14:21:21Z</time>
      </trkpt>
      <trkpt lat="46.825" lon="5.86237">
        <ele>658.4</ele>
        <time>2022-05-24T14:21:22Z</time>
      </trkpt>
      <trkpt lat="46.82497" lon="5.86232">
        <ele>658.4</ele>
        <time>2022-05-24T14:21:23Z</time>
      </trkpt>
      <trkpt lat="46.82493" lon="5.86228">
        <ele>658.6</ele>
        <time>2022-05-24T14:21:24Z</time>
      </trkpt>
      <trkpt lat="46.82489" lon="5.86224">
        <ele>658.6</ele>
        <time>2022-05-24T14:21:25Z</time>
      </trkpt>
      <trkpt lat="46.82485" lon="5.8622">
        <ele>659</ele>
        <time>2022-05-24T14:21:26Z</time>
      </trkpt>
      <trkpt lat="46.82481" lon="5.86216">
        <ele>659</ele>
        <time>2022-05-24T14:21:27Z</time>
      </trkpt>
      <trkpt lat="46.82478" lon="5.86212">
        <ele>659</ele>
        <time>2022-05-24T14:21:28Z</time>
      </trkpt>
      <trkpt lat="46.82474" lon="5.86209">
        <ele>659.2</ele>
        <time>2022-05-24T14:21:29Z</time>
      </trkpt>
      <trkpt lat="46.8247" lon="5.86205">
        <ele>659.4</ele>
        <time>2022-05-24T14:21:30Z</time>
      </trkpt>
      <trkpt lat="46.82467" lon="5.86201">
        <ele>659.6</ele>
        <time>2022-05-24T14:21:31Z</time>
      </trkpt>
      <trkpt lat="46.82463" lon="5.86198">
        <ele>659.6</ele>
        <time>2022-05-24T14:21:32Z</time>
      </trkpt>
      <trkpt lat="46.8246" lon="5.86194">
        <ele>660</ele>
        <time>2022-05-24T14:21:33Z</time>
      </trkpt>
      <trkpt lat="46.82458" lon="5.8619">
        <ele>660</ele>
        <time>2022-05-24T14:21:34Z</time>
      </trkpt>
      <trkpt lat="46.82454" lon="5.86186">
        <ele>660.4</ele>
        <time>2022-05-24T14:21:35Z</time>
      </trkpt>
      <trkpt lat="46.82451" lon="5.86182">
        <ele>660.8</ele>
        <time>2022-05-24T14:21:36Z</time>
      </trkpt>
      <trkpt lat="46.82447" lon="5.86179">
        <ele>660.8</ele>
        <time>2022-05-24T14:21:37Z</time>
      </trkpt>
      <trkpt lat="46.8244" lon="5.86172">
        <ele>661</ele>
        <time>2022-05-24T14:21:38Z</time>
      </trkpt>
      <trkpt lat="46.82436" lon="5.86168">
        <ele>661.2</ele>
        <time>2022-05-24T14:21:40Z</time>
      </trkpt>
      <trkpt lat="46.82432" lon="5.86165">
        <ele>661.2</ele>
        <time>2022-05-24T14:21:41Z</time>
      </trkpt>
      <trkpt lat="46.82428" lon="5.86163">
        <ele>661.2</ele>
        <time>2022-05-24T14:21:42Z</time>
      </trkpt>
      <trkpt lat="46.82424" lon="5.8616">
        <ele>661.4</ele>
        <time>2022-05-24T14:21:43Z</time>
      </trkpt>
      <trkpt lat="46.8242" lon="5.86157">
        <ele>661.4</ele>
        <time>2022-05-24T14:21:44Z</time>
      </trkpt>
      <trkpt lat="46.82416" lon="5.86152">
        <ele>661.8</ele>
        <time>2022-05-24T14:21:45Z</time>
      </trkpt>
      <trkpt lat="46.82413" lon="5.86148">
        <ele>661.8</ele>
        <time>2022-05-24T14:21:46Z</time>
      </trkpt>
      <trkpt lat="46.82409" lon="5.86143">
        <ele>662</ele>
        <time>2022-05-24T14:21:47Z</time>
      </trkpt>
      <trkpt lat="46.82406" lon="5.86139">
        <ele>662</ele>
        <time>2022-05-24T14:21:48Z</time>
      </trkpt>
      <trkpt lat="46.82402" lon="5.86134">
        <ele>662</ele>
        <time>2022-05-24T14:21:49Z</time>
      </trkpt>
      <trkpt lat="46.82399" lon="5.86129">
        <ele>662</ele>
        <time>2022-05-24T14:21:50Z</time>
      </trkpt>
      <trkpt lat="46.82395" lon="5.86125">
        <ele>662.2</ele>
        <time>2022-05-24T14:21:51Z</time>
      </trkpt>
      <trkpt lat="46.82392" lon="5.8612">
        <ele>662.2</ele>
        <time>2022-05-24T14:21:52Z</time>
      </trkpt>
      <trkpt lat="46.82389" lon="5.86114">
        <ele>662.2</ele>
        <time>2022-05-24T14:21:53Z</time>
      </trkpt>
      <trkpt lat="46.82385" lon="5.86109">
        <ele>662.6</ele>
        <time>2022-05-24T14:21:54Z</time>
      </trkpt>
      <trkpt lat="46.82382" lon="5.86105">
        <ele>662.6</ele>
        <time>2022-05-24T14:21:55Z</time>
      </trkpt>
      <trkpt lat="46.82379" lon="5.861">
        <ele>662.8</ele>
        <time>2022-05-24T14:21:56Z</time>
      </trkpt>
      <trkpt lat="46.82376" lon="5.86096">
        <ele>662.8</ele>
        <time>2022-05-24T14:21:57Z</time>
      </trkpt>
      <trkpt lat="46.82373" lon="5.86091">
        <ele>663</ele>
        <time>2022-05-24T14:21:58Z</time>
      </trkpt>
      <trkpt lat="46.8237" lon="5.86086">
        <ele>663</ele>
        <time>2022-05-24T14:21:59Z</time>
      </trkpt>
      <trkpt lat="46.82367" lon="5.8608">
        <ele>663</ele>
        <time>2022-05-24T14:22:00Z</time>
      </trkpt>
      <trkpt lat="46.82363" lon="5.86075">
        <ele>663.4</ele>
        <time>2022-05-24T14:22:01Z</time>
      </trkpt>
      <trkpt lat="46.82359" lon="5.86069">
        <ele>663.2</ele>
        <time>2022-05-24T14:22:02Z</time>
      </trkpt>
      <trkpt lat="46.82355" lon="5.86063">
        <ele>663.2</ele>
        <time>2022-05-24T14:22:03Z</time>
      </trkpt>
      <trkpt lat="46.82351" lon="5.86056">
        <ele>663.2</ele>
        <time>2022-05-24T14:22:04Z</time>
      </trkpt>
      <trkpt lat="46.82347" lon="5.86049">
        <ele>663.2</ele>
        <time>2022-05-24T14:22:05Z</time>
      </trkpt>
      <trkpt lat="46.82343" lon="5.86042">
        <ele>663.2</ele>
        <time>2022-05-24T14:22:06Z</time>
      </trkpt>
      <trkpt lat="46.82338" lon="5.86034">
        <ele>663.2</ele>
        <time>2022-05-24T14:22:07Z</time>
      </trkpt>
      <trkpt lat="46.82334" lon="5.86026">
        <ele>663.2</ele>
        <time>2022-05-24T14:22:08Z</time>
      </trkpt>
      <trkpt lat="46.82328" lon="5.86018">
        <ele>662.8</ele>
        <time>2022-05-24T14:22:09Z</time>
      </trkpt>
      <trkpt lat="46.82323" lon="5.8601">
        <ele>662.6</ele>
        <time>2022-05-24T14:22:10Z</time>
      </trkpt>
      <trkpt lat="46.82318" lon="5.86002">
        <ele>662.2</ele>
        <time>2022-05-24T14:22:11Z</time>
      </trkpt>
      <trkpt lat="46.82312" lon="5.85994">
        <ele>662</ele>
        <time>2022-05-24T14:22:12Z</time>
      </trkpt>
      <trkpt lat="46.82306" lon="5.85987">
        <ele>662</ele>
        <time>2022-05-24T14:22:13Z</time>
      </trkpt>
      <trkpt lat="46.82299" lon="5.85981">
        <ele>661.6</ele>
        <time>2022-05-24T14:22:14Z</time>
      </trkpt>
      <trkpt lat="46.82292" lon="5.85975">
        <ele>661.4</ele>
        <time>2022-05-24T14:22:15Z</time>
      </trkpt>
      <trkpt lat="46.82285" lon="5.85969">
        <ele>661</ele>
        <time>2022-05-24T14:22:16Z</time>
      </trkpt>
      <trkpt lat="46.82278" lon="5.85965">
        <ele>660.8</ele>
        <time>2022-05-24T14:22:17Z</time>
      </trkpt>
      <trkpt lat="46.82271" lon="5.85961">
        <ele>660.6</ele>
        <time>2022-05-24T14:22:18Z</time>
      </trkpt>
      <trkpt lat="46.82263" lon="5.85957">
        <ele>660.2</ele>
        <time>2022-05-24T14:22:19Z</time>
      </trkpt>
      <trkpt lat="46.82256" lon="5.85953">
        <ele>660</ele>
        <time>2022-05-24T14:22:20Z</time>
      </trkpt>
      <trkpt lat="46.82248" lon="5.8595">
        <ele>660</ele>
        <time>2022-05-24T14:22:21Z</time>
      </trkpt>
      <trkpt lat="46.82241" lon="5.85946">
        <ele>659.6</ele>
        <time>2022-05-24T14:22:22Z</time>
      </trkpt>
      <trkpt lat="46.82233" lon="5.85943">
        <ele>659.6</ele>
        <time>2022-05-24T14:22:23Z</time>
      </trkpt>
      <trkpt lat="46.82226" lon="5.8594">
        <ele>659.2</ele>
        <time>2022-05-24T14:22:24Z</time>
      </trkpt>
      <trkpt lat="46.82219" lon="5.85937">
        <ele>659.2</ele>
        <time>2022-05-24T14:22:25Z</time>
      </trkpt>
      <trkpt lat="46.82212" lon="5.85934">
        <ele>659</ele>
        <time>2022-05-24T14:22:26Z</time>
      </trkpt>
      <trkpt lat="46.82205" lon="5.85931">
        <ele>659</ele>
        <time>2022-05-24T14:22:27Z</time>
      </trkpt>
      <trkpt lat="46.82198" lon="5.85928">
        <ele>658.6</ele>
        <time>2022-05-24T14:22:28Z</time>
      </trkpt>
      <trkpt lat="46.82192" lon="5.85926">
        <ele>658.6</ele>
        <time>2022-05-24T14:22:29Z</time>
      </trkpt>
      <trkpt lat="46.82186" lon="5.85923">
        <ele>658.6</ele>
        <time>2022-05-24T14:22:30Z</time>
      </trkpt>
      <trkpt lat="46.8218" lon="5.85921">
        <ele>658.6</ele>
        <time>2022-05-24T14:22:31Z</time>
      </trkpt>
      <trkpt lat="46.82174" lon="5.85918">
        <ele>658.4</ele>
        <time>2022-05-24T14:22:32Z</time>
      </trkpt>
      <trkpt lat="46.82168" lon="5.85916">
        <ele>658.4</ele>
        <time>2022-05-24T14:22:33Z</time>
      </trkpt>
      <trkpt lat="46.82163" lon="5.85914">
        <ele>658.4</ele>
        <time>2022-05-24T14:22:34Z</time>
      </trkpt>
      <trkpt lat="46.82158" lon="5.85912">
        <ele>658.4</ele>
        <time>2022-05-24T14:22:35Z</time>
      </trkpt>
      <trkpt lat="46.82152" lon="5.8591">
        <ele>658.4</ele>
        <time>2022-05-24T14:22:36Z</time>
      </trkpt>
      <trkpt lat="46.82147" lon="5.85908">
        <ele>658.4</ele>
        <time>2022-05-24T14:22:37Z</time>
      </trkpt>
      <trkpt lat="46.82142" lon="5.85906">
        <ele>658.4</ele>
        <time>2022-05-24T14:22:38Z</time>
      </trkpt>
      <trkpt lat="46.82137" lon="5.85903">
        <ele>658.2</ele>
        <time>2022-05-24T14:22:39Z</time>
      </trkpt>
      <trkpt lat="46.82132" lon="5.859">
        <ele>658</ele>
        <time>2022-05-24T14:22:40Z</time>
      </trkpt>
      <trkpt lat="46.82126" lon="5.85897">
        <ele>658</ele>
        <time>2022-05-24T14:22:41Z</time>
      </trkpt>
      <trkpt lat="46.8212" lon="5.85895">
        <ele>658</ele>
        <time>2022-05-24T14:22:42Z</time>
      </trkpt>
      <trkpt lat="46.82113" lon="5.85892">
        <ele>657.8</ele>
        <time>2022-05-24T14:22:43Z</time>
      </trkpt>
      <trkpt lat="46.82106" lon="5.85889">
        <ele>657.8</ele>
        <time>2022-05-24T14:22:44Z</time>
      </trkpt>
      <trkpt lat="46.82099" lon="5.85887">
        <ele>657.4</ele>
        <time>2022-05-24T14:22:45Z</time>
      </trkpt>
      <trkpt lat="46.82092" lon="5.85884">
        <ele>657</ele>
        <time>2022-05-24T14:22:46Z</time>
      </trkpt>
      <trkpt lat="46.82084" lon="5.85882">
        <ele>656.6</ele>
        <time>2022-05-24T14:22:47Z</time>
      </trkpt>
      <trkpt lat="46.82076" lon="5.85881">
        <ele>656.4</ele>
        <time>2022-05-24T14:22:48Z</time>
      </trkpt>
      <trkpt lat="46.82068" lon="5.8588">
        <ele>656</ele>
        <time>2022-05-24T14:22:49Z</time>
      </trkpt>
      <trkpt lat="46.8206" lon="5.85879">
        <ele>655.6</ele>
        <time>2022-05-24T14:22:50Z</time>
      </trkpt>
      <trkpt lat="46.82052" lon="5.85879">
        <ele>655.4</ele>
        <time>2022-05-24T14:22:51Z</time>
      </trkpt>
      <trkpt lat="46.82044" lon="5.85879">
        <ele>655.2</ele>
        <time>2022-05-24T14:22:52Z</time>
      </trkpt>
      <trkpt lat="46.82036" lon="5.8588">
        <ele>655</ele>
        <time>2022-05-24T14:22:53Z</time>
      </trkpt>
      <trkpt lat="46.82029" lon="5.8588">
        <ele>655</ele>
        <time>2022-05-24T14:22:54Z</time>
      </trkpt>
      <trkpt lat="46.82021" lon="5.85881">
        <ele>654.8</ele>
        <time>2022-05-24T14:22:55Z</time>
      </trkpt>
      <trkpt lat="46.82014" lon="5.85882">
        <ele>654.8</ele>
        <time>2022-05-24T14:22:56Z</time>
      </trkpt>
      <trkpt lat="46.82006" lon="5.85884">
        <ele>654.8</ele>
        <time>2022-05-24T14:22:57Z</time>
      </trkpt>
      <trkpt lat="46.81999" lon="5.85885">
        <ele>654.8</ele>
        <time>2022-05-24T14:22:58Z</time>
      </trkpt>
      <trkpt lat="46.81992" lon="5.85886">
        <ele>654.8</ele>
        <time>2022-05-24T14:22:59Z</time>
      </trkpt>
      <trkpt lat="46.81985" lon="5.85887">
        <ele>654.8</ele>
        <time>2022-05-24T14:23:00Z</time>
      </trkpt>
      <trkpt lat="46.81977" lon="5.85888">
        <ele>654.4</ele>
        <time>2022-05-24T14:23:01Z</time>
      </trkpt>
      <trkpt lat="46.8197" lon="5.85888">
        <ele>654.4</ele>
        <time>2022-05-24T14:23:02Z</time>
      </trkpt>
      <trkpt lat="46.81963" lon="5.85889">
        <ele>654.4</ele>
        <time>2022-05-24T14:23:03Z</time>
      </trkpt>
      <trkpt lat="46.81956" lon="5.85889">
        <ele>654.4</ele>
        <time>2022-05-24T14:23:04Z</time>
      </trkpt>
      <trkpt lat="46.81949" lon="5.8589">
        <ele>654.2</ele>
        <time>2022-05-24T14:23:05Z</time>
      </trkpt>
      <trkpt lat="46.81949" lon="5.8589">
        <ele>654.2</ele>
        <time>2022-05-24T14:23:06Z</time>
      </trkpt>
      <trkpt lat="46.81942" lon="5.8589">
        <ele>654</ele>
        <time>2022-05-24T14:23:07Z</time>
      </trkpt>
      <trkpt lat="46.81935" lon="5.8589">
        <ele>654</ele>
        <time>2022-05-24T14:23:08Z</time>
      </trkpt>
      <trkpt lat="46.81928" lon="5.8589">
        <ele>654</ele>
        <time>2022-05-24T14:23:09Z</time>
      </trkpt>
      <trkpt lat="46.81921" lon="5.85889">
        <ele>654</ele>
        <time>2022-05-24T14:23:10Z</time>
      </trkpt>
      <trkpt lat="46.81914" lon="5.85888">
        <ele>654</ele>
        <time>2022-05-24T14:23:11Z</time>
      </trkpt>
      <trkpt lat="46.81906" lon="5.85887">
        <ele>653.6</ele>
        <time>2022-05-24T14:23:12Z</time>
      </trkpt>
      <trkpt lat="46.81899" lon="5.85885">
        <ele>653.2</ele>
        <time>2022-05-24T14:23:13Z</time>
      </trkpt>
      <trkpt lat="46.81891" lon="5.85883">
        <ele>653</ele>
        <time>2022-05-24T14:23:14Z</time>
      </trkpt>
      <trkpt lat="46.81884" lon="5.85882">
        <ele>652.8</ele>
        <time>2022-05-24T14:23:15Z</time>
      </trkpt>
      <trkpt lat="46.81876" lon="5.8588">
        <ele>652.6</ele>
        <time>2022-05-24T14:23:16Z</time>
      </trkpt>
      <trkpt lat="46.81868" lon="5.85878">
        <ele>652.2</ele>
        <time>2022-05-24T14:23:17Z</time>
      </trkpt>
      <trkpt lat="46.81853" lon="5.85875">
        <ele>652.2</ele>
        <time>2022-05-24T14:23:18Z</time>
      </trkpt>
      <trkpt lat="46.81845" lon="5.85874">
        <ele>652.2</ele>
        <time>2022-05-24T14:23:19Z</time>
      </trkpt>
      <trkpt lat="46.81838" lon="5.85872">
        <ele>652.2</ele>
        <time>2022-05-24T14:23:20Z</time>
      </trkpt>
      <trkpt lat="46.8183" lon="5.8587">
        <ele>652</ele>
        <time>2022-05-24T14:23:21Z</time>
      </trkpt>
      <trkpt lat="46.81822" lon="5.85868">
        <ele>652</ele>
        <time>2022-05-24T14:23:22Z</time>
      </trkpt>
      <trkpt lat="46.81814" lon="5.85867">
        <ele>651.6</ele>
        <time>2022-05-24T14:23:23Z</time>
      </trkpt>
      <trkpt lat="46.81807" lon="5.85865">
        <ele>651.6</ele>
        <time>2022-05-24T14:23:24Z</time>
      </trkpt>
      <trkpt lat="46.81799" lon="5.85864">
        <ele>651.4</ele>
        <time>2022-05-24T14:23:25Z</time>
      </trkpt>
      <trkpt lat="46.81792" lon="5.85863">
        <ele>651.4</ele>
        <time>2022-05-24T14:23:26Z</time>
      </trkpt>
      <trkpt lat="46.81784" lon="5.85861">
        <ele>651</ele>
        <time>2022-05-24T14:23:27Z</time>
      </trkpt>
      <trkpt lat="46.81777" lon="5.85859">
        <ele>651</ele>
        <time>2022-05-24T14:23:28Z</time>
      </trkpt>
      <trkpt lat="46.81769" lon="5.85858">
        <ele>651</ele>
        <time>2022-05-24T14:23:29Z</time>
      </trkpt>
      <trkpt lat="46.81762" lon="5.85856">
        <ele>651</ele>
        <time>2022-05-24T14:23:30Z</time>
      </trkpt>
      <trkpt lat="46.81754" lon="5.85855">
        <ele>651</ele>
        <time>2022-05-24T14:23:31Z</time>
      </trkpt>
      <trkpt lat="46.81747" lon="5.85853">
        <ele>651</ele>
        <time>2022-05-24T14:23:32Z</time>
      </trkpt>
      <trkpt lat="46.81739" lon="5.85852">
        <ele>651</ele>
        <time>2022-05-24T14:23:33Z</time>
      </trkpt>
      <trkpt lat="46.81732" lon="5.8585">
        <ele>651</ele>
        <time>2022-05-24T14:23:34Z</time>
      </trkpt>
      <trkpt lat="46.81725" lon="5.85849">
        <ele>650.8</ele>
        <time>2022-05-24T14:23:35Z</time>
      </trkpt>
      <trkpt lat="46.81717" lon="5.85848">
        <ele>650.8</ele>
        <time>2022-05-24T14:23:36Z</time>
      </trkpt>
      <trkpt lat="46.8171" lon="5.85846">
        <ele>650.6</ele>
        <time>2022-05-24T14:23:37Z</time>
      </trkpt>
      <trkpt lat="46.81702" lon="5.85844">
        <ele>650.4</ele>
        <time>2022-05-24T14:23:38Z</time>
      </trkpt>
      <trkpt lat="46.81695" lon="5.85842">
        <ele>650.4</ele>
        <time>2022-05-24T14:23:39Z</time>
      </trkpt>
      <trkpt lat="46.81687" lon="5.8584">
        <ele>650.2</ele>
        <time>2022-05-24T14:23:40Z</time>
      </trkpt>
      <trkpt lat="46.8168" lon="5.85839">
        <ele>650.2</ele>
        <time>2022-05-24T14:23:41Z</time>
      </trkpt>
      <trkpt lat="46.81672" lon="5.85837">
        <ele>650.2</ele>
        <time>2022-05-24T14:23:42Z</time>
      </trkpt>
      <trkpt lat="46.81664" lon="5.85836">
        <ele>649.8</ele>
        <time>2022-05-24T14:23:43Z</time>
      </trkpt>
      <trkpt lat="46.81657" lon="5.85834">
        <ele>649.6</ele>
        <time>2022-05-24T14:23:44Z</time>
      </trkpt>
      <trkpt lat="46.81649" lon="5.85832">
        <ele>649.6</ele>
        <time>2022-05-24T14:23:45Z</time>
      </trkpt>
      <trkpt lat="46.81641" lon="5.85831">
        <ele>649.4</ele>
        <time>2022-05-24T14:23:46Z</time>
      </trkpt>
      <trkpt lat="46.81634" lon="5.85829">
        <ele>649.4</ele>
        <time>2022-05-24T14:23:47Z</time>
      </trkpt>
      <trkpt lat="46.81626" lon="5.85828">
        <ele>649</ele>
        <time>2022-05-24T14:23:48Z</time>
      </trkpt>
      <trkpt lat="46.81618" lon="5.85826">
        <ele>648.8</ele>
        <time>2022-05-24T14:23:49Z</time>
      </trkpt>
      <trkpt lat="46.8161" lon="5.85824">
        <ele>648.6</ele>
        <time>2022-05-24T14:23:50Z</time>
      </trkpt>
      <trkpt lat="46.81602" lon="5.85822">
        <ele>648.4</ele>
        <time>2022-05-24T14:23:51Z</time>
      </trkpt>
      <trkpt lat="46.81594" lon="5.85821">
        <ele>648</ele>
        <time>2022-05-24T14:23:52Z</time>
      </trkpt>
      <trkpt lat="46.81586" lon="5.85819">
        <ele>648</ele>
        <time>2022-05-24T14:23:53Z</time>
      </trkpt>
      <trkpt lat="46.81578" lon="5.85818">
        <ele>647.6</ele>
        <time>2022-05-24T14:23:54Z</time>
      </trkpt>
      <trkpt lat="46.8157" lon="5.85816">
        <ele>647.4</ele>
        <time>2022-05-24T14:23:55Z</time>
      </trkpt>
      <trkpt lat="46.81563" lon="5.85814">
        <ele>647.2</ele>
        <time>2022-05-24T14:23:56Z</time>
      </trkpt>
      <trkpt lat="46.81555" lon="5.85813">
        <ele>647.2</ele>
        <time>2022-05-24T14:23:57Z</time>
      </trkpt>
      <trkpt lat="46.81555" lon="5.85813">
        <ele>646.8</ele>
        <time>2022-05-24T14:23:58Z</time>
      </trkpt>
      <trkpt lat="46.81547" lon="5.85811">
        <ele>646.6</ele>
        <time>2022-05-24T14:23:59Z</time>
      </trkpt>
      <trkpt lat="46.81539" lon="5.85809">
        <ele>646.6</ele>
        <time>2022-05-24T14:24:00Z</time>
      </trkpt>
      <trkpt lat="46.81531" lon="5.85808">
        <ele>646.6</ele>
        <time>2022-05-24T14:24:01Z</time>
      </trkpt>
      <trkpt lat="46.81523" lon="5.85806">
        <ele>646.2</ele>
        <time>2022-05-24T14:24:02Z</time>
      </trkpt>
      <trkpt lat="46.81515" lon="5.85804">
        <ele>646.2</ele>
        <time>2022-05-24T14:24:03Z</time>
      </trkpt>
      <trkpt lat="46.81506" lon="5.85803">
        <ele>646</ele>
        <time>2022-05-24T14:24:04Z</time>
      </trkpt>
      <trkpt lat="46.81498" lon="5.85802">
        <ele>646</ele>
        <time>2022-05-24T14:24:05Z</time>
      </trkpt>
      <trkpt lat="46.8149" lon="5.858">
        <ele>645.6</ele>
        <time>2022-05-24T14:24:06Z</time>
      </trkpt>
      <trkpt lat="46.81482" lon="5.85799">
        <ele>645.6</ele>
        <time>2022-05-24T14:24:07Z</time>
      </trkpt>
      <trkpt lat="46.81474" lon="5.85797">
        <ele>645.4</ele>
        <time>2022-05-24T14:24:08Z</time>
      </trkpt>
      <trkpt lat="46.81467" lon="5.85795">
        <ele>645.4</ele>
        <time>2022-05-24T14:24:09Z</time>
      </trkpt>
      <trkpt lat="46.81459" lon="5.85794">
        <ele>645</ele>
        <time>2022-05-24T14:24:10Z</time>
      </trkpt>
      <trkpt lat="46.81452" lon="5.85792">
        <ele>645</ele>
        <time>2022-05-24T14:24:11Z</time>
      </trkpt>
      <trkpt lat="46.81445" lon="5.85791">
        <ele>645</ele>
        <time>2022-05-24T14:24:12Z</time>
      </trkpt>
      <trkpt lat="46.81437" lon="5.85789">
        <ele>645</ele>
        <time>2022-05-24T14:24:13Z</time>
      </trkpt>
      <trkpt lat="46.81431" lon="5.85787">
        <ele>645</ele>
        <time>2022-05-24T14:24:14Z</time>
      </trkpt>
      <trkpt lat="46.81424" lon="5.85784">
        <ele>645</ele>
        <time>2022-05-24T14:24:15Z</time>
      </trkpt>
      <trkpt lat="46.81417" lon="5.85782">
        <ele>645</ele>
        <time>2022-05-24T14:24:16Z</time>
      </trkpt>
      <trkpt lat="46.8141" lon="5.85779">
        <ele>645</ele>
        <time>2022-05-24T14:24:17Z</time>
      </trkpt>
      <trkpt lat="46.81404" lon="5.85776">
        <ele>645</ele>
        <time>2022-05-24T14:24:18Z</time>
      </trkpt>
      <trkpt lat="46.81397" lon="5.85773">
        <ele>645</ele>
        <time>2022-05-24T14:24:19Z</time>
      </trkpt>
      <trkpt lat="46.81391" lon="5.85769">
        <ele>645.2</ele>
        <time>2022-05-24T14:24:20Z</time>
      </trkpt>
      <trkpt lat="46.81385" lon="5.85766">
        <ele>645.2</ele>
        <time>2022-05-24T14:24:21Z</time>
      </trkpt>
      <trkpt lat="46.81379" lon="5.85761">
        <ele>645.2</ele>
        <time>2022-05-24T14:24:22Z</time>
      </trkpt>
      <trkpt lat="46.81373" lon="5.85756">
        <ele>645.2</ele>
        <time>2022-05-24T14:24:23Z</time>
      </trkpt>
      <trkpt lat="46.81366" lon="5.85751">
        <ele>645</ele>
        <time>2022-05-24T14:24:24Z</time>
      </trkpt>
      <trkpt lat="46.8136" lon="5.85746">
        <ele>644.8</ele>
        <time>2022-05-24T14:24:25Z</time>
      </trkpt>
      <trkpt lat="46.81353" lon="5.8574">
        <ele>644.6</ele>
        <time>2022-05-24T14:24:26Z</time>
      </trkpt>
      <trkpt lat="46.81346" lon="5.85735">
        <ele>644.6</ele>
        <time>2022-05-24T14:24:27Z</time>
      </trkpt>
      <trkpt lat="46.81339" lon="5.8573">
        <ele>644.4</ele>
        <time>2022-05-24T14:24:28Z</time>
      </trkpt>
      <trkpt lat="46.81333" lon="5.85724">
        <ele>644.4</ele>
        <time>2022-05-24T14:24:29Z</time>
      </trkpt>
      <trkpt lat="46.81326" lon="5.85719">
        <ele>644</ele>
        <time>2022-05-24T14:24:30Z</time>
      </trkpt>
      <trkpt lat="46.8132" lon="5.85714">
        <ele>644</ele>
        <time>2022-05-24T14:24:31Z</time>
      </trkpt>
      <trkpt lat="46.81313" lon="5.85709">
        <ele>643.6</ele>
        <time>2022-05-24T14:24:32Z</time>
      </trkpt>
      <trkpt lat="46.81307" lon="5.85704">
        <ele>643.2</ele>
        <time>2022-05-24T14:24:33Z</time>
      </trkpt>
      <trkpt lat="46.81301" lon="5.85698">
        <ele>643</ele>
        <time>2022-05-24T14:24:34Z</time>
      </trkpt>
      <trkpt lat="46.81294" lon="5.85693">
        <ele>643</ele>
        <time>2022-05-24T14:24:35Z</time>
      </trkpt>
      <trkpt lat="46.81288" lon="5.85689">
        <ele>642.8</ele>
        <time>2022-05-24T14:24:36Z</time>
      </trkpt>
      <trkpt lat="46.81281" lon="5.85684">
        <ele>642.8</ele>
        <time>2022-05-24T14:24:37Z</time>
      </trkpt>
      <trkpt lat="46.81274" lon="5.8568">
        <ele>642.8</ele>
        <time>2022-05-24T14:24:38Z</time>
      </trkpt>
      <trkpt lat="46.81268" lon="5.85675">
        <ele>642.6</ele>
        <time>2022-05-24T14:24:39Z</time>
      </trkpt>
      <trkpt lat="46.81262" lon="5.85669">
        <ele>642.6</ele>
        <time>2022-05-24T14:24:40Z</time>
      </trkpt>
      <trkpt lat="46.81255" lon="5.85664">
        <ele>642</ele>
        <time>2022-05-24T14:24:41Z</time>
      </trkpt>
      <trkpt lat="46.81249" lon="5.85659">
        <ele>642</ele>
        <time>2022-05-24T14:24:42Z</time>
      </trkpt>
      <trkpt lat="46.81243" lon="5.85654">
        <ele>641.8</ele>
        <time>2022-05-24T14:24:43Z</time>
      </trkpt>
      <trkpt lat="46.81237" lon="5.85649">
        <ele>641.8</ele>
        <time>2022-05-24T14:24:44Z</time>
      </trkpt>
      <trkpt lat="46.81231" lon="5.85644">
        <ele>641.8</ele>
        <time>2022-05-24T14:24:45Z</time>
      </trkpt>
      <trkpt lat="46.81225" lon="5.8564">
        <ele>641.8</ele>
        <time>2022-05-24T14:24:46Z</time>
      </trkpt>
      <trkpt lat="46.8122" lon="5.85635">
        <ele>641.8</ele>
        <time>2022-05-24T14:24:47Z</time>
      </trkpt>
      <trkpt lat="46.81214" lon="5.85631">
        <ele>641.6</ele>
        <time>2022-05-24T14:24:48Z</time>
      </trkpt>
      <trkpt lat="46.81209" lon="5.85626">
        <ele>641.6</ele>
        <time>2022-05-24T14:24:49Z</time>
      </trkpt>
      <trkpt lat="46.81205" lon="5.85621">
        <ele>641.2</ele>
        <time>2022-05-24T14:24:50Z</time>
      </trkpt>
      <trkpt lat="46.812" lon="5.85616">
        <ele>641.2</ele>
        <time>2022-05-24T14:24:51Z</time>
      </trkpt>
      <trkpt lat="46.81196" lon="5.85611">
        <ele>641.2</ele>
        <time>2022-05-24T14:24:52Z</time>
      </trkpt>
      <trkpt lat="46.81192" lon="5.85606">
        <ele>641.2</ele>
        <time>2022-05-24T14:24:53Z</time>
      </trkpt>
      <trkpt lat="46.81188" lon="5.85602">
        <ele>641</ele>
        <time>2022-05-24T14:24:54Z</time>
      </trkpt>
      <trkpt lat="46.81185" lon="5.85599">
        <ele>641</ele>
        <time>2022-05-24T14:24:55Z</time>
      </trkpt>
      <trkpt lat="46.81182" lon="5.85597">
        <ele>641</ele>
        <time>2022-05-24T14:24:56Z</time>
      </trkpt>
      <trkpt lat="46.8118" lon="5.85597">
        <ele>641</ele>
        <time>2022-05-24T14:24:57Z</time>
      </trkpt>
      <trkpt lat="46.81178" lon="5.85598">
        <ele>641</ele>
        <time>2022-05-24T14:24:58Z</time>
      </trkpt>
      <trkpt lat="46.81177" lon="5.85599">
        <ele>641</ele>
        <time>2022-05-24T14:24:59Z</time>
      </trkpt>
      <trkpt lat="46.81176" lon="5.85602">
        <ele>641</ele>
        <time>2022-05-24T14:25:00Z</time>
      </trkpt>
      <trkpt lat="46.81176" lon="5.85605">
        <ele>641</ele>
        <time>2022-05-24T14:25:01Z</time>
      </trkpt>
      <trkpt lat="46.81177" lon="5.85607">
        <ele>641</ele>
        <time>2022-05-24T14:25:02Z</time>
      </trkpt>
      <trkpt lat="46.81178" lon="5.8561">
        <ele>641</ele>
        <time>2022-05-24T14:25:03Z</time>
      </trkpt>
      <trkpt lat="46.8118" lon="5.85611">
        <ele>641</ele>
        <time>2022-05-24T14:25:04Z</time>
      </trkpt>
      <trkpt lat="46.81183" lon="5.85613">
        <ele>641</ele>
        <time>2022-05-24T14:25:05Z</time>
      </trkpt>
      <trkpt lat="46.81186" lon="5.85614">
        <ele>641</ele>
        <time>2022-05-24T14:25:06Z</time>
      </trkpt>
      <trkpt lat="46.81193" lon="5.85617">
        <ele>641.2</ele>
        <time>2022-05-24T14:25:07Z</time>
      </trkpt>
      <trkpt lat="46.81196" lon="5.8562">
        <ele>641.2</ele>
        <time>2022-05-24T14:25:08Z</time>
      </trkpt>
      <trkpt lat="46.812" lon="5.85623">
        <ele>641.2</ele>
        <time>2022-05-24T14:25:09Z</time>
      </trkpt>
      <trkpt lat="46.81204" lon="5.85627">
        <ele>641.2</ele>
        <time>2022-05-24T14:25:10Z</time>
      </trkpt>
      <trkpt lat="46.81208" lon="5.8563">
        <ele>641.2</ele>
        <time>2022-05-24T14:25:11Z</time>
      </trkpt>
      <trkpt lat="46.81212" lon="5.85634">
        <ele>641.2</ele>
        <time>2022-05-24T14:25:12Z</time>
      </trkpt>
      <trkpt lat="46.81216" lon="5.85637">
        <ele>641.2</ele>
        <time>2022-05-24T14:25:13Z</time>
      </trkpt>
      <trkpt lat="46.81221" lon="5.85641">
        <ele>641.6</ele>
        <time>2022-05-24T14:25:14Z</time>
      </trkpt>
      <trkpt lat="46.81226" lon="5.85644">
        <ele>641.6</ele>
        <time>2022-05-24T14:25:15Z</time>
      </trkpt>
      <trkpt lat="46.81231" lon="5.85648">
        <ele>641.6</ele>
        <time>2022-05-24T14:25:16Z</time>
      </trkpt>
      <trkpt lat="46.81236" lon="5.85652">
        <ele>641.6</ele>
        <time>2022-05-24T14:25:17Z</time>
      </trkpt>
      <trkpt lat="46.81236" lon="5.85652">
        <ele>641.6</ele>
        <time>2022-05-24T14:25:18Z</time>
      </trkpt>
      <trkpt lat="46.81241" lon="5.85656">
        <ele>641.6</ele>
        <time>2022-05-24T14:25:19Z</time>
      </trkpt>
      <trkpt lat="46.81246" lon="5.8566">
        <ele>641.4</ele>
        <time>2022-05-24T14:25:20Z</time>
      </trkpt>
      <trkpt lat="46.81251" lon="5.85664">
        <ele>641.4</ele>
        <time>2022-05-24T14:25:21Z</time>
      </trkpt>
      <trkpt lat="46.81256" lon="5.85668">
        <ele>641.4</ele>
        <time>2022-05-24T14:25:22Z</time>
      </trkpt>
      <trkpt lat="46.81261" lon="5.85672">
        <ele>641.4</ele>
        <time>2022-05-24T14:25:23Z</time>
      </trkpt>
      <trkpt lat="46.81266" lon="5.85676">
        <ele>641.4</ele>
        <time>2022-05-24T14:25:24Z</time>
      </trkpt>
      <trkpt lat="46.81271" lon="5.8568">
        <ele>641.4</ele>
        <time>2022-05-24T14:25:25Z</time>
      </trkpt>
      <trkpt lat="46.81276" lon="5.85684">
        <ele>641.4</ele>
        <time>2022-05-24T14:25:26Z</time>
      </trkpt>
      <trkpt lat="46.81281" lon="5.85688">
        <ele>641.4</ele>
        <time>2022-05-24T14:25:27Z</time>
      </trkpt>
      <trkpt lat="46.81286" lon="5.85692">
        <ele>641.6</ele>
        <time>2022-05-24T14:25:28Z</time>
      </trkpt>
      <trkpt lat="46.81291" lon="5.85696">
        <ele>641.6</ele>
        <time>2022-05-24T14:25:29Z</time>
      </trkpt>
      <trkpt lat="46.81296" lon="5.85699">
        <ele>641.6</ele>
        <time>2022-05-24T14:25:30Z</time>
      </trkpt>
      <trkpt lat="46.81301" lon="5.85703">
        <ele>641.6</ele>
        <time>2022-05-24T14:25:31Z</time>
      </trkpt>
      <trkpt lat="46.81306" lon="5.85707">
        <ele>641.8</ele>
        <time>2022-05-24T14:25:32Z</time>
      </trkpt>
      <trkpt lat="46.81311" lon="5.85711">
        <ele>641.8</ele>
        <time>2022-05-24T14:25:33Z</time>
      </trkpt>
      <trkpt lat="46.81316" lon="5.85715">
        <ele>642</ele>
        <time>2022-05-24T14:25:34Z</time>
      </trkpt>
      <trkpt lat="46.81321" lon="5.85718">
        <ele>642</ele>
        <time>2022-05-24T14:25:35Z</time>
      </trkpt>
      <trkpt lat="46.81326" lon="5.85722">
        <ele>642</ele>
        <time>2022-05-24T14:25:36Z</time>
      </trkpt>
      <trkpt lat="46.81332" lon="5.85727">
        <ele>642</ele>
        <time>2022-05-24T14:25:37Z</time>
      </trkpt>
      <trkpt lat="46.81337" lon="5.85731">
        <ele>642.2</ele>
        <time>2022-05-24T14:25:38Z</time>
      </trkpt>
      <trkpt lat="46.81342" lon="5.85735">
        <ele>642.2</ele>
        <time>2022-05-24T14:25:39Z</time>
      </trkpt>
      <trkpt lat="46.81348" lon="5.85739">
        <ele>642.2</ele>
        <time>2022-05-24T14:25:40Z</time>
      </trkpt>
      <trkpt lat="46.81353" lon="5.85744">
        <ele>642.2</ele>
        <time>2022-05-24T14:25:41Z</time>
      </trkpt>
      <trkpt lat="46.81358" lon="5.85748">
        <ele>642.2</ele>
        <time>2022-05-24T14:25:42Z</time>
      </trkpt>
      <trkpt lat="46.81364" lon="5.85753">
        <ele>642.6</ele>
        <time>2022-05-24T14:25:43Z</time>
      </trkpt>
      <trkpt lat="46.81369" lon="5.85757">
        <ele>643</ele>
        <time>2022-05-24T14:25:44Z</time>
      </trkpt>
      <trkpt lat="46.81374" lon="5.85761">
        <ele>643</ele>
        <time>2022-05-24T14:25:45Z</time>
      </trkpt>
      <trkpt lat="46.81379" lon="5.85765">
        <ele>643.2</ele>
        <time>2022-05-24T14:25:46Z</time>
      </trkpt>
      <trkpt lat="46.81384" lon="5.85768">
        <ele>643.4</ele>
        <time>2022-05-24T14:25:47Z</time>
      </trkpt>
      <trkpt lat="46.81389" lon="5.85771">
        <ele>643.4</ele>
        <time>2022-05-24T14:25:48Z</time>
      </trkpt>
      <trkpt lat="46.81393" lon="5.85774">
        <ele>644</ele>
        <time>2022-05-24T14:25:49Z</time>
      </trkpt>
      <trkpt lat="46.81398" lon="5.85778">
        <ele>644.4</ele>
        <time>2022-05-24T14:25:50Z</time>
      </trkpt>
      <trkpt lat="46.81403" lon="5.85781">
        <ele>644.4</ele>
        <time>2022-05-24T14:25:51Z</time>
      </trkpt>
      <trkpt lat="46.81409" lon="5.85783">
        <ele>644.4</ele>
        <time>2022-05-24T14:25:52Z</time>
      </trkpt>
      <trkpt lat="46.81414" lon="5.85786">
        <ele>644.4</ele>
        <time>2022-05-24T14:25:53Z</time>
      </trkpt>
      <trkpt lat="46.8142" lon="5.85788">
        <ele>644.4</ele>
        <time>2022-05-24T14:25:54Z</time>
      </trkpt>
      <trkpt lat="46.81425" lon="5.8579">
        <ele>644.4</ele>
        <time>2022-05-24T14:25:55Z</time>
      </trkpt>
      <trkpt lat="46.81431" lon="5.85791">
        <ele>644.4</ele>
        <time>2022-05-24T14:25:56Z</time>
      </trkpt>
      <trkpt lat="46.81437" lon="5.85793">
        <ele>644.6</ele>
        <time>2022-05-24T14:25:57Z</time>
      </trkpt>
      <trkpt lat="46.81443" lon="5.85795">
        <ele>644.6</ele>
        <time>2022-05-24T14:25:58Z</time>
      </trkpt>
      <trkpt lat="46.81449" lon="5.85797">
        <ele>644.6</ele>
        <time>2022-05-24T14:25:59Z</time>
      </trkpt>
      <trkpt lat="46.81455" lon="5.85798">
        <ele>644.8</ele>
        <time>2022-05-24T14:26:00Z</time>
      </trkpt>
      <trkpt lat="46.81461" lon="5.858">
        <ele>644.8</ele>
        <time>2022-05-24T14:26:01Z</time>
      </trkpt>
      <trkpt lat="46.81467" lon="5.85801">
        <ele>644.8</ele>
        <time>2022-05-24T14:26:02Z</time>
      </trkpt>
      <trkpt lat="46.81473" lon="5.85802">
        <ele>644.8</ele>
        <time>2022-05-24T14:26:03Z</time>
      </trkpt>
      <trkpt lat="46.81479" lon="5.85804">
        <ele>644.8</ele>
        <time>2022-05-24T14:26:04Z</time>
      </trkpt>
      <trkpt lat="46.81486" lon="5.85804">
        <ele>644.8</ele>
        <time>2022-05-24T14:26:05Z</time>
      </trkpt>
      <trkpt lat="46.81492" lon="5.85805">
        <ele>644.8</ele>
        <time>2022-05-24T14:26:06Z</time>
      </trkpt>
      <trkpt lat="46.81498" lon="5.85807">
        <ele>644.8</ele>
        <time>2022-05-24T14:26:07Z</time>
      </trkpt>
      <trkpt lat="46.81505" lon="5.85808">
        <ele>644.6</ele>
        <time>2022-05-24T14:26:08Z</time>
      </trkpt>
      <trkpt lat="46.81511" lon="5.85809">
        <ele>644.6</ele>
        <time>2022-05-24T14:26:09Z</time>
      </trkpt>
      <trkpt lat="46.81517" lon="5.8581">
        <ele>644.6</ele>
        <time>2022-05-24T14:26:10Z</time>
      </trkpt>
      <trkpt lat="46.81523" lon="5.85811">
        <ele>644.6</ele>
        <time>2022-05-24T14:26:11Z</time>
      </trkpt>
      <trkpt lat="46.81529" lon="5.85813">
        <ele>644.6</ele>
        <time>2022-05-24T14:26:12Z</time>
      </trkpt>
      <trkpt lat="46.81535" lon="5.85814">
        <ele>644.8</ele>
        <time>2022-05-24T14:26:13Z</time>
      </trkpt>
      <trkpt lat="46.81541" lon="5.85815">
        <ele>644.8</ele>
        <time>2022-05-24T14:26:14Z</time>
      </trkpt>
      <trkpt lat="46.81546" lon="5.85816">
        <ele>645</ele>
        <time>2022-05-24T14:26:15Z</time>
      </trkpt>
      <trkpt lat="46.81552" lon="5.85818">
        <ele>645</ele>
        <time>2022-05-24T14:26:16Z</time>
      </trkpt>
      <trkpt lat="46.81557" lon="5.85819">
        <ele>645.2</ele>
        <time>2022-05-24T14:26:17Z</time>
      </trkpt>
      <trkpt lat="46.81562" lon="5.85819">
        <ele>645.2</ele>
        <time>2022-05-24T14:26:18Z</time>
      </trkpt>
      <trkpt lat="46.81567" lon="5.8582">
        <ele>645.6</ele>
        <time>2022-05-24T14:26:19Z</time>
      </trkpt>
      <trkpt lat="46.81572" lon="5.85821">
        <ele>645.6</ele>
        <time>2022-05-24T14:26:20Z</time>
      </trkpt>
      <trkpt lat="46.81578" lon="5.85822">
        <ele>645.8</ele>
        <time>2022-05-24T14:26:21Z</time>
      </trkpt>
      <trkpt lat="46.81583" lon="5.85823">
        <ele>645.8</ele>
        <time>2022-05-24T14:26:22Z</time>
      </trkpt>
      <trkpt lat="46.81588" lon="5.85824">
        <ele>646</ele>
        <time>2022-05-24T14:26:23Z</time>
      </trkpt>
      <trkpt lat="46.81594" lon="5.85826">
        <ele>646</ele>
        <time>2022-05-24T14:26:24Z</time>
      </trkpt>
      <trkpt lat="46.81599" lon="5.85827">
        <ele>646</ele>
        <time>2022-05-24T14:26:25Z</time>
      </trkpt>
      <trkpt lat="46.81604" lon="5.85827">
        <ele>646.4</ele>
        <time>2022-05-24T14:26:26Z</time>
      </trkpt>
      <trkpt lat="46.81609" lon="5.85828">
        <ele>646.4</ele>
        <time>2022-05-24T14:26:27Z</time>
      </trkpt>
      <trkpt lat="46.81614" lon="5.85829">
        <ele>647</ele>
        <time>2022-05-24T14:26:28Z</time>
      </trkpt>
      <trkpt lat="46.81619" lon="5.8583">
        <ele>647</ele>
        <time>2022-05-24T14:26:29Z</time>
      </trkpt>
      <trkpt lat="46.81624" lon="5.85831">
        <ele>647.2</ele>
        <time>2022-05-24T14:26:30Z</time>
      </trkpt>
      <trkpt lat="46.81629" lon="5.85832">
        <ele>647.2</ele>
        <time>2022-05-24T14:26:31Z</time>
      </trkpt>
      <trkpt lat="46.81634" lon="5.85833">
        <ele>647.4</ele>
        <time>2022-05-24T14:26:32Z</time>
      </trkpt>
      <trkpt lat="46.81639" lon="5.85834">
        <ele>647.6</ele>
        <time>2022-05-24T14:26:33Z</time>
      </trkpt>
      <trkpt lat="46.81644" lon="5.85835">
        <ele>647.8</ele>
        <time>2022-05-24T14:26:34Z</time>
      </trkpt>
      <trkpt lat="46.81649" lon="5.85836">
        <ele>648.2</ele>
        <time>2022-05-24T14:26:35Z</time>
      </trkpt>
      <trkpt lat="46.81654" lon="5.85837">
        <ele>648.2</ele>
        <time>2022-05-24T14:26:36Z</time>
      </trkpt>
      <trkpt lat="46.81659" lon="5.85838">
        <ele>648.2</ele>
        <time>2022-05-24T14:26:37Z</time>
      </trkpt>
      <trkpt lat="46.81664" lon="5.85839">
        <ele>648.4</ele>
        <time>2022-05-24T14:26:38Z</time>
      </trkpt>
      <trkpt lat="46.81669" lon="5.8584">
        <ele>648.6</ele>
        <time>2022-05-24T14:26:39Z</time>
      </trkpt>
      <trkpt lat="46.81674" lon="5.85841">
        <ele>648.6</ele>
        <time>2022-05-24T14:26:40Z</time>
      </trkpt>
      <trkpt lat="46.81679" lon="5.85842">
        <ele>649</ele>
        <time>2022-05-24T14:26:41Z</time>
      </trkpt>
      <trkpt lat="46.81685" lon="5.85843">
        <ele>649</ele>
        <time>2022-05-24T14:26:42Z</time>
      </trkpt>
      <trkpt lat="46.8169" lon="5.85844">
        <ele>649</ele>
        <time>2022-05-24T14:26:43Z</time>
      </trkpt>
      <trkpt lat="46.81696" lon="5.85845">
        <ele>649</ele>
        <time>2022-05-24T14:26:44Z</time>
      </trkpt>
      <trkpt lat="46.81702" lon="5.85846">
        <ele>649.4</ele>
        <time>2022-05-24T14:26:45Z</time>
      </trkpt>
      <trkpt lat="46.81707" lon="5.85847">
        <ele>649.6</ele>
        <time>2022-05-24T14:26:46Z</time>
      </trkpt>
      <trkpt lat="46.81717" lon="5.8585">
        <ele>649.4</ele>
        <time>2022-05-24T14:26:47Z</time>
      </trkpt>
      <trkpt lat="46.81722" lon="5.8585">
        <ele>649.6</ele>
        <time>2022-05-24T14:26:48Z</time>
      </trkpt>
      <trkpt lat="46.8173" lon="5.85852">
        <ele>649.6</ele>
        <time>2022-05-24T14:26:49Z</time>
      </trkpt>
      <trkpt lat="46.81736" lon="5.85854">
        <ele>650</ele>
        <time>2022-05-24T14:26:50Z</time>
      </trkpt>
      <trkpt lat="46.81742" lon="5.85855">
        <ele>650</ele>
        <time>2022-05-24T14:26:51Z</time>
      </trkpt>
      <trkpt lat="46.81747" lon="5.85857">
        <ele>650.2</ele>
        <time>2022-05-24T14:26:52Z</time>
      </trkpt>
      <trkpt lat="46.81753" lon="5.85858">
        <ele>650.2</ele>
        <time>2022-05-24T14:26:53Z</time>
      </trkpt>
      <trkpt lat="46.81759" lon="5.85859">
        <ele>650.2</ele>
        <time>2022-05-24T14:26:54Z</time>
      </trkpt>
      <trkpt lat="46.81765" lon="5.8586">
        <ele>650.2</ele>
        <time>2022-05-24T14:26:55Z</time>
      </trkpt>
      <trkpt lat="46.81771" lon="5.85861">
        <ele>650.2</ele>
        <time>2022-05-24T14:26:56Z</time>
      </trkpt>
      <trkpt lat="46.81777" lon="5.85863">
        <ele>650.6</ele>
        <time>2022-05-24T14:26:57Z</time>
      </trkpt>
      <trkpt lat="46.81783" lon="5.85864">
        <ele>650.6</ele>
        <time>2022-05-24T14:26:58Z</time>
      </trkpt>
      <trkpt lat="46.81788" lon="5.85865">
        <ele>650.6</ele>
        <time>2022-05-24T14:26:59Z</time>
      </trkpt>
      <trkpt lat="46.81794" lon="5.85866">
        <ele>650.8</ele>
        <time>2022-05-24T14:27:00Z</time>
      </trkpt>
      <trkpt lat="46.818" lon="5.85867">
        <ele>650.8</ele>
        <time>2022-05-24T14:27:01Z</time>
      </trkpt>
      <trkpt lat="46.81806" lon="5.85868">
        <ele>650.8</ele>
        <time>2022-05-24T14:27:02Z</time>
      </trkpt>
      <trkpt lat="46.81811" lon="5.85869">
        <ele>650.8</ele>
        <time>2022-05-24T14:27:03Z</time>
      </trkpt>
      <trkpt lat="46.81817" lon="5.85871">
        <ele>651.2</ele>
        <time>2022-05-24T14:27:04Z</time>
      </trkpt>
      <trkpt lat="46.81823" lon="5.85872">
        <ele>651.2</ele>
        <time>2022-05-24T14:27:05Z</time>
      </trkpt>
      <trkpt lat="46.81829" lon="5.85873">
        <ele>651.2</ele>
        <time>2022-05-24T14:27:06Z</time>
      </trkpt>
      <trkpt lat="46.81835" lon="5.85874">
        <ele>651.6</ele>
        <time>2022-05-24T14:27:07Z</time>
      </trkpt>
      <trkpt lat="46.81841" lon="5.85875">
        <ele>651.6</ele>
        <time>2022-05-24T14:27:08Z</time>
      </trkpt>
      <trkpt lat="46.81847" lon="5.85877">
        <ele>651.8</ele>
        <time>2022-05-24T14:27:09Z</time>
      </trkpt>
      <trkpt lat="46.81853" lon="5.85878">
        <ele>651.8</ele>
        <time>2022-05-24T14:27:10Z</time>
      </trkpt>
      <trkpt lat="46.81859" lon="5.85879">
        <ele>651.8</ele>
        <time>2022-05-24T14:27:11Z</time>
      </trkpt>
      <trkpt lat="46.81865" lon="5.85881">
        <ele>651.8</ele>
        <time>2022-05-24T14:27:12Z</time>
      </trkpt>
      <trkpt lat="46.81871" lon="5.85882">
        <ele>651.8</ele>
        <time>2022-05-24T14:27:13Z</time>
      </trkpt>
      <trkpt lat="46.81876" lon="5.85883">
        <ele>651.8</ele>
        <time>2022-05-24T14:27:14Z</time>
      </trkpt>
      <trkpt lat="46.81882" lon="5.85884">
        <ele>651.8</ele>
        <time>2022-05-24T14:27:15Z</time>
      </trkpt>
      <trkpt lat="46.81888" lon="5.85886">
        <ele>652.2</ele>
        <time>2022-05-24T14:27:16Z</time>
      </trkpt>
      <trkpt lat="46.81894" lon="5.85887">
        <ele>652.2</ele>
        <time>2022-05-24T14:27:17Z</time>
      </trkpt>
      <trkpt lat="46.81899" lon="5.85888">
        <ele>652.2</ele>
        <time>2022-05-24T14:27:18Z</time>
      </trkpt>
      <trkpt lat="46.81905" lon="5.85889">
        <ele>652.4</ele>
        <time>2022-05-24T14:27:19Z</time>
      </trkpt>
      <trkpt lat="46.8191" lon="5.8589">
        <ele>652.4</ele>
        <time>2022-05-24T14:27:20Z</time>
      </trkpt>
      <trkpt lat="46.81915" lon="5.85891">
        <ele>652.4</ele>
        <time>2022-05-24T14:27:21Z</time>
      </trkpt>
      <trkpt lat="46.8192" lon="5.85892">
        <ele>652.4</ele>
        <time>2022-05-24T14:27:22Z</time>
      </trkpt>
      <trkpt lat="46.81926" lon="5.85893">
        <ele>652.4</ele>
        <time>2022-05-24T14:27:23Z</time>
      </trkpt>
      <trkpt lat="46.81931" lon="5.85893">
        <ele>652.6</ele>
        <time>2022-05-24T14:27:24Z</time>
      </trkpt>
      <trkpt lat="46.81936" lon="5.85894">
        <ele>652.6</ele>
        <time>2022-05-24T14:27:25Z</time>
      </trkpt>
      <trkpt lat="46.81941" lon="5.85894">
        <ele>653</ele>
        <time>2022-05-24T14:27:26Z</time>
      </trkpt>
      <trkpt lat="46.81946" lon="5.85894">
        <ele>653</ele>
        <time>2022-05-24T14:27:27Z</time>
      </trkpt>
      <trkpt lat="46.81951" lon="5.85894">
        <ele>653.2</ele>
        <time>2022-05-24T14:27:28Z</time>
      </trkpt>
      <trkpt lat="46.81957" lon="5.85894">
        <ele>653.2</ele>
        <time>2022-05-24T14:27:29Z</time>
      </trkpt>
      <trkpt lat="46.81962" lon="5.85894">
        <ele>653.2</ele>
        <time>2022-05-24T14:27:30Z</time>
      </trkpt>
      <trkpt lat="46.81968" lon="5.85894">
        <ele>653.6</ele>
        <time>2022-05-24T14:27:31Z</time>
      </trkpt>
      <trkpt lat="46.81973" lon="5.85893">
        <ele>653.6</ele>
        <time>2022-05-24T14:27:32Z</time>
      </trkpt>
      <trkpt lat="46.81979" lon="5.85892">
        <ele>653.8</ele>
        <time>2022-05-24T14:27:33Z</time>
      </trkpt>
      <trkpt lat="46.81985" lon="5.85891">
        <ele>653.8</ele>
        <time>2022-05-24T14:27:34Z</time>
      </trkpt>
      <trkpt lat="46.81991" lon="5.85891">
        <ele>653.8</ele>
        <time>2022-05-24T14:27:35Z</time>
      </trkpt>
      <trkpt lat="46.81997" lon="5.8589">
        <ele>653.8</ele>
        <time>2022-05-24T14:27:36Z</time>
      </trkpt>
      <trkpt lat="46.82003" lon="5.8589">
        <ele>653.8</ele>
        <time>2022-05-24T14:27:37Z</time>
      </trkpt>
      <trkpt lat="46.82009" lon="5.85889">
        <ele>654</ele>
        <time>2022-05-24T14:27:38Z</time>
      </trkpt>
      <trkpt lat="46.82015" lon="5.85888">
        <ele>654</ele>
        <time>2022-05-24T14:27:39Z</time>
      </trkpt>
      <trkpt lat="46.8202" lon="5.85887">
        <ele>654.2</ele>
        <time>2022-05-24T14:27:40Z</time>
      </trkpt>
      <trkpt lat="46.82026" lon="5.85886">
        <ele>654.2</ele>
        <time>2022-05-24T14:27:41Z</time>
      </trkpt>
      <trkpt lat="46.82032" lon="5.85885">
        <ele>654.2</ele>
        <time>2022-05-24T14:27:42Z</time>
      </trkpt>
      <trkpt lat="46.82038" lon="5.85884">
        <ele>654.2</ele>
        <time>2022-05-24T14:27:43Z</time>
      </trkpt>
      <trkpt lat="46.82044" lon="5.85884">
        <ele>654.2</ele>
        <time>2022-05-24T14:27:44Z</time>
      </trkpt>
      <trkpt lat="46.8205" lon="5.85883">
        <ele>654.2</ele>
        <time>2022-05-24T14:27:45Z</time>
      </trkpt>
      <trkpt lat="46.82056" lon="5.85883">
        <ele>654.2</ele>
        <time>2022-05-24T14:27:46Z</time>
      </trkpt>
      <trkpt lat="46.82062" lon="5.85884">
        <ele>654.2</ele>
        <time>2022-05-24T14:27:47Z</time>
      </trkpt>
      <trkpt lat="46.82067" lon="5.85884">
        <ele>654.2</ele>
        <time>2022-05-24T14:27:48Z</time>
      </trkpt>
      <trkpt lat="46.82073" lon="5.85885">
        <ele>654.6</ele>
        <time>2022-05-24T14:27:49Z</time>
      </trkpt>
      <trkpt lat="46.82079" lon="5.85885">
        <ele>654.6</ele>
        <time>2022-05-24T14:27:50Z</time>
      </trkpt>
      <trkpt lat="46.82085" lon="5.85886">
        <ele>654.6</ele>
        <time>2022-05-24T14:27:51Z</time>
      </trkpt>
      <trkpt lat="46.8209" lon="5.85887">
        <ele>654.8</ele>
        <time>2022-05-24T14:27:52Z</time>
      </trkpt>
      <trkpt lat="46.82096" lon="5.85889">
        <ele>654.8</ele>
        <time>2022-05-24T14:27:53Z</time>
      </trkpt>
      <trkpt lat="46.82102" lon="5.85891">
        <ele>655</ele>
        <time>2022-05-24T14:27:54Z</time>
      </trkpt>
      <trkpt lat="46.82107" lon="5.85892">
        <ele>655</ele>
        <time>2022-05-24T14:27:55Z</time>
      </trkpt>
      <trkpt lat="46.82112" lon="5.85894">
        <ele>655.6</ele>
        <time>2022-05-24T14:27:56Z</time>
      </trkpt>
      <trkpt lat="46.82117" lon="5.85896">
        <ele>655.6</ele>
        <time>2022-05-24T14:27:57Z</time>
      </trkpt>
      <trkpt lat="46.82122" lon="5.85898">
        <ele>655.8</ele>
        <time>2022-05-24T14:27:58Z</time>
      </trkpt>
      <trkpt lat="46.82127" lon="5.85901">
        <ele>656.2</ele>
        <time>2022-05-24T14:27:59Z</time>
      </trkpt>
      <trkpt lat="46.82131" lon="5.85903">
        <ele>656.4</ele>
        <time>2022-05-24T14:28:00Z</time>
      </trkpt>
      <trkpt lat="46.82136" lon="5.85905">
        <ele>656.8</ele>
        <time>2022-05-24T14:28:01Z</time>
      </trkpt>
      <trkpt lat="46.8214" lon="5.85907">
        <ele>657</ele>
        <time>2022-05-24T14:28:02Z</time>
      </trkpt>
      <trkpt lat="46.82145" lon="5.85909">
        <ele>657.2</ele>
        <time>2022-05-24T14:28:03Z</time>
      </trkpt>
      <trkpt lat="46.82149" lon="5.85911">
        <ele>657.2</ele>
        <time>2022-05-24T14:28:04Z</time>
      </trkpt>
      <trkpt lat="46.82153" lon="5.85913">
        <ele>657.6</ele>
        <time>2022-05-24T14:28:05Z</time>
      </trkpt>
      <trkpt lat="46.82157" lon="5.85915">
        <ele>657.6</ele>
        <time>2022-05-24T14:28:06Z</time>
      </trkpt>
      <trkpt lat="46.82162" lon="5.85917">
        <ele>657.8</ele>
        <time>2022-05-24T14:28:07Z</time>
      </trkpt>
      <trkpt lat="46.82166" lon="5.85919">
        <ele>658</ele>
        <time>2022-05-24T14:28:08Z</time>
      </trkpt>
      <trkpt lat="46.82171" lon="5.85921">
        <ele>658</ele>
        <time>2022-05-24T14:28:09Z</time>
      </trkpt>
      <trkpt lat="46.82176" lon="5.85923">
        <ele>658</ele>
        <time>2022-05-24T14:28:10Z</time>
      </trkpt>
      <trkpt lat="46.82181" lon="5.85925">
        <ele>658.2</ele>
        <time>2022-05-24T14:28:11Z</time>
      </trkpt>
      <trkpt lat="46.82186" lon="5.85928">
        <ele>658.2</ele>
        <time>2022-05-24T14:28:12Z</time>
      </trkpt>
      <trkpt lat="46.82191" lon="5.8593">
        <ele>658.2</ele>
        <time>2022-05-24T14:28:13Z</time>
      </trkpt>
      <trkpt lat="46.82197" lon="5.85932">
        <ele>658.2</ele>
        <time>2022-05-24T14:28:14Z</time>
      </trkpt>
      <trkpt lat="46.82202" lon="5.85935">
        <ele>658.6</ele>
        <time>2022-05-24T14:28:15Z</time>
      </trkpt>
      <trkpt lat="46.82208" lon="5.85937">
        <ele>658.6</ele>
        <time>2022-05-24T14:28:16Z</time>
      </trkpt>
      <trkpt lat="46.82213" lon="5.85939">
        <ele>658.2</ele>
        <time>2022-05-24T14:28:17Z</time>
      </trkpt>
      <trkpt lat="46.82219" lon="5.85942">
        <ele>658.2</ele>
        <time>2022-05-24T14:28:18Z</time>
      </trkpt>
      <trkpt lat="46.82225" lon="5.85944">
        <ele>658.2</ele>
        <time>2022-05-24T14:28:19Z</time>
      </trkpt>
      <trkpt lat="46.82231" lon="5.85946">
        <ele>658.2</ele>
        <time>2022-05-24T14:28:20Z</time>
      </trkpt>
      <trkpt lat="46.82236" lon="5.85949">
        <ele>658.2</ele>
        <time>2022-05-24T14:28:21Z</time>
      </trkpt>
      <trkpt lat="46.82242" lon="5.85951">
        <ele>658</ele>
        <time>2022-05-24T14:28:22Z</time>
      </trkpt>
      <trkpt lat="46.82248" lon="5.85954">
        <ele>658</ele>
        <time>2022-05-24T14:28:23Z</time>
      </trkpt>
      <trkpt lat="46.82254" lon="5.85957">
        <ele>658</ele>
        <time>2022-05-24T14:28:24Z</time>
      </trkpt>
      <trkpt lat="46.82259" lon="5.8596">
        <ele>658</ele>
        <time>2022-05-24T14:28:25Z</time>
      </trkpt>
      <trkpt lat="46.82265" lon="5.85963">
        <ele>658</ele>
        <time>2022-05-24T14:28:26Z</time>
      </trkpt>
      <trkpt lat="46.8227" lon="5.85966">
        <ele>658</ele>
        <time>2022-05-24T14:28:27Z</time>
      </trkpt>
      <trkpt lat="46.82276" lon="5.85969">
        <ele>658.4</ele>
        <time>2022-05-24T14:28:28Z</time>
      </trkpt>
      <trkpt lat="46.82281" lon="5.85972">
        <ele>658.6</ele>
        <time>2022-05-24T14:28:29Z</time>
      </trkpt>
      <trkpt lat="46.82286" lon="5.85976">
        <ele>658.6</ele>
        <time>2022-05-24T14:28:30Z</time>
      </trkpt>
      <trkpt lat="46.82291" lon="5.85979">
        <ele>659</ele>
        <time>2022-05-24T14:28:31Z</time>
      </trkpt>
      <trkpt lat="46.82296" lon="5.85983">
        <ele>659</ele>
        <time>2022-05-24T14:28:32Z</time>
      </trkpt>
      <trkpt lat="46.823" lon="5.85987">
        <ele>659.4</ele>
        <time>2022-05-24T14:28:33Z</time>
      </trkpt>
      <trkpt lat="46.82305" lon="5.85992">
        <ele>659.6</ele>
        <time>2022-05-24T14:28:34Z</time>
      </trkpt>
      <trkpt lat="46.82309" lon="5.85997">
        <ele>659.6</ele>
        <time>2022-05-24T14:28:35Z</time>
      </trkpt>
      <trkpt lat="46.82313" lon="5.86002">
        <ele>660</ele>
        <time>2022-05-24T14:28:36Z</time>
      </trkpt>
      <trkpt lat="46.82317" lon="5.86007">
        <ele>660</ele>
        <time>2022-05-24T14:28:37Z</time>
      </trkpt>
      <trkpt lat="46.8232" lon="5.86012">
        <ele>660.2</ele>
        <time>2022-05-24T14:28:38Z</time>
      </trkpt>
      <trkpt lat="46.82324" lon="5.86017">
        <ele>660.2</ele>
        <time>2022-05-24T14:28:39Z</time>
      </trkpt>
      <trkpt lat="46.82328" lon="5.86022">
        <ele>660.6</ele>
        <time>2022-05-24T14:28:40Z</time>
      </trkpt>
      <trkpt lat="46.82331" lon="5.86028">
        <ele>660.6</ele>
        <time>2022-05-24T14:28:41Z</time>
      </trkpt>
      <trkpt lat="46.82334" lon="5.86033">
        <ele>661</ele>
        <time>2022-05-24T14:28:42Z</time>
      </trkpt>
      <trkpt lat="46.82338" lon="5.86039">
        <ele>661.2</ele>
        <time>2022-05-24T14:28:43Z</time>
      </trkpt>
      <trkpt lat="46.82341" lon="5.86045">
        <ele>661.4</ele>
        <time>2022-05-24T14:28:44Z</time>
      </trkpt>
      <trkpt lat="46.82344" lon="5.8605">
        <ele>661.6</ele>
        <time>2022-05-24T14:28:45Z</time>
      </trkpt>
      <trkpt lat="46.82347" lon="5.86056">
        <ele>661.8</ele>
        <time>2022-05-24T14:28:46Z</time>
      </trkpt>
      <trkpt lat="46.8235" lon="5.86061">
        <ele>661.8</ele>
        <time>2022-05-24T14:28:47Z</time>
      </trkpt>
      <trkpt lat="46.82353" lon="5.86066">
        <ele>662.2</ele>
        <time>2022-05-24T14:28:48Z</time>
      </trkpt>
      <trkpt lat="46.82356" lon="5.8607">
        <ele>662.2</ele>
        <time>2022-05-24T14:28:49Z</time>
      </trkpt>
      <trkpt lat="46.82358" lon="5.86075">
        <ele>662.6</ele>
        <time>2022-05-24T14:28:50Z</time>
      </trkpt>
      <trkpt lat="46.82361" lon="5.86079">
        <ele>662.6</ele>
        <time>2022-05-24T14:28:51Z</time>
      </trkpt>
      <trkpt lat="46.82364" lon="5.86083">
        <ele>662.8</ele>
        <time>2022-05-24T14:28:52Z</time>
      </trkpt>
      <trkpt lat="46.82367" lon="5.86087">
        <ele>663</ele>
        <time>2022-05-24T14:28:53Z</time>
      </trkpt>
      <trkpt lat="46.8237" lon="5.86091">
        <ele>663</ele>
        <time>2022-05-24T14:28:54Z</time>
      </trkpt>
      <trkpt lat="46.82373" lon="5.86095">
        <ele>663.2</ele>
        <time>2022-05-24T14:28:55Z</time>
      </trkpt>
      <trkpt lat="46.82376" lon="5.861">
        <ele>663.2</ele>
        <time>2022-05-24T14:28:56Z</time>
      </trkpt>
      <trkpt lat="46.82379" lon="5.86105">
        <ele>663.2</ele>
        <time>2022-05-24T14:28:57Z</time>
      </trkpt>
      <trkpt lat="46.82383" lon="5.86111">
        <ele>663.2</ele>
        <time>2022-05-24T14:28:58Z</time>
      </trkpt>
      <trkpt lat="46.82386" lon="5.86117">
        <ele>663.2</ele>
        <time>2022-05-24T14:28:59Z</time>
      </trkpt>
      <trkpt lat="46.8239" lon="5.86124">
        <ele>663.2</ele>
        <time>2022-05-24T14:29:00Z</time>
      </trkpt>
      <trkpt lat="46.82394" lon="5.8613">
        <ele>663</ele>
        <time>2022-05-24T14:29:01Z</time>
      </trkpt>
      <trkpt lat="46.82399" lon="5.86137">
        <ele>663</ele>
        <time>2022-05-24T14:29:02Z</time>
      </trkpt>
      <trkpt lat="46.82403" lon="5.86143">
        <ele>662.8</ele>
        <time>2022-05-24T14:29:03Z</time>
      </trkpt>
      <trkpt lat="46.82407" lon="5.86149">
        <ele>662.8</ele>
        <time>2022-05-24T14:29:04Z</time>
      </trkpt>
      <trkpt lat="46.82412" lon="5.86155">
        <ele>662.6</ele>
        <time>2022-05-24T14:29:05Z</time>
      </trkpt>
      <trkpt lat="46.82417" lon="5.8616">
        <ele>662.6</ele>
        <time>2022-05-24T14:29:06Z</time>
      </trkpt>
      <trkpt lat="46.82422" lon="5.86165">
        <ele>662.4</ele>
        <time>2022-05-24T14:29:07Z</time>
      </trkpt>
      <trkpt lat="46.82427" lon="5.86169">
        <ele>662.4</ele>
        <time>2022-05-24T14:29:08Z</time>
      </trkpt>
      <trkpt lat="46.82433" lon="5.86173">
        <ele>662.2</ele>
        <time>2022-05-24T14:29:09Z</time>
      </trkpt>
      <trkpt lat="46.82438" lon="5.86178">
        <ele>662.2</ele>
        <time>2022-05-24T14:29:10Z</time>
      </trkpt>
      <trkpt lat="46.82443" lon="5.86183">
        <ele>662.2</ele>
        <time>2022-05-24T14:29:11Z</time>
      </trkpt>
      <trkpt lat="46.82448" lon="5.86188">
        <ele>661.8</ele>
        <time>2022-05-24T14:29:12Z</time>
      </trkpt>
      <trkpt lat="46.82453" lon="5.86194">
        <ele>661.8</ele>
        <time>2022-05-24T14:29:13Z</time>
      </trkpt>
      <trkpt lat="46.82459" lon="5.862">
        <ele>661.4</ele>
        <time>2022-05-24T14:29:14Z</time>
      </trkpt>
      <trkpt lat="46.82465" lon="5.86206">
        <ele>661</ele>
        <time>2022-05-24T14:29:15Z</time>
      </trkpt>
      <trkpt lat="46.8247" lon="5.86212">
        <ele>661</ele>
        <time>2022-05-24T14:29:16Z</time>
      </trkpt>
      <trkpt lat="46.82476" lon="5.86218">
        <ele>660.8</ele>
        <time>2022-05-24T14:29:17Z</time>
      </trkpt>
      <trkpt lat="46.82482" lon="5.86225">
        <ele>660.4</ele>
        <time>2022-05-24T14:29:18Z</time>
      </trkpt>
      <trkpt lat="46.82489" lon="5.86232">
        <ele>660.2</ele>
        <time>2022-05-24T14:29:19Z</time>
      </trkpt>
      <trkpt lat="46.82495" lon="5.86239">
        <ele>659.8</ele>
        <time>2022-05-24T14:29:20Z</time>
      </trkpt>
      <trkpt lat="46.82501" lon="5.86246">
        <ele>659.6</ele>
        <time>2022-05-24T14:29:21Z</time>
      </trkpt>
      <trkpt lat="46.82507" lon="5.86254">
        <ele>659.6</ele>
        <time>2022-05-24T14:29:22Z</time>
      </trkpt>
      <trkpt lat="46.82511" lon="5.86262">
        <ele>659.6</ele>
        <time>2022-05-24T14:29:23Z</time>
      </trkpt>
      <trkpt lat="46.82515" lon="5.8627">
        <ele>659.4</ele>
        <time>2022-05-24T14:29:24Z</time>
      </trkpt>
      <trkpt lat="46.82519" lon="5.86278">
        <ele>659.4</ele>
        <time>2022-05-24T14:29:25Z</time>
      </trkpt>
      <trkpt lat="46.82522" lon="5.86285">
        <ele>659.2</ele>
        <time>2022-05-24T14:29:26Z</time>
      </trkpt>
      <trkpt lat="46.82526" lon="5.8629">
        <ele>658.6</ele>
        <time>2022-05-24T14:29:27Z</time>
      </trkpt>
      <trkpt lat="46.8253" lon="5.86294">
        <ele>658.4</ele>
        <time>2022-05-24T14:29:28Z</time>
      </trkpt>
      <trkpt lat="46.82535" lon="5.86296">
        <ele>658.4</ele>
        <time>2022-05-24T14:29:29Z</time>
      </trkpt>
      <trkpt lat="46.8254" lon="5.86296">
        <ele>658</ele>
        <time>2022-05-24T14:29:30Z</time>
      </trkpt>
      <trkpt lat="46.82546" lon="5.86294">
        <ele>657.8</ele>
        <time>2022-05-24T14:29:31Z</time>
      </trkpt>
      <trkpt lat="46.82553" lon="5.86292">
        <ele>657.6</ele>
        <time>2022-05-24T14:29:32Z</time>
      </trkpt>
      <trkpt lat="46.8256" lon="5.86289">
        <ele>657.2</ele>
        <time>2022-05-24T14:29:33Z</time>
      </trkpt>
      <trkpt lat="46.82568" lon="5.86287">
        <ele>656.8</ele>
        <time>2022-05-24T14:29:34Z</time>
      </trkpt>
      <trkpt lat="46.82575" lon="5.86285">
        <ele>656.4</ele>
        <time>2022-05-24T14:29:35Z</time>
      </trkpt>
      <trkpt lat="46.82582" lon="5.86284">
        <ele>655.8</ele>
        <time>2022-05-24T14:29:36Z</time>
      </trkpt>
      <trkpt lat="46.82589" lon="5.86283">
        <ele>655.4</ele>
        <time>2022-05-24T14:29:37Z</time>
      </trkpt>
      <trkpt lat="46.82596" lon="5.8628">
        <ele>655</ele>
        <time>2022-05-24T14:29:38Z</time>
      </trkpt>
      <trkpt lat="46.82603" lon="5.86276">
        <ele>654.6</ele>
        <time>2022-05-24T14:29:39Z</time>
      </trkpt>
      <trkpt lat="46.82609" lon="5.8627">
        <ele>654</ele>
        <time>2022-05-24T14:29:40Z</time>
      </trkpt>
      <trkpt lat="46.82616" lon="5.86265">
        <ele>653.4</ele>
        <time>2022-05-24T14:29:41Z</time>
      </trkpt>
      <trkpt lat="46.82625" lon="5.86261">
        <ele>652.8</ele>
        <time>2022-05-24T14:29:42Z</time>
      </trkpt>
      <trkpt lat="46.82634" lon="5.86257">
        <ele>652.2</ele>
        <time>2022-05-24T14:29:43Z</time>
      </trkpt>
      <trkpt lat="46.82643" lon="5.86253">
        <ele>651.6</ele>
        <time>2022-05-24T14:29:44Z</time>
      </trkpt>
      <trkpt lat="46.82652" lon="5.8625">
        <ele>651</ele>
        <time>2022-05-24T14:29:45Z</time>
      </trkpt>
      <trkpt lat="46.82662" lon="5.86247">
        <ele>650.4</ele>
        <time>2022-05-24T14:29:46Z</time>
      </trkpt>
      <trkpt lat="46.82672" lon="5.86246">
        <ele>649.6</ele>
        <time>2022-05-24T14:29:47Z</time>
      </trkpt>
      <trkpt lat="46.82682" lon="5.86248">
        <ele>648.6</ele>
        <time>2022-05-24T14:29:48Z</time>
      </trkpt>
      <trkpt lat="46.82691" lon="5.86252">
        <ele>647.8</ele>
        <time>2022-05-24T14:29:49Z</time>
      </trkpt>
      <trkpt lat="46.827" lon="5.86259">
        <ele>647</ele>
        <time>2022-05-24T14:29:50Z</time>
      </trkpt>
      <trkpt lat="46.82708" lon="5.86267">
        <ele>646.6</ele>
        <time>2022-05-24T14:29:51Z</time>
      </trkpt>
      <trkpt lat="46.82715" lon="5.86276">
        <ele>646.4</ele>
        <time>2022-05-24T14:29:52Z</time>
      </trkpt>
      <trkpt lat="46.82722" lon="5.86284">
        <ele>646.4</ele>
        <time>2022-05-24T14:29:53Z</time>
      </trkpt>
      <trkpt lat="46.8273" lon="5.86292">
        <ele>646.4</ele>
        <time>2022-05-24T14:29:54Z</time>
      </trkpt>
      <trkpt lat="46.82738" lon="5.86298">
        <ele>646.4</ele>
        <time>2022-05-24T14:29:55Z</time>
      </trkpt>
      <trkpt lat="46.82738" lon="5.86298">
        <ele>646.4</ele>
        <time>2022-05-24T14:29:56Z</time>
      </trkpt>
      <trkpt lat="46.82745" lon="5.86303">
        <ele>646.4</ele>
        <time>2022-05-24T14:29:57Z</time>
      </trkpt>
      <trkpt lat="46.82753" lon="5.86307">
        <ele>646.6</ele>
        <time>2022-05-24T14:29:58Z</time>
      </trkpt>
      <trkpt lat="46.8276" lon="5.86311">
        <ele>646.6</ele>
        <time>2022-05-24T14:29:59Z</time>
      </trkpt>
      <trkpt lat="46.82767" lon="5.86314">
        <ele>647</ele>
        <time>2022-05-24T14:30:00Z</time>
      </trkpt>
      <trkpt lat="46.82774" lon="5.86317">
        <ele>647</ele>
        <time>2022-05-24T14:30:01Z</time>
      </trkpt>
      <trkpt lat="46.82781" lon="5.86319">
        <ele>647</ele>
        <time>2022-05-24T14:30:02Z</time>
      </trkpt>
      <trkpt lat="46.82787" lon="5.86321">
        <ele>647</ele>
        <time>2022-05-24T14:30:03Z</time>
      </trkpt>
      <trkpt lat="46.82793" lon="5.86323">
        <ele>647.2</ele>
        <time>2022-05-24T14:30:04Z</time>
      </trkpt>
      <trkpt lat="46.82799" lon="5.86325">
        <ele>647.2</ele>
        <time>2022-05-24T14:30:05Z</time>
      </trkpt>
      <trkpt lat="46.82805" lon="5.86327">
        <ele>647.2</ele>
        <time>2022-05-24T14:30:06Z</time>
      </trkpt>
      <trkpt lat="46.82812" lon="5.86329">
        <ele>647.2</ele>
        <time>2022-05-24T14:30:07Z</time>
      </trkpt>
      <trkpt lat="46.82819" lon="5.86331">
        <ele>647.2</ele>
        <time>2022-05-24T14:30:08Z</time>
      </trkpt>
      <trkpt lat="46.82826" lon="5.86333">
        <ele>647.2</ele>
        <time>2022-05-24T14:30:09Z</time>
      </trkpt>
      <trkpt lat="46.82833" lon="5.86336">
        <ele>646.8</ele>
        <time>2022-05-24T14:30:10Z</time>
      </trkpt>
      <trkpt lat="46.82841" lon="5.8634">
        <ele>646.4</ele>
        <time>2022-05-24T14:30:11Z</time>
      </trkpt>
      <trkpt lat="46.82848" lon="5.86344">
        <ele>646</ele>
        <time>2022-05-24T14:30:12Z</time>
      </trkpt>
      <trkpt lat="46.82856" lon="5.86348">
        <ele>645.8</ele>
        <time>2022-05-24T14:30:13Z</time>
      </trkpt>
      <trkpt lat="46.82864" lon="5.86352">
        <ele>645.8</ele>
        <time>2022-05-24T14:30:14Z</time>
      </trkpt>
      <trkpt lat="46.82871" lon="5.86356">
        <ele>645.4</ele>
        <time>2022-05-24T14:30:15Z</time>
      </trkpt>
      <trkpt lat="46.82879" lon="5.86359">
        <ele>645.4</ele>
        <time>2022-05-24T14:30:16Z</time>
      </trkpt>
      <trkpt lat="46.82887" lon="5.86362">
        <ele>645.2</ele>
        <time>2022-05-24T14:30:17Z</time>
      </trkpt>
      <trkpt lat="46.82895" lon="5.86364">
        <ele>645.2</ele>
        <time>2022-05-24T14:30:18Z</time>
      </trkpt>
      <trkpt lat="46.82903" lon="5.86365">
        <ele>645.6</ele>
        <time>2022-05-24T14:30:19Z</time>
      </trkpt>
      <trkpt lat="46.8291" lon="5.86365">
        <ele>645.8</ele>
        <time>2022-05-24T14:30:20Z</time>
      </trkpt>
      <trkpt lat="46.82917" lon="5.86365">
        <ele>646</ele>
        <time>2022-05-24T14:30:21Z</time>
      </trkpt>
      <trkpt lat="46.82924" lon="5.86365">
        <ele>646.2</ele>
        <time>2022-05-24T14:30:22Z</time>
      </trkpt>
      <trkpt lat="46.8293" lon="5.86365">
        <ele>646.6</ele>
        <time>2022-05-24T14:30:23Z</time>
      </trkpt>
      <trkpt lat="46.82936" lon="5.86364">
        <ele>646.8</ele>
        <time>2022-05-24T14:30:24Z</time>
      </trkpt>
      <trkpt lat="46.82941" lon="5.86363">
        <ele>647.2</ele>
        <time>2022-05-24T14:30:25Z</time>
      </trkpt>
      <trkpt lat="46.82946" lon="5.86362">
        <ele>647.4</ele>
        <time>2022-05-24T14:30:26Z</time>
      </trkpt>
      <trkpt lat="46.82951" lon="5.86361">
        <ele>647.6</ele>
        <time>2022-05-24T14:30:27Z</time>
      </trkpt>
      <trkpt lat="46.82955" lon="5.86361">
        <ele>648</ele>
        <time>2022-05-24T14:30:28Z</time>
      </trkpt>
      <trkpt lat="46.8296" lon="5.8636">
        <ele>648.2</ele>
        <time>2022-05-24T14:30:29Z</time>
      </trkpt>
      <trkpt lat="46.82965" lon="5.86359">
        <ele>648.2</ele>
        <time>2022-05-24T14:30:30Z</time>
      </trkpt>
      <trkpt lat="46.8297" lon="5.86358">
        <ele>648.6</ele>
        <time>2022-05-24T14:30:31Z</time>
      </trkpt>
      <trkpt lat="46.82975" lon="5.86357">
        <ele>648.8</ele>
        <time>2022-05-24T14:30:32Z</time>
      </trkpt>
      <trkpt lat="46.82981" lon="5.86356">
        <ele>649</ele>
        <time>2022-05-24T14:30:33Z</time>
      </trkpt>
      <trkpt lat="46.82986" lon="5.86353">
        <ele>649.4</ele>
        <time>2022-05-24T14:30:34Z</time>
      </trkpt>
      <trkpt lat="46.8299" lon="5.8635">
        <ele>649.6</ele>
        <time>2022-05-24T14:30:35Z</time>
      </trkpt>
      <trkpt lat="46.82994" lon="5.86347">
        <ele>650</ele>
        <time>2022-05-24T14:30:36Z</time>
      </trkpt>
      <trkpt lat="46.82997" lon="5.86343">
        <ele>650.4</ele>
        <time>2022-05-24T14:30:37Z</time>
      </trkpt>
      <trkpt lat="46.83" lon="5.86339">
        <ele>650.6</ele>
        <time>2022-05-24T14:30:38Z</time>
      </trkpt>
      <trkpt lat="46.83003" lon="5.86334">
        <ele>651</ele>
        <time>2022-05-24T14:30:39Z</time>
      </trkpt>
      <trkpt lat="46.83005" lon="5.8633">
        <ele>651.4</ele>
        <time>2022-05-24T14:30:40Z</time>
      </trkpt>
      <trkpt lat="46.83007" lon="5.86325">
        <ele>651.6</ele>
        <time>2022-05-24T14:30:41Z</time>
      </trkpt>
      <trkpt lat="46.83008" lon="5.86321">
        <ele>652</ele>
        <time>2022-05-24T14:30:42Z</time>
      </trkpt>
      <trkpt lat="46.83009" lon="5.86317">
        <ele>652</ele>
        <time>2022-05-24T14:30:43Z</time>
      </trkpt>
      <trkpt lat="46.83009" lon="5.86313">
        <ele>652</ele>
        <time>2022-05-24T14:30:44Z</time>
      </trkpt>
      <trkpt lat="46.8301" lon="5.86308">
        <ele>652.2</ele>
        <time>2022-05-24T14:30:45Z</time>
      </trkpt>
      <trkpt lat="46.8301" lon="5.86304">
        <ele>652.4</ele>
        <time>2022-05-24T14:30:46Z</time>
      </trkpt>
      <trkpt lat="46.83009" lon="5.863">
        <ele>652.8</ele>
        <time>2022-05-24T14:30:47Z</time>
      </trkpt>
      <trkpt lat="46.83008" lon="5.86296">
        <ele>653</ele>
        <time>2022-05-24T14:30:48Z</time>
      </trkpt>
      <trkpt lat="46.83007" lon="5.86292">
        <ele>653</ele>
        <time>2022-05-24T14:30:49Z</time>
      </trkpt>
      <trkpt lat="46.83005" lon="5.86288">
        <ele>653.4</ele>
        <time>2022-05-24T14:30:50Z</time>
      </trkpt>
      <trkpt lat="46.83004" lon="5.86285">
        <ele>653.4</ele>
        <time>2022-05-24T14:30:51Z</time>
      </trkpt>
      <trkpt lat="46.83002" lon="5.86282">
        <ele>653.6</ele>
        <time>2022-05-24T14:30:52Z</time>
      </trkpt>
      <trkpt lat="46.83" lon="5.86279">
        <ele>653.6</ele>
        <time>2022-05-24T14:30:53Z</time>
      </trkpt>
      <trkpt lat="46.82997" lon="5.86276">
        <ele>654</ele>
        <time>2022-05-24T14:30:54Z</time>
      </trkpt>
      <trkpt lat="46.82995" lon="5.86272">
        <ele>654</ele>
        <time>2022-05-24T14:30:55Z</time>
      </trkpt>
      <trkpt lat="46.82993" lon="5.86269">
        <ele>654.4</ele>
        <time>2022-05-24T14:30:56Z</time>
      </trkpt>
      <trkpt lat="46.82991" lon="5.86266">
        <ele>654.6</ele>
        <time>2022-05-24T14:30:57Z</time>
      </trkpt>
      <trkpt lat="46.82989" lon="5.86263">
        <ele>654.8</ele>
        <time>2022-05-24T14:30:58Z</time>
      </trkpt>
      <trkpt lat="46.82987" lon="5.8626">
        <ele>654.8</ele>
        <time>2022-05-24T14:30:59Z</time>
      </trkpt>
      <trkpt lat="46.82985" lon="5.86257">
        <ele>655.2</ele>
        <time>2022-05-24T14:31:00Z</time>
      </trkpt>
      <trkpt lat="46.82983" lon="5.86255">
        <ele>655.4</ele>
        <time>2022-05-24T14:31:01Z</time>
      </trkpt>
      <trkpt lat="46.82981" lon="5.86252">
        <ele>655.6</ele>
        <time>2022-05-24T14:31:02Z</time>
      </trkpt>
      <trkpt lat="46.82979" lon="5.86249">
        <ele>656</ele>
        <time>2022-05-24T14:31:03Z</time>
      </trkpt>
      <trkpt lat="46.82976" lon="5.86246">
        <ele>656.2</ele>
        <time>2022-05-24T14:31:04Z</time>
      </trkpt>
      <trkpt lat="46.82974" lon="5.86243">
        <ele>656.6</ele>
        <time>2022-05-24T14:31:05Z</time>
      </trkpt>
      <trkpt lat="46.82973" lon="5.86241">
        <ele>656.8</ele>
        <time>2022-05-24T14:31:06Z</time>
      </trkpt>
      <trkpt lat="46.82971" lon="5.86238">
        <ele>657</ele>
        <time>2022-05-24T14:31:07Z</time>
      </trkpt>
      <trkpt lat="46.8297" lon="5.86235">
        <ele>657.4</ele>
        <time>2022-05-24T14:31:08Z</time>
      </trkpt>
      <trkpt lat="46.82968" lon="5.86233">
        <ele>657.4</ele>
        <time>2022-05-24T14:31:09Z</time>
      </trkpt>
      <trkpt lat="46.82965" lon="5.8623">
        <ele>657.6</ele>
        <time>2022-05-24T14:31:10Z</time>
      </trkpt>
      <trkpt lat="46.82963" lon="5.86227">
        <ele>657.6</ele>
        <time>2022-05-24T14:31:11Z</time>
      </trkpt>
      <trkpt lat="46.82961" lon="5.86224">
        <ele>658</ele>
        <time>2022-05-24T14:31:12Z</time>
      </trkpt>
      <trkpt lat="46.8296" lon="5.86222">
        <ele>658.2</ele>
        <time>2022-05-24T14:31:13Z</time>
      </trkpt>
      <trkpt lat="46.82958" lon="5.86219">
        <ele>658.2</ele>
        <time>2022-05-24T14:31:14Z</time>
      </trkpt>
      <trkpt lat="46.82956" lon="5.86216">
        <ele>658.6</ele>
        <time>2022-05-24T14:31:15Z</time>
      </trkpt>
      <trkpt lat="46.82954" lon="5.86213">
        <ele>658.6</ele>
        <time>2022-05-24T14:31:16Z</time>
      </trkpt>
      <trkpt lat="46.82951" lon="5.8621">
        <ele>659</ele>
        <time>2022-05-24T14:31:17Z</time>
      </trkpt>
      <trkpt lat="46.82949" lon="5.86207">
        <ele>659</ele>
        <time>2022-05-24T14:31:18Z</time>
      </trkpt>
      <trkpt lat="46.82947" lon="5.86203">
        <ele>659.4</ele>
        <time>2022-05-24T14:31:19Z</time>
      </trkpt>
      <trkpt lat="46.82945" lon="5.862">
        <ele>659.4</ele>
        <time>2022-05-24T14:31:20Z</time>
      </trkpt>
      <trkpt lat="46.82942" lon="5.86197">
        <ele>659.8</ele>
        <time>2022-05-24T14:31:21Z</time>
      </trkpt>
      <trkpt lat="46.8294" lon="5.86194">
        <ele>659.8</ele>
        <time>2022-05-24T14:31:22Z</time>
      </trkpt>
      <trkpt lat="46.82938" lon="5.86192">
        <ele>660.2</ele>
        <time>2022-05-24T14:31:23Z</time>
      </trkpt>
      <trkpt lat="46.82936" lon="5.86189">
        <ele>660.2</ele>
        <time>2022-05-24T14:31:24Z</time>
      </trkpt>
      <trkpt lat="46.82934" lon="5.86185">
        <ele>660.4</ele>
        <time>2022-05-24T14:31:25Z</time>
      </trkpt>
      <trkpt lat="46.82931" lon="5.86183">
        <ele>660.4</ele>
        <time>2022-05-24T14:31:26Z</time>
      </trkpt>
      <trkpt lat="46.82929" lon="5.8618">
        <ele>660.8</ele>
        <time>2022-05-24T14:31:27Z</time>
      </trkpt>
      <trkpt lat="46.82927" lon="5.86178">
        <ele>660.8</ele>
        <time>2022-05-24T14:31:28Z</time>
      </trkpt>
      <trkpt lat="46.82925" lon="5.86175">
        <ele>661</ele>
        <time>2022-05-24T14:31:29Z</time>
      </trkpt>
      <trkpt lat="46.82923" lon="5.86172">
        <ele>661</ele>
        <time>2022-05-24T14:31:30Z</time>
      </trkpt>
      <trkpt lat="46.82921" lon="5.86169">
        <ele>661.4</ele>
        <time>2022-05-24T14:31:31Z</time>
      </trkpt>
      <trkpt lat="46.82919" lon="5.86166">
        <ele>661.6</ele>
        <time>2022-05-24T14:31:32Z</time>
      </trkpt>
      <trkpt lat="46.82917" lon="5.86164">
        <ele>661.6</ele>
        <time>2022-05-24T14:31:33Z</time>
      </trkpt>
      <trkpt lat="46.82915" lon="5.86161">
        <ele>662</ele>
        <time>2022-05-24T14:31:34Z</time>
      </trkpt>
      <trkpt lat="46.82913" lon="5.86158">
        <ele>662</ele>
        <time>2022-05-24T14:31:35Z</time>
      </trkpt>
      <trkpt lat="46.82911" lon="5.86155">
        <ele>662.2</ele>
        <time>2022-05-24T14:31:36Z</time>
      </trkpt>
      <trkpt lat="46.8291" lon="5.86153">
        <ele>662.2</ele>
        <time>2022-05-24T14:31:37Z</time>
      </trkpt>
      <trkpt lat="46.82908" lon="5.86151">
        <ele>662.6</ele>
        <time>2022-05-24T14:31:38Z</time>
      </trkpt>
      <trkpt lat="46.82906" lon="5.86148">
        <ele>662.8</ele>
        <time>2022-05-24T14:31:39Z</time>
      </trkpt>
      <trkpt lat="46.82904" lon="5.86146">
        <ele>662.8</ele>
        <time>2022-05-24T14:31:40Z</time>
      </trkpt>
      <trkpt lat="46.82902" lon="5.86143">
        <ele>663</ele>
        <time>2022-05-24T14:31:41Z</time>
      </trkpt>
      <trkpt lat="46.829" lon="5.86139">
        <ele>663</ele>
        <time>2022-05-24T14:31:42Z</time>
      </trkpt>
      <trkpt lat="46.82898" lon="5.86136">
        <ele>663.4</ele>
        <time>2022-05-24T14:31:43Z</time>
      </trkpt>
      <trkpt lat="46.82897" lon="5.86132">
        <ele>663.4</ele>
        <time>2022-05-24T14:31:44Z</time>
      </trkpt>
      <trkpt lat="46.82895" lon="5.86129">
        <ele>663.8</ele>
        <time>2022-05-24T14:31:45Z</time>
      </trkpt>
      <trkpt lat="46.82893" lon="5.86126">
        <ele>664</ele>
        <time>2022-05-24T14:31:46Z</time>
      </trkpt>
      <trkpt lat="46.82891" lon="5.86123">
        <ele>664</ele>
        <time>2022-05-24T14:31:47Z</time>
      </trkpt>
      <trkpt lat="46.82889" lon="5.86119">
        <ele>664.4</ele>
        <time>2022-05-24T14:31:48Z</time>
      </trkpt>
      <trkpt lat="46.82887" lon="5.86116">
        <ele>664.4</ele>
        <time>2022-05-24T14:31:49Z</time>
      </trkpt>
      <trkpt lat="46.82885" lon="5.86113">
        <ele>664.8</ele>
        <time>2022-05-24T14:31:50Z</time>
      </trkpt>
      <trkpt lat="46.82883" lon="5.8611">
        <ele>664.8</ele>
        <time>2022-05-24T14:31:51Z</time>
      </trkpt>
      <trkpt lat="46.82882" lon="5.86107">
        <ele>665</ele>
        <time>2022-05-24T14:31:52Z</time>
      </trkpt>
      <trkpt lat="46.82881" lon="5.86104">
        <ele>665</ele>
        <time>2022-05-24T14:31:53Z</time>
      </trkpt>
      <trkpt lat="46.82879" lon="5.86101">
        <ele>665.4</ele>
        <time>2022-05-24T14:31:54Z</time>
      </trkpt>
      <trkpt lat="46.82878" lon="5.86097">
        <ele>665.6</ele>
        <time>2022-05-24T14:31:55Z</time>
      </trkpt>
      <trkpt lat="46.82877" lon="5.86094">
        <ele>665.8</ele>
        <time>2022-05-24T14:31:56Z</time>
      </trkpt>
      <trkpt lat="46.82876" lon="5.8609">
        <ele>666.2</ele>
        <time>2022-05-24T14:31:57Z</time>
      </trkpt>
      <trkpt lat="46.82875" lon="5.86086">
        <ele>666.4</ele>
        <time>2022-05-24T14:31:58Z</time>
      </trkpt>
      <trkpt lat="46.82875" lon="5.86082">
        <ele>666.6</ele>
        <time>2022-05-24T14:31:59Z</time>
      </trkpt>
      <trkpt lat="46.82875" lon="5.86078">
        <ele>666.8</ele>
        <time>2022-05-24T14:32:00Z</time>
      </trkpt>
      <trkpt lat="46.82875" lon="5.86074">
        <ele>667</ele>
        <time>2022-05-24T14:32:01Z</time>
      </trkpt>
      <trkpt lat="46.82875" lon="5.86071">
        <ele>667</ele>
        <time>2022-05-24T14:32:02Z</time>
      </trkpt>
      <trkpt lat="46.82876" lon="5.86068">
        <ele>667.4</ele>
        <time>2022-05-24T14:32:03Z</time>
      </trkpt>
      <trkpt lat="46.82877" lon="5.86066">
        <ele>667.8</ele>
        <time>2022-05-24T14:32:04Z</time>
      </trkpt>
      <trkpt lat="46.82879" lon="5.86064">
        <ele>668</ele>
        <time>2022-05-24T14:32:05Z</time>
      </trkpt>
      <trkpt lat="46.82882" lon="5.86063">
        <ele>668.2</ele>
        <time>2022-05-24T14:32:06Z</time>
      </trkpt>
      <trkpt lat="46.82887" lon="5.8606">
        <ele>668.6</ele>
        <time>2022-05-24T14:32:07Z</time>
      </trkpt>
      <trkpt lat="46.82889" lon="5.86058">
        <ele>668.6</ele>
        <time>2022-05-24T14:32:08Z</time>
      </trkpt>
      <trkpt lat="46.82891" lon="5.86057">
        <ele>669</ele>
        <time>2022-05-24T14:32:09Z</time>
      </trkpt>
      <trkpt lat="46.82893" lon="5.86056">
        <ele>669</ele>
        <time>2022-05-24T14:32:10Z</time>
      </trkpt>
      <trkpt lat="46.82895" lon="5.86055">
        <ele>669.2</ele>
        <time>2022-05-24T14:32:11Z</time>
      </trkpt>
      <trkpt lat="46.82897" lon="5.86052">
        <ele>669.2</ele>
        <time>2022-05-24T14:32:12Z</time>
      </trkpt>
      <trkpt lat="46.82898" lon="5.8605">
        <ele>669.6</ele>
        <time>2022-05-24T14:32:13Z</time>
      </trkpt>
      <trkpt lat="46.829" lon="5.86047">
        <ele>669.8</ele>
        <time>2022-05-24T14:32:14Z</time>
      </trkpt>
      <trkpt lat="46.82901" lon="5.86044">
        <ele>670</ele>
        <time>2022-05-24T14:32:15Z</time>
      </trkpt>
      <trkpt lat="46.82903" lon="5.8604">
        <ele>670.2</ele>
        <time>2022-05-24T14:32:16Z</time>
      </trkpt>
      <trkpt lat="46.82905" lon="5.86037">
        <ele>670.2</ele>
        <time>2022-05-24T14:32:17Z</time>
      </trkpt>
      <trkpt lat="46.82906" lon="5.86033">
        <ele>670.2</ele>
        <time>2022-05-24T14:32:18Z</time>
      </trkpt>
      <trkpt lat="46.82908" lon="5.86029">
        <ele>670.6</ele>
        <time>2022-05-24T14:32:19Z</time>
      </trkpt>
      <trkpt lat="46.8291" lon="5.86025">
        <ele>670.6</ele>
        <time>2022-05-24T14:32:20Z</time>
      </trkpt>
      <trkpt lat="46.82912" lon="5.8602">
        <ele>670.6</ele>
        <time>2022-05-24T14:32:21Z</time>
      </trkpt>
      <trkpt lat="46.82914" lon="5.86015">
        <ele>670.6</ele>
        <time>2022-05-24T14:32:22Z</time>
      </trkpt>
      <trkpt lat="46.82916" lon="5.86011">
        <ele>670.6</ele>
        <time>2022-05-24T14:32:23Z</time>
      </trkpt>
      <trkpt lat="46.82919" lon="5.86006">
        <ele>670.6</ele>
        <time>2022-05-24T14:32:24Z</time>
      </trkpt>
      <trkpt lat="46.82921" lon="5.85999">
        <ele>670.6</ele>
        <time>2022-05-24T14:32:25Z</time>
      </trkpt>
      <trkpt lat="46.82923" lon="5.85992">
        <ele>670.4</ele>
        <time>2022-05-24T14:32:26Z</time>
      </trkpt>
      <trkpt lat="46.82925" lon="5.85982">
        <ele>670</ele>
        <time>2022-05-24T14:32:27Z</time>
      </trkpt>
      <trkpt lat="46.82927" lon="5.85972">
        <ele>669.8</ele>
        <time>2022-05-24T14:32:28Z</time>
      </trkpt>
      <trkpt lat="46.82928" lon="5.85962">
        <ele>669.4</ele>
        <time>2022-05-24T14:32:29Z</time>
      </trkpt>
      <trkpt lat="46.82928" lon="5.85951">
        <ele>669.2</ele>
        <time>2022-05-24T14:32:30Z</time>
      </trkpt>
      <trkpt lat="46.82927" lon="5.8594">
        <ele>669</ele>
        <time>2022-05-24T14:32:31Z</time>
      </trkpt>
      <trkpt lat="46.82924" lon="5.85929">
        <ele>668.6</ele>
        <time>2022-05-24T14:32:32Z</time>
      </trkpt>
      <trkpt lat="46.82922" lon="5.85919">
        <ele>668.6</ele>
        <time>2022-05-24T14:32:33Z</time>
      </trkpt>
      <trkpt lat="46.82919" lon="5.8591">
        <ele>668.2</ele>
        <time>2022-05-24T14:32:34Z</time>
      </trkpt>
      <trkpt lat="46.82915" lon="5.859">
        <ele>668</ele>
        <time>2022-05-24T14:32:35Z</time>
      </trkpt>
      <trkpt lat="46.82912" lon="5.85891">
        <ele>668</ele>
        <time>2022-05-24T14:32:36Z</time>
      </trkpt>
      <trkpt lat="46.8291" lon="5.85881">
        <ele>668</ele>
        <time>2022-05-24T14:32:37Z</time>
      </trkpt>
      <trkpt lat="46.82909" lon="5.85872">
        <ele>668</ele>
        <time>2022-05-24T14:32:38Z</time>
      </trkpt>
      <trkpt lat="46.82909" lon="5.85862">
        <ele>668</ele>
        <time>2022-05-24T14:32:39Z</time>
      </trkpt>
      <trkpt lat="46.82909" lon="5.85853">
        <ele>667.8</ele>
        <time>2022-05-24T14:32:40Z</time>
      </trkpt>
      <trkpt lat="46.8291" lon="5.85844">
        <ele>667.8</ele>
        <time>2022-05-24T14:32:41Z</time>
      </trkpt>
      <trkpt lat="46.82911" lon="5.85836">
        <ele>667.8</ele>
        <time>2022-05-24T14:32:42Z</time>
      </trkpt>
      <trkpt lat="46.82912" lon="5.85828">
        <ele>667.8</ele>
        <time>2022-05-24T14:32:43Z</time>
      </trkpt>
      <trkpt lat="46.82913" lon="5.85822">
        <ele>668</ele>
        <time>2022-05-24T14:32:44Z</time>
      </trkpt>
      <trkpt lat="46.82915" lon="5.85815">
        <ele>668</ele>
        <time>2022-05-24T14:32:45Z</time>
      </trkpt>
      <trkpt lat="46.82916" lon="5.85809">
        <ele>668</ele>
        <time>2022-05-24T14:32:46Z</time>
      </trkpt>
      <trkpt lat="46.82917" lon="5.85802">
        <ele>668.2</ele>
        <time>2022-05-24T14:32:47Z</time>
      </trkpt>
      <trkpt lat="46.82918" lon="5.85796">
        <ele>668.2</ele>
        <time>2022-05-24T14:32:48Z</time>
      </trkpt>
      <trkpt lat="46.82919" lon="5.85788">
        <ele>668.2</ele>
        <time>2022-05-24T14:32:49Z</time>
      </trkpt>
      <trkpt lat="46.8292" lon="5.8578">
        <ele>668.2</ele>
        <time>2022-05-24T14:32:50Z</time>
      </trkpt>
      <trkpt lat="46.82921" lon="5.85772">
        <ele>668.2</ele>
        <time>2022-05-24T14:32:51Z</time>
      </trkpt>
      <trkpt lat="46.82923" lon="5.85763">
        <ele>668.2</ele>
        <time>2022-05-24T14:32:52Z</time>
      </trkpt>
      <trkpt lat="46.82924" lon="5.85753">
        <ele>668</ele>
        <time>2022-05-24T14:32:53Z</time>
      </trkpt>
      <trkpt lat="46.82925" lon="5.85744">
        <ele>668</ele>
        <time>2022-05-24T14:32:54Z</time>
      </trkpt>
      <trkpt lat="46.82927" lon="5.85734">
        <ele>668</ele>
        <time>2022-05-24T14:32:55Z</time>
      </trkpt>
      <trkpt lat="46.82928" lon="5.85723">
        <ele>667.6</ele>
        <time>2022-05-24T14:32:56Z</time>
      </trkpt>
      <trkpt lat="46.82929" lon="5.85713">
        <ele>667.6</ele>
        <time>2022-05-24T14:32:57Z</time>
      </trkpt>
      <trkpt lat="46.82931" lon="5.85703">
        <ele>667.6</ele>
        <time>2022-05-24T14:32:58Z</time>
      </trkpt>
      <trkpt lat="46.82932" lon="5.85692">
        <ele>667.2</ele>
        <time>2022-05-24T14:32:59Z</time>
      </trkpt>
      <trkpt lat="46.82933" lon="5.85682">
        <ele>667.2</ele>
        <time>2022-05-24T14:33:00Z</time>
      </trkpt>
      <trkpt lat="46.82935" lon="5.85671">
        <ele>667</ele>
        <time>2022-05-24T14:33:01Z</time>
      </trkpt>
      <trkpt lat="46.82936" lon="5.85659">
        <ele>666.6</ele>
        <time>2022-05-24T14:33:02Z</time>
      </trkpt>
      <trkpt lat="46.82938" lon="5.85648">
        <ele>666.4</ele>
        <time>2022-05-24T14:33:03Z</time>
      </trkpt>
      <trkpt lat="46.8294" lon="5.85636">
        <ele>666</ele>
        <time>2022-05-24T14:33:04Z</time>
      </trkpt>
      <trkpt lat="46.82942" lon="5.85624">
        <ele>665.6</ele>
        <time>2022-05-24T14:33:05Z</time>
      </trkpt>
      <trkpt lat="46.82944" lon="5.85612">
        <ele>665</ele>
        <time>2022-05-24T14:33:06Z</time>
      </trkpt>
      <trkpt lat="46.82945" lon="5.856">
        <ele>665</ele>
        <time>2022-05-24T14:33:07Z</time>
      </trkpt>
      <trkpt lat="46.82946" lon="5.85588">
        <ele>664.6</ele>
        <time>2022-05-24T14:33:08Z</time>
      </trkpt>
      <trkpt lat="46.82945" lon="5.85576">
        <ele>664.6</ele>
        <time>2022-05-24T14:33:09Z</time>
      </trkpt>
      <trkpt lat="46.82943" lon="5.85565">
        <ele>664.6</ele>
        <time>2022-05-24T14:33:10Z</time>
      </trkpt>
      <trkpt lat="46.8294" lon="5.85555">
        <ele>664.6</ele>
        <time>2022-05-24T14:33:11Z</time>
      </trkpt>
      <trkpt lat="46.82936" lon="5.85546">
        <ele>664.6</ele>
        <time>2022-05-24T14:33:12Z</time>
      </trkpt>
      <trkpt lat="46.82932" lon="5.85538">
        <ele>664.4</ele>
        <time>2022-05-24T14:33:13Z</time>
      </trkpt>
      <trkpt lat="46.82927" lon="5.8553">
        <ele>664.4</ele>
        <time>2022-05-24T14:33:14Z</time>
      </trkpt>
      <trkpt lat="46.82922" lon="5.85523">
        <ele>664.4</ele>
        <time>2022-05-24T14:33:15Z</time>
      </trkpt>
      <trkpt lat="46.82918" lon="5.85516">
        <ele>664</ele>
        <time>2022-05-24T14:33:16Z</time>
      </trkpt>
      <trkpt lat="46.82913" lon="5.85509">
        <ele>664</ele>
        <time>2022-05-24T14:33:17Z</time>
      </trkpt>
      <trkpt lat="46.82908" lon="5.85501">
        <ele>663.6</ele>
        <time>2022-05-24T14:33:18Z</time>
      </trkpt>
      <trkpt lat="46.82904" lon="5.85493">
        <ele>663.4</ele>
        <time>2022-05-24T14:33:19Z</time>
      </trkpt>
      <trkpt lat="46.82899" lon="5.85483">
        <ele>663</ele>
        <time>2022-05-24T14:33:20Z</time>
      </trkpt>
      <trkpt lat="46.82895" lon="5.85473">
        <ele>662.6</ele>
        <time>2022-05-24T14:33:21Z</time>
      </trkpt>
      <trkpt lat="46.82892" lon="5.85462">
        <ele>662.2</ele>
        <time>2022-05-24T14:33:22Z</time>
      </trkpt>
      <trkpt lat="46.82889" lon="5.8545">
        <ele>661.8</ele>
        <time>2022-05-24T14:33:23Z</time>
      </trkpt>
      <trkpt lat="46.82886" lon="5.85438">
        <ele>661.4</ele>
        <time>2022-05-24T14:33:24Z</time>
      </trkpt>
      <trkpt lat="46.82884" lon="5.85425">
        <ele>661</ele>
        <time>2022-05-24T14:33:25Z</time>
      </trkpt>
      <trkpt lat="46.82882" lon="5.85413">
        <ele>660.6</ele>
        <time>2022-05-24T14:33:26Z</time>
      </trkpt>
      <trkpt lat="46.8288" lon="5.85399">
        <ele>660.4</ele>
        <time>2022-05-24T14:33:27Z</time>
      </trkpt>
      <trkpt lat="46.82878" lon="5.85386">
        <ele>660</ele>
        <time>2022-05-24T14:33:28Z</time>
      </trkpt>
      <trkpt lat="46.82876" lon="5.85372">
        <ele>659.4</ele>
        <time>2022-05-24T14:33:29Z</time>
      </trkpt>
      <trkpt lat="46.82873" lon="5.85358">
        <ele>658.8</ele>
        <time>2022-05-24T14:33:30Z</time>
      </trkpt>
      <trkpt lat="46.82868" lon="5.85344">
        <ele>658.4</ele>
        <time>2022-05-24T14:33:31Z</time>
      </trkpt>
      <trkpt lat="46.82862" lon="5.85331">
        <ele>657.8</ele>
        <time>2022-05-24T14:33:32Z</time>
      </trkpt>
      <trkpt lat="46.82856" lon="5.85318">
        <ele>657</ele>
        <time>2022-05-24T14:33:33Z</time>
      </trkpt>
      <trkpt lat="46.82851" lon="5.85305">
        <ele>656.2</ele>
        <time>2022-05-24T14:33:34Z</time>
      </trkpt>
      <trkpt lat="46.82846" lon="5.85291">
        <ele>655.6</ele>
        <time>2022-05-24T14:33:35Z</time>
      </trkpt>
      <trkpt lat="46.82843" lon="5.85276">
        <ele>654.8</ele>
        <time>2022-05-24T14:33:36Z</time>
      </trkpt>
      <trkpt lat="46.8284" lon="5.8526">
        <ele>654</ele>
        <time>2022-05-24T14:33:37Z</time>
      </trkpt>
      <trkpt lat="46.82838" lon="5.85243">
        <ele>653.4</ele>
        <time>2022-05-24T14:33:38Z</time>
      </trkpt>
      <trkpt lat="46.82836" lon="5.85226">
        <ele>652.6</ele>
        <time>2022-05-24T14:33:39Z</time>
      </trkpt>
      <trkpt lat="46.82834" lon="5.85208">
        <ele>652</ele>
        <time>2022-05-24T14:33:40Z</time>
      </trkpt>
      <trkpt lat="46.82832" lon="5.85193">
        <ele>651.2</ele>
        <time>2022-05-24T14:33:41Z</time>
      </trkpt>
      <trkpt lat="46.8283" lon="5.85176">
        <ele>650.4</ele>
        <time>2022-05-24T14:33:42Z</time>
      </trkpt>
      <trkpt lat="46.82826" lon="5.8516">
        <ele>649.6</ele>
        <time>2022-05-24T14:33:43Z</time>
      </trkpt>
      <trkpt lat="46.82823" lon="5.85143">
        <ele>648.8</ele>
        <time>2022-05-24T14:33:44Z</time>
      </trkpt>
      <trkpt lat="46.82821" lon="5.85127">
        <ele>648</ele>
        <time>2022-05-24T14:33:45Z</time>
      </trkpt>
      <trkpt lat="46.82818" lon="5.8511">
        <ele>647</ele>
        <time>2022-05-24T14:33:46Z</time>
      </trkpt>
      <trkpt lat="46.82816" lon="5.85093">
        <ele>646.2</ele>
        <time>2022-05-24T14:33:47Z</time>
      </trkpt>
      <trkpt lat="46.82814" lon="5.85076">
        <ele>645.6</ele>
        <time>2022-05-24T14:33:48Z</time>
      </trkpt>
      <trkpt lat="46.82811" lon="5.85059">
        <ele>645</ele>
        <time>2022-05-24T14:33:49Z</time>
      </trkpt>
      <trkpt lat="46.82809" lon="5.85042">
        <ele>644.4</ele>
        <time>2022-05-24T14:33:50Z</time>
      </trkpt>
      <trkpt lat="46.82807" lon="5.85026">
        <ele>643.6</ele>
        <time>2022-05-24T14:33:51Z</time>
      </trkpt>
      <trkpt lat="46.82805" lon="5.8501">
        <ele>642.6</ele>
        <time>2022-05-24T14:33:52Z</time>
      </trkpt>
      <trkpt lat="46.82805" lon="5.84995">
        <ele>641.8</ele>
        <time>2022-05-24T14:33:53Z</time>
      </trkpt>
      <trkpt lat="46.82806" lon="5.84981">
        <ele>641</ele>
        <time>2022-05-24T14:33:54Z</time>
      </trkpt>
      <trkpt lat="46.8281" lon="5.84968">
        <ele>640.6</ele>
        <time>2022-05-24T14:33:55Z</time>
      </trkpt>
      <trkpt lat="46.82816" lon="5.84958">
        <ele>640.2</ele>
        <time>2022-05-24T14:33:56Z</time>
      </trkpt>
      <trkpt lat="46.82816" lon="5.84958">
        <ele>639.6</ele>
        <time>2022-05-24T14:33:57Z</time>
      </trkpt>
      <trkpt lat="46.82823" lon="5.84949">
        <ele>638.8</ele>
        <time>2022-05-24T14:33:58Z</time>
      </trkpt>
      <trkpt lat="46.82831" lon="5.84939">
        <ele>638.2</ele>
        <time>2022-05-24T14:33:59Z</time>
      </trkpt>
      <trkpt lat="46.82839" lon="5.84929">
        <ele>637.6</ele>
        <time>2022-05-24T14:34:00Z</time>
      </trkpt>
      <trkpt lat="46.82847" lon="5.84918">
        <ele>637</ele>
        <time>2022-05-24T14:34:01Z</time>
      </trkpt>
      <trkpt lat="46.82856" lon="5.84907">
        <ele>636.6</ele>
        <time>2022-05-24T14:34:02Z</time>
      </trkpt>
      <trkpt lat="46.82865" lon="5.84897">
        <ele>636</ele>
        <time>2022-05-24T14:34:03Z</time>
      </trkpt>
      <trkpt lat="46.82871" lon="5.84889">
        <ele>635.4</ele>
        <time>2022-05-24T14:34:04Z</time>
      </trkpt>
      <trkpt lat="46.82879" lon="5.84878">
        <ele>634.8</ele>
        <time>2022-05-24T14:34:05Z</time>
      </trkpt>
      <trkpt lat="46.82888" lon="5.84867">
        <ele>634.2</ele>
        <time>2022-05-24T14:34:06Z</time>
      </trkpt>
      <trkpt lat="46.82896" lon="5.84854">
        <ele>633.6</ele>
        <time>2022-05-24T14:34:07Z</time>
      </trkpt>
      <trkpt lat="46.82903" lon="5.84842">
        <ele>633</ele>
        <time>2022-05-24T14:34:08Z</time>
      </trkpt>
      <trkpt lat="46.82911" lon="5.84829">
        <ele>632.2</ele>
        <time>2022-05-24T14:34:09Z</time>
      </trkpt>
      <trkpt lat="46.82918" lon="5.84815">
        <ele>631.6</ele>
        <time>2022-05-24T14:34:10Z</time>
      </trkpt>
      <trkpt lat="46.82925" lon="5.84802">
        <ele>631</ele>
        <time>2022-05-24T14:34:11Z</time>
      </trkpt>
      <trkpt lat="46.82932" lon="5.84789">
        <ele>630.6</ele>
        <time>2022-05-24T14:34:12Z</time>
      </trkpt>
      <trkpt lat="46.82938" lon="5.84777">
        <ele>630</ele>
        <time>2022-05-24T14:34:13Z</time>
      </trkpt>
      <trkpt lat="46.82945" lon="5.84765">
        <ele>629.4</ele>
        <time>2022-05-24T14:34:14Z</time>
      </trkpt>
      <trkpt lat="46.82951" lon="5.84753">
        <ele>629</ele>
        <time>2022-05-24T14:34:15Z</time>
      </trkpt>
      <trkpt lat="46.82958" lon="5.84741">
        <ele>628.6</ele>
        <time>2022-05-24T14:34:16Z</time>
      </trkpt>
      <trkpt lat="46.82964" lon="5.8473">
        <ele>628</ele>
        <time>2022-05-24T14:34:17Z</time>
      </trkpt>
      <trkpt lat="46.82971" lon="5.8472">
        <ele>628</ele>
        <time>2022-05-24T14:34:18Z</time>
      </trkpt>
      <trkpt lat="46.82977" lon="5.84709">
        <ele>628</ele>
        <time>2022-05-24T14:34:19Z</time>
      </trkpt>
      <trkpt lat="46.82982" lon="5.84698">
        <ele>628</ele>
        <time>2022-05-24T14:34:20Z</time>
      </trkpt>
      <trkpt lat="46.82986" lon="5.84688">
        <ele>628</ele>
        <time>2022-05-24T14:34:21Z</time>
      </trkpt>
      <trkpt lat="46.82991" lon="5.84679">
        <ele>628</ele>
        <time>2022-05-24T14:34:22Z</time>
      </trkpt>
      <trkpt lat="46.82995" lon="5.84669">
        <ele>627.4</ele>
        <time>2022-05-24T14:34:23Z</time>
      </trkpt>
      <trkpt lat="46.83" lon="5.84659">
        <ele>627.2</ele>
        <time>2022-05-24T14:34:24Z</time>
      </trkpt>
      <trkpt lat="46.83003" lon="5.84648">
        <ele>626.6</ele>
        <time>2022-05-24T14:34:25Z</time>
      </trkpt>
      <trkpt lat="46.83007" lon="5.84636">
        <ele>626.4</ele>
        <time>2022-05-24T14:34:26Z</time>
      </trkpt>
      <trkpt lat="46.83011" lon="5.84624">
        <ele>626</ele>
        <time>2022-05-24T14:34:27Z</time>
      </trkpt>
      <trkpt lat="46.83014" lon="5.84611">
        <ele>625.8</ele>
        <time>2022-05-24T14:34:28Z</time>
      </trkpt>
      <trkpt lat="46.83017" lon="5.84599">
        <ele>625.6</ele>
        <time>2022-05-24T14:34:29Z</time>
      </trkpt>
      <trkpt lat="46.83019" lon="5.84587">
        <ele>625.6</ele>
        <time>2022-05-24T14:34:30Z</time>
      </trkpt>
      <trkpt lat="46.83022" lon="5.84575">
        <ele>625.2</ele>
        <time>2022-05-24T14:34:31Z</time>
      </trkpt>
      <trkpt lat="46.83025" lon="5.84562">
        <ele>625.2</ele>
        <time>2022-05-24T14:34:32Z</time>
      </trkpt>
      <trkpt lat="46.83029" lon="5.8455">
        <ele>624.8</ele>
        <time>2022-05-24T14:34:33Z</time>
      </trkpt>
      <trkpt lat="46.83032" lon="5.84538">
        <ele>624.8</ele>
        <time>2022-05-24T14:34:34Z</time>
      </trkpt>
      <trkpt lat="46.83035" lon="5.84527">
        <ele>624.6</ele>
        <time>2022-05-24T14:34:35Z</time>
      </trkpt>
      <trkpt lat="46.83038" lon="5.84515">
        <ele>624.6</ele>
        <time>2022-05-24T14:34:36Z</time>
      </trkpt>
      <trkpt lat="46.83041" lon="5.84504">
        <ele>624.4</ele>
        <time>2022-05-24T14:34:37Z</time>
      </trkpt>
      <trkpt lat="46.83044" lon="5.84493">
        <ele>624.4</ele>
        <time>2022-05-24T14:34:38Z</time>
      </trkpt>
      <trkpt lat="46.83047" lon="5.84483">
        <ele>624.4</ele>
        <time>2022-05-24T14:34:39Z</time>
      </trkpt>
      <trkpt lat="46.8305" lon="5.84472">
        <ele>624</ele>
        <time>2022-05-24T14:34:40Z</time>
      </trkpt>
      <trkpt lat="46.83053" lon="5.84461">
        <ele>624</ele>
        <time>2022-05-24T14:34:41Z</time>
      </trkpt>
      <trkpt lat="46.83056" lon="5.84451">
        <ele>623.6</ele>
        <time>2022-05-24T14:34:42Z</time>
      </trkpt>
      <trkpt lat="46.83059" lon="5.8444">
        <ele>623.4</ele>
        <time>2022-05-24T14:34:43Z</time>
      </trkpt>
      <trkpt lat="46.83062" lon="5.84429">
        <ele>623</ele>
        <time>2022-05-24T14:34:44Z</time>
      </trkpt>
      <trkpt lat="46.83065" lon="5.84417">
        <ele>623</ele>
        <time>2022-05-24T14:34:45Z</time>
      </trkpt>
      <trkpt lat="46.83068" lon="5.84405">
        <ele>622.4</ele>
        <time>2022-05-24T14:34:46Z</time>
      </trkpt>
      <trkpt lat="46.83071" lon="5.84393">
        <ele>622</ele>
        <time>2022-05-24T14:34:47Z</time>
      </trkpt>
      <trkpt lat="46.83074" lon="5.8438">
        <ele>621.6</ele>
        <time>2022-05-24T14:34:48Z</time>
      </trkpt>
      <trkpt lat="46.83077" lon="5.84368">
        <ele>621.4</ele>
        <time>2022-05-24T14:34:49Z</time>
      </trkpt>
      <trkpt lat="46.83081" lon="5.84355">
        <ele>620.8</ele>
        <time>2022-05-24T14:34:50Z</time>
      </trkpt>
      <trkpt lat="46.83084" lon="5.84342">
        <ele>620.4</ele>
        <time>2022-05-24T14:34:51Z</time>
      </trkpt>
      <trkpt lat="46.83087" lon="5.84329">
        <ele>620</ele>
        <time>2022-05-24T14:34:52Z</time>
      </trkpt>
      <trkpt lat="46.8309" lon="5.84314">
        <ele>619.8</ele>
        <time>2022-05-24T14:34:53Z</time>
      </trkpt>
      <trkpt lat="46.83093" lon="5.843">
        <ele>619.6</ele>
        <time>2022-05-24T14:34:54Z</time>
      </trkpt>
      <trkpt lat="46.83096" lon="5.84287">
        <ele>619.6</ele>
        <time>2022-05-24T14:34:55Z</time>
      </trkpt>
      <trkpt lat="46.83099" lon="5.84273">
        <ele>619.2</ele>
        <time>2022-05-24T14:34:56Z</time>
      </trkpt>
      <trkpt lat="46.83103" lon="5.84259">
        <ele>619</ele>
        <time>2022-05-24T14:34:57Z</time>
      </trkpt>
      <trkpt lat="46.83107" lon="5.84246">
        <ele>618.8</ele>
        <time>2022-05-24T14:34:58Z</time>
      </trkpt>
      <trkpt lat="46.8311" lon="5.84232">
        <ele>618.4</ele>
        <time>2022-05-24T14:34:59Z</time>
      </trkpt>
      <trkpt lat="46.83113" lon="5.8422">
        <ele>618.2</ele>
        <time>2022-05-24T14:35:00Z</time>
      </trkpt>
      <trkpt lat="46.83116" lon="5.84207">
        <ele>618</ele>
        <time>2022-05-24T14:35:01Z</time>
      </trkpt>
      <trkpt lat="46.8312" lon="5.84196">
        <ele>617.6</ele>
        <time>2022-05-24T14:35:02Z</time>
      </trkpt>
      <trkpt lat="46.83123" lon="5.84185">
        <ele>617.4</ele>
        <time>2022-05-24T14:35:03Z</time>
      </trkpt>
      <trkpt lat="46.83126" lon="5.84174">
        <ele>617.4</ele>
        <time>2022-05-24T14:35:04Z</time>
      </trkpt>
      <trkpt lat="46.83129" lon="5.84163">
        <ele>617.2</ele>
        <time>2022-05-24T14:35:05Z</time>
      </trkpt>
      <trkpt lat="46.83131" lon="5.84152">
        <ele>617.2</ele>
        <time>2022-05-24T14:35:06Z</time>
      </trkpt>
      <trkpt lat="46.83134" lon="5.84141">
        <ele>617</ele>
        <time>2022-05-24T14:35:07Z</time>
      </trkpt>
      <trkpt lat="46.83136" lon="5.8413">
        <ele>617</ele>
        <time>2022-05-24T14:35:08Z</time>
      </trkpt>
      <trkpt lat="46.83139" lon="5.8412">
        <ele>617</ele>
        <time>2022-05-24T14:35:09Z</time>
      </trkpt>
      <trkpt lat="46.83142" lon="5.84109">
        <ele>617</ele>
        <time>2022-05-24T14:35:10Z</time>
      </trkpt>
      <trkpt lat="46.83145" lon="5.84099">
        <ele>616.8</ele>
        <time>2022-05-24T14:35:11Z</time>
      </trkpt>
      <trkpt lat="46.83147" lon="5.84088">
        <ele>616.8</ele>
        <time>2022-05-24T14:35:12Z</time>
      </trkpt>
      <trkpt lat="46.8315" lon="5.84078">
        <ele>616.8</ele>
        <time>2022-05-24T14:35:13Z</time>
      </trkpt>
      <trkpt lat="46.83153" lon="5.84068">
        <ele>616.8</ele>
        <time>2022-05-24T14:35:14Z</time>
      </trkpt>
      <trkpt lat="46.83155" lon="5.84059">
        <ele>616.8</ele>
        <time>2022-05-24T14:35:15Z</time>
      </trkpt>
      <trkpt lat="46.83156" lon="5.84049">
        <ele>616.8</ele>
        <time>2022-05-24T14:35:16Z</time>
      </trkpt>
      <trkpt lat="46.83158" lon="5.8404">
        <ele>616.8</ele>
        <time>2022-05-24T14:35:17Z</time>
      </trkpt>
      <trkpt lat="46.83159" lon="5.84021">
        <ele>616.8</ele>
        <time>2022-05-24T14:35:18Z</time>
      </trkpt>
      <trkpt lat="46.83158" lon="5.84012">
        <ele>616.8</ele>
        <time>2022-05-24T14:35:19Z</time>
      </trkpt>
      <trkpt lat="46.83157" lon="5.84002">
        <ele>616.8</ele>
        <time>2022-05-24T14:35:20Z</time>
      </trkpt>
      <trkpt lat="46.83156" lon="5.83993">
        <ele>616.8</ele>
        <time>2022-05-24T14:35:21Z</time>
      </trkpt>
      <trkpt lat="46.83154" lon="5.83983">
        <ele>616.2</ele>
        <time>2022-05-24T14:35:22Z</time>
      </trkpt>
      <trkpt lat="46.83153" lon="5.83973">
        <ele>616</ele>
        <time>2022-05-24T14:35:23Z</time>
      </trkpt>
      <trkpt lat="46.83151" lon="5.83962">
        <ele>615.6</ele>
        <time>2022-05-24T14:35:24Z</time>
      </trkpt>
      <trkpt lat="46.8315" lon="5.83951">
        <ele>615.4</ele>
        <time>2022-05-24T14:35:25Z</time>
      </trkpt>
      <trkpt lat="46.83148" lon="5.8394">
        <ele>615.4</ele>
        <time>2022-05-24T14:35:26Z</time>
      </trkpt>
      <trkpt lat="46.83147" lon="5.83928">
        <ele>615.2</ele>
        <time>2022-05-24T14:35:27Z</time>
      </trkpt>
      <trkpt lat="46.83146" lon="5.83917">
        <ele>615.2</ele>
        <time>2022-05-24T14:35:28Z</time>
      </trkpt>
      <trkpt lat="46.83145" lon="5.83905">
        <ele>614.8</ele>
        <time>2022-05-24T14:35:29Z</time>
      </trkpt>
      <trkpt lat="46.83144" lon="5.83894">
        <ele>614.8</ele>
        <time>2022-05-24T14:35:30Z</time>
      </trkpt>
      <trkpt lat="46.83142" lon="5.83882">
        <ele>614.8</ele>
        <time>2022-05-24T14:35:31Z</time>
      </trkpt>
      <trkpt lat="46.8314" lon="5.83871">
        <ele>614.6</ele>
        <time>2022-05-24T14:35:32Z</time>
      </trkpt>
      <trkpt lat="46.83138" lon="5.8386">
        <ele>614.6</ele>
        <time>2022-05-24T14:35:33Z</time>
      </trkpt>
      <trkpt lat="46.83134" lon="5.8385">
        <ele>614.6</ele>
        <time>2022-05-24T14:35:34Z</time>
      </trkpt>
      <trkpt lat="46.8313" lon="5.83839">
        <ele>614.2</ele>
        <time>2022-05-24T14:35:35Z</time>
      </trkpt>
      <trkpt lat="46.83125" lon="5.83828">
        <ele>614</ele>
        <time>2022-05-24T14:35:36Z</time>
      </trkpt>
      <trkpt lat="46.8312" lon="5.83818">
        <ele>614</ele>
        <time>2022-05-24T14:35:37Z</time>
      </trkpt>
      <trkpt lat="46.83115" lon="5.83808">
        <ele>613.4</ele>
        <time>2022-05-24T14:35:38Z</time>
      </trkpt>
      <trkpt lat="46.83109" lon="5.83798">
        <ele>613.2</ele>
        <time>2022-05-24T14:35:39Z</time>
      </trkpt>
      <trkpt lat="46.83103" lon="5.83788">
        <ele>612.8</ele>
        <time>2022-05-24T14:35:40Z</time>
      </trkpt>
      <trkpt lat="46.83097" lon="5.83778">
        <ele>612.4</ele>
        <time>2022-05-24T14:35:41Z</time>
      </trkpt>
      <trkpt lat="46.83091" lon="5.83766">
        <ele>612</ele>
        <time>2022-05-24T14:35:42Z</time>
      </trkpt>
      <trkpt lat="46.83084" lon="5.83755">
        <ele>611.6</ele>
        <time>2022-05-24T14:35:43Z</time>
      </trkpt>
      <trkpt lat="46.83077" lon="5.83743">
        <ele>611.2</ele>
        <time>2022-05-24T14:35:44Z</time>
      </trkpt>
      <trkpt lat="46.83071" lon="5.83732">
        <ele>610.6</ele>
        <time>2022-05-24T14:35:45Z</time>
      </trkpt>
      <trkpt lat="46.83065" lon="5.83721">
        <ele>610.2</ele>
        <time>2022-05-24T14:35:46Z</time>
      </trkpt>
      <trkpt lat="46.83059" lon="5.8371">
        <ele>610.2</ele>
        <time>2022-05-24T14:35:47Z</time>
      </trkpt>
      <trkpt lat="46.83054" lon="5.83699">
        <ele>609.8</ele>
        <time>2022-05-24T14:35:48Z</time>
      </trkpt>
      <trkpt lat="46.83047" lon="5.83688">
        <ele>609.8</ele>
        <time>2022-05-24T14:35:49Z</time>
      </trkpt>
      <trkpt lat="46.83041" lon="5.83677">
        <ele>609.6</ele>
        <time>2022-05-24T14:35:50Z</time>
      </trkpt>
      <trkpt lat="46.83035" lon="5.83667">
        <ele>609.2</ele>
        <time>2022-05-24T14:35:51Z</time>
      </trkpt>
      <trkpt lat="46.83029" lon="5.83656">
        <ele>609</ele>
        <time>2022-05-24T14:35:52Z</time>
      </trkpt>
      <trkpt lat="46.83022" lon="5.83646">
        <ele>608.4</ele>
        <time>2022-05-24T14:35:53Z</time>
      </trkpt>
      <trkpt lat="46.83016" lon="5.83634">
        <ele>608</ele>
        <time>2022-05-24T14:35:54Z</time>
      </trkpt>
      <trkpt lat="46.83009" lon="5.83622">
        <ele>607.6</ele>
        <time>2022-05-24T14:35:55Z</time>
      </trkpt>
      <trkpt lat="46.83003" lon="5.83611">
        <ele>607</ele>
        <time>2022-05-24T14:35:56Z</time>
      </trkpt>
      <trkpt lat="46.82996" lon="5.836">
        <ele>606.6</ele>
        <time>2022-05-24T14:35:57Z</time>
      </trkpt>
      <trkpt lat="46.82989" lon="5.83588">
        <ele>606</ele>
        <time>2022-05-24T14:35:58Z</time>
      </trkpt>
      <trkpt lat="46.82983" lon="5.83577">
        <ele>605.8</ele>
        <time>2022-05-24T14:35:59Z</time>
      </trkpt>
      <trkpt lat="46.82976" lon="5.83565">
        <ele>605.4</ele>
        <time>2022-05-24T14:36:00Z</time>
      </trkpt>
      <trkpt lat="46.8297" lon="5.83554">
        <ele>605</ele>
        <time>2022-05-24T14:36:01Z</time>
      </trkpt>
      <trkpt lat="46.82963" lon="5.83542">
        <ele>604.6</ele>
        <time>2022-05-24T14:36:02Z</time>
      </trkpt>
      <trkpt lat="46.82958" lon="5.83531">
        <ele>604.2</ele>
        <time>2022-05-24T14:36:03Z</time>
      </trkpt>
      <trkpt lat="46.82952" lon="5.8352">
        <ele>604</ele>
        <time>2022-05-24T14:36:04Z</time>
      </trkpt>
      <trkpt lat="46.82946" lon="5.83509">
        <ele>603.4</ele>
        <time>2022-05-24T14:36:05Z</time>
      </trkpt>
      <trkpt lat="46.8294" lon="5.83498">
        <ele>603</ele>
        <time>2022-05-24T14:36:06Z</time>
      </trkpt>
      <trkpt lat="46.82934" lon="5.83487">
        <ele>602.6</ele>
        <time>2022-05-24T14:36:07Z</time>
      </trkpt>
      <trkpt lat="46.82927" lon="5.83477">
        <ele>602.2</ele>
        <time>2022-05-24T14:36:08Z</time>
      </trkpt>
      <trkpt lat="46.82921" lon="5.83468">
        <ele>601.8</ele>
        <time>2022-05-24T14:36:09Z</time>
      </trkpt>
      <trkpt lat="46.82916" lon="5.83458">
        <ele>601.6</ele>
        <time>2022-05-24T14:36:10Z</time>
      </trkpt>
      <trkpt lat="46.8291" lon="5.83448">
        <ele>601.6</ele>
        <time>2022-05-24T14:36:11Z</time>
      </trkpt>
      <trkpt lat="46.82905" lon="5.83438">
        <ele>601</ele>
        <time>2022-05-24T14:36:12Z</time>
      </trkpt>
      <trkpt lat="46.82898" lon="5.83428">
        <ele>601</ele>
        <time>2022-05-24T14:36:13Z</time>
      </trkpt>
      <trkpt lat="46.82892" lon="5.83418">
        <ele>600.6</ele>
        <time>2022-05-24T14:36:14Z</time>
      </trkpt>
      <trkpt lat="46.82886" lon="5.83408">
        <ele>600.4</ele>
        <time>2022-05-24T14:36:15Z</time>
      </trkpt>
      <trkpt lat="46.82881" lon="5.83398">
        <ele>600</ele>
        <time>2022-05-24T14:36:16Z</time>
      </trkpt>
      <trkpt lat="46.82876" lon="5.83388">
        <ele>600</ele>
        <time>2022-05-24T14:36:17Z</time>
      </trkpt>
      <trkpt lat="46.8287" lon="5.83379">
        <ele>600</ele>
        <time>2022-05-24T14:36:18Z</time>
      </trkpt>
      <trkpt lat="46.82865" lon="5.8337">
        <ele>600</ele>
        <time>2022-05-24T14:36:19Z</time>
      </trkpt>
      <trkpt lat="46.8286" lon="5.83361">
        <ele>600</ele>
        <time>2022-05-24T14:36:20Z</time>
      </trkpt>
      <trkpt lat="46.82856" lon="5.83352">
        <ele>600.2</ele>
        <time>2022-05-24T14:36:21Z</time>
      </trkpt>
      <trkpt lat="46.82851" lon="5.83344">
        <ele>600.2</ele>
        <time>2022-05-24T14:36:22Z</time>
      </trkpt>
      <trkpt lat="46.82846" lon="5.83336">
        <ele>600.2</ele>
        <time>2022-05-24T14:36:23Z</time>
      </trkpt>
      <trkpt lat="46.82842" lon="5.83328">
        <ele>600.6</ele>
        <time>2022-05-24T14:36:24Z</time>
      </trkpt>
      <trkpt lat="46.82838" lon="5.8332">
        <ele>600.6</ele>
        <time>2022-05-24T14:36:25Z</time>
      </trkpt>
      <trkpt lat="46.82834" lon="5.83313">
        <ele>600.6</ele>
        <time>2022-05-24T14:36:26Z</time>
      </trkpt>
      <trkpt lat="46.8283" lon="5.83306">
        <ele>600.6</ele>
        <time>2022-05-24T14:36:27Z</time>
      </trkpt>
      <trkpt lat="46.82827" lon="5.83299">
        <ele>600.8</ele>
        <time>2022-05-24T14:36:28Z</time>
      </trkpt>
      <trkpt lat="46.82824" lon="5.83293">
        <ele>600.8</ele>
        <time>2022-05-24T14:36:29Z</time>
      </trkpt>
      <trkpt lat="46.8282" lon="5.83286">
        <ele>601</ele>
        <time>2022-05-24T14:36:30Z</time>
      </trkpt>
      <trkpt lat="46.82817" lon="5.83279">
        <ele>601</ele>
        <time>2022-05-24T14:36:31Z</time>
      </trkpt>
      <trkpt lat="46.82817" lon="5.83279">
        <ele>601</ele>
        <time>2022-05-24T14:36:32Z</time>
      </trkpt>
      <trkpt lat="46.82813" lon="5.83272">
        <ele>601.2</ele>
        <time>2022-05-24T14:36:33Z</time>
      </trkpt>
      <trkpt lat="46.8281" lon="5.83265">
        <ele>601.2</ele>
        <time>2022-05-24T14:36:34Z</time>
      </trkpt>
      <trkpt lat="46.82807" lon="5.83258">
        <ele>601.2</ele>
        <time>2022-05-24T14:36:35Z</time>
      </trkpt>
      <trkpt lat="46.82804" lon="5.83251">
        <ele>601.2</ele>
        <time>2022-05-24T14:36:36Z</time>
      </trkpt>
      <trkpt lat="46.82801" lon="5.83243">
        <ele>601.2</ele>
        <time>2022-05-24T14:36:37Z</time>
      </trkpt>
      <trkpt lat="46.82798" lon="5.83236">
        <ele>601.2</ele>
        <time>2022-05-24T14:36:38Z</time>
      </trkpt>
      <trkpt lat="46.82795" lon="5.83228">
        <ele>601.4</ele>
        <time>2022-05-24T14:36:39Z</time>
      </trkpt>
      <trkpt lat="46.82792" lon="5.8322">
        <ele>601.4</ele>
        <time>2022-05-24T14:36:40Z</time>
      </trkpt>
      <trkpt lat="46.82789" lon="5.83212">
        <ele>601.4</ele>
        <time>2022-05-24T14:36:41Z</time>
      </trkpt>
      <trkpt lat="46.82786" lon="5.83204">
        <ele>601.8</ele>
        <time>2022-05-24T14:36:42Z</time>
      </trkpt>
      <trkpt lat="46.82784" lon="5.83196">
        <ele>601.8</ele>
        <time>2022-05-24T14:36:43Z</time>
      </trkpt>
      <trkpt lat="46.82781" lon="5.83187">
        <ele>601.8</ele>
        <time>2022-05-24T14:36:44Z</time>
      </trkpt>
      <trkpt lat="46.82779" lon="5.83179">
        <ele>601.8</ele>
        <time>2022-05-24T14:36:45Z</time>
      </trkpt>
      <trkpt lat="46.82777" lon="5.8317">
        <ele>601.8</ele>
        <time>2022-05-24T14:36:46Z</time>
      </trkpt>
      <trkpt lat="46.82774" lon="5.8316">
        <ele>601.8</ele>
        <time>2022-05-24T14:36:47Z</time>
      </trkpt>
      <trkpt lat="46.82772" lon="5.83151">
        <ele>601.8</ele>
        <time>2022-05-24T14:36:48Z</time>
      </trkpt>
      <trkpt lat="46.82769" lon="5.83141">
        <ele>601.4</ele>
        <time>2022-05-24T14:36:49Z</time>
      </trkpt>
      <trkpt lat="46.82767" lon="5.83133">
        <ele>601.2</ele>
        <time>2022-05-24T14:36:50Z</time>
      </trkpt>
      <trkpt lat="46.82765" lon="5.83124">
        <ele>600.8</ele>
        <time>2022-05-24T14:36:51Z</time>
      </trkpt>
      <trkpt lat="46.82763" lon="5.83116">
        <ele>600.6</ele>
        <time>2022-05-24T14:36:52Z</time>
      </trkpt>
      <trkpt lat="46.82762" lon="5.83108">
        <ele>600.6</ele>
        <time>2022-05-24T14:36:53Z</time>
      </trkpt>
      <trkpt lat="46.8276" lon="5.83101">
        <ele>600.4</ele>
        <time>2022-05-24T14:36:54Z</time>
      </trkpt>
      <trkpt lat="46.82759" lon="5.83094">
        <ele>600.4</ele>
        <time>2022-05-24T14:36:55Z</time>
      </trkpt>
      <trkpt lat="46.82757" lon="5.83087">
        <ele>600.4</ele>
        <time>2022-05-24T14:36:56Z</time>
      </trkpt>
      <trkpt lat="46.82756" lon="5.83081">
        <ele>600.2</ele>
        <time>2022-05-24T14:36:57Z</time>
      </trkpt>
      <trkpt lat="46.82754" lon="5.83074">
        <ele>600.2</ele>
        <time>2022-05-24T14:36:58Z</time>
      </trkpt>
      <trkpt lat="46.82753" lon="5.83068">
        <ele>600.2</ele>
        <time>2022-05-24T14:36:59Z</time>
      </trkpt>
      <trkpt lat="46.82751" lon="5.83062">
        <ele>600.2</ele>
        <time>2022-05-24T14:37:00Z</time>
      </trkpt>
      <trkpt lat="46.8275" lon="5.83057">
        <ele>600.2</ele>
        <time>2022-05-24T14:37:01Z</time>
      </trkpt>
      <trkpt lat="46.82749" lon="5.83052">
        <ele>600.4</ele>
        <time>2022-05-24T14:37:02Z</time>
      </trkpt>
      <trkpt lat="46.82749" lon="5.83047">
        <ele>600.4</ele>
        <time>2022-05-24T14:37:03Z</time>
      </trkpt>
      <trkpt lat="46.82747" lon="5.83042">
        <ele>600.8</ele>
        <time>2022-05-24T14:37:04Z</time>
      </trkpt>
      <trkpt lat="46.82746" lon="5.83037">
        <ele>600.8</ele>
        <time>2022-05-24T14:37:05Z</time>
      </trkpt>
      <trkpt lat="46.82745" lon="5.83032">
        <ele>600.8</ele>
        <time>2022-05-24T14:37:06Z</time>
      </trkpt>
      <trkpt lat="46.82744" lon="5.83026">
        <ele>600.8</ele>
        <time>2022-05-24T14:37:07Z</time>
      </trkpt>
      <trkpt lat="46.82743" lon="5.83021">
        <ele>600.8</ele>
        <time>2022-05-24T14:37:08Z</time>
      </trkpt>
      <trkpt lat="46.82742" lon="5.83016">
        <ele>601</ele>
        <time>2022-05-24T14:37:09Z</time>
      </trkpt>
      <trkpt lat="46.82741" lon="5.8301">
        <ele>601</ele>
        <time>2022-05-24T14:37:10Z</time>
      </trkpt>
      <trkpt lat="46.82741" lon="5.83005">
        <ele>601</ele>
        <time>2022-05-24T14:37:11Z</time>
      </trkpt>
      <trkpt lat="46.8274" lon="5.83">
        <ele>601.2</ele>
        <time>2022-05-24T14:37:12Z</time>
      </trkpt>
      <trkpt lat="46.82739" lon="5.82995">
        <ele>601.2</ele>
        <time>2022-05-24T14:37:13Z</time>
      </trkpt>
      <trkpt lat="46.82738" lon="5.8299">
        <ele>601.2</ele>
        <time>2022-05-24T14:37:14Z</time>
      </trkpt>
      <trkpt lat="46.82737" lon="5.82985">
        <ele>601.6</ele>
        <time>2022-05-24T14:37:15Z</time>
      </trkpt>
      <trkpt lat="46.82736" lon="5.8298">
        <ele>602</ele>
        <time>2022-05-24T14:37:16Z</time>
      </trkpt>
      <trkpt lat="46.82735" lon="5.82976">
        <ele>602</ele>
        <time>2022-05-24T14:37:17Z</time>
      </trkpt>
      <trkpt lat="46.82732" lon="5.8297">
        <ele>602.4</ele>
        <time>2022-05-24T14:37:18Z</time>
      </trkpt>
      <trkpt lat="46.8273" lon="5.82965">
        <ele>602.4</ele>
        <time>2022-05-24T14:37:19Z</time>
      </trkpt>
      <trkpt lat="46.82728" lon="5.82959">
        <ele>602.6</ele>
        <time>2022-05-24T14:37:20Z</time>
      </trkpt>
      <trkpt lat="46.82726" lon="5.82953">
        <ele>602.6</ele>
        <time>2022-05-24T14:37:21Z</time>
      </trkpt>
      <trkpt lat="46.82725" lon="5.82947">
        <ele>602.6</ele>
        <time>2022-05-24T14:37:22Z</time>
      </trkpt>
      <trkpt lat="46.82724" lon="5.82941">
        <ele>603</ele>
        <time>2022-05-24T14:37:23Z</time>
      </trkpt>
      <trkpt lat="46.82722" lon="5.82935">
        <ele>603</ele>
        <time>2022-05-24T14:37:24Z</time>
      </trkpt>
      <trkpt lat="46.82721" lon="5.82929">
        <ele>603.2</ele>
        <time>2022-05-24T14:37:25Z</time>
      </trkpt>
      <trkpt lat="46.82719" lon="5.82922">
        <ele>603.2</ele>
        <time>2022-05-24T14:37:26Z</time>
      </trkpt>
      <trkpt lat="46.82718" lon="5.82917">
        <ele>603.2</ele>
        <time>2022-05-24T14:37:27Z</time>
      </trkpt>
      <trkpt lat="46.82717" lon="5.82911">
        <ele>603.4</ele>
        <time>2022-05-24T14:37:28Z</time>
      </trkpt>
      <trkpt lat="46.82716" lon="5.82905">
        <ele>603.4</ele>
        <time>2022-05-24T14:37:29Z</time>
      </trkpt>
      <trkpt lat="46.82715" lon="5.82899">
        <ele>603.4</ele>
        <time>2022-05-24T14:37:30Z</time>
      </trkpt>
      <trkpt lat="46.82713" lon="5.82892">
        <ele>603.4</ele>
        <time>2022-05-24T14:37:31Z</time>
      </trkpt>
      <trkpt lat="46.82712" lon="5.82885">
        <ele>603.2</ele>
        <time>2022-05-24T14:37:32Z</time>
      </trkpt>
      <trkpt lat="46.8271" lon="5.82877">
        <ele>603.2</ele>
        <time>2022-05-24T14:37:33Z</time>
      </trkpt>
      <trkpt lat="46.82709" lon="5.82868">
        <ele>603</ele>
        <time>2022-05-24T14:37:34Z</time>
      </trkpt>
      <trkpt lat="46.82707" lon="5.82859">
        <ele>603</ele>
        <time>2022-05-24T14:37:35Z</time>
      </trkpt>
      <trkpt lat="46.82705" lon="5.82848">
        <ele>602.4</ele>
        <time>2022-05-24T14:37:36Z</time>
      </trkpt>
      <trkpt lat="46.82702" lon="5.82837">
        <ele>602.2</ele>
        <time>2022-05-24T14:37:37Z</time>
      </trkpt>
      <trkpt lat="46.82699" lon="5.82825">
        <ele>602.2</ele>
        <time>2022-05-24T14:37:38Z</time>
      </trkpt>
      <trkpt lat="46.82697" lon="5.82814">
        <ele>601.8</ele>
        <time>2022-05-24T14:37:39Z</time>
      </trkpt>
      <trkpt lat="46.82694" lon="5.82803">
        <ele>601.6</ele>
        <time>2022-05-24T14:37:40Z</time>
      </trkpt>
      <trkpt lat="46.82691" lon="5.82791">
        <ele>601.4</ele>
        <time>2022-05-24T14:37:41Z</time>
      </trkpt>
      <trkpt lat="46.82688" lon="5.82779">
        <ele>601.4</ele>
        <time>2022-05-24T14:37:42Z</time>
      </trkpt>
      <trkpt lat="46.82685" lon="5.82767">
        <ele>600.8</ele>
        <time>2022-05-24T14:37:43Z</time>
      </trkpt>
      <trkpt lat="46.82682" lon="5.82755">
        <ele>600.6</ele>
        <time>2022-05-24T14:37:44Z</time>
      </trkpt>
      <trkpt lat="46.82679" lon="5.82742">
        <ele>600.2</ele>
        <time>2022-05-24T14:37:45Z</time>
      </trkpt>
      <trkpt lat="46.82676" lon="5.8273">
        <ele>600</ele>
        <time>2022-05-24T14:37:46Z</time>
      </trkpt>
      <trkpt lat="46.82673" lon="5.82718">
        <ele>599.6</ele>
        <time>2022-05-24T14:37:47Z</time>
      </trkpt>
      <trkpt lat="46.8267" lon="5.82706">
        <ele>599</ele>
        <time>2022-05-24T14:37:48Z</time>
      </trkpt>
      <trkpt lat="46.82667" lon="5.82693">
        <ele>598.6</ele>
        <time>2022-05-24T14:37:49Z</time>
      </trkpt>
      <trkpt lat="46.82665" lon="5.82681">
        <ele>598.2</ele>
        <time>2022-05-24T14:37:50Z</time>
      </trkpt>
      <trkpt lat="46.82662" lon="5.82667">
        <ele>597.8</ele>
        <time>2022-05-24T14:37:51Z</time>
      </trkpt>
      <trkpt lat="46.82659" lon="5.82654">
        <ele>597.4</ele>
        <time>2022-05-24T14:37:52Z</time>
      </trkpt>
      <trkpt lat="46.82655" lon="5.8264">
        <ele>596.8</ele>
        <time>2022-05-24T14:37:53Z</time>
      </trkpt>
      <trkpt lat="46.82652" lon="5.82626">
        <ele>596.4</ele>
        <time>2022-05-24T14:37:54Z</time>
      </trkpt>
      <trkpt lat="46.82648" lon="5.82612">
        <ele>595.8</ele>
        <time>2022-05-24T14:37:55Z</time>
      </trkpt>
      <trkpt lat="46.82645" lon="5.82597">
        <ele>595.2</ele>
        <time>2022-05-24T14:37:56Z</time>
      </trkpt>
      <trkpt lat="46.82642" lon="5.82582">
        <ele>594.6</ele>
        <time>2022-05-24T14:37:57Z</time>
      </trkpt>
      <trkpt lat="46.82639" lon="5.82567">
        <ele>594</ele>
        <time>2022-05-24T14:37:58Z</time>
      </trkpt>
      <trkpt lat="46.82635" lon="5.82553">
        <ele>593.4</ele>
        <time>2022-05-24T14:37:59Z</time>
      </trkpt>
      <trkpt lat="46.82632" lon="5.82538">
        <ele>593</ele>
        <time>2022-05-24T14:38:00Z</time>
      </trkpt>
      <trkpt lat="46.8263" lon="5.82524">
        <ele>592.6</ele>
        <time>2022-05-24T14:38:01Z</time>
      </trkpt>
      <trkpt lat="46.82626" lon="5.8251">
        <ele>592</ele>
        <time>2022-05-24T14:38:02Z</time>
      </trkpt>
      <trkpt lat="46.82623" lon="5.82495">
        <ele>591.8</ele>
        <time>2022-05-24T14:38:03Z</time>
      </trkpt>
      <trkpt lat="46.82621" lon="5.82481">
        <ele>591.4</ele>
        <time>2022-05-24T14:38:04Z</time>
      </trkpt>
      <trkpt lat="46.82619" lon="5.82467">
        <ele>590.8</ele>
        <time>2022-05-24T14:38:05Z</time>
      </trkpt>
      <trkpt lat="46.82617" lon="5.82453">
        <ele>590.6</ele>
        <time>2022-05-24T14:38:06Z</time>
      </trkpt>
      <trkpt lat="46.82615" lon="5.82439">
        <ele>590.2</ele>
        <time>2022-05-24T14:38:07Z</time>
      </trkpt>
      <trkpt lat="46.82613" lon="5.82426">
        <ele>590.2</ele>
        <time>2022-05-24T14:38:08Z</time>
      </trkpt>
      <trkpt lat="46.82612" lon="5.82413">
        <ele>590</ele>
        <time>2022-05-24T14:38:09Z</time>
      </trkpt>
      <trkpt lat="46.82611" lon="5.824">
        <ele>590</ele>
        <time>2022-05-24T14:38:10Z</time>
      </trkpt>
      <trkpt lat="46.82609" lon="5.82387">
        <ele>589.6</ele>
        <time>2022-05-24T14:38:11Z</time>
      </trkpt>
      <trkpt lat="46.82608" lon="5.82375">
        <ele>589.2</ele>
        <time>2022-05-24T14:38:12Z</time>
      </trkpt>
      <trkpt lat="46.82607" lon="5.82362">
        <ele>589</ele>
        <time>2022-05-24T14:38:13Z</time>
      </trkpt>
      <trkpt lat="46.82606" lon="5.82349">
        <ele>588.6</ele>
        <time>2022-05-24T14:38:14Z</time>
      </trkpt>
      <trkpt lat="46.82605" lon="5.82337">
        <ele>588.4</ele>
        <time>2022-05-24T14:38:15Z</time>
      </trkpt>
      <trkpt lat="46.82603" lon="5.82312">
        <ele>588.2</ele>
        <time>2022-05-24T14:38:16Z</time>
      </trkpt>
      <trkpt lat="46.82601" lon="5.82299">
        <ele>588</ele>
        <time>2022-05-24T14:38:17Z</time>
      </trkpt>
      <trkpt lat="46.826" lon="5.82287">
        <ele>587.6</ele>
        <time>2022-05-24T14:38:18Z</time>
      </trkpt>
      <trkpt lat="46.82599" lon="5.82276">
        <ele>587.6</ele>
        <time>2022-05-24T14:38:19Z</time>
      </trkpt>
      <trkpt lat="46.82598" lon="5.82264">
        <ele>587.2</ele>
        <time>2022-05-24T14:38:20Z</time>
      </trkpt>
      <trkpt lat="46.82596" lon="5.82253">
        <ele>587</ele>
        <time>2022-05-24T14:38:21Z</time>
      </trkpt>
      <trkpt lat="46.82595" lon="5.82243">
        <ele>586.8</ele>
        <time>2022-05-24T14:38:22Z</time>
      </trkpt>
      <trkpt lat="46.82594" lon="5.82233">
        <ele>586.4</ele>
        <time>2022-05-24T14:38:23Z</time>
      </trkpt>
      <trkpt lat="46.82592" lon="5.82223">
        <ele>586.2</ele>
        <time>2022-05-24T14:38:24Z</time>
      </trkpt>
      <trkpt lat="46.82591" lon="5.82214">
        <ele>585.8</ele>
        <time>2022-05-24T14:38:25Z</time>
      </trkpt>
      <trkpt lat="46.82589" lon="5.82205">
        <ele>585.8</ele>
        <time>2022-05-24T14:38:26Z</time>
      </trkpt>
      <trkpt lat="46.82587" lon="5.82197">
        <ele>585.2</ele>
        <time>2022-05-24T14:38:27Z</time>
      </trkpt>
      <trkpt lat="46.82585" lon="5.82189">
        <ele>585</ele>
        <time>2022-05-24T14:38:28Z</time>
      </trkpt>
      <trkpt lat="46.82583" lon="5.82182">
        <ele>584.4</ele>
        <time>2022-05-24T14:38:29Z</time>
      </trkpt>
      <trkpt lat="46.8258" lon="5.82174">
        <ele>584.2</ele>
        <time>2022-05-24T14:38:30Z</time>
      </trkpt>
      <trkpt lat="46.82578" lon="5.82166">
        <ele>583.8</ele>
        <time>2022-05-24T14:38:31Z</time>
      </trkpt>
      <trkpt lat="46.82575" lon="5.82158">
        <ele>583.6</ele>
        <time>2022-05-24T14:38:32Z</time>
      </trkpt>
      <trkpt lat="46.82571" lon="5.82149">
        <ele>583.2</ele>
        <time>2022-05-24T14:38:33Z</time>
      </trkpt>
      <trkpt lat="46.82568" lon="5.82141">
        <ele>583</ele>
        <time>2022-05-24T14:38:34Z</time>
      </trkpt>
      <trkpt lat="46.82565" lon="5.82132">
        <ele>582.6</ele>
        <time>2022-05-24T14:38:35Z</time>
      </trkpt>
      <trkpt lat="46.82561" lon="5.82123">
        <ele>582.2</ele>
        <time>2022-05-24T14:38:36Z</time>
      </trkpt>
      <trkpt lat="46.82558" lon="5.82114">
        <ele>582</ele>
        <time>2022-05-24T14:38:37Z</time>
      </trkpt>
      <trkpt lat="46.82554" lon="5.82105">
        <ele>581.6</ele>
        <time>2022-05-24T14:38:38Z</time>
      </trkpt>
      <trkpt lat="46.82551" lon="5.82096">
        <ele>581.4</ele>
        <time>2022-05-24T14:38:39Z</time>
      </trkpt>
      <trkpt lat="46.82547" lon="5.82086">
        <ele>581</ele>
        <time>2022-05-24T14:38:40Z</time>
      </trkpt>
      <trkpt lat="46.82543" lon="5.82077">
        <ele>580.8</ele>
        <time>2022-05-24T14:38:41Z</time>
      </trkpt>
      <trkpt lat="46.8254" lon="5.82068">
        <ele>580.4</ele>
        <time>2022-05-24T14:38:42Z</time>
      </trkpt>
      <trkpt lat="46.82536" lon="5.82058">
        <ele>580</ele>
        <time>2022-05-24T14:38:43Z</time>
      </trkpt>
      <trkpt lat="46.82532" lon="5.82049">
        <ele>580</ele>
        <time>2022-05-24T14:38:44Z</time>
      </trkpt>
      <trkpt lat="46.82529" lon="5.82039">
        <ele>579.8</ele>
        <time>2022-05-24T14:38:45Z</time>
      </trkpt>
      <trkpt lat="46.82525" lon="5.8203">
        <ele>579.8</ele>
        <time>2022-05-24T14:38:46Z</time>
      </trkpt>
      <trkpt lat="46.82522" lon="5.82021">
        <ele>579.8</ele>
        <time>2022-05-24T14:38:47Z</time>
      </trkpt>
      <trkpt lat="46.82518" lon="5.82012">
        <ele>579.6</ele>
        <time>2022-05-24T14:38:48Z</time>
      </trkpt>
      <trkpt lat="46.82514" lon="5.82002">
        <ele>579.2</ele>
        <time>2022-05-24T14:38:49Z</time>
      </trkpt>
      <trkpt lat="46.82511" lon="5.81993">
        <ele>579</ele>
        <time>2022-05-24T14:38:50Z</time>
      </trkpt>
      <trkpt lat="46.82507" lon="5.81984">
        <ele>579</ele>
        <time>2022-05-24T14:38:51Z</time>
      </trkpt>
      <trkpt lat="46.82504" lon="5.81974">
        <ele>578.8</ele>
        <time>2022-05-24T14:38:52Z</time>
      </trkpt>
      <trkpt lat="46.825" lon="5.81965">
        <ele>578.6</ele>
        <time>2022-05-24T14:38:53Z</time>
      </trkpt>
      <trkpt lat="46.82497" lon="5.81956">
        <ele>578.6</ele>
        <time>2022-05-24T14:38:54Z</time>
      </trkpt>
      <trkpt lat="46.82493" lon="5.81947">
        <ele>578.2</ele>
        <time>2022-05-24T14:38:55Z</time>
      </trkpt>
      <trkpt lat="46.8249" lon="5.81938">
        <ele>578.2</ele>
        <time>2022-05-24T14:38:56Z</time>
      </trkpt>
      <trkpt lat="46.82486" lon="5.81929">
        <ele>578.2</ele>
        <time>2022-05-24T14:38:57Z</time>
      </trkpt>
      <trkpt lat="46.82483" lon="5.8192">
        <ele>578</ele>
        <time>2022-05-24T14:38:58Z</time>
      </trkpt>
      <trkpt lat="46.82479" lon="5.8191">
        <ele>578</ele>
        <time>2022-05-24T14:38:59Z</time>
      </trkpt>
      <trkpt lat="46.82475" lon="5.81901">
        <ele>577.8</ele>
        <time>2022-05-24T14:39:00Z</time>
      </trkpt>
      <trkpt lat="46.82471" lon="5.81891">
        <ele>577.8</ele>
        <time>2022-05-24T14:39:01Z</time>
      </trkpt>
      <trkpt lat="46.82467" lon="5.81881">
        <ele>577.4</ele>
        <time>2022-05-24T14:39:02Z</time>
      </trkpt>
      <trkpt lat="46.82464" lon="5.81871">
        <ele>577</ele>
        <time>2022-05-24T14:39:03Z</time>
      </trkpt>
      <trkpt lat="46.8246" lon="5.81861">
        <ele>577</ele>
        <time>2022-05-24T14:39:04Z</time>
      </trkpt>
      <trkpt lat="46.82456" lon="5.81852">
        <ele>576.6</ele>
        <time>2022-05-24T14:39:05Z</time>
      </trkpt>
      <trkpt lat="46.82452" lon="5.81842">
        <ele>576.2</ele>
        <time>2022-05-24T14:39:06Z</time>
      </trkpt>
      <trkpt lat="46.82448" lon="5.81832">
        <ele>576</ele>
        <time>2022-05-24T14:39:07Z</time>
      </trkpt>
      <trkpt lat="46.82445" lon="5.81822">
        <ele>576</ele>
        <time>2022-05-24T14:39:08Z</time>
      </trkpt>
      <trkpt lat="46.82441" lon="5.81812">
        <ele>576</ele>
        <time>2022-05-24T14:39:09Z</time>
      </trkpt>
      <trkpt lat="46.82438" lon="5.81802">
        <ele>576</ele>
        <time>2022-05-24T14:39:10Z</time>
      </trkpt>
      <trkpt lat="46.82436" lon="5.81792">
        <ele>576</ele>
        <time>2022-05-24T14:39:11Z</time>
      </trkpt>
      <trkpt lat="46.82433" lon="5.81781">
        <ele>576</ele>
        <time>2022-05-24T14:39:12Z</time>
      </trkpt>
      <trkpt lat="46.82431" lon="5.8177">
        <ele>576</ele>
        <time>2022-05-24T14:39:13Z</time>
      </trkpt>
      <trkpt lat="46.82428" lon="5.81759">
        <ele>576</ele>
        <time>2022-05-24T14:39:14Z</time>
      </trkpt>
      <trkpt lat="46.82425" lon="5.81748">
        <ele>575.4</ele>
        <time>2022-05-24T14:39:15Z</time>
      </trkpt>
      <trkpt lat="46.82422" lon="5.81737">
        <ele>575.2</ele>
        <time>2022-05-24T14:39:16Z</time>
      </trkpt>
      <trkpt lat="46.8242" lon="5.81725">
        <ele>575</ele>
        <time>2022-05-24T14:39:17Z</time>
      </trkpt>
      <trkpt lat="46.82418" lon="5.81714">
        <ele>574.6</ele>
        <time>2022-05-24T14:39:18Z</time>
      </trkpt>
      <trkpt lat="46.82416" lon="5.81703">
        <ele>574.6</ele>
        <time>2022-05-24T14:39:19Z</time>
      </trkpt>
      <trkpt lat="46.82416" lon="5.81703">
        <ele>574.6</ele>
        <time>2022-05-24T14:39:20Z</time>
      </trkpt>
      <trkpt lat="46.82414" lon="5.81691">
        <ele>574.6</ele>
        <time>2022-05-24T14:39:21Z</time>
      </trkpt>
      <trkpt lat="46.82413" lon="5.8168">
        <ele>574.4</ele>
        <time>2022-05-24T14:39:22Z</time>
      </trkpt>
      <trkpt lat="46.82412" lon="5.81669">
        <ele>574.4</ele>
        <time>2022-05-24T14:39:23Z</time>
      </trkpt>
      <trkpt lat="46.82411" lon="5.81657">
        <ele>574.4</ele>
        <time>2022-05-24T14:39:24Z</time>
      </trkpt>
      <trkpt lat="46.82411" lon="5.81646">
        <ele>574.2</ele>
        <time>2022-05-24T14:39:25Z</time>
      </trkpt>
      <trkpt lat="46.82411" lon="5.81635">
        <ele>574.2</ele>
        <time>2022-05-24T14:39:26Z</time>
      </trkpt>
      <trkpt lat="46.82412" lon="5.81624">
        <ele>574</ele>
        <time>2022-05-24T14:39:27Z</time>
      </trkpt>
      <trkpt lat="46.82412" lon="5.81613">
        <ele>574</ele>
        <time>2022-05-24T14:39:28Z</time>
      </trkpt>
      <trkpt lat="46.82413" lon="5.81602">
        <ele>574</ele>
        <time>2022-05-24T14:39:29Z</time>
      </trkpt>
      <trkpt lat="46.82413" lon="5.81591">
        <ele>574</ele>
        <time>2022-05-24T14:39:30Z</time>
      </trkpt>
      <trkpt lat="46.82413" lon="5.81581">
        <ele>574</ele>
        <time>2022-05-24T14:39:31Z</time>
      </trkpt>
      <trkpt lat="46.82414" lon="5.81571">
        <ele>573.8</ele>
        <time>2022-05-24T14:39:32Z</time>
      </trkpt>
      <trkpt lat="46.82414" lon="5.81561">
        <ele>573.8</ele>
        <time>2022-05-24T14:39:33Z</time>
      </trkpt>
      <trkpt lat="46.82414" lon="5.81552">
        <ele>573.8</ele>
        <time>2022-05-24T14:39:34Z</time>
      </trkpt>
      <trkpt lat="46.82415" lon="5.81542">
        <ele>573.8</ele>
        <time>2022-05-24T14:39:35Z</time>
      </trkpt>
      <trkpt lat="46.82415" lon="5.81532">
        <ele>573.8</ele>
        <time>2022-05-24T14:39:36Z</time>
      </trkpt>
      <trkpt lat="46.82415" lon="5.81522">
        <ele>573.8</ele>
        <time>2022-05-24T14:39:37Z</time>
      </trkpt>
      <trkpt lat="46.82416" lon="5.81512">
        <ele>573.8</ele>
        <time>2022-05-24T14:39:38Z</time>
      </trkpt>
      <trkpt lat="46.82416" lon="5.81503">
        <ele>573.8</ele>
        <time>2022-05-24T14:39:39Z</time>
      </trkpt>
      <trkpt lat="46.82417" lon="5.81493">
        <ele>573.8</ele>
        <time>2022-05-24T14:39:40Z</time>
      </trkpt>
      <trkpt lat="46.82417" lon="5.81484">
        <ele>573.8</ele>
        <time>2022-05-24T14:39:41Z</time>
      </trkpt>
      <trkpt lat="46.82417" lon="5.81474">
        <ele>573.8</ele>
        <time>2022-05-24T14:39:42Z</time>
      </trkpt>
      <trkpt lat="46.82418" lon="5.81465">
        <ele>573.4</ele>
        <time>2022-05-24T14:39:43Z</time>
      </trkpt>
      <trkpt lat="46.82418" lon="5.81456">
        <ele>573.4</ele>
        <time>2022-05-24T14:39:44Z</time>
      </trkpt>
      <trkpt lat="46.82419" lon="5.81447">
        <ele>573.4</ele>
        <time>2022-05-24T14:39:45Z</time>
      </trkpt>
      <trkpt lat="46.82419" lon="5.81437">
        <ele>573.4</ele>
        <time>2022-05-24T14:39:46Z</time>
      </trkpt>
      <trkpt lat="46.82419" lon="5.81428">
        <ele>573.4</ele>
        <time>2022-05-24T14:39:47Z</time>
      </trkpt>
      <trkpt lat="46.8242" lon="5.81418">
        <ele>573.4</ele>
        <time>2022-05-24T14:39:48Z</time>
      </trkpt>
      <trkpt lat="46.8242" lon="5.81408">
        <ele>573.4</ele>
        <time>2022-05-24T14:39:49Z</time>
      </trkpt>
      <trkpt lat="46.82421" lon="5.81398">
        <ele>573.2</ele>
        <time>2022-05-24T14:39:50Z</time>
      </trkpt>
      <trkpt lat="46.82421" lon="5.81388">
        <ele>573.2</ele>
        <time>2022-05-24T14:39:51Z</time>
      </trkpt>
      <trkpt lat="46.82421" lon="5.81378">
        <ele>573.2</ele>
        <time>2022-05-24T14:39:52Z</time>
      </trkpt>
      <trkpt lat="46.82422" lon="5.81367">
        <ele>572.8</ele>
        <time>2022-05-24T14:39:53Z</time>
      </trkpt>
      <trkpt lat="46.82422" lon="5.81357">
        <ele>572.8</ele>
        <time>2022-05-24T14:39:54Z</time>
      </trkpt>
      <trkpt lat="46.82422" lon="5.81347">
        <ele>572.8</ele>
        <time>2022-05-24T14:39:55Z</time>
      </trkpt>
      <trkpt lat="46.82422" lon="5.81337">
        <ele>572.8</ele>
        <time>2022-05-24T14:39:56Z</time>
      </trkpt>
      <trkpt lat="46.82422" lon="5.81327">
        <ele>572.8</ele>
        <time>2022-05-24T14:39:57Z</time>
      </trkpt>
      <trkpt lat="46.82422" lon="5.81317">
        <ele>572.8</ele>
        <time>2022-05-24T14:39:58Z</time>
      </trkpt>
      <trkpt lat="46.82422" lon="5.81307">
        <ele>572.8</ele>
        <time>2022-05-24T14:39:59Z</time>
      </trkpt>
      <trkpt lat="46.82422" lon="5.81298">
        <ele>572.6</ele>
        <time>2022-05-24T14:40:00Z</time>
      </trkpt>
      <trkpt lat="46.82421" lon="5.81288">
        <ele>572.6</ele>
        <time>2022-05-24T14:40:01Z</time>
      </trkpt>
      <trkpt lat="46.82421" lon="5.81278">
        <ele>572.6</ele>
        <time>2022-05-24T14:40:02Z</time>
      </trkpt>
      <trkpt lat="46.82421" lon="5.81269">
        <ele>572.8</ele>
        <time>2022-05-24T14:40:03Z</time>
      </trkpt>
      <trkpt lat="46.8242" lon="5.8126">
        <ele>572.8</ele>
        <time>2022-05-24T14:40:04Z</time>
      </trkpt>
      <trkpt lat="46.82418" lon="5.8125">
        <ele>573</ele>
        <time>2022-05-24T14:40:05Z</time>
      </trkpt>
      <trkpt lat="46.82417" lon="5.81241">
        <ele>573</ele>
        <time>2022-05-24T14:40:06Z</time>
      </trkpt>
      <trkpt lat="46.82415" lon="5.81232">
        <ele>573</ele>
        <time>2022-05-24T14:40:07Z</time>
      </trkpt>
      <trkpt lat="46.82414" lon="5.81224">
        <ele>573</ele>
        <time>2022-05-24T14:40:08Z</time>
      </trkpt>
      <trkpt lat="46.82412" lon="5.81215">
        <ele>573</ele>
        <time>2022-05-24T14:40:09Z</time>
      </trkpt>
      <trkpt lat="46.82411" lon="5.81207">
        <ele>573.2</ele>
        <time>2022-05-24T14:40:10Z</time>
      </trkpt>
      <trkpt lat="46.8241" lon="5.81199">
        <ele>573.2</ele>
        <time>2022-05-24T14:40:11Z</time>
      </trkpt>
      <trkpt lat="46.8241" lon="5.81191">
        <ele>573.6</ele>
        <time>2022-05-24T14:40:12Z</time>
      </trkpt>
      <trkpt lat="46.8241" lon="5.81183">
        <ele>573.8</ele>
        <time>2022-05-24T14:40:13Z</time>
      </trkpt>
      <trkpt lat="46.8241" lon="5.81174">
        <ele>574</ele>
        <time>2022-05-24T14:40:14Z</time>
      </trkpt>
      <trkpt lat="46.82412" lon="5.81167">
        <ele>574</ele>
        <time>2022-05-24T14:40:15Z</time>
      </trkpt>
      <trkpt lat="46.82413" lon="5.81159">
        <ele>574.4</ele>
        <time>2022-05-24T14:40:16Z</time>
      </trkpt>
      <trkpt lat="46.82415" lon="5.81153">
        <ele>574.4</ele>
        <time>2022-05-24T14:40:17Z</time>
      </trkpt>
      <trkpt lat="46.82416" lon="5.81146">
        <ele>574.8</ele>
        <time>2022-05-24T14:40:18Z</time>
      </trkpt>
      <trkpt lat="46.82418" lon="5.81139">
        <ele>575</ele>
        <time>2022-05-24T14:40:19Z</time>
      </trkpt>
      <trkpt lat="46.8242" lon="5.81133">
        <ele>575</ele>
        <time>2022-05-24T14:40:20Z</time>
      </trkpt>
      <trkpt lat="46.82421" lon="5.81127">
        <ele>575</ele>
        <time>2022-05-24T14:40:21Z</time>
      </trkpt>
      <trkpt lat="46.82422" lon="5.8112">
        <ele>575.2</ele>
        <time>2022-05-24T14:40:22Z</time>
      </trkpt>
      <trkpt lat="46.82424" lon="5.81114">
        <ele>575.4</ele>
        <time>2022-05-24T14:40:23Z</time>
      </trkpt>
      <trkpt lat="46.82424" lon="5.81107">
        <ele>575.8</ele>
        <time>2022-05-24T14:40:24Z</time>
      </trkpt>
      <trkpt lat="46.82425" lon="5.81101">
        <ele>576</ele>
        <time>2022-05-24T14:40:25Z</time>
      </trkpt>
      <trkpt lat="46.82426" lon="5.81094">
        <ele>576</ele>
        <time>2022-05-24T14:40:26Z</time>
      </trkpt>
      <trkpt lat="46.82427" lon="5.81088">
        <ele>576.4</ele>
        <time>2022-05-24T14:40:27Z</time>
      </trkpt>
      <trkpt lat="46.82428" lon="5.81081">
        <ele>576.6</ele>
        <time>2022-05-24T14:40:28Z</time>
      </trkpt>
      <trkpt lat="46.82428" lon="5.81074">
        <ele>577</ele>
        <time>2022-05-24T14:40:29Z</time>
      </trkpt>
      <trkpt lat="46.82429" lon="5.81067">
        <ele>577</ele>
        <time>2022-05-24T14:40:30Z</time>
      </trkpt>
      <trkpt lat="46.8243" lon="5.81061">
        <ele>577.2</ele>
        <time>2022-05-24T14:40:31Z</time>
      </trkpt>
      <trkpt lat="46.8243" lon="5.81054">
        <ele>577.6</ele>
        <time>2022-05-24T14:40:32Z</time>
      </trkpt>
      <trkpt lat="46.82431" lon="5.81047">
        <ele>577.8</ele>
        <time>2022-05-24T14:40:33Z</time>
      </trkpt>
      <trkpt lat="46.82431" lon="5.8104">
        <ele>578</ele>
        <time>2022-05-24T14:40:34Z</time>
      </trkpt>
      <trkpt lat="46.82432" lon="5.81033">
        <ele>578.2</ele>
        <time>2022-05-24T14:40:35Z</time>
      </trkpt>
      <trkpt lat="46.82433" lon="5.81027">
        <ele>578.2</ele>
        <time>2022-05-24T14:40:36Z</time>
      </trkpt>
      <trkpt lat="46.82433" lon="5.81021">
        <ele>578.6</ele>
        <time>2022-05-24T14:40:37Z</time>
      </trkpt>
      <trkpt lat="46.82434" lon="5.81015">
        <ele>578.6</ele>
        <time>2022-05-24T14:40:38Z</time>
      </trkpt>
      <trkpt lat="46.82435" lon="5.8101">
        <ele>578.6</ele>
        <time>2022-05-24T14:40:39Z</time>
      </trkpt>
      <trkpt lat="46.82436" lon="5.81004">
        <ele>578.8</ele>
        <time>2022-05-24T14:40:40Z</time>
      </trkpt>
      <trkpt lat="46.82438" lon="5.80999">
        <ele>579.2</ele>
        <time>2022-05-24T14:40:41Z</time>
      </trkpt>
      <trkpt lat="46.82439" lon="5.80993">
        <ele>579.2</ele>
        <time>2022-05-24T14:40:42Z</time>
      </trkpt>
      <trkpt lat="46.82441" lon="5.80988">
        <ele>579.2</ele>
        <time>2022-05-24T14:40:43Z</time>
      </trkpt>
      <trkpt lat="46.82442" lon="5.80982">
        <ele>579.4</ele>
        <time>2022-05-24T14:40:44Z</time>
      </trkpt>
      <trkpt lat="46.82443" lon="5.80976">
        <ele>579.6</ele>
        <time>2022-05-24T14:40:45Z</time>
      </trkpt>
      <trkpt lat="46.82444" lon="5.8097">
        <ele>579.6</ele>
        <time>2022-05-24T14:40:46Z</time>
      </trkpt>
      <trkpt lat="46.82445" lon="5.80964">
        <ele>580</ele>
        <time>2022-05-24T14:40:47Z</time>
      </trkpt>
      <trkpt lat="46.82447" lon="5.80958">
        <ele>580</ele>
        <time>2022-05-24T14:40:48Z</time>
      </trkpt>
      <trkpt lat="46.82449" lon="5.80953">
        <ele>580</ele>
        <time>2022-05-24T14:40:49Z</time>
      </trkpt>
      <trkpt lat="46.8245" lon="5.80947">
        <ele>580</ele>
        <time>2022-05-24T14:40:50Z</time>
      </trkpt>
      <trkpt lat="46.82452" lon="5.80941">
        <ele>580.4</ele>
        <time>2022-05-24T14:40:51Z</time>
      </trkpt>
      <trkpt lat="46.82454" lon="5.80935">
        <ele>580.4</ele>
        <time>2022-05-24T14:40:52Z</time>
      </trkpt>
      <trkpt lat="46.82455" lon="5.80929">
        <ele>580.4</ele>
        <time>2022-05-24T14:40:53Z</time>
      </trkpt>
      <trkpt lat="46.82457" lon="5.80924">
        <ele>580.8</ele>
        <time>2022-05-24T14:40:54Z</time>
      </trkpt>
      <trkpt lat="46.82459" lon="5.80918">
        <ele>580.8</ele>
        <time>2022-05-24T14:40:55Z</time>
      </trkpt>
      <trkpt lat="46.82461" lon="5.80913">
        <ele>581</ele>
        <time>2022-05-24T14:40:56Z</time>
      </trkpt>
      <trkpt lat="46.82463" lon="5.80908">
        <ele>581</ele>
        <time>2022-05-24T14:40:57Z</time>
      </trkpt>
      <trkpt lat="46.82465" lon="5.80902">
        <ele>581.2</ele>
        <time>2022-05-24T14:40:58Z</time>
      </trkpt>
      <trkpt lat="46.82466" lon="5.80897">
        <ele>581.2</ele>
        <time>2022-05-24T14:40:59Z</time>
      </trkpt>
      <trkpt lat="46.82468" lon="5.80891">
        <ele>581.4</ele>
        <time>2022-05-24T14:41:00Z</time>
      </trkpt>
      <trkpt lat="46.8247" lon="5.80886">
        <ele>581.4</ele>
        <time>2022-05-24T14:41:01Z</time>
      </trkpt>
      <trkpt lat="46.82471" lon="5.8088">
        <ele>581.4</ele>
        <time>2022-05-24T14:41:02Z</time>
      </trkpt>
      <trkpt lat="46.82473" lon="5.80874">
        <ele>581.4</ele>
        <time>2022-05-24T14:41:03Z</time>
      </trkpt>
      <trkpt lat="46.82475" lon="5.80868">
        <ele>581.4</ele>
        <time>2022-05-24T14:41:04Z</time>
      </trkpt>
      <trkpt lat="46.82476" lon="5.80862">
        <ele>581.4</ele>
        <time>2022-05-24T14:41:05Z</time>
      </trkpt>
      <trkpt lat="46.82478" lon="5.80856">
        <ele>581.8</ele>
        <time>2022-05-24T14:41:06Z</time>
      </trkpt>
      <trkpt lat="46.82479" lon="5.8085">
        <ele>581.8</ele>
        <time>2022-05-24T14:41:07Z</time>
      </trkpt>
      <trkpt lat="46.82481" lon="5.80843">
        <ele>581.8</ele>
        <time>2022-05-24T14:41:08Z</time>
      </trkpt>
      <trkpt lat="46.82482" lon="5.80837">
        <ele>582</ele>
        <time>2022-05-24T14:41:09Z</time>
      </trkpt>
      <trkpt lat="46.82483" lon="5.80831">
        <ele>582</ele>
        <time>2022-05-24T14:41:10Z</time>
      </trkpt>
      <trkpt lat="46.82484" lon="5.80825">
        <ele>582</ele>
        <time>2022-05-24T14:41:11Z</time>
      </trkpt>
      <trkpt lat="46.82485" lon="5.80818">
        <ele>582</ele>
        <time>2022-05-24T14:41:12Z</time>
      </trkpt>
      <trkpt lat="46.82485" lon="5.80812">
        <ele>582.2</ele>
        <time>2022-05-24T14:41:13Z</time>
      </trkpt>
      <trkpt lat="46.82485" lon="5.80805">
        <ele>582.2</ele>
        <time>2022-05-24T14:41:14Z</time>
      </trkpt>
      <trkpt lat="46.82485" lon="5.80798">
        <ele>582.2</ele>
        <time>2022-05-24T14:41:15Z</time>
      </trkpt>
      <trkpt lat="46.82485" lon="5.80791">
        <ele>582.2</ele>
        <time>2022-05-24T14:41:16Z</time>
      </trkpt>
      <trkpt lat="46.82485" lon="5.80784">
        <ele>582.2</ele>
        <time>2022-05-24T14:41:17Z</time>
      </trkpt>
      <trkpt lat="46.82485" lon="5.80776">
        <ele>582.4</ele>
        <time>2022-05-24T14:41:18Z</time>
      </trkpt>
      <trkpt lat="46.82484" lon="5.80763">
        <ele>582.4</ele>
        <time>2022-05-24T14:41:19Z</time>
      </trkpt>
      <trkpt lat="46.82484" lon="5.80756">
        <ele>582.4</ele>
        <time>2022-05-24T14:41:20Z</time>
      </trkpt>
      <trkpt lat="46.82484" lon="5.8075">
        <ele>582.4</ele>
        <time>2022-05-24T14:41:21Z</time>
      </trkpt>
      <trkpt lat="46.82484" lon="5.80744">
        <ele>582.8</ele>
        <time>2022-05-24T14:41:22Z</time>
      </trkpt>
      <trkpt lat="46.82484" lon="5.80738">
        <ele>582.8</ele>
        <time>2022-05-24T14:41:23Z</time>
      </trkpt>
      <trkpt lat="46.82485" lon="5.80732">
        <ele>583</ele>
        <time>2022-05-24T14:41:24Z</time>
      </trkpt>
      <trkpt lat="46.82486" lon="5.80727">
        <ele>583</ele>
        <time>2022-05-24T14:41:25Z</time>
      </trkpt>
      <trkpt lat="46.82486" lon="5.80722">
        <ele>583.2</ele>
        <time>2022-05-24T14:41:26Z</time>
      </trkpt>
      <trkpt lat="46.82487" lon="5.80717">
        <ele>583.2</ele>
        <time>2022-05-24T14:41:27Z</time>
      </trkpt>
      <trkpt lat="46.82487" lon="5.80713">
        <ele>583.6</ele>
        <time>2022-05-24T14:41:28Z</time>
      </trkpt>
      <trkpt lat="46.82487" lon="5.80708">
        <ele>583.6</ele>
        <time>2022-05-24T14:41:29Z</time>
      </trkpt>
      <trkpt lat="46.82488" lon="5.80703">
        <ele>583.6</ele>
        <time>2022-05-24T14:41:30Z</time>
      </trkpt>
      <trkpt lat="46.82489" lon="5.80698">
        <ele>583.6</ele>
        <time>2022-05-24T14:41:31Z</time>
      </trkpt>
      <trkpt lat="46.8249" lon="5.80692">
        <ele>583.8</ele>
        <time>2022-05-24T14:41:32Z</time>
      </trkpt>
      <trkpt lat="46.82491" lon="5.80687">
        <ele>583.8</ele>
        <time>2022-05-24T14:41:33Z</time>
      </trkpt>
      <trkpt lat="46.82493" lon="5.8068">
        <ele>583.8</ele>
        <time>2022-05-24T14:41:34Z</time>
      </trkpt>
      <trkpt lat="46.82494" lon="5.80673">
        <ele>583.8</ele>
        <time>2022-05-24T14:41:35Z</time>
      </trkpt>
      <trkpt lat="46.82494" lon="5.80666">
        <ele>583.8</ele>
        <time>2022-05-24T14:41:36Z</time>
      </trkpt>
      <trkpt lat="46.82493" lon="5.80658">
        <ele>583.8</ele>
        <time>2022-05-24T14:41:37Z</time>
      </trkpt>
      <trkpt lat="46.82491" lon="5.80651">
        <ele>583.6</ele>
        <time>2022-05-24T14:41:38Z</time>
      </trkpt>
      <trkpt lat="46.82488" lon="5.80644">
        <ele>583.6</ele>
        <time>2022-05-24T14:41:39Z</time>
      </trkpt>
      <trkpt lat="46.82483" lon="5.80638">
        <ele>583.2</ele>
        <time>2022-05-24T14:41:40Z</time>
      </trkpt>
      <trkpt lat="46.82477" lon="5.80632">
        <ele>583.2</ele>
        <time>2022-05-24T14:41:41Z</time>
      </trkpt>
      <trkpt lat="46.82471" lon="5.80627">
        <ele>582.8</ele>
        <time>2022-05-24T14:41:42Z</time>
      </trkpt>
      <trkpt lat="46.82465" lon="5.80622">
        <ele>582.4</ele>
        <time>2022-05-24T14:41:43Z</time>
      </trkpt>
      <trkpt lat="46.82458" lon="5.80617">
        <ele>582.4</ele>
        <time>2022-05-24T14:41:44Z</time>
      </trkpt>
      <trkpt lat="46.82452" lon="5.80612">
        <ele>582</ele>
        <time>2022-05-24T14:41:45Z</time>
      </trkpt>
      <trkpt lat="46.82445" lon="5.80607">
        <ele>582</ele>
        <time>2022-05-24T14:41:46Z</time>
      </trkpt>
      <trkpt lat="46.82439" lon="5.80601">
        <ele>581.6</ele>
        <time>2022-05-24T14:41:47Z</time>
      </trkpt>
      <trkpt lat="46.82434" lon="5.80595">
        <ele>581.6</ele>
        <time>2022-05-24T14:41:48Z</time>
      </trkpt>
      <trkpt lat="46.82429" lon="5.80589">
        <ele>581.6</ele>
        <time>2022-05-24T14:41:49Z</time>
      </trkpt>
      <trkpt lat="46.82424" lon="5.80584">
        <ele>581.6</ele>
        <time>2022-05-24T14:41:50Z</time>
      </trkpt>
      <trkpt lat="46.82419" lon="5.8058">
        <ele>581.6</ele>
        <time>2022-05-24T14:41:51Z</time>
      </trkpt>
      <trkpt lat="46.82414" lon="5.80575">
        <ele>581.6</ele>
        <time>2022-05-24T14:41:52Z</time>
      </trkpt>
      <trkpt lat="46.8241" lon="5.80572">
        <ele>581.6</ele>
        <time>2022-05-24T14:41:53Z</time>
      </trkpt>
      <trkpt lat="46.82406" lon="5.80568">
        <ele>581.6</ele>
        <time>2022-05-24T14:41:54Z</time>
      </trkpt>
      <trkpt lat="46.82402" lon="5.80564">
        <ele>581.8</ele>
        <time>2022-05-24T14:41:55Z</time>
      </trkpt>
      <trkpt lat="46.82398" lon="5.8056">
        <ele>581.8</ele>
        <time>2022-05-24T14:41:56Z</time>
      </trkpt>
      <trkpt lat="46.82394" lon="5.80555">
        <ele>582.2</ele>
        <time>2022-05-24T14:41:57Z</time>
      </trkpt>
      <trkpt lat="46.8239" lon="5.80551">
        <ele>582.2</ele>
        <time>2022-05-24T14:41:58Z</time>
      </trkpt>
      <trkpt lat="46.82386" lon="5.80546">
        <ele>582.6</ele>
        <time>2022-05-24T14:41:59Z</time>
      </trkpt>
      <trkpt lat="46.82383" lon="5.80541">
        <ele>582.6</ele>
        <time>2022-05-24T14:42:00Z</time>
      </trkpt>
      <trkpt lat="46.8238" lon="5.80536">
        <ele>583</ele>
        <time>2022-05-24T14:42:01Z</time>
      </trkpt>
      <trkpt lat="46.82377" lon="5.80531">
        <ele>583</ele>
        <time>2022-05-24T14:42:02Z</time>
      </trkpt>
      <trkpt lat="46.82375" lon="5.80526">
        <ele>583.2</ele>
        <time>2022-05-24T14:42:03Z</time>
      </trkpt>
      <trkpt lat="46.82373" lon="5.80521">
        <ele>583.2</ele>
        <time>2022-05-24T14:42:04Z</time>
      </trkpt>
      <trkpt lat="46.82372" lon="5.80516">
        <ele>583.6</ele>
        <time>2022-05-24T14:42:05Z</time>
      </trkpt>
      <trkpt lat="46.82372" lon="5.80511">
        <ele>583.6</ele>
        <time>2022-05-24T14:42:06Z</time>
      </trkpt>
      <trkpt lat="46.82372" lon="5.80505">
        <ele>583.6</ele>
        <time>2022-05-24T14:42:07Z</time>
      </trkpt>
      <trkpt lat="46.82373" lon="5.805">
        <ele>583.8</ele>
        <time>2022-05-24T14:42:08Z</time>
      </trkpt>
      <trkpt lat="46.82374" lon="5.80495">
        <ele>583.8</ele>
        <time>2022-05-24T14:42:09Z</time>
      </trkpt>
      <trkpt lat="46.82375" lon="5.80491">
        <ele>584.2</ele>
        <time>2022-05-24T14:42:10Z</time>
      </trkpt>
      <trkpt lat="46.82376" lon="5.80486">
        <ele>584.2</ele>
        <time>2022-05-24T14:42:11Z</time>
      </trkpt>
      <trkpt lat="46.82377" lon="5.80481">
        <ele>584.6</ele>
        <time>2022-05-24T14:42:12Z</time>
      </trkpt>
      <trkpt lat="46.82377" lon="5.80481">
        <ele>585</ele>
        <time>2022-05-24T14:42:13Z</time>
      </trkpt>
      <trkpt lat="46.82377" lon="5.80476">
        <ele>585.2</ele>
        <time>2022-05-24T14:42:14Z</time>
      </trkpt>
      <trkpt lat="46.82378" lon="5.80471">
        <ele>585.4</ele>
        <time>2022-05-24T14:42:15Z</time>
      </trkpt>
      <trkpt lat="46.82379" lon="5.80467">
        <ele>585.4</ele>
        <time>2022-05-24T14:42:16Z</time>
      </trkpt>
      <trkpt lat="46.8238" lon="5.80462">
        <ele>585.8</ele>
        <time>2022-05-24T14:42:17Z</time>
      </trkpt>
      <trkpt lat="46.82381" lon="5.80457">
        <ele>586</ele>
        <time>2022-05-24T14:42:18Z</time>
      </trkpt>
      <trkpt lat="46.82382" lon="5.80452">
        <ele>586.2</ele>
        <time>2022-05-24T14:42:19Z</time>
      </trkpt>
      <trkpt lat="46.82384" lon="5.80448">
        <ele>586.2</ele>
        <time>2022-05-24T14:42:20Z</time>
      </trkpt>
      <trkpt lat="46.82385" lon="5.80443">
        <ele>586.6</ele>
        <time>2022-05-24T14:42:21Z</time>
      </trkpt>
      <trkpt lat="46.82386" lon="5.80438">
        <ele>586.6</ele>
        <time>2022-05-24T14:42:22Z</time>
      </trkpt>
      <trkpt lat="46.82387" lon="5.80433">
        <ele>586.8</ele>
        <time>2022-05-24T14:42:23Z</time>
      </trkpt>
      <trkpt lat="46.82388" lon="5.80428">
        <ele>586.8</ele>
        <time>2022-05-24T14:42:24Z</time>
      </trkpt>
      <trkpt lat="46.8239" lon="5.80423">
        <ele>586.8</ele>
        <time>2022-05-24T14:42:25Z</time>
      </trkpt>
      <trkpt lat="46.82391" lon="5.80418">
        <ele>587</ele>
        <time>2022-05-24T14:42:26Z</time>
      </trkpt>
      <trkpt lat="46.82393" lon="5.80413">
        <ele>587</ele>
        <time>2022-05-24T14:42:27Z</time>
      </trkpt>
      <trkpt lat="46.82394" lon="5.80408">
        <ele>587</ele>
        <time>2022-05-24T14:42:28Z</time>
      </trkpt>
      <trkpt lat="46.82395" lon="5.80403">
        <ele>587.2</ele>
        <time>2022-05-24T14:42:29Z</time>
      </trkpt>
      <trkpt lat="46.82397" lon="5.80398">
        <ele>587.4</ele>
        <time>2022-05-24T14:42:30Z</time>
      </trkpt>
      <trkpt lat="46.82398" lon="5.80393">
        <ele>587.4</ele>
        <time>2022-05-24T14:42:31Z</time>
      </trkpt>
      <trkpt lat="46.824" lon="5.80388">
        <ele>587.8</ele>
        <time>2022-05-24T14:42:32Z</time>
      </trkpt>
      <trkpt lat="46.82401" lon="5.80383">
        <ele>587.8</ele>
        <time>2022-05-24T14:42:33Z</time>
      </trkpt>
      <trkpt lat="46.82402" lon="5.80378">
        <ele>587.8</ele>
        <time>2022-05-24T14:42:34Z</time>
      </trkpt>
      <trkpt lat="46.82403" lon="5.80373">
        <ele>587.8</ele>
        <time>2022-05-24T14:42:35Z</time>
      </trkpt>
      <trkpt lat="46.82404" lon="5.80367">
        <ele>588.2</ele>
        <time>2022-05-24T14:42:36Z</time>
      </trkpt>
      <trkpt lat="46.82406" lon="5.80362">
        <ele>588.2</ele>
        <time>2022-05-24T14:42:37Z</time>
      </trkpt>
      <trkpt lat="46.82408" lon="5.80356">
        <ele>588.2</ele>
        <time>2022-05-24T14:42:38Z</time>
      </trkpt>
      <trkpt lat="46.8241" lon="5.80351">
        <ele>588.4</ele>
        <time>2022-05-24T14:42:39Z</time>
      </trkpt>
      <trkpt lat="46.82412" lon="5.80346">
        <ele>588.4</ele>
        <time>2022-05-24T14:42:40Z</time>
      </trkpt>
      <trkpt lat="46.82414" lon="5.80341">
        <ele>588.4</ele>
        <time>2022-05-24T14:42:41Z</time>
      </trkpt>
      <trkpt lat="46.82416" lon="5.80336">
        <ele>588.4</ele>
        <time>2022-05-24T14:42:42Z</time>
      </trkpt>
      <trkpt lat="46.82418" lon="5.8033">
        <ele>588.6</ele>
        <time>2022-05-24T14:42:43Z</time>
      </trkpt>
      <trkpt lat="46.82421" lon="5.80325">
        <ele>588.6</ele>
        <time>2022-05-24T14:42:44Z</time>
      </trkpt>
      <trkpt lat="46.82423" lon="5.8032">
        <ele>588.6</ele>
        <time>2022-05-24T14:42:45Z</time>
      </trkpt>
      <trkpt lat="46.82426" lon="5.80314">
        <ele>588.6</ele>
        <time>2022-05-24T14:42:46Z</time>
      </trkpt>
      <trkpt lat="46.82429" lon="5.80309">
        <ele>588.6</ele>
        <time>2022-05-24T14:42:47Z</time>
      </trkpt>
      <trkpt lat="46.82431" lon="5.80303">
        <ele>588.6</ele>
        <time>2022-05-24T14:42:48Z</time>
      </trkpt>
      <trkpt lat="46.82434" lon="5.80298">
        <ele>588.6</ele>
        <time>2022-05-24T14:42:49Z</time>
      </trkpt>
      <trkpt lat="46.82437" lon="5.80292">
        <ele>588.6</ele>
        <time>2022-05-24T14:42:50Z</time>
      </trkpt>
      <trkpt lat="46.82439" lon="5.80286">
        <ele>588.6</ele>
        <time>2022-05-24T14:42:51Z</time>
      </trkpt>
      <trkpt lat="46.82442" lon="5.8028">
        <ele>588.6</ele>
        <time>2022-05-24T14:42:52Z</time>
      </trkpt>
      <trkpt lat="46.82444" lon="5.80274">
        <ele>588.4</ele>
        <time>2022-05-24T14:42:53Z</time>
      </trkpt>
      <trkpt lat="46.82446" lon="5.80267">
        <ele>588.4</ele>
        <time>2022-05-24T14:42:54Z</time>
      </trkpt>
      <trkpt lat="46.82449" lon="5.8026">
        <ele>588.2</ele>
        <time>2022-05-24T14:42:55Z</time>
      </trkpt>
      <trkpt lat="46.82451" lon="5.80252">
        <ele>588.2</ele>
        <time>2022-05-24T14:42:56Z</time>
      </trkpt>
      <trkpt lat="46.82454" lon="5.80244">
        <ele>587.8</ele>
        <time>2022-05-24T14:42:57Z</time>
      </trkpt>
      <trkpt lat="46.82457" lon="5.80236">
        <ele>587.4</ele>
        <time>2022-05-24T14:42:58Z</time>
      </trkpt>
      <trkpt lat="46.8246" lon="5.80228">
        <ele>587.2</ele>
        <time>2022-05-24T14:42:59Z</time>
      </trkpt>
      <trkpt lat="46.82464" lon="5.8022">
        <ele>586.8</ele>
        <time>2022-05-24T14:43:00Z</time>
      </trkpt>
      <trkpt lat="46.82468" lon="5.80213">
        <ele>586.8</ele>
        <time>2022-05-24T14:43:01Z</time>
      </trkpt>
      <trkpt lat="46.82473" lon="5.80206">
        <ele>586.2</ele>
        <time>2022-05-24T14:43:02Z</time>
      </trkpt>
      <trkpt lat="46.82479" lon="5.80201">
        <ele>586.2</ele>
        <time>2022-05-24T14:43:03Z</time>
      </trkpt>
      <trkpt lat="46.82485" lon="5.80197">
        <ele>585.8</ele>
        <time>2022-05-24T14:43:04Z</time>
      </trkpt>
      <trkpt lat="46.82491" lon="5.80193">
        <ele>585.8</ele>
        <time>2022-05-24T14:43:05Z</time>
      </trkpt>
      <trkpt lat="46.82497" lon="5.80189">
        <ele>585.8</ele>
        <time>2022-05-24T14:43:06Z</time>
      </trkpt>
      <trkpt lat="46.82503" lon="5.80186">
        <ele>585.8</ele>
        <time>2022-05-24T14:43:07Z</time>
      </trkpt>
      <trkpt lat="46.82508" lon="5.80183">
        <ele>585.6</ele>
        <time>2022-05-24T14:43:08Z</time>
      </trkpt>
      <trkpt lat="46.82514" lon="5.80179">
        <ele>585.6</ele>
        <time>2022-05-24T14:43:09Z</time>
      </trkpt>
      <trkpt lat="46.82519" lon="5.80174">
        <ele>585.6</ele>
        <time>2022-05-24T14:43:10Z</time>
      </trkpt>
      <trkpt lat="46.82524" lon="5.80169">
        <ele>585.6</ele>
        <time>2022-05-24T14:43:11Z</time>
      </trkpt>
      <trkpt lat="46.82529" lon="5.80163">
        <ele>585.6</ele>
        <time>2022-05-24T14:43:12Z</time>
      </trkpt>
      <trkpt lat="46.82533" lon="5.80157">
        <ele>585.8</ele>
        <time>2022-05-24T14:43:13Z</time>
      </trkpt>
      <trkpt lat="46.82537" lon="5.80151">
        <ele>585.8</ele>
        <time>2022-05-24T14:43:14Z</time>
      </trkpt>
      <trkpt lat="46.82541" lon="5.80144">
        <ele>585.8</ele>
        <time>2022-05-24T14:43:15Z</time>
      </trkpt>
      <trkpt lat="46.82544" lon="5.80138">
        <ele>585.8</ele>
        <time>2022-05-24T14:43:16Z</time>
      </trkpt>
      <trkpt lat="46.82548" lon="5.80131">
        <ele>585.8</ele>
        <time>2022-05-24T14:43:17Z</time>
      </trkpt>
      <trkpt lat="46.82552" lon="5.80125">
        <ele>585.8</ele>
        <time>2022-05-24T14:43:18Z</time>
      </trkpt>
      <trkpt lat="46.82555" lon="5.80118">
        <ele>586</ele>
        <time>2022-05-24T14:43:19Z</time>
      </trkpt>
      <trkpt lat="46.82559" lon="5.80112">
        <ele>586</ele>
        <time>2022-05-24T14:43:20Z</time>
      </trkpt>
      <trkpt lat="46.82562" lon="5.80106">
        <ele>586</ele>
        <time>2022-05-24T14:43:21Z</time>
      </trkpt>
      <trkpt lat="46.82566" lon="5.801">
        <ele>586.4</ele>
        <time>2022-05-24T14:43:22Z</time>
      </trkpt>
      <trkpt lat="46.82569" lon="5.80094">
        <ele>586.6</ele>
        <time>2022-05-24T14:43:23Z</time>
      </trkpt>
      <trkpt lat="46.82573" lon="5.80088">
        <ele>586.6</ele>
        <time>2022-05-24T14:43:24Z</time>
      </trkpt>
      <trkpt lat="46.82576" lon="5.80082">
        <ele>586.8</ele>
        <time>2022-05-24T14:43:25Z</time>
      </trkpt>
      <trkpt lat="46.8258" lon="5.80076">
        <ele>586.8</ele>
        <time>2022-05-24T14:43:26Z</time>
      </trkpt>
      <trkpt lat="46.82584" lon="5.80071">
        <ele>586.8</ele>
        <time>2022-05-24T14:43:27Z</time>
      </trkpt>
      <trkpt lat="46.82587" lon="5.80065">
        <ele>587</ele>
        <time>2022-05-24T14:43:28Z</time>
      </trkpt>
      <trkpt lat="46.82591" lon="5.8006">
        <ele>587</ele>
        <time>2022-05-24T14:43:29Z</time>
      </trkpt>
      <trkpt lat="46.82595" lon="5.80054">
        <ele>587</ele>
        <time>2022-05-24T14:43:30Z</time>
      </trkpt>
      <trkpt lat="46.82598" lon="5.80049">
        <ele>587.2</ele>
        <time>2022-05-24T14:43:31Z</time>
      </trkpt>
      <trkpt lat="46.82601" lon="5.80043">
        <ele>587.2</ele>
        <time>2022-05-24T14:43:32Z</time>
      </trkpt>
      <trkpt lat="46.82604" lon="5.80037">
        <ele>587.2</ele>
        <time>2022-05-24T14:43:33Z</time>
      </trkpt>
      <trkpt lat="46.82607" lon="5.8003">
        <ele>587.6</ele>
        <time>2022-05-24T14:43:34Z</time>
      </trkpt>
      <trkpt lat="46.82613" lon="5.80017">
        <ele>587.6</ele>
        <time>2022-05-24T14:43:35Z</time>
      </trkpt>
      <trkpt lat="46.82616" lon="5.8001">
        <ele>587.6</ele>
        <time>2022-05-24T14:43:36Z</time>
      </trkpt>
      <trkpt lat="46.82619" lon="5.80004">
        <ele>587.6</ele>
        <time>2022-05-24T14:43:37Z</time>
      </trkpt>
      <trkpt lat="46.82622" lon="5.79997">
        <ele>587.6</ele>
        <time>2022-05-24T14:43:38Z</time>
      </trkpt>
      <trkpt lat="46.82625" lon="5.79991">
        <ele>587.6</ele>
        <time>2022-05-24T14:43:39Z</time>
      </trkpt>
      <trkpt lat="46.82627" lon="5.79984">
        <ele>587.6</ele>
        <time>2022-05-24T14:43:40Z</time>
      </trkpt>
      <trkpt lat="46.8263" lon="5.79978">
        <ele>587.6</ele>
        <time>2022-05-24T14:43:41Z</time>
      </trkpt>
      <trkpt lat="46.82633" lon="5.79973">
        <ele>587.8</ele>
        <time>2022-05-24T14:43:42Z</time>
      </trkpt>
      <trkpt lat="46.82636" lon="5.79967">
        <ele>587.8</ele>
        <time>2022-05-24T14:43:43Z</time>
      </trkpt>
      <trkpt lat="46.82639" lon="5.79962">
        <ele>588</ele>
        <time>2022-05-24T14:43:44Z</time>
      </trkpt>
      <trkpt lat="46.82642" lon="5.79957">
        <ele>588</ele>
        <time>2022-05-24T14:43:45Z</time>
      </trkpt>
      <trkpt lat="46.82645" lon="5.79953">
        <ele>588</ele>
        <time>2022-05-24T14:43:46Z</time>
      </trkpt>
      <trkpt lat="46.82648" lon="5.79949">
        <ele>588.2</ele>
        <time>2022-05-24T14:43:47Z</time>
      </trkpt>
      <trkpt lat="46.82651" lon="5.79944">
        <ele>588.2</ele>
        <time>2022-05-24T14:43:48Z</time>
      </trkpt>
      <trkpt lat="46.82653" lon="5.79941">
        <ele>588.6</ele>
        <time>2022-05-24T14:43:49Z</time>
      </trkpt>
      <trkpt lat="46.82656" lon="5.79937">
        <ele>588.8</ele>
        <time>2022-05-24T14:43:50Z</time>
      </trkpt>
      <trkpt lat="46.82659" lon="5.79933">
        <ele>588.8</ele>
        <time>2022-05-24T14:43:51Z</time>
      </trkpt>
      <trkpt lat="46.82662" lon="5.7993">
        <ele>589.2</ele>
        <time>2022-05-24T14:43:52Z</time>
      </trkpt>
      <trkpt lat="46.82665" lon="5.79927">
        <ele>589.4</ele>
        <time>2022-05-24T14:43:53Z</time>
      </trkpt>
      <trkpt lat="46.82667" lon="5.79925">
        <ele>589.8</ele>
        <time>2022-05-24T14:43:54Z</time>
      </trkpt>
      <trkpt lat="46.8267" lon="5.79922">
        <ele>589.8</ele>
        <time>2022-05-24T14:43:55Z</time>
      </trkpt>
      <trkpt lat="46.82672" lon="5.7992">
        <ele>590.2</ele>
        <time>2022-05-24T14:43:56Z</time>
      </trkpt>
      <trkpt lat="46.82674" lon="5.79918">
        <ele>590.2</ele>
        <time>2022-05-24T14:43:57Z</time>
      </trkpt>
      <trkpt lat="46.82677" lon="5.79915">
        <ele>590.4</ele>
        <time>2022-05-24T14:43:58Z</time>
      </trkpt>
      <trkpt lat="46.82679" lon="5.79913">
        <ele>590.4</ele>
        <time>2022-05-24T14:43:59Z</time>
      </trkpt>
      <trkpt lat="46.82681" lon="5.7991">
        <ele>590.6</ele>
        <time>2022-05-24T14:44:00Z</time>
      </trkpt>
      <trkpt lat="46.82684" lon="5.79908">
        <ele>590.6</ele>
        <time>2022-05-24T14:44:01Z</time>
      </trkpt>
      <trkpt lat="46.82686" lon="5.79906">
        <ele>590.6</ele>
        <time>2022-05-24T14:44:02Z</time>
      </trkpt>
      <trkpt lat="46.82689" lon="5.79904">
        <ele>590.8</ele>
        <time>2022-05-24T14:44:03Z</time>
      </trkpt>
      <trkpt lat="46.8269" lon="5.79902">
        <ele>590.8</ele>
        <time>2022-05-24T14:44:04Z</time>
      </trkpt>
      <trkpt lat="46.82692" lon="5.79901">
        <ele>590.8</ele>
        <time>2022-05-24T14:44:05Z</time>
      </trkpt>
      <trkpt lat="46.82692" lon="5.799">
        <ele>591</ele>
        <time>2022-05-24T14:44:06Z</time>
      </trkpt>
      <trkpt lat="46.82692" lon="5.799">
        <ele>591</ele>
        <time>2022-05-24T14:44:07Z</time>
      </trkpt>
      <trkpt lat="46.82692" lon="5.799">
        <ele>591</ele>
        <time>2022-05-24T14:44:08Z</time>
      </trkpt>
      <trkpt lat="46.82692" lon="5.799">
        <ele>591</ele>
        <time>2022-05-24T14:44:09Z</time>
      </trkpt>
      <trkpt lat="46.82692" lon="5.799">
        <ele>591.2</ele>
        <time>2022-05-24T14:44:15Z</time>
      </trkpt>
      <trkpt lat="46.82692" lon="5.799">
        <ele>591.2</ele>
        <time>2022-05-24T14:44:16Z</time>
      </trkpt>
      <trkpt lat="46.82692" lon="5.799">
        <ele>591.2</ele>
        <time>2022-05-24T14:44:17Z</time>
      </trkpt>
      <trkpt lat="46.82692" lon="5.799">
        <ele>591.2</ele>
        <time>2022-05-24T14:44:18Z</time>
      </trkpt>
      <trkpt lat="46.82692" lon="5.799">
        <ele>591.2</ele>
        <time>2022-05-24T14:44:19Z</time>
      </trkpt>
      <trkpt lat="46.82692" lon="5.799">
        <ele>591.2</ele>
        <time>2022-05-24T14:44:20Z</time>
      </trkpt>
      <trkpt lat="46.82692" lon="5.799">
        <ele>591.6</ele>
        <time>2022-05-24T14:44:52Z</time>
      </trkpt>
      <trkpt lat="46.82692" lon="5.799">
        <ele>591.6</ele>
        <time>2022-05-24T14:44:53Z</time>
      </trkpt>
      <trkpt lat="46.82692" lon="5.799">
        <ele>591.6</ele>
        <time>2022-05-24T14:44:54Z</time>
      </trkpt>
      <trkpt lat="46.82692" lon="5.799">
        <ele>591.6</ele>
        <time>2022-05-24T14:44:55Z</time>
      </trkpt>
      <trkpt lat="46.82692" lon="5.799">
        <ele>591.6</ele>
        <time>2022-05-24T14:44:56Z</time>
      </trkpt>
      <trkpt lat="46.82692" lon="5.799">
        <ele>591.6</ele>
        <time>2022-05-24T14:44:59Z</time>
      </trkpt>
      <trkpt lat="46.82692" lon="5.799">
        <ele>591.6</ele>
        <time>2022-05-24T14:45:00Z</time>
      </trkpt>
      <trkpt lat="46.82692" lon="5.799">
        <ele>591.6</ele>
        <time>2022-05-24T14:45:01Z</time>
      </trkpt>
      <trkpt lat="46.82692" lon="5.799">
        <ele>591.6</ele>
        <time>2022-05-24T14:45:02Z</time>
      </trkpt>
      <trkpt lat="46.82692" lon="5.799">
        <ele>591.6</ele>
        <time>2022-05-24T14:45:03Z</time>
      </trkpt>
      <trkpt lat="46.82692" lon="5.799">
        <ele>591.6</ele>
        <time>2022-05-24T14:45:05Z</time>
      </trkpt>
      <trkpt lat="46.82692" lon="5.799">
        <ele>591.6</ele>
        <time>2022-05-24T14:45:06Z</time>
      </trkpt>
      <trkpt lat="46.82692" lon="5.799">
        <ele>591.2</ele>
        <time>2022-05-24T14:45:07Z</time>
      </trkpt>
      <trkpt lat="46.82692" lon="5.799">
        <ele>591.2</ele>
        <time>2022-05-24T14:45:08Z</time>
      </trkpt>
      <trkpt lat="46.82692" lon="5.799">
        <ele>591.2</ele>
        <time>2022-05-24T14:45:09Z</time>
      </trkpt>
      <trkpt lat="46.82692" lon="5.799">
        <ele>591.2</ele>
        <time>2022-05-24T14:45:10Z</time>
      </trkpt>
      <trkpt lat="46.82692" lon="5.799">
        <ele>591.2</ele>
        <time>2022-05-24T14:45:11Z</time>
      </trkpt>
      <trkpt lat="46.82692" lon="5.799">
        <ele>591.2</ele>
        <time>2022-05-24T14:45:12Z</time>
      </trkpt>
      <trkpt lat="46.82692" lon="5.799">
        <ele>591.2</ele>
        <time>2022-05-24T14:45:13Z</time>
      </trkpt>
      <trkpt lat="46.82694" lon="5.79896">
        <ele>591.2</ele>
        <time>2022-05-24T14:45:14Z</time>
      </trkpt>
      <trkpt lat="46.82695" lon="5.79894">
        <ele>591.2</ele>
        <time>2022-05-24T14:45:15Z</time>
      </trkpt>
      <trkpt lat="46.82696" lon="5.79893">
        <ele>591.2</ele>
        <time>2022-05-24T14:45:16Z</time>
      </trkpt>
      <trkpt lat="46.82698" lon="5.79892">
        <ele>591.2</ele>
        <time>2022-05-24T14:45:17Z</time>
      </trkpt>
      <trkpt lat="46.827" lon="5.7989">
        <ele>591.2</ele>
        <time>2022-05-24T14:45:18Z</time>
      </trkpt>
      <trkpt lat="46.82702" lon="5.79888">
        <ele>591.4</ele>
        <time>2022-05-24T14:45:19Z</time>
      </trkpt>
      <trkpt lat="46.82705" lon="5.79886">
        <ele>591.4</ele>
        <time>2022-05-24T14:45:20Z</time>
      </trkpt>
      <trkpt lat="46.82707" lon="5.79885">
        <ele>591.4</ele>
        <time>2022-05-24T14:45:21Z</time>
      </trkpt>
      <trkpt lat="46.82709" lon="5.79882">
        <ele>591.4</ele>
        <time>2022-05-24T14:45:22Z</time>
      </trkpt>
      <trkpt lat="46.82711" lon="5.7988">
        <ele>591.8</ele>
        <time>2022-05-24T14:45:23Z</time>
      </trkpt>
      <trkpt lat="46.82713" lon="5.79878">
        <ele>591.8</ele>
        <time>2022-05-24T14:45:24Z</time>
      </trkpt>
      <trkpt lat="46.82715" lon="5.79876">
        <ele>592</ele>
        <time>2022-05-24T14:45:25Z</time>
      </trkpt>
      <trkpt lat="46.82717" lon="5.79874">
        <ele>592</ele>
        <time>2022-05-24T14:45:26Z</time>
      </trkpt>
      <trkpt lat="46.82719" lon="5.79872">
        <ele>592.2</ele>
        <time>2022-05-24T14:45:27Z</time>
      </trkpt>
      <trkpt lat="46.82721" lon="5.79869">
        <ele>592.2</ele>
        <time>2022-05-24T14:45:28Z</time>
      </trkpt>
      <trkpt lat="46.82724" lon="5.79867">
        <ele>592.2</ele>
        <time>2022-05-24T14:45:29Z</time>
      </trkpt>
      <trkpt lat="46.82726" lon="5.79864">
        <ele>592.4</ele>
        <time>2022-05-24T14:45:30Z</time>
      </trkpt>
      <trkpt lat="46.82728" lon="5.79862">
        <ele>592.4</ele>
        <time>2022-05-24T14:45:31Z</time>
      </trkpt>
      <trkpt lat="46.8273" lon="5.79859">
        <ele>592.4</ele>
        <time>2022-05-24T14:45:32Z</time>
      </trkpt>
      <trkpt lat="46.82733" lon="5.79856">
        <ele>592.8</ele>
        <time>2022-05-24T14:45:33Z</time>
      </trkpt>
      <trkpt lat="46.82735" lon="5.79853">
        <ele>592.8</ele>
        <time>2022-05-24T14:45:34Z</time>
      </trkpt>
      <trkpt lat="46.82738" lon="5.7985">
        <ele>592.8</ele>
        <time>2022-05-24T14:45:35Z</time>
      </trkpt>
      <trkpt lat="46.8274" lon="5.79847">
        <ele>592.8</ele>
        <time>2022-05-24T14:45:36Z</time>
      </trkpt>
      <trkpt lat="46.82742" lon="5.79844">
        <ele>592.8</ele>
        <time>2022-05-24T14:45:37Z</time>
      </trkpt>
      <trkpt lat="46.82744" lon="5.79841">
        <ele>592.8</ele>
        <time>2022-05-24T14:45:38Z</time>
      </trkpt>
      <trkpt lat="46.82747" lon="5.79838">
        <ele>592.8</ele>
        <time>2022-05-24T14:45:39Z</time>
      </trkpt>
      <trkpt lat="46.82749" lon="5.79835">
        <ele>593</ele>
        <time>2022-05-24T14:45:40Z</time>
      </trkpt>
      <trkpt lat="46.82752" lon="5.79832">
        <ele>593</ele>
        <time>2022-05-24T14:45:41Z</time>
      </trkpt>
      <trkpt lat="46.82755" lon="5.79828">
        <ele>593</ele>
        <time>2022-05-24T14:45:42Z</time>
      </trkpt>
      <trkpt lat="46.82757" lon="5.79824">
        <ele>593</ele>
        <time>2022-05-24T14:45:43Z</time>
      </trkpt>
      <trkpt lat="46.8276" lon="5.79821">
        <ele>593</ele>
        <time>2022-05-24T14:45:44Z</time>
      </trkpt>
      <trkpt lat="46.82762" lon="5.79817">
        <ele>593</ele>
        <time>2022-05-24T14:45:45Z</time>
      </trkpt>
      <trkpt lat="46.82765" lon="5.79812">
        <ele>593</ele>
        <time>2022-05-24T14:45:46Z</time>
      </trkpt>
      <trkpt lat="46.82768" lon="5.79808">
        <ele>593</ele>
        <time>2022-05-24T14:45:47Z</time>
      </trkpt>
      <trkpt lat="46.8277" lon="5.79803">
        <ele>593</ele>
        <time>2022-05-24T14:45:48Z</time>
      </trkpt>
      <trkpt lat="46.82772" lon="5.79798">
        <ele>593.2</ele>
        <time>2022-05-24T14:45:49Z</time>
      </trkpt>
      <trkpt lat="46.82774" lon="5.79793">
        <ele>593.2</ele>
        <time>2022-05-24T14:45:50Z</time>
      </trkpt>
      <trkpt lat="46.82777" lon="5.79788">
        <ele>593.2</ele>
        <time>2022-05-24T14:45:51Z</time>
      </trkpt>
      <trkpt lat="46.82779" lon="5.79783">
        <ele>593.2</ele>
        <time>2022-05-24T14:45:52Z</time>
      </trkpt>
      <trkpt lat="46.82781" lon="5.79778">
        <ele>593.2</ele>
        <time>2022-05-24T14:45:53Z</time>
      </trkpt>
      <trkpt lat="46.82783" lon="5.79773">
        <ele>593.2</ele>
        <time>2022-05-24T14:45:54Z</time>
      </trkpt>
      <trkpt lat="46.82785" lon="5.79767">
        <ele>593</ele>
        <time>2022-05-24T14:45:55Z</time>
      </trkpt>
      <trkpt lat="46.82787" lon="5.79762">
        <ele>593</ele>
        <time>2022-05-24T14:45:56Z</time>
      </trkpt>
      <trkpt lat="46.82789" lon="5.79757">
        <ele>592.8</ele>
        <time>2022-05-24T14:45:57Z</time>
      </trkpt>
      <trkpt lat="46.82792" lon="5.79752">
        <ele>592.8</ele>
        <time>2022-05-24T14:45:58Z</time>
      </trkpt>
      <trkpt lat="46.82794" lon="5.79746">
        <ele>592.8</ele>
        <time>2022-05-24T14:45:59Z</time>
      </trkpt>
      <trkpt lat="46.82796" lon="5.79741">
        <ele>592.6</ele>
        <time>2022-05-24T14:46:00Z</time>
      </trkpt>
      <trkpt lat="46.82799" lon="5.79735">
        <ele>592.6</ele>
        <time>2022-05-24T14:46:01Z</time>
      </trkpt>
      <trkpt lat="46.82801" lon="5.79729">
        <ele>592.2</ele>
        <time>2022-05-24T14:46:02Z</time>
      </trkpt>
      <trkpt lat="46.82803" lon="5.79723">
        <ele>592.2</ele>
        <time>2022-05-24T14:46:03Z</time>
      </trkpt>
      <trkpt lat="46.82806" lon="5.79717">
        <ele>592</ele>
        <time>2022-05-24T14:46:04Z</time>
      </trkpt>
      <trkpt lat="46.82809" lon="5.79711">
        <ele>592</ele>
        <time>2022-05-24T14:46:05Z</time>
      </trkpt>
      <trkpt lat="46.82813" lon="5.79705">
        <ele>591.8</ele>
        <time>2022-05-24T14:46:06Z</time>
      </trkpt>
      <trkpt lat="46.82816" lon="5.797">
        <ele>591.8</ele>
        <time>2022-05-24T14:46:07Z</time>
      </trkpt>
      <trkpt lat="46.8282" lon="5.79695">
        <ele>591.6</ele>
        <time>2022-05-24T14:46:08Z</time>
      </trkpt>
      <trkpt lat="46.82824" lon="5.7969">
        <ele>591.6</ele>
        <time>2022-05-24T14:46:09Z</time>
      </trkpt>
      <trkpt lat="46.82828" lon="5.79687">
        <ele>591.6</ele>
        <time>2022-05-24T14:46:10Z</time>
      </trkpt>
      <trkpt lat="46.82832" lon="5.79684">
        <ele>591.8</ele>
        <time>2022-05-24T14:46:11Z</time>
      </trkpt>
      <trkpt lat="46.82835" lon="5.79682">
        <ele>591.8</ele>
        <time>2022-05-24T14:46:12Z</time>
      </trkpt>
      <trkpt lat="46.82839" lon="5.7968">
        <ele>591.8</ele>
        <time>2022-05-24T14:46:13Z</time>
      </trkpt>
      <trkpt lat="46.82843" lon="5.79678">
        <ele>591.6</ele>
        <time>2022-05-24T14:46:14Z</time>
      </trkpt>
      <trkpt lat="46.82846" lon="5.79676">
        <ele>591.6</ele>
        <time>2022-05-24T14:46:15Z</time>
      </trkpt>
      <trkpt lat="46.82849" lon="5.79674">
        <ele>591.6</ele>
        <time>2022-05-24T14:46:16Z</time>
      </trkpt>
      <trkpt lat="46.82853" lon="5.79672">
        <ele>591.6</ele>
        <time>2022-05-24T14:46:17Z</time>
      </trkpt>
      <trkpt lat="46.82856" lon="5.7967">
        <ele>591.4</ele>
        <time>2022-05-24T14:46:18Z</time>
      </trkpt>
      <trkpt lat="46.82859" lon="5.79667">
        <ele>591.4</ele>
        <time>2022-05-24T14:46:19Z</time>
      </trkpt>
      <trkpt lat="46.82862" lon="5.79664">
        <ele>591.4</ele>
        <time>2022-05-24T14:46:20Z</time>
      </trkpt>
      <trkpt lat="46.82862" lon="5.79664">
        <ele>591.4</ele>
        <time>2022-05-24T14:46:21Z</time>
      </trkpt>
      <trkpt lat="46.82866" lon="5.79661">
        <ele>591.2</ele>
        <time>2022-05-24T14:46:22Z</time>
      </trkpt>
      <trkpt lat="46.82868" lon="5.79657">
        <ele>591.2</ele>
        <time>2022-05-24T14:46:23Z</time>
      </trkpt>
      <trkpt lat="46.82871" lon="5.79652">
        <ele>591.2</ele>
        <time>2022-05-24T14:46:24Z</time>
      </trkpt>
      <trkpt lat="46.82874" lon="5.79647">
        <ele>591</ele>
        <time>2022-05-24T14:46:25Z</time>
      </trkpt>
      <trkpt lat="46.82876" lon="5.79641">
        <ele>591</ele>
        <time>2022-05-24T14:46:26Z</time>
      </trkpt>
      <trkpt lat="46.82879" lon="5.79635">
        <ele>591</ele>
        <time>2022-05-24T14:46:27Z</time>
      </trkpt>
      <trkpt lat="46.82882" lon="5.7963">
        <ele>590.8</ele>
        <time>2022-05-24T14:46:28Z</time>
      </trkpt>
      <trkpt lat="46.82884" lon="5.79624">
        <ele>590.8</ele>
        <time>2022-05-24T14:46:29Z</time>
      </trkpt>
      <trkpt lat="46.82887" lon="5.7962">
        <ele>590.8</ele>
        <time>2022-05-24T14:46:30Z</time>
      </trkpt>
      <trkpt lat="46.82889" lon="5.79615">
        <ele>590.4</ele>
        <time>2022-05-24T14:46:31Z</time>
      </trkpt>
      <trkpt lat="46.82893" lon="5.79611">
        <ele>590.4</ele>
        <time>2022-05-24T14:46:32Z</time>
      </trkpt>
      <trkpt lat="46.82896" lon="5.79608">
        <ele>590.4</ele>
        <time>2022-05-24T14:46:33Z</time>
      </trkpt>
      <trkpt lat="46.829" lon="5.79606">
        <ele>590.4</ele>
        <time>2022-05-24T14:46:34Z</time>
      </trkpt>
      <trkpt lat="46.82904" lon="5.79604">
        <ele>590.4</ele>
        <time>2022-05-24T14:46:35Z</time>
      </trkpt>
      <trkpt lat="46.82908" lon="5.79604">
        <ele>590.4</ele>
        <time>2022-05-24T14:46:36Z</time>
      </trkpt>
      <trkpt lat="46.82913" lon="5.79603">
        <ele>590.4</ele>
        <time>2022-05-24T14:46:37Z</time>
      </trkpt>
      <trkpt lat="46.82917" lon="5.79604">
        <ele>590.8</ele>
        <time>2022-05-24T14:46:38Z</time>
      </trkpt>
      <trkpt lat="46.8292" lon="5.79604">
        <ele>590.8</ele>
        <time>2022-05-24T14:46:39Z</time>
      </trkpt>
      <trkpt lat="46.82924" lon="5.79605">
        <ele>590.8</ele>
        <time>2022-05-24T14:46:40Z</time>
      </trkpt>
      <trkpt lat="46.82928" lon="5.79605">
        <ele>591</ele>
        <time>2022-05-24T14:46:41Z</time>
      </trkpt>
      <trkpt lat="46.82931" lon="5.79606">
        <ele>591</ele>
        <time>2022-05-24T14:46:42Z</time>
      </trkpt>
      <trkpt lat="46.82934" lon="5.79606">
        <ele>591.2</ele>
        <time>2022-05-24T14:46:43Z</time>
      </trkpt>
      <trkpt lat="46.82937" lon="5.79607">
        <ele>591.2</ele>
        <time>2022-05-24T14:46:44Z</time>
      </trkpt>
      <trkpt lat="46.8294" lon="5.79607">
        <ele>591.4</ele>
        <time>2022-05-24T14:46:45Z</time>
      </trkpt>
      <trkpt lat="46.82942" lon="5.79607">
        <ele>591.4</ele>
        <time>2022-05-24T14:46:46Z</time>
      </trkpt>
      <trkpt lat="46.82945" lon="5.79608">
        <ele>591.8</ele>
        <time>2022-05-24T14:46:47Z</time>
      </trkpt>
      <trkpt lat="46.82947" lon="5.79608">
        <ele>591.8</ele>
        <time>2022-05-24T14:46:48Z</time>
      </trkpt>
      <trkpt lat="46.8295" lon="5.79608">
        <ele>592</ele>
        <time>2022-05-24T14:46:49Z</time>
      </trkpt>
      <trkpt lat="46.82952" lon="5.79608">
        <ele>592</ele>
        <time>2022-05-24T14:46:50Z</time>
      </trkpt>
      <trkpt lat="46.82955" lon="5.79608">
        <ele>592.4</ele>
        <time>2022-05-24T14:46:51Z</time>
      </trkpt>
      <trkpt lat="46.82957" lon="5.79608">
        <ele>592.4</ele>
        <time>2022-05-24T14:46:52Z</time>
      </trkpt>
      <trkpt lat="46.8296" lon="5.79607">
        <ele>592.4</ele>
        <time>2022-05-24T14:46:53Z</time>
      </trkpt>
      <trkpt lat="46.82963" lon="5.79607">
        <ele>592.4</ele>
        <time>2022-05-24T14:46:54Z</time>
      </trkpt>
      <trkpt lat="46.82965" lon="5.79607">
        <ele>592.6</ele>
        <time>2022-05-24T14:46:55Z</time>
      </trkpt>
      <trkpt lat="46.82968" lon="5.79607">
        <ele>592.6</ele>
        <time>2022-05-24T14:46:56Z</time>
      </trkpt>
      <trkpt lat="46.82971" lon="5.79607">
        <ele>592.6</ele>
        <time>2022-05-24T14:46:57Z</time>
      </trkpt>
      <trkpt lat="46.82974" lon="5.79607">
        <ele>592.6</ele>
        <time>2022-05-24T14:46:58Z</time>
      </trkpt>
      <trkpt lat="46.82977" lon="5.79606">
        <ele>592.6</ele>
        <time>2022-05-24T14:46:59Z</time>
      </trkpt>
      <trkpt lat="46.8298" lon="5.79604">
        <ele>592.6</ele>
        <time>2022-05-24T14:47:00Z</time>
      </trkpt>
      <trkpt lat="46.82983" lon="5.79603">
        <ele>592.6</ele>
        <time>2022-05-24T14:47:01Z</time>
      </trkpt>
      <trkpt lat="46.82986" lon="5.79601">
        <ele>592.6</ele>
        <time>2022-05-24T14:47:02Z</time>
      </trkpt>
      <trkpt lat="46.82988" lon="5.796">
        <ele>592.6</ele>
        <time>2022-05-24T14:47:03Z</time>
      </trkpt>
      <trkpt lat="46.82991" lon="5.79599">
        <ele>592.6</ele>
        <time>2022-05-24T14:47:04Z</time>
      </trkpt>
      <trkpt lat="46.82993" lon="5.79598">
        <ele>592.6</ele>
        <time>2022-05-24T14:47:05Z</time>
      </trkpt>
      <trkpt lat="46.82995" lon="5.79597">
        <ele>592.6</ele>
        <time>2022-05-24T14:47:06Z</time>
      </trkpt>
      <trkpt lat="46.82998" lon="5.79596">
        <ele>592.4</ele>
        <time>2022-05-24T14:47:07Z</time>
      </trkpt>
      <trkpt lat="46.83" lon="5.79595">
        <ele>592.4</ele>
        <time>2022-05-24T14:47:08Z</time>
      </trkpt>
      <trkpt lat="46.83003" lon="5.79594">
        <ele>592.4</ele>
        <time>2022-05-24T14:47:09Z</time>
      </trkpt>
      <trkpt lat="46.83006" lon="5.79594">
        <ele>592.4</ele>
        <time>2022-05-24T14:47:10Z</time>
      </trkpt>
      <trkpt lat="46.83008" lon="5.79593">
        <ele>592.2</ele>
        <time>2022-05-24T14:47:11Z</time>
      </trkpt>
      <trkpt lat="46.83011" lon="5.79592">
        <ele>592.2</ele>
        <time>2022-05-24T14:47:12Z</time>
      </trkpt>
      <trkpt lat="46.83014" lon="5.79591">
        <ele>592</ele>
        <time>2022-05-24T14:47:13Z</time>
      </trkpt>
      <trkpt lat="46.83016" lon="5.79591">
        <ele>591.8</ele>
        <time>2022-05-24T14:47:14Z</time>
      </trkpt>
      <trkpt lat="46.83017" lon="5.79591">
        <ele>591.8</ele>
        <time>2022-05-24T14:47:15Z</time>
      </trkpt>
      <trkpt lat="46.83017" lon="5.79591">
        <ele>591.4</ele>
        <time>2022-05-24T14:47:16Z</time>
      </trkpt>
      <trkpt lat="46.83018" lon="5.79591">
        <ele>591.4</ele>
        <time>2022-05-24T14:47:17Z</time>
      </trkpt>
      <trkpt lat="46.83018" lon="5.79591">
        <ele>591.2</ele>
        <time>2022-05-24T14:47:19Z</time>
      </trkpt>
      <trkpt lat="46.83018" lon="5.79591">
        <ele>591.2</ele>
        <time>2022-05-24T14:47:20Z</time>
      </trkpt>
      <trkpt lat="46.83018" lon="5.79591">
        <ele>591.2</ele>
        <time>2022-05-24T14:47:21Z</time>
      </trkpt>
      <trkpt lat="46.83018" lon="5.79591">
        <ele>591.2</ele>
        <time>2022-05-24T14:47:22Z</time>
      </trkpt>
      <trkpt lat="46.83018" lon="5.79591">
        <ele>591.2</ele>
        <time>2022-05-24T14:47:23Z</time>
      </trkpt>
      <trkpt lat="46.83018" lon="5.79591">
        <ele>591.2</ele>
        <time>2022-05-24T14:47:24Z</time>
      </trkpt>
      <trkpt lat="46.83018" lon="5.79591">
        <ele>591</ele>
        <time>2022-05-24T14:49:07Z</time>
      </trkpt>
      <trkpt lat="46.83018" lon="5.79591">
        <ele>591</ele>
        <time>2022-05-24T14:49:08Z</time>
      </trkpt>
      <trkpt lat="46.8302" lon="5.79592">
        <ele>591</ele>
        <time>2022-05-24T14:49:09Z</time>
      </trkpt>
      <trkpt lat="46.83022" lon="5.79594">
        <ele>591</ele>
        <time>2022-05-24T14:49:10Z</time>
      </trkpt>
      <trkpt lat="46.83023" lon="5.79595">
        <ele>591</ele>
        <time>2022-05-24T14:49:11Z</time>
      </trkpt>
      <trkpt lat="46.83025" lon="5.79597">
        <ele>591</ele>
        <time>2022-05-24T14:49:12Z</time>
      </trkpt>
      <trkpt lat="46.83027" lon="5.79599">
        <ele>591</ele>
        <time>2022-05-24T14:49:13Z</time>
      </trkpt>
      <trkpt lat="46.83028" lon="5.79601">
        <ele>591</ele>
        <time>2022-05-24T14:49:14Z</time>
      </trkpt>
      <trkpt lat="46.83029" lon="5.79603">
        <ele>591</ele>
        <time>2022-05-24T14:49:15Z</time>
      </trkpt>
      <trkpt lat="46.83031" lon="5.79604">
        <ele>591</ele>
        <time>2022-05-24T14:49:16Z</time>
      </trkpt>
      <trkpt lat="46.83033" lon="5.79606">
        <ele>590.8</ele>
        <time>2022-05-24T14:49:17Z</time>
      </trkpt>
      <trkpt lat="46.83035" lon="5.79607">
        <ele>590.8</ele>
        <time>2022-05-24T14:49:18Z</time>
      </trkpt>
      <trkpt lat="46.83037" lon="5.79609">
        <ele>590.8</ele>
        <time>2022-05-24T14:49:19Z</time>
      </trkpt>
      <trkpt lat="46.8304" lon="5.79609">
        <ele>590.8</ele>
        <time>2022-05-24T14:49:20Z</time>
      </trkpt>
      <trkpt lat="46.83042" lon="5.7961">
        <ele>590.4</ele>
        <time>2022-05-24T14:49:21Z</time>
      </trkpt>
      <trkpt lat="46.83044" lon="5.79611">
        <ele>590.4</ele>
        <time>2022-05-24T14:49:22Z</time>
      </trkpt>
      <trkpt lat="46.83046" lon="5.79613">
        <ele>590.4</ele>
        <time>2022-05-24T14:49:23Z</time>
      </trkpt>
      <trkpt lat="46.83049" lon="5.79613">
        <ele>590.2</ele>
        <time>2022-05-24T14:49:24Z</time>
      </trkpt>
      <trkpt lat="46.83051" lon="5.79614">
        <ele>590.2</ele>
        <time>2022-05-24T14:49:25Z</time>
      </trkpt>
      <trkpt lat="46.83054" lon="5.79614">
        <ele>590.2</ele>
        <time>2022-05-24T14:49:26Z</time>
      </trkpt>
      <trkpt lat="46.83056" lon="5.79614">
        <ele>590.2</ele>
        <time>2022-05-24T14:49:27Z</time>
      </trkpt>
      <trkpt lat="46.83058" lon="5.79615">
        <ele>590.2</ele>
        <time>2022-05-24T14:49:28Z</time>
      </trkpt>
      <trkpt lat="46.8306" lon="5.79615">
        <ele>590.2</ele>
        <time>2022-05-24T14:49:29Z</time>
      </trkpt>
      <trkpt lat="46.83062" lon="5.79614">
        <ele>590.2</ele>
        <time>2022-05-24T14:49:30Z</time>
      </trkpt>
      <trkpt lat="46.83063" lon="5.79613">
        <ele>590.4</ele>
        <time>2022-05-24T14:49:31Z</time>
      </trkpt>
      <trkpt lat="46.83063" lon="5.79611">
        <ele>590.4</ele>
        <time>2022-05-24T14:49:32Z</time>
      </trkpt>
      <trkpt lat="46.83063" lon="5.7961">
        <ele>590.4</ele>
        <time>2022-05-24T14:49:33Z</time>
      </trkpt>
      <trkpt lat="46.83061" lon="5.7961">
        <ele>590.4</ele>
        <time>2022-05-24T14:49:34Z</time>
      </trkpt>
      <trkpt lat="46.8306" lon="5.7961">
        <ele>590.4</ele>
        <time>2022-05-24T14:49:35Z</time>
      </trkpt>
      <trkpt lat="46.83058" lon="5.7961">
        <ele>590.4</ele>
        <time>2022-05-24T14:49:36Z</time>
      </trkpt>
      <trkpt lat="46.83056" lon="5.7961">
        <ele>590.4</ele>
        <time>2022-05-24T14:49:37Z</time>
      </trkpt>
      <trkpt lat="46.83054" lon="5.7961">
        <ele>590.4</ele>
        <time>2022-05-24T14:49:38Z</time>
      </trkpt>
      <trkpt lat="46.83052" lon="5.79609">
        <ele>590.4</ele>
        <time>2022-05-24T14:49:39Z</time>
      </trkpt>
      <trkpt lat="46.83049" lon="5.79609">
        <ele>590.4</ele>
        <time>2022-05-24T14:49:40Z</time>
      </trkpt>
      <trkpt lat="46.83046" lon="5.79608">
        <ele>590.4</ele>
        <time>2022-05-24T14:49:41Z</time>
      </trkpt>
      <trkpt lat="46.83043" lon="5.79607">
        <ele>590.4</ele>
        <time>2022-05-24T14:49:42Z</time>
      </trkpt>
      <trkpt lat="46.8304" lon="5.79607">
        <ele>590.4</ele>
        <time>2022-05-24T14:49:43Z</time>
      </trkpt>
      <trkpt lat="46.83037" lon="5.79605">
        <ele>590.4</ele>
        <time>2022-05-24T14:49:44Z</time>
      </trkpt>
      <trkpt lat="46.83034" lon="5.79603">
        <ele>590.4</ele>
        <time>2022-05-24T14:49:45Z</time>
      </trkpt>
      <trkpt lat="46.83032" lon="5.79602">
        <ele>590.8</ele>
        <time>2022-05-24T14:49:46Z</time>
      </trkpt>
      <trkpt lat="46.8303" lon="5.796">
        <ele>590.8</ele>
        <time>2022-05-24T14:49:47Z</time>
      </trkpt>
      <trkpt lat="46.83028" lon="5.79598">
        <ele>591</ele>
        <time>2022-05-24T14:49:48Z</time>
      </trkpt>
      <trkpt lat="46.83025" lon="5.79596">
        <ele>591</ele>
        <time>2022-05-24T14:49:49Z</time>
      </trkpt>
      <trkpt lat="46.83022" lon="5.79594">
        <ele>591</ele>
        <time>2022-05-24T14:49:50Z</time>
      </trkpt>
      <trkpt lat="46.83019" lon="5.79594">
        <ele>591</ele>
        <time>2022-05-24T14:49:51Z</time>
      </trkpt>
      <trkpt lat="46.83016" lon="5.79594">
        <ele>591</ele>
        <time>2022-05-24T14:49:52Z</time>
      </trkpt>
      <trkpt lat="46.83012" lon="5.79594">
        <ele>591.4</ele>
        <time>2022-05-24T14:49:53Z</time>
      </trkpt>
      <trkpt lat="46.83009" lon="5.79595">
        <ele>591.4</ele>
        <time>2022-05-24T14:49:54Z</time>
      </trkpt>
      <trkpt lat="46.83006" lon="5.79596">
        <ele>591.4</ele>
        <time>2022-05-24T14:49:55Z</time>
      </trkpt>
      <trkpt lat="46.83002" lon="5.79597">
        <ele>591.6</ele>
        <time>2022-05-24T14:49:56Z</time>
      </trkpt>
      <trkpt lat="46.82999" lon="5.79598">
        <ele>591.6</ele>
        <time>2022-05-24T14:49:57Z</time>
      </trkpt>
      <trkpt lat="46.82995" lon="5.796">
        <ele>592</ele>
        <time>2022-05-24T14:49:58Z</time>
      </trkpt>
      <trkpt lat="46.82991" lon="5.79601">
        <ele>592</ele>
        <time>2022-05-24T14:49:59Z</time>
      </trkpt>
      <trkpt lat="46.82988" lon="5.79603">
        <ele>592</ele>
        <time>2022-05-24T14:50:00Z</time>
      </trkpt>
      <trkpt lat="46.82984" lon="5.79604">
        <ele>592.2</ele>
        <time>2022-05-24T14:50:01Z</time>
      </trkpt>
      <trkpt lat="46.8298" lon="5.79605">
        <ele>592.2</ele>
        <time>2022-05-24T14:50:02Z</time>
      </trkpt>
      <trkpt lat="46.82976" lon="5.79607">
        <ele>592.2</ele>
        <time>2022-05-24T14:50:03Z</time>
      </trkpt>
      <trkpt lat="46.82972" lon="5.79609">
        <ele>592.2</ele>
        <time>2022-05-24T14:50:04Z</time>
      </trkpt>
      <trkpt lat="46.82972" lon="5.79609">
        <ele>592.2</ele>
        <time>2022-05-24T14:50:05Z</time>
      </trkpt>
      <trkpt lat="46.82968" lon="5.7961">
        <ele>592.2</ele>
        <time>2022-05-24T14:50:06Z</time>
      </trkpt>
      <trkpt lat="46.82964" lon="5.7961">
        <ele>592.2</ele>
        <time>2022-05-24T14:50:07Z</time>
      </trkpt>
      <trkpt lat="46.82961" lon="5.79611">
        <ele>592.6</ele>
        <time>2022-05-24T14:50:08Z</time>
      </trkpt>
      <trkpt lat="46.82957" lon="5.79611">
        <ele>592.6</ele>
        <time>2022-05-24T14:50:09Z</time>
      </trkpt>
      <trkpt lat="46.82953" lon="5.7961">
        <ele>592.8</ele>
        <time>2022-05-24T14:50:10Z</time>
      </trkpt>
      <trkpt lat="46.82949" lon="5.7961">
        <ele>592.8</ele>
        <time>2022-05-24T14:50:11Z</time>
      </trkpt>
      <trkpt lat="46.82945" lon="5.7961">
        <ele>592.8</ele>
        <time>2022-05-24T14:50:12Z</time>
      </trkpt>
      <trkpt lat="46.82942" lon="5.79609">
        <ele>592.8</ele>
        <time>2022-05-24T14:50:13Z</time>
      </trkpt>
      <trkpt lat="46.82938" lon="5.79609">
        <ele>592.4</ele>
        <time>2022-05-24T14:50:14Z</time>
      </trkpt>
      <trkpt lat="46.82933" lon="5.79608">
        <ele>592.4</ele>
        <time>2022-05-24T14:50:15Z</time>
      </trkpt>
      <trkpt lat="46.82929" lon="5.79608">
        <ele>592.2</ele>
        <time>2022-05-24T14:50:16Z</time>
      </trkpt>
      <trkpt lat="46.82924" lon="5.79607">
        <ele>592.2</ele>
        <time>2022-05-24T14:50:17Z</time>
      </trkpt>
      <trkpt lat="46.8292" lon="5.79607">
        <ele>591.8</ele>
        <time>2022-05-24T14:50:18Z</time>
      </trkpt>
      <trkpt lat="46.82915" lon="5.79606">
        <ele>591.6</ele>
        <time>2022-05-24T14:50:19Z</time>
      </trkpt>
      <trkpt lat="46.8291" lon="5.79606">
        <ele>591.4</ele>
        <time>2022-05-24T14:50:20Z</time>
      </trkpt>
      <trkpt lat="46.82905" lon="5.79606">
        <ele>591.4</ele>
        <time>2022-05-24T14:50:21Z</time>
      </trkpt>
      <trkpt lat="46.829" lon="5.79607">
        <ele>591</ele>
        <time>2022-05-24T14:50:22Z</time>
      </trkpt>
      <trkpt lat="46.82896" lon="5.79609">
        <ele>590.8</ele>
        <time>2022-05-24T14:50:23Z</time>
      </trkpt>
      <trkpt lat="46.82891" lon="5.79613">
        <ele>590.8</ele>
        <time>2022-05-24T14:50:24Z</time>
      </trkpt>
      <trkpt lat="46.82888" lon="5.79617">
        <ele>590.4</ele>
        <time>2022-05-24T14:50:25Z</time>
      </trkpt>
      <trkpt lat="46.82884" lon="5.79621">
        <ele>590.4</ele>
        <time>2022-05-24T14:50:26Z</time>
      </trkpt>
      <trkpt lat="46.82881" lon="5.79625">
        <ele>590.4</ele>
        <time>2022-05-24T14:50:27Z</time>
      </trkpt>
      <trkpt lat="46.82879" lon="5.7963">
        <ele>590.2</ele>
        <time>2022-05-24T14:50:28Z</time>
      </trkpt>
      <trkpt lat="46.82876" lon="5.79635">
        <ele>590.2</ele>
        <time>2022-05-24T14:50:29Z</time>
      </trkpt>
      <trkpt lat="46.82873" lon="5.79641">
        <ele>590.2</ele>
        <time>2022-05-24T14:50:30Z</time>
      </trkpt>
      <trkpt lat="46.82871" lon="5.79646">
        <ele>590.2</ele>
        <time>2022-05-24T14:50:31Z</time>
      </trkpt>
      <trkpt lat="46.82868" lon="5.79651">
        <ele>590.2</ele>
        <time>2022-05-24T14:50:32Z</time>
      </trkpt>
      <trkpt lat="46.82866" lon="5.79656">
        <ele>590.4</ele>
        <time>2022-05-24T14:50:33Z</time>
      </trkpt>
      <trkpt lat="46.82863" lon="5.79661">
        <ele>590.6</ele>
        <time>2022-05-24T14:50:34Z</time>
      </trkpt>
      <trkpt lat="46.8286" lon="5.79665">
        <ele>590.6</ele>
        <time>2022-05-24T14:50:35Z</time>
      </trkpt>
      <trkpt lat="46.82856" lon="5.79668">
        <ele>591</ele>
        <time>2022-05-24T14:50:36Z</time>
      </trkpt>
      <trkpt lat="46.82853" lon="5.7967">
        <ele>591.2</ele>
        <time>2022-05-24T14:50:37Z</time>
      </trkpt>
      <trkpt lat="46.82849" lon="5.79673">
        <ele>591.2</ele>
        <time>2022-05-24T14:50:38Z</time>
      </trkpt>
      <trkpt lat="46.82846" lon="5.79675">
        <ele>591.2</ele>
        <time>2022-05-24T14:50:39Z</time>
      </trkpt>
      <trkpt lat="46.82842" lon="5.79677">
        <ele>591.2</ele>
        <time>2022-05-24T14:50:40Z</time>
      </trkpt>
      <trkpt lat="46.82838" lon="5.79679">
        <ele>591.4</ele>
        <time>2022-05-24T14:50:41Z</time>
      </trkpt>
      <trkpt lat="46.82834" lon="5.79682">
        <ele>591.4</ele>
        <time>2022-05-24T14:50:42Z</time>
      </trkpt>
      <trkpt lat="46.82831" lon="5.79685">
        <ele>591.4</ele>
        <time>2022-05-24T14:50:43Z</time>
      </trkpt>
      <trkpt lat="46.82827" lon="5.79688">
        <ele>591.4</ele>
        <time>2022-05-24T14:50:44Z</time>
      </trkpt>
      <trkpt lat="46.82823" lon="5.79691">
        <ele>591.4</ele>
        <time>2022-05-24T14:50:45Z</time>
      </trkpt>
      <trkpt lat="46.82819" lon="5.79695">
        <ele>591.4</ele>
        <time>2022-05-24T14:50:46Z</time>
      </trkpt>
      <trkpt lat="46.82816" lon="5.797">
        <ele>591.4</ele>
        <time>2022-05-24T14:50:47Z</time>
      </trkpt>
      <trkpt lat="46.82812" lon="5.79705">
        <ele>591.4</ele>
        <time>2022-05-24T14:50:48Z</time>
      </trkpt>
      <trkpt lat="46.82809" lon="5.7971">
        <ele>591.4</ele>
        <time>2022-05-24T14:50:49Z</time>
      </trkpt>
      <trkpt lat="46.82806" lon="5.79715">
        <ele>591.4</ele>
        <time>2022-05-24T14:50:50Z</time>
      </trkpt>
      <trkpt lat="46.82803" lon="5.79721">
        <ele>591.8</ele>
        <time>2022-05-24T14:50:51Z</time>
      </trkpt>
      <trkpt lat="46.82801" lon="5.79727">
        <ele>591.8</ele>
        <time>2022-05-24T14:50:52Z</time>
      </trkpt>
      <trkpt lat="46.82799" lon="5.79732">
        <ele>591.8</ele>
        <time>2022-05-24T14:50:53Z</time>
      </trkpt>
      <trkpt lat="46.82797" lon="5.79737">
        <ele>592</ele>
        <time>2022-05-24T14:50:54Z</time>
      </trkpt>
      <trkpt lat="46.82795" lon="5.79742">
        <ele>592</ele>
        <time>2022-05-24T14:50:55Z</time>
      </trkpt>
      <trkpt lat="46.82793" lon="5.79748">
        <ele>592.2</ele>
        <time>2022-05-24T14:50:56Z</time>
      </trkpt>
      <trkpt lat="46.82791" lon="5.79753">
        <ele>592.6</ele>
        <time>2022-05-24T14:50:57Z</time>
      </trkpt>
      <trkpt lat="46.82789" lon="5.79758">
        <ele>592.6</ele>
        <time>2022-05-24T14:50:58Z</time>
      </trkpt>
      <trkpt lat="46.82787" lon="5.79763">
        <ele>592.8</ele>
        <time>2022-05-24T14:50:59Z</time>
      </trkpt>
      <trkpt lat="46.82785" lon="5.79768">
        <ele>592.8</ele>
        <time>2022-05-24T14:51:00Z</time>
      </trkpt>
      <trkpt lat="46.82783" lon="5.79773">
        <ele>592.8</ele>
        <time>2022-05-24T14:51:01Z</time>
      </trkpt>
      <trkpt lat="46.82781" lon="5.79778">
        <ele>593.2</ele>
        <time>2022-05-24T14:51:02Z</time>
      </trkpt>
      <trkpt lat="46.82779" lon="5.79783">
        <ele>593.2</ele>
        <time>2022-05-24T14:51:03Z</time>
      </trkpt>
      <trkpt lat="46.82777" lon="5.79789">
        <ele>593.2</ele>
        <time>2022-05-24T14:51:04Z</time>
      </trkpt>
      <trkpt lat="46.82775" lon="5.79794">
        <ele>593.2</ele>
        <time>2022-05-24T14:51:05Z</time>
      </trkpt>
      <trkpt lat="46.82772" lon="5.79799">
        <ele>593.2</ele>
        <time>2022-05-24T14:51:06Z</time>
      </trkpt>
      <trkpt lat="46.82767" lon="5.7981">
        <ele>593.2</ele>
        <time>2022-05-24T14:51:07Z</time>
      </trkpt>
      <trkpt lat="46.82764" lon="5.79815">
        <ele>593.2</ele>
        <time>2022-05-24T14:51:08Z</time>
      </trkpt>
      <trkpt lat="46.82761" lon="5.79821">
        <ele>593.4</ele>
        <time>2022-05-24T14:51:09Z</time>
      </trkpt>
      <trkpt lat="46.82758" lon="5.79825">
        <ele>593.4</ele>
        <time>2022-05-24T14:51:10Z</time>
      </trkpt>
      <trkpt lat="46.82755" lon="5.7983">
        <ele>593.6</ele>
        <time>2022-05-24T14:51:11Z</time>
      </trkpt>
      <trkpt lat="46.82752" lon="5.79835">
        <ele>593.6</ele>
        <time>2022-05-24T14:51:12Z</time>
      </trkpt>
      <trkpt lat="46.82749" lon="5.7984">
        <ele>593.6</ele>
        <time>2022-05-24T14:51:13Z</time>
      </trkpt>
      <trkpt lat="46.82745" lon="5.79844">
        <ele>593.6</ele>
        <time>2022-05-24T14:51:14Z</time>
      </trkpt>
      <trkpt lat="46.82742" lon="5.79848">
        <ele>593.6</ele>
        <time>2022-05-24T14:51:15Z</time>
      </trkpt>
      <trkpt lat="46.82739" lon="5.79852">
        <ele>593.6</ele>
        <time>2022-05-24T14:51:16Z</time>
      </trkpt>
      <trkpt lat="46.82736" lon="5.79856">
        <ele>593.6</ele>
        <time>2022-05-24T14:51:17Z</time>
      </trkpt>
      <trkpt lat="46.82733" lon="5.7986">
        <ele>593.6</ele>
        <time>2022-05-24T14:51:18Z</time>
      </trkpt>
      <trkpt lat="46.8273" lon="5.79864">
        <ele>593.6</ele>
        <time>2022-05-24T14:51:19Z</time>
      </trkpt>
      <trkpt lat="46.82727" lon="5.79867">
        <ele>593.6</ele>
        <time>2022-05-24T14:51:20Z</time>
      </trkpt>
      <trkpt lat="46.82723" lon="5.7987">
        <ele>593.6</ele>
        <time>2022-05-24T14:51:21Z</time>
      </trkpt>
      <trkpt lat="46.8272" lon="5.79873">
        <ele>593.4</ele>
        <time>2022-05-24T14:51:22Z</time>
      </trkpt>
      <trkpt lat="46.82716" lon="5.79877">
        <ele>593.4</ele>
        <time>2022-05-24T14:51:23Z</time>
      </trkpt>
      <trkpt lat="46.82713" lon="5.7988">
        <ele>593.2</ele>
        <time>2022-05-24T14:51:24Z</time>
      </trkpt>
      <trkpt lat="46.82709" lon="5.79884">
        <ele>593.2</ele>
        <time>2022-05-24T14:51:25Z</time>
      </trkpt>
      <trkpt lat="46.82706" lon="5.79887">
        <ele>593.2</ele>
        <time>2022-05-24T14:51:26Z</time>
      </trkpt>
      <trkpt lat="46.82703" lon="5.7989">
        <ele>592.8</ele>
        <time>2022-05-24T14:51:27Z</time>
      </trkpt>
      <trkpt lat="46.82701" lon="5.79893">
        <ele>592.6</ele>
        <time>2022-05-24T14:51:28Z</time>
      </trkpt>
      <trkpt lat="46.82698" lon="5.79895">
        <ele>592.6</ele>
        <time>2022-05-24T14:51:29Z</time>
      </trkpt>
      <trkpt lat="46.82697" lon="5.79897">
        <ele>592.4</ele>
        <time>2022-05-24T14:51:30Z</time>
      </trkpt>
      <trkpt lat="46.82696" lon="5.79898">
        <ele>592.4</ele>
        <time>2022-05-24T14:51:31Z</time>
      </trkpt>
      <trkpt lat="46.82696" lon="5.79898">
        <ele>592.2</ele>
        <time>2022-05-24T14:51:32Z</time>
      </trkpt>
      <trkpt lat="46.82696" lon="5.79899">
        <ele>592.2</ele>
        <time>2022-05-24T14:51:33Z</time>
      </trkpt>
      <trkpt lat="46.82695" lon="5.79899">
        <ele>591.8</ele>
        <time>2022-05-24T14:51:34Z</time>
      </trkpt>
      <trkpt lat="46.82695" lon="5.79899">
        <ele>591.6</ele>
        <time>2022-05-24T14:51:40Z</time>
      </trkpt>
      <trkpt lat="46.82695" lon="5.79899">
        <ele>591.6</ele>
        <time>2022-05-24T14:51:41Z</time>
      </trkpt>
      <trkpt lat="46.82694" lon="5.799">
        <ele>591.6</ele>
        <time>2022-05-24T14:51:42Z</time>
      </trkpt>
      <trkpt lat="46.82694" lon="5.799">
        <ele>591.6</ele>
        <time>2022-05-24T14:51:43Z</time>
      </trkpt>
      <trkpt lat="46.82694" lon="5.799">
        <ele>591.6</ele>
        <time>2022-05-24T14:51:46Z</time>
      </trkpt>
      <trkpt lat="46.82693" lon="5.799">
        <ele>591.6</ele>
        <time>2022-05-24T14:51:47Z</time>
      </trkpt>
      <trkpt lat="46.82693" lon="5.79901">
        <ele>591.6</ele>
        <time>2022-05-24T14:51:49Z</time>
      </trkpt>
      <trkpt lat="46.82693" lon="5.79901">
        <ele>591.6</ele>
        <time>2022-05-24T14:51:50Z</time>
      </trkpt>
      <trkpt lat="46.82692" lon="5.79901">
        <ele>591.6</ele>
        <time>2022-05-24T14:51:51Z</time>
      </trkpt>
      <trkpt lat="46.82692" lon="5.79901">
        <ele>591.4</ele>
        <time>2022-05-24T14:51:52Z</time>
      </trkpt>
      <trkpt lat="46.82692" lon="5.79901">
        <ele>591.4</ele>
        <time>2022-05-24T14:51:53Z</time>
      </trkpt>
      <trkpt lat="46.82692" lon="5.79902">
        <ele>591.4</ele>
        <time>2022-05-24T14:51:54Z</time>
      </trkpt>
      <trkpt lat="46.82691" lon="5.79902">
        <ele>591.4</ele>
        <time>2022-05-24T14:51:55Z</time>
      </trkpt>
      <trkpt lat="46.8269" lon="5.79903">
        <ele>591.2</ele>
        <time>2022-05-24T14:51:56Z</time>
      </trkpt>
      <trkpt lat="46.82688" lon="5.79905">
        <ele>591.2</ele>
        <time>2022-05-24T14:51:57Z</time>
      </trkpt>
      <trkpt lat="46.82687" lon="5.79906">
        <ele>591.2</ele>
        <time>2022-05-24T14:51:58Z</time>
      </trkpt>
      <trkpt lat="46.82685" lon="5.79908">
        <ele>591.2</ele>
        <time>2022-05-24T14:51:59Z</time>
      </trkpt>
      <trkpt lat="46.82684" lon="5.7991">
        <ele>591.2</ele>
        <time>2022-05-24T14:52:00Z</time>
      </trkpt>
      <trkpt lat="46.82682" lon="5.79912">
        <ele>591</ele>
        <time>2022-05-24T14:52:01Z</time>
      </trkpt>
      <trkpt lat="46.82679" lon="5.79915">
        <ele>591</ele>
        <time>2022-05-24T14:52:02Z</time>
      </trkpt>
      <trkpt lat="46.82677" lon="5.79917">
        <ele>591</ele>
        <time>2022-05-24T14:52:03Z</time>
      </trkpt>
      <trkpt lat="46.82674" lon="5.7992">
        <ele>591</ele>
        <time>2022-05-24T14:52:04Z</time>
      </trkpt>
      <trkpt lat="46.82671" lon="5.79923">
        <ele>590.8</ele>
        <time>2022-05-24T14:52:05Z</time>
      </trkpt>
      <trkpt lat="46.82668" lon="5.79926">
        <ele>590.8</ele>
        <time>2022-05-24T14:52:06Z</time>
      </trkpt>
      <trkpt lat="46.82665" lon="5.7993">
        <ele>590.8</ele>
        <time>2022-05-24T14:52:07Z</time>
      </trkpt>
      <trkpt lat="46.82661" lon="5.79934">
        <ele>590.8</ele>
        <time>2022-05-24T14:52:08Z</time>
      </trkpt>
      <trkpt lat="46.82658" lon="5.79938">
        <ele>590.4</ele>
        <time>2022-05-24T14:52:09Z</time>
      </trkpt>
      <trkpt lat="46.82654" lon="5.79943">
        <ele>590.4</ele>
        <time>2022-05-24T14:52:10Z</time>
      </trkpt>
      <trkpt lat="46.82651" lon="5.79947">
        <ele>590.2</ele>
        <time>2022-05-24T14:52:11Z</time>
      </trkpt>
      <trkpt lat="46.82647" lon="5.79952">
        <ele>590.2</ele>
        <time>2022-05-24T14:52:12Z</time>
      </trkpt>
      <trkpt lat="46.82643" lon="5.79958">
        <ele>589.8</ele>
        <time>2022-05-24T14:52:13Z</time>
      </trkpt>
      <trkpt lat="46.8264" lon="5.79963">
        <ele>589.6</ele>
        <time>2022-05-24T14:52:14Z</time>
      </trkpt>
      <trkpt lat="46.82636" lon="5.79969">
        <ele>589.6</ele>
        <time>2022-05-24T14:52:15Z</time>
      </trkpt>
      <trkpt lat="46.82633" lon="5.79975">
        <ele>589.4</ele>
        <time>2022-05-24T14:52:16Z</time>
      </trkpt>
      <trkpt lat="46.8263" lon="5.79982">
        <ele>589.4</ele>
        <time>2022-05-24T14:52:17Z</time>
      </trkpt>
      <trkpt lat="46.82626" lon="5.79988">
        <ele>589</ele>
        <time>2022-05-24T14:52:18Z</time>
      </trkpt>
      <trkpt lat="46.82623" lon="5.79994">
        <ele>588.6</ele>
        <time>2022-05-24T14:52:19Z</time>
      </trkpt>
      <trkpt lat="46.8262" lon="5.80001">
        <ele>588.4</ele>
        <time>2022-05-24T14:52:20Z</time>
      </trkpt>
      <trkpt lat="46.82617" lon="5.80008">
        <ele>588.4</ele>
        <time>2022-05-24T14:52:21Z</time>
      </trkpt>
      <trkpt lat="46.82613" lon="5.80014">
        <ele>588</ele>
        <time>2022-05-24T14:52:22Z</time>
      </trkpt>
      <trkpt lat="46.8261" lon="5.80021">
        <ele>588</ele>
        <time>2022-05-24T14:52:23Z</time>
      </trkpt>
      <trkpt lat="46.82607" lon="5.80028">
        <ele>587.8</ele>
        <time>2022-05-24T14:52:24Z</time>
      </trkpt>
      <trkpt lat="46.82603" lon="5.80035">
        <ele>587.8</ele>
        <time>2022-05-24T14:52:25Z</time>
      </trkpt>
      <trkpt lat="46.826" lon="5.80041">
        <ele>587.8</ele>
        <time>2022-05-24T14:52:26Z</time>
      </trkpt>
      <trkpt lat="46.82597" lon="5.80048">
        <ele>587.8</ele>
        <time>2022-05-24T14:52:27Z</time>
      </trkpt>
      <trkpt lat="46.82593" lon="5.80054">
        <ele>587.8</ele>
        <time>2022-05-24T14:52:28Z</time>
      </trkpt>
      <trkpt lat="46.8259" lon="5.8006">
        <ele>587.8</ele>
        <time>2022-05-24T14:52:29Z</time>
      </trkpt>
      <trkpt lat="46.82586" lon="5.80066">
        <ele>587.6</ele>
        <time>2022-05-24T14:52:30Z</time>
      </trkpt>
      <trkpt lat="46.82582" lon="5.80072">
        <ele>587.6</ele>
        <time>2022-05-24T14:52:31Z</time>
      </trkpt>
      <trkpt lat="46.82578" lon="5.80079">
        <ele>587.6</ele>
        <time>2022-05-24T14:52:32Z</time>
      </trkpt>
      <trkpt lat="46.82574" lon="5.80085">
        <ele>587.6</ele>
        <time>2022-05-24T14:52:33Z</time>
      </trkpt>
      <trkpt lat="46.8257" lon="5.80091">
        <ele>587.6</ele>
        <time>2022-05-24T14:52:34Z</time>
      </trkpt>
      <trkpt lat="46.82566" lon="5.80098">
        <ele>587.2</ele>
        <time>2022-05-24T14:52:35Z</time>
      </trkpt>
      <trkpt lat="46.82562" lon="5.80104">
        <ele>587.2</ele>
        <time>2022-05-24T14:52:36Z</time>
      </trkpt>
      <trkpt lat="46.82558" lon="5.80111">
        <ele>587</ele>
        <time>2022-05-24T14:52:37Z</time>
      </trkpt>
      <trkpt lat="46.82554" lon="5.80118">
        <ele>587</ele>
        <time>2022-05-24T14:52:38Z</time>
      </trkpt>
      <trkpt lat="46.8255" lon="5.80126">
        <ele>587</ele>
        <time>2022-05-24T14:52:39Z</time>
      </trkpt>
      <trkpt lat="46.82545" lon="5.80133">
        <ele>587</ele>
        <time>2022-05-24T14:52:40Z</time>
      </trkpt>
      <trkpt lat="46.82541" lon="5.8014">
        <ele>587</ele>
        <time>2022-05-24T14:52:41Z</time>
      </trkpt>
      <trkpt lat="46.82536" lon="5.80148">
        <ele>586.8</ele>
        <time>2022-05-24T14:52:42Z</time>
      </trkpt>
      <trkpt lat="46.82531" lon="5.80156">
        <ele>586.8</ele>
        <time>2022-05-24T14:52:43Z</time>
      </trkpt>
      <trkpt lat="46.82527" lon="5.80163">
        <ele>586.8</ele>
        <time>2022-05-24T14:52:44Z</time>
      </trkpt>
      <trkpt lat="46.82527" lon="5.80163">
        <ele>586.8</ele>
        <time>2022-05-24T14:52:45Z</time>
      </trkpt>
      <trkpt lat="46.82521" lon="5.8017">
        <ele>586.8</ele>
        <time>2022-05-24T14:52:46Z</time>
      </trkpt>
      <trkpt lat="46.82516" lon="5.80177">
        <ele>586.8</ele>
        <time>2022-05-24T14:52:47Z</time>
      </trkpt>
      <trkpt lat="46.8251" lon="5.80182">
        <ele>586.4</ele>
        <time>2022-05-24T14:52:48Z</time>
      </trkpt>
      <trkpt lat="46.82504" lon="5.80186">
        <ele>586.4</ele>
        <time>2022-05-24T14:52:49Z</time>
      </trkpt>
      <trkpt lat="46.82498" lon="5.8019">
        <ele>586</ele>
        <time>2022-05-24T14:52:50Z</time>
      </trkpt>
      <trkpt lat="46.82492" lon="5.80194">
        <ele>585.8</ele>
        <time>2022-05-24T14:52:51Z</time>
      </trkpt>
      <trkpt lat="46.82486" lon="5.80198">
        <ele>585.8</ele>
        <time>2022-05-24T14:52:52Z</time>
      </trkpt>
      <trkpt lat="46.8248" lon="5.80202">
        <ele>585.6</ele>
        <time>2022-05-24T14:52:53Z</time>
      </trkpt>
      <trkpt lat="46.82474" lon="5.80206">
        <ele>585.6</ele>
        <time>2022-05-24T14:52:54Z</time>
      </trkpt>
      <trkpt lat="46.82469" lon="5.80211">
        <ele>585.6</ele>
        <time>2022-05-24T14:52:55Z</time>
      </trkpt>
      <trkpt lat="46.82464" lon="5.80217">
        <ele>585.6</ele>
        <time>2022-05-24T14:52:56Z</time>
      </trkpt>
      <trkpt lat="46.82459" lon="5.80224">
        <ele>585.8</ele>
        <time>2022-05-24T14:52:57Z</time>
      </trkpt>
      <trkpt lat="46.82456" lon="5.80231">
        <ele>585.8</ele>
        <time>2022-05-24T14:52:58Z</time>
      </trkpt>
      <trkpt lat="46.82453" lon="5.80239">
        <ele>586</ele>
        <time>2022-05-24T14:52:59Z</time>
      </trkpt>
      <trkpt lat="46.82451" lon="5.80247">
        <ele>586</ele>
        <time>2022-05-24T14:53:00Z</time>
      </trkpt>
      <trkpt lat="46.82449" lon="5.80254">
        <ele>586.4</ele>
        <time>2022-05-24T14:53:01Z</time>
      </trkpt>
      <trkpt lat="46.82447" lon="5.80261">
        <ele>586.4</ele>
        <time>2022-05-24T14:53:02Z</time>
      </trkpt>
      <trkpt lat="46.82445" lon="5.80267">
        <ele>586.6</ele>
        <time>2022-05-24T14:53:03Z</time>
      </trkpt>
      <trkpt lat="46.82443" lon="5.80272">
        <ele>586.6</ele>
        <time>2022-05-24T14:53:04Z</time>
      </trkpt>
      <trkpt lat="46.82442" lon="5.80277">
        <ele>587</ele>
        <time>2022-05-24T14:53:05Z</time>
      </trkpt>
      <trkpt lat="46.8244" lon="5.80281">
        <ele>587</ele>
        <time>2022-05-24T14:53:06Z</time>
      </trkpt>
      <trkpt lat="46.82438" lon="5.80285">
        <ele>587.2</ele>
        <time>2022-05-24T14:53:07Z</time>
      </trkpt>
      <trkpt lat="46.82437" lon="5.80289">
        <ele>587.2</ele>
        <time>2022-05-24T14:53:08Z</time>
      </trkpt>
      <trkpt lat="46.82436" lon="5.80293">
        <ele>587.4</ele>
        <time>2022-05-24T14:53:09Z</time>
      </trkpt>
      <trkpt lat="46.82434" lon="5.80296">
        <ele>587.4</ele>
        <time>2022-05-24T14:53:10Z</time>
      </trkpt>
      <trkpt lat="46.82433" lon="5.80299">
        <ele>587.8</ele>
        <time>2022-05-24T14:53:11Z</time>
      </trkpt>
      <trkpt lat="46.82431" lon="5.80302">
        <ele>587.8</ele>
        <time>2022-05-24T14:53:12Z</time>
      </trkpt>
      <trkpt lat="46.8243" lon="5.80304">
        <ele>587.8</ele>
        <time>2022-05-24T14:53:13Z</time>
      </trkpt>
      <trkpt lat="46.82429" lon="5.80305">
        <ele>587.8</ele>
        <time>2022-05-24T14:53:14Z</time>
      </trkpt>
      <trkpt lat="46.82429" lon="5.80306">
        <ele>588</ele>
        <time>2022-05-24T14:53:15Z</time>
      </trkpt>
      <trkpt lat="46.82429" lon="5.80306">
        <ele>588.2</ele>
        <time>2022-05-24T14:53:18Z</time>
      </trkpt>
      <trkpt lat="46.82429" lon="5.80306">
        <ele>588.2</ele>
        <time>2022-05-24T14:53:19Z</time>
      </trkpt>
      <trkpt lat="46.82429" lon="5.80306">
        <ele>588.2</ele>
        <time>2022-05-24T14:53:20Z</time>
      </trkpt>
      <trkpt lat="46.82429" lon="5.80306">
        <ele>588.2</ele>
        <time>2022-05-24T14:53:21Z</time>
      </trkpt>
      <trkpt lat="46.82429" lon="5.80306">
        <ele>588.2</ele>
        <time>2022-05-24T14:53:22Z</time>
      </trkpt>
      <trkpt lat="46.82429" lon="5.80306">
        <ele>588.2</ele>
        <time>2022-05-24T14:53:23Z</time>
      </trkpt>
      <trkpt lat="46.82429" lon="5.80306">
        <ele>588.4</ele>
        <time>2022-05-24T14:53:38Z</time>
      </trkpt>
      <trkpt lat="46.82429" lon="5.80306">
        <ele>588.4</ele>
        <time>2022-05-24T14:53:39Z</time>
      </trkpt>
      <trkpt lat="46.82429" lon="5.80306">
        <ele>588.4</ele>
        <time>2022-05-24T14:53:41Z</time>
      </trkpt>
      <trkpt lat="46.82428" lon="5.80309">
        <ele>588.4</ele>
        <time>2022-05-24T14:53:42Z</time>
      </trkpt>
      <trkpt lat="46.82427" lon="5.80311">
        <ele>588.6</ele>
        <time>2022-05-24T14:53:43Z</time>
      </trkpt>
      <trkpt lat="46.82426" lon="5.80313">
        <ele>588.6</ele>
        <time>2022-05-24T14:53:44Z</time>
      </trkpt>
      <trkpt lat="46.82425" lon="5.80316">
        <ele>588.6</ele>
        <time>2022-05-24T14:53:45Z</time>
      </trkpt>
      <trkpt lat="46.82424" lon="5.80318">
        <ele>588.6</ele>
        <time>2022-05-24T14:53:46Z</time>
      </trkpt>
      <trkpt lat="46.82423" lon="5.80321">
        <ele>589</ele>
        <time>2022-05-24T14:53:47Z</time>
      </trkpt>
      <trkpt lat="46.82422" lon="5.80324">
        <ele>589</ele>
        <time>2022-05-24T14:53:48Z</time>
      </trkpt>
      <trkpt lat="46.8242" lon="5.80327">
        <ele>589</ele>
        <time>2022-05-24T14:53:49Z</time>
      </trkpt>
      <trkpt lat="46.82419" lon="5.80331">
        <ele>589</ele>
        <time>2022-05-24T14:53:50Z</time>
      </trkpt>
      <trkpt lat="46.82418" lon="5.80335">
        <ele>589</ele>
        <time>2022-05-24T14:53:51Z</time>
      </trkpt>
      <trkpt lat="46.82417" lon="5.80339">
        <ele>589</ele>
        <time>2022-05-24T14:53:52Z</time>
      </trkpt>
      <trkpt lat="46.82415" lon="5.80344">
        <ele>589</ele>
        <time>2022-05-24T14:53:53Z</time>
      </trkpt>
      <trkpt lat="46.82413" lon="5.80349">
        <ele>589</ele>
        <time>2022-05-24T14:53:54Z</time>
      </trkpt>
      <trkpt lat="46.82411" lon="5.80354">
        <ele>589</ele>
        <time>2022-05-24T14:53:55Z</time>
      </trkpt>
      <trkpt lat="46.82409" lon="5.80359">
        <ele>589</ele>
        <time>2022-05-24T14:53:56Z</time>
      </trkpt>
      <trkpt lat="46.82407" lon="5.80364">
        <ele>588.6</ele>
        <time>2022-05-24T14:53:57Z</time>
      </trkpt>
      <trkpt lat="46.82406" lon="5.80369">
        <ele>588.6</ele>
        <time>2022-05-24T14:53:58Z</time>
      </trkpt>
      <trkpt lat="46.82404" lon="5.80375">
        <ele>588.6</ele>
        <time>2022-05-24T14:53:59Z</time>
      </trkpt>
      <trkpt lat="46.82402" lon="5.80381">
        <ele>588.6</ele>
        <time>2022-05-24T14:54:00Z</time>
      </trkpt>
      <trkpt lat="46.82401" lon="5.80387">
        <ele>588.4</ele>
        <time>2022-05-24T14:54:01Z</time>
      </trkpt>
      <trkpt lat="46.82398" lon="5.80393">
        <ele>588.4</ele>
        <time>2022-05-24T14:54:02Z</time>
      </trkpt>
      <trkpt lat="46.82396" lon="5.804">
        <ele>588</ele>
        <time>2022-05-24T14:54:03Z</time>
      </trkpt>
      <trkpt lat="46.82394" lon="5.80406">
        <ele>588</ele>
        <time>2022-05-24T14:54:04Z</time>
      </trkpt>
      <trkpt lat="46.82392" lon="5.80413">
        <ele>588</ele>
        <time>2022-05-24T14:54:05Z</time>
      </trkpt>
      <trkpt lat="46.8239" lon="5.80421">
        <ele>587.8</ele>
        <time>2022-05-24T14:54:06Z</time>
      </trkpt>
      <trkpt lat="46.82388" lon="5.80428">
        <ele>587.8</ele>
        <time>2022-05-24T14:54:07Z</time>
      </trkpt>
      <trkpt lat="46.82386" lon="5.80436">
        <ele>587.8</ele>
        <time>2022-05-24T14:54:08Z</time>
      </trkpt>
      <trkpt lat="46.82384" lon="5.80443">
        <ele>587.8</ele>
        <time>2022-05-24T14:54:09Z</time>
      </trkpt>
      <trkpt lat="46.82383" lon="5.80451">
        <ele>587.6</ele>
        <time>2022-05-24T14:54:10Z</time>
      </trkpt>
      <trkpt lat="46.82381" lon="5.8046">
        <ele>587.6</ele>
        <time>2022-05-24T14:54:11Z</time>
      </trkpt>
      <trkpt lat="46.8238" lon="5.80468">
        <ele>587.4</ele>
        <time>2022-05-24T14:54:12Z</time>
      </trkpt>
      <trkpt lat="46.82378" lon="5.80477">
        <ele>587.2</ele>
        <time>2022-05-24T14:54:13Z</time>
      </trkpt>
      <trkpt lat="46.82376" lon="5.80485">
        <ele>586.8</ele>
        <time>2022-05-24T14:54:14Z</time>
      </trkpt>
      <trkpt lat="46.82374" lon="5.80494">
        <ele>586.6</ele>
        <time>2022-05-24T14:54:15Z</time>
      </trkpt>
      <trkpt lat="46.82372" lon="5.80502">
        <ele>586.2</ele>
        <time>2022-05-24T14:54:16Z</time>
      </trkpt>
      <trkpt lat="46.82371" lon="5.80509">
        <ele>585.8</ele>
        <time>2022-05-24T14:54:17Z</time>
      </trkpt>
      <trkpt lat="46.8237" lon="5.80515">
        <ele>585.4</ele>
        <time>2022-05-24T14:54:18Z</time>
      </trkpt>
      <trkpt lat="46.82371" lon="5.80521">
        <ele>585.2</ele>
        <time>2022-05-24T14:54:19Z</time>
      </trkpt>
      <trkpt lat="46.82373" lon="5.80527">
        <ele>585</ele>
        <time>2022-05-24T14:54:20Z</time>
      </trkpt>
      <trkpt lat="46.82376" lon="5.80533">
        <ele>584.6</ele>
        <time>2022-05-24T14:54:21Z</time>
      </trkpt>
      <trkpt lat="46.82379" lon="5.8054">
        <ele>584.4</ele>
        <time>2022-05-24T14:54:22Z</time>
      </trkpt>
      <trkpt lat="46.82382" lon="5.80546">
        <ele>584.2</ele>
        <time>2022-05-24T14:54:23Z</time>
      </trkpt>
      <trkpt lat="46.82386" lon="5.80553">
        <ele>584.2</ele>
        <time>2022-05-24T14:54:24Z</time>
      </trkpt>
      <trkpt lat="46.82391" lon="5.80559">
        <ele>583.8</ele>
        <time>2022-05-24T14:54:25Z</time>
      </trkpt>
      <trkpt lat="46.82396" lon="5.80564">
        <ele>583.4</ele>
        <time>2022-05-24T14:54:26Z</time>
      </trkpt>
      <trkpt lat="46.82401" lon="5.80569">
        <ele>583.2</ele>
        <time>2022-05-24T14:54:27Z</time>
      </trkpt>
      <trkpt lat="46.82407" lon="5.80574">
        <ele>583</ele>
        <time>2022-05-24T14:54:28Z</time>
      </trkpt>
      <trkpt lat="46.82407" lon="5.80574">
        <ele>582.6</ele>
        <time>2022-05-24T14:54:29Z</time>
      </trkpt>
      <trkpt lat="46.82417" lon="5.80583">
        <ele>582.2</ele>
        <time>2022-05-24T14:54:30Z</time>
      </trkpt>
      <trkpt lat="46.82421" lon="5.80587">
        <ele>582.2</ele>
        <time>2022-05-24T14:54:31Z</time>
      </trkpt>
      <trkpt lat="46.8243" lon="5.80595">
        <ele>581.8</ele>
        <time>2022-05-24T14:54:32Z</time>
      </trkpt>
      <trkpt lat="46.82435" lon="5.80601">
        <ele>581.8</ele>
        <time>2022-05-24T14:54:33Z</time>
      </trkpt>
      <trkpt lat="46.82441" lon="5.80608">
        <ele>581.6</ele>
        <time>2022-05-24T14:54:34Z</time>
      </trkpt>
      <trkpt lat="46.82447" lon="5.80613">
        <ele>581.6</ele>
        <time>2022-05-24T14:54:35Z</time>
      </trkpt>
      <trkpt lat="46.82453" lon="5.80618">
        <ele>581.6</ele>
        <time>2022-05-24T14:54:36Z</time>
      </trkpt>
      <trkpt lat="46.82459" lon="5.80623">
        <ele>581.4</ele>
        <time>2022-05-24T14:54:37Z</time>
      </trkpt>
      <trkpt lat="46.82466" lon="5.80627">
        <ele>581.4</ele>
        <time>2022-05-24T14:54:38Z</time>
      </trkpt>
      <trkpt lat="46.82472" lon="5.80632">
        <ele>581.4</ele>
        <time>2022-05-24T14:54:39Z</time>
      </trkpt>
      <trkpt lat="46.82477" lon="5.80637">
        <ele>581.4</ele>
        <time>2022-05-24T14:54:40Z</time>
      </trkpt>
      <trkpt lat="46.82481" lon="5.80643">
        <ele>581.4</ele>
        <time>2022-05-24T14:54:41Z</time>
      </trkpt>
      <trkpt lat="46.82485" lon="5.8065">
        <ele>581.4</ele>
        <time>2022-05-24T14:54:42Z</time>
      </trkpt>
      <trkpt lat="46.82487" lon="5.80657">
        <ele>581.8</ele>
        <time>2022-05-24T14:54:43Z</time>
      </trkpt>
      <trkpt lat="46.82488" lon="5.80665">
        <ele>582.2</ele>
        <time>2022-05-24T14:54:44Z</time>
      </trkpt>
      <trkpt lat="46.82488" lon="5.80672">
        <ele>582.6</ele>
        <time>2022-05-24T14:54:45Z</time>
      </trkpt>
      <trkpt lat="46.82488" lon="5.80679">
        <ele>582.8</ele>
        <time>2022-05-24T14:54:46Z</time>
      </trkpt>
      <trkpt lat="46.82488" lon="5.80685">
        <ele>583</ele>
        <time>2022-05-24T14:54:47Z</time>
      </trkpt>
      <trkpt lat="46.82487" lon="5.80692">
        <ele>583.4</ele>
        <time>2022-05-24T14:54:48Z</time>
      </trkpt>
      <trkpt lat="46.82486" lon="5.80697">
        <ele>583.6</ele>
        <time>2022-05-24T14:54:49Z</time>
      </trkpt>
      <trkpt lat="46.82485" lon="5.80703">
        <ele>583.6</ele>
        <time>2022-05-24T14:54:50Z</time>
      </trkpt>
      <trkpt lat="46.82484" lon="5.80708">
        <ele>584</ele>
        <time>2022-05-24T14:54:51Z</time>
      </trkpt>
      <trkpt lat="46.82484" lon="5.80713">
        <ele>584</ele>
        <time>2022-05-24T14:54:52Z</time>
      </trkpt>
      <trkpt lat="46.82483" lon="5.80718">
        <ele>584.2</ele>
        <time>2022-05-24T14:54:53Z</time>
      </trkpt>
      <trkpt lat="46.82483" lon="5.80724">
        <ele>584.2</ele>
        <time>2022-05-24T14:54:54Z</time>
      </trkpt>
      <trkpt lat="46.82483" lon="5.80729">
        <ele>584.2</ele>
        <time>2022-05-24T14:54:55Z</time>
      </trkpt>
      <trkpt lat="46.82482" lon="5.80735">
        <ele>584.2</ele>
        <time>2022-05-24T14:54:56Z</time>
      </trkpt>
      <trkpt lat="46.82482" lon="5.80742">
        <ele>584.2</ele>
        <time>2022-05-24T14:54:57Z</time>
      </trkpt>
      <trkpt lat="46.82482" lon="5.80749">
        <ele>584</ele>
        <time>2022-05-24T14:54:58Z</time>
      </trkpt>
      <trkpt lat="46.82482" lon="5.80757">
        <ele>584</ele>
        <time>2022-05-24T14:54:59Z</time>
      </trkpt>
      <trkpt lat="46.82482" lon="5.80765">
        <ele>583.6</ele>
        <time>2022-05-24T14:55:00Z</time>
      </trkpt>
      <trkpt lat="46.82482" lon="5.80773">
        <ele>583.6</ele>
        <time>2022-05-24T14:55:01Z</time>
      </trkpt>
      <trkpt lat="46.82482" lon="5.80781">
        <ele>583.6</ele>
        <time>2022-05-24T14:55:02Z</time>
      </trkpt>
      <trkpt lat="46.82482" lon="5.8079">
        <ele>583.4</ele>
        <time>2022-05-24T14:55:03Z</time>
      </trkpt>
      <trkpt lat="46.82482" lon="5.80798">
        <ele>583.4</ele>
        <time>2022-05-24T14:55:04Z</time>
      </trkpt>
      <trkpt lat="46.82483" lon="5.80807">
        <ele>583.4</ele>
        <time>2022-05-24T14:55:05Z</time>
      </trkpt>
      <trkpt lat="46.82482" lon="5.80815">
        <ele>583.4</ele>
        <time>2022-05-24T14:55:06Z</time>
      </trkpt>
      <trkpt lat="46.82481" lon="5.80824">
        <ele>583.4</ele>
        <time>2022-05-24T14:55:07Z</time>
      </trkpt>
      <trkpt lat="46.8248" lon="5.80833">
        <ele>583.4</ele>
        <time>2022-05-24T14:55:08Z</time>
      </trkpt>
      <trkpt lat="46.82479" lon="5.80841">
        <ele>583.4</ele>
        <time>2022-05-24T14:55:09Z</time>
      </trkpt>
      <trkpt lat="46.82478" lon="5.8085">
        <ele>583.4</ele>
        <time>2022-05-24T14:55:10Z</time>
      </trkpt>
      <trkpt lat="46.82476" lon="5.80859">
        <ele>583</ele>
        <time>2022-05-24T14:55:11Z</time>
      </trkpt>
      <trkpt lat="46.82474" lon="5.80867">
        <ele>583</ele>
        <time>2022-05-24T14:55:12Z</time>
      </trkpt>
      <trkpt lat="46.82472" lon="5.80875">
        <ele>582.6</ele>
        <time>2022-05-24T14:55:13Z</time>
      </trkpt>
      <trkpt lat="46.82469" lon="5.80884">
        <ele>582.6</ele>
        <time>2022-05-24T14:55:14Z</time>
      </trkpt>
      <trkpt lat="46.82466" lon="5.80892">
        <ele>582.6</ele>
        <time>2022-05-24T14:55:15Z</time>
      </trkpt>
      <trkpt lat="46.82463" lon="5.809">
        <ele>582.4</ele>
        <time>2022-05-24T14:55:16Z</time>
      </trkpt>
      <trkpt lat="46.82461" lon="5.80908">
        <ele>582.4</ele>
        <time>2022-05-24T14:55:17Z</time>
      </trkpt>
      <trkpt lat="46.82457" lon="5.80916">
        <ele>582.2</ele>
        <time>2022-05-24T14:55:18Z</time>
      </trkpt>
      <trkpt lat="46.82454" lon="5.80924">
        <ele>582</ele>
        <time>2022-05-24T14:55:19Z</time>
      </trkpt>
      <trkpt lat="46.82451" lon="5.80932">
        <ele>582</ele>
        <time>2022-05-24T14:55:20Z</time>
      </trkpt>
      <trkpt lat="46.82448" lon="5.80941">
        <ele>581.6</ele>
        <time>2022-05-24T14:55:21Z</time>
      </trkpt>
      <trkpt lat="46.82445" lon="5.8095">
        <ele>581.4</ele>
        <time>2022-05-24T14:55:22Z</time>
      </trkpt>
      <trkpt lat="46.82442" lon="5.80959">
        <ele>581.2</ele>
        <time>2022-05-24T14:55:23Z</time>
      </trkpt>
      <trkpt lat="46.8244" lon="5.80969">
        <ele>581.2</ele>
        <time>2022-05-24T14:55:24Z</time>
      </trkpt>
      <trkpt lat="46.82437" lon="5.80979">
        <ele>580.8</ele>
        <time>2022-05-24T14:55:25Z</time>
      </trkpt>
      <trkpt lat="46.82435" lon="5.80989">
        <ele>580.8</ele>
        <time>2022-05-24T14:55:26Z</time>
      </trkpt>
      <trkpt lat="46.82433" lon="5.80999">
        <ele>580.8</ele>
        <time>2022-05-24T14:55:27Z</time>
      </trkpt>
      <trkpt lat="46.82431" lon="5.81009">
        <ele>580.6</ele>
        <time>2022-05-24T14:55:28Z</time>
      </trkpt>
      <trkpt lat="46.82429" lon="5.81019">
        <ele>580.6</ele>
        <time>2022-05-24T14:55:29Z</time>
      </trkpt>
      <trkpt lat="46.82428" lon="5.8103">
        <ele>580.2</ele>
        <time>2022-05-24T14:55:30Z</time>
      </trkpt>
      <trkpt lat="46.82427" lon="5.81042">
        <ele>580</ele>
        <time>2022-05-24T14:55:31Z</time>
      </trkpt>
      <trkpt lat="46.82427" lon="5.81053">
        <ele>579.8</ele>
        <time>2022-05-24T14:55:32Z</time>
      </trkpt>
      <trkpt lat="46.82426" lon="5.81065">
        <ele>579.8</ele>
        <time>2022-05-24T14:55:33Z</time>
      </trkpt>
      <trkpt lat="46.82425" lon="5.81077">
        <ele>579.2</ele>
        <time>2022-05-24T14:55:34Z</time>
      </trkpt>
      <trkpt lat="46.82424" lon="5.81089">
        <ele>579</ele>
        <time>2022-05-24T14:55:35Z</time>
      </trkpt>
      <trkpt lat="46.82424" lon="5.81089">
        <ele>578.6</ele>
        <time>2022-05-24T14:55:36Z</time>
      </trkpt>
      <trkpt lat="46.82422" lon="5.81101">
        <ele>578.2</ele>
        <time>2022-05-24T14:55:37Z</time>
      </trkpt>
      <trkpt lat="46.82421" lon="5.81114">
        <ele>578</ele>
        <time>2022-05-24T14:55:38Z</time>
      </trkpt>
      <trkpt lat="46.82419" lon="5.81127">
        <ele>577.8</ele>
        <time>2022-05-24T14:55:39Z</time>
      </trkpt>
      <trkpt lat="46.82417" lon="5.81139">
        <ele>577.4</ele>
        <time>2022-05-24T14:55:40Z</time>
      </trkpt>
      <trkpt lat="46.82414" lon="5.81152">
        <ele>577</ele>
        <time>2022-05-24T14:55:41Z</time>
      </trkpt>
      <trkpt lat="46.82411" lon="5.81164">
        <ele>576.6</ele>
        <time>2022-05-24T14:55:42Z</time>
      </trkpt>
      <trkpt lat="46.82409" lon="5.81177">
        <ele>576.4</ele>
        <time>2022-05-24T14:55:43Z</time>
      </trkpt>
      <trkpt lat="46.82408" lon="5.8119">
        <ele>576</ele>
        <time>2022-05-24T14:55:44Z</time>
      </trkpt>
      <trkpt lat="46.82408" lon="5.81204">
        <ele>575.6</ele>
        <time>2022-05-24T14:55:45Z</time>
      </trkpt>
      <trkpt lat="46.8241" lon="5.81218">
        <ele>575.2</ele>
        <time>2022-05-24T14:55:46Z</time>
      </trkpt>
      <trkpt lat="46.82412" lon="5.81232">
        <ele>574.8</ele>
        <time>2022-05-24T14:55:47Z</time>
      </trkpt>
      <trkpt lat="46.82415" lon="5.81246">
        <ele>574.6</ele>
        <time>2022-05-24T14:55:48Z</time>
      </trkpt>
      <trkpt lat="46.82417" lon="5.81258">
        <ele>574.4</ele>
        <time>2022-05-24T14:55:49Z</time>
      </trkpt>
      <trkpt lat="46.82418" lon="5.81272">
        <ele>574</ele>
        <time>2022-05-24T14:55:50Z</time>
      </trkpt>
      <trkpt lat="46.8242" lon="5.81286">
        <ele>574</ele>
        <time>2022-05-24T14:55:51Z</time>
      </trkpt>
      <trkpt lat="46.82421" lon="5.81299">
        <ele>574</ele>
        <time>2022-05-24T14:55:52Z</time>
      </trkpt>
      <trkpt lat="46.82421" lon="5.81312">
        <ele>573.8</ele>
        <time>2022-05-24T14:55:53Z</time>
      </trkpt>
      <trkpt lat="46.8242" lon="5.81325">
        <ele>573.8</ele>
        <time>2022-05-24T14:55:54Z</time>
      </trkpt>
      <trkpt lat="46.8242" lon="5.81336">
        <ele>573.8</ele>
        <time>2022-05-24T14:55:55Z</time>
      </trkpt>
      <trkpt lat="46.82419" lon="5.81348">
        <ele>573.8</ele>
        <time>2022-05-24T14:55:56Z</time>
      </trkpt>
      <trkpt lat="46.82419" lon="5.81359">
        <ele>573.8</ele>
        <time>2022-05-24T14:55:57Z</time>
      </trkpt>
      <trkpt lat="46.82419" lon="5.81371">
        <ele>573.8</ele>
        <time>2022-05-24T14:55:58Z</time>
      </trkpt>
      <trkpt lat="46.82418" lon="5.81382">
        <ele>573.8</ele>
        <time>2022-05-24T14:55:59Z</time>
      </trkpt>
      <trkpt lat="46.82418" lon="5.81392">
        <ele>573.6</ele>
        <time>2022-05-24T14:56:00Z</time>
      </trkpt>
      <trkpt lat="46.82418" lon="5.81403">
        <ele>573.6</ele>
        <time>2022-05-24T14:56:01Z</time>
      </trkpt>
      <trkpt lat="46.82417" lon="5.81413">
        <ele>573.6</ele>
        <time>2022-05-24T14:56:02Z</time>
      </trkpt>
      <trkpt lat="46.82417" lon="5.81423">
        <ele>573.6</ele>
        <time>2022-05-24T14:56:03Z</time>
      </trkpt>
      <trkpt lat="46.82416" lon="5.81432">
        <ele>573.6</ele>
        <time>2022-05-24T14:56:04Z</time>
      </trkpt>
      <trkpt lat="46.82416" lon="5.81441">
        <ele>573.6</ele>
        <time>2022-05-24T14:56:05Z</time>
      </trkpt>
      <trkpt lat="46.82415" lon="5.8145">
        <ele>573.6</ele>
        <time>2022-05-24T14:56:06Z</time>
      </trkpt>
      <trkpt lat="46.82415" lon="5.81459">
        <ele>573.6</ele>
        <time>2022-05-24T14:56:07Z</time>
      </trkpt>
      <trkpt lat="46.82414" lon="5.81468">
        <ele>573.8</ele>
        <time>2022-05-24T14:56:08Z</time>
      </trkpt>
      <trkpt lat="46.82413" lon="5.81476">
        <ele>573.8</ele>
        <time>2022-05-24T14:56:09Z</time>
      </trkpt>
      <trkpt lat="46.82413" lon="5.81486">
        <ele>573.8</ele>
        <time>2022-05-24T14:56:10Z</time>
      </trkpt>
      <trkpt lat="46.82413" lon="5.81495">
        <ele>573.8</ele>
        <time>2022-05-24T14:56:11Z</time>
      </trkpt>
      <trkpt lat="46.82412" lon="5.81504">
        <ele>573.8</ele>
        <time>2022-05-24T14:56:12Z</time>
      </trkpt>
      <trkpt lat="46.82412" lon="5.81513">
        <ele>573.8</ele>
        <time>2022-05-24T14:56:13Z</time>
      </trkpt>
      <trkpt lat="46.82412" lon="5.81522">
        <ele>573.8</ele>
        <time>2022-05-24T14:56:14Z</time>
      </trkpt>
      <trkpt lat="46.82411" lon="5.81531">
        <ele>573.8</ele>
        <time>2022-05-24T14:56:15Z</time>
      </trkpt>
      <trkpt lat="46.82411" lon="5.81541">
        <ele>573.8</ele>
        <time>2022-05-24T14:56:16Z</time>
      </trkpt>
      <trkpt lat="46.82411" lon="5.8155">
        <ele>573.8</ele>
        <time>2022-05-24T14:56:17Z</time>
      </trkpt>
      <trkpt lat="46.8241" lon="5.8156">
        <ele>573.8</ele>
        <time>2022-05-24T14:56:18Z</time>
      </trkpt>
      <trkpt lat="46.8241" lon="5.81569">
        <ele>573.8</ele>
        <time>2022-05-24T14:56:19Z</time>
      </trkpt>
      <trkpt lat="46.8241" lon="5.81578">
        <ele>573.8</ele>
        <time>2022-05-24T14:56:20Z</time>
      </trkpt>
      <trkpt lat="46.82409" lon="5.81588">
        <ele>573.8</ele>
        <time>2022-05-24T14:56:21Z</time>
      </trkpt>
      <trkpt lat="46.82409" lon="5.81597">
        <ele>573.8</ele>
        <time>2022-05-24T14:56:22Z</time>
      </trkpt>
      <trkpt lat="46.82408" lon="5.81607">
        <ele>573.8</ele>
        <time>2022-05-24T14:56:23Z</time>
      </trkpt>
      <trkpt lat="46.82408" lon="5.81617">
        <ele>573.8</ele>
        <time>2022-05-24T14:56:24Z</time>
      </trkpt>
      <trkpt lat="46.82408" lon="5.81627">
        <ele>573.8</ele>
        <time>2022-05-24T14:56:25Z</time>
      </trkpt>
      <trkpt lat="46.82408" lon="5.81637">
        <ele>573.8</ele>
        <time>2022-05-24T14:56:26Z</time>
      </trkpt>
      <trkpt lat="46.82408" lon="5.81646">
        <ele>573.8</ele>
        <time>2022-05-24T14:56:27Z</time>
      </trkpt>
      <trkpt lat="46.82408" lon="5.81656">
        <ele>573.8</ele>
        <time>2022-05-24T14:56:28Z</time>
      </trkpt>
      <trkpt lat="46.82408" lon="5.81666">
        <ele>573.8</ele>
        <time>2022-05-24T14:56:29Z</time>
      </trkpt>
      <trkpt lat="46.82408" lon="5.81675">
        <ele>573.6</ele>
        <time>2022-05-24T14:56:30Z</time>
      </trkpt>
      <trkpt lat="46.82409" lon="5.81684">
        <ele>573.6</ele>
        <time>2022-05-24T14:56:31Z</time>
      </trkpt>
      <trkpt lat="46.8241" lon="5.81694">
        <ele>573.2</ele>
        <time>2022-05-24T14:56:32Z</time>
      </trkpt>
      <trkpt lat="46.82411" lon="5.81703">
        <ele>573.2</ele>
        <time>2022-05-24T14:56:33Z</time>
      </trkpt>
      <trkpt lat="46.82412" lon="5.81712">
        <ele>573.2</ele>
        <time>2022-05-24T14:56:34Z</time>
      </trkpt>
      <trkpt lat="46.82414" lon="5.81721">
        <ele>573.2</ele>
        <time>2022-05-24T14:56:35Z</time>
      </trkpt>
      <trkpt lat="46.82415" lon="5.81729">
        <ele>573.2</ele>
        <time>2022-05-24T14:56:36Z</time>
      </trkpt>
      <trkpt lat="46.82417" lon="5.81737">
        <ele>573.2</ele>
        <time>2022-05-24T14:56:37Z</time>
      </trkpt>
      <trkpt lat="46.82419" lon="5.81746">
        <ele>573.2</ele>
        <time>2022-05-24T14:56:38Z</time>
      </trkpt>
      <trkpt lat="46.82421" lon="5.81754">
        <ele>573.2</ele>
        <time>2022-05-24T14:56:39Z</time>
      </trkpt>
      <trkpt lat="46.82423" lon="5.81762">
        <ele>573.4</ele>
        <time>2022-05-24T14:56:40Z</time>
      </trkpt>
      <trkpt lat="46.82425" lon="5.8177">
        <ele>573.4</ele>
        <time>2022-05-24T14:56:41Z</time>
      </trkpt>
      <trkpt lat="46.82427" lon="5.81777">
        <ele>573.8</ele>
        <time>2022-05-24T14:56:42Z</time>
      </trkpt>
      <trkpt lat="46.82429" lon="5.81784">
        <ele>573.8</ele>
        <time>2022-05-24T14:56:43Z</time>
      </trkpt>
      <trkpt lat="46.82431" lon="5.81791">
        <ele>574</ele>
        <time>2022-05-24T14:56:44Z</time>
      </trkpt>
      <trkpt lat="46.82433" lon="5.81797">
        <ele>574</ele>
        <time>2022-05-24T14:56:45Z</time>
      </trkpt>
      <trkpt lat="46.82435" lon="5.81804">
        <ele>574.2</ele>
        <time>2022-05-24T14:56:46Z</time>
      </trkpt>
      <trkpt lat="46.82436" lon="5.8181">
        <ele>574.2</ele>
        <time>2022-05-24T14:56:47Z</time>
      </trkpt>
      <trkpt lat="46.82438" lon="5.81817">
        <ele>574.4</ele>
        <time>2022-05-24T14:56:48Z</time>
      </trkpt>
      <trkpt lat="46.8244" lon="5.81823">
        <ele>574.4</ele>
        <time>2022-05-24T14:56:49Z</time>
      </trkpt>
      <trkpt lat="46.82443" lon="5.8183">
        <ele>574.8</ele>
        <time>2022-05-24T14:56:50Z</time>
      </trkpt>
      <trkpt lat="46.82445" lon="5.81837">
        <ele>574.8</ele>
        <time>2022-05-24T14:56:51Z</time>
      </trkpt>
      <trkpt lat="46.82447" lon="5.81844">
        <ele>575.2</ele>
        <time>2022-05-24T14:56:52Z</time>
      </trkpt>
      <trkpt lat="46.8245" lon="5.81851">
        <ele>575.2</ele>
        <time>2022-05-24T14:56:53Z</time>
      </trkpt>
      <trkpt lat="46.82452" lon="5.81858">
        <ele>575.4</ele>
        <time>2022-05-24T14:56:54Z</time>
      </trkpt>
      <trkpt lat="46.82455" lon="5.81865">
        <ele>575.4</ele>
        <time>2022-05-24T14:56:55Z</time>
      </trkpt>
      <trkpt lat="46.82458" lon="5.81872">
        <ele>575.4</ele>
        <time>2022-05-24T14:56:56Z</time>
      </trkpt>
      <trkpt lat="46.8246" lon="5.81879">
        <ele>575.4</ele>
        <time>2022-05-24T14:56:57Z</time>
      </trkpt>
      <trkpt lat="46.82464" lon="5.81886">
        <ele>575.4</ele>
        <time>2022-05-24T14:56:58Z</time>
      </trkpt>
      <trkpt lat="46.82467" lon="5.81893">
        <ele>575.6</ele>
        <time>2022-05-24T14:56:59Z</time>
      </trkpt>
      <trkpt lat="46.8247" lon="5.819">
        <ele>575.6</ele>
        <time>2022-05-24T14:57:00Z</time>
      </trkpt>
      <trkpt lat="46.82473" lon="5.81908">
        <ele>576</ele>
        <time>2022-05-24T14:57:01Z</time>
      </trkpt>
      <trkpt lat="46.82476" lon="5.81915">
        <ele>576</ele>
        <time>2022-05-24T14:57:02Z</time>
      </trkpt>
      <trkpt lat="46.82478" lon="5.81922">
        <ele>576.2</ele>
        <time>2022-05-24T14:57:03Z</time>
      </trkpt>
      <trkpt lat="46.8248" lon="5.81928">
        <ele>576.2</ele>
        <time>2022-05-24T14:57:04Z</time>
      </trkpt>
      <trkpt lat="46.82483" lon="5.81935">
        <ele>576.6</ele>
        <time>2022-05-24T14:57:05Z</time>
      </trkpt>
      <trkpt lat="46.82485" lon="5.81941">
        <ele>576.6</ele>
        <time>2022-05-24T14:57:06Z</time>
      </trkpt>
      <trkpt lat="46.82488" lon="5.81947">
        <ele>576.8</ele>
        <time>2022-05-24T14:57:07Z</time>
      </trkpt>
      <trkpt lat="46.8249" lon="5.81953">
        <ele>576.8</ele>
        <time>2022-05-24T14:57:08Z</time>
      </trkpt>
      <trkpt lat="46.82493" lon="5.81959">
        <ele>577.2</ele>
        <time>2022-05-24T14:57:09Z</time>
      </trkpt>
      <trkpt lat="46.82496" lon="5.81965">
        <ele>577.2</ele>
        <time>2022-05-24T14:57:10Z</time>
      </trkpt>
      <trkpt lat="46.82498" lon="5.81971">
        <ele>577.2</ele>
        <time>2022-05-24T14:57:11Z</time>
      </trkpt>
      <trkpt lat="46.82501" lon="5.81977">
        <ele>577.4</ele>
        <time>2022-05-24T14:57:12Z</time>
      </trkpt>
      <trkpt lat="46.82503" lon="5.81984">
        <ele>577.4</ele>
        <time>2022-05-24T14:57:13Z</time>
      </trkpt>
      <trkpt lat="46.82505" lon="5.8199">
        <ele>577.4</ele>
        <time>2022-05-24T14:57:14Z</time>
      </trkpt>
      <trkpt lat="46.82507" lon="5.81997">
        <ele>577.4</ele>
        <time>2022-05-24T14:57:15Z</time>
      </trkpt>
      <trkpt lat="46.8251" lon="5.82003">
        <ele>577.6</ele>
        <time>2022-05-24T14:57:16Z</time>
      </trkpt>
      <trkpt lat="46.82512" lon="5.8201">
        <ele>577.6</ele>
        <time>2022-05-24T14:57:17Z</time>
      </trkpt>
      <trkpt lat="46.82515" lon="5.82016">
        <ele>577.6</ele>
        <time>2022-05-24T14:57:18Z</time>
      </trkpt>
      <trkpt lat="46.82517" lon="5.82022">
        <ele>577.6</ele>
        <time>2022-05-24T14:57:19Z</time>
      </trkpt>
      <trkpt lat="46.82519" lon="5.82029">
        <ele>577.8</ele>
        <time>2022-05-24T14:57:20Z</time>
      </trkpt>
      <trkpt lat="46.82522" lon="5.82035">
        <ele>577.8</ele>
        <time>2022-05-24T14:57:21Z</time>
      </trkpt>
      <trkpt lat="46.82524" lon="5.82041">
        <ele>578.2</ele>
        <time>2022-05-24T14:57:22Z</time>
      </trkpt>
      <trkpt lat="46.82527" lon="5.82047">
        <ele>578.2</ele>
        <time>2022-05-24T14:57:23Z</time>
      </trkpt>
      <trkpt lat="46.82529" lon="5.82053">
        <ele>578.2</ele>
        <time>2022-05-24T14:57:24Z</time>
      </trkpt>
      <trkpt lat="46.82531" lon="5.82059">
        <ele>578.4</ele>
        <time>2022-05-24T14:57:25Z</time>
      </trkpt>
      <trkpt lat="46.82534" lon="5.82065">
        <ele>578.4</ele>
        <time>2022-05-24T14:57:26Z</time>
      </trkpt>
      <trkpt lat="46.82536" lon="5.82071">
        <ele>578.4</ele>
        <time>2022-05-24T14:57:27Z</time>
      </trkpt>
      <trkpt lat="46.82538" lon="5.82077">
        <ele>578.6</ele>
        <time>2022-05-24T14:57:28Z</time>
      </trkpt>
      <trkpt lat="46.82541" lon="5.82084">
        <ele>578.6</ele>
        <time>2022-05-24T14:57:29Z</time>
      </trkpt>
      <trkpt lat="46.82544" lon="5.82089">
        <ele>579</ele>
        <time>2022-05-24T14:57:30Z</time>
      </trkpt>
      <trkpt lat="46.82547" lon="5.82095">
        <ele>579.2</ele>
        <time>2022-05-24T14:57:31Z</time>
      </trkpt>
      <trkpt lat="46.82549" lon="5.82101">
        <ele>579.2</ele>
        <time>2022-05-24T14:57:32Z</time>
      </trkpt>
      <trkpt lat="46.82552" lon="5.82107">
        <ele>579.6</ele>
        <time>2022-05-24T14:57:33Z</time>
      </trkpt>
      <trkpt lat="46.82554" lon="5.82113">
        <ele>579.6</ele>
        <time>2022-05-24T14:57:34Z</time>
      </trkpt>
      <trkpt lat="46.82556" lon="5.82118">
        <ele>580</ele>
        <time>2022-05-24T14:57:35Z</time>
      </trkpt>
      <trkpt lat="46.82558" lon="5.82124">
        <ele>580</ele>
        <time>2022-05-24T14:57:36Z</time>
      </trkpt>
      <trkpt lat="46.82561" lon="5.82129">
        <ele>580.2</ele>
        <time>2022-05-24T14:57:37Z</time>
      </trkpt>
      <trkpt lat="46.82562" lon="5.82135">
        <ele>580.4</ele>
        <time>2022-05-24T14:57:38Z</time>
      </trkpt>
      <trkpt lat="46.82563" lon="5.82141">
        <ele>580.4</ele>
        <time>2022-05-24T14:57:39Z</time>
      </trkpt>
      <trkpt lat="46.82564" lon="5.82146">
        <ele>580.6</ele>
        <time>2022-05-24T14:57:40Z</time>
      </trkpt>
      <trkpt lat="46.82563" lon="5.82151">
        <ele>580.6</ele>
        <time>2022-05-24T14:57:41Z</time>
      </trkpt>
      <trkpt lat="46.8256" lon="5.82156">
        <ele>580.8</ele>
        <time>2022-05-24T14:57:42Z</time>
      </trkpt>
      <trkpt lat="46.82557" lon="5.82158">
        <ele>580.8</ele>
        <time>2022-05-24T14:57:43Z</time>
      </trkpt>
      <trkpt lat="46.82554" lon="5.8216">
        <ele>581.2</ele>
        <time>2022-05-24T14:57:44Z</time>
      </trkpt>
      <trkpt lat="46.8255" lon="5.82159">
        <ele>581.2</ele>
        <time>2022-05-24T14:57:45Z</time>
      </trkpt>
      <trkpt lat="46.82546" lon="5.82157">
        <ele>581.2</ele>
        <time>2022-05-24T14:57:46Z</time>
      </trkpt>
      <trkpt lat="46.82541" lon="5.82155">
        <ele>581.2</ele>
        <time>2022-05-24T14:57:47Z</time>
      </trkpt>
      <trkpt lat="46.82536" lon="5.82153">
        <ele>581.4</ele>
        <time>2022-05-24T14:57:48Z</time>
      </trkpt>
      <trkpt lat="46.82531" lon="5.82151">
        <ele>581.4</ele>
        <time>2022-05-24T14:57:49Z</time>
      </trkpt>
      <trkpt lat="46.82526" lon="5.82149">
        <ele>581.4</ele>
        <time>2022-05-24T14:57:50Z</time>
      </trkpt>
      <trkpt lat="46.8252" lon="5.82147">
        <ele>581.4</ele>
        <time>2022-05-24T14:57:51Z</time>
      </trkpt>
      <trkpt lat="46.82514" lon="5.82145">
        <ele>581</ele>
        <time>2022-05-24T14:57:52Z</time>
      </trkpt>
      <trkpt lat="46.82508" lon="5.82143">
        <ele>581</ele>
        <time>2022-05-24T14:57:53Z</time>
      </trkpt>
      <trkpt lat="46.82503" lon="5.82141">
        <ele>581</ele>
        <time>2022-05-24T14:57:54Z</time>
      </trkpt>
      <trkpt lat="46.82497" lon="5.82138">
        <ele>580.8</ele>
        <time>2022-05-24T14:57:55Z</time>
      </trkpt>
      <trkpt lat="46.82491" lon="5.82136">
        <ele>580.8</ele>
        <time>2022-05-24T14:57:56Z</time>
      </trkpt>
      <trkpt lat="46.82485" lon="5.82134">
        <ele>580.6</ele>
        <time>2022-05-24T14:57:57Z</time>
      </trkpt>
      <trkpt lat="46.82479" lon="5.82132">
        <ele>580.6</ele>
        <time>2022-05-24T14:57:58Z</time>
      </trkpt>
      <trkpt lat="46.82473" lon="5.82129">
        <ele>580.4</ele>
        <time>2022-05-24T14:57:59Z</time>
      </trkpt>
      <trkpt lat="46.82466" lon="5.82127">
        <ele>580.4</ele>
        <time>2022-05-24T14:58:00Z</time>
      </trkpt>
      <trkpt lat="46.8246" lon="5.82125">
        <ele>580.6</ele>
        <time>2022-05-24T14:58:01Z</time>
      </trkpt>
      <trkpt lat="46.82453" lon="5.82123">
        <ele>580.6</ele>
        <time>2022-05-24T14:58:02Z</time>
      </trkpt>
      <trkpt lat="46.82447" lon="5.82121">
        <ele>580.6</ele>
        <time>2022-05-24T14:58:03Z</time>
      </trkpt>
      <trkpt lat="46.8244" lon="5.82119">
        <ele>580.8</ele>
        <time>2022-05-24T14:58:04Z</time>
      </trkpt>
      <trkpt lat="46.82433" lon="5.82118">
        <ele>580.8</ele>
        <time>2022-05-24T14:58:05Z</time>
      </trkpt>
      <trkpt lat="46.82426" lon="5.82117">
        <ele>580.8</ele>
        <time>2022-05-24T14:58:06Z</time>
      </trkpt>
      <trkpt lat="46.8242" lon="5.82117">
        <ele>580.6</ele>
        <time>2022-05-24T14:58:07Z</time>
      </trkpt>
      <trkpt lat="46.82413" lon="5.82116">
        <ele>580.6</ele>
        <time>2022-05-24T14:58:08Z</time>
      </trkpt>
      <trkpt lat="46.82406" lon="5.82116">
        <ele>580.6</ele>
        <time>2022-05-24T14:58:09Z</time>
      </trkpt>
      <trkpt lat="46.82399" lon="5.82116">
        <ele>580.6</ele>
        <time>2022-05-24T14:58:10Z</time>
      </trkpt>
      <trkpt lat="46.82391" lon="5.82115">
        <ele>580.4</ele>
        <time>2022-05-24T14:58:11Z</time>
      </trkpt>
      <trkpt lat="46.82384" lon="5.82115">
        <ele>580</ele>
        <time>2022-05-24T14:58:12Z</time>
      </trkpt>
      <trkpt lat="46.82377" lon="5.82115">
        <ele>580</ele>
        <time>2022-05-24T14:58:13Z</time>
      </trkpt>
      <trkpt lat="46.8237" lon="5.82114">
        <ele>580</ele>
        <time>2022-05-24T14:58:14Z</time>
      </trkpt>
      <trkpt lat="46.82362" lon="5.82114">
        <ele>580</ele>
        <time>2022-05-24T14:58:15Z</time>
      </trkpt>
      <trkpt lat="46.82354" lon="5.82114">
        <ele>580</ele>
        <time>2022-05-24T14:58:16Z</time>
      </trkpt>
      <trkpt lat="46.82347" lon="5.82113">
        <ele>580</ele>
        <time>2022-05-24T14:58:17Z</time>
      </trkpt>
      <trkpt lat="46.82339" lon="5.82113">
        <ele>579.8</ele>
        <time>2022-05-24T14:58:18Z</time>
      </trkpt>
      <trkpt lat="46.82331" lon="5.82112">
        <ele>579.8</ele>
        <time>2022-05-24T14:58:19Z</time>
      </trkpt>
      <trkpt lat="46.82324" lon="5.82112">
        <ele>579.8</ele>
        <time>2022-05-24T14:58:20Z</time>
      </trkpt>
      <trkpt lat="46.82316" lon="5.82111">
        <ele>579.6</ele>
        <time>2022-05-24T14:58:21Z</time>
      </trkpt>
      <trkpt lat="46.82308" lon="5.82111">
        <ele>579.4</ele>
        <time>2022-05-24T14:58:22Z</time>
      </trkpt>
      <trkpt lat="46.82301" lon="5.8211">
        <ele>579.4</ele>
        <time>2022-05-24T14:58:23Z</time>
      </trkpt>
      <trkpt lat="46.82293" lon="5.8211">
        <ele>579.4</ele>
        <time>2022-05-24T14:58:24Z</time>
      </trkpt>
      <trkpt lat="46.82285" lon="5.82109">
        <ele>579.4</ele>
        <time>2022-05-24T14:58:25Z</time>
      </trkpt>
      <trkpt lat="46.82278" lon="5.82109">
        <ele>579</ele>
        <time>2022-05-24T14:58:26Z</time>
      </trkpt>
      <trkpt lat="46.8227" lon="5.82108">
        <ele>579</ele>
        <time>2022-05-24T14:58:27Z</time>
      </trkpt>
      <trkpt lat="46.82262" lon="5.82108">
        <ele>578.8</ele>
        <time>2022-05-24T14:58:28Z</time>
      </trkpt>
      <trkpt lat="46.82254" lon="5.82107">
        <ele>578.8</ele>
        <time>2022-05-24T14:58:29Z</time>
      </trkpt>
      <trkpt lat="46.82247" lon="5.82107">
        <ele>578.4</ele>
        <time>2022-05-24T14:58:30Z</time>
      </trkpt>
      <trkpt lat="46.82239" lon="5.82106">
        <ele>578.4</ele>
        <time>2022-05-24T14:58:31Z</time>
      </trkpt>
      <trkpt lat="46.82232" lon="5.82106">
        <ele>578.4</ele>
        <time>2022-05-24T14:58:32Z</time>
      </trkpt>
      <trkpt lat="46.82224" lon="5.82106">
        <ele>578</ele>
        <time>2022-05-24T14:58:33Z</time>
      </trkpt>
      <trkpt lat="46.82217" lon="5.82106">
        <ele>578</ele>
        <time>2022-05-24T14:58:34Z</time>
      </trkpt>
      <trkpt lat="46.8221" lon="5.82106">
        <ele>578</ele>
        <time>2022-05-24T14:58:35Z</time>
      </trkpt>
      <trkpt lat="46.82202" lon="5.82106">
        <ele>577.8</ele>
        <time>2022-05-24T14:58:36Z</time>
      </trkpt>
      <trkpt lat="46.82195" lon="5.82106">
        <ele>577.8</ele>
        <time>2022-05-24T14:58:37Z</time>
      </trkpt>
      <trkpt lat="46.82187" lon="5.82106">
        <ele>577.8</ele>
        <time>2022-05-24T14:58:38Z</time>
      </trkpt>
      <trkpt lat="46.8218" lon="5.82106">
        <ele>577.4</ele>
        <time>2022-05-24T14:58:39Z</time>
      </trkpt>
      <trkpt lat="46.82173" lon="5.82107">
        <ele>577.4</ele>
        <time>2022-05-24T14:58:40Z</time>
      </trkpt>
      <trkpt lat="46.82165" lon="5.82107">
        <ele>577.2</ele>
        <time>2022-05-24T14:58:41Z</time>
      </trkpt>
      <trkpt lat="46.82158" lon="5.82108">
        <ele>577.2</ele>
        <time>2022-05-24T14:58:42Z</time>
      </trkpt>
      <trkpt lat="46.82151" lon="5.82109">
        <ele>577</ele>
        <time>2022-05-24T14:58:43Z</time>
      </trkpt>
      <trkpt lat="46.82143" lon="5.8211">
        <ele>577</ele>
        <time>2022-05-24T14:58:44Z</time>
      </trkpt>
      <trkpt lat="46.82136" lon="5.8211">
        <ele>577</ele>
        <time>2022-05-24T14:58:45Z</time>
      </trkpt>
      <trkpt lat="46.82128" lon="5.82111">
        <ele>577</ele>
        <time>2022-05-24T14:58:46Z</time>
      </trkpt>
      <trkpt lat="46.82121" lon="5.82112">
        <ele>576.6</ele>
        <time>2022-05-24T14:58:47Z</time>
      </trkpt>
      <trkpt lat="46.82113" lon="5.82112">
        <ele>576.6</ele>
        <time>2022-05-24T14:58:48Z</time>
      </trkpt>
      <trkpt lat="46.82106" lon="5.82113">
        <ele>576.6</ele>
        <time>2022-05-24T14:58:49Z</time>
      </trkpt>
      <trkpt lat="46.82099" lon="5.82114">
        <ele>576.6</ele>
        <time>2022-05-24T14:58:50Z</time>
      </trkpt>
      <trkpt lat="46.82092" lon="5.82115">
        <ele>576.6</ele>
        <time>2022-05-24T14:58:51Z</time>
      </trkpt>
      <trkpt lat="46.82084" lon="5.82116">
        <ele>576.6</ele>
        <time>2022-05-24T14:58:52Z</time>
      </trkpt>
      <trkpt lat="46.82077" lon="5.82117">
        <ele>576.4</ele>
        <time>2022-05-24T14:58:53Z</time>
      </trkpt>
      <trkpt lat="46.8207" lon="5.82117">
        <ele>576.4</ele>
        <time>2022-05-24T14:58:54Z</time>
      </trkpt>
      <trkpt lat="46.82063" lon="5.82118">
        <ele>576.4</ele>
        <time>2022-05-24T14:58:55Z</time>
      </trkpt>
      <trkpt lat="46.82056" lon="5.82118">
        <ele>576.4</ele>
        <time>2022-05-24T14:58:56Z</time>
      </trkpt>
      <trkpt lat="46.8205" lon="5.82119">
        <ele>576.4</ele>
        <time>2022-05-24T14:58:57Z</time>
      </trkpt>
      <trkpt lat="46.82043" lon="5.82119">
        <ele>576.2</ele>
        <time>2022-05-24T14:58:58Z</time>
      </trkpt>
      <trkpt lat="46.82036" lon="5.8212">
        <ele>576.2</ele>
        <time>2022-05-24T14:58:59Z</time>
      </trkpt>
      <trkpt lat="46.8203" lon="5.8212">
        <ele>576.2</ele>
        <time>2022-05-24T14:59:00Z</time>
      </trkpt>
      <trkpt lat="46.82023" lon="5.82121">
        <ele>576.2</ele>
        <time>2022-05-24T14:59:01Z</time>
      </trkpt>
      <trkpt lat="46.82017" lon="5.82122">
        <ele>576.2</ele>
        <time>2022-05-24T14:59:02Z</time>
      </trkpt>
      <trkpt lat="46.8201" lon="5.82122">
        <ele>576.2</ele>
        <time>2022-05-24T14:59:03Z</time>
      </trkpt>
      <trkpt lat="46.82004" lon="5.82123">
        <ele>576.4</ele>
        <time>2022-05-24T14:59:04Z</time>
      </trkpt>
      <trkpt lat="46.81997" lon="5.82123">
        <ele>576.4</ele>
        <time>2022-05-24T14:59:05Z</time>
      </trkpt>
      <trkpt lat="46.81991" lon="5.82124">
        <ele>576.4</ele>
        <time>2022-05-24T14:59:06Z</time>
      </trkpt>
      <trkpt lat="46.81984" lon="5.82125">
        <ele>576.4</ele>
        <time>2022-05-24T14:59:07Z</time>
      </trkpt>
      <trkpt lat="46.81978" lon="5.82125">
        <ele>576.4</ele>
        <time>2022-05-24T14:59:08Z</time>
      </trkpt>
      <trkpt lat="46.81972" lon="5.82126">
        <ele>576.4</ele>
        <time>2022-05-24T14:59:09Z</time>
      </trkpt>
      <trkpt lat="46.81965" lon="5.82126">
        <ele>576.6</ele>
        <time>2022-05-24T14:59:10Z</time>
      </trkpt>
      <trkpt lat="46.81959" lon="5.82127">
        <ele>576.6</ele>
        <time>2022-05-24T14:59:11Z</time>
      </trkpt>
      <trkpt lat="46.81953" lon="5.82128">
        <ele>576.6</ele>
        <time>2022-05-24T14:59:12Z</time>
      </trkpt>
      <trkpt lat="46.81946" lon="5.82128">
        <ele>576.6</ele>
        <time>2022-05-24T14:59:13Z</time>
      </trkpt>
      <trkpt lat="46.81939" lon="5.82129">
        <ele>576.6</ele>
        <time>2022-05-24T14:59:14Z</time>
      </trkpt>
      <trkpt lat="46.81933" lon="5.82129">
        <ele>576.6</ele>
        <time>2022-05-24T14:59:15Z</time>
      </trkpt>
      <trkpt lat="46.81926" lon="5.8213">
        <ele>576.8</ele>
        <time>2022-05-24T14:59:16Z</time>
      </trkpt>
      <trkpt lat="46.8192" lon="5.82131">
        <ele>576.8</ele>
        <time>2022-05-24T14:59:17Z</time>
      </trkpt>
      <trkpt lat="46.81913" lon="5.82131">
        <ele>577</ele>
        <time>2022-05-24T14:59:18Z</time>
      </trkpt>
      <trkpt lat="46.81906" lon="5.82132">
        <ele>577</ele>
        <time>2022-05-24T14:59:19Z</time>
      </trkpt>
      <trkpt lat="46.819" lon="5.82132">
        <ele>577.4</ele>
        <time>2022-05-24T14:59:20Z</time>
      </trkpt>
      <trkpt lat="46.81893" lon="5.82133">
        <ele>577.4</ele>
        <time>2022-05-24T14:59:21Z</time>
      </trkpt>
      <trkpt lat="46.81886" lon="5.82134">
        <ele>577.4</ele>
        <time>2022-05-24T14:59:22Z</time>
      </trkpt>
      <trkpt lat="46.8188" lon="5.82134">
        <ele>577.6</ele>
        <time>2022-05-24T14:59:23Z</time>
      </trkpt>
      <trkpt lat="46.81873" lon="5.82135">
        <ele>577.6</ele>
        <time>2022-05-24T14:59:24Z</time>
      </trkpt>
      <trkpt lat="46.81866" lon="5.82135">
        <ele>577.6</ele>
        <time>2022-05-24T14:59:25Z</time>
      </trkpt>
      <trkpt lat="46.8186" lon="5.82136">
        <ele>577.6</ele>
        <time>2022-05-24T14:59:26Z</time>
      </trkpt>
      <trkpt lat="46.81853" lon="5.82137">
        <ele>577.6</ele>
        <time>2022-05-24T14:59:27Z</time>
      </trkpt>
      <trkpt lat="46.81841" lon="5.82138">
        <ele>577.6</ele>
        <time>2022-05-24T14:59:28Z</time>
      </trkpt>
      <trkpt lat="46.81834" lon="5.82138">
        <ele>577.6</ele>
        <time>2022-05-24T14:59:29Z</time>
      </trkpt>
      <trkpt lat="46.81828" lon="5.82139">
        <ele>577.6</ele>
        <time>2022-05-24T14:59:30Z</time>
      </trkpt>
      <trkpt lat="46.81821" lon="5.82139">
        <ele>577.6</ele>
        <time>2022-05-24T14:59:31Z</time>
      </trkpt>
      <trkpt lat="46.81815" lon="5.8214">
        <ele>577.6</ele>
        <time>2022-05-24T14:59:32Z</time>
      </trkpt>
      <trkpt lat="46.81809" lon="5.8214">
        <ele>577.6</ele>
        <time>2022-05-24T14:59:33Z</time>
      </trkpt>
      <trkpt lat="46.81802" lon="5.82141">
        <ele>577.6</ele>
        <time>2022-05-24T14:59:34Z</time>
      </trkpt>
      <trkpt lat="46.81796" lon="5.82141">
        <ele>577.8</ele>
        <time>2022-05-24T14:59:35Z</time>
      </trkpt>
      <trkpt lat="46.8179" lon="5.82142">
        <ele>577.8</ele>
        <time>2022-05-24T14:59:36Z</time>
      </trkpt>
      <trkpt lat="46.81784" lon="5.82142">
        <ele>577.8</ele>
        <time>2022-05-24T14:59:37Z</time>
      </trkpt>
      <trkpt lat="46.81778" lon="5.82143">
        <ele>577.8</ele>
        <time>2022-05-24T14:59:38Z</time>
      </trkpt>
      <trkpt lat="46.81772" lon="5.82144">
        <ele>577.8</ele>
        <time>2022-05-24T14:59:39Z</time>
      </trkpt>
      <trkpt lat="46.81766" lon="5.82144">
        <ele>577.8</ele>
        <time>2022-05-24T14:59:40Z</time>
      </trkpt>
      <trkpt lat="46.81759" lon="5.82145">
        <ele>577.8</ele>
        <time>2022-05-24T14:59:41Z</time>
      </trkpt>
      <trkpt lat="46.81753" lon="5.82145">
        <ele>577.8</ele>
        <time>2022-05-24T14:59:42Z</time>
      </trkpt>
      <trkpt lat="46.81747" lon="5.82145">
        <ele>577.8</ele>
        <time>2022-05-24T14:59:43Z</time>
      </trkpt>
      <trkpt lat="46.81741" lon="5.82146">
        <ele>577.8</ele>
        <time>2022-05-24T14:59:44Z</time>
      </trkpt>
      <trkpt lat="46.81734" lon="5.82146">
        <ele>578</ele>
        <time>2022-05-24T14:59:45Z</time>
      </trkpt>
      <trkpt lat="46.81728" lon="5.82147">
        <ele>578</ele>
        <time>2022-05-24T14:59:46Z</time>
      </trkpt>
      <trkpt lat="46.81722" lon="5.82147">
        <ele>578</ele>
        <time>2022-05-24T14:59:47Z</time>
      </trkpt>
      <trkpt lat="46.81716" lon="5.82148">
        <ele>578</ele>
        <time>2022-05-24T14:59:48Z</time>
      </trkpt>
      <trkpt lat="46.8171" lon="5.82149">
        <ele>578.2</ele>
        <time>2022-05-24T14:59:49Z</time>
      </trkpt>
      <trkpt lat="46.81704" lon="5.82149">
        <ele>578.2</ele>
        <time>2022-05-24T14:59:50Z</time>
      </trkpt>
      <trkpt lat="46.81698" lon="5.82149">
        <ele>578.2</ele>
        <time>2022-05-24T14:59:51Z</time>
      </trkpt>
      <trkpt lat="46.81692" lon="5.8215">
        <ele>578.4</ele>
        <time>2022-05-24T14:59:52Z</time>
      </trkpt>
      <trkpt lat="46.81686" lon="5.8215">
        <ele>578.4</ele>
        <time>2022-05-24T14:59:53Z</time>
      </trkpt>
      <trkpt lat="46.8168" lon="5.82151">
        <ele>578.4</ele>
        <time>2022-05-24T14:59:54Z</time>
      </trkpt>
      <trkpt lat="46.81674" lon="5.82151">
        <ele>578.4</ele>
        <time>2022-05-24T14:59:55Z</time>
      </trkpt>
      <trkpt lat="46.81668" lon="5.82152">
        <ele>578.4</ele>
        <time>2022-05-24T14:59:56Z</time>
      </trkpt>
      <trkpt lat="46.81662" lon="5.82152">
        <ele>578.4</ele>
        <time>2022-05-24T14:59:57Z</time>
      </trkpt>
      <trkpt lat="46.81656" lon="5.82153">
        <ele>578.4</ele>
        <time>2022-05-24T14:59:58Z</time>
      </trkpt>
      <trkpt lat="46.8165" lon="5.82154">
        <ele>578.4</ele>
        <time>2022-05-24T14:59:59Z</time>
      </trkpt>
      <trkpt lat="46.81644" lon="5.82155">
        <ele>578.4</ele>
        <time>2022-05-24T15:00:00Z</time>
      </trkpt>
      <trkpt lat="46.81638" lon="5.82156">
        <ele>578.4</ele>
        <time>2022-05-24T15:00:01Z</time>
      </trkpt>
      <trkpt lat="46.81631" lon="5.82158">
        <ele>578.4</ele>
        <time>2022-05-24T15:00:02Z</time>
      </trkpt>
      <trkpt lat="46.81625" lon="5.82159">
        <ele>578.4</ele>
        <time>2022-05-24T15:00:03Z</time>
      </trkpt>
      <trkpt lat="46.81619" lon="5.82161">
        <ele>578.4</ele>
        <time>2022-05-24T15:00:04Z</time>
      </trkpt>
      <trkpt lat="46.81613" lon="5.82164">
        <ele>578.6</ele>
        <time>2022-05-24T15:00:05Z</time>
      </trkpt>
      <trkpt lat="46.81607" lon="5.82166">
        <ele>578.6</ele>
        <time>2022-05-24T15:00:06Z</time>
      </trkpt>
      <trkpt lat="46.81601" lon="5.8217">
        <ele>578.6</ele>
        <time>2022-05-24T15:00:07Z</time>
      </trkpt>
      <trkpt lat="46.81595" lon="5.82173">
        <ele>578.8</ele>
        <time>2022-05-24T15:00:08Z</time>
      </trkpt>
      <trkpt lat="46.81589" lon="5.82177">
        <ele>578.8</ele>
        <time>2022-05-24T15:00:09Z</time>
      </trkpt>
      <trkpt lat="46.81583" lon="5.82181">
        <ele>578.8</ele>
        <time>2022-05-24T15:00:10Z</time>
      </trkpt>
      <trkpt lat="46.81576" lon="5.82185">
        <ele>578.8</ele>
        <time>2022-05-24T15:00:11Z</time>
      </trkpt>
      <trkpt lat="46.8157" lon="5.82189">
        <ele>578.6</ele>
        <time>2022-05-24T15:00:12Z</time>
      </trkpt>
      <trkpt lat="46.81563" lon="5.82193">
        <ele>578.6</ele>
        <time>2022-05-24T15:00:13Z</time>
      </trkpt>
      <trkpt lat="46.81557" lon="5.82197">
        <ele>578.6</ele>
        <time>2022-05-24T15:00:14Z</time>
      </trkpt>
      <trkpt lat="46.8155" lon="5.82201">
        <ele>578.2</ele>
        <time>2022-05-24T15:00:15Z</time>
      </trkpt>
      <trkpt lat="46.81543" lon="5.82205">
        <ele>578.2</ele>
        <time>2022-05-24T15:00:16Z</time>
      </trkpt>
      <trkpt lat="46.81536" lon="5.82209">
        <ele>578.2</ele>
        <time>2022-05-24T15:00:17Z</time>
      </trkpt>
      <trkpt lat="46.8153" lon="5.82213">
        <ele>578.2</ele>
        <time>2022-05-24T15:00:18Z</time>
      </trkpt>
      <trkpt lat="46.81523" lon="5.82217">
        <ele>578.2</ele>
        <time>2022-05-24T15:00:19Z</time>
      </trkpt>
      <trkpt lat="46.81516" lon="5.82221">
        <ele>578</ele>
        <time>2022-05-24T15:00:20Z</time>
      </trkpt>
      <trkpt lat="46.81509" lon="5.82225">
        <ele>578</ele>
        <time>2022-05-24T15:00:21Z</time>
      </trkpt>
      <trkpt lat="46.81502" lon="5.82229">
        <ele>578</ele>
        <time>2022-05-24T15:00:22Z</time>
      </trkpt>
      <trkpt lat="46.81495" lon="5.82233">
        <ele>577.8</ele>
        <time>2022-05-24T15:00:23Z</time>
      </trkpt>
      <trkpt lat="46.81488" lon="5.82238">
        <ele>577.8</ele>
        <time>2022-05-24T15:00:24Z</time>
      </trkpt>
      <trkpt lat="46.81482" lon="5.82242">
        <ele>577.6</ele>
        <time>2022-05-24T15:00:25Z</time>
      </trkpt>
      <trkpt lat="46.81474" lon="5.82246">
        <ele>577.6</ele>
        <time>2022-05-24T15:00:26Z</time>
      </trkpt>
      <trkpt lat="46.81467" lon="5.8225">
        <ele>577.2</ele>
        <time>2022-05-24T15:00:27Z</time>
      </trkpt>
      <trkpt lat="46.8146" lon="5.82255">
        <ele>577</ele>
        <time>2022-05-24T15:00:28Z</time>
      </trkpt>
      <trkpt lat="46.81453" lon="5.82259">
        <ele>577</ele>
        <time>2022-05-24T15:00:29Z</time>
      </trkpt>
      <trkpt lat="46.81445" lon="5.82264">
        <ele>577</ele>
        <time>2022-05-24T15:00:30Z</time>
      </trkpt>
      <trkpt lat="46.81438" lon="5.82268">
        <ele>577</ele>
        <time>2022-05-24T15:00:31Z</time>
      </trkpt>
      <trkpt lat="46.81431" lon="5.82273">
        <ele>577</ele>
        <time>2022-05-24T15:00:32Z</time>
      </trkpt>
      <trkpt lat="46.81424" lon="5.82277">
        <ele>577</ele>
        <time>2022-05-24T15:00:33Z</time>
      </trkpt>
      <trkpt lat="46.81416" lon="5.82281">
        <ele>576.8</ele>
        <time>2022-05-24T15:00:34Z</time>
      </trkpt>
      <trkpt lat="46.81409" lon="5.82286">
        <ele>576.8</ele>
        <time>2022-05-24T15:00:35Z</time>
      </trkpt>
      <trkpt lat="46.81401" lon="5.8229">
        <ele>576.6</ele>
        <time>2022-05-24T15:00:36Z</time>
      </trkpt>
      <trkpt lat="46.81394" lon="5.82295">
        <ele>576.6</ele>
        <time>2022-05-24T15:00:37Z</time>
      </trkpt>
      <trkpt lat="46.81386" lon="5.82299">
        <ele>576.2</ele>
        <time>2022-05-24T15:00:38Z</time>
      </trkpt>
      <trkpt lat="46.81378" lon="5.82304">
        <ele>576.2</ele>
        <time>2022-05-24T15:00:39Z</time>
      </trkpt>
      <trkpt lat="46.8137" lon="5.82309">
        <ele>576</ele>
        <time>2022-05-24T15:00:40Z</time>
      </trkpt>
      <trkpt lat="46.81363" lon="5.82314">
        <ele>576</ele>
        <time>2022-05-24T15:00:41Z</time>
      </trkpt>
      <trkpt lat="46.81355" lon="5.82318">
        <ele>576</ele>
        <time>2022-05-24T15:00:42Z</time>
      </trkpt>
      <trkpt lat="46.81348" lon="5.82323">
        <ele>576</ele>
        <time>2022-05-24T15:00:43Z</time>
      </trkpt>
      <trkpt lat="46.8134" lon="5.82327">
        <ele>576</ele>
        <time>2022-05-24T15:00:44Z</time>
      </trkpt>
      <trkpt lat="46.81333" lon="5.82332">
        <ele>576</ele>
        <time>2022-05-24T15:00:45Z</time>
      </trkpt>
      <trkpt lat="46.81326" lon="5.82336">
        <ele>576</ele>
        <time>2022-05-24T15:00:46Z</time>
      </trkpt>
      <trkpt lat="46.81319" lon="5.82341">
        <ele>575.6</ele>
        <time>2022-05-24T15:00:47Z</time>
      </trkpt>
      <trkpt lat="46.81312" lon="5.82345">
        <ele>575.6</ele>
        <time>2022-05-24T15:00:48Z</time>
      </trkpt>
      <trkpt lat="46.81305" lon="5.82349">
        <ele>575.6</ele>
        <time>2022-05-24T15:00:49Z</time>
      </trkpt>
      <trkpt lat="46.81298" lon="5.82353">
        <ele>575.4</ele>
        <time>2022-05-24T15:00:50Z</time>
      </trkpt>
      <trkpt lat="46.81291" lon="5.82357">
        <ele>575.4</ele>
        <time>2022-05-24T15:00:51Z</time>
      </trkpt>
      <trkpt lat="46.81284" lon="5.82361">
        <ele>575.2</ele>
        <time>2022-05-24T15:00:52Z</time>
      </trkpt>
      <trkpt lat="46.81277" lon="5.82365">
        <ele>575.2</ele>
        <time>2022-05-24T15:00:53Z</time>
      </trkpt>
      <trkpt lat="46.8127" lon="5.82369">
        <ele>575.2</ele>
        <time>2022-05-24T15:00:54Z</time>
      </trkpt>
      <trkpt lat="46.81263" lon="5.82374">
        <ele>575</ele>
        <time>2022-05-24T15:00:55Z</time>
      </trkpt>
      <trkpt lat="46.81256" lon="5.82378">
        <ele>575</ele>
        <time>2022-05-24T15:00:56Z</time>
      </trkpt>
      <trkpt lat="46.81248" lon="5.82382">
        <ele>575</ele>
        <time>2022-05-24T15:00:57Z</time>
      </trkpt>
      <trkpt lat="46.81241" lon="5.82386">
        <ele>574.8</ele>
        <time>2022-05-24T15:00:58Z</time>
      </trkpt>
      <trkpt lat="46.81234" lon="5.82389">
        <ele>574.8</ele>
        <time>2022-05-24T15:00:59Z</time>
      </trkpt>
      <trkpt lat="46.81227" lon="5.82393">
        <ele>574.4</ele>
        <time>2022-05-24T15:01:00Z</time>
      </trkpt>
      <trkpt lat="46.8122" lon="5.82397">
        <ele>574.4</ele>
        <time>2022-05-24T15:01:01Z</time>
      </trkpt>
      <trkpt lat="46.81213" lon="5.82401">
        <ele>574.4</ele>
        <time>2022-05-24T15:01:02Z</time>
      </trkpt>
      <trkpt lat="46.81206" lon="5.82405">
        <ele>574.4</ele>
        <time>2022-05-24T15:01:03Z</time>
      </trkpt>
      <trkpt lat="46.81199" lon="5.82408">
        <ele>574.4</ele>
        <time>2022-05-24T15:01:04Z</time>
      </trkpt>
      <trkpt lat="46.81192" lon="5.82412">
        <ele>574.4</ele>
        <time>2022-05-24T15:01:05Z</time>
      </trkpt>
      <trkpt lat="46.81186" lon="5.82415">
        <ele>574.4</ele>
        <time>2022-05-24T15:01:06Z</time>
      </trkpt>
      <trkpt lat="46.81179" lon="5.82418">
        <ele>574.8</ele>
        <time>2022-05-24T15:01:07Z</time>
      </trkpt>
      <trkpt lat="46.81173" lon="5.82422">
        <ele>574.8</ele>
        <time>2022-05-24T15:01:08Z</time>
      </trkpt>
      <trkpt lat="46.81167" lon="5.82425">
        <ele>574.8</ele>
        <time>2022-05-24T15:01:09Z</time>
      </trkpt>
      <trkpt lat="46.81161" lon="5.82428">
        <ele>574.8</ele>
        <time>2022-05-24T15:01:10Z</time>
      </trkpt>
      <trkpt lat="46.81155" lon="5.82431">
        <ele>575</ele>
        <time>2022-05-24T15:01:11Z</time>
      </trkpt>
      <trkpt lat="46.8115" lon="5.82434">
        <ele>575.2</ele>
        <time>2022-05-24T15:01:12Z</time>
      </trkpt>
      <trkpt lat="46.81144" lon="5.82437">
        <ele>575.2</ele>
        <time>2022-05-24T15:01:13Z</time>
      </trkpt>
      <trkpt lat="46.81138" lon="5.8244">
        <ele>575.2</ele>
        <time>2022-05-24T15:01:14Z</time>
      </trkpt>
      <trkpt lat="46.81133" lon="5.82443">
        <ele>575.2</ele>
        <time>2022-05-24T15:01:15Z</time>
      </trkpt>
      <trkpt lat="46.81127" lon="5.82446">
        <ele>575.2</ele>
        <time>2022-05-24T15:01:16Z</time>
      </trkpt>
      <trkpt lat="46.81122" lon="5.82449">
        <ele>575.4</ele>
        <time>2022-05-24T15:01:17Z</time>
      </trkpt>
      <trkpt lat="46.81116" lon="5.82452">
        <ele>575.6</ele>
        <time>2022-05-24T15:01:18Z</time>
      </trkpt>
      <trkpt lat="46.81111" lon="5.82455">
        <ele>575.6</ele>
        <time>2022-05-24T15:01:19Z</time>
      </trkpt>
      <trkpt lat="46.81111" lon="5.82455">
        <ele>576</ele>
        <time>2022-05-24T15:01:20Z</time>
      </trkpt>
      <trkpt lat="46.81105" lon="5.82458">
        <ele>576</ele>
        <time>2022-05-24T15:01:21Z</time>
      </trkpt>
      <trkpt lat="46.811" lon="5.8246">
        <ele>576</ele>
        <time>2022-05-24T15:01:22Z</time>
      </trkpt>
      <trkpt lat="46.81095" lon="5.82463">
        <ele>576.2</ele>
        <time>2022-05-24T15:01:23Z</time>
      </trkpt>
      <trkpt lat="46.81089" lon="5.82466">
        <ele>576.2</ele>
        <time>2022-05-24T15:01:24Z</time>
      </trkpt>
      <trkpt lat="46.81084" lon="5.82468">
        <ele>576.2</ele>
        <time>2022-05-24T15:01:25Z</time>
      </trkpt>
      <trkpt lat="46.81078" lon="5.82471">
        <ele>576.6</ele>
        <time>2022-05-24T15:01:26Z</time>
      </trkpt>
      <trkpt lat="46.81073" lon="5.82474">
        <ele>576.6</ele>
        <time>2022-05-24T15:01:27Z</time>
      </trkpt>
      <trkpt lat="46.81067" lon="5.82477">
        <ele>576.6</ele>
        <time>2022-05-24T15:01:28Z</time>
      </trkpt>
      <trkpt lat="46.81062" lon="5.82479">
        <ele>576.6</ele>
        <time>2022-05-24T15:01:29Z</time>
      </trkpt>
      <trkpt lat="46.81056" lon="5.82482">
        <ele>577</ele>
        <time>2022-05-24T15:01:30Z</time>
      </trkpt>
      <trkpt lat="46.81051" lon="5.82485">
        <ele>577</ele>
        <time>2022-05-24T15:01:31Z</time>
      </trkpt>
      <trkpt lat="46.81046" lon="5.82487">
        <ele>577.2</ele>
        <time>2022-05-24T15:01:32Z</time>
      </trkpt>
      <trkpt lat="46.8104" lon="5.8249">
        <ele>577.2</ele>
        <time>2022-05-24T15:01:33Z</time>
      </trkpt>
      <trkpt lat="46.81035" lon="5.82493">
        <ele>577.2</ele>
        <time>2022-05-24T15:01:34Z</time>
      </trkpt>
      <trkpt lat="46.8103" lon="5.82495">
        <ele>577.2</ele>
        <time>2022-05-24T15:01:35Z</time>
      </trkpt>
      <trkpt lat="46.81025" lon="5.82498">
        <ele>577.2</ele>
        <time>2022-05-24T15:01:36Z</time>
      </trkpt>
      <trkpt lat="46.8102" lon="5.825">
        <ele>577.4</ele>
        <time>2022-05-24T15:01:37Z</time>
      </trkpt>
      <trkpt lat="46.81015" lon="5.82503">
        <ele>577.4</ele>
        <time>2022-05-24T15:01:38Z</time>
      </trkpt>
      <trkpt lat="46.8101" lon="5.82506">
        <ele>577.4</ele>
        <time>2022-05-24T15:01:39Z</time>
      </trkpt>
      <trkpt lat="46.81005" lon="5.82509">
        <ele>577.8</ele>
        <time>2022-05-24T15:01:40Z</time>
      </trkpt>
      <trkpt lat="46.81" lon="5.82512">
        <ele>577.8</ele>
        <time>2022-05-24T15:01:41Z</time>
      </trkpt>
      <trkpt lat="46.80995" lon="5.82516">
        <ele>577.8</ele>
        <time>2022-05-24T15:01:42Z</time>
      </trkpt>
      <trkpt lat="46.80989" lon="5.82519">
        <ele>578</ele>
        <time>2022-05-24T15:01:43Z</time>
      </trkpt>
      <trkpt lat="46.80984" lon="5.82523">
        <ele>578</ele>
        <time>2022-05-24T15:01:44Z</time>
      </trkpt>
      <trkpt lat="46.80979" lon="5.82527">
        <ele>578.2</ele>
        <time>2022-05-24T15:01:45Z</time>
      </trkpt>
      <trkpt lat="46.80973" lon="5.82531">
        <ele>578.2</ele>
        <time>2022-05-24T15:01:46Z</time>
      </trkpt>
      <trkpt lat="46.80968" lon="5.82536">
        <ele>578.2</ele>
        <time>2022-05-24T15:01:47Z</time>
      </trkpt>
      <trkpt lat="46.80963" lon="5.8254">
        <ele>578.2</ele>
        <time>2022-05-24T15:01:48Z</time>
      </trkpt>
      <trkpt lat="46.80957" lon="5.82545">
        <ele>578</ele>
        <time>2022-05-24T15:01:49Z</time>
      </trkpt>
      <trkpt lat="46.80952" lon="5.82549">
        <ele>578</ele>
        <time>2022-05-24T15:01:50Z</time>
      </trkpt>
      <trkpt lat="46.80946" lon="5.82554">
        <ele>578</ele>
        <time>2022-05-24T15:01:51Z</time>
      </trkpt>
      <trkpt lat="46.80941" lon="5.82558">
        <ele>577.8</ele>
        <time>2022-05-24T15:01:52Z</time>
      </trkpt>
      <trkpt lat="46.80935" lon="5.82563">
        <ele>577.8</ele>
        <time>2022-05-24T15:01:53Z</time>
      </trkpt>
      <trkpt lat="46.80929" lon="5.82568">
        <ele>577.8</ele>
        <time>2022-05-24T15:01:54Z</time>
      </trkpt>
      <trkpt lat="46.80923" lon="5.82573">
        <ele>577.6</ele>
        <time>2022-05-24T15:01:55Z</time>
      </trkpt>
      <trkpt lat="46.80917" lon="5.82578">
        <ele>577.6</ele>
        <time>2022-05-24T15:01:56Z</time>
      </trkpt>
      <trkpt lat="46.80911" lon="5.82583">
        <ele>577.6</ele>
        <time>2022-05-24T15:01:57Z</time>
      </trkpt>
      <trkpt lat="46.80905" lon="5.82588">
        <ele>577.6</ele>
        <time>2022-05-24T15:01:58Z</time>
      </trkpt>
      <trkpt lat="46.80899" lon="5.82594">
        <ele>577.6</ele>
        <time>2022-05-24T15:01:59Z</time>
      </trkpt>
      <trkpt lat="46.80892" lon="5.82599">
        <ele>577.6</ele>
        <time>2022-05-24T15:02:00Z</time>
      </trkpt>
      <trkpt lat="46.80886" lon="5.82604">
        <ele>577.4</ele>
        <time>2022-05-24T15:02:01Z</time>
      </trkpt>
      <trkpt lat="46.8088" lon="5.8261">
        <ele>577.4</ele>
        <time>2022-05-24T15:02:02Z</time>
      </trkpt>
      <trkpt lat="46.80874" lon="5.82615">
        <ele>577.4</ele>
        <time>2022-05-24T15:02:03Z</time>
      </trkpt>
      <trkpt lat="46.80867" lon="5.8262">
        <ele>577.4</ele>
        <time>2022-05-24T15:02:04Z</time>
      </trkpt>
      <trkpt lat="46.80861" lon="5.82625">
        <ele>577.4</ele>
        <time>2022-05-24T15:02:05Z</time>
      </trkpt>
      <trkpt lat="46.80855" lon="5.82631">
        <ele>577.4</ele>
        <time>2022-05-24T15:02:06Z</time>
      </trkpt>
      <trkpt lat="46.80849" lon="5.82636">
        <ele>577.4</ele>
        <time>2022-05-24T15:02:07Z</time>
      </trkpt>
      <trkpt lat="46.80843" lon="5.82641">
        <ele>577.4</ele>
        <time>2022-05-24T15:02:08Z</time>
      </trkpt>
      <trkpt lat="46.80837" lon="5.82646">
        <ele>577</ele>
        <time>2022-05-24T15:02:09Z</time>
      </trkpt>
      <trkpt lat="46.80831" lon="5.82651">
        <ele>577</ele>
        <time>2022-05-24T15:02:10Z</time>
      </trkpt>
      <trkpt lat="46.80825" lon="5.82656">
        <ele>577</ele>
        <time>2022-05-24T15:02:11Z</time>
      </trkpt>
      <trkpt lat="46.80819" lon="5.82661">
        <ele>577</ele>
        <time>2022-05-24T15:02:12Z</time>
      </trkpt>
      <trkpt lat="46.80813" lon="5.82666">
        <ele>577</ele>
        <time>2022-05-24T15:02:13Z</time>
      </trkpt>
      <trkpt lat="46.80807" lon="5.82671">
        <ele>577</ele>
        <time>2022-05-24T15:02:14Z</time>
      </trkpt>
      <trkpt lat="46.80801" lon="5.82676">
        <ele>577.4</ele>
        <time>2022-05-24T15:02:15Z</time>
      </trkpt>
      <trkpt lat="46.80795" lon="5.82681">
        <ele>577.4</ele>
        <time>2022-05-24T15:02:16Z</time>
      </trkpt>
      <trkpt lat="46.80789" lon="5.82686">
        <ele>577.4</ele>
        <time>2022-05-24T15:02:17Z</time>
      </trkpt>
      <trkpt lat="46.80784" lon="5.8269">
        <ele>577.4</ele>
        <time>2022-05-24T15:02:18Z</time>
      </trkpt>
      <trkpt lat="46.80778" lon="5.82695">
        <ele>577.4</ele>
        <time>2022-05-24T15:02:19Z</time>
      </trkpt>
      <trkpt lat="46.80773" lon="5.827">
        <ele>577.6</ele>
        <time>2022-05-24T15:02:20Z</time>
      </trkpt>
      <trkpt lat="46.80767" lon="5.82704">
        <ele>577.6</ele>
        <time>2022-05-24T15:02:21Z</time>
      </trkpt>
      <trkpt lat="46.80762" lon="5.82709">
        <ele>577.6</ele>
        <time>2022-05-24T15:02:22Z</time>
      </trkpt>
      <trkpt lat="46.80756" lon="5.82713">
        <ele>577.6</ele>
        <time>2022-05-24T15:02:23Z</time>
      </trkpt>
      <trkpt lat="46.80751" lon="5.82718">
        <ele>577.6</ele>
        <time>2022-05-24T15:02:24Z</time>
      </trkpt>
      <trkpt lat="46.80745" lon="5.82722">
        <ele>577.6</ele>
        <time>2022-05-24T15:02:25Z</time>
      </trkpt>
      <trkpt lat="46.8074" lon="5.82727">
        <ele>577.6</ele>
        <time>2022-05-24T15:02:26Z</time>
      </trkpt>
      <trkpt lat="46.80735" lon="5.82731">
        <ele>577.6</ele>
        <time>2022-05-24T15:02:27Z</time>
      </trkpt>
      <trkpt lat="46.8073" lon="5.82735">
        <ele>577.6</ele>
        <time>2022-05-24T15:02:28Z</time>
      </trkpt>
      <trkpt lat="46.80725" lon="5.82739">
        <ele>577.6</ele>
        <time>2022-05-24T15:02:29Z</time>
      </trkpt>
      <trkpt lat="46.8072" lon="5.82743">
        <ele>577.6</ele>
        <time>2022-05-24T15:02:30Z</time>
      </trkpt>
      <trkpt lat="46.80715" lon="5.82747">
        <ele>577.6</ele>
        <time>2022-05-24T15:02:31Z</time>
      </trkpt>
      <trkpt lat="46.80709" lon="5.82751">
        <ele>577.6</ele>
        <time>2022-05-24T15:02:32Z</time>
      </trkpt>
      <trkpt lat="46.80704" lon="5.82755">
        <ele>577.6</ele>
        <time>2022-05-24T15:02:33Z</time>
      </trkpt>
      <trkpt lat="46.80699" lon="5.82759">
        <ele>577.6</ele>
        <time>2022-05-24T15:02:34Z</time>
      </trkpt>
      <trkpt lat="46.80695" lon="5.82764">
        <ele>577.6</ele>
        <time>2022-05-24T15:02:35Z</time>
      </trkpt>
      <trkpt lat="46.8069" lon="5.82768">
        <ele>577.6</ele>
        <time>2022-05-24T15:02:36Z</time>
      </trkpt>
      <trkpt lat="46.80685" lon="5.82772">
        <ele>577.6</ele>
        <time>2022-05-24T15:02:37Z</time>
      </trkpt>
      <trkpt lat="46.8068" lon="5.82776">
        <ele>577.6</ele>
        <time>2022-05-24T15:02:38Z</time>
      </trkpt>
      <trkpt lat="46.80675" lon="5.8278">
        <ele>577.6</ele>
        <time>2022-05-24T15:02:39Z</time>
      </trkpt>
      <trkpt lat="46.8067" lon="5.82784">
        <ele>577.2</ele>
        <time>2022-05-24T15:02:40Z</time>
      </trkpt>
      <trkpt lat="46.80665" lon="5.82788">
        <ele>577.2</ele>
        <time>2022-05-24T15:02:41Z</time>
      </trkpt>
      <trkpt lat="46.80661" lon="5.82791">
        <ele>577.2</ele>
        <time>2022-05-24T15:02:42Z</time>
      </trkpt>
      <trkpt lat="46.80656" lon="5.82795">
        <ele>577.2</ele>
        <time>2022-05-24T15:02:43Z</time>
      </trkpt>
      <trkpt lat="46.80652" lon="5.82798">
        <ele>577.2</ele>
        <time>2022-05-24T15:02:44Z</time>
      </trkpt>
      <trkpt lat="46.80647" lon="5.82799">
        <ele>577.2</ele>
        <time>2022-05-24T15:02:45Z</time>
      </trkpt>
      <trkpt lat="46.80642" lon="5.82798">
        <ele>577.2</ele>
        <time>2022-05-24T15:02:46Z</time>
      </trkpt>
      <trkpt lat="46.80637" lon="5.82796">
        <ele>577</ele>
        <time>2022-05-24T15:02:47Z</time>
      </trkpt>
      <trkpt lat="46.80633" lon="5.82793">
        <ele>577</ele>
        <time>2022-05-24T15:02:48Z</time>
      </trkpt>
      <trkpt lat="46.80629" lon="5.8279">
        <ele>577</ele>
        <time>2022-05-24T15:02:49Z</time>
      </trkpt>
      <trkpt lat="46.80625" lon="5.82788">
        <ele>577</ele>
        <time>2022-05-24T15:02:50Z</time>
      </trkpt>
      <trkpt lat="46.8062" lon="5.82785">
        <ele>577</ele>
        <time>2022-05-24T15:02:51Z</time>
      </trkpt>
      <trkpt lat="46.80616" lon="5.82783">
        <ele>577</ele>
        <time>2022-05-24T15:02:52Z</time>
      </trkpt>
      <trkpt lat="46.80612" lon="5.82781">
        <ele>576.8</ele>
        <time>2022-05-24T15:02:53Z</time>
      </trkpt>
      <trkpt lat="46.80608" lon="5.82778">
        <ele>576.8</ele>
        <time>2022-05-24T15:02:54Z</time>
      </trkpt>
      <trkpt lat="46.80603" lon="5.82776">
        <ele>576.4</ele>
        <time>2022-05-24T15:02:55Z</time>
      </trkpt>
      <trkpt lat="46.80599" lon="5.82773">
        <ele>576.4</ele>
        <time>2022-05-24T15:02:56Z</time>
      </trkpt>
      <trkpt lat="46.80594" lon="5.82771">
        <ele>576</ele>
        <time>2022-05-24T15:02:57Z</time>
      </trkpt>
      <trkpt lat="46.8059" lon="5.82768">
        <ele>576</ele>
        <time>2022-05-24T15:02:58Z</time>
      </trkpt>
      <trkpt lat="46.80585" lon="5.82766">
        <ele>575.6</ele>
        <time>2022-05-24T15:02:59Z</time>
      </trkpt>
      <trkpt lat="46.80579" lon="5.82764">
        <ele>575.6</ele>
        <time>2022-05-24T15:03:00Z</time>
      </trkpt>
      <trkpt lat="46.80574" lon="5.82762">
        <ele>575.4</ele>
        <time>2022-05-24T15:03:01Z</time>
      </trkpt>
      <trkpt lat="46.80568" lon="5.82761">
        <ele>575.4</ele>
        <time>2022-05-24T15:03:02Z</time>
      </trkpt>
      <trkpt lat="46.80563" lon="5.8276">
        <ele>575</ele>
        <time>2022-05-24T15:03:03Z</time>
      </trkpt>
      <trkpt lat="46.80558" lon="5.82759">
        <ele>575</ele>
        <time>2022-05-24T15:03:04Z</time>
      </trkpt>
      <trkpt lat="46.80553" lon="5.82759">
        <ele>575</ele>
        <time>2022-05-24T15:03:05Z</time>
      </trkpt>
      <trkpt lat="46.80549" lon="5.82758">
        <ele>575</ele>
        <time>2022-05-24T15:03:06Z</time>
      </trkpt>
      <trkpt lat="46.80544" lon="5.82758">
        <ele>575</ele>
        <time>2022-05-24T15:03:07Z</time>
      </trkpt>
      <trkpt lat="46.80539" lon="5.82758">
        <ele>575</ele>
        <time>2022-05-24T15:03:08Z</time>
      </trkpt>
      <trkpt lat="46.80535" lon="5.82757">
        <ele>575</ele>
        <time>2022-05-24T15:03:09Z</time>
      </trkpt>
      <trkpt lat="46.8053" lon="5.82757">
        <ele>575</ele>
        <time>2022-05-24T15:03:10Z</time>
      </trkpt>
      <trkpt lat="46.80526" lon="5.82757">
        <ele>575</ele>
        <time>2022-05-24T15:03:11Z</time>
      </trkpt>
      <trkpt lat="46.80521" lon="5.82756">
        <ele>575</ele>
        <time>2022-05-24T15:03:12Z</time>
      </trkpt>
      <trkpt lat="46.80517" lon="5.82756">
        <ele>574.8</ele>
        <time>2022-05-24T15:03:13Z</time>
      </trkpt>
      <trkpt lat="46.80513" lon="5.82755">
        <ele>574.8</ele>
        <time>2022-05-24T15:03:14Z</time>
      </trkpt>
      <trkpt lat="46.80508" lon="5.82748">
        <ele>574.8</ele>
        <time>2022-05-24T15:03:15Z</time>
      </trkpt>
      <trkpt lat="46.80506" lon="5.82743">
        <ele>574.8</ele>
        <time>2022-05-24T15:03:16Z</time>
      </trkpt>
      <trkpt lat="46.80505" lon="5.82737">
        <ele>574.8</ele>
        <time>2022-05-24T15:03:17Z</time>
      </trkpt>
      <trkpt lat="46.80506" lon="5.82731">
        <ele>574.8</ele>
        <time>2022-05-24T15:03:18Z</time>
      </trkpt>
      <trkpt lat="46.80506" lon="5.82725">
        <ele>574.8</ele>
        <time>2022-05-24T15:03:19Z</time>
      </trkpt>
      <trkpt lat="46.80507" lon="5.82718">
        <ele>574.8</ele>
        <time>2022-05-24T15:03:20Z</time>
      </trkpt>
      <trkpt lat="46.80507" lon="5.82712">
        <ele>574.8</ele>
        <time>2022-05-24T15:03:21Z</time>
      </trkpt>
      <trkpt lat="46.80508" lon="5.82705">
        <ele>574.8</ele>
        <time>2022-05-24T15:03:22Z</time>
      </trkpt>
      <trkpt lat="46.80508" lon="5.82698">
        <ele>575</ele>
        <time>2022-05-24T15:03:23Z</time>
      </trkpt>
      <trkpt lat="46.80508" lon="5.82692">
        <ele>575</ele>
        <time>2022-05-24T15:03:24Z</time>
      </trkpt>
      <trkpt lat="46.80508" lon="5.82686">
        <ele>575</ele>
        <time>2022-05-24T15:03:25Z</time>
      </trkpt>
      <trkpt lat="46.80508" lon="5.8268">
        <ele>574.8</ele>
        <time>2022-05-24T15:03:26Z</time>
      </trkpt>
      <trkpt lat="46.80508" lon="5.82674">
        <ele>574.8</ele>
        <time>2022-05-24T15:03:27Z</time>
      </trkpt>
      <trkpt lat="46.80506" lon="5.82668">
        <ele>574.8</ele>
        <time>2022-05-24T15:03:28Z</time>
      </trkpt>
      <trkpt lat="46.80504" lon="5.82664">
        <ele>574.8</ele>
        <time>2022-05-24T15:03:29Z</time>
      </trkpt>
      <trkpt lat="46.805" lon="5.82661">
        <ele>574.6</ele>
        <time>2022-05-24T15:03:30Z</time>
      </trkpt>
      <trkpt lat="46.80496" lon="5.82659">
        <ele>574.6</ele>
        <time>2022-05-24T15:03:31Z</time>
      </trkpt>
      <trkpt lat="46.80492" lon="5.82659">
        <ele>574.6</ele>
        <time>2022-05-24T15:03:32Z</time>
      </trkpt>
      <trkpt lat="46.80489" lon="5.82659">
        <ele>574.2</ele>
        <time>2022-05-24T15:03:33Z</time>
      </trkpt>
      <trkpt lat="46.80485" lon="5.8266">
        <ele>574.2</ele>
        <time>2022-05-24T15:03:34Z</time>
      </trkpt>
      <trkpt lat="46.80482" lon="5.82661">
        <ele>574.2</ele>
        <time>2022-05-24T15:03:35Z</time>
      </trkpt>
      <trkpt lat="46.80479" lon="5.82662">
        <ele>574.2</ele>
        <time>2022-05-24T15:03:36Z</time>
      </trkpt>
      <trkpt lat="46.80476" lon="5.82664">
        <ele>574</ele>
        <time>2022-05-24T15:03:37Z</time>
      </trkpt>
      <trkpt lat="46.80474" lon="5.82665">
        <ele>574</ele>
        <time>2022-05-24T15:03:38Z</time>
      </trkpt>
      <trkpt lat="46.80472" lon="5.82667">
        <ele>574</ele>
        <time>2022-05-24T15:03:39Z</time>
      </trkpt>
      <trkpt lat="46.8047" lon="5.82669">
        <ele>574</ele>
        <time>2022-05-24T15:03:40Z</time>
      </trkpt>
      <trkpt lat="46.80468" lon="5.82671">
        <ele>574</ele>
        <time>2022-05-24T15:03:41Z</time>
      </trkpt>
      <trkpt lat="46.80465" lon="5.82673">
        <ele>574</ele>
        <time>2022-05-24T15:03:42Z</time>
      </trkpt>
      <trkpt lat="46.80463" lon="5.82675">
        <ele>574</ele>
        <time>2022-05-24T15:03:43Z</time>
      </trkpt>
      <trkpt lat="46.80459" lon="5.82677">
        <ele>574</ele>
        <time>2022-05-24T15:03:44Z</time>
      </trkpt>
      <trkpt lat="46.80456" lon="5.82679">
        <ele>574.2</ele>
        <time>2022-05-24T15:03:45Z</time>
      </trkpt>
      <trkpt lat="46.80453" lon="5.82682">
        <ele>574.2</ele>
        <time>2022-05-24T15:03:46Z</time>
      </trkpt>
      <trkpt lat="46.80449" lon="5.82684">
        <ele>574.2</ele>
        <time>2022-05-24T15:03:47Z</time>
      </trkpt>
      <trkpt lat="46.80446" lon="5.82687">
        <ele>574.2</ele>
        <time>2022-05-24T15:03:48Z</time>
      </trkpt>
      <trkpt lat="46.80442" lon="5.82689">
        <ele>574.2</ele>
        <time>2022-05-24T15:03:49Z</time>
      </trkpt>
      <trkpt lat="46.80437" lon="5.82692">
        <ele>574.2</ele>
        <time>2022-05-24T15:03:50Z</time>
      </trkpt>
      <trkpt lat="46.80433" lon="5.82695">
        <ele>574.2</ele>
        <time>2022-05-24T15:03:51Z</time>
      </trkpt>
      <trkpt lat="46.80429" lon="5.82698">
        <ele>574.2</ele>
        <time>2022-05-24T15:03:52Z</time>
      </trkpt>
      <trkpt lat="46.80425" lon="5.82701">
        <ele>574.2</ele>
        <time>2022-05-24T15:03:53Z</time>
      </trkpt>
      <trkpt lat="46.8042" lon="5.82704">
        <ele>574.6</ele>
        <time>2022-05-24T15:03:54Z</time>
      </trkpt>
      <trkpt lat="46.80416" lon="5.82707">
        <ele>574.6</ele>
        <time>2022-05-24T15:03:55Z</time>
      </trkpt>
      <trkpt lat="46.80411" lon="5.82709">
        <ele>574.6</ele>
        <time>2022-05-24T15:03:56Z</time>
      </trkpt>
      <trkpt lat="46.80407" lon="5.82712">
        <ele>574.6</ele>
        <time>2022-05-24T15:03:57Z</time>
      </trkpt>
      <trkpt lat="46.80402" lon="5.82713">
        <ele>574.6</ele>
        <time>2022-05-24T15:03:58Z</time>
      </trkpt>
      <trkpt lat="46.80396" lon="5.82714">
        <ele>574.6</ele>
        <time>2022-05-24T15:03:59Z</time>
      </trkpt>
      <trkpt lat="46.80391" lon="5.82715">
        <ele>574.6</ele>
        <time>2022-05-24T15:04:00Z</time>
      </trkpt>
      <trkpt lat="46.80386" lon="5.82716">
        <ele>574.8</ele>
        <time>2022-05-24T15:04:01Z</time>
      </trkpt>
      <trkpt lat="46.8038" lon="5.82717">
        <ele>574.8</ele>
        <time>2022-05-24T15:04:02Z</time>
      </trkpt>
      <trkpt lat="46.80375" lon="5.82719">
        <ele>574.8</ele>
        <time>2022-05-24T15:04:03Z</time>
      </trkpt>
      <trkpt lat="46.8037" lon="5.8272">
        <ele>574.8</ele>
        <time>2022-05-24T15:04:04Z</time>
      </trkpt>
      <trkpt lat="46.80364" lon="5.82722">
        <ele>574.8</ele>
        <time>2022-05-24T15:04:05Z</time>
      </trkpt>
      <trkpt lat="46.80358" lon="5.82724">
        <ele>574.8</ele>
        <time>2022-05-24T15:04:06Z</time>
      </trkpt>
      <trkpt lat="46.80353" lon="5.82725">
        <ele>574.8</ele>
        <time>2022-05-24T15:04:07Z</time>
      </trkpt>
      <trkpt lat="46.80347" lon="5.82727">
        <ele>574.8</ele>
        <time>2022-05-24T15:04:08Z</time>
      </trkpt>
      <trkpt lat="46.80342" lon="5.8273">
        <ele>574.8</ele>
        <time>2022-05-24T15:04:09Z</time>
      </trkpt>
      <trkpt lat="46.80337" lon="5.82732">
        <ele>574.8</ele>
        <time>2022-05-24T15:04:10Z</time>
      </trkpt>
      <trkpt lat="46.80331" lon="5.82733">
        <ele>574.8</ele>
        <time>2022-05-24T15:04:11Z</time>
      </trkpt>
      <trkpt lat="46.80326" lon="5.82735">
        <ele>574.8</ele>
        <time>2022-05-24T15:04:12Z</time>
      </trkpt>
      <trkpt lat="46.80321" lon="5.82736">
        <ele>574.8</ele>
        <time>2022-05-24T15:04:13Z</time>
      </trkpt>
      <trkpt lat="46.80315" lon="5.82738">
        <ele>574.8</ele>
        <time>2022-05-24T15:04:14Z</time>
      </trkpt>
      <trkpt lat="46.8031" lon="5.8274">
        <ele>575</ele>
        <time>2022-05-24T15:04:15Z</time>
      </trkpt>
      <trkpt lat="46.80305" lon="5.82741">
        <ele>575</ele>
        <time>2022-05-24T15:04:16Z</time>
      </trkpt>
      <trkpt lat="46.803" lon="5.82743">
        <ele>575</ele>
        <time>2022-05-24T15:04:17Z</time>
      </trkpt>
      <trkpt lat="46.80295" lon="5.82744">
        <ele>575.2</ele>
        <time>2022-05-24T15:04:18Z</time>
      </trkpt>
      <trkpt lat="46.80291" lon="5.82746">
        <ele>575.2</ele>
        <time>2022-05-24T15:04:19Z</time>
      </trkpt>
      <trkpt lat="46.80286" lon="5.82747">
        <ele>575.6</ele>
        <time>2022-05-24T15:04:20Z</time>
      </trkpt>
      <trkpt lat="46.80281" lon="5.82749">
        <ele>575.8</ele>
        <time>2022-05-24T15:04:21Z</time>
      </trkpt>
      <trkpt lat="46.80276" lon="5.8275">
        <ele>575.8</ele>
        <time>2022-05-24T15:04:22Z</time>
      </trkpt>
      <trkpt lat="46.80272" lon="5.82753">
        <ele>576.2</ele>
        <time>2022-05-24T15:04:23Z</time>
      </trkpt>
      <trkpt lat="46.80267" lon="5.82755">
        <ele>576.2</ele>
        <time>2022-05-24T15:04:24Z</time>
      </trkpt>
      <trkpt lat="46.80263" lon="5.82759">
        <ele>576.4</ele>
        <time>2022-05-24T15:04:25Z</time>
      </trkpt>
      <trkpt lat="46.80259" lon="5.82764">
        <ele>576.8</ele>
        <time>2022-05-24T15:04:26Z</time>
      </trkpt>
      <trkpt lat="46.80255" lon="5.82769">
        <ele>577</ele>
        <time>2022-05-24T15:04:27Z</time>
      </trkpt>
      <trkpt lat="46.80252" lon="5.82774">
        <ele>577.2</ele>
        <time>2022-05-24T15:04:28Z</time>
      </trkpt>
      <trkpt lat="46.80248" lon="5.82779">
        <ele>577.4</ele>
        <time>2022-05-24T15:04:29Z</time>
      </trkpt>
      <trkpt lat="46.80244" lon="5.82784">
        <ele>577.8</ele>
        <time>2022-05-24T15:04:30Z</time>
      </trkpt>
      <trkpt lat="46.80241" lon="5.82787">
        <ele>578</ele>
        <time>2022-05-24T15:04:31Z</time>
      </trkpt>
      <trkpt lat="46.80237" lon="5.82791">
        <ele>578.4</ele>
        <time>2022-05-24T15:04:32Z</time>
      </trkpt>
      <trkpt lat="46.80237" lon="5.82791">
        <ele>578.6</ele>
        <time>2022-05-24T15:04:33Z</time>
      </trkpt>
      <trkpt lat="46.80233" lon="5.82794">
        <ele>578.8</ele>
        <time>2022-05-24T15:04:34Z</time>
      </trkpt>
      <trkpt lat="46.80229" lon="5.82797">
        <ele>579.2</ele>
        <time>2022-05-24T15:04:35Z</time>
      </trkpt>
      <trkpt lat="46.80226" lon="5.828">
        <ele>579.4</ele>
        <time>2022-05-24T15:04:36Z</time>
      </trkpt>
      <trkpt lat="46.80222" lon="5.82803">
        <ele>579.6</ele>
        <time>2022-05-24T15:04:37Z</time>
      </trkpt>
      <trkpt lat="46.80219" lon="5.82806">
        <ele>579.8</ele>
        <time>2022-05-24T15:04:38Z</time>
      </trkpt>
      <trkpt lat="46.80215" lon="5.82808">
        <ele>579.8</ele>
        <time>2022-05-24T15:04:39Z</time>
      </trkpt>
      <trkpt lat="46.80212" lon="5.8281">
        <ele>580.2</ele>
        <time>2022-05-24T15:04:40Z</time>
      </trkpt>
      <trkpt lat="46.80209" lon="5.82812">
        <ele>580.2</ele>
        <time>2022-05-24T15:04:41Z</time>
      </trkpt>
      <trkpt lat="46.80205" lon="5.82814">
        <ele>580.4</ele>
        <time>2022-05-24T15:04:42Z</time>
      </trkpt>
      <trkpt lat="46.80202" lon="5.82816">
        <ele>580.4</ele>
        <time>2022-05-24T15:04:43Z</time>
      </trkpt>
      <trkpt lat="46.80198" lon="5.82817">
        <ele>580.6</ele>
        <time>2022-05-24T15:04:44Z</time>
      </trkpt>
      <trkpt lat="46.80194" lon="5.82819">
        <ele>580.6</ele>
        <time>2022-05-24T15:04:45Z</time>
      </trkpt>
      <trkpt lat="46.8019" lon="5.82821">
        <ele>581</ele>
        <time>2022-05-24T15:04:46Z</time>
      </trkpt>
      <trkpt lat="46.80187" lon="5.82822">
        <ele>581.2</ele>
        <time>2022-05-24T15:04:47Z</time>
      </trkpt>
      <trkpt lat="46.80183" lon="5.82824">
        <ele>581.2</ele>
        <time>2022-05-24T15:04:48Z</time>
      </trkpt>
      <trkpt lat="46.8018" lon="5.82827">
        <ele>581.6</ele>
        <time>2022-05-24T15:04:49Z</time>
      </trkpt>
      <trkpt lat="46.80177" lon="5.82831">
        <ele>581.6</ele>
        <time>2022-05-24T15:04:50Z</time>
      </trkpt>
      <trkpt lat="46.80173" lon="5.82835">
        <ele>581.8</ele>
        <time>2022-05-24T15:04:51Z</time>
      </trkpt>
      <trkpt lat="46.8017" lon="5.82838">
        <ele>582</ele>
        <time>2022-05-24T15:04:52Z</time>
      </trkpt>
      <trkpt lat="46.80166" lon="5.82842">
        <ele>582.2</ele>
        <time>2022-05-24T15:04:53Z</time>
      </trkpt>
      <trkpt lat="46.80162" lon="5.82845">
        <ele>582.6</ele>
        <time>2022-05-24T15:04:54Z</time>
      </trkpt>
      <trkpt lat="46.80159" lon="5.82848">
        <ele>582.8</ele>
        <time>2022-05-24T15:04:55Z</time>
      </trkpt>
      <trkpt lat="46.80155" lon="5.82851">
        <ele>583</ele>
        <time>2022-05-24T15:04:56Z</time>
      </trkpt>
      <trkpt lat="46.80151" lon="5.82854">
        <ele>583.4</ele>
        <time>2022-05-24T15:04:57Z</time>
      </trkpt>
      <trkpt lat="46.80148" lon="5.82858">
        <ele>583.6</ele>
        <time>2022-05-24T15:04:58Z</time>
      </trkpt>
      <trkpt lat="46.80145" lon="5.82862">
        <ele>584</ele>
        <time>2022-05-24T15:04:59Z</time>
      </trkpt>
      <trkpt lat="46.80142" lon="5.82866">
        <ele>584.2</ele>
        <time>2022-05-24T15:05:00Z</time>
      </trkpt>
      <trkpt lat="46.80139" lon="5.8287">
        <ele>584.4</ele>
        <time>2022-05-24T15:05:01Z</time>
      </trkpt>
      <trkpt lat="46.80136" lon="5.82874">
        <ele>584.8</ele>
        <time>2022-05-24T15:05:02Z</time>
      </trkpt>
      <trkpt lat="46.80134" lon="5.82879">
        <ele>585</ele>
        <time>2022-05-24T15:05:03Z</time>
      </trkpt>
      <trkpt lat="46.80132" lon="5.82884">
        <ele>585.4</ele>
        <time>2022-05-24T15:05:04Z</time>
      </trkpt>
      <trkpt lat="46.8013" lon="5.82889">
        <ele>585.6</ele>
        <time>2022-05-24T15:05:05Z</time>
      </trkpt>
      <trkpt lat="46.80128" lon="5.82894">
        <ele>586</ele>
        <time>2022-05-24T15:05:06Z</time>
      </trkpt>
      <trkpt lat="46.80126" lon="5.82899">
        <ele>586.2</ele>
        <time>2022-05-24T15:05:07Z</time>
      </trkpt>
      <trkpt lat="46.80125" lon="5.82904">
        <ele>586.6</ele>
        <time>2022-05-24T15:05:08Z</time>
      </trkpt>
      <trkpt lat="46.80123" lon="5.82909">
        <ele>586.8</ele>
        <time>2022-05-24T15:05:09Z</time>
      </trkpt>
      <trkpt lat="46.80122" lon="5.82914">
        <ele>587.2</ele>
        <time>2022-05-24T15:05:10Z</time>
      </trkpt>
      <trkpt lat="46.8012" lon="5.82918">
        <ele>587.4</ele>
        <time>2022-05-24T15:05:11Z</time>
      </trkpt>
      <trkpt lat="46.80118" lon="5.82922">
        <ele>587.6</ele>
        <time>2022-05-24T15:05:12Z</time>
      </trkpt>
      <trkpt lat="46.80116" lon="5.82926">
        <ele>588</ele>
        <time>2022-05-24T15:05:13Z</time>
      </trkpt>
      <trkpt lat="46.80114" lon="5.8293">
        <ele>588.2</ele>
        <time>2022-05-24T15:05:14Z</time>
      </trkpt>
      <trkpt lat="46.80111" lon="5.82934">
        <ele>588.4</ele>
        <time>2022-05-24T15:05:15Z</time>
      </trkpt>
      <trkpt lat="46.80109" lon="5.82938">
        <ele>588.6</ele>
        <time>2022-05-24T15:05:16Z</time>
      </trkpt>
      <trkpt lat="46.80107" lon="5.82942">
        <ele>589</ele>
        <time>2022-05-24T15:05:17Z</time>
      </trkpt>
      <trkpt lat="46.80105" lon="5.82946">
        <ele>589.2</ele>
        <time>2022-05-24T15:05:18Z</time>
      </trkpt>
      <trkpt lat="46.80103" lon="5.82951">
        <ele>589.2</ele>
        <time>2022-05-24T15:05:19Z</time>
      </trkpt>
      <trkpt lat="46.80101" lon="5.82956">
        <ele>589.6</ele>
        <time>2022-05-24T15:05:20Z</time>
      </trkpt>
      <trkpt lat="46.80099" lon="5.8296">
        <ele>589.8</ele>
        <time>2022-05-24T15:05:21Z</time>
      </trkpt>
      <trkpt lat="46.80097" lon="5.82964">
        <ele>590</ele>
        <time>2022-05-24T15:05:22Z</time>
      </trkpt>
      <trkpt lat="46.80095" lon="5.82968">
        <ele>590.4</ele>
        <time>2022-05-24T15:05:23Z</time>
      </trkpt>
      <trkpt lat="46.80092" lon="5.82972">
        <ele>590.6</ele>
        <time>2022-05-24T15:05:24Z</time>
      </trkpt>
      <trkpt lat="46.8009" lon="5.82976">
        <ele>591</ele>
        <time>2022-05-24T15:05:25Z</time>
      </trkpt>
      <trkpt lat="46.80087" lon="5.8298">
        <ele>591.4</ele>
        <time>2022-05-24T15:05:26Z</time>
      </trkpt>
      <trkpt lat="46.80084" lon="5.82983">
        <ele>591.8</ele>
        <time>2022-05-24T15:05:27Z</time>
      </trkpt>
      <trkpt lat="46.80081" lon="5.82986">
        <ele>592</ele>
        <time>2022-05-24T15:05:28Z</time>
      </trkpt>
      <trkpt lat="46.80078" lon="5.8299">
        <ele>592.2</ele>
        <time>2022-05-24T15:05:29Z</time>
      </trkpt>
      <trkpt lat="46.80075" lon="5.82993">
        <ele>592.2</ele>
        <time>2022-05-24T15:05:30Z</time>
      </trkpt>
      <trkpt lat="46.80072" lon="5.82996">
        <ele>592.6</ele>
        <time>2022-05-24T15:05:31Z</time>
      </trkpt>
      <trkpt lat="46.80069" lon="5.82999">
        <ele>592.6</ele>
        <time>2022-05-24T15:05:32Z</time>
      </trkpt>
      <trkpt lat="46.80066" lon="5.83002">
        <ele>592.8</ele>
        <time>2022-05-24T15:05:33Z</time>
      </trkpt>
      <trkpt lat="46.80063" lon="5.83004">
        <ele>592.8</ele>
        <time>2022-05-24T15:05:34Z</time>
      </trkpt>
      <trkpt lat="46.8006" lon="5.83007">
        <ele>593.2</ele>
        <time>2022-05-24T15:05:35Z</time>
      </trkpt>
      <trkpt lat="46.80057" lon="5.8301">
        <ele>593.2</ele>
        <time>2022-05-24T15:05:36Z</time>
      </trkpt>
      <trkpt lat="46.80054" lon="5.83013">
        <ele>593.6</ele>
        <time>2022-05-24T15:05:37Z</time>
      </trkpt>
      <trkpt lat="46.80051" lon="5.83016">
        <ele>593.6</ele>
        <time>2022-05-24T15:05:38Z</time>
      </trkpt>
      <trkpt lat="46.80047" lon="5.83019">
        <ele>594</ele>
        <time>2022-05-24T15:05:39Z</time>
      </trkpt>
      <trkpt lat="46.80044" lon="5.83022">
        <ele>594.2</ele>
        <time>2022-05-24T15:05:40Z</time>
      </trkpt>
      <trkpt lat="46.80041" lon="5.83024">
        <ele>594.2</ele>
        <time>2022-05-24T15:05:41Z</time>
      </trkpt>
      <trkpt lat="46.80037" lon="5.83026">
        <ele>594.6</ele>
        <time>2022-05-24T15:05:42Z</time>
      </trkpt>
      <trkpt lat="46.80034" lon="5.83029">
        <ele>594.6</ele>
        <time>2022-05-24T15:05:43Z</time>
      </trkpt>
      <trkpt lat="46.80031" lon="5.83031">
        <ele>594.8</ele>
        <time>2022-05-24T15:05:44Z</time>
      </trkpt>
      <trkpt lat="46.80028" lon="5.83033">
        <ele>594.8</ele>
        <time>2022-05-24T15:05:45Z</time>
      </trkpt>
      <trkpt lat="46.80025" lon="5.83035">
        <ele>595</ele>
        <time>2022-05-24T15:05:46Z</time>
      </trkpt>
      <trkpt lat="46.80022" lon="5.83038">
        <ele>595</ele>
        <time>2022-05-24T15:05:47Z</time>
      </trkpt>
      <trkpt lat="46.80019" lon="5.8304">
        <ele>595.2</ele>
        <time>2022-05-24T15:05:48Z</time>
      </trkpt>
      <trkpt lat="46.80017" lon="5.83043">
        <ele>595.2</ele>
        <time>2022-05-24T15:05:49Z</time>
      </trkpt>
      <trkpt lat="46.80014" lon="5.83046">
        <ele>595.6</ele>
        <time>2022-05-24T15:05:50Z</time>
      </trkpt>
      <trkpt lat="46.80011" lon="5.8305">
        <ele>595.6</ele>
        <time>2022-05-24T15:05:51Z</time>
      </trkpt>
      <trkpt lat="46.80009" lon="5.83053">
        <ele>596</ele>
        <time>2022-05-24T15:05:52Z</time>
      </trkpt>
      <trkpt lat="46.80006" lon="5.83057">
        <ele>596</ele>
        <time>2022-05-24T15:05:53Z</time>
      </trkpt>
      <trkpt lat="46.80002" lon="5.83064">
        <ele>596.2</ele>
        <time>2022-05-24T15:05:54Z</time>
      </trkpt>
      <trkpt lat="46.79999" lon="5.83068">
        <ele>596.2</ele>
        <time>2022-05-24T15:05:55Z</time>
      </trkpt>
      <trkpt lat="46.79997" lon="5.83072">
        <ele>596.4</ele>
        <time>2022-05-24T15:05:56Z</time>
      </trkpt>
      <trkpt lat="46.79995" lon="5.83076">
        <ele>596.6</ele>
        <time>2022-05-24T15:05:57Z</time>
      </trkpt>
      <trkpt lat="46.79992" lon="5.8308">
        <ele>596.6</ele>
        <time>2022-05-24T15:05:58Z</time>
      </trkpt>
      <trkpt lat="46.79991" lon="5.83084">
        <ele>597</ele>
        <time>2022-05-24T15:05:59Z</time>
      </trkpt>
      <trkpt lat="46.79989" lon="5.83088">
        <ele>597.2</ele>
        <time>2022-05-24T15:06:00Z</time>
      </trkpt>
      <trkpt lat="46.79987" lon="5.83092">
        <ele>597.4</ele>
        <time>2022-05-24T15:06:01Z</time>
      </trkpt>
      <trkpt lat="46.79986" lon="5.83094">
        <ele>597.6</ele>
        <time>2022-05-24T15:06:02Z</time>
      </trkpt>
      <trkpt lat="46.79984" lon="5.83096">
        <ele>597.8</ele>
        <time>2022-05-24T15:06:03Z</time>
      </trkpt>
      <trkpt lat="46.79982" lon="5.83099">
        <ele>598</ele>
        <time>2022-05-24T15:06:04Z</time>
      </trkpt>
      <trkpt lat="46.7998" lon="5.83101">
        <ele>598.2</ele>
        <time>2022-05-24T15:06:05Z</time>
      </trkpt>
      <trkpt lat="46.79979" lon="5.83103">
        <ele>598.2</ele>
        <time>2022-05-24T15:06:06Z</time>
      </trkpt>
      <trkpt lat="46.79977" lon="5.83105">
        <ele>598.6</ele>
        <time>2022-05-24T15:06:07Z</time>
      </trkpt>
      <trkpt lat="46.79976" lon="5.83107">
        <ele>598.6</ele>
        <time>2022-05-24T15:06:08Z</time>
      </trkpt>
      <trkpt lat="46.79974" lon="5.83108">
        <ele>599</ele>
        <time>2022-05-24T15:06:09Z</time>
      </trkpt>
      <trkpt lat="46.79973" lon="5.83109">
        <ele>599.2</ele>
        <time>2022-05-24T15:06:10Z</time>
      </trkpt>
      <trkpt lat="46.79972" lon="5.8311">
        <ele>599.2</ele>
        <time>2022-05-24T15:06:11Z</time>
      </trkpt>
      <trkpt lat="46.7997" lon="5.83111">
        <ele>599.6</ele>
        <time>2022-05-24T15:06:12Z</time>
      </trkpt>
      <trkpt lat="46.79968" lon="5.83112">
        <ele>599.6</ele>
        <time>2022-05-24T15:06:13Z</time>
      </trkpt>
      <trkpt lat="46.79967" lon="5.83114">
        <ele>600</ele>
        <time>2022-05-24T15:06:14Z</time>
      </trkpt>
      <trkpt lat="46.79965" lon="5.83115">
        <ele>600</ele>
        <time>2022-05-24T15:06:15Z</time>
      </trkpt>
      <trkpt lat="46.79964" lon="5.83117">
        <ele>600.4</ele>
        <time>2022-05-24T15:06:16Z</time>
      </trkpt>
      <trkpt lat="46.79962" lon="5.83117">
        <ele>600.4</ele>
        <time>2022-05-24T15:06:17Z</time>
      </trkpt>
      <trkpt lat="46.7996" lon="5.83118">
        <ele>600.8</ele>
        <time>2022-05-24T15:06:18Z</time>
      </trkpt>
      <trkpt lat="46.79958" lon="5.83118">
        <ele>601</ele>
        <time>2022-05-24T15:06:19Z</time>
      </trkpt>
      <trkpt lat="46.79956" lon="5.8312">
        <ele>601.2</ele>
        <time>2022-05-24T15:06:20Z</time>
      </trkpt>
      <trkpt lat="46.79954" lon="5.83121">
        <ele>601.4</ele>
        <time>2022-05-24T15:06:21Z</time>
      </trkpt>
      <trkpt lat="46.79953" lon="5.83122">
        <ele>601.4</ele>
        <time>2022-05-24T15:06:22Z</time>
      </trkpt>
      <trkpt lat="46.79951" lon="5.83123">
        <ele>602</ele>
        <time>2022-05-24T15:06:23Z</time>
      </trkpt>
      <trkpt lat="46.7995" lon="5.83124">
        <ele>602.2</ele>
        <time>2022-05-24T15:06:24Z</time>
      </trkpt>
      <trkpt lat="46.79948" lon="5.83123">
        <ele>602.4</ele>
        <time>2022-05-24T15:06:25Z</time>
      </trkpt>
      <trkpt lat="46.79946" lon="5.83123">
        <ele>602.6</ele>
        <time>2022-05-24T15:06:26Z</time>
      </trkpt>
      <trkpt lat="46.79945" lon="5.83123">
        <ele>602.8</ele>
        <time>2022-05-24T15:06:27Z</time>
      </trkpt>
      <trkpt lat="46.79943" lon="5.83122">
        <ele>603</ele>
        <time>2022-05-24T15:06:28Z</time>
      </trkpt>
      <trkpt lat="46.79941" lon="5.83122">
        <ele>603.4</ele>
        <time>2022-05-24T15:06:29Z</time>
      </trkpt>
      <trkpt lat="46.79939" lon="5.83121">
        <ele>603.4</ele>
        <time>2022-05-24T15:06:30Z</time>
      </trkpt>
      <trkpt lat="46.79937" lon="5.83121">
        <ele>603.8</ele>
        <time>2022-05-24T15:06:31Z</time>
      </trkpt>
      <trkpt lat="46.79935" lon="5.83121">
        <ele>604</ele>
        <time>2022-05-24T15:06:32Z</time>
      </trkpt>
      <trkpt lat="46.79933" lon="5.83121">
        <ele>604.2</ele>
        <time>2022-05-24T15:06:33Z</time>
      </trkpt>
      <trkpt lat="46.79931" lon="5.83121">
        <ele>604.4</ele>
        <time>2022-05-24T15:06:34Z</time>
      </trkpt>
      <trkpt lat="46.79929" lon="5.83122">
        <ele>604.6</ele>
        <time>2022-05-24T15:06:35Z</time>
      </trkpt>
      <trkpt lat="46.79927" lon="5.83122">
        <ele>605</ele>
        <time>2022-05-24T15:06:36Z</time>
      </trkpt>
      <trkpt lat="46.79927" lon="5.83122">
        <ele>605</ele>
        <time>2022-05-24T15:06:37Z</time>
      </trkpt>
      <trkpt lat="46.79925" lon="5.83123">
        <ele>605.2</ele>
        <time>2022-05-24T15:06:38Z</time>
      </trkpt>
      <trkpt lat="46.79924" lon="5.83124">
        <ele>605.2</ele>
        <time>2022-05-24T15:06:39Z</time>
      </trkpt>
      <trkpt lat="46.79922" lon="5.83124">
        <ele>605.6</ele>
        <time>2022-05-24T15:06:40Z</time>
      </trkpt>
      <trkpt lat="46.7992" lon="5.83125">
        <ele>605.8</ele>
        <time>2022-05-24T15:06:41Z</time>
      </trkpt>
      <trkpt lat="46.79918" lon="5.83125">
        <ele>605.8</ele>
        <time>2022-05-24T15:06:42Z</time>
      </trkpt>
      <trkpt lat="46.79917" lon="5.83125">
        <ele>606</ele>
        <time>2022-05-24T15:06:43Z</time>
      </trkpt>
      <trkpt lat="46.79915" lon="5.83125">
        <ele>606</ele>
        <time>2022-05-24T15:06:44Z</time>
      </trkpt>
      <trkpt lat="46.79913" lon="5.83125">
        <ele>606.4</ele>
        <time>2022-05-24T15:06:45Z</time>
      </trkpt>
      <trkpt lat="46.79911" lon="5.83124">
        <ele>606.4</ele>
        <time>2022-05-24T15:06:46Z</time>
      </trkpt>
      <trkpt lat="46.79909" lon="5.83124">
        <ele>606.4</ele>
        <time>2022-05-24T15:06:47Z</time>
      </trkpt>
      <trkpt lat="46.79907" lon="5.83124">
        <ele>606.6</ele>
        <time>2022-05-24T15:06:48Z</time>
      </trkpt>
      <trkpt lat="46.79905" lon="5.83124">
        <ele>606.6</ele>
        <time>2022-05-24T15:06:49Z</time>
      </trkpt>
      <trkpt lat="46.79903" lon="5.83125">
        <ele>606.6</ele>
        <time>2022-05-24T15:06:50Z</time>
      </trkpt>
      <trkpt lat="46.79901" lon="5.83125">
        <ele>607</ele>
        <time>2022-05-24T15:06:51Z</time>
      </trkpt>
      <trkpt lat="46.79899" lon="5.83125">
        <ele>607</ele>
        <time>2022-05-24T15:06:52Z</time>
      </trkpt>
      <trkpt lat="46.79897" lon="5.83125">
        <ele>607</ele>
        <time>2022-05-24T15:06:53Z</time>
      </trkpt>
      <trkpt lat="46.79894" lon="5.83125">
        <ele>607.2</ele>
        <time>2022-05-24T15:06:54Z</time>
      </trkpt>
      <trkpt lat="46.79892" lon="5.83125">
        <ele>607.2</ele>
        <time>2022-05-24T15:06:55Z</time>
      </trkpt>
      <trkpt lat="46.79889" lon="5.83125">
        <ele>607.2</ele>
        <time>2022-05-24T15:06:56Z</time>
      </trkpt>
      <trkpt lat="46.79887" lon="5.83126">
        <ele>607.2</ele>
        <time>2022-05-24T15:06:57Z</time>
      </trkpt>
      <trkpt lat="46.79885" lon="5.83126">
        <ele>607.2</ele>
        <time>2022-05-24T15:06:58Z</time>
      </trkpt>
      <trkpt lat="46.79882" lon="5.83126">
        <ele>607.2</ele>
        <time>2022-05-24T15:06:59Z</time>
      </trkpt>
      <trkpt lat="46.79879" lon="5.83126">
        <ele>607.2</ele>
        <time>2022-05-24T15:07:00Z</time>
      </trkpt>
      <trkpt lat="46.79876" lon="5.83126">
        <ele>607.2</ele>
        <time>2022-05-24T15:07:01Z</time>
      </trkpt>
      <trkpt lat="46.79873" lon="5.83126">
        <ele>607.2</ele>
        <time>2022-05-24T15:07:02Z</time>
      </trkpt>
      <trkpt lat="46.7987" lon="5.83126">
        <ele>607.2</ele>
        <time>2022-05-24T15:07:03Z</time>
      </trkpt>
      <trkpt lat="46.79867" lon="5.83126">
        <ele>607.2</ele>
        <time>2022-05-24T15:07:04Z</time>
      </trkpt>
      <trkpt lat="46.79863" lon="5.83127">
        <ele>607</ele>
        <time>2022-05-24T15:07:05Z</time>
      </trkpt>
      <trkpt lat="46.79859" lon="5.83127">
        <ele>607</ele>
        <time>2022-05-24T15:07:06Z</time>
      </trkpt>
      <trkpt lat="46.79855" lon="5.83127">
        <ele>607</ele>
        <time>2022-05-24T15:07:07Z</time>
      </trkpt>
      <trkpt lat="46.79851" lon="5.83127">
        <ele>607</ele>
        <time>2022-05-24T15:07:08Z</time>
      </trkpt>
      <trkpt lat="46.79846" lon="5.83127">
        <ele>606.8</ele>
        <time>2022-05-24T15:07:09Z</time>
      </trkpt>
      <trkpt lat="46.79841" lon="5.83128">
        <ele>606.8</ele>
        <time>2022-05-24T15:07:10Z</time>
      </trkpt>
      <trkpt lat="46.79836" lon="5.83128">
        <ele>606.8</ele>
        <time>2022-05-24T15:07:11Z</time>
      </trkpt>
      <trkpt lat="46.79831" lon="5.83129">
        <ele>606.6</ele>
        <time>2022-05-24T15:07:12Z</time>
      </trkpt>
      <trkpt lat="46.79826" lon="5.83129">
        <ele>606.6</ele>
        <time>2022-05-24T15:07:13Z</time>
      </trkpt>
      <trkpt lat="46.79821" lon="5.8313">
        <ele>606.6</ele>
        <time>2022-05-24T15:07:14Z</time>
      </trkpt>
      <trkpt lat="46.79816" lon="5.83131">
        <ele>606.6</ele>
        <time>2022-05-24T15:07:15Z</time>
      </trkpt>
      <trkpt lat="46.79811" lon="5.83133">
        <ele>606.6</ele>
        <time>2022-05-24T15:07:16Z</time>
      </trkpt>
      <trkpt lat="46.79807" lon="5.83136">
        <ele>606.6</ele>
        <time>2022-05-24T15:07:17Z</time>
      </trkpt>
      <trkpt lat="46.79803" lon="5.83138">
        <ele>606.6</ele>
        <time>2022-05-24T15:07:18Z</time>
      </trkpt>
      <trkpt lat="46.798" lon="5.83141">
        <ele>606.6</ele>
        <time>2022-05-24T15:07:19Z</time>
      </trkpt>
      <trkpt lat="46.79796" lon="5.83143">
        <ele>606.8</ele>
        <time>2022-05-24T15:07:20Z</time>
      </trkpt>
      <trkpt lat="46.79793" lon="5.83147">
        <ele>606.8</ele>
        <time>2022-05-24T15:07:21Z</time>
      </trkpt>
      <trkpt lat="46.7979" lon="5.8315">
        <ele>607</ele>
        <time>2022-05-24T15:07:22Z</time>
      </trkpt>
      <trkpt lat="46.79787" lon="5.83153">
        <ele>607</ele>
        <time>2022-05-24T15:07:23Z</time>
      </trkpt>
      <trkpt lat="46.79785" lon="5.83155">
        <ele>607.4</ele>
        <time>2022-05-24T15:07:24Z</time>
      </trkpt>
      <trkpt lat="46.79782" lon="5.83158">
        <ele>607.4</ele>
        <time>2022-05-24T15:07:25Z</time>
      </trkpt>
      <trkpt lat="46.7978" lon="5.8316">
        <ele>607.6</ele>
        <time>2022-05-24T15:07:26Z</time>
      </trkpt>
      <trkpt lat="46.79778" lon="5.83164">
        <ele>607.8</ele>
        <time>2022-05-24T15:07:27Z</time>
      </trkpt>
      <trkpt lat="46.79776" lon="5.83167">
        <ele>607.8</ele>
        <time>2022-05-24T15:07:28Z</time>
      </trkpt>
      <trkpt lat="46.79774" lon="5.83171">
        <ele>608.2</ele>
        <time>2022-05-24T15:07:29Z</time>
      </trkpt>
      <trkpt lat="46.79773" lon="5.83174">
        <ele>608.4</ele>
        <time>2022-05-24T15:07:30Z</time>
      </trkpt>
      <trkpt lat="46.79771" lon="5.83178">
        <ele>608.4</ele>
        <time>2022-05-24T15:07:31Z</time>
      </trkpt>
      <trkpt lat="46.79769" lon="5.83181">
        <ele>608.4</ele>
        <time>2022-05-24T15:07:32Z</time>
      </trkpt>
      <trkpt lat="46.79769" lon="5.83183">
        <ele>608.4</ele>
        <time>2022-05-24T15:07:33Z</time>
      </trkpt>
      <trkpt lat="46.79769" lon="5.83186">
        <ele>608.6</ele>
        <time>2022-05-24T15:07:34Z</time>
      </trkpt>
      <trkpt lat="46.79768" lon="5.83188">
        <ele>608.6</ele>
        <time>2022-05-24T15:07:35Z</time>
      </trkpt>
      <trkpt lat="46.79766" lon="5.83189">
        <ele>608.6</ele>
        <time>2022-05-24T15:07:36Z</time>
      </trkpt>
      <trkpt lat="46.79763" lon="5.8319">
        <ele>608.4</ele>
        <time>2022-05-24T15:07:37Z</time>
      </trkpt>
      <trkpt lat="46.79759" lon="5.83191">
        <ele>608.4</ele>
        <time>2022-05-24T15:07:38Z</time>
      </trkpt>
      <trkpt lat="46.79756" lon="5.83191">
        <ele>608.2</ele>
        <time>2022-05-24T15:07:39Z</time>
      </trkpt>
      <trkpt lat="46.79752" lon="5.83192">
        <ele>608</ele>
        <time>2022-05-24T15:07:40Z</time>
      </trkpt>
      <trkpt lat="46.79749" lon="5.83193">
        <ele>607.6</ele>
        <time>2022-05-24T15:07:41Z</time>
      </trkpt>
      <trkpt lat="46.79747" lon="5.83194">
        <ele>607.6</ele>
        <time>2022-05-24T15:07:42Z</time>
      </trkpt>
      <trkpt lat="46.79745" lon="5.83195">
        <ele>607.6</ele>
        <time>2022-05-24T15:07:43Z</time>
      </trkpt>
      <trkpt lat="46.79744" lon="5.83197">
        <ele>607.4</ele>
        <time>2022-05-24T15:07:44Z</time>
      </trkpt>
      <trkpt lat="46.79745" lon="5.83201">
        <ele>607</ele>
        <time>2022-05-24T15:07:45Z</time>
      </trkpt>
      <trkpt lat="46.79747" lon="5.83205">
        <ele>606.8</ele>
        <time>2022-05-24T15:07:46Z</time>
      </trkpt>
      <trkpt lat="46.7975" lon="5.83208">
        <ele>606.4</ele>
        <time>2022-05-24T15:07:47Z</time>
      </trkpt>
      <trkpt lat="46.79754" lon="5.83213">
        <ele>606</ele>
        <time>2022-05-24T15:07:48Z</time>
      </trkpt>
      <trkpt lat="46.79758" lon="5.83216">
        <ele>605.6</ele>
        <time>2022-05-24T15:07:49Z</time>
      </trkpt>
      <trkpt lat="46.79764" lon="5.8322">
        <ele>605.2</ele>
        <time>2022-05-24T15:07:50Z</time>
      </trkpt>
      <trkpt lat="46.79769" lon="5.83224">
        <ele>605.2</ele>
        <time>2022-05-24T15:07:51Z</time>
      </trkpt>
      <trkpt lat="46.79775" lon="5.8323">
        <ele>604.6</ele>
        <time>2022-05-24T15:07:52Z</time>
      </trkpt>
      <trkpt lat="46.79782" lon="5.83236">
        <ele>604.2</ele>
        <time>2022-05-24T15:07:53Z</time>
      </trkpt>
      <trkpt lat="46.79789" lon="5.83242">
        <ele>603.6</ele>
        <time>2022-05-24T15:07:54Z</time>
      </trkpt>
      <trkpt lat="46.79797" lon="5.83249">
        <ele>603.2</ele>
        <time>2022-05-24T15:07:55Z</time>
      </trkpt>
      <trkpt lat="46.79805" lon="5.83257">
        <ele>602.4</ele>
        <time>2022-05-24T15:07:56Z</time>
      </trkpt>
      <trkpt lat="46.79812" lon="5.83264">
        <ele>601.8</ele>
        <time>2022-05-24T15:07:57Z</time>
      </trkpt>
      <trkpt lat="46.79819" lon="5.83272">
        <ele>601</ele>
        <time>2022-05-24T15:07:58Z</time>
      </trkpt>
      <trkpt lat="46.79825" lon="5.8328">
        <ele>600</ele>
        <time>2022-05-24T15:07:59Z</time>
      </trkpt>
      <trkpt lat="46.79831" lon="5.83287">
        <ele>599</ele>
        <time>2022-05-24T15:08:00Z</time>
      </trkpt>
      <trkpt lat="46.79836" lon="5.83295">
        <ele>597.8</ele>
        <time>2022-05-24T15:08:01Z</time>
      </trkpt>
      <trkpt lat="46.79839" lon="5.83302">
        <ele>597</ele>
        <time>2022-05-24T15:08:02Z</time>
      </trkpt>
      <trkpt lat="46.79843" lon="5.83311">
        <ele>596</ele>
        <time>2022-05-24T15:08:03Z</time>
      </trkpt>
      <trkpt lat="46.79845" lon="5.8332">
        <ele>595</ele>
        <time>2022-05-24T15:08:04Z</time>
      </trkpt>
      <trkpt lat="46.79847" lon="5.83328">
        <ele>594.2</ele>
        <time>2022-05-24T15:08:05Z</time>
      </trkpt>
      <trkpt lat="46.79848" lon="5.83336">
        <ele>593.2</ele>
        <time>2022-05-24T15:08:06Z</time>
      </trkpt>
      <trkpt lat="46.79849" lon="5.83342">
        <ele>592.4</ele>
        <time>2022-05-24T15:08:07Z</time>
      </trkpt>
      <trkpt lat="46.79848" lon="5.83348">
        <ele>591.6</ele>
        <time>2022-05-24T15:08:08Z</time>
      </trkpt>
      <trkpt lat="46.79846" lon="5.83353">
        <ele>591.2</ele>
        <time>2022-05-24T15:08:09Z</time>
      </trkpt>
      <trkpt lat="46.79843" lon="5.83355">
        <ele>590.8</ele>
        <time>2022-05-24T15:08:10Z</time>
      </trkpt>
      <trkpt lat="46.79839" lon="5.83356">
        <ele>590.4</ele>
        <time>2022-05-24T15:08:11Z</time>
      </trkpt>
      <trkpt lat="46.7983" lon="5.83356">
        <ele>590.2</ele>
        <time>2022-05-24T15:08:12Z</time>
      </trkpt>
      <trkpt lat="46.79826" lon="5.83355">
        <ele>590.2</ele>
        <time>2022-05-24T15:08:13Z</time>
      </trkpt>
      <trkpt lat="46.79821" lon="5.83354">
        <ele>590.2</ele>
        <time>2022-05-24T15:08:14Z</time>
      </trkpt>
      <trkpt lat="46.79817" lon="5.83353">
        <ele>590</ele>
        <time>2022-05-24T15:08:15Z</time>
      </trkpt>
      <trkpt lat="46.79812" lon="5.83353">
        <ele>590</ele>
        <time>2022-05-24T15:08:16Z</time>
      </trkpt>
      <trkpt lat="46.79808" lon="5.83353">
        <ele>590</ele>
        <time>2022-05-24T15:08:17Z</time>
      </trkpt>
      <trkpt lat="46.79803" lon="5.83353">
        <ele>590</ele>
        <time>2022-05-24T15:08:18Z</time>
      </trkpt>
      <trkpt lat="46.79798" lon="5.83353">
        <ele>590</ele>
        <time>2022-05-24T15:08:19Z</time>
      </trkpt>
      <trkpt lat="46.79793" lon="5.83353">
        <ele>590</ele>
        <time>2022-05-24T15:08:20Z</time>
      </trkpt>
      <trkpt lat="46.79788" lon="5.83354">
        <ele>590.2</ele>
        <time>2022-05-24T15:08:21Z</time>
      </trkpt>
      <trkpt lat="46.79783" lon="5.83354">
        <ele>590.2</ele>
        <time>2022-05-24T15:08:22Z</time>
      </trkpt>
      <trkpt lat="46.79778" lon="5.83354">
        <ele>590.2</ele>
        <time>2022-05-24T15:08:23Z</time>
      </trkpt>
      <trkpt lat="46.79773" lon="5.83354">
        <ele>590.2</ele>
        <time>2022-05-24T15:08:24Z</time>
      </trkpt>
      <trkpt lat="46.79768" lon="5.83354">
        <ele>590.2</ele>
        <time>2022-05-24T15:08:25Z</time>
      </trkpt>
      <trkpt lat="46.79762" lon="5.83354">
        <ele>590.2</ele>
        <time>2022-05-24T15:08:26Z</time>
      </trkpt>
      <trkpt lat="46.79757" lon="5.83354">
        <ele>590.4</ele>
        <time>2022-05-24T15:08:27Z</time>
      </trkpt>
      <trkpt lat="46.79752" lon="5.83354">
        <ele>590.4</ele>
        <time>2022-05-24T15:08:28Z</time>
      </trkpt>
      <trkpt lat="46.79746" lon="5.83353">
        <ele>590.8</ele>
        <time>2022-05-24T15:08:29Z</time>
      </trkpt>
      <trkpt lat="46.79741" lon="5.83353">
        <ele>590.8</ele>
        <time>2022-05-24T15:08:30Z</time>
      </trkpt>
      <trkpt lat="46.79735" lon="5.83353">
        <ele>590.8</ele>
        <time>2022-05-24T15:08:31Z</time>
      </trkpt>
      <trkpt lat="46.7973" lon="5.83353">
        <ele>590.8</ele>
        <time>2022-05-24T15:08:32Z</time>
      </trkpt>
      <trkpt lat="46.79725" lon="5.83353">
        <ele>590.8</ele>
        <time>2022-05-24T15:08:33Z</time>
      </trkpt>
      <trkpt lat="46.79719" lon="5.83354">
        <ele>590.8</ele>
        <time>2022-05-24T15:08:34Z</time>
      </trkpt>
      <trkpt lat="46.79714" lon="5.83354">
        <ele>590.8</ele>
        <time>2022-05-24T15:08:35Z</time>
      </trkpt>
      <trkpt lat="46.79709" lon="5.83353">
        <ele>590.8</ele>
        <time>2022-05-24T15:08:36Z</time>
      </trkpt>
      <trkpt lat="46.79703" lon="5.83353">
        <ele>590.8</ele>
        <time>2022-05-24T15:08:37Z</time>
      </trkpt>
      <trkpt lat="46.79698" lon="5.83352">
        <ele>590.6</ele>
        <time>2022-05-24T15:08:38Z</time>
      </trkpt>
      <trkpt lat="46.79692" lon="5.83351">
        <ele>590.6</ele>
        <time>2022-05-24T15:08:39Z</time>
      </trkpt>
      <trkpt lat="46.79687" lon="5.83351">
        <ele>590.6</ele>
        <time>2022-05-24T15:08:40Z</time>
      </trkpt>
      <trkpt lat="46.79681" lon="5.8335">
        <ele>590.6</ele>
        <time>2022-05-24T15:08:41Z</time>
      </trkpt>
      <trkpt lat="46.79676" lon="5.8335">
        <ele>590.6</ele>
        <time>2022-05-24T15:08:42Z</time>
      </trkpt>
      <trkpt lat="46.7967" lon="5.83351">
        <ele>590.6</ele>
        <time>2022-05-24T15:08:43Z</time>
      </trkpt>
      <trkpt lat="46.79665" lon="5.83352">
        <ele>590.6</ele>
        <time>2022-05-24T15:08:44Z</time>
      </trkpt>
      <trkpt lat="46.79659" lon="5.83354">
        <ele>590.8</ele>
        <time>2022-05-24T15:08:45Z</time>
      </trkpt>
      <trkpt lat="46.79654" lon="5.83356">
        <ele>590.8</ele>
        <time>2022-05-24T15:08:46Z</time>
      </trkpt>
      <trkpt lat="46.79649" lon="5.83358">
        <ele>590.8</ele>
        <time>2022-05-24T15:08:47Z</time>
      </trkpt>
      <trkpt lat="46.79643" lon="5.8336">
        <ele>590.8</ele>
        <time>2022-05-24T15:08:48Z</time>
      </trkpt>
      <trkpt lat="46.79638" lon="5.83364">
        <ele>590.8</ele>
        <time>2022-05-24T15:08:49Z</time>
      </trkpt>
      <trkpt lat="46.79633" lon="5.83368">
        <ele>590.8</ele>
        <time>2022-05-24T15:08:50Z</time>
      </trkpt>
      <trkpt lat="46.79628" lon="5.83372">
        <ele>590.8</ele>
        <time>2022-05-24T15:08:51Z</time>
      </trkpt>
      <trkpt lat="46.79624" lon="5.83377">
        <ele>590.8</ele>
        <time>2022-05-24T15:08:52Z</time>
      </trkpt>
      <trkpt lat="46.79619" lon="5.83382">
        <ele>590.6</ele>
        <time>2022-05-24T15:08:53Z</time>
      </trkpt>
      <trkpt lat="46.79614" lon="5.83387">
        <ele>590.6</ele>
        <time>2022-05-24T15:08:54Z</time>
      </trkpt>
      <trkpt lat="46.7961" lon="5.83392">
        <ele>590.6</ele>
        <time>2022-05-24T15:08:55Z</time>
      </trkpt>
      <trkpt lat="46.7961" lon="5.83392">
        <ele>590.6</ele>
        <time>2022-05-24T15:08:56Z</time>
      </trkpt>
      <trkpt lat="46.79605" lon="5.83398">
        <ele>590.6</ele>
        <time>2022-05-24T15:08:57Z</time>
      </trkpt>
      <trkpt lat="46.796" lon="5.83403">
        <ele>590.6</ele>
        <time>2022-05-24T15:08:58Z</time>
      </trkpt>
      <trkpt lat="46.79595" lon="5.83408">
        <ele>590.6</ele>
        <time>2022-05-24T15:08:59Z</time>
      </trkpt>
      <trkpt lat="46.7959" lon="5.83413">
        <ele>590.6</ele>
        <time>2022-05-24T15:09:00Z</time>
      </trkpt>
      <trkpt lat="46.79586" lon="5.83419">
        <ele>590.6</ele>
        <time>2022-05-24T15:09:01Z</time>
      </trkpt>
      <trkpt lat="46.79581" lon="5.83425">
        <ele>590.6</ele>
        <time>2022-05-24T15:09:02Z</time>
      </trkpt>
      <trkpt lat="46.79577" lon="5.83432">
        <ele>590.6</ele>
        <time>2022-05-24T15:09:03Z</time>
      </trkpt>
      <trkpt lat="46.79573" lon="5.83438">
        <ele>590.6</ele>
        <time>2022-05-24T15:09:04Z</time>
      </trkpt>
      <trkpt lat="46.7957" lon="5.83445">
        <ele>590.6</ele>
        <time>2022-05-24T15:09:05Z</time>
      </trkpt>
      <trkpt lat="46.79568" lon="5.83452">
        <ele>590.6</ele>
        <time>2022-05-24T15:09:06Z</time>
      </trkpt>
      <trkpt lat="46.79565" lon="5.83459">
        <ele>590.6</ele>
        <time>2022-05-24T15:09:07Z</time>
      </trkpt>
      <trkpt lat="46.79562" lon="5.83466">
        <ele>590.6</ele>
        <time>2022-05-24T15:09:08Z</time>
      </trkpt>
      <trkpt lat="46.7956" lon="5.83473">
        <ele>590.6</ele>
        <time>2022-05-24T15:09:09Z</time>
      </trkpt>
      <trkpt lat="46.79557" lon="5.83479">
        <ele>590.6</ele>
        <time>2022-05-24T15:09:10Z</time>
      </trkpt>
      <trkpt lat="46.79554" lon="5.83486">
        <ele>590.6</ele>
        <time>2022-05-24T15:09:11Z</time>
      </trkpt>
      <trkpt lat="46.79551" lon="5.83492">
        <ele>590.8</ele>
        <time>2022-05-24T15:09:12Z</time>
      </trkpt>
      <trkpt lat="46.79547" lon="5.83497">
        <ele>590.8</ele>
        <time>2022-05-24T15:09:13Z</time>
      </trkpt>
      <trkpt lat="46.79543" lon="5.83502">
        <ele>591</ele>
        <time>2022-05-24T15:09:14Z</time>
      </trkpt>
      <trkpt lat="46.7954" lon="5.83506">
        <ele>591.2</ele>
        <time>2022-05-24T15:09:15Z</time>
      </trkpt>
      <trkpt lat="46.79536" lon="5.83509">
        <ele>591.4</ele>
        <time>2022-05-24T15:09:16Z</time>
      </trkpt>
      <trkpt lat="46.79532" lon="5.83512">
        <ele>591.8</ele>
        <time>2022-05-24T15:09:17Z</time>
      </trkpt>
      <trkpt lat="46.79528" lon="5.83514">
        <ele>592</ele>
        <time>2022-05-24T15:09:18Z</time>
      </trkpt>
      <trkpt lat="46.79524" lon="5.83516">
        <ele>592.4</ele>
        <time>2022-05-24T15:09:19Z</time>
      </trkpt>
      <trkpt lat="46.7952" lon="5.83517">
        <ele>592.6</ele>
        <time>2022-05-24T15:09:20Z</time>
      </trkpt>
      <trkpt lat="46.79516" lon="5.83519">
        <ele>592.6</ele>
        <time>2022-05-24T15:09:21Z</time>
      </trkpt>
      <trkpt lat="46.79513" lon="5.83521">
        <ele>593</ele>
        <time>2022-05-24T15:09:22Z</time>
      </trkpt>
      <trkpt lat="46.7951" lon="5.83523">
        <ele>593.2</ele>
        <time>2022-05-24T15:09:23Z</time>
      </trkpt>
      <trkpt lat="46.79507" lon="5.83526">
        <ele>593.4</ele>
        <time>2022-05-24T15:09:24Z</time>
      </trkpt>
      <trkpt lat="46.79504" lon="5.83529">
        <ele>593.6</ele>
        <time>2022-05-24T15:09:25Z</time>
      </trkpt>
      <trkpt lat="46.79501" lon="5.83531">
        <ele>594</ele>
        <time>2022-05-24T15:09:26Z</time>
      </trkpt>
      <trkpt lat="46.79499" lon="5.83533">
        <ele>594.2</ele>
        <time>2022-05-24T15:09:27Z</time>
      </trkpt>
      <trkpt lat="46.79496" lon="5.83535">
        <ele>594.2</ele>
        <time>2022-05-24T15:09:28Z</time>
      </trkpt>
      <trkpt lat="46.79494" lon="5.83537">
        <ele>594.6</ele>
        <time>2022-05-24T15:09:29Z</time>
      </trkpt>
      <trkpt lat="46.79491" lon="5.83539">
        <ele>594.8</ele>
        <time>2022-05-24T15:09:30Z</time>
      </trkpt>
      <trkpt lat="46.79488" lon="5.83541">
        <ele>595.2</ele>
        <time>2022-05-24T15:09:31Z</time>
      </trkpt>
      <trkpt lat="46.79486" lon="5.83543">
        <ele>595.4</ele>
        <time>2022-05-24T15:09:32Z</time>
      </trkpt>
      <trkpt lat="46.79483" lon="5.83545">
        <ele>595.4</ele>
        <time>2022-05-24T15:09:33Z</time>
      </trkpt>
      <trkpt lat="46.79481" lon="5.83548">
        <ele>595.8</ele>
        <time>2022-05-24T15:09:34Z</time>
      </trkpt>
      <trkpt lat="46.79479" lon="5.83551">
        <ele>596.2</ele>
        <time>2022-05-24T15:09:35Z</time>
      </trkpt>
      <trkpt lat="46.79477" lon="5.83553">
        <ele>596.6</ele>
        <time>2022-05-24T15:09:36Z</time>
      </trkpt>
      <trkpt lat="46.79475" lon="5.83555">
        <ele>596.8</ele>
        <time>2022-05-24T15:09:37Z</time>
      </trkpt>
      <trkpt lat="46.79473" lon="5.83557">
        <ele>597</ele>
        <time>2022-05-24T15:09:38Z</time>
      </trkpt>
      <trkpt lat="46.79472" lon="5.83559">
        <ele>597.4</ele>
        <time>2022-05-24T15:09:39Z</time>
      </trkpt>
      <trkpt lat="46.7947" lon="5.83561">
        <ele>597.6</ele>
        <time>2022-05-24T15:09:40Z</time>
      </trkpt>
      <trkpt lat="46.79468" lon="5.83564">
        <ele>598</ele>
        <time>2022-05-24T15:09:41Z</time>
      </trkpt>
      <trkpt lat="46.79466" lon="5.83567">
        <ele>598.2</ele>
        <time>2022-05-24T15:09:42Z</time>
      </trkpt>
      <trkpt lat="46.79465" lon="5.8357">
        <ele>598.4</ele>
        <time>2022-05-24T15:09:43Z</time>
      </trkpt>
      <trkpt lat="46.79463" lon="5.83573">
        <ele>598.6</ele>
        <time>2022-05-24T15:09:44Z</time>
      </trkpt>
      <trkpt lat="46.79462" lon="5.83576">
        <ele>598.8</ele>
        <time>2022-05-24T15:09:45Z</time>
      </trkpt>
      <trkpt lat="46.79462" lon="5.83579">
        <ele>599.2</ele>
        <time>2022-05-24T15:09:46Z</time>
      </trkpt>
      <trkpt lat="46.79462" lon="5.83583">
        <ele>599.4</ele>
        <time>2022-05-24T15:09:47Z</time>
      </trkpt>
      <trkpt lat="46.79462" lon="5.83586">
        <ele>599.6</ele>
        <time>2022-05-24T15:09:48Z</time>
      </trkpt>
      <trkpt lat="46.79462" lon="5.83589">
        <ele>599.8</ele>
        <time>2022-05-24T15:09:49Z</time>
      </trkpt>
      <trkpt lat="46.79463" lon="5.83592">
        <ele>600.2</ele>
        <time>2022-05-24T15:09:50Z</time>
      </trkpt>
      <trkpt lat="46.79463" lon="5.83596">
        <ele>600.4</ele>
        <time>2022-05-24T15:09:51Z</time>
      </trkpt>
      <trkpt lat="46.79464" lon="5.83599">
        <ele>600.8</ele>
        <time>2022-05-24T15:09:52Z</time>
      </trkpt>
      <trkpt lat="46.79464" lon="5.83602">
        <ele>601</ele>
        <time>2022-05-24T15:09:53Z</time>
      </trkpt>
      <trkpt lat="46.79465" lon="5.83605">
        <ele>601.2</ele>
        <time>2022-05-24T15:09:54Z</time>
      </trkpt>
      <trkpt lat="46.79466" lon="5.83608">
        <ele>601.6</ele>
        <time>2022-05-24T15:09:55Z</time>
      </trkpt>
      <trkpt lat="46.79467" lon="5.83611">
        <ele>601.8</ele>
        <time>2022-05-24T15:09:56Z</time>
      </trkpt>
      <trkpt lat="46.79468" lon="5.83614">
        <ele>602.2</ele>
        <time>2022-05-24T15:09:57Z</time>
      </trkpt>
      <trkpt lat="46.79468" lon="5.83617">
        <ele>602.4</ele>
        <time>2022-05-24T15:09:58Z</time>
      </trkpt>
      <trkpt lat="46.79469" lon="5.83621">
        <ele>602.8</ele>
        <time>2022-05-24T15:09:59Z</time>
      </trkpt>
      <trkpt lat="46.7947" lon="5.83624">
        <ele>603</ele>
        <time>2022-05-24T15:10:00Z</time>
      </trkpt>
      <trkpt lat="46.79471" lon="5.83627">
        <ele>603.2</ele>
        <time>2022-05-24T15:10:01Z</time>
      </trkpt>
      <trkpt lat="46.79471" lon="5.8363">
        <ele>603.6</ele>
        <time>2022-05-24T15:10:02Z</time>
      </trkpt>
      <trkpt lat="46.79472" lon="5.83633">
        <ele>603.8</ele>
        <time>2022-05-24T15:10:03Z</time>
      </trkpt>
      <trkpt lat="46.79473" lon="5.83636">
        <ele>604</ele>
        <time>2022-05-24T15:10:04Z</time>
      </trkpt>
      <trkpt lat="46.79473" lon="5.83639">
        <ele>604.4</ele>
        <time>2022-05-24T15:10:05Z</time>
      </trkpt>
      <trkpt lat="46.79474" lon="5.83643">
        <ele>604.6</ele>
        <time>2022-05-24T15:10:06Z</time>
      </trkpt>
      <trkpt lat="46.79474" lon="5.83646">
        <ele>605</ele>
        <time>2022-05-24T15:10:07Z</time>
      </trkpt>
      <trkpt lat="46.79475" lon="5.83649">
        <ele>605.2</ele>
        <time>2022-05-24T15:10:08Z</time>
      </trkpt>
      <trkpt lat="46.79475" lon="5.83652">
        <ele>605.6</ele>
        <time>2022-05-24T15:10:09Z</time>
      </trkpt>
      <trkpt lat="46.79475" lon="5.83654">
        <ele>606</ele>
        <time>2022-05-24T15:10:10Z</time>
      </trkpt>
      <trkpt lat="46.79476" lon="5.83657">
        <ele>606.2</ele>
        <time>2022-05-24T15:10:11Z</time>
      </trkpt>
      <trkpt lat="46.79476" lon="5.8366">
        <ele>606.6</ele>
        <time>2022-05-24T15:10:12Z</time>
      </trkpt>
      <trkpt lat="46.79476" lon="5.83662">
        <ele>606.6</ele>
        <time>2022-05-24T15:10:13Z</time>
      </trkpt>
      <trkpt lat="46.79477" lon="5.83665">
        <ele>606.8</ele>
        <time>2022-05-24T15:10:14Z</time>
      </trkpt>
      <trkpt lat="46.79477" lon="5.83668">
        <ele>606.8</ele>
        <time>2022-05-24T15:10:15Z</time>
      </trkpt>
      <trkpt lat="46.79477" lon="5.83671">
        <ele>606.8</ele>
        <time>2022-05-24T15:10:16Z</time>
      </trkpt>
      <trkpt lat="46.79476" lon="5.83675">
        <ele>607</ele>
        <time>2022-05-24T15:10:17Z</time>
      </trkpt>
      <trkpt lat="46.79476" lon="5.83678">
        <ele>607</ele>
        <time>2022-05-24T15:10:18Z</time>
      </trkpt>
      <trkpt lat="46.79477" lon="5.83681">
        <ele>607</ele>
        <time>2022-05-24T15:10:19Z</time>
      </trkpt>
      <trkpt lat="46.79477" lon="5.83684">
        <ele>607.4</ele>
        <time>2022-05-24T15:10:20Z</time>
      </trkpt>
      <trkpt lat="46.79478" lon="5.83688">
        <ele>607.4</ele>
        <time>2022-05-24T15:10:21Z</time>
      </trkpt>
      <trkpt lat="46.79478" lon="5.83691">
        <ele>607.4</ele>
        <time>2022-05-24T15:10:22Z</time>
      </trkpt>
      <trkpt lat="46.79478" lon="5.83695">
        <ele>607.6</ele>
        <time>2022-05-24T15:10:23Z</time>
      </trkpt>
      <trkpt lat="46.79478" lon="5.83699">
        <ele>607.6</ele>
        <time>2022-05-24T15:10:24Z</time>
      </trkpt>
      <trkpt lat="46.79477" lon="5.83703">
        <ele>607.6</ele>
        <time>2022-05-24T15:10:25Z</time>
      </trkpt>
      <trkpt lat="46.79472" lon="5.83708">
        <ele>607.6</ele>
        <time>2022-05-24T15:10:26Z</time>
      </trkpt>
      <trkpt lat="46.79469" lon="5.83709">
        <ele>607.6</ele>
        <time>2022-05-24T15:10:27Z</time>
      </trkpt>
      <trkpt lat="46.79466" lon="5.83708">
        <ele>607.6</ele>
        <time>2022-05-24T15:10:28Z</time>
      </trkpt>
      <trkpt lat="46.79463" lon="5.83706">
        <ele>607.8</ele>
        <time>2022-05-24T15:10:29Z</time>
      </trkpt>
      <trkpt lat="46.79461" lon="5.83703">
        <ele>608</ele>
        <time>2022-05-24T15:10:30Z</time>
      </trkpt>
      <trkpt lat="46.79458" lon="5.83701">
        <ele>608</ele>
        <time>2022-05-24T15:10:31Z</time>
      </trkpt>
      <trkpt lat="46.79456" lon="5.83699">
        <ele>608.2</ele>
        <time>2022-05-24T15:10:32Z</time>
      </trkpt>
      <trkpt lat="46.79454" lon="5.83697">
        <ele>608.2</ele>
        <time>2022-05-24T15:10:33Z</time>
      </trkpt>
      <trkpt lat="46.79451" lon="5.83695">
        <ele>608.6</ele>
        <time>2022-05-24T15:10:34Z</time>
      </trkpt>
      <trkpt lat="46.79449" lon="5.83693">
        <ele>608.6</ele>
        <time>2022-05-24T15:10:35Z</time>
      </trkpt>
      <trkpt lat="46.79447" lon="5.83691">
        <ele>608.8</ele>
        <time>2022-05-24T15:10:36Z</time>
      </trkpt>
      <trkpt lat="46.79445" lon="5.8369">
        <ele>608.8</ele>
        <time>2022-05-24T15:10:37Z</time>
      </trkpt>
      <trkpt lat="46.79444" lon="5.83689">
        <ele>609.2</ele>
        <time>2022-05-24T15:10:38Z</time>
      </trkpt>
      <trkpt lat="46.79443" lon="5.83688">
        <ele>609.2</ele>
        <time>2022-05-24T15:10:39Z</time>
      </trkpt>
      <trkpt lat="46.7944" lon="5.83687">
        <ele>609.6</ele>
        <time>2022-05-24T15:10:40Z</time>
      </trkpt>
      <trkpt lat="46.79438" lon="5.83685">
        <ele>609.8</ele>
        <time>2022-05-24T15:10:41Z</time>
      </trkpt>
      <trkpt lat="46.79435" lon="5.83683">
        <ele>610</ele>
        <time>2022-05-24T15:10:42Z</time>
      </trkpt>
      <trkpt lat="46.79433" lon="5.83681">
        <ele>610.2</ele>
        <time>2022-05-24T15:10:43Z</time>
      </trkpt>
      <trkpt lat="46.7943" lon="5.8368">
        <ele>610.6</ele>
        <time>2022-05-24T15:10:44Z</time>
      </trkpt>
      <trkpt lat="46.79427" lon="5.83678">
        <ele>610.6</ele>
        <time>2022-05-24T15:10:45Z</time>
      </trkpt>
      <trkpt lat="46.79424" lon="5.83677">
        <ele>610.8</ele>
        <time>2022-05-24T15:10:46Z</time>
      </trkpt>
      <trkpt lat="46.79421" lon="5.83675">
        <ele>610.8</ele>
        <time>2022-05-24T15:10:47Z</time>
      </trkpt>
      <trkpt lat="46.79417" lon="5.83674">
        <ele>611.2</ele>
        <time>2022-05-24T15:10:48Z</time>
      </trkpt>
      <trkpt lat="46.79414" lon="5.83673">
        <ele>611.2</ele>
        <time>2022-05-24T15:10:49Z</time>
      </trkpt>
      <trkpt lat="46.79411" lon="5.83671">
        <ele>611.2</ele>
        <time>2022-05-24T15:10:50Z</time>
      </trkpt>
      <trkpt lat="46.79407" lon="5.83669">
        <ele>611.6</ele>
        <time>2022-05-24T15:10:51Z</time>
      </trkpt>
      <trkpt lat="46.79403" lon="5.83668">
        <ele>611.6</ele>
        <time>2022-05-24T15:10:52Z</time>
      </trkpt>
      <trkpt lat="46.794" lon="5.83666">
        <ele>611.6</ele>
        <time>2022-05-24T15:10:53Z</time>
      </trkpt>
      <trkpt lat="46.79396" lon="5.83664">
        <ele>611.6</ele>
        <time>2022-05-24T15:10:54Z</time>
      </trkpt>
      <trkpt lat="46.79391" lon="5.83662">
        <ele>611.6</ele>
        <time>2022-05-24T15:10:55Z</time>
      </trkpt>
      <trkpt lat="46.79387" lon="5.8366">
        <ele>611.6</ele>
        <time>2022-05-24T15:10:56Z</time>
      </trkpt>
      <trkpt lat="46.79382" lon="5.83658">
        <ele>611.6</ele>
        <time>2022-05-24T15:10:57Z</time>
      </trkpt>
      <trkpt lat="46.79378" lon="5.83656">
        <ele>611.6</ele>
        <time>2022-05-24T15:10:58Z</time>
      </trkpt>
      <trkpt lat="46.79372" lon="5.83654">
        <ele>611.6</ele>
        <time>2022-05-24T15:10:59Z</time>
      </trkpt>
      <trkpt lat="46.79367" lon="5.83651">
        <ele>611.6</ele>
        <time>2022-05-24T15:11:00Z</time>
      </trkpt>
      <trkpt lat="46.79361" lon="5.83649">
        <ele>611.4</ele>
        <time>2022-05-24T15:11:01Z</time>
      </trkpt>
      <trkpt lat="46.79355" lon="5.83646">
        <ele>611.4</ele>
        <time>2022-05-24T15:11:02Z</time>
      </trkpt>
      <trkpt lat="46.79349" lon="5.83643">
        <ele>611</ele>
        <time>2022-05-24T15:11:03Z</time>
      </trkpt>
      <trkpt lat="46.79342" lon="5.8364">
        <ele>611</ele>
        <time>2022-05-24T15:11:04Z</time>
      </trkpt>
      <trkpt lat="46.79335" lon="5.83637">
        <ele>610.6</ele>
        <time>2022-05-24T15:11:05Z</time>
      </trkpt>
      <trkpt lat="46.79328" lon="5.83634">
        <ele>610.2</ele>
        <time>2022-05-24T15:11:06Z</time>
      </trkpt>
      <trkpt lat="46.79322" lon="5.83631">
        <ele>610.2</ele>
        <time>2022-05-24T15:11:07Z</time>
      </trkpt>
      <trkpt lat="46.79315" lon="5.83628">
        <ele>610</ele>
        <time>2022-05-24T15:11:08Z</time>
      </trkpt>
      <trkpt lat="46.79308" lon="5.83625">
        <ele>610</ele>
        <time>2022-05-24T15:11:09Z</time>
      </trkpt>
      <trkpt lat="46.79301" lon="5.83622">
        <ele>609.8</ele>
        <time>2022-05-24T15:11:10Z</time>
      </trkpt>
      <trkpt lat="46.79294" lon="5.83618">
        <ele>609.8</ele>
        <time>2022-05-24T15:11:11Z</time>
      </trkpt>
      <trkpt lat="46.79287" lon="5.83615">
        <ele>609.6</ele>
        <time>2022-05-24T15:11:12Z</time>
      </trkpt>
      <trkpt lat="46.7928" lon="5.83612">
        <ele>609.2</ele>
        <time>2022-05-24T15:11:13Z</time>
      </trkpt>
      <trkpt lat="46.79274" lon="5.83609">
        <ele>609.2</ele>
        <time>2022-05-24T15:11:14Z</time>
      </trkpt>
      <trkpt lat="46.79267" lon="5.83606">
        <ele>608.8</ele>
        <time>2022-05-24T15:11:15Z</time>
      </trkpt>
      <trkpt lat="46.79259" lon="5.83604">
        <ele>608.6</ele>
        <time>2022-05-24T15:11:16Z</time>
      </trkpt>
      <trkpt lat="46.79252" lon="5.83601">
        <ele>608.6</ele>
        <time>2022-05-24T15:11:17Z</time>
      </trkpt>
      <trkpt lat="46.79245" lon="5.83597">
        <ele>608.6</ele>
        <time>2022-05-24T15:11:18Z</time>
      </trkpt>
      <trkpt lat="46.79237" lon="5.83594">
        <ele>608.4</ele>
        <time>2022-05-24T15:11:19Z</time>
      </trkpt>
      <trkpt lat="46.7923" lon="5.83591">
        <ele>608.4</ele>
        <time>2022-05-24T15:11:20Z</time>
      </trkpt>
      <trkpt lat="46.79223" lon="5.83587">
        <ele>608.4</ele>
        <time>2022-05-24T15:11:21Z</time>
      </trkpt>
      <trkpt lat="46.79216" lon="5.83584">
        <ele>608.4</ele>
        <time>2022-05-24T15:11:22Z</time>
      </trkpt>
      <trkpt lat="46.79209" lon="5.83581">
        <ele>608.4</ele>
        <time>2022-05-24T15:11:23Z</time>
      </trkpt>
      <trkpt lat="46.79203" lon="5.83578">
        <ele>608</ele>
        <time>2022-05-24T15:11:24Z</time>
      </trkpt>
      <trkpt lat="46.79196" lon="5.83575">
        <ele>608</ele>
        <time>2022-05-24T15:11:25Z</time>
      </trkpt>
      <trkpt lat="46.79189" lon="5.83573">
        <ele>607.8</ele>
        <time>2022-05-24T15:11:26Z</time>
      </trkpt>
      <trkpt lat="46.79183" lon="5.8357">
        <ele>607.8</ele>
        <time>2022-05-24T15:11:27Z</time>
      </trkpt>
      <trkpt lat="46.79177" lon="5.83566">
        <ele>607.8</ele>
        <time>2022-05-24T15:11:28Z</time>
      </trkpt>
      <trkpt lat="46.79171" lon="5.83564">
        <ele>607.8</ele>
        <time>2022-05-24T15:11:29Z</time>
      </trkpt>
      <trkpt lat="46.79165" lon="5.83561">
        <ele>607.8</ele>
        <time>2022-05-24T15:11:30Z</time>
      </trkpt>
      <trkpt lat="46.79159" lon="5.83559">
        <ele>607.8</ele>
        <time>2022-05-24T15:11:31Z</time>
      </trkpt>
      <trkpt lat="46.79154" lon="5.83556">
        <ele>607.8</ele>
        <time>2022-05-24T15:11:32Z</time>
      </trkpt>
      <trkpt lat="46.79148" lon="5.83553">
        <ele>607.8</ele>
        <time>2022-05-24T15:11:33Z</time>
      </trkpt>
      <trkpt lat="46.79143" lon="5.83551">
        <ele>607.8</ele>
        <time>2022-05-24T15:11:34Z</time>
      </trkpt>
      <trkpt lat="46.79138" lon="5.83548">
        <ele>608.4</ele>
        <time>2022-05-24T15:11:35Z</time>
      </trkpt>
      <trkpt lat="46.79133" lon="5.83546">
        <ele>608.6</ele>
        <time>2022-05-24T15:11:36Z</time>
      </trkpt>
      <trkpt lat="46.79127" lon="5.83544">
        <ele>608.6</ele>
        <time>2022-05-24T15:11:37Z</time>
      </trkpt>
      <trkpt lat="46.79122" lon="5.83541">
        <ele>608.6</ele>
        <time>2022-05-24T15:11:38Z</time>
      </trkpt>
      <trkpt lat="46.79117" lon="5.83538">
        <ele>608.8</ele>
        <time>2022-05-24T15:11:39Z</time>
      </trkpt>
      <trkpt lat="46.79113" lon="5.83535">
        <ele>608.8</ele>
        <time>2022-05-24T15:11:40Z</time>
      </trkpt>
      <trkpt lat="46.79109" lon="5.83531">
        <ele>608.8</ele>
        <time>2022-05-24T15:11:41Z</time>
      </trkpt>
      <trkpt lat="46.79105" lon="5.83527">
        <ele>608.8</ele>
        <time>2022-05-24T15:11:42Z</time>
      </trkpt>
      <trkpt lat="46.79101" lon="5.83523">
        <ele>609</ele>
        <time>2022-05-24T15:11:43Z</time>
      </trkpt>
      <trkpt lat="46.79098" lon="5.83518">
        <ele>609</ele>
        <time>2022-05-24T15:11:44Z</time>
      </trkpt>
      <trkpt lat="46.79094" lon="5.83514">
        <ele>609</ele>
        <time>2022-05-24T15:11:45Z</time>
      </trkpt>
      <trkpt lat="46.79091" lon="5.83509">
        <ele>609.4</ele>
        <time>2022-05-24T15:11:46Z</time>
      </trkpt>
      <trkpt lat="46.79088" lon="5.83504">
        <ele>609.4</ele>
        <time>2022-05-24T15:11:47Z</time>
      </trkpt>
      <trkpt lat="46.79084" lon="5.83499">
        <ele>609.4</ele>
        <time>2022-05-24T15:11:48Z</time>
      </trkpt>
      <trkpt lat="46.79081" lon="5.83494">
        <ele>609.4</ele>
        <time>2022-05-24T15:11:49Z</time>
      </trkpt>
      <trkpt lat="46.79077" lon="5.83489">
        <ele>609.4</ele>
        <time>2022-05-24T15:11:50Z</time>
      </trkpt>
      <trkpt lat="46.79073" lon="5.83483">
        <ele>609.4</ele>
        <time>2022-05-24T15:11:51Z</time>
      </trkpt>
      <trkpt lat="46.79069" lon="5.83477">
        <ele>609.4</ele>
        <time>2022-05-24T15:11:52Z</time>
      </trkpt>
      <trkpt lat="46.79065" lon="5.83471">
        <ele>609.4</ele>
        <time>2022-05-24T15:11:53Z</time>
      </trkpt>
      <trkpt lat="46.79061" lon="5.83464">
        <ele>609.4</ele>
        <time>2022-05-24T15:11:54Z</time>
      </trkpt>
      <trkpt lat="46.79057" lon="5.83458">
        <ele>609.4</ele>
        <time>2022-05-24T15:11:55Z</time>
      </trkpt>
      <trkpt lat="46.79052" lon="5.83452">
        <ele>609.4</ele>
        <time>2022-05-24T15:11:56Z</time>
      </trkpt>
      <trkpt lat="46.79048" lon="5.83446">
        <ele>609.4</ele>
        <time>2022-05-24T15:11:57Z</time>
      </trkpt>
      <trkpt lat="46.79043" lon="5.83439">
        <ele>609.4</ele>
        <time>2022-05-24T15:11:58Z</time>
      </trkpt>
      <trkpt lat="46.79039" lon="5.83433">
        <ele>609.4</ele>
        <time>2022-05-24T15:11:59Z</time>
      </trkpt>
      <trkpt lat="46.79034" lon="5.83426">
        <ele>609.4</ele>
        <time>2022-05-24T15:12:00Z</time>
      </trkpt>
      <trkpt lat="46.7903" lon="5.8342">
        <ele>609.2</ele>
        <time>2022-05-24T15:12:01Z</time>
      </trkpt>
      <trkpt lat="46.79025" lon="5.83413">
        <ele>609.2</ele>
        <time>2022-05-24T15:12:02Z</time>
      </trkpt>
      <trkpt lat="46.7902" lon="5.83406">
        <ele>608.8</ele>
        <time>2022-05-24T15:12:03Z</time>
      </trkpt>
      <trkpt lat="46.79015" lon="5.83399">
        <ele>608.6</ele>
        <time>2022-05-24T15:12:04Z</time>
      </trkpt>
      <trkpt lat="46.7901" lon="5.83392">
        <ele>608.4</ele>
        <time>2022-05-24T15:12:05Z</time>
      </trkpt>
      <trkpt lat="46.79005" lon="5.83385">
        <ele>608.4</ele>
        <time>2022-05-24T15:12:06Z</time>
      </trkpt>
      <trkpt lat="46.79001" lon="5.83378">
        <ele>608.2</ele>
        <time>2022-05-24T15:12:07Z</time>
      </trkpt>
      <trkpt lat="46.78996" lon="5.83371">
        <ele>608.2</ele>
        <time>2022-05-24T15:12:08Z</time>
      </trkpt>
      <trkpt lat="46.7899" lon="5.83364">
        <ele>608.2</ele>
        <time>2022-05-24T15:12:09Z</time>
      </trkpt>
      <trkpt lat="46.78985" lon="5.83357">
        <ele>608.2</ele>
        <time>2022-05-24T15:12:10Z</time>
      </trkpt>
      <trkpt lat="46.78981" lon="5.83349">
        <ele>608.2</ele>
        <time>2022-05-24T15:12:11Z</time>
      </trkpt>
      <trkpt lat="46.78976" lon="5.83342">
        <ele>608.2</ele>
        <time>2022-05-24T15:12:12Z</time>
      </trkpt>
      <trkpt lat="46.78971" lon="5.83335">
        <ele>607.8</ele>
        <time>2022-05-24T15:12:13Z</time>
      </trkpt>
      <trkpt lat="46.78966" lon="5.83328">
        <ele>607.8</ele>
        <time>2022-05-24T15:12:14Z</time>
      </trkpt>
      <trkpt lat="46.78961" lon="5.83321">
        <ele>607.8</ele>
        <time>2022-05-24T15:12:15Z</time>
      </trkpt>
      <trkpt lat="46.78956" lon="5.83315">
        <ele>607.8</ele>
        <time>2022-05-24T15:12:16Z</time>
      </trkpt>
      <trkpt lat="46.78951" lon="5.83308">
        <ele>607.8</ele>
        <time>2022-05-24T15:12:17Z</time>
      </trkpt>
      <trkpt lat="46.78946" lon="5.83301">
        <ele>607.8</ele>
        <time>2022-05-24T15:12:18Z</time>
      </trkpt>
      <trkpt lat="46.78941" lon="5.83294">
        <ele>607.8</ele>
        <time>2022-05-24T15:12:19Z</time>
      </trkpt>
      <trkpt lat="46.78936" lon="5.83288">
        <ele>607.8</ele>
        <time>2022-05-24T15:12:20Z</time>
      </trkpt>
      <trkpt lat="46.78931" lon="5.83281">
        <ele>607.8</ele>
        <time>2022-05-24T15:12:21Z</time>
      </trkpt>
      <trkpt lat="46.78926" lon="5.83274">
        <ele>607.6</ele>
        <time>2022-05-24T15:12:22Z</time>
      </trkpt>
      <trkpt lat="46.78922" lon="5.83267">
        <ele>607.6</ele>
        <time>2022-05-24T15:12:23Z</time>
      </trkpt>
      <trkpt lat="46.78917" lon="5.83261">
        <ele>607.6</ele>
        <time>2022-05-24T15:12:24Z</time>
      </trkpt>
      <trkpt lat="46.78913" lon="5.83254">
        <ele>607.6</ele>
        <time>2022-05-24T15:12:25Z</time>
      </trkpt>
      <trkpt lat="46.78908" lon="5.83249">
        <ele>607.6</ele>
        <time>2022-05-24T15:12:26Z</time>
      </trkpt>
      <trkpt lat="46.78904" lon="5.83243">
        <ele>607.6</ele>
        <time>2022-05-24T15:12:27Z</time>
      </trkpt>
      <trkpt lat="46.789" lon="5.83238">
        <ele>607.6</ele>
        <time>2022-05-24T15:12:28Z</time>
      </trkpt>
      <trkpt lat="46.78895" lon="5.83232">
        <ele>607.6</ele>
        <time>2022-05-24T15:12:29Z</time>
      </trkpt>
      <trkpt lat="46.7889" lon="5.83227">
        <ele>607.6</ele>
        <time>2022-05-24T15:12:30Z</time>
      </trkpt>
      <trkpt lat="46.78884" lon="5.83222">
        <ele>607.6</ele>
        <time>2022-05-24T15:12:31Z</time>
      </trkpt>
      <trkpt lat="46.78879" lon="5.83218">
        <ele>607.6</ele>
        <time>2022-05-24T15:12:32Z</time>
      </trkpt>
      <trkpt lat="46.78873" lon="5.83213">
        <ele>607.6</ele>
        <time>2022-05-24T15:12:33Z</time>
      </trkpt>
      <trkpt lat="46.78867" lon="5.83208">
        <ele>607.6</ele>
        <time>2022-05-24T15:12:34Z</time>
      </trkpt>
      <trkpt lat="46.78861" lon="5.83203">
        <ele>607.6</ele>
        <time>2022-05-24T15:12:35Z</time>
      </trkpt>
      <trkpt lat="46.78855" lon="5.83198">
        <ele>607.6</ele>
        <time>2022-05-24T15:12:36Z</time>
      </trkpt>
      <trkpt lat="46.78849" lon="5.83194">
        <ele>607.6</ele>
        <time>2022-05-24T15:12:37Z</time>
      </trkpt>
      <trkpt lat="46.78843" lon="5.8319">
        <ele>607.6</ele>
        <time>2022-05-24T15:12:38Z</time>
      </trkpt>
      <trkpt lat="46.78837" lon="5.83187">
        <ele>607.6</ele>
        <time>2022-05-24T15:12:39Z</time>
      </trkpt>
      <trkpt lat="46.78831" lon="5.83184">
        <ele>607.6</ele>
        <time>2022-05-24T15:12:40Z</time>
      </trkpt>
      <trkpt lat="46.78824" lon="5.83183">
        <ele>607.6</ele>
        <time>2022-05-24T15:12:41Z</time>
      </trkpt>
      <trkpt lat="46.78818" lon="5.83181">
        <ele>607.2</ele>
        <time>2022-05-24T15:12:42Z</time>
      </trkpt>
      <trkpt lat="46.78812" lon="5.83181">
        <ele>607.2</ele>
        <time>2022-05-24T15:12:43Z</time>
      </trkpt>
      <trkpt lat="46.78805" lon="5.8318">
        <ele>607.2</ele>
        <time>2022-05-24T15:12:44Z</time>
      </trkpt>
      <trkpt lat="46.78799" lon="5.8318">
        <ele>607.2</ele>
        <time>2022-05-24T15:12:45Z</time>
      </trkpt>
      <trkpt lat="46.78786" lon="5.83179">
        <ele>607.2</ele>
        <time>2022-05-24T15:12:46Z</time>
      </trkpt>
      <trkpt lat="46.7878" lon="5.83178">
        <ele>607.2</ele>
        <time>2022-05-24T15:12:47Z</time>
      </trkpt>
      <trkpt lat="46.78774" lon="5.83178">
        <ele>607.2</ele>
        <time>2022-05-24T15:12:48Z</time>
      </trkpt>
      <trkpt lat="46.78767" lon="5.83178">
        <ele>607.2</ele>
        <time>2022-05-24T15:12:49Z</time>
      </trkpt>
      <trkpt lat="46.78761" lon="5.83178">
        <ele>607.2</ele>
        <time>2022-05-24T15:12:50Z</time>
      </trkpt>
      <trkpt lat="46.78755" lon="5.83178">
        <ele>607.2</ele>
        <time>2022-05-24T15:12:51Z</time>
      </trkpt>
      <trkpt lat="46.78749" lon="5.83179">
        <ele>607.2</ele>
        <time>2022-05-24T15:12:52Z</time>
      </trkpt>
      <trkpt lat="46.78743" lon="5.83179">
        <ele>607.2</ele>
        <time>2022-05-24T15:12:53Z</time>
      </trkpt>
      <trkpt lat="46.78737" lon="5.8318">
        <ele>607.4</ele>
        <time>2022-05-24T15:12:54Z</time>
      </trkpt>
      <trkpt lat="46.78732" lon="5.83181">
        <ele>607.4</ele>
        <time>2022-05-24T15:12:55Z</time>
      </trkpt>
      <trkpt lat="46.78726" lon="5.83182">
        <ele>607.6</ele>
        <time>2022-05-24T15:12:56Z</time>
      </trkpt>
      <trkpt lat="46.7872" lon="5.83184">
        <ele>607.6</ele>
        <time>2022-05-24T15:12:57Z</time>
      </trkpt>
      <trkpt lat="46.78715" lon="5.83185">
        <ele>607.8</ele>
        <time>2022-05-24T15:12:58Z</time>
      </trkpt>
      <trkpt lat="46.7871" lon="5.83186">
        <ele>607.8</ele>
        <time>2022-05-24T15:12:59Z</time>
      </trkpt>
      <trkpt lat="46.78705" lon="5.83186">
        <ele>608.2</ele>
        <time>2022-05-24T15:13:00Z</time>
      </trkpt>
      <trkpt lat="46.787" lon="5.83185">
        <ele>608.2</ele>
        <time>2022-05-24T15:13:01Z</time>
      </trkpt>
      <trkpt lat="46.78696" lon="5.83184">
        <ele>608.6</ele>
        <time>2022-05-24T15:13:02Z</time>
      </trkpt>
      <trkpt lat="46.78691" lon="5.83182">
        <ele>608.6</ele>
        <time>2022-05-24T15:13:03Z</time>
      </trkpt>
      <trkpt lat="46.78687" lon="5.83179">
        <ele>609</ele>
        <time>2022-05-24T15:13:04Z</time>
      </trkpt>
      <trkpt lat="46.78683" lon="5.83176">
        <ele>609.4</ele>
        <time>2022-05-24T15:13:05Z</time>
      </trkpt>
      <trkpt lat="46.78679" lon="5.83174">
        <ele>609.6</ele>
        <time>2022-05-24T15:13:06Z</time>
      </trkpt>
      <trkpt lat="46.78676" lon="5.83171">
        <ele>610</ele>
        <time>2022-05-24T15:13:07Z</time>
      </trkpt>
      <trkpt lat="46.78672" lon="5.83168">
        <ele>610</ele>
        <time>2022-05-24T15:13:08Z</time>
      </trkpt>
      <trkpt lat="46.78669" lon="5.83164">
        <ele>610.4</ele>
        <time>2022-05-24T15:13:09Z</time>
      </trkpt>
      <trkpt lat="46.78665" lon="5.83159">
        <ele>610.4</ele>
        <time>2022-05-24T15:13:10Z</time>
      </trkpt>
      <trkpt lat="46.78661" lon="5.83154">
        <ele>610.6</ele>
        <time>2022-05-24T15:13:11Z</time>
      </trkpt>
      <trkpt lat="46.78657" lon="5.8315">
        <ele>610.6</ele>
        <time>2022-05-24T15:13:12Z</time>
      </trkpt>
      <trkpt lat="46.78653" lon="5.83145">
        <ele>610.6</ele>
        <time>2022-05-24T15:13:13Z</time>
      </trkpt>
      <trkpt lat="46.78649" lon="5.8314">
        <ele>610.6</ele>
        <time>2022-05-24T15:13:14Z</time>
      </trkpt>
      <trkpt lat="46.78645" lon="5.83136">
        <ele>610.6</ele>
        <time>2022-05-24T15:13:15Z</time>
      </trkpt>
      <trkpt lat="46.78642" lon="5.83132">
        <ele>610.6</ele>
        <time>2022-05-24T15:13:16Z</time>
      </trkpt>
      <trkpt lat="46.78638" lon="5.83127">
        <ele>610.6</ele>
        <time>2022-05-24T15:13:17Z</time>
      </trkpt>
      <trkpt lat="46.78634" lon="5.83122">
        <ele>610.6</ele>
        <time>2022-05-24T15:13:18Z</time>
      </trkpt>
      <trkpt lat="46.7863" lon="5.83117">
        <ele>610.6</ele>
        <time>2022-05-24T15:13:19Z</time>
      </trkpt>
      <trkpt lat="46.78626" lon="5.83112">
        <ele>610.6</ele>
        <time>2022-05-24T15:13:20Z</time>
      </trkpt>
      <trkpt lat="46.78622" lon="5.83108">
        <ele>610.6</ele>
        <time>2022-05-24T15:13:21Z</time>
      </trkpt>
      <trkpt lat="46.78618" lon="5.83103">
        <ele>611</ele>
        <time>2022-05-24T15:13:22Z</time>
      </trkpt>
      <trkpt lat="46.78615" lon="5.83099">
        <ele>611</ele>
        <time>2022-05-24T15:13:23Z</time>
      </trkpt>
      <trkpt lat="46.78611" lon="5.83095">
        <ele>611</ele>
        <time>2022-05-24T15:13:24Z</time>
      </trkpt>
      <trkpt lat="46.78607" lon="5.83091">
        <ele>611</ele>
        <time>2022-05-24T15:13:25Z</time>
      </trkpt>
      <trkpt lat="46.78603" lon="5.83087">
        <ele>611.2</ele>
        <time>2022-05-24T15:13:26Z</time>
      </trkpt>
      <trkpt lat="46.78599" lon="5.83083">
        <ele>611.2</ele>
        <time>2022-05-24T15:13:27Z</time>
      </trkpt>
      <trkpt lat="46.78595" lon="5.8308">
        <ele>611.4</ele>
        <time>2022-05-24T15:13:28Z</time>
      </trkpt>
      <trkpt lat="46.7859" lon="5.83076">
        <ele>611.4</ele>
        <time>2022-05-24T15:13:29Z</time>
      </trkpt>
      <trkpt lat="46.78585" lon="5.83073">
        <ele>611.6</ele>
        <time>2022-05-24T15:13:30Z</time>
      </trkpt>
      <trkpt lat="46.78581" lon="5.8307">
        <ele>611.6</ele>
        <time>2022-05-24T15:13:31Z</time>
      </trkpt>
      <trkpt lat="46.78576" lon="5.83065">
        <ele>611.6</ele>
        <time>2022-05-24T15:13:32Z</time>
      </trkpt>
      <trkpt lat="46.78572" lon="5.83061">
        <ele>611.6</ele>
        <time>2022-05-24T15:13:33Z</time>
      </trkpt>
      <trkpt lat="46.78567" lon="5.83055">
        <ele>611.6</ele>
        <time>2022-05-24T15:13:34Z</time>
      </trkpt>
      <trkpt lat="46.78563" lon="5.83049">
        <ele>611.6</ele>
        <time>2022-05-24T15:13:35Z</time>
      </trkpt>
      <trkpt lat="46.78558" lon="5.83043">
        <ele>611.6</ele>
        <time>2022-05-24T15:13:36Z</time>
      </trkpt>
      <trkpt lat="46.78554" lon="5.83036">
        <ele>611.6</ele>
        <time>2022-05-24T15:13:37Z</time>
      </trkpt>
      <trkpt lat="46.78549" lon="5.83029">
        <ele>611.6</ele>
        <time>2022-05-24T15:13:38Z</time>
      </trkpt>
      <trkpt lat="46.78545" lon="5.83021">
        <ele>611.6</ele>
        <time>2022-05-24T15:13:39Z</time>
      </trkpt>
      <trkpt lat="46.78541" lon="5.83014">
        <ele>611.6</ele>
        <time>2022-05-24T15:13:40Z</time>
      </trkpt>
      <trkpt lat="46.78537" lon="5.83006">
        <ele>611.6</ele>
        <time>2022-05-24T15:13:41Z</time>
      </trkpt>
      <trkpt lat="46.78532" lon="5.82999">
        <ele>611.6</ele>
        <time>2022-05-24T15:13:42Z</time>
      </trkpt>
      <trkpt lat="46.78528" lon="5.82991">
        <ele>611.4</ele>
        <time>2022-05-24T15:13:43Z</time>
      </trkpt>
      <trkpt lat="46.78524" lon="5.82983">
        <ele>611.4</ele>
        <time>2022-05-24T15:13:44Z</time>
      </trkpt>
      <trkpt lat="46.78519" lon="5.82975">
        <ele>611</ele>
        <time>2022-05-24T15:13:45Z</time>
      </trkpt>
      <trkpt lat="46.78515" lon="5.82966">
        <ele>610.8</ele>
        <time>2022-05-24T15:13:46Z</time>
      </trkpt>
      <trkpt lat="46.78511" lon="5.82958">
        <ele>610.4</ele>
        <time>2022-05-24T15:13:47Z</time>
      </trkpt>
      <trkpt lat="46.78506" lon="5.82949">
        <ele>610.4</ele>
        <time>2022-05-24T15:13:48Z</time>
      </trkpt>
      <trkpt lat="46.78502" lon="5.8294">
        <ele>610</ele>
        <time>2022-05-24T15:13:49Z</time>
      </trkpt>
      <trkpt lat="46.78497" lon="5.82932">
        <ele>609.8</ele>
        <time>2022-05-24T15:13:50Z</time>
      </trkpt>
      <trkpt lat="46.78493" lon="5.82923">
        <ele>609.6</ele>
        <time>2022-05-24T15:13:51Z</time>
      </trkpt>
      <trkpt lat="46.78488" lon="5.82913">
        <ele>609.2</ele>
        <time>2022-05-24T15:13:52Z</time>
      </trkpt>
      <trkpt lat="46.78483" lon="5.82904">
        <ele>608.8</ele>
        <time>2022-05-24T15:13:53Z</time>
      </trkpt>
      <trkpt lat="46.78477" lon="5.82894">
        <ele>608.4</ele>
        <time>2022-05-24T15:13:54Z</time>
      </trkpt>
      <trkpt lat="46.78472" lon="5.82885">
        <ele>608.2</ele>
        <time>2022-05-24T15:13:55Z</time>
      </trkpt>
      <trkpt lat="46.78466" lon="5.82875">
        <ele>608</ele>
        <time>2022-05-24T15:13:56Z</time>
      </trkpt>
      <trkpt lat="46.7846" lon="5.82866">
        <ele>607.8</ele>
        <time>2022-05-24T15:13:57Z</time>
      </trkpt>
      <trkpt lat="46.78454" lon="5.82857">
        <ele>607.4</ele>
        <time>2022-05-24T15:13:58Z</time>
      </trkpt>
      <trkpt lat="46.78447" lon="5.82848">
        <ele>607.2</ele>
        <time>2022-05-24T15:13:59Z</time>
      </trkpt>
      <trkpt lat="46.78441" lon="5.82839">
        <ele>607</ele>
        <time>2022-05-24T15:14:00Z</time>
      </trkpt>
      <trkpt lat="46.78434" lon="5.82831">
        <ele>606.8</ele>
        <time>2022-05-24T15:14:01Z</time>
      </trkpt>
      <trkpt lat="46.78427" lon="5.82823">
        <ele>606.4</ele>
        <time>2022-05-24T15:14:02Z</time>
      </trkpt>
      <trkpt lat="46.78419" lon="5.82814">
        <ele>606.2</ele>
        <time>2022-05-24T15:14:03Z</time>
      </trkpt>
      <trkpt lat="46.78411" lon="5.82805">
        <ele>605.8</ele>
        <time>2022-05-24T15:14:04Z</time>
      </trkpt>
      <trkpt lat="46.78404" lon="5.82797">
        <ele>605.6</ele>
        <time>2022-05-24T15:14:05Z</time>
      </trkpt>
      <trkpt lat="46.78395" lon="5.82787">
        <ele>605.4</ele>
        <time>2022-05-24T15:14:06Z</time>
      </trkpt>
      <trkpt lat="46.78386" lon="5.82779">
        <ele>605</ele>
        <time>2022-05-24T15:14:07Z</time>
      </trkpt>
      <trkpt lat="46.78379" lon="5.82772">
        <ele>604.8</ele>
        <time>2022-05-24T15:14:08Z</time>
      </trkpt>
      <trkpt lat="46.78371" lon="5.82764">
        <ele>604.4</ele>
        <time>2022-05-24T15:14:09Z</time>
      </trkpt>
      <trkpt lat="46.78363" lon="5.82757">
        <ele>603.8</ele>
        <time>2022-05-24T15:14:10Z</time>
      </trkpt>
      <trkpt lat="46.78356" lon="5.8275">
        <ele>603.6</ele>
        <time>2022-05-24T15:14:11Z</time>
      </trkpt>
      <trkpt lat="46.78348" lon="5.82742">
        <ele>603.4</ele>
        <time>2022-05-24T15:14:12Z</time>
      </trkpt>
      <trkpt lat="46.78341" lon="5.82735">
        <ele>603.2</ele>
        <time>2022-05-24T15:14:13Z</time>
      </trkpt>
      <trkpt lat="46.78334" lon="5.82728">
        <ele>603.2</ele>
        <time>2022-05-24T15:14:14Z</time>
      </trkpt>
      <trkpt lat="46.78327" lon="5.82721">
        <ele>602.8</ele>
        <time>2022-05-24T15:14:15Z</time>
      </trkpt>
      <trkpt lat="46.7832" lon="5.82713">
        <ele>602.8</ele>
        <time>2022-05-24T15:14:16Z</time>
      </trkpt>
      <trkpt lat="46.78313" lon="5.82706">
        <ele>602.6</ele>
        <time>2022-05-24T15:14:17Z</time>
      </trkpt>
      <trkpt lat="46.78306" lon="5.82699">
        <ele>602.4</ele>
        <time>2022-05-24T15:14:18Z</time>
      </trkpt>
      <trkpt lat="46.783" lon="5.82692">
        <ele>602.4</ele>
        <time>2022-05-24T15:14:19Z</time>
      </trkpt>
      <trkpt lat="46.78294" lon="5.82685">
        <ele>602.2</ele>
        <time>2022-05-24T15:14:20Z</time>
      </trkpt>
      <trkpt lat="46.78287" lon="5.82678">
        <ele>602.2</ele>
        <time>2022-05-24T15:14:21Z</time>
      </trkpt>
      <trkpt lat="46.78281" lon="5.82672">
        <ele>602.2</ele>
        <time>2022-05-24T15:14:22Z</time>
      </trkpt>
      <trkpt lat="46.78275" lon="5.82666">
        <ele>602.2</ele>
        <time>2022-05-24T15:14:23Z</time>
      </trkpt>
      <trkpt lat="46.7827" lon="5.82659">
        <ele>601.8</ele>
        <time>2022-05-24T15:14:24Z</time>
      </trkpt>
      <trkpt lat="46.78264" lon="5.82653">
        <ele>601.8</ele>
        <time>2022-05-24T15:14:25Z</time>
      </trkpt>
      <trkpt lat="46.78258" lon="5.82647">
        <ele>601.8</ele>
        <time>2022-05-24T15:14:26Z</time>
      </trkpt>
      <trkpt lat="46.78252" lon="5.82642">
        <ele>601.8</ele>
        <time>2022-05-24T15:14:27Z</time>
      </trkpt>
      <trkpt lat="46.78246" lon="5.82636">
        <ele>601.6</ele>
        <time>2022-05-24T15:14:28Z</time>
      </trkpt>
      <trkpt lat="46.7824" lon="5.8263">
        <ele>601.6</ele>
        <time>2022-05-24T15:14:29Z</time>
      </trkpt>
      <trkpt lat="46.78233" lon="5.82624">
        <ele>601.2</ele>
        <time>2022-05-24T15:14:30Z</time>
      </trkpt>
      <trkpt lat="46.78227" lon="5.82619">
        <ele>601.2</ele>
        <time>2022-05-24T15:14:31Z</time>
      </trkpt>
      <trkpt lat="46.7822" lon="5.82614">
        <ele>600.8</ele>
        <time>2022-05-24T15:14:32Z</time>
      </trkpt>
      <trkpt lat="46.78212" lon="5.82609">
        <ele>600.8</ele>
        <time>2022-05-24T15:14:33Z</time>
      </trkpt>
      <trkpt lat="46.78205" lon="5.82604">
        <ele>600.8</ele>
        <time>2022-05-24T15:14:34Z</time>
      </trkpt>
      <trkpt lat="46.78197" lon="5.82599">
        <ele>600.6</ele>
        <time>2022-05-24T15:14:35Z</time>
      </trkpt>
      <trkpt lat="46.78189" lon="5.82595">
        <ele>600.6</ele>
        <time>2022-05-24T15:14:36Z</time>
      </trkpt>
      <trkpt lat="46.78181" lon="5.8259">
        <ele>600.2</ele>
        <time>2022-05-24T15:14:37Z</time>
      </trkpt>
      <trkpt lat="46.78173" lon="5.82585">
        <ele>600</ele>
        <time>2022-05-24T15:14:38Z</time>
      </trkpt>
      <trkpt lat="46.78165" lon="5.8258">
        <ele>599.6</ele>
        <time>2022-05-24T15:14:39Z</time>
      </trkpt>
      <trkpt lat="46.78156" lon="5.82575">
        <ele>599.2</ele>
        <time>2022-05-24T15:14:40Z</time>
      </trkpt>
      <trkpt lat="46.78148" lon="5.8257">
        <ele>598.8</ele>
        <time>2022-05-24T15:14:41Z</time>
      </trkpt>
      <trkpt lat="46.78139" lon="5.82565">
        <ele>598.6</ele>
        <time>2022-05-24T15:14:42Z</time>
      </trkpt>
      <trkpt lat="46.7813" lon="5.82559">
        <ele>598.2</ele>
        <time>2022-05-24T15:14:43Z</time>
      </trkpt>
      <trkpt lat="46.78121" lon="5.82553">
        <ele>597.8</ele>
        <time>2022-05-24T15:14:44Z</time>
      </trkpt>
      <trkpt lat="46.78111" lon="5.82547">
        <ele>597.2</ele>
        <time>2022-05-24T15:14:45Z</time>
      </trkpt>
      <trkpt lat="46.78101" lon="5.82541">
        <ele>596.8</ele>
        <time>2022-05-24T15:14:46Z</time>
      </trkpt>
      <trkpt lat="46.78093" lon="5.82535">
        <ele>596.4</ele>
        <time>2022-05-24T15:14:47Z</time>
      </trkpt>
      <trkpt lat="46.78084" lon="5.82529">
        <ele>596</ele>
        <time>2022-05-24T15:14:48Z</time>
      </trkpt>
      <trkpt lat="46.78076" lon="5.82523">
        <ele>595.4</ele>
        <time>2022-05-24T15:14:49Z</time>
      </trkpt>
      <trkpt lat="46.78067" lon="5.82518">
        <ele>594.8</ele>
        <time>2022-05-24T15:14:50Z</time>
      </trkpt>
      <trkpt lat="46.78059" lon="5.82513">
        <ele>594.4</ele>
        <time>2022-05-24T15:14:51Z</time>
      </trkpt>
      <trkpt lat="46.7805" lon="5.82507">
        <ele>594</ele>
        <time>2022-05-24T15:14:52Z</time>
      </trkpt>
      <trkpt lat="46.78042" lon="5.82501">
        <ele>593.6</ele>
        <time>2022-05-24T15:14:53Z</time>
      </trkpt>
      <trkpt lat="46.78033" lon="5.82496">
        <ele>593.2</ele>
        <time>2022-05-24T15:14:54Z</time>
      </trkpt>
      <trkpt lat="46.78025" lon="5.8249">
        <ele>593</ele>
        <time>2022-05-24T15:14:55Z</time>
      </trkpt>
      <trkpt lat="46.78017" lon="5.82484">
        <ele>592.8</ele>
        <time>2022-05-24T15:14:56Z</time>
      </trkpt>
      <trkpt lat="46.78008" lon="5.82479">
        <ele>592.2</ele>
        <time>2022-05-24T15:14:57Z</time>
      </trkpt>
      <trkpt lat="46.78" lon="5.82474">
        <ele>591.8</ele>
        <time>2022-05-24T15:14:58Z</time>
      </trkpt>
      <trkpt lat="46.7799" lon="5.82469">
        <ele>591.4</ele>
        <time>2022-05-24T15:14:59Z</time>
      </trkpt>
      <trkpt lat="46.77981" lon="5.82464">
        <ele>590.8</ele>
        <time>2022-05-24T15:15:00Z</time>
      </trkpt>
      <trkpt lat="46.77972" lon="5.82458">
        <ele>590.6</ele>
        <time>2022-05-24T15:15:01Z</time>
      </trkpt>
      <trkpt lat="46.77961" lon="5.82453">
        <ele>590.2</ele>
        <time>2022-05-24T15:15:02Z</time>
      </trkpt>
      <trkpt lat="46.77951" lon="5.82447">
        <ele>589.8</ele>
        <time>2022-05-24T15:15:03Z</time>
      </trkpt>
      <trkpt lat="46.77941" lon="5.82441">
        <ele>589.4</ele>
        <time>2022-05-24T15:15:04Z</time>
      </trkpt>
      <trkpt lat="46.77931" lon="5.82434">
        <ele>589.2</ele>
        <time>2022-05-24T15:15:05Z</time>
      </trkpt>
      <trkpt lat="46.77921" lon="5.82428">
        <ele>588.6</ele>
        <time>2022-05-24T15:15:06Z</time>
      </trkpt>
      <trkpt lat="46.77911" lon="5.82422">
        <ele>588.2</ele>
        <time>2022-05-24T15:15:07Z</time>
      </trkpt>
      <trkpt lat="46.77901" lon="5.82416">
        <ele>587.8</ele>
        <time>2022-05-24T15:15:08Z</time>
      </trkpt>
      <trkpt lat="46.77892" lon="5.82409">
        <ele>587.4</ele>
        <time>2022-05-24T15:15:09Z</time>
      </trkpt>
      <trkpt lat="46.77882" lon="5.82403">
        <ele>586.8</ele>
        <time>2022-05-24T15:15:10Z</time>
      </trkpt>
      <trkpt lat="46.77872" lon="5.82397">
        <ele>586.4</ele>
        <time>2022-05-24T15:15:11Z</time>
      </trkpt>
      <trkpt lat="46.77862" lon="5.8239">
        <ele>586</ele>
        <time>2022-05-24T15:15:12Z</time>
      </trkpt>
      <trkpt lat="46.77853" lon="5.82384">
        <ele>585.6</ele>
        <time>2022-05-24T15:15:13Z</time>
      </trkpt>
      <trkpt lat="46.77841" lon="5.82378">
        <ele>585</ele>
        <time>2022-05-24T15:15:14Z</time>
      </trkpt>
      <trkpt lat="46.7783" lon="5.82372">
        <ele>584.6</ele>
        <time>2022-05-24T15:15:15Z</time>
      </trkpt>
      <trkpt lat="46.77819" lon="5.82366">
        <ele>584</ele>
        <time>2022-05-24T15:15:16Z</time>
      </trkpt>
      <trkpt lat="46.77808" lon="5.8236">
        <ele>583.6</ele>
        <time>2022-05-24T15:15:17Z</time>
      </trkpt>
      <trkpt lat="46.77798" lon="5.82355">
        <ele>583</ele>
        <time>2022-05-24T15:15:18Z</time>
      </trkpt>
      <trkpt lat="46.77787" lon="5.82348">
        <ele>582.6</ele>
        <time>2022-05-24T15:15:19Z</time>
      </trkpt>
      <trkpt lat="46.77778" lon="5.82339">
        <ele>582.2</ele>
        <time>2022-05-24T15:15:20Z</time>
      </trkpt>
      <trkpt lat="46.77769" lon="5.82328">
        <ele>582</ele>
        <time>2022-05-24T15:15:21Z</time>
      </trkpt>
      <trkpt lat="46.77762" lon="5.82314">
        <ele>581.6</ele>
        <time>2022-05-24T15:15:22Z</time>
      </trkpt>
      <trkpt lat="46.77756" lon="5.82298">
        <ele>581.2</ele>
        <time>2022-05-24T15:15:23Z</time>
      </trkpt>
      <trkpt lat="46.77753" lon="5.82281">
        <ele>580.6</ele>
        <time>2022-05-24T15:15:24Z</time>
      </trkpt>
      <trkpt lat="46.77752" lon="5.82264">
        <ele>580.2</ele>
        <time>2022-05-24T15:15:25Z</time>
      </trkpt>
      <trkpt lat="46.7775" lon="5.82247">
        <ele>579.4</ele>
        <time>2022-05-24T15:15:26Z</time>
      </trkpt>
      <trkpt lat="46.77749" lon="5.82231">
        <ele>579</ele>
        <time>2022-05-24T15:15:27Z</time>
      </trkpt>
      <trkpt lat="46.77746" lon="5.82215">
        <ele>578.8</ele>
        <time>2022-05-24T15:15:28Z</time>
      </trkpt>
      <trkpt lat="46.77742" lon="5.82201">
        <ele>578.2</ele>
        <time>2022-05-24T15:15:29Z</time>
      </trkpt>
      <trkpt lat="46.77738" lon="5.82188">
        <ele>577.8</ele>
        <time>2022-05-24T15:15:30Z</time>
      </trkpt>
      <trkpt lat="46.77731" lon="5.82178">
        <ele>577.4</ele>
        <time>2022-05-24T15:15:31Z</time>
      </trkpt>
      <trkpt lat="46.77722" lon="5.82172">
        <ele>576.8</ele>
        <time>2022-05-24T15:15:32Z</time>
      </trkpt>
      <trkpt lat="46.77711" lon="5.82168">
        <ele>576.4</ele>
        <time>2022-05-24T15:15:33Z</time>
      </trkpt>
      <trkpt lat="46.777" lon="5.82166">
        <ele>576</ele>
        <time>2022-05-24T15:15:34Z</time>
      </trkpt>
      <trkpt lat="46.77689" lon="5.82167">
        <ele>575.8</ele>
        <time>2022-05-24T15:15:35Z</time>
      </trkpt>
      <trkpt lat="46.77689" lon="5.82167">
        <ele>575.4</ele>
        <time>2022-05-24T15:15:36Z</time>
      </trkpt>
      <trkpt lat="46.77678" lon="5.82169">
        <ele>575.2</ele>
        <time>2022-05-24T15:15:37Z</time>
      </trkpt>
      <trkpt lat="46.77667" lon="5.8217">
        <ele>574.8</ele>
        <time>2022-05-24T15:15:38Z</time>
      </trkpt>
      <trkpt lat="46.77656" lon="5.82172">
        <ele>574.4</ele>
        <time>2022-05-24T15:15:39Z</time>
      </trkpt>
      <trkpt lat="46.77645" lon="5.82172">
        <ele>574</ele>
        <time>2022-05-24T15:15:40Z</time>
      </trkpt>
      <trkpt lat="46.77634" lon="5.82173">
        <ele>573.4</ele>
        <time>2022-05-24T15:15:41Z</time>
      </trkpt>
      <trkpt lat="46.77623" lon="5.82174">
        <ele>573</ele>
        <time>2022-05-24T15:15:42Z</time>
      </trkpt>
      <trkpt lat="46.77612" lon="5.82175">
        <ele>572.6</ele>
        <time>2022-05-24T15:15:43Z</time>
      </trkpt>
      <trkpt lat="46.77601" lon="5.82176">
        <ele>572.2</ele>
        <time>2022-05-24T15:15:44Z</time>
      </trkpt>
      <trkpt lat="46.7759" lon="5.82176">
        <ele>571.6</ele>
        <time>2022-05-24T15:15:45Z</time>
      </trkpt>
      <trkpt lat="46.77579" lon="5.82177">
        <ele>571</ele>
        <time>2022-05-24T15:15:46Z</time>
      </trkpt>
      <trkpt lat="46.77568" lon="5.82177">
        <ele>570.6</ele>
        <time>2022-05-24T15:15:47Z</time>
      </trkpt>
      <trkpt lat="46.77558" lon="5.82177">
        <ele>570.4</ele>
        <time>2022-05-24T15:15:48Z</time>
      </trkpt>
      <trkpt lat="46.77547" lon="5.82177">
        <ele>570.2</ele>
        <time>2022-05-24T15:15:49Z</time>
      </trkpt>
      <trkpt lat="46.77537" lon="5.82178">
        <ele>569.8</ele>
        <time>2022-05-24T15:15:50Z</time>
      </trkpt>
      <trkpt lat="46.77526" lon="5.82178">
        <ele>569.2</ele>
        <time>2022-05-24T15:15:51Z</time>
      </trkpt>
      <trkpt lat="46.77516" lon="5.82178">
        <ele>568.8</ele>
        <time>2022-05-24T15:15:52Z</time>
      </trkpt>
      <trkpt lat="46.77506" lon="5.82179">
        <ele>568.6</ele>
        <time>2022-05-24T15:15:53Z</time>
      </trkpt>
      <trkpt lat="46.77495" lon="5.82179">
        <ele>568</ele>
        <time>2022-05-24T15:15:54Z</time>
      </trkpt>
      <trkpt lat="46.77486" lon="5.82181">
        <ele>567.6</ele>
        <time>2022-05-24T15:15:55Z</time>
      </trkpt>
      <trkpt lat="46.77475" lon="5.82181">
        <ele>567</ele>
        <time>2022-05-24T15:15:56Z</time>
      </trkpt>
      <trkpt lat="46.77465" lon="5.82181">
        <ele>566.6</ele>
        <time>2022-05-24T15:15:57Z</time>
      </trkpt>
      <trkpt lat="46.77454" lon="5.82181">
        <ele>566</ele>
        <time>2022-05-24T15:15:58Z</time>
      </trkpt>
      <trkpt lat="46.77444" lon="5.82181">
        <ele>565.4</ele>
        <time>2022-05-24T15:15:59Z</time>
      </trkpt>
      <trkpt lat="46.77434" lon="5.82185">
        <ele>565</ele>
        <time>2022-05-24T15:16:00Z</time>
      </trkpt>
      <trkpt lat="46.77424" lon="5.8219">
        <ele>564.4</ele>
        <time>2022-05-24T15:16:01Z</time>
      </trkpt>
      <trkpt lat="46.77414" lon="5.82196">
        <ele>563.8</ele>
        <time>2022-05-24T15:16:02Z</time>
      </trkpt>
      <trkpt lat="46.77403" lon="5.82203">
        <ele>563.4</ele>
        <time>2022-05-24T15:16:03Z</time>
      </trkpt>
      <trkpt lat="46.77394" lon="5.82211">
        <ele>562.8</ele>
        <time>2022-05-24T15:16:04Z</time>
      </trkpt>
      <trkpt lat="46.77385" lon="5.82221">
        <ele>562.2</ele>
        <time>2022-05-24T15:16:05Z</time>
      </trkpt>
      <trkpt lat="46.77375" lon="5.82229">
        <ele>561.6</ele>
        <time>2022-05-24T15:16:06Z</time>
      </trkpt>
      <trkpt lat="46.77364" lon="5.82237">
        <ele>561</ele>
        <time>2022-05-24T15:16:07Z</time>
      </trkpt>
      <trkpt lat="46.77354" lon="5.82245">
        <ele>560.6</ele>
        <time>2022-05-24T15:16:08Z</time>
      </trkpt>
      <trkpt lat="46.77344" lon="5.8225">
        <ele>560</ele>
        <time>2022-05-24T15:16:09Z</time>
      </trkpt>
      <trkpt lat="46.77333" lon="5.82255">
        <ele>559.4</ele>
        <time>2022-05-24T15:16:10Z</time>
      </trkpt>
      <trkpt lat="46.77321" lon="5.8226">
        <ele>559</ele>
        <time>2022-05-24T15:16:11Z</time>
      </trkpt>
      <trkpt lat="46.77311" lon="5.82265">
        <ele>558.4</ele>
        <time>2022-05-24T15:16:12Z</time>
      </trkpt>
      <trkpt lat="46.77299" lon="5.82269">
        <ele>557.8</ele>
        <time>2022-05-24T15:16:13Z</time>
      </trkpt>
      <trkpt lat="46.77287" lon="5.82274">
        <ele>557.4</ele>
        <time>2022-05-24T15:16:14Z</time>
      </trkpt>
      <trkpt lat="46.77276" lon="5.82279">
        <ele>556.6</ele>
        <time>2022-05-24T15:16:15Z</time>
      </trkpt>
      <trkpt lat="46.77264" lon="5.82282">
        <ele>556</ele>
        <time>2022-05-24T15:16:16Z</time>
      </trkpt>
      <trkpt lat="46.77253" lon="5.82286">
        <ele>555.4</ele>
        <time>2022-05-24T15:16:17Z</time>
      </trkpt>
      <trkpt lat="46.77241" lon="5.82292">
        <ele>554.8</ele>
        <time>2022-05-24T15:16:18Z</time>
      </trkpt>
      <trkpt lat="46.77229" lon="5.82296">
        <ele>554.2</ele>
        <time>2022-05-24T15:16:19Z</time>
      </trkpt>
      <trkpt lat="46.77217" lon="5.82301">
        <ele>553.6</ele>
        <time>2022-05-24T15:16:20Z</time>
      </trkpt>
      <trkpt lat="46.77206" lon="5.82306">
        <ele>552.8</ele>
        <time>2022-05-24T15:16:21Z</time>
      </trkpt>
      <trkpt lat="46.77194" lon="5.82311">
        <ele>552.8</ele>
        <time>2022-05-24T15:16:22Z</time>
      </trkpt>
      <trkpt lat="46.77183" lon="5.82315">
        <ele>552.4</ele>
        <time>2022-05-24T15:16:23Z</time>
      </trkpt>
      <trkpt lat="46.77171" lon="5.82321">
        <ele>551.6</ele>
        <time>2022-05-24T15:16:24Z</time>
      </trkpt>
      <trkpt lat="46.77159" lon="5.82326">
        <ele>551</ele>
        <time>2022-05-24T15:16:25Z</time>
      </trkpt>
      <trkpt lat="46.77146" lon="5.82331">
        <ele>550.6</ele>
        <time>2022-05-24T15:16:26Z</time>
      </trkpt>
      <trkpt lat="46.77134" lon="5.82335">
        <ele>550</ele>
        <time>2022-05-24T15:16:27Z</time>
      </trkpt>
      <trkpt lat="46.77122" lon="5.8234">
        <ele>549.4</ele>
        <time>2022-05-24T15:16:28Z</time>
      </trkpt>
      <trkpt lat="46.7711" lon="5.82345">
        <ele>548.8</ele>
        <time>2022-05-24T15:16:29Z</time>
      </trkpt>
      <trkpt lat="46.77098" lon="5.8235">
        <ele>548</ele>
        <time>2022-05-24T15:16:30Z</time>
      </trkpt>
      <trkpt lat="46.77086" lon="5.82354">
        <ele>547.2</ele>
        <time>2022-05-24T15:16:31Z</time>
      </trkpt>
      <trkpt lat="46.77073" lon="5.82359">
        <ele>546.4</ele>
        <time>2022-05-24T15:16:32Z</time>
      </trkpt>
      <trkpt lat="46.77061" lon="5.82363">
        <ele>545.8</ele>
        <time>2022-05-24T15:16:33Z</time>
      </trkpt>
      <trkpt lat="46.7705" lon="5.82368">
        <ele>545.2</ele>
        <time>2022-05-24T15:16:34Z</time>
      </trkpt>
      <trkpt lat="46.77038" lon="5.82374">
        <ele>544.8</ele>
        <time>2022-05-24T15:16:35Z</time>
      </trkpt>
      <trkpt lat="46.77027" lon="5.82378">
        <ele>544.2</ele>
        <time>2022-05-24T15:16:36Z</time>
      </trkpt>
      <trkpt lat="46.77016" lon="5.82382">
        <ele>543.6</ele>
        <time>2022-05-24T15:16:37Z</time>
      </trkpt>
      <trkpt lat="46.77004" lon="5.82385">
        <ele>543</ele>
        <time>2022-05-24T15:16:38Z</time>
      </trkpt>
      <trkpt lat="46.76993" lon="5.82389">
        <ele>542.4</ele>
        <time>2022-05-24T15:16:39Z</time>
      </trkpt>
      <trkpt lat="46.76982" lon="5.82394">
        <ele>542</ele>
        <time>2022-05-24T15:16:40Z</time>
      </trkpt>
      <trkpt lat="46.76971" lon="5.82399">
        <ele>541.6</ele>
        <time>2022-05-24T15:16:41Z</time>
      </trkpt>
      <trkpt lat="46.76961" lon="5.82403">
        <ele>541</ele>
        <time>2022-05-24T15:16:42Z</time>
      </trkpt>
      <trkpt lat="46.76951" lon="5.82406">
        <ele>540.6</ele>
        <time>2022-05-24T15:16:43Z</time>
      </trkpt>
      <trkpt lat="46.76941" lon="5.82411">
        <ele>540.2</ele>
        <time>2022-05-24T15:16:44Z</time>
      </trkpt>
      <trkpt lat="46.7693" lon="5.82416">
        <ele>540</ele>
        <time>2022-05-24T15:16:45Z</time>
      </trkpt>
      <trkpt lat="46.7692" lon="5.8242">
        <ele>539.6</ele>
        <time>2022-05-24T15:16:46Z</time>
      </trkpt>
      <trkpt lat="46.76911" lon="5.82424">
        <ele>539.6</ele>
        <time>2022-05-24T15:16:47Z</time>
      </trkpt>
      <trkpt lat="46.76901" lon="5.82428">
        <ele>539.4</ele>
        <time>2022-05-24T15:16:48Z</time>
      </trkpt>
      <trkpt lat="46.76892" lon="5.82432">
        <ele>539.4</ele>
        <time>2022-05-24T15:16:49Z</time>
      </trkpt>
      <trkpt lat="46.76884" lon="5.82435">
        <ele>539.4</ele>
        <time>2022-05-24T15:16:50Z</time>
      </trkpt>
      <trkpt lat="46.76876" lon="5.82439">
        <ele>539</ele>
        <time>2022-05-24T15:16:51Z</time>
      </trkpt>
      <trkpt lat="46.76868" lon="5.82441">
        <ele>539</ele>
        <time>2022-05-24T15:16:52Z</time>
      </trkpt>
      <trkpt lat="46.7686" lon="5.82444">
        <ele>539</ele>
        <time>2022-05-24T15:16:53Z</time>
      </trkpt>
      <trkpt lat="46.76852" lon="5.82447">
        <ele>539</ele>
        <time>2022-05-24T15:16:54Z</time>
      </trkpt>
      <trkpt lat="46.76844" lon="5.82448">
        <ele>539</ele>
        <time>2022-05-24T15:16:55Z</time>
      </trkpt>
      <trkpt lat="46.76837" lon="5.82449">
        <ele>539</ele>
        <time>2022-05-24T15:16:56Z</time>
      </trkpt>
      <trkpt lat="46.76829" lon="5.82448">
        <ele>539</ele>
        <time>2022-05-24T15:16:57Z</time>
      </trkpt>
      <trkpt lat="46.76822" lon="5.82447">
        <ele>539.2</ele>
        <time>2022-05-24T15:16:58Z</time>
      </trkpt>
      <trkpt lat="46.76815" lon="5.82444">
        <ele>539.2</ele>
        <time>2022-05-24T15:16:59Z</time>
      </trkpt>
      <trkpt lat="46.76808" lon="5.82441">
        <ele>539.6</ele>
        <time>2022-05-24T15:17:00Z</time>
      </trkpt>
      <trkpt lat="46.76801" lon="5.82438">
        <ele>539.6</ele>
        <time>2022-05-24T15:17:01Z</time>
      </trkpt>
      <trkpt lat="46.76795" lon="5.82434">
        <ele>539.6</ele>
        <time>2022-05-24T15:17:02Z</time>
      </trkpt>
      <trkpt lat="46.76789" lon="5.82429">
        <ele>539.2</ele>
        <time>2022-05-24T15:17:03Z</time>
      </trkpt>
      <trkpt lat="46.76783" lon="5.82425">
        <ele>539.4</ele>
        <time>2022-05-24T15:17:04Z</time>
      </trkpt>
      <trkpt lat="46.76777" lon="5.82421">
        <ele>539.4</ele>
        <time>2022-05-24T15:17:05Z</time>
      </trkpt>
      <trkpt lat="46.76771" lon="5.82416">
        <ele>539.8</ele>
        <time>2022-05-24T15:17:06Z</time>
      </trkpt>
      <trkpt lat="46.76766" lon="5.82412">
        <ele>539.8</ele>
        <time>2022-05-24T15:17:07Z</time>
      </trkpt>
      <trkpt lat="46.7676" lon="5.82407">
        <ele>539.8</ele>
        <time>2022-05-24T15:17:08Z</time>
      </trkpt>
      <trkpt lat="46.76754" lon="5.82403">
        <ele>539.8</ele>
        <time>2022-05-24T15:17:09Z</time>
      </trkpt>
      <trkpt lat="46.76748" lon="5.82399">
        <ele>539.8</ele>
        <time>2022-05-24T15:17:10Z</time>
      </trkpt>
      <trkpt lat="46.76742" lon="5.82394">
        <ele>539.8</ele>
        <time>2022-05-24T15:17:11Z</time>
      </trkpt>
      <trkpt lat="46.76736" lon="5.8239">
        <ele>539.8</ele>
        <time>2022-05-24T15:17:12Z</time>
      </trkpt>
      <trkpt lat="46.76731" lon="5.82386">
        <ele>539.6</ele>
        <time>2022-05-24T15:17:13Z</time>
      </trkpt>
      <trkpt lat="46.76725" lon="5.82382">
        <ele>539.6</ele>
        <time>2022-05-24T15:17:14Z</time>
      </trkpt>
      <trkpt lat="46.76719" lon="5.82377">
        <ele>539.6</ele>
        <time>2022-05-24T15:17:15Z</time>
      </trkpt>
      <trkpt lat="46.76713" lon="5.82373">
        <ele>539.6</ele>
        <time>2022-05-24T15:17:16Z</time>
      </trkpt>
      <trkpt lat="46.76707" lon="5.82369">
        <ele>539.6</ele>
        <time>2022-05-24T15:17:17Z</time>
      </trkpt>
      <trkpt lat="46.76701" lon="5.82365">
        <ele>539.6</ele>
        <time>2022-05-24T15:17:18Z</time>
      </trkpt>
      <trkpt lat="46.76696" lon="5.8236">
        <ele>539.2</ele>
        <time>2022-05-24T15:17:19Z</time>
      </trkpt>
      <trkpt lat="46.7669" lon="5.82356">
        <ele>539.2</ele>
        <time>2022-05-24T15:17:20Z</time>
      </trkpt>
      <trkpt lat="46.76684" lon="5.82351">
        <ele>539</ele>
        <time>2022-05-24T15:17:21Z</time>
      </trkpt>
      <trkpt lat="46.76678" lon="5.82347">
        <ele>539</ele>
        <time>2022-05-24T15:17:22Z</time>
      </trkpt>
      <trkpt lat="46.76672" lon="5.82343">
        <ele>539</ele>
        <time>2022-05-24T15:17:23Z</time>
      </trkpt>
      <trkpt lat="46.76666" lon="5.82338">
        <ele>539</ele>
        <time>2022-05-24T15:17:24Z</time>
      </trkpt>
      <trkpt lat="46.7666" lon="5.82334">
        <ele>539</ele>
        <time>2022-05-24T15:17:25Z</time>
      </trkpt>
      <trkpt lat="46.76654" lon="5.8233">
        <ele>539</ele>
        <time>2022-05-24T15:17:26Z</time>
      </trkpt>
      <trkpt lat="46.76648" lon="5.82325">
        <ele>539</ele>
        <time>2022-05-24T15:17:27Z</time>
      </trkpt>
      <trkpt lat="46.76642" lon="5.82321">
        <ele>539</ele>
        <time>2022-05-24T15:17:28Z</time>
      </trkpt>
      <trkpt lat="46.76636" lon="5.82317">
        <ele>539</ele>
        <time>2022-05-24T15:17:29Z</time>
      </trkpt>
      <trkpt lat="46.76631" lon="5.82313">
        <ele>539</ele>
        <time>2022-05-24T15:17:30Z</time>
      </trkpt>
      <trkpt lat="46.76625" lon="5.82308">
        <ele>539</ele>
        <time>2022-05-24T15:17:31Z</time>
      </trkpt>
      <trkpt lat="46.76619" lon="5.82304">
        <ele>538.8</ele>
        <time>2022-05-24T15:17:32Z</time>
      </trkpt>
      <trkpt lat="46.76613" lon="5.823">
        <ele>538.8</ele>
        <time>2022-05-24T15:17:33Z</time>
      </trkpt>
      <trkpt lat="46.76607" lon="5.82295">
        <ele>538.8</ele>
        <time>2022-05-24T15:17:34Z</time>
      </trkpt>
      <trkpt lat="46.76601" lon="5.82291">
        <ele>538.8</ele>
        <time>2022-05-24T15:17:35Z</time>
      </trkpt>
      <trkpt lat="46.76595" lon="5.82286">
        <ele>538.8</ele>
        <time>2022-05-24T15:17:36Z</time>
      </trkpt>
      <trkpt lat="46.76589" lon="5.82282">
        <ele>538.8</ele>
        <time>2022-05-24T15:17:37Z</time>
      </trkpt>
      <trkpt lat="46.76583" lon="5.82278">
        <ele>539.2</ele>
        <time>2022-05-24T15:17:38Z</time>
      </trkpt>
      <trkpt lat="46.76577" lon="5.82273">
        <ele>539.2</ele>
        <time>2022-05-24T15:17:39Z</time>
      </trkpt>
      <trkpt lat="46.76572" lon="5.82269">
        <ele>539.2</ele>
        <time>2022-05-24T15:17:40Z</time>
      </trkpt>
      <trkpt lat="46.76566" lon="5.82265">
        <ele>538.8</ele>
        <time>2022-05-24T15:17:41Z</time>
      </trkpt>
      <trkpt lat="46.7656" lon="5.82261">
        <ele>538.8</ele>
        <time>2022-05-24T15:17:42Z</time>
      </trkpt>
      <trkpt lat="46.76555" lon="5.82257">
        <ele>538.8</ele>
        <time>2022-05-24T15:17:43Z</time>
      </trkpt>
      <trkpt lat="46.76549" lon="5.82253">
        <ele>538.8</ele>
        <time>2022-05-24T15:17:44Z</time>
      </trkpt>
      <trkpt lat="46.76543" lon="5.82248">
        <ele>538.6</ele>
        <time>2022-05-24T15:17:45Z</time>
      </trkpt>
      <trkpt lat="46.76537" lon="5.82244">
        <ele>538.6</ele>
        <time>2022-05-24T15:17:46Z</time>
      </trkpt>
      <trkpt lat="46.76532" lon="5.8224">
        <ele>538.6</ele>
        <time>2022-05-24T15:17:47Z</time>
      </trkpt>
      <trkpt lat="46.76526" lon="5.82236">
        <ele>538.4</ele>
        <time>2022-05-24T15:17:48Z</time>
      </trkpt>
      <trkpt lat="46.7652" lon="5.82231">
        <ele>538</ele>
        <time>2022-05-24T15:17:49Z</time>
      </trkpt>
      <trkpt lat="46.76514" lon="5.82227">
        <ele>538</ele>
        <time>2022-05-24T15:17:50Z</time>
      </trkpt>
      <trkpt lat="46.76508" lon="5.82223">
        <ele>538</ele>
        <time>2022-05-24T15:17:51Z</time>
      </trkpt>
      <trkpt lat="46.76502" lon="5.82218">
        <ele>538</ele>
        <time>2022-05-24T15:17:52Z</time>
      </trkpt>
      <trkpt lat="46.76496" lon="5.82214">
        <ele>538</ele>
        <time>2022-05-24T15:17:53Z</time>
      </trkpt>
      <trkpt lat="46.7649" lon="5.8221">
        <ele>538</ele>
        <time>2022-05-24T15:17:54Z</time>
      </trkpt>
      <trkpt lat="46.76484" lon="5.82206">
        <ele>538</ele>
        <time>2022-05-24T15:17:55Z</time>
      </trkpt>
      <trkpt lat="46.76478" lon="5.82201">
        <ele>537.8</ele>
        <time>2022-05-24T15:17:56Z</time>
      </trkpt>
      <trkpt lat="46.76472" lon="5.82197">
        <ele>537.8</ele>
        <time>2022-05-24T15:17:57Z</time>
      </trkpt>
      <trkpt lat="46.76466" lon="5.82192">
        <ele>537.8</ele>
        <time>2022-05-24T15:17:58Z</time>
      </trkpt>
      <trkpt lat="46.7646" lon="5.82188">
        <ele>537.8</ele>
        <time>2022-05-24T15:17:59Z</time>
      </trkpt>
      <trkpt lat="46.76453" lon="5.82183">
        <ele>537.8</ele>
        <time>2022-05-24T15:18:00Z</time>
      </trkpt>
      <trkpt lat="46.76447" lon="5.82178">
        <ele>537.4</ele>
        <time>2022-05-24T15:18:01Z</time>
      </trkpt>
      <trkpt lat="46.76441" lon="5.82173">
        <ele>537.4</ele>
        <time>2022-05-24T15:18:02Z</time>
      </trkpt>
      <trkpt lat="46.76435" lon="5.82169">
        <ele>537.4</ele>
        <time>2022-05-24T15:18:03Z</time>
      </trkpt>
      <trkpt lat="46.76428" lon="5.82164">
        <ele>537.4</ele>
        <time>2022-05-24T15:18:04Z</time>
      </trkpt>
      <trkpt lat="46.76422" lon="5.8216">
        <ele>537.2</ele>
        <time>2022-05-24T15:18:05Z</time>
      </trkpt>
      <trkpt lat="46.76416" lon="5.82155">
        <ele>537.2</ele>
        <time>2022-05-24T15:18:06Z</time>
      </trkpt>
      <trkpt lat="46.7641" lon="5.82151">
        <ele>537.2</ele>
        <time>2022-05-24T15:18:07Z</time>
      </trkpt>
      <trkpt lat="46.76404" lon="5.82146">
        <ele>536.8</ele>
        <time>2022-05-24T15:18:08Z</time>
      </trkpt>
      <trkpt lat="46.76398" lon="5.82142">
        <ele>536.8</ele>
        <time>2022-05-24T15:18:09Z</time>
      </trkpt>
      <trkpt lat="46.76392" lon="5.82138">
        <ele>536.8</ele>
        <time>2022-05-24T15:18:10Z</time>
      </trkpt>
      <trkpt lat="46.76386" lon="5.82134">
        <ele>536.8</ele>
        <time>2022-05-24T15:18:11Z</time>
      </trkpt>
      <trkpt lat="46.76379" lon="5.82129">
        <ele>536.8</ele>
        <time>2022-05-24T15:18:12Z</time>
      </trkpt>
      <trkpt lat="46.76373" lon="5.82125">
        <ele>536.8</ele>
        <time>2022-05-24T15:18:13Z</time>
      </trkpt>
      <trkpt lat="46.76367" lon="5.8212">
        <ele>536.8</ele>
        <time>2022-05-24T15:18:14Z</time>
      </trkpt>
      <trkpt lat="46.76361" lon="5.82116">
        <ele>536.8</ele>
        <time>2022-05-24T15:18:15Z</time>
      </trkpt>
      <trkpt lat="46.76355" lon="5.82112">
        <ele>536.6</ele>
        <time>2022-05-24T15:18:16Z</time>
      </trkpt>
      <trkpt lat="46.76349" lon="5.82107">
        <ele>536.6</ele>
        <time>2022-05-24T15:18:17Z</time>
      </trkpt>
      <trkpt lat="46.76343" lon="5.82103">
        <ele>536.6</ele>
        <time>2022-05-24T15:18:18Z</time>
      </trkpt>
      <trkpt lat="46.76337" lon="5.82099">
        <ele>536.6</ele>
        <time>2022-05-24T15:18:19Z</time>
      </trkpt>
      <trkpt lat="46.76331" lon="5.82095">
        <ele>536.6</ele>
        <time>2022-05-24T15:18:20Z</time>
      </trkpt>
      <trkpt lat="46.76325" lon="5.8209">
        <ele>536.6</ele>
        <time>2022-05-24T15:18:21Z</time>
      </trkpt>
      <trkpt lat="46.7632" lon="5.82086">
        <ele>536.8</ele>
        <time>2022-05-24T15:18:22Z</time>
      </trkpt>
      <trkpt lat="46.76314" lon="5.82082">
        <ele>536.8</ele>
        <time>2022-05-24T15:18:23Z</time>
      </trkpt>
      <trkpt lat="46.76308" lon="5.82078">
        <ele>536.8</ele>
        <time>2022-05-24T15:18:24Z</time>
      </trkpt>
      <trkpt lat="46.76302" lon="5.82073">
        <ele>536.8</ele>
        <time>2022-05-24T15:18:25Z</time>
      </trkpt>
      <trkpt lat="46.76296" lon="5.82069">
        <ele>536.8</ele>
        <time>2022-05-24T15:18:26Z</time>
      </trkpt>
      <trkpt lat="46.7629" lon="5.82065">
        <ele>536.8</ele>
        <time>2022-05-24T15:18:27Z</time>
      </trkpt>
      <trkpt lat="46.76285" lon="5.82061">
        <ele>536.8</ele>
        <time>2022-05-24T15:18:28Z</time>
      </trkpt>
      <trkpt lat="46.76279" lon="5.82057">
        <ele>536.8</ele>
        <time>2022-05-24T15:18:29Z</time>
      </trkpt>
      <trkpt lat="46.76273" lon="5.82053">
        <ele>536.8</ele>
        <time>2022-05-24T15:18:30Z</time>
      </trkpt>
      <trkpt lat="46.76268" lon="5.82049">
        <ele>536.8</ele>
        <time>2022-05-24T15:18:31Z</time>
      </trkpt>
      <trkpt lat="46.76262" lon="5.82044">
        <ele>536.8</ele>
        <time>2022-05-24T15:18:32Z</time>
      </trkpt>
      <trkpt lat="46.76256" lon="5.8204">
        <ele>536.8</ele>
        <time>2022-05-24T15:18:33Z</time>
      </trkpt>
      <trkpt lat="46.7625" lon="5.82036">
        <ele>536.8</ele>
        <time>2022-05-24T15:18:34Z</time>
      </trkpt>
      <trkpt lat="46.76244" lon="5.82031">
        <ele>536.8</ele>
        <time>2022-05-24T15:18:35Z</time>
      </trkpt>
      <trkpt lat="46.76238" lon="5.82027">
        <ele>537.2</ele>
        <time>2022-05-24T15:18:36Z</time>
      </trkpt>
      <trkpt lat="46.76233" lon="5.82023">
        <ele>537.2</ele>
        <time>2022-05-24T15:18:37Z</time>
      </trkpt>
      <trkpt lat="46.76227" lon="5.82019">
        <ele>537.2</ele>
        <time>2022-05-24T15:18:38Z</time>
      </trkpt>
      <trkpt lat="46.76221" lon="5.82015">
        <ele>537.2</ele>
        <time>2022-05-24T15:18:39Z</time>
      </trkpt>
      <trkpt lat="46.76215" lon="5.82011">
        <ele>537.4</ele>
        <time>2022-05-24T15:18:40Z</time>
      </trkpt>
      <trkpt lat="46.7621" lon="5.82007">
        <ele>537.4</ele>
        <time>2022-05-24T15:18:41Z</time>
      </trkpt>
      <trkpt lat="46.76204" lon="5.82003">
        <ele>537.4</ele>
        <time>2022-05-24T15:18:42Z</time>
      </trkpt>
      <trkpt lat="46.76198" lon="5.81999">
        <ele>537.4</ele>
        <time>2022-05-24T15:18:43Z</time>
      </trkpt>
      <trkpt lat="46.76193" lon="5.81995">
        <ele>537.4</ele>
        <time>2022-05-24T15:18:44Z</time>
      </trkpt>
      <trkpt lat="46.76187" lon="5.81991">
        <ele>537.4</ele>
        <time>2022-05-24T15:18:45Z</time>
      </trkpt>
      <trkpt lat="46.76181" lon="5.81986">
        <ele>537.4</ele>
        <time>2022-05-24T15:18:46Z</time>
      </trkpt>
      <trkpt lat="46.76175" lon="5.81982">
        <ele>537.4</ele>
        <time>2022-05-24T15:18:47Z</time>
      </trkpt>
      <trkpt lat="46.76169" lon="5.81978">
        <ele>537.4</ele>
        <time>2022-05-24T15:18:48Z</time>
      </trkpt>
      <trkpt lat="46.76163" lon="5.81974">
        <ele>537</ele>
        <time>2022-05-24T15:18:49Z</time>
      </trkpt>
      <trkpt lat="46.76157" lon="5.81969">
        <ele>537</ele>
        <time>2022-05-24T15:18:50Z</time>
      </trkpt>
      <trkpt lat="46.76145" lon="5.81961">
        <ele>537</ele>
        <time>2022-05-24T15:18:51Z</time>
      </trkpt>
      <trkpt lat="46.76139" lon="5.81956">
        <ele>537</ele>
        <time>2022-05-24T15:18:52Z</time>
      </trkpt>
      <trkpt lat="46.76133" lon="5.81952">
        <ele>537</ele>
        <time>2022-05-24T15:18:53Z</time>
      </trkpt>
      <trkpt lat="46.76127" lon="5.81948">
        <ele>537</ele>
        <time>2022-05-24T15:18:54Z</time>
      </trkpt>
      <trkpt lat="46.76121" lon="5.81944">
        <ele>537</ele>
        <time>2022-05-24T15:18:55Z</time>
      </trkpt>
      <trkpt lat="46.76115" lon="5.81939">
        <ele>536.8</ele>
        <time>2022-05-24T15:18:56Z</time>
      </trkpt>
      <trkpt lat="46.76109" lon="5.81935">
        <ele>536.8</ele>
        <time>2022-05-24T15:18:57Z</time>
      </trkpt>
      <trkpt lat="46.76103" lon="5.81931">
        <ele>536.8</ele>
        <time>2022-05-24T15:18:58Z</time>
      </trkpt>
      <trkpt lat="46.76097" lon="5.81927">
        <ele>536.8</ele>
        <time>2022-05-24T15:18:59Z</time>
      </trkpt>
      <trkpt lat="46.76092" lon="5.81922">
        <ele>537</ele>
        <time>2022-05-24T15:19:00Z</time>
      </trkpt>
      <trkpt lat="46.76086" lon="5.81918">
        <ele>537</ele>
        <time>2022-05-24T15:19:01Z</time>
      </trkpt>
      <trkpt lat="46.7608" lon="5.81914">
        <ele>537</ele>
        <time>2022-05-24T15:19:02Z</time>
      </trkpt>
      <trkpt lat="46.76075" lon="5.8191">
        <ele>537</ele>
        <time>2022-05-24T15:19:03Z</time>
      </trkpt>
      <trkpt lat="46.76069" lon="5.81906">
        <ele>537</ele>
        <time>2022-05-24T15:19:04Z</time>
      </trkpt>
      <trkpt lat="46.76064" lon="5.81902">
        <ele>537</ele>
        <time>2022-05-24T15:19:05Z</time>
      </trkpt>
      <trkpt lat="46.76058" lon="5.81898">
        <ele>537</ele>
        <time>2022-05-24T15:19:06Z</time>
      </trkpt>
      <trkpt lat="46.76052" lon="5.81894">
        <ele>537</ele>
        <time>2022-05-24T15:19:07Z</time>
      </trkpt>
      <trkpt lat="46.76047" lon="5.8189">
        <ele>537</ele>
        <time>2022-05-24T15:19:08Z</time>
      </trkpt>
      <trkpt lat="46.76041" lon="5.81886">
        <ele>537.2</ele>
        <time>2022-05-24T15:19:09Z</time>
      </trkpt>
      <trkpt lat="46.76035" lon="5.81882">
        <ele>537.2</ele>
        <time>2022-05-24T15:19:10Z</time>
      </trkpt>
      <trkpt lat="46.76029" lon="5.81878">
        <ele>537.2</ele>
        <time>2022-05-24T15:19:11Z</time>
      </trkpt>
      <trkpt lat="46.76024" lon="5.81874">
        <ele>537</ele>
        <time>2022-05-24T15:19:12Z</time>
      </trkpt>
      <trkpt lat="46.76018" lon="5.8187">
        <ele>537</ele>
        <time>2022-05-24T15:19:13Z</time>
      </trkpt>
      <trkpt lat="46.76012" lon="5.81865">
        <ele>537</ele>
        <time>2022-05-24T15:19:14Z</time>
      </trkpt>
      <trkpt lat="46.76006" lon="5.81861">
        <ele>537</ele>
        <time>2022-05-24T15:19:15Z</time>
      </trkpt>
      <trkpt lat="46.76" lon="5.81856">
        <ele>537</ele>
        <time>2022-05-24T15:19:16Z</time>
      </trkpt>
      <trkpt lat="46.75994" lon="5.81852">
        <ele>537</ele>
        <time>2022-05-24T15:19:17Z</time>
      </trkpt>
      <trkpt lat="46.75988" lon="5.81847">
        <ele>536.6</ele>
        <time>2022-05-24T15:19:18Z</time>
      </trkpt>
      <trkpt lat="46.75982" lon="5.81843">
        <ele>536.6</ele>
        <time>2022-05-24T15:19:19Z</time>
      </trkpt>
      <trkpt lat="46.75976" lon="5.81839">
        <ele>536.6</ele>
        <time>2022-05-24T15:19:20Z</time>
      </trkpt>
      <trkpt lat="46.7597" lon="5.81835">
        <ele>536.6</ele>
        <time>2022-05-24T15:19:21Z</time>
      </trkpt>
      <trkpt lat="46.75964" lon="5.81831">
        <ele>536.6</ele>
        <time>2022-05-24T15:19:22Z</time>
      </trkpt>
      <trkpt lat="46.75959" lon="5.81827">
        <ele>536.6</ele>
        <time>2022-05-24T15:19:23Z</time>
      </trkpt>
      <trkpt lat="46.75953" lon="5.81822">
        <ele>536.6</ele>
        <time>2022-05-24T15:19:24Z</time>
      </trkpt>
      <trkpt lat="46.75947" lon="5.81818">
        <ele>536.6</ele>
        <time>2022-05-24T15:19:25Z</time>
      </trkpt>
      <trkpt lat="46.75941" lon="5.81813">
        <ele>536.4</ele>
        <time>2022-05-24T15:19:26Z</time>
      </trkpt>
      <trkpt lat="46.75935" lon="5.81809">
        <ele>536.4</ele>
        <time>2022-05-24T15:19:27Z</time>
      </trkpt>
      <trkpt lat="46.75929" lon="5.81804">
        <ele>536.4</ele>
        <time>2022-05-24T15:19:28Z</time>
      </trkpt>
      <trkpt lat="46.75924" lon="5.81799">
        <ele>536.4</ele>
        <time>2022-05-24T15:19:29Z</time>
      </trkpt>
      <trkpt lat="46.75918" lon="5.81793">
        <ele>536.4</ele>
        <time>2022-05-24T15:19:30Z</time>
      </trkpt>
      <trkpt lat="46.75912" lon="5.81788">
        <ele>536.4</ele>
        <time>2022-05-24T15:19:31Z</time>
      </trkpt>
      <trkpt lat="46.75906" lon="5.81782">
        <ele>536.4</ele>
        <time>2022-05-24T15:19:32Z</time>
      </trkpt>
      <trkpt lat="46.75901" lon="5.81777">
        <ele>536.4</ele>
        <time>2022-05-24T15:19:33Z</time>
      </trkpt>
      <trkpt lat="46.75895" lon="5.81771">
        <ele>536.4</ele>
        <time>2022-05-24T15:19:34Z</time>
      </trkpt>
      <trkpt lat="46.75889" lon="5.81765">
        <ele>536.4</ele>
        <time>2022-05-24T15:19:35Z</time>
      </trkpt>
      <trkpt lat="46.75884" lon="5.81759">
        <ele>536.2</ele>
        <time>2022-05-24T15:19:36Z</time>
      </trkpt>
      <trkpt lat="46.75878" lon="5.81754">
        <ele>536.2</ele>
        <time>2022-05-24T15:19:37Z</time>
      </trkpt>
      <trkpt lat="46.75872" lon="5.81748">
        <ele>536.2</ele>
        <time>2022-05-24T15:19:38Z</time>
      </trkpt>
      <trkpt lat="46.75866" lon="5.81742">
        <ele>535.8</ele>
        <time>2022-05-24T15:19:39Z</time>
      </trkpt>
      <trkpt lat="46.75861" lon="5.81736">
        <ele>535.8</ele>
        <time>2022-05-24T15:19:40Z</time>
      </trkpt>
      <trkpt lat="46.75855" lon="5.8173">
        <ele>535.6</ele>
        <time>2022-05-24T15:19:41Z</time>
      </trkpt>
      <trkpt lat="46.75849" lon="5.81725">
        <ele>535.6</ele>
        <time>2022-05-24T15:19:42Z</time>
      </trkpt>
      <trkpt lat="46.75843" lon="5.81719">
        <ele>535.6</ele>
        <time>2022-05-24T15:19:43Z</time>
      </trkpt>
      <trkpt lat="46.75838" lon="5.81713">
        <ele>535.6</ele>
        <time>2022-05-24T15:19:44Z</time>
      </trkpt>
      <trkpt lat="46.75832" lon="5.81707">
        <ele>535.6</ele>
        <time>2022-05-24T15:19:45Z</time>
      </trkpt>
      <trkpt lat="46.75826" lon="5.81701">
        <ele>535.6</ele>
        <time>2022-05-24T15:19:46Z</time>
      </trkpt>
      <trkpt lat="46.75821" lon="5.81696">
        <ele>535.6</ele>
        <time>2022-05-24T15:19:47Z</time>
      </trkpt>
      <trkpt lat="46.75815" lon="5.8169">
        <ele>535.6</ele>
        <time>2022-05-24T15:19:48Z</time>
      </trkpt>
      <trkpt lat="46.7581" lon="5.81685">
        <ele>535.6</ele>
        <time>2022-05-24T15:19:49Z</time>
      </trkpt>
      <trkpt lat="46.75804" lon="5.81679">
        <ele>535.6</ele>
        <time>2022-05-24T15:19:50Z</time>
      </trkpt>
      <trkpt lat="46.75799" lon="5.81673">
        <ele>535.6</ele>
        <time>2022-05-24T15:19:51Z</time>
      </trkpt>
      <trkpt lat="46.75794" lon="5.81668">
        <ele>535.6</ele>
        <time>2022-05-24T15:19:52Z</time>
      </trkpt>
      <trkpt lat="46.75789" lon="5.81662">
        <ele>535.6</ele>
        <time>2022-05-24T15:19:53Z</time>
      </trkpt>
      <trkpt lat="46.75784" lon="5.81657">
        <ele>535.4</ele>
        <time>2022-05-24T15:19:54Z</time>
      </trkpt>
      <trkpt lat="46.75778" lon="5.81652">
        <ele>535.4</ele>
        <time>2022-05-24T15:19:55Z</time>
      </trkpt>
      <trkpt lat="46.75774" lon="5.81647">
        <ele>535.2</ele>
        <time>2022-05-24T15:19:56Z</time>
      </trkpt>
      <trkpt lat="46.75769" lon="5.81642">
        <ele>535.2</ele>
        <time>2022-05-24T15:19:57Z</time>
      </trkpt>
      <trkpt lat="46.75764" lon="5.81638">
        <ele>535.2</ele>
        <time>2022-05-24T15:19:58Z</time>
      </trkpt>
      <trkpt lat="46.75759" lon="5.81633">
        <ele>535</ele>
        <time>2022-05-24T15:19:59Z</time>
      </trkpt>
      <trkpt lat="46.75754" lon="5.81628">
        <ele>535</ele>
        <time>2022-05-24T15:20:00Z</time>
      </trkpt>
      <trkpt lat="46.75754" lon="5.81628">
        <ele>535</ele>
        <time>2022-05-24T15:20:01Z</time>
      </trkpt>
      <trkpt lat="46.75749" lon="5.81623">
        <ele>535</ele>
        <time>2022-05-24T15:20:02Z</time>
      </trkpt>
      <trkpt lat="46.75744" lon="5.81617">
        <ele>535</ele>
        <time>2022-05-24T15:20:03Z</time>
      </trkpt>
      <trkpt lat="46.75739" lon="5.81612">
        <ele>534.6</ele>
        <time>2022-05-24T15:20:04Z</time>
      </trkpt>
      <trkpt lat="46.75734" lon="5.81607">
        <ele>534.6</ele>
        <time>2022-05-24T15:20:05Z</time>
      </trkpt>
      <trkpt lat="46.75729" lon="5.81601">
        <ele>534.6</ele>
        <time>2022-05-24T15:20:06Z</time>
      </trkpt>
      <trkpt lat="46.75724" lon="5.81596">
        <ele>534.6</ele>
        <time>2022-05-24T15:20:07Z</time>
      </trkpt>
      <trkpt lat="46.75719" lon="5.81591">
        <ele>534.6</ele>
        <time>2022-05-24T15:20:08Z</time>
      </trkpt>
      <trkpt lat="46.75714" lon="5.81585">
        <ele>534.6</ele>
        <time>2022-05-24T15:20:09Z</time>
      </trkpt>
      <trkpt lat="46.75708" lon="5.8158">
        <ele>534.6</ele>
        <time>2022-05-24T15:20:10Z</time>
      </trkpt>
      <trkpt lat="46.75703" lon="5.81575">
        <ele>534.6</ele>
        <time>2022-05-24T15:20:11Z</time>
      </trkpt>
      <trkpt lat="46.75698" lon="5.81569">
        <ele>534.6</ele>
        <time>2022-05-24T15:20:12Z</time>
      </trkpt>
      <trkpt lat="46.75693" lon="5.81564">
        <ele>534.6</ele>
        <time>2022-05-24T15:20:13Z</time>
      </trkpt>
      <trkpt lat="46.75688" lon="5.81558">
        <ele>534.6</ele>
        <time>2022-05-24T15:20:14Z</time>
      </trkpt>
      <trkpt lat="46.75683" lon="5.81553">
        <ele>534.8</ele>
        <time>2022-05-24T15:20:15Z</time>
      </trkpt>
      <trkpt lat="46.75678" lon="5.81548">
        <ele>534.8</ele>
        <time>2022-05-24T15:20:16Z</time>
      </trkpt>
      <trkpt lat="46.75673" lon="5.81543">
        <ele>534.8</ele>
        <time>2022-05-24T15:20:17Z</time>
      </trkpt>
      <trkpt lat="46.75668" lon="5.81538">
        <ele>534.8</ele>
        <time>2022-05-24T15:20:18Z</time>
      </trkpt>
      <trkpt lat="46.75663" lon="5.81533">
        <ele>534.8</ele>
        <time>2022-05-24T15:20:19Z</time>
      </trkpt>
      <trkpt lat="46.75658" lon="5.81528">
        <ele>534.8</ele>
        <time>2022-05-24T15:20:20Z</time>
      </trkpt>
      <trkpt lat="46.75653" lon="5.81523">
        <ele>534.8</ele>
        <time>2022-05-24T15:20:21Z</time>
      </trkpt>
      <trkpt lat="46.75648" lon="5.81518">
        <ele>534.6</ele>
        <time>2022-05-24T15:20:22Z</time>
      </trkpt>
      <trkpt lat="46.75642" lon="5.81513">
        <ele>534.6</ele>
        <time>2022-05-24T15:20:23Z</time>
      </trkpt>
      <trkpt lat="46.75637" lon="5.81509">
        <ele>534.4</ele>
        <time>2022-05-24T15:20:24Z</time>
      </trkpt>
      <trkpt lat="46.75631" lon="5.81504">
        <ele>534.4</ele>
        <time>2022-05-24T15:20:25Z</time>
      </trkpt>
      <trkpt lat="46.75626" lon="5.81499">
        <ele>534.4</ele>
        <time>2022-05-24T15:20:26Z</time>
      </trkpt>
      <trkpt lat="46.7562" lon="5.81494">
        <ele>534.2</ele>
        <time>2022-05-24T15:20:27Z</time>
      </trkpt>
      <trkpt lat="46.75615" lon="5.81489">
        <ele>534.2</ele>
        <time>2022-05-24T15:20:28Z</time>
      </trkpt>
      <trkpt lat="46.7561" lon="5.81484">
        <ele>534.2</ele>
        <time>2022-05-24T15:20:29Z</time>
      </trkpt>
      <trkpt lat="46.75604" lon="5.81479">
        <ele>534.2</ele>
        <time>2022-05-24T15:20:30Z</time>
      </trkpt>
      <trkpt lat="46.75599" lon="5.81474">
        <ele>534.2</ele>
        <time>2022-05-24T15:20:31Z</time>
      </trkpt>
      <trkpt lat="46.75593" lon="5.8147">
        <ele>534.2</ele>
        <time>2022-05-24T15:20:32Z</time>
      </trkpt>
      <trkpt lat="46.75588" lon="5.81465">
        <ele>533.8</ele>
        <time>2022-05-24T15:20:33Z</time>
      </trkpt>
      <trkpt lat="46.75582" lon="5.8146">
        <ele>533.8</ele>
        <time>2022-05-24T15:20:34Z</time>
      </trkpt>
      <trkpt lat="46.75577" lon="5.81456">
        <ele>533.8</ele>
        <time>2022-05-24T15:20:35Z</time>
      </trkpt>
      <trkpt lat="46.75571" lon="5.81451">
        <ele>533.8</ele>
        <time>2022-05-24T15:20:36Z</time>
      </trkpt>
      <trkpt lat="46.75566" lon="5.81446">
        <ele>533.6</ele>
        <time>2022-05-24T15:20:37Z</time>
      </trkpt>
      <trkpt lat="46.7556" lon="5.81442">
        <ele>533.6</ele>
        <time>2022-05-24T15:20:38Z</time>
      </trkpt>
      <trkpt lat="46.75555" lon="5.81437">
        <ele>533.4</ele>
        <time>2022-05-24T15:20:39Z</time>
      </trkpt>
      <trkpt lat="46.7555" lon="5.81432">
        <ele>533.4</ele>
        <time>2022-05-24T15:20:40Z</time>
      </trkpt>
      <trkpt lat="46.75545" lon="5.81428">
        <ele>533</ele>
        <time>2022-05-24T15:20:41Z</time>
      </trkpt>
      <trkpt lat="46.7554" lon="5.81424">
        <ele>533</ele>
        <time>2022-05-24T15:20:42Z</time>
      </trkpt>
      <trkpt lat="46.75535" lon="5.8142">
        <ele>533</ele>
        <time>2022-05-24T15:20:43Z</time>
      </trkpt>
      <trkpt lat="46.7553" lon="5.81417">
        <ele>532.8</ele>
        <time>2022-05-24T15:20:44Z</time>
      </trkpt>
      <trkpt lat="46.75526" lon="5.81413">
        <ele>532.8</ele>
        <time>2022-05-24T15:20:45Z</time>
      </trkpt>
      <trkpt lat="46.75522" lon="5.81409">
        <ele>532.8</ele>
        <time>2022-05-24T15:20:46Z</time>
      </trkpt>
      <trkpt lat="46.75518" lon="5.81404">
        <ele>532.8</ele>
        <time>2022-05-24T15:20:47Z</time>
      </trkpt>
      <trkpt lat="46.75515" lon="5.81398">
        <ele>532.8</ele>
        <time>2022-05-24T15:20:48Z</time>
      </trkpt>
      <trkpt lat="46.75513" lon="5.81391">
        <ele>532.8</ele>
        <time>2022-05-24T15:20:49Z</time>
      </trkpt>
      <trkpt lat="46.75512" lon="5.81384">
        <ele>532.8</ele>
        <time>2022-05-24T15:20:50Z</time>
      </trkpt>
      <trkpt lat="46.75512" lon="5.81377">
        <ele>532.8</ele>
        <time>2022-05-24T15:20:51Z</time>
      </trkpt>
      <trkpt lat="46.75514" lon="5.81369">
        <ele>532.8</ele>
        <time>2022-05-24T15:20:52Z</time>
      </trkpt>
      <trkpt lat="46.75516" lon="5.81362">
        <ele>532.8</ele>
        <time>2022-05-24T15:20:53Z</time>
      </trkpt>
      <trkpt lat="46.75519" lon="5.81355">
        <ele>532.8</ele>
        <time>2022-05-24T15:20:54Z</time>
      </trkpt>
      <trkpt lat="46.75521" lon="5.81348">
        <ele>532.8</ele>
        <time>2022-05-24T15:20:55Z</time>
      </trkpt>
      <trkpt lat="46.75523" lon="5.8134">
        <ele>532.8</ele>
        <time>2022-05-24T15:20:56Z</time>
      </trkpt>
      <trkpt lat="46.75526" lon="5.81332">
        <ele>532.8</ele>
        <time>2022-05-24T15:20:57Z</time>
      </trkpt>
      <trkpt lat="46.75528" lon="5.81324">
        <ele>532.8</ele>
        <time>2022-05-24T15:20:58Z</time>
      </trkpt>
      <trkpt lat="46.7553" lon="5.81316">
        <ele>532.8</ele>
        <time>2022-05-24T15:20:59Z</time>
      </trkpt>
      <trkpt lat="46.75532" lon="5.81308">
        <ele>532.8</ele>
        <time>2022-05-24T15:21:00Z</time>
      </trkpt>
      <trkpt lat="46.75535" lon="5.813">
        <ele>532.8</ele>
        <time>2022-05-24T15:21:01Z</time>
      </trkpt>
      <trkpt lat="46.75537" lon="5.81291">
        <ele>532.6</ele>
        <time>2022-05-24T15:21:02Z</time>
      </trkpt>
      <trkpt lat="46.7554" lon="5.81283">
        <ele>532.6</ele>
        <time>2022-05-24T15:21:03Z</time>
      </trkpt>
      <trkpt lat="46.75542" lon="5.81274">
        <ele>532.6</ele>
        <time>2022-05-24T15:21:04Z</time>
      </trkpt>
      <trkpt lat="46.75545" lon="5.81266">
        <ele>532.2</ele>
        <time>2022-05-24T15:21:05Z</time>
      </trkpt>
      <trkpt lat="46.75547" lon="5.81258">
        <ele>532.2</ele>
        <time>2022-05-24T15:21:06Z</time>
      </trkpt>
      <trkpt lat="46.7555" lon="5.81249">
        <ele>532</ele>
        <time>2022-05-24T15:21:07Z</time>
      </trkpt>
      <trkpt lat="46.75553" lon="5.81241">
        <ele>532</ele>
        <time>2022-05-24T15:21:08Z</time>
      </trkpt>
      <trkpt lat="46.75555" lon="5.81232">
        <ele>531.6</ele>
        <time>2022-05-24T15:21:09Z</time>
      </trkpt>
      <trkpt lat="46.75558" lon="5.81223">
        <ele>531.4</ele>
        <time>2022-05-24T15:21:10Z</time>
      </trkpt>
      <trkpt lat="46.7556" lon="5.81214">
        <ele>531.4</ele>
        <time>2022-05-24T15:21:11Z</time>
      </trkpt>
      <trkpt lat="46.75563" lon="5.81206">
        <ele>531.2</ele>
        <time>2022-05-24T15:21:12Z</time>
      </trkpt>
      <trkpt lat="46.75565" lon="5.81197">
        <ele>531.2</ele>
        <time>2022-05-24T15:21:13Z</time>
      </trkpt>
      <trkpt lat="46.75568" lon="5.81188">
        <ele>530.8</ele>
        <time>2022-05-24T15:21:14Z</time>
      </trkpt>
      <trkpt lat="46.75571" lon="5.81179">
        <ele>530.8</ele>
        <time>2022-05-24T15:21:15Z</time>
      </trkpt>
      <trkpt lat="46.75573" lon="5.8117">
        <ele>530.6</ele>
        <time>2022-05-24T15:21:16Z</time>
      </trkpt>
      <trkpt lat="46.75576" lon="5.81161">
        <ele>530.2</ele>
        <time>2022-05-24T15:21:17Z</time>
      </trkpt>
      <trkpt lat="46.75578" lon="5.81152">
        <ele>530.2</ele>
        <time>2022-05-24T15:21:18Z</time>
      </trkpt>
      <trkpt lat="46.75581" lon="5.81142">
        <ele>530</ele>
        <time>2022-05-24T15:21:19Z</time>
      </trkpt>
      <trkpt lat="46.75583" lon="5.81133">
        <ele>529.6</ele>
        <time>2022-05-24T15:21:20Z</time>
      </trkpt>
      <trkpt lat="46.75586" lon="5.81124">
        <ele>529.4</ele>
        <time>2022-05-24T15:21:21Z</time>
      </trkpt>
      <trkpt lat="46.75588" lon="5.81115">
        <ele>529.2</ele>
        <time>2022-05-24T15:21:22Z</time>
      </trkpt>
      <trkpt lat="46.75591" lon="5.81106">
        <ele>529</ele>
        <time>2022-05-24T15:21:23Z</time>
      </trkpt>
      <trkpt lat="46.75594" lon="5.81096">
        <ele>529</ele>
        <time>2022-05-24T15:21:24Z</time>
      </trkpt>
      <trkpt lat="46.75596" lon="5.81087">
        <ele>528.6</ele>
        <time>2022-05-24T15:21:25Z</time>
      </trkpt>
      <trkpt lat="46.75599" lon="5.81078">
        <ele>528.2</ele>
        <time>2022-05-24T15:21:26Z</time>
      </trkpt>
    </trkseg>
  </trk>
</gpx>